<?xml version="1.0" encoding="UTF-8" standalone="no" ?>
<gpx xmlns="http://www.topografix.com/GPX/1/1" xmlns:xsi="http://www.w3.org/2001/XMLSchema-instance" xsi:schemaLocation="http://www.topografix.com/GPX/1/1 http://www.topografix.com/GPX/1/1/gpx.xsd" version="1.1" creator="VisuGPX - https://www.visugpx.com">
  <metadata>
    <name>raid alba 2022 41KM V9</name>
  </metadata>
  <trk>
    <name><![CDATA[RA 2022 41KM V9]]></name>
    <trkseg>
      <trkpt lat="44.55961" lon="4.60408">
        <ele>192.80000305176</ele>
        <time>2020-09-13T07:49:59Z</time>
      </trkpt>
      <trkpt lat="44.55947" lon="4.60401">
        <ele>192.80000305176</ele>
        <time>2020-09-13T07:50:04Z</time>
      </trkpt>
      <trkpt lat="44.55941" lon="4.60398">
        <ele>192.80000305176</ele>
        <time>2020-09-13T07:50:06Z</time>
      </trkpt>
      <trkpt lat="44.55939" lon="4.60397">
        <ele>193</ele>
        <time>2020-09-13T07:50:07Z</time>
      </trkpt>
      <trkpt lat="44.55936" lon="4.60395">
        <ele>192.60000610352</ele>
        <time>2020-09-13T07:50:08Z</time>
      </trkpt>
      <trkpt lat="44.55934" lon="4.60393">
        <ele>192.80000305176</ele>
        <time>2020-09-13T07:50:09Z</time>
      </trkpt>
      <trkpt lat="44.55931" lon="4.60392">
        <ele>192.60000610352</ele>
        <time>2020-09-13T07:50:10Z</time>
      </trkpt>
      <trkpt lat="44.55929" lon="4.6039">
        <ele>192.39999389648</ele>
        <time>2020-09-13T07:50:11Z</time>
      </trkpt>
      <trkpt lat="44.55927" lon="4.60389">
        <ele>192.39999389648</ele>
        <time>2020-09-13T07:50:12Z</time>
      </trkpt>
      <trkpt lat="44.55924" lon="4.60387">
        <ele>192.39999389648</ele>
        <time>2020-09-13T07:50:13Z</time>
      </trkpt>
      <trkpt lat="44.55922" lon="4.60385">
        <ele>192.19999694824</ele>
        <time>2020-09-13T07:50:14Z</time>
      </trkpt>
      <trkpt lat="44.55912" lon="4.60377">
        <ele>192</ele>
        <time>2020-09-13T07:50:18Z</time>
      </trkpt>
      <trkpt lat="44.55906" lon="4.60372">
        <ele>192</ele>
        <time>2020-09-13T07:50:20Z</time>
      </trkpt>
      <trkpt lat="44.55897" lon="4.60362">
        <ele>191.60000610352</ele>
        <time>2020-09-13T07:50:23Z</time>
      </trkpt>
      <trkpt lat="44.55894" lon="4.6036">
        <ele>191.80000305176</ele>
        <time>2020-09-13T07:50:24Z</time>
      </trkpt>
      <trkpt lat="44.55891" lon="4.60358">
        <ele>191.60000610352</ele>
        <time>2020-09-13T07:50:25Z</time>
      </trkpt>
      <trkpt lat="44.55888" lon="4.60356">
        <ele>191.60000610352</ele>
        <time>2020-09-13T07:50:26Z</time>
      </trkpt>
      <trkpt lat="44.55885" lon="4.60353">
        <ele>191.60000610352</ele>
        <time>2020-09-13T07:50:27Z</time>
      </trkpt>
      <trkpt lat="44.55882" lon="4.60351">
        <ele>191.60000610352</ele>
        <time>2020-09-13T07:50:28Z</time>
      </trkpt>
      <trkpt lat="44.55879" lon="4.60349">
        <ele>191.39999389648</ele>
        <time>2020-09-13T07:50:29Z</time>
      </trkpt>
      <trkpt lat="44.55876" lon="4.60348">
        <ele>191.60000610352</ele>
        <time>2020-09-13T07:50:30Z</time>
      </trkpt>
      <trkpt lat="44.55874" lon="4.60346">
        <ele>191.39999389648</ele>
        <time>2020-09-13T07:50:31Z</time>
      </trkpt>
      <trkpt lat="44.55871" lon="4.60344">
        <ele>191.39999389648</ele>
        <time>2020-09-13T07:50:32Z</time>
      </trkpt>
      <trkpt lat="44.55866" lon="4.60341">
        <ele>191.39999389648</ele>
        <time>2020-09-13T07:50:34Z</time>
      </trkpt>
      <trkpt lat="44.55857" lon="4.60337">
        <ele>191.19999694824</ele>
        <time>2020-09-13T07:50:37Z</time>
      </trkpt>
      <trkpt lat="44.55833" lon="4.60324">
        <ele>191</ele>
        <time>2020-09-13T07:50:44Z</time>
      </trkpt>
      <trkpt lat="44.55829" lon="4.60322">
        <ele>191</ele>
        <time>2020-09-13T07:50:45Z</time>
      </trkpt>
      <trkpt lat="44.55805" lon="4.60309">
        <ele>190.80000305176</ele>
        <time>2020-09-13T07:50:51Z</time>
      </trkpt>
      <trkpt lat="44.55793" lon="4.60303">
        <ele>190.39999389648</ele>
        <time>2020-09-13T07:50:54Z</time>
      </trkpt>
      <trkpt lat="44.55784" lon="4.60299">
        <ele>190.19999694824</ele>
        <time>2020-09-13T07:50:56Z</time>
      </trkpt>
      <trkpt lat="44.5578" lon="4.60297">
        <ele>190</ele>
        <time>2020-09-13T07:50:57Z</time>
      </trkpt>
      <trkpt lat="44.55776" lon="4.60295">
        <ele>189.80000305176</ele>
        <time>2020-09-13T07:50:58Z</time>
      </trkpt>
      <trkpt lat="44.55772" lon="4.60293">
        <ele>189.60000610352</ele>
        <time>2020-09-13T07:50:59Z</time>
      </trkpt>
      <trkpt lat="44.55769" lon="4.60291">
        <ele>189.39999389648</ele>
        <time>2020-09-13T07:51:00Z</time>
      </trkpt>
      <trkpt lat="44.55766" lon="4.60289">
        <ele>189.19999694824</ele>
        <time>2020-09-13T07:51:01Z</time>
      </trkpt>
      <trkpt lat="44.55763" lon="4.60288">
        <ele>189.19999694824</ele>
        <time>2020-09-13T07:51:02Z</time>
      </trkpt>
      <trkpt lat="44.55762" lon="4.60287">
        <ele>189</ele>
        <time>2020-09-13T07:51:03Z</time>
      </trkpt>
      <trkpt lat="44.55761" lon="4.60287">
        <ele>188.80000305176</ele>
        <time>2020-09-13T07:51:04Z</time>
      </trkpt>
      <trkpt lat="44.55761" lon="4.60287">
        <ele>188.60000610352</ele>
        <time>2020-09-13T07:51:06Z</time>
      </trkpt>
      <trkpt lat="44.55761" lon="4.60287">
        <ele>188.39999389648</ele>
        <time>2020-09-13T07:51:10Z</time>
      </trkpt>
      <trkpt lat="44.55759" lon="4.60287">
        <ele>188.39999389648</ele>
        <time>2020-09-13T07:51:11Z</time>
      </trkpt>
      <trkpt lat="44.55758" lon="4.60286">
        <ele>188.39999389648</ele>
        <time>2020-09-13T07:51:12Z</time>
      </trkpt>
      <trkpt lat="44.55756" lon="4.60285">
        <ele>188.39999389648</ele>
        <time>2020-09-13T07:51:13Z</time>
      </trkpt>
      <trkpt lat="44.55752" lon="4.60282">
        <ele>188.19999694824</ele>
        <time>2020-09-13T07:51:15Z</time>
      </trkpt>
      <trkpt lat="44.55751" lon="4.60281">
        <ele>188.19999694824</ele>
        <time>2020-09-13T07:51:16Z</time>
      </trkpt>
      <trkpt lat="44.55746" lon="4.60279">
        <ele>188.19999694824</ele>
        <time>2020-09-13T07:51:18Z</time>
      </trkpt>
      <trkpt lat="44.55742" lon="4.60278">
        <ele>188.19999694824</ele>
        <time>2020-09-13T07:51:19Z</time>
      </trkpt>
      <trkpt lat="44.55733" lon="4.60275">
        <ele>188.19999694824</ele>
        <time>2020-09-13T07:51:21Z</time>
      </trkpt>
      <trkpt lat="44.55723" lon="4.60272">
        <ele>188.19999694824</ele>
        <time>2020-09-13T07:51:23Z</time>
      </trkpt>
      <trkpt lat="44.55717" lon="4.60272">
        <ele>188.19999694824</ele>
        <time>2020-09-13T07:51:24Z</time>
      </trkpt>
      <trkpt lat="44.5571" lon="4.60272">
        <ele>188</ele>
        <time>2020-09-13T07:51:25Z</time>
      </trkpt>
      <trkpt lat="44.55696" lon="4.60275">
        <ele>187.39999389648</ele>
        <time>2020-09-13T07:51:27Z</time>
      </trkpt>
      <trkpt lat="44.5568" lon="4.60277">
        <ele>186.39999389648</ele>
        <time>2020-09-13T07:51:29Z</time>
      </trkpt>
      <trkpt lat="44.55672" lon="4.60276">
        <ele>185.60000610352</ele>
        <time>2020-09-13T07:51:30Z</time>
      </trkpt>
      <trkpt lat="44.55664" lon="4.60274">
        <ele>185.39999389648</ele>
        <time>2020-09-13T07:51:31Z</time>
      </trkpt>
      <trkpt lat="44.55656" lon="4.60273">
        <ele>185</ele>
        <time>2020-09-13T07:51:32Z</time>
      </trkpt>
      <trkpt lat="44.5564" lon="4.60269">
        <ele>183.80000305176</ele>
        <time>2020-09-13T07:51:34Z</time>
      </trkpt>
      <trkpt lat="44.55632" lon="4.60268">
        <ele>183.80000305176</ele>
        <time>2020-09-13T07:51:35Z</time>
      </trkpt>
      <trkpt lat="44.55616" lon="4.60265">
        <ele>182.80000305176</ele>
        <time>2020-09-13T07:51:37Z</time>
      </trkpt>
      <trkpt lat="44.55609" lon="4.60263">
        <ele>182.19999694824</ele>
        <time>2020-09-13T07:51:38Z</time>
      </trkpt>
      <trkpt lat="44.55601" lon="4.60263">
        <ele>181.60000610352</ele>
        <time>2020-09-13T07:51:39Z</time>
      </trkpt>
      <trkpt lat="44.55594" lon="4.60262">
        <ele>181.39999389648</ele>
        <time>2020-09-13T07:51:40Z</time>
      </trkpt>
      <trkpt lat="44.55588" lon="4.60262">
        <ele>181.19999694824</ele>
        <time>2020-09-13T07:51:41Z</time>
      </trkpt>
      <trkpt lat="44.55581" lon="4.60263">
        <ele>180.80000305176</ele>
        <time>2020-09-13T07:51:42Z</time>
      </trkpt>
      <trkpt lat="44.55575" lon="4.60265">
        <ele>180.39999389648</ele>
        <time>2020-09-13T07:51:43Z</time>
      </trkpt>
      <trkpt lat="44.55569" lon="4.60266">
        <ele>180</ele>
        <time>2020-09-13T07:51:44Z</time>
      </trkpt>
      <trkpt lat="44.55556" lon="4.60268">
        <ele>179.80000305176</ele>
        <time>2020-09-13T07:51:46Z</time>
      </trkpt>
      <trkpt lat="44.5555" lon="4.60267">
        <ele>179.80000305176</ele>
        <time>2020-09-13T07:51:47Z</time>
      </trkpt>
      <trkpt lat="44.55545" lon="4.60263">
        <ele>179.19999694824</ele>
        <time>2020-09-13T07:51:48Z</time>
      </trkpt>
      <trkpt lat="44.55541" lon="4.60259">
        <ele>179.19999694824</ele>
        <time>2020-09-13T07:51:49Z</time>
      </trkpt>
      <trkpt lat="44.55536" lon="4.60255">
        <ele>179</ele>
        <time>2020-09-13T07:51:50Z</time>
      </trkpt>
      <trkpt lat="44.55532" lon="4.6025">
        <ele>179</ele>
        <time>2020-09-13T07:51:51Z</time>
      </trkpt>
      <trkpt lat="44.55528" lon="4.60246">
        <ele>179</ele>
        <time>2020-09-13T07:51:52Z</time>
      </trkpt>
      <trkpt lat="44.55523" lon="4.60242">
        <ele>179</ele>
        <time>2020-09-13T07:51:53Z</time>
      </trkpt>
      <trkpt lat="44.55518" lon="4.60241">
        <ele>178.80000305176</ele>
        <time>2020-09-13T07:51:54Z</time>
      </trkpt>
      <trkpt lat="44.55514" lon="4.60239">
        <ele>179</ele>
        <time>2020-09-13T07:51:55Z</time>
      </trkpt>
      <trkpt lat="44.55509" lon="4.60238">
        <ele>178.80000305176</ele>
        <time>2020-09-13T07:51:56Z</time>
      </trkpt>
      <trkpt lat="44.55505" lon="4.60237">
        <ele>178.80000305176</ele>
        <time>2020-09-13T07:51:57Z</time>
      </trkpt>
      <trkpt lat="44.55501" lon="4.60235">
        <ele>178.80000305176</ele>
        <time>2020-09-13T07:51:58Z</time>
      </trkpt>
      <trkpt lat="44.55498" lon="4.60234">
        <ele>178.80000305176</ele>
        <time>2020-09-13T07:51:59Z</time>
      </trkpt>
      <trkpt lat="44.55497" lon="4.60232">
        <ele>178.80000305176</ele>
        <time>2020-09-13T07:52:00Z</time>
      </trkpt>
      <trkpt lat="44.55495" lon="4.60231">
        <ele>178.80000305176</ele>
        <time>2020-09-13T07:52:01Z</time>
      </trkpt>
      <trkpt lat="44.55494" lon="4.6023">
        <ele>178.60000610352</ele>
        <time>2020-09-13T07:52:02Z</time>
      </trkpt>
      <trkpt lat="44.55493" lon="4.6023">
        <ele>178.60000610352</ele>
        <time>2020-09-13T07:52:03Z</time>
      </trkpt>
      <trkpt lat="44.55492" lon="4.60229">
        <ele>178.60000610352</ele>
        <time>2020-09-13T07:52:04Z</time>
      </trkpt>
      <trkpt lat="44.55491" lon="4.60227">
        <ele>178.39999389648</ele>
        <time>2020-09-13T07:52:05Z</time>
      </trkpt>
      <trkpt lat="44.5549" lon="4.60226">
        <ele>178.39999389648</ele>
        <time>2020-09-13T07:52:06Z</time>
      </trkpt>
      <trkpt lat="44.5549" lon="4.60226">
        <ele>178.39999389648</ele>
        <time>2020-09-13T07:52:07Z</time>
      </trkpt>
      <trkpt lat="44.5549" lon="4.60225">
        <ele>178.39999389648</ele>
        <time>2020-09-13T07:52:08Z</time>
      </trkpt>
      <trkpt lat="44.55489" lon="4.60221">
        <ele>178.19999694824</ele>
        <time>2020-09-13T07:52:13Z</time>
      </trkpt>
      <trkpt lat="44.55488" lon="4.60218">
        <ele>178.19999694824</ele>
        <time>2020-09-13T07:52:14Z</time>
      </trkpt>
      <trkpt lat="44.55486" lon="4.60213">
        <ele>178</ele>
        <time>2020-09-13T07:52:16Z</time>
      </trkpt>
      <trkpt lat="44.55481" lon="4.602">
        <ele>178</ele>
        <time>2020-09-13T07:52:20Z</time>
      </trkpt>
      <trkpt lat="44.5548" lon="4.60197">
        <ele>177.60000610352</ele>
        <time>2020-09-13T07:52:21Z</time>
      </trkpt>
      <trkpt lat="44.55479" lon="4.60195">
        <ele>177.39999389648</ele>
        <time>2020-09-13T07:52:22Z</time>
      </trkpt>
      <trkpt lat="44.55477" lon="4.60192">
        <ele>177.39999389648</ele>
        <time>2020-09-13T07:52:23Z</time>
      </trkpt>
      <trkpt lat="44.55471" lon="4.60178">
        <ele>177</ele>
        <time>2020-09-13T07:52:27Z</time>
      </trkpt>
      <trkpt lat="44.55469" lon="4.60176">
        <ele>177</ele>
        <time>2020-09-13T07:52:28Z</time>
      </trkpt>
      <trkpt lat="44.55467" lon="4.60176">
        <ele>177</ele>
        <time>2020-09-13T07:52:29Z</time>
      </trkpt>
      <trkpt lat="44.55458" lon="4.6018">
        <ele>177.19999694824</ele>
        <time>2020-09-13T07:52:32Z</time>
      </trkpt>
      <trkpt lat="44.55455" lon="4.60182">
        <ele>177</ele>
        <time>2020-09-13T07:52:33Z</time>
      </trkpt>
      <trkpt lat="44.55445" lon="4.6019">
        <ele>177.39999389648</ele>
        <time>2020-09-13T07:52:36Z</time>
      </trkpt>
      <trkpt lat="44.55429" lon="4.60199">
        <ele>178.80000305176</ele>
        <time>2020-09-13T07:52:40Z</time>
      </trkpt>
      <trkpt lat="44.55425" lon="4.60201">
        <ele>179</ele>
        <time>2020-09-13T07:52:41Z</time>
      </trkpt>
      <trkpt lat="44.55421" lon="4.60203">
        <ele>179</ele>
        <time>2020-09-13T07:52:42Z</time>
      </trkpt>
      <trkpt lat="44.55417" lon="4.60204">
        <ele>179</ele>
        <time>2020-09-13T07:52:43Z</time>
      </trkpt>
      <trkpt lat="44.55411" lon="4.60211">
        <ele>179</ele>
        <time>2020-09-13T07:52:45Z</time>
      </trkpt>
      <trkpt lat="44.55408" lon="4.60215">
        <ele>179.19999694824</ele>
        <time>2020-09-13T07:52:46Z</time>
      </trkpt>
      <trkpt lat="44.55404" lon="4.6022">
        <ele>179.19999694824</ele>
        <time>2020-09-13T07:52:47Z</time>
      </trkpt>
      <trkpt lat="44.55397" lon="4.60229">
        <ele>179.19999694824</ele>
        <time>2020-09-13T07:52:49Z</time>
      </trkpt>
      <trkpt lat="44.55394" lon="4.60235">
        <ele>179.19999694824</ele>
        <time>2020-09-13T07:52:50Z</time>
      </trkpt>
      <trkpt lat="44.55391" lon="4.6024">
        <ele>179</ele>
        <time>2020-09-13T07:52:51Z</time>
      </trkpt>
      <trkpt lat="44.55389" lon="4.60246">
        <ele>179</ele>
        <time>2020-09-13T07:52:52Z</time>
      </trkpt>
      <trkpt lat="44.55386" lon="4.60252">
        <ele>178.80000305176</ele>
        <time>2020-09-13T07:52:53Z</time>
      </trkpt>
      <trkpt lat="44.55382" lon="4.60267">
        <ele>178.80000305176</ele>
        <time>2020-09-13T07:52:55Z</time>
      </trkpt>
      <trkpt lat="44.55376" lon="4.60279">
        <ele>178.60000610352</ele>
        <time>2020-09-13T07:52:57Z</time>
      </trkpt>
      <trkpt lat="44.55372" lon="4.60284">
        <ele>178.60000610352</ele>
        <time>2020-09-13T07:52:58Z</time>
      </trkpt>
      <trkpt lat="44.55368" lon="4.60287">
        <ele>178.39999389648</ele>
        <time>2020-09-13T07:52:59Z</time>
      </trkpt>
      <trkpt lat="44.55364" lon="4.60288">
        <ele>178.39999389648</ele>
        <time>2020-09-13T07:53:00Z</time>
      </trkpt>
      <trkpt lat="44.55361" lon="4.60289">
        <ele>178</ele>
        <time>2020-09-13T07:53:01Z</time>
      </trkpt>
      <trkpt lat="44.55359" lon="4.60289">
        <ele>177.60000610352</ele>
        <time>2020-09-13T07:53:02Z</time>
      </trkpt>
      <trkpt lat="44.55357" lon="4.6029">
        <ele>177.60000610352</ele>
        <time>2020-09-13T07:53:03Z</time>
      </trkpt>
      <trkpt lat="44.55355" lon="4.60292">
        <ele>177.60000610352</ele>
        <time>2020-09-13T07:53:04Z</time>
      </trkpt>
      <trkpt lat="44.55356" lon="4.60296">
        <ele>177.60000610352</ele>
        <time>2020-09-13T07:53:05Z</time>
      </trkpt>
      <trkpt lat="44.55356" lon="4.603">
        <ele>177.39999389648</ele>
        <time>2020-09-13T07:53:06Z</time>
      </trkpt>
      <trkpt lat="44.55355" lon="4.6031">
        <ele>177.39999389648</ele>
        <time>2020-09-13T07:53:08Z</time>
      </trkpt>
      <trkpt lat="44.55354" lon="4.60316">
        <ele>177.19999694824</ele>
        <time>2020-09-13T07:53:09Z</time>
      </trkpt>
      <trkpt lat="44.55353" lon="4.60321">
        <ele>177.19999694824</ele>
        <time>2020-09-13T07:53:10Z</time>
      </trkpt>
      <trkpt lat="44.55351" lon="4.60327">
        <ele>177</ele>
        <time>2020-09-13T07:53:11Z</time>
      </trkpt>
      <trkpt lat="44.55349" lon="4.60332">
        <ele>176.80000305176</ele>
        <time>2020-09-13T07:53:12Z</time>
      </trkpt>
      <trkpt lat="44.55346" lon="4.60338">
        <ele>176.80000305176</ele>
        <time>2020-09-13T07:53:13Z</time>
      </trkpt>
      <trkpt lat="44.5534" lon="4.60348">
        <ele>176.80000305176</ele>
        <time>2020-09-13T07:53:15Z</time>
      </trkpt>
      <trkpt lat="44.55338" lon="4.60352">
        <ele>176.60000610352</ele>
        <time>2020-09-13T07:53:16Z</time>
      </trkpt>
      <trkpt lat="44.55336" lon="4.60356">
        <ele>176.60000610352</ele>
        <time>2020-09-13T07:53:17Z</time>
      </trkpt>
      <trkpt lat="44.55334" lon="4.60359">
        <ele>176.60000610352</ele>
        <time>2020-09-13T07:53:18Z</time>
      </trkpt>
      <trkpt lat="44.55332" lon="4.60362">
        <ele>176.60000610352</ele>
        <time>2020-09-13T07:53:19Z</time>
      </trkpt>
      <trkpt lat="44.55329" lon="4.60364">
        <ele>176.60000610352</ele>
        <time>2020-09-13T07:53:20Z</time>
      </trkpt>
      <trkpt lat="44.55326" lon="4.60365">
        <ele>176.39999389648</ele>
        <time>2020-09-13T07:53:21Z</time>
      </trkpt>
      <trkpt lat="44.55323" lon="4.60366">
        <ele>176.39999389648</ele>
        <time>2020-09-13T07:53:22Z</time>
      </trkpt>
      <trkpt lat="44.5532" lon="4.60366">
        <ele>176.60000610352</ele>
        <time>2020-09-13T07:53:23Z</time>
      </trkpt>
      <trkpt lat="44.55318" lon="4.60367">
        <ele>176.60000610352</ele>
        <time>2020-09-13T07:53:24Z</time>
      </trkpt>
      <trkpt lat="44.55315" lon="4.60368">
        <ele>176.39999389648</ele>
        <time>2020-09-13T07:53:25Z</time>
      </trkpt>
      <trkpt lat="44.55312" lon="4.6037">
        <ele>176.19999694824</ele>
        <time>2020-09-13T07:53:26Z</time>
      </trkpt>
      <trkpt lat="44.5531" lon="4.60372">
        <ele>176.39999389648</ele>
        <time>2020-09-13T07:53:27Z</time>
      </trkpt>
      <trkpt lat="44.55307" lon="4.60374">
        <ele>176.39999389648</ele>
        <time>2020-09-13T07:53:28Z</time>
      </trkpt>
      <trkpt lat="44.55305" lon="4.60376">
        <ele>176.39999389648</ele>
        <time>2020-09-13T07:53:29Z</time>
      </trkpt>
      <trkpt lat="44.55299" lon="4.60378">
        <ele>176.39999389648</ele>
        <time>2020-09-13T07:53:31Z</time>
      </trkpt>
      <trkpt lat="44.55298" lon="4.60377">
        <ele>176.39999389648</ele>
        <time>2020-09-13T07:53:32Z</time>
      </trkpt>
      <trkpt lat="44.55297" lon="4.60375">
        <ele>176.19999694824</ele>
        <time>2020-09-13T07:53:33Z</time>
      </trkpt>
      <trkpt lat="44.55295" lon="4.60375">
        <ele>176.19999694824</ele>
        <time>2020-09-13T07:53:34Z</time>
      </trkpt>
      <trkpt lat="44.55284" lon="4.60377">
        <ele>176.39999389648</ele>
        <time>2020-09-13T07:53:38Z</time>
      </trkpt>
      <trkpt lat="44.55277" lon="4.60379">
        <ele>176.19999694824</ele>
        <time>2020-09-13T07:53:40Z</time>
      </trkpt>
      <trkpt lat="44.55274" lon="4.60381">
        <ele>176.19999694824</ele>
        <time>2020-09-13T07:53:41Z</time>
      </trkpt>
      <trkpt lat="44.55272" lon="4.60384">
        <ele>176.19999694824</ele>
        <time>2020-09-13T07:53:42Z</time>
      </trkpt>
      <trkpt lat="44.5527" lon="4.60387">
        <ele>176</ele>
        <time>2020-09-13T07:53:43Z</time>
      </trkpt>
      <trkpt lat="44.55267" lon="4.6039">
        <ele>175.80000305176</ele>
        <time>2020-09-13T07:53:44Z</time>
      </trkpt>
      <trkpt lat="44.55265" lon="4.60393">
        <ele>175.80000305176</ele>
        <time>2020-09-13T07:53:45Z</time>
      </trkpt>
      <trkpt lat="44.55264" lon="4.60394">
        <ele>175.60000610352</ele>
        <time>2020-09-13T07:53:46Z</time>
      </trkpt>
      <trkpt lat="44.55262" lon="4.60394">
        <ele>175.60000610352</ele>
        <time>2020-09-13T07:53:47Z</time>
      </trkpt>
      <trkpt lat="44.5526" lon="4.60392">
        <ele>175.39999389648</ele>
        <time>2020-09-13T07:53:48Z</time>
      </trkpt>
      <trkpt lat="44.55259" lon="4.60392">
        <ele>175.19999694824</ele>
        <time>2020-09-13T07:53:49Z</time>
      </trkpt>
      <trkpt lat="44.55256" lon="4.60391">
        <ele>175.19999694824</ele>
        <time>2020-09-13T07:53:50Z</time>
      </trkpt>
      <trkpt lat="44.55244" lon="4.60385">
        <ele>175</ele>
        <time>2020-09-13T07:53:53Z</time>
      </trkpt>
      <trkpt lat="44.5524" lon="4.60384">
        <ele>175</ele>
        <time>2020-09-13T07:53:54Z</time>
      </trkpt>
      <trkpt lat="44.55218" lon="4.60375">
        <ele>175</ele>
        <time>2020-09-13T07:53:59Z</time>
      </trkpt>
      <trkpt lat="44.55213" lon="4.60373">
        <ele>174.80000305176</ele>
        <time>2020-09-13T07:54:00Z</time>
      </trkpt>
      <trkpt lat="44.55209" lon="4.60371">
        <ele>175</ele>
        <time>2020-09-13T07:54:01Z</time>
      </trkpt>
      <trkpt lat="44.55206" lon="4.60369">
        <ele>175.19999694824</ele>
        <time>2020-09-13T07:54:02Z</time>
      </trkpt>
      <trkpt lat="44.55199" lon="4.60365">
        <ele>175.80000305176</ele>
        <time>2020-09-13T07:54:04Z</time>
      </trkpt>
      <trkpt lat="44.55195" lon="4.60362">
        <ele>176</ele>
        <time>2020-09-13T07:54:05Z</time>
      </trkpt>
      <trkpt lat="44.55192" lon="4.6036">
        <ele>176.19999694824</ele>
        <time>2020-09-13T07:54:06Z</time>
      </trkpt>
      <trkpt lat="44.55189" lon="4.60357">
        <ele>176.39999389648</ele>
        <time>2020-09-13T07:54:07Z</time>
      </trkpt>
      <trkpt lat="44.55187" lon="4.60355">
        <ele>177</ele>
        <time>2020-09-13T07:54:08Z</time>
      </trkpt>
      <trkpt lat="44.55184" lon="4.60353">
        <ele>177.19999694824</ele>
        <time>2020-09-13T07:54:09Z</time>
      </trkpt>
      <trkpt lat="44.55182" lon="4.60351">
        <ele>177.39999389648</ele>
        <time>2020-09-13T07:54:10Z</time>
      </trkpt>
      <trkpt lat="44.55179" lon="4.6035">
        <ele>177.60000610352</ele>
        <time>2020-09-13T07:54:11Z</time>
      </trkpt>
      <trkpt lat="44.55177" lon="4.6035">
        <ele>178</ele>
        <time>2020-09-13T07:54:12Z</time>
      </trkpt>
      <trkpt lat="44.55174" lon="4.60351">
        <ele>178</ele>
        <time>2020-09-13T07:54:13Z</time>
      </trkpt>
      <trkpt lat="44.55172" lon="4.60352">
        <ele>178.19999694824</ele>
        <time>2020-09-13T07:54:14Z</time>
      </trkpt>
      <trkpt lat="44.5517" lon="4.60354">
        <ele>178.60000610352</ele>
        <time>2020-09-13T07:54:15Z</time>
      </trkpt>
      <trkpt lat="44.55168" lon="4.60354">
        <ele>178.80000305176</ele>
        <time>2020-09-13T07:54:16Z</time>
      </trkpt>
      <trkpt lat="44.55167" lon="4.60355">
        <ele>179.19999694824</ele>
        <time>2020-09-13T07:54:17Z</time>
      </trkpt>
      <trkpt lat="44.55165" lon="4.60356">
        <ele>179.60000610352</ele>
        <time>2020-09-13T07:54:18Z</time>
      </trkpt>
      <trkpt lat="44.55163" lon="4.60355">
        <ele>180</ele>
        <time>2020-09-13T07:54:19Z</time>
      </trkpt>
      <trkpt lat="44.55162" lon="4.60354">
        <ele>180.19999694824</ele>
        <time>2020-09-13T07:54:20Z</time>
      </trkpt>
      <trkpt lat="44.55162" lon="4.60357">
        <ele>183.1328125</ele>
      </trkpt>
      <trkpt lat="44.55157" lon="4.60384">
        <ele>181.6484375</ele>
      </trkpt>
      <trkpt lat="44.55153" lon="4.60424">
        <ele>179.71484375</ele>
      </trkpt>
      <trkpt lat="44.55147" lon="4.60468">
        <ele>178.4296875</ele>
      </trkpt>
      <trkpt lat="44.55147" lon="4.60473">
        <ele>178.1328125</ele>
      </trkpt>
      <trkpt lat="44.55147" lon="4.60477">
        <ele>177.8046875</ele>
      </trkpt>
      <trkpt lat="44.55147" lon="4.60477">
        <ele>177.8046875</ele>
      </trkpt>
      <trkpt lat="44.55147" lon="4.60485">
        <ele>175</ele>
        <time>2022-02-20T08:08:24Z</time>
      </trkpt>
      <trkpt lat="44.55145" lon="4.60481">
        <ele>175</ele>
        <time>2022-02-20T08:08:25Z</time>
      </trkpt>
      <trkpt lat="44.55142" lon="4.60478">
        <ele>175</ele>
        <time>2022-02-20T08:08:26Z</time>
      </trkpt>
      <trkpt lat="44.55139" lon="4.60478">
        <ele>174.80000305176</ele>
        <time>2022-02-20T08:08:27Z</time>
      </trkpt>
      <trkpt lat="44.55135" lon="4.60479">
        <ele>175</ele>
        <time>2022-02-20T08:08:28Z</time>
      </trkpt>
      <trkpt lat="44.55132" lon="4.6048">
        <ele>175</ele>
        <time>2022-02-20T08:08:29Z</time>
      </trkpt>
      <trkpt lat="44.55124" lon="4.60484">
        <ele>175</ele>
        <time>2022-02-20T08:08:31Z</time>
      </trkpt>
      <trkpt lat="44.5512" lon="4.60486">
        <ele>175.19999694824</ele>
        <time>2022-02-20T08:08:32Z</time>
      </trkpt>
      <trkpt lat="44.55113" lon="4.60489">
        <ele>175.19999694824</ele>
        <time>2022-02-20T08:08:34Z</time>
      </trkpt>
      <trkpt lat="44.55106" lon="4.60491">
        <ele>175.19999694824</ele>
        <time>2022-02-20T08:08:36Z</time>
      </trkpt>
      <trkpt lat="44.55103" lon="4.60492">
        <ele>175.19999694824</ele>
        <time>2022-02-20T08:08:37Z</time>
      </trkpt>
      <trkpt lat="44.55099" lon="4.60493">
        <ele>175.39999389648</ele>
        <time>2022-02-20T08:08:38Z</time>
      </trkpt>
      <trkpt lat="44.55096" lon="4.60494">
        <ele>175.60000610352</ele>
        <time>2022-02-20T08:08:39Z</time>
      </trkpt>
      <trkpt lat="44.55092" lon="4.60495">
        <ele>175.80000305176</ele>
        <time>2022-02-20T08:08:40Z</time>
      </trkpt>
      <trkpt lat="44.55089" lon="4.60496">
        <ele>175.80000305176</ele>
        <time>2022-02-20T08:08:41Z</time>
      </trkpt>
      <trkpt lat="44.55085" lon="4.60498">
        <ele>176</ele>
        <time>2022-02-20T08:08:42Z</time>
      </trkpt>
      <trkpt lat="44.55082" lon="4.605">
        <ele>176</ele>
        <time>2022-02-20T08:08:43Z</time>
      </trkpt>
      <trkpt lat="44.55078" lon="4.60501">
        <ele>176.19999694824</ele>
        <time>2022-02-20T08:08:44Z</time>
      </trkpt>
      <trkpt lat="44.55075" lon="4.60503">
        <ele>176.39999389648</ele>
        <time>2022-02-20T08:08:45Z</time>
      </trkpt>
      <trkpt lat="44.55072" lon="4.60505">
        <ele>176.80000305176</ele>
        <time>2022-02-20T08:08:46Z</time>
      </trkpt>
      <trkpt lat="44.5507" lon="4.60507">
        <ele>177.19999694824</ele>
        <time>2022-02-20T08:08:47Z</time>
      </trkpt>
      <trkpt lat="44.55067" lon="4.60509">
        <ele>177.60000610352</ele>
        <time>2022-02-20T08:08:48Z</time>
      </trkpt>
      <trkpt lat="44.55064" lon="4.60511">
        <ele>178.19999694824</ele>
        <time>2022-02-20T08:08:49Z</time>
      </trkpt>
      <trkpt lat="44.55061" lon="4.60513">
        <ele>178.60000610352</ele>
        <time>2022-02-20T08:08:50Z</time>
      </trkpt>
      <trkpt lat="44.55058" lon="4.60515">
        <ele>179.19999694824</ele>
        <time>2022-02-20T08:08:51Z</time>
      </trkpt>
      <trkpt lat="44.55054" lon="4.60518">
        <ele>179.80000305176</ele>
        <time>2022-02-20T08:08:52Z</time>
      </trkpt>
      <trkpt lat="44.55051" lon="4.60522">
        <ele>180.19999694824</ele>
        <time>2022-02-20T08:08:53Z</time>
      </trkpt>
      <trkpt lat="44.55047" lon="4.60526">
        <ele>181</ele>
        <time>2022-02-20T08:08:54Z</time>
      </trkpt>
      <trkpt lat="44.55043" lon="4.60531">
        <ele>181.39999389648</ele>
        <time>2022-02-20T08:08:55Z</time>
      </trkpt>
      <trkpt lat="44.55039" lon="4.60535">
        <ele>181.39999389648</ele>
        <time>2022-02-20T08:08:56Z</time>
      </trkpt>
      <trkpt lat="44.55035" lon="4.6054">
        <ele>181.39999389648</ele>
        <time>2022-02-20T08:08:57Z</time>
      </trkpt>
      <trkpt lat="44.55032" lon="4.60546">
        <ele>181.60000610352</ele>
        <time>2022-02-20T08:08:58Z</time>
      </trkpt>
      <trkpt lat="44.5503" lon="4.60552">
        <ele>181.60000610352</ele>
        <time>2022-02-20T08:08:59Z</time>
      </trkpt>
      <trkpt lat="44.55028" lon="4.60559">
        <ele>181.60000610352</ele>
        <time>2022-02-20T08:09:00Z</time>
      </trkpt>
      <trkpt lat="44.55025" lon="4.60564">
        <ele>181.60000610352</ele>
        <time>2022-02-20T08:09:01Z</time>
      </trkpt>
      <trkpt lat="44.55021" lon="4.60568">
        <ele>181.60000610352</ele>
        <time>2022-02-20T08:09:02Z</time>
      </trkpt>
      <trkpt lat="44.55016" lon="4.60572">
        <ele>181.60000610352</ele>
        <time>2022-02-20T08:09:03Z</time>
      </trkpt>
      <trkpt lat="44.55011" lon="4.60576">
        <ele>181.60000610352</ele>
        <time>2022-02-20T08:09:04Z</time>
      </trkpt>
      <trkpt lat="44.55005" lon="4.6058">
        <ele>181.39999389648</ele>
        <time>2022-02-20T08:09:05Z</time>
      </trkpt>
      <trkpt lat="44.54994" lon="4.60588">
        <ele>179.80000305176</ele>
        <time>2022-02-20T08:09:07Z</time>
      </trkpt>
      <trkpt lat="44.54989" lon="4.60592">
        <ele>178.80000305176</ele>
        <time>2022-02-20T08:09:08Z</time>
      </trkpt>
      <trkpt lat="44.54984" lon="4.60595">
        <ele>178</ele>
        <time>2022-02-20T08:09:09Z</time>
      </trkpt>
      <trkpt lat="44.5498" lon="4.60598">
        <ele>177.39999389648</ele>
        <time>2022-02-20T08:09:10Z</time>
      </trkpt>
      <trkpt lat="44.54976" lon="4.60599">
        <ele>176.80000305176</ele>
        <time>2022-02-20T08:09:11Z</time>
      </trkpt>
      <trkpt lat="44.54971" lon="4.606">
        <ele>176.19999694824</ele>
        <time>2022-02-20T08:09:12Z</time>
      </trkpt>
      <trkpt lat="44.54966" lon="4.606">
        <ele>175.60000610352</ele>
        <time>2022-02-20T08:09:13Z</time>
      </trkpt>
      <trkpt lat="44.5496" lon="4.606">
        <ele>175</ele>
        <time>2022-02-20T08:09:14Z</time>
      </trkpt>
      <trkpt lat="44.54955" lon="4.606">
        <ele>174.39999389648</ele>
        <time>2022-02-20T08:09:15Z</time>
      </trkpt>
      <trkpt lat="44.54945" lon="4.60595">
        <ele>172.60000610352</ele>
        <time>2022-02-20T08:09:17Z</time>
      </trkpt>
      <trkpt lat="44.5494" lon="4.60594">
        <ele>172</ele>
        <time>2022-02-20T08:09:18Z</time>
      </trkpt>
      <trkpt lat="44.54936" lon="4.60595">
        <ele>172</ele>
        <time>2022-02-20T08:09:19Z</time>
      </trkpt>
      <trkpt lat="44.54934" lon="4.60597">
        <ele>177.39999389648</ele>
        <time>2021-10-02T13:16:28Z</time>
      </trkpt>
      <trkpt lat="44.5493" lon="4.60608">
        <ele>176.19999694824</ele>
        <time>2021-10-02T13:16:29Z</time>
      </trkpt>
      <trkpt lat="44.54926" lon="4.60617">
        <ele>175.39999389648</ele>
        <time>2021-10-02T13:16:30Z</time>
      </trkpt>
      <trkpt lat="44.54921" lon="4.60626">
        <ele>174.60000610352</ele>
        <time>2021-10-02T13:16:31Z</time>
      </trkpt>
      <trkpt lat="44.54916" lon="4.60633">
        <ele>173.60000610352</ele>
        <time>2021-10-02T13:16:32Z</time>
      </trkpt>
      <trkpt lat="44.54911" lon="4.60639">
        <ele>172.60000610352</ele>
        <time>2021-10-02T13:16:33Z</time>
      </trkpt>
      <trkpt lat="44.54907" lon="4.60643">
        <ele>171.60000610352</ele>
        <time>2021-10-02T13:16:34Z</time>
      </trkpt>
      <trkpt lat="44.54903" lon="4.60648">
        <ele>170.80000305176</ele>
        <time>2021-10-02T13:16:35Z</time>
      </trkpt>
      <trkpt lat="44.54899" lon="4.60652">
        <ele>170.80000305176</ele>
        <time>2021-10-02T13:16:36Z</time>
      </trkpt>
      <trkpt lat="44.54896" lon="4.60657">
        <ele>170.60000610352</ele>
        <time>2021-10-02T13:16:37Z</time>
      </trkpt>
      <trkpt lat="44.54891" lon="4.60661">
        <ele>170.39999389648</ele>
        <time>2021-10-02T13:16:38Z</time>
      </trkpt>
      <trkpt lat="44.54887" lon="4.60664">
        <ele>170.19999694824</ele>
        <time>2021-10-02T13:16:39Z</time>
      </trkpt>
      <trkpt lat="44.54882" lon="4.60667">
        <ele>170.19999694824</ele>
        <time>2021-10-02T13:16:40Z</time>
      </trkpt>
      <trkpt lat="44.54862" lon="4.60683">
        <ele>170.19999694824</ele>
        <time>2021-10-02T13:16:44Z</time>
      </trkpt>
      <trkpt lat="44.54853" lon="4.60692">
        <ele>170.39999389648</ele>
        <time>2021-10-02T13:16:46Z</time>
      </trkpt>
      <trkpt lat="44.54849" lon="4.60697">
        <ele>170.80000305176</ele>
        <time>2021-10-02T13:16:47Z</time>
      </trkpt>
      <trkpt lat="44.54845" lon="4.60702">
        <ele>171</ele>
        <time>2021-10-02T13:16:48Z</time>
      </trkpt>
      <trkpt lat="44.54841" lon="4.60707">
        <ele>171.39999389648</ele>
        <time>2021-10-02T13:16:49Z</time>
      </trkpt>
      <trkpt lat="44.54838" lon="4.60712">
        <ele>171.80000305176</ele>
        <time>2021-10-02T13:16:50Z</time>
      </trkpt>
      <trkpt lat="44.54834" lon="4.60715">
        <ele>172</ele>
        <time>2021-10-02T13:16:51Z</time>
      </trkpt>
      <trkpt lat="44.54817" lon="4.60735">
        <ele>172.60000610352</ele>
        <time>2021-10-02T13:16:55Z</time>
      </trkpt>
      <trkpt lat="44.54813" lon="4.60741">
        <ele>172.60000610352</ele>
        <time>2021-10-02T13:16:56Z</time>
      </trkpt>
      <trkpt lat="44.54792" lon="4.60774">
        <ele>172.60000610352</ele>
        <time>2021-10-02T13:17:01Z</time>
      </trkpt>
      <trkpt lat="44.54783" lon="4.60788">
        <ele>172.60000610352</ele>
        <time>2021-10-02T13:17:03Z</time>
      </trkpt>
      <trkpt lat="44.54764" lon="4.60814">
        <ele>171.60000610352</ele>
        <time>2021-10-02T13:17:07Z</time>
      </trkpt>
      <trkpt lat="44.54758" lon="4.60819">
        <ele>171.19999694824</ele>
        <time>2021-10-02T13:17:08Z</time>
      </trkpt>
      <trkpt lat="44.54744" lon="4.60829">
        <ele>170.80000305176</ele>
        <time>2021-10-02T13:17:10Z</time>
      </trkpt>
      <trkpt lat="44.54733" lon="4.60841">
        <ele>170.39999389648</ele>
        <time>2021-10-02T13:17:12Z</time>
      </trkpt>
      <trkpt lat="44.54728" lon="4.60846">
        <ele>170.39999389648</ele>
        <time>2021-10-02T13:17:13Z</time>
      </trkpt>
      <trkpt lat="44.54723" lon="4.6085">
        <ele>170.19999694824</ele>
        <time>2021-10-02T13:17:14Z</time>
      </trkpt>
      <trkpt lat="44.54717" lon="4.60852">
        <ele>170.19999694824</ele>
        <time>2021-10-02T13:17:15Z</time>
      </trkpt>
      <trkpt lat="44.54712" lon="4.60854">
        <ele>170</ele>
        <time>2021-10-02T13:17:16Z</time>
      </trkpt>
      <trkpt lat="44.54701" lon="4.6086">
        <ele>170</ele>
        <time>2021-10-02T13:17:18Z</time>
      </trkpt>
      <trkpt lat="44.54691" lon="4.6087">
        <ele>170.19999694824</ele>
        <time>2021-10-02T13:17:20Z</time>
      </trkpt>
      <trkpt lat="44.54687" lon="4.60876">
        <ele>170.19999694824</ele>
        <time>2021-10-02T13:17:21Z</time>
      </trkpt>
      <trkpt lat="44.54683" lon="4.60882">
        <ele>170</ele>
        <time>2021-10-02T13:17:22Z</time>
      </trkpt>
      <trkpt lat="44.54679" lon="4.60888">
        <ele>170.19999694824</ele>
        <time>2021-10-02T13:17:23Z</time>
      </trkpt>
      <trkpt lat="44.54676" lon="4.60894">
        <ele>170.19999694824</ele>
        <time>2021-10-02T13:17:24Z</time>
      </trkpt>
      <trkpt lat="44.54672" lon="4.609">
        <ele>170.19999694824</ele>
        <time>2021-10-02T13:17:25Z</time>
      </trkpt>
      <trkpt lat="44.54669" lon="4.60906">
        <ele>170.19999694824</ele>
        <time>2021-10-02T13:17:26Z</time>
      </trkpt>
      <trkpt lat="44.54666" lon="4.60911">
        <ele>170.39999389648</ele>
        <time>2021-10-02T13:17:27Z</time>
      </trkpt>
      <trkpt lat="44.54664" lon="4.60917">
        <ele>170.39999389648</ele>
        <time>2021-10-02T13:17:28Z</time>
      </trkpt>
      <trkpt lat="44.54661" lon="4.60923">
        <ele>170.60000610352</ele>
        <time>2021-10-02T13:17:29Z</time>
      </trkpt>
      <trkpt lat="44.54659" lon="4.60929">
        <ele>170.80000305176</ele>
        <time>2021-10-02T13:17:30Z</time>
      </trkpt>
      <trkpt lat="44.54657" lon="4.60934">
        <ele>171</ele>
        <time>2021-10-02T13:17:31Z</time>
      </trkpt>
      <trkpt lat="44.54654" lon="4.60939">
        <ele>171.19999694824</ele>
        <time>2021-10-02T13:17:32Z</time>
      </trkpt>
      <trkpt lat="44.54651" lon="4.60943">
        <ele>171.19999694824</ele>
        <time>2021-10-02T13:17:33Z</time>
      </trkpt>
      <trkpt lat="44.54648" lon="4.60947">
        <ele>171.60000610352</ele>
        <time>2021-10-02T13:17:34Z</time>
      </trkpt>
      <trkpt lat="44.5464" lon="4.60955">
        <ele>171.60000610352</ele>
        <time>2021-10-02T13:17:36Z</time>
      </trkpt>
      <trkpt lat="44.54636" lon="4.60958">
        <ele>171.60000610352</ele>
        <time>2021-10-02T13:17:37Z</time>
      </trkpt>
      <trkpt lat="44.5462" lon="4.6097">
        <ele>171.60000610352</ele>
        <time>2021-10-02T13:17:40Z</time>
      </trkpt>
      <trkpt lat="44.54604" lon="4.60982">
        <ele>171.60000610352</ele>
        <time>2021-10-02T13:17:43Z</time>
      </trkpt>
      <trkpt lat="44.54598" lon="4.60986">
        <ele>171.60000610352</ele>
        <time>2021-10-02T13:17:44Z</time>
      </trkpt>
      <trkpt lat="44.54593" lon="4.60989">
        <ele>171.60000610352</ele>
        <time>2021-10-02T13:17:45Z</time>
      </trkpt>
      <trkpt lat="44.54587" lon="4.60992">
        <ele>171.80000305176</ele>
        <time>2021-10-02T13:17:46Z</time>
      </trkpt>
      <trkpt lat="44.54574" lon="4.60997">
        <ele>171.60000610352</ele>
        <time>2021-10-02T13:17:48Z</time>
      </trkpt>
      <trkpt lat="44.54562" lon="4.61003">
        <ele>170.80000305176</ele>
        <time>2021-10-02T13:17:50Z</time>
      </trkpt>
      <trkpt lat="44.54556" lon="4.61005">
        <ele>170.60000610352</ele>
        <time>2021-10-02T13:17:51Z</time>
      </trkpt>
      <trkpt lat="44.5455" lon="4.61007">
        <ele>170.39999389648</ele>
        <time>2021-10-02T13:17:52Z</time>
      </trkpt>
      <trkpt lat="44.54545" lon="4.61009">
        <ele>170</ele>
        <time>2021-10-02T13:17:53Z</time>
      </trkpt>
      <trkpt lat="44.54539" lon="4.6101">
        <ele>170</ele>
        <time>2021-10-02T13:17:54Z</time>
      </trkpt>
      <trkpt lat="44.54534" lon="4.61012">
        <ele>169.80000305176</ele>
        <time>2021-10-02T13:17:55Z</time>
      </trkpt>
      <trkpt lat="44.54529" lon="4.61013">
        <ele>169.39999389648</ele>
        <time>2021-10-02T13:17:56Z</time>
      </trkpt>
      <trkpt lat="44.54523" lon="4.61014">
        <ele>169.39999389648</ele>
        <time>2021-10-02T13:17:57Z</time>
      </trkpt>
      <trkpt lat="44.54518" lon="4.61015">
        <ele>169.39999389648</ele>
        <time>2021-10-02T13:17:58Z</time>
      </trkpt>
      <trkpt lat="44.54513" lon="4.61017">
        <ele>169.39999389648</ele>
        <time>2021-10-02T13:17:59Z</time>
      </trkpt>
      <trkpt lat="44.54509" lon="4.61019">
        <ele>169.39999389648</ele>
        <time>2021-10-02T13:18:00Z</time>
      </trkpt>
      <trkpt lat="44.54499" lon="4.61025">
        <ele>169.39999389648</ele>
        <time>2021-10-02T13:18:02Z</time>
      </trkpt>
      <trkpt lat="44.54489" lon="4.61033">
        <ele>169.39999389648</ele>
        <time>2021-10-02T13:18:04Z</time>
      </trkpt>
      <trkpt lat="44.54483" lon="4.61037">
        <ele>169.39999389648</ele>
        <time>2021-10-02T13:18:05Z</time>
      </trkpt>
      <trkpt lat="44.5446" lon="4.61052">
        <ele>169.19999694824</ele>
        <time>2021-10-02T13:18:09Z</time>
      </trkpt>
      <trkpt lat="44.54454" lon="4.61055">
        <ele>169.19999694824</ele>
        <time>2021-10-02T13:18:10Z</time>
      </trkpt>
      <trkpt lat="44.54448" lon="4.61057">
        <ele>169.39999389648</ele>
        <time>2021-10-02T13:18:11Z</time>
      </trkpt>
      <trkpt lat="44.54442" lon="4.6106">
        <ele>169.39999389648</ele>
        <time>2021-10-02T13:18:12Z</time>
      </trkpt>
      <trkpt lat="44.54431" lon="4.61065">
        <ele>169.39999389648</ele>
        <time>2021-10-02T13:18:14Z</time>
      </trkpt>
      <trkpt lat="44.54425" lon="4.61068">
        <ele>169.19999694824</ele>
        <time>2021-10-02T13:18:15Z</time>
      </trkpt>
      <trkpt lat="44.5442" lon="4.6107">
        <ele>169</ele>
        <time>2021-10-02T13:18:16Z</time>
      </trkpt>
      <trkpt lat="44.54414" lon="4.61073">
        <ele>168.80000305176</ele>
        <time>2021-10-02T13:18:17Z</time>
      </trkpt>
      <trkpt lat="44.54409" lon="4.61076">
        <ele>168.60000610352</ele>
        <time>2021-10-02T13:18:18Z</time>
      </trkpt>
      <trkpt lat="44.54404" lon="4.61078">
        <ele>168.60000610352</ele>
        <time>2021-10-02T13:18:19Z</time>
      </trkpt>
      <trkpt lat="44.54399" lon="4.61081">
        <ele>168.39999389648</ele>
        <time>2021-10-02T13:18:20Z</time>
      </trkpt>
      <trkpt lat="44.54394" lon="4.61084">
        <ele>168.19999694824</ele>
        <time>2021-10-02T13:18:21Z</time>
      </trkpt>
      <trkpt lat="44.54389" lon="4.61087">
        <ele>168.19999694824</ele>
        <time>2021-10-02T13:18:22Z</time>
      </trkpt>
      <trkpt lat="44.54385" lon="4.61092">
        <ele>168.19999694824</ele>
        <time>2021-10-02T13:18:23Z</time>
      </trkpt>
      <trkpt lat="44.54381" lon="4.61096">
        <ele>168.19999694824</ele>
        <time>2021-10-02T13:18:24Z</time>
      </trkpt>
      <trkpt lat="44.54378" lon="4.61101">
        <ele>168.19999694824</ele>
        <time>2021-10-02T13:18:25Z</time>
      </trkpt>
      <trkpt lat="44.54375" lon="4.61106">
        <ele>168</ele>
        <time>2021-10-02T13:18:26Z</time>
      </trkpt>
      <trkpt lat="44.54373" lon="4.6111">
        <ele>168</ele>
        <time>2021-10-02T13:18:27Z</time>
      </trkpt>
      <trkpt lat="44.54364" lon="4.61119">
        <ele>168</ele>
        <time>2021-10-02T13:18:29Z</time>
      </trkpt>
      <trkpt lat="44.54354" lon="4.61124">
        <ele>167.80000305176</ele>
        <time>2021-10-02T13:18:31Z</time>
      </trkpt>
      <trkpt lat="44.54349" lon="4.61126">
        <ele>167.80000305176</ele>
        <time>2021-10-02T13:18:32Z</time>
      </trkpt>
      <trkpt lat="44.54344" lon="4.61127">
        <ele>167.60000610352</ele>
        <time>2021-10-02T13:18:33Z</time>
      </trkpt>
      <trkpt lat="44.54339" lon="4.61127">
        <ele>167.39999389648</ele>
        <time>2021-10-02T13:18:34Z</time>
      </trkpt>
      <trkpt lat="44.54334" lon="4.61127">
        <ele>167.60000610352</ele>
        <time>2021-10-02T13:18:35Z</time>
      </trkpt>
      <trkpt lat="44.54313" lon="4.61126">
        <ele>167.19999694824</ele>
        <time>2021-10-02T13:18:39Z</time>
      </trkpt>
      <trkpt lat="44.54301" lon="4.61127">
        <ele>167</ele>
        <time>2021-10-02T13:18:41Z</time>
      </trkpt>
      <trkpt lat="44.54273" lon="4.61137">
        <ele>166.39999389648</ele>
        <time>2021-10-02T13:18:46Z</time>
      </trkpt>
      <trkpt lat="44.54267" lon="4.6114">
        <ele>166.39999389648</ele>
        <time>2021-10-02T13:18:47Z</time>
      </trkpt>
      <trkpt lat="44.54262" lon="4.61142">
        <ele>166.39999389648</ele>
        <time>2021-10-02T13:18:48Z</time>
      </trkpt>
      <trkpt lat="44.54256" lon="4.61145">
        <ele>166.19999694824</ele>
        <time>2021-10-02T13:18:49Z</time>
      </trkpt>
      <trkpt lat="44.54251" lon="4.61148">
        <ele>166.39999389648</ele>
        <time>2021-10-02T13:18:50Z</time>
      </trkpt>
      <trkpt lat="44.54246" lon="4.61151">
        <ele>166.19999694824</ele>
        <time>2021-10-02T13:18:51Z</time>
      </trkpt>
      <trkpt lat="44.54241" lon="4.61155">
        <ele>166.19999694824</ele>
        <time>2021-10-02T13:18:52Z</time>
      </trkpt>
      <trkpt lat="44.54231" lon="4.61161">
        <ele>166</ele>
        <time>2021-10-02T13:18:54Z</time>
      </trkpt>
      <trkpt lat="44.54217" lon="4.61172">
        <ele>165.80000305176</ele>
        <time>2021-10-02T13:18:57Z</time>
      </trkpt>
      <trkpt lat="44.54212" lon="4.61175">
        <ele>165.80000305176</ele>
        <time>2021-10-02T13:18:58Z</time>
      </trkpt>
      <trkpt lat="44.54208" lon="4.61178">
        <ele>166</ele>
        <time>2021-10-02T13:18:59Z</time>
      </trkpt>
      <trkpt lat="44.54203" lon="4.61181">
        <ele>165.80000305176</ele>
        <time>2021-10-02T13:19:00Z</time>
      </trkpt>
      <trkpt lat="44.54199" lon="4.61185">
        <ele>166</ele>
        <time>2021-10-02T13:19:01Z</time>
      </trkpt>
      <trkpt lat="44.54194" lon="4.61188">
        <ele>166</ele>
        <time>2021-10-02T13:19:02Z</time>
      </trkpt>
      <trkpt lat="44.5419" lon="4.61191">
        <ele>166</ele>
        <time>2021-10-02T13:19:03Z</time>
      </trkpt>
      <trkpt lat="44.54185" lon="4.61193">
        <ele>166.19999694824</ele>
        <time>2021-10-02T13:19:04Z</time>
      </trkpt>
      <trkpt lat="44.54175" lon="4.61198">
        <ele>166.19999694824</ele>
        <time>2021-10-02T13:19:06Z</time>
      </trkpt>
      <trkpt lat="44.54147" lon="4.6121">
        <ele>166</ele>
        <time>2021-10-02T13:19:11Z</time>
      </trkpt>
      <trkpt lat="44.54142" lon="4.61214">
        <ele>166</ele>
        <time>2021-10-02T13:19:12Z</time>
      </trkpt>
      <trkpt lat="44.54136" lon="4.61217">
        <ele>166</ele>
        <time>2021-10-02T13:19:13Z</time>
      </trkpt>
      <trkpt lat="44.54126" lon="4.61224">
        <ele>166</ele>
        <time>2021-10-02T13:19:15Z</time>
      </trkpt>
      <trkpt lat="44.54121" lon="4.61228">
        <ele>165.80000305176</ele>
        <time>2021-10-02T13:19:16Z</time>
      </trkpt>
      <trkpt lat="44.54116" lon="4.61232">
        <ele>165.80000305176</ele>
        <time>2021-10-02T13:19:17Z</time>
      </trkpt>
      <trkpt lat="44.541" lon="4.61242">
        <ele>165.60000610352</ele>
        <time>2021-10-02T13:19:20Z</time>
      </trkpt>
      <trkpt lat="44.54095" lon="4.61245">
        <ele>165.39999389648</ele>
        <time>2021-10-02T13:19:21Z</time>
      </trkpt>
      <trkpt lat="44.5409" lon="4.61248">
        <ele>165</ele>
        <time>2021-10-02T13:19:22Z</time>
      </trkpt>
      <trkpt lat="44.54085" lon="4.6125">
        <ele>164.80000305176</ele>
        <time>2021-10-02T13:19:23Z</time>
      </trkpt>
      <trkpt lat="44.5408" lon="4.61252">
        <ele>165</ele>
        <time>2021-10-02T13:19:24Z</time>
      </trkpt>
      <trkpt lat="44.54063" lon="4.61257">
        <ele>164.80000305176</ele>
        <time>2021-10-02T13:19:27Z</time>
      </trkpt>
      <trkpt lat="44.54035" lon="4.6126">
        <ele>164.60000610352</ele>
        <time>2021-10-02T13:19:32Z</time>
      </trkpt>
      <trkpt lat="44.5403" lon="4.61261">
        <ele>164.80000305176</ele>
        <time>2021-10-02T13:19:33Z</time>
      </trkpt>
      <trkpt lat="44.54025" lon="4.61261">
        <ele>164.80000305176</ele>
        <time>2021-10-02T13:19:34Z</time>
      </trkpt>
      <trkpt lat="44.5402" lon="4.61261">
        <ele>165</ele>
        <time>2021-10-02T13:19:35Z</time>
      </trkpt>
      <trkpt lat="44.54015" lon="4.6126">
        <ele>165</ele>
        <time>2021-10-02T13:19:36Z</time>
      </trkpt>
      <trkpt lat="44.54009" lon="4.6126">
        <ele>165</ele>
        <time>2021-10-02T13:19:37Z</time>
      </trkpt>
      <trkpt lat="44.53976" lon="4.61254">
        <ele>165</ele>
        <time>2021-10-02T13:19:43Z</time>
      </trkpt>
      <trkpt lat="44.53971" lon="4.61252">
        <ele>165</ele>
        <time>2021-10-02T13:19:44Z</time>
      </trkpt>
      <trkpt lat="44.53943" lon="4.61242">
        <ele>164.80000305176</ele>
        <time>2021-10-02T13:19:49Z</time>
      </trkpt>
      <trkpt lat="44.53938" lon="4.61241">
        <ele>164.80000305176</ele>
        <time>2021-10-02T13:19:50Z</time>
      </trkpt>
      <trkpt lat="44.53933" lon="4.61241">
        <ele>164.39999389648</ele>
        <time>2021-10-02T13:19:51Z</time>
      </trkpt>
      <trkpt lat="44.53899" lon="4.61239">
        <ele>163.19999694824</ele>
        <time>2021-10-02T13:19:57Z</time>
      </trkpt>
      <trkpt lat="44.53893" lon="4.61238">
        <ele>163.19999694824</ele>
        <time>2021-10-02T13:19:58Z</time>
      </trkpt>
      <trkpt lat="44.53888" lon="4.61236">
        <ele>163</ele>
        <time>2021-10-02T13:19:59Z</time>
      </trkpt>
      <trkpt lat="44.53855" lon="4.61223">
        <ele>162.80000305176</ele>
        <time>2021-10-02T13:20:05Z</time>
      </trkpt>
      <trkpt lat="44.53814" lon="4.61212">
        <ele>162</ele>
        <time>2021-10-02T13:20:12Z</time>
      </trkpt>
      <trkpt lat="44.53808" lon="4.61212">
        <ele>161.80000305176</ele>
        <time>2021-10-02T13:20:13Z</time>
      </trkpt>
      <trkpt lat="44.53803" lon="4.61211">
        <ele>161.80000305176</ele>
        <time>2021-10-02T13:20:14Z</time>
      </trkpt>
      <trkpt lat="44.53797" lon="4.6121">
        <ele>161.60000610352</ele>
        <time>2021-10-02T13:20:15Z</time>
      </trkpt>
      <trkpt lat="44.53791" lon="4.61209">
        <ele>161.60000610352</ele>
        <time>2021-10-02T13:20:16Z</time>
      </trkpt>
      <trkpt lat="44.5378" lon="4.61208">
        <ele>161.39999389648</ele>
        <time>2021-10-02T13:20:18Z</time>
      </trkpt>
      <trkpt lat="44.53769" lon="4.61206">
        <ele>161.19999694824</ele>
        <time>2021-10-02T13:20:20Z</time>
      </trkpt>
      <trkpt lat="44.53764" lon="4.61206">
        <ele>161.19999694824</ele>
        <time>2021-10-02T13:20:21Z</time>
      </trkpt>
      <trkpt lat="44.53759" lon="4.61205">
        <ele>161.19999694824</ele>
        <time>2021-10-02T13:20:22Z</time>
      </trkpt>
      <trkpt lat="44.53753" lon="4.61205">
        <ele>161.19999694824</ele>
        <time>2021-10-02T13:20:23Z</time>
      </trkpt>
      <trkpt lat="44.53743" lon="4.61206">
        <ele>161</ele>
        <time>2021-10-02T13:20:25Z</time>
      </trkpt>
      <trkpt lat="44.53739" lon="4.61206">
        <ele>160.60000610352</ele>
        <time>2021-10-02T13:20:26Z</time>
      </trkpt>
      <trkpt lat="44.53734" lon="4.61207">
        <ele>160.39999389648</ele>
        <time>2021-10-02T13:20:27Z</time>
      </trkpt>
      <trkpt lat="44.5373" lon="4.61208">
        <ele>160</ele>
        <time>2021-10-02T13:20:28Z</time>
      </trkpt>
      <trkpt lat="44.53727" lon="4.61208">
        <ele>159.80000305176</ele>
        <time>2021-10-02T13:20:29Z</time>
      </trkpt>
      <trkpt lat="44.53725" lon="4.61208">
        <ele>159.80000305176</ele>
        <time>2021-10-02T13:20:30Z</time>
      </trkpt>
      <trkpt lat="44.53724" lon="4.61208">
        <ele>159.60000610352</ele>
        <time>2021-10-02T13:20:31Z</time>
      </trkpt>
      <trkpt lat="44.53724" lon="4.61207">
        <ele>159.60000610352</ele>
        <time>2021-10-02T13:20:37Z</time>
      </trkpt>
      <trkpt lat="44.53722" lon="4.61206">
        <ele>159.80000305176</ele>
        <time>2021-10-02T13:20:50Z</time>
      </trkpt>
      <trkpt lat="44.53721" lon="4.61206">
        <ele>159.80000305176</ele>
        <time>2021-10-02T13:20:51Z</time>
      </trkpt>
      <trkpt lat="44.53722" lon="4.61206">
        <ele>159.80000305176</ele>
        <time>2021-10-02T13:20:52Z</time>
      </trkpt>
      <trkpt lat="44.53722" lon="4.61206">
        <ele>160</ele>
        <time>2021-10-02T13:20:57Z</time>
      </trkpt>
      <trkpt lat="44.53719" lon="4.61204">
        <ele>160</ele>
        <time>2021-10-02T13:21:05Z</time>
      </trkpt>
      <trkpt lat="44.53713" lon="4.61201">
        <ele>160.19999694824</ele>
        <time>2021-10-02T13:21:08Z</time>
      </trkpt>
      <trkpt lat="44.5371" lon="4.61201">
        <ele>160</ele>
        <time>2021-10-02T13:21:09Z</time>
      </trkpt>
      <trkpt lat="44.53706" lon="4.612">
        <ele>160</ele>
        <time>2021-10-02T13:21:10Z</time>
      </trkpt>
      <trkpt lat="44.53702" lon="4.612">
        <ele>160.19999694824</ele>
        <time>2021-10-02T13:21:11Z</time>
      </trkpt>
      <trkpt lat="44.53693" lon="4.61199">
        <ele>160.19999694824</ele>
        <time>2021-10-02T13:21:13Z</time>
      </trkpt>
      <trkpt lat="44.5369" lon="4.61197">
        <ele>160.19999694824</ele>
        <time>2021-10-02T13:21:14Z</time>
      </trkpt>
      <trkpt lat="44.53678" lon="4.6119">
        <ele>160.39999389648</ele>
        <time>2021-10-02T13:21:17Z</time>
      </trkpt>
      <trkpt lat="44.53674" lon="4.6119">
        <ele>160.60000610352</ele>
        <time>2021-10-02T13:21:18Z</time>
      </trkpt>
      <trkpt lat="44.5367" lon="4.6119">
        <ele>160.80000305176</ele>
        <time>2021-10-02T13:21:19Z</time>
      </trkpt>
      <trkpt lat="44.53666" lon="4.61191">
        <ele>160.80000305176</ele>
        <time>2021-10-02T13:21:20Z</time>
      </trkpt>
      <trkpt lat="44.53663" lon="4.61192">
        <ele>161</ele>
        <time>2021-10-02T13:21:21Z</time>
      </trkpt>
      <trkpt lat="44.5366" lon="4.61192">
        <ele>161.60000610352</ele>
        <time>2021-10-02T13:21:22Z</time>
      </trkpt>
      <trkpt lat="44.53657" lon="4.61191">
        <ele>161.80000305176</ele>
        <time>2021-10-02T13:21:23Z</time>
      </trkpt>
      <trkpt lat="44.53654" lon="4.61191">
        <ele>162.19999694824</ele>
        <time>2021-10-02T13:21:24Z</time>
      </trkpt>
      <trkpt lat="44.53651" lon="4.61191">
        <ele>162.39999389648</ele>
        <time>2021-10-02T13:21:25Z</time>
      </trkpt>
      <trkpt lat="44.53649" lon="4.6119">
        <ele>162.39999389648</ele>
        <time>2021-10-02T13:21:26Z</time>
      </trkpt>
      <trkpt lat="44.53646" lon="4.61188">
        <ele>163</ele>
        <time>2021-10-02T13:21:27Z</time>
      </trkpt>
      <trkpt lat="44.53644" lon="4.61187">
        <ele>163.39999389648</ele>
        <time>2021-10-02T13:21:28Z</time>
      </trkpt>
      <trkpt lat="44.53641" lon="4.61186">
        <ele>163.39999389648</ele>
        <time>2021-10-02T13:21:29Z</time>
      </trkpt>
      <trkpt lat="44.53639" lon="4.61184">
        <ele>163.39999389648</ele>
        <time>2021-10-02T13:21:30Z</time>
      </trkpt>
      <trkpt lat="44.53637" lon="4.61183">
        <ele>164</ele>
        <time>2021-10-02T13:21:31Z</time>
      </trkpt>
      <trkpt lat="44.53635" lon="4.61181">
        <ele>164.19999694824</ele>
        <time>2021-10-02T13:21:32Z</time>
      </trkpt>
      <trkpt lat="44.53633" lon="4.6118">
        <ele>164.60000610352</ele>
        <time>2021-10-02T13:21:33Z</time>
      </trkpt>
      <trkpt lat="44.53631" lon="4.61179">
        <ele>164.60000610352</ele>
        <time>2021-10-02T13:21:34Z</time>
      </trkpt>
      <trkpt lat="44.53628" lon="4.61178">
        <ele>165</ele>
        <time>2021-10-02T13:21:35Z</time>
      </trkpt>
      <trkpt lat="44.53626" lon="4.61177">
        <ele>165.19999694824</ele>
        <time>2021-10-02T13:21:36Z</time>
      </trkpt>
      <trkpt lat="44.53625" lon="4.61175">
        <ele>165.39999389648</ele>
        <time>2021-10-02T13:21:37Z</time>
      </trkpt>
      <trkpt lat="44.53623" lon="4.61173">
        <ele>165.80000305176</ele>
        <time>2021-10-02T13:21:38Z</time>
      </trkpt>
      <trkpt lat="44.53621" lon="4.61171">
        <ele>166.39999389648</ele>
        <time>2021-10-02T13:21:39Z</time>
      </trkpt>
      <trkpt lat="44.53619" lon="4.61169">
        <ele>166.80000305176</ele>
        <time>2021-10-02T13:21:40Z</time>
      </trkpt>
      <trkpt lat="44.53617" lon="4.61167">
        <ele>167</ele>
        <time>2021-10-02T13:21:41Z</time>
      </trkpt>
      <trkpt lat="44.53616" lon="4.61165">
        <ele>167.39999389648</ele>
        <time>2021-10-02T13:21:42Z</time>
      </trkpt>
      <trkpt lat="44.53614" lon="4.61163">
        <ele>167.80000305176</ele>
        <time>2021-10-02T13:21:43Z</time>
      </trkpt>
      <trkpt lat="44.53612" lon="4.61162">
        <ele>168.39999389648</ele>
        <time>2021-10-02T13:21:44Z</time>
      </trkpt>
      <trkpt lat="44.53609" lon="4.61161">
        <ele>168.80000305176</ele>
        <time>2021-10-02T13:21:45Z</time>
      </trkpt>
      <trkpt lat="44.53607" lon="4.6116">
        <ele>169</ele>
        <time>2021-10-02T13:21:46Z</time>
      </trkpt>
      <trkpt lat="44.53604" lon="4.6116">
        <ele>169.19999694824</ele>
        <time>2021-10-02T13:21:47Z</time>
      </trkpt>
      <trkpt lat="44.53601" lon="4.61159">
        <ele>169.60000610352</ele>
        <time>2021-10-02T13:21:48Z</time>
      </trkpt>
      <trkpt lat="44.53599" lon="4.61159">
        <ele>169.80000305176</ele>
        <time>2021-10-02T13:21:49Z</time>
      </trkpt>
      <trkpt lat="44.53596" lon="4.61158">
        <ele>170.39999389648</ele>
        <time>2021-10-02T13:21:50Z</time>
      </trkpt>
      <trkpt lat="44.53593" lon="4.61158">
        <ele>170.80000305176</ele>
        <time>2021-10-02T13:21:51Z</time>
      </trkpt>
      <trkpt lat="44.5359" lon="4.61158">
        <ele>171</ele>
        <time>2021-10-02T13:21:52Z</time>
      </trkpt>
      <trkpt lat="44.53588" lon="4.61158">
        <ele>171</ele>
        <time>2021-10-02T13:21:53Z</time>
      </trkpt>
      <trkpt lat="44.53585" lon="4.61157">
        <ele>171</ele>
        <time>2021-10-02T13:21:54Z</time>
      </trkpt>
      <trkpt lat="44.53582" lon="4.61157">
        <ele>171.39999389648</ele>
        <time>2021-10-02T13:21:55Z</time>
      </trkpt>
      <trkpt lat="44.53579" lon="4.61157">
        <ele>171.80000305176</ele>
        <time>2021-10-02T13:21:56Z</time>
      </trkpt>
      <trkpt lat="44.53576" lon="4.61156">
        <ele>172</ele>
        <time>2021-10-02T13:21:57Z</time>
      </trkpt>
      <trkpt lat="44.53574" lon="4.61156">
        <ele>172.19999694824</ele>
        <time>2021-10-02T13:21:58Z</time>
      </trkpt>
      <trkpt lat="44.53571" lon="4.61156">
        <ele>172.60000610352</ele>
        <time>2021-10-02T13:21:59Z</time>
      </trkpt>
      <trkpt lat="44.53568" lon="4.61155">
        <ele>173</ele>
        <time>2021-10-02T13:22:00Z</time>
      </trkpt>
      <trkpt lat="44.53566" lon="4.61154">
        <ele>173.39999389648</ele>
        <time>2021-10-02T13:22:01Z</time>
      </trkpt>
      <trkpt lat="44.53564" lon="4.61152">
        <ele>173.60000610352</ele>
        <time>2021-10-02T13:22:02Z</time>
      </trkpt>
      <trkpt lat="44.53563" lon="4.61149">
        <ele>174</ele>
        <time>2021-10-02T13:22:03Z</time>
      </trkpt>
      <trkpt lat="44.53563" lon="4.61146">
        <ele>174.19999694824</ele>
        <time>2021-10-02T13:22:04Z</time>
      </trkpt>
      <trkpt lat="44.53564" lon="4.61144">
        <ele>174.39999389648</ele>
        <time>2021-10-02T13:22:05Z</time>
      </trkpt>
      <trkpt lat="44.53566" lon="4.61141">
        <ele>174.80000305176</ele>
        <time>2021-10-02T13:22:06Z</time>
      </trkpt>
      <trkpt lat="44.53568" lon="4.61138">
        <ele>175.19999694824</ele>
        <time>2021-10-02T13:22:07Z</time>
      </trkpt>
      <trkpt lat="44.5357" lon="4.61135">
        <ele>175.60000610352</ele>
        <time>2021-10-02T13:22:08Z</time>
      </trkpt>
      <trkpt lat="44.53571" lon="4.61132">
        <ele>176</ele>
        <time>2021-10-02T13:22:09Z</time>
      </trkpt>
      <trkpt lat="44.53573" lon="4.6113">
        <ele>176.39999389648</ele>
        <time>2021-10-02T13:22:10Z</time>
      </trkpt>
      <trkpt lat="44.53575" lon="4.61127">
        <ele>176.80000305176</ele>
        <time>2021-10-02T13:22:11Z</time>
      </trkpt>
      <trkpt lat="44.53578" lon="4.61126">
        <ele>177.19999694824</ele>
        <time>2021-10-02T13:22:12Z</time>
      </trkpt>
      <trkpt lat="44.5358" lon="4.61124">
        <ele>177.80000305176</ele>
        <time>2021-10-02T13:22:13Z</time>
      </trkpt>
      <trkpt lat="44.53583" lon="4.61123">
        <ele>178.19999694824</ele>
        <time>2021-10-02T13:22:14Z</time>
      </trkpt>
      <trkpt lat="44.53586" lon="4.61122">
        <ele>178.19999694824</ele>
        <time>2021-10-02T13:22:15Z</time>
      </trkpt>
      <trkpt lat="44.53589" lon="4.61122">
        <ele>178.39999389648</ele>
        <time>2021-10-02T13:22:16Z</time>
      </trkpt>
      <trkpt lat="44.53591" lon="4.61122">
        <ele>178.60000610352</ele>
        <time>2021-10-02T13:22:17Z</time>
      </trkpt>
      <trkpt lat="44.53593" lon="4.61121">
        <ele>179.39999389648</ele>
        <time>2021-10-02T13:22:18Z</time>
      </trkpt>
      <trkpt lat="44.53595" lon="4.6112">
        <ele>179.60000610352</ele>
        <time>2021-10-02T13:22:19Z</time>
      </trkpt>
      <trkpt lat="44.53597" lon="4.6112">
        <ele>180.19999694824</ele>
        <time>2021-10-02T13:22:20Z</time>
      </trkpt>
      <trkpt lat="44.536" lon="4.61119">
        <ele>180.60000610352</ele>
        <time>2021-10-02T13:22:21Z</time>
      </trkpt>
      <trkpt lat="44.53602" lon="4.61118">
        <ele>180.80000305176</ele>
        <time>2021-10-02T13:22:22Z</time>
      </trkpt>
      <trkpt lat="44.53604" lon="4.61117">
        <ele>181.39999389648</ele>
        <time>2021-10-02T13:22:23Z</time>
      </trkpt>
      <trkpt lat="44.53605" lon="4.61115">
        <ele>181.60000610352</ele>
        <time>2021-10-02T13:22:24Z</time>
      </trkpt>
      <trkpt lat="44.53606" lon="4.61114">
        <ele>181.80000305176</ele>
        <time>2021-10-02T13:22:25Z</time>
      </trkpt>
      <trkpt lat="44.53606" lon="4.61114">
        <ele>182.19999694824</ele>
        <time>2021-10-02T13:22:26Z</time>
      </trkpt>
      <trkpt lat="44.53606" lon="4.61114">
        <ele>184.80000305176</ele>
        <time>2021-10-02T13:22:34Z</time>
      </trkpt>
      <trkpt lat="44.53606" lon="4.61114">
        <ele>185.19999694824</ele>
        <time>2021-10-02T13:22:43Z</time>
      </trkpt>
      <trkpt lat="44.53607" lon="4.61114">
        <ele>184.80000305176</ele>
        <time>2021-10-02T13:22:57Z</time>
      </trkpt>
      <trkpt lat="44.53608" lon="4.61113">
        <ele>184.80000305176</ele>
        <time>2021-10-02T13:22:58Z</time>
      </trkpt>
      <trkpt lat="44.5361" lon="4.61111">
        <ele>184.80000305176</ele>
        <time>2021-10-02T13:23:01Z</time>
      </trkpt>
      <trkpt lat="44.5361" lon="4.61111">
        <ele>184.80000305176</ele>
        <time>2021-10-02T13:23:03Z</time>
      </trkpt>
      <trkpt lat="44.5361" lon="4.6111">
        <ele>185</ele>
        <time>2021-10-02T13:23:23Z</time>
      </trkpt>
      <trkpt lat="44.53609" lon="4.61106">
        <ele>185.19999694824</ele>
        <time>2021-10-02T13:23:25Z</time>
      </trkpt>
      <trkpt lat="44.5361" lon="4.61103">
        <ele>185</ele>
        <time>2021-10-02T13:23:26Z</time>
      </trkpt>
      <trkpt lat="44.5361" lon="4.61099">
        <ele>185.19999694824</ele>
        <time>2021-10-02T13:23:27Z</time>
      </trkpt>
      <trkpt lat="44.53612" lon="4.61081">
        <ele>185.60000610352</ele>
        <time>2021-10-02T13:23:31Z</time>
      </trkpt>
      <trkpt lat="44.53613" lon="4.61076">
        <ele>185.39999389648</ele>
        <time>2021-10-02T13:23:32Z</time>
      </trkpt>
      <trkpt lat="44.53614" lon="4.61072">
        <ele>185.60000610352</ele>
        <time>2021-10-02T13:23:33Z</time>
      </trkpt>
      <trkpt lat="44.53615" lon="4.61068">
        <ele>185.60000610352</ele>
        <time>2021-10-02T13:23:34Z</time>
      </trkpt>
      <trkpt lat="44.53616" lon="4.61064">
        <ele>185.80000305176</ele>
        <time>2021-10-02T13:23:35Z</time>
      </trkpt>
      <trkpt lat="44.53618" lon="4.61056">
        <ele>186.19999694824</ele>
        <time>2021-10-02T13:23:37Z</time>
      </trkpt>
      <trkpt lat="44.53619" lon="4.61052">
        <ele>186.60000610352</ele>
        <time>2021-10-02T13:23:38Z</time>
      </trkpt>
      <trkpt lat="44.5362" lon="4.61049">
        <ele>186.80000305176</ele>
        <time>2021-10-02T13:23:39Z</time>
      </trkpt>
      <trkpt lat="44.53621" lon="4.61045">
        <ele>187.19999694824</ele>
        <time>2021-10-02T13:23:40Z</time>
      </trkpt>
      <trkpt lat="44.53622" lon="4.61041">
        <ele>187.39999389648</ele>
        <time>2021-10-02T13:23:41Z</time>
      </trkpt>
      <trkpt lat="44.53623" lon="4.61037">
        <ele>187.80000305176</ele>
        <time>2021-10-02T13:23:42Z</time>
      </trkpt>
      <trkpt lat="44.53624" lon="4.61033">
        <ele>188.19999694824</ele>
        <time>2021-10-02T13:23:43Z</time>
      </trkpt>
      <trkpt lat="44.53625" lon="4.6103">
        <ele>188.39999389648</ele>
        <time>2021-10-02T13:23:44Z</time>
      </trkpt>
      <trkpt lat="44.53626" lon="4.61026">
        <ele>189</ele>
        <time>2021-10-02T13:23:45Z</time>
      </trkpt>
      <trkpt lat="44.53627" lon="4.61023">
        <ele>189</ele>
        <time>2021-10-02T13:23:46Z</time>
      </trkpt>
      <trkpt lat="44.53628" lon="4.6102">
        <ele>189.60000610352</ele>
        <time>2021-10-02T13:23:47Z</time>
      </trkpt>
      <trkpt lat="44.53629" lon="4.61017">
        <ele>190</ele>
        <time>2021-10-02T13:23:48Z</time>
      </trkpt>
      <trkpt lat="44.5363" lon="4.61014">
        <ele>190.39999389648</ele>
        <time>2021-10-02T13:23:49Z</time>
      </trkpt>
      <trkpt lat="44.53631" lon="4.61011">
        <ele>191</ele>
        <time>2021-10-02T13:23:50Z</time>
      </trkpt>
      <trkpt lat="44.53633" lon="4.61008">
        <ele>191.60000610352</ele>
        <time>2021-10-02T13:23:51Z</time>
      </trkpt>
      <trkpt lat="44.53634" lon="4.61005">
        <ele>191.80000305176</ele>
        <time>2021-10-02T13:23:52Z</time>
      </trkpt>
      <trkpt lat="44.53635" lon="4.61002">
        <ele>192.19999694824</ele>
        <time>2021-10-02T13:23:53Z</time>
      </trkpt>
      <trkpt lat="44.53636" lon="4.61">
        <ele>192.60000610352</ele>
        <time>2021-10-02T13:23:54Z</time>
      </trkpt>
      <trkpt lat="44.53637" lon="4.60997">
        <ele>192.80000305176</ele>
        <time>2021-10-02T13:23:55Z</time>
      </trkpt>
      <trkpt lat="44.53638" lon="4.60995">
        <ele>193</ele>
        <time>2021-10-02T13:23:56Z</time>
      </trkpt>
      <trkpt lat="44.53639" lon="4.60992">
        <ele>193.19999694824</ele>
        <time>2021-10-02T13:23:57Z</time>
      </trkpt>
      <trkpt lat="44.5364" lon="4.60989">
        <ele>193.60000610352</ele>
        <time>2021-10-02T13:23:58Z</time>
      </trkpt>
      <trkpt lat="44.53641" lon="4.60987">
        <ele>194</ele>
        <time>2021-10-02T13:23:59Z</time>
      </trkpt>
      <trkpt lat="44.53642" lon="4.60984">
        <ele>194.19999694824</ele>
        <time>2021-10-02T13:24:00Z</time>
      </trkpt>
      <trkpt lat="44.53644" lon="4.60982">
        <ele>194.60000610352</ele>
        <time>2021-10-02T13:24:01Z</time>
      </trkpt>
      <trkpt lat="44.53645" lon="4.6098">
        <ele>195.19999694824</ele>
        <time>2021-10-02T13:24:02Z</time>
      </trkpt>
      <trkpt lat="44.53646" lon="4.60978">
        <ele>195.60000610352</ele>
        <time>2021-10-02T13:24:03Z</time>
      </trkpt>
      <trkpt lat="44.53647" lon="4.60975">
        <ele>196</ele>
        <time>2021-10-02T13:24:04Z</time>
      </trkpt>
      <trkpt lat="44.53648" lon="4.60973">
        <ele>196.39999389648</ele>
        <time>2021-10-02T13:24:05Z</time>
      </trkpt>
      <trkpt lat="44.53649" lon="4.60971">
        <ele>196.80000305176</ele>
        <time>2021-10-02T13:24:06Z</time>
      </trkpt>
      <trkpt lat="44.5365" lon="4.60969">
        <ele>197.19999694824</ele>
        <time>2021-10-02T13:24:07Z</time>
      </trkpt>
      <trkpt lat="44.53651" lon="4.60966">
        <ele>197.19999694824</ele>
        <time>2021-10-02T13:24:08Z</time>
      </trkpt>
      <trkpt lat="44.53652" lon="4.60964">
        <ele>197.80000305176</ele>
        <time>2021-10-02T13:24:09Z</time>
      </trkpt>
      <trkpt lat="44.53653" lon="4.60961">
        <ele>198.19999694824</ele>
        <time>2021-10-02T13:24:10Z</time>
      </trkpt>
      <trkpt lat="44.53654" lon="4.60959">
        <ele>198.60000610352</ele>
        <time>2021-10-02T13:24:11Z</time>
      </trkpt>
      <trkpt lat="44.53655" lon="4.60956">
        <ele>199</ele>
        <time>2021-10-02T13:24:12Z</time>
      </trkpt>
      <trkpt lat="44.53656" lon="4.60953">
        <ele>199.19999694824</ele>
        <time>2021-10-02T13:24:13Z</time>
      </trkpt>
      <trkpt lat="44.53657" lon="4.6095">
        <ele>199.60000610352</ele>
        <time>2021-10-02T13:24:14Z</time>
      </trkpt>
      <trkpt lat="44.53658" lon="4.60947">
        <ele>200.19999694824</ele>
        <time>2021-10-02T13:24:15Z</time>
      </trkpt>
      <trkpt lat="44.53659" lon="4.60945">
        <ele>200.39999389648</ele>
        <time>2021-10-02T13:24:16Z</time>
      </trkpt>
      <trkpt lat="44.53659" lon="4.60942">
        <ele>200.80000305176</ele>
        <time>2021-10-02T13:24:17Z</time>
      </trkpt>
      <trkpt lat="44.53659" lon="4.60939">
        <ele>201</ele>
        <time>2021-10-02T13:24:18Z</time>
      </trkpt>
      <trkpt lat="44.5366" lon="4.60937">
        <ele>201.39999389648</ele>
        <time>2021-10-02T13:24:19Z</time>
      </trkpt>
      <trkpt lat="44.5366" lon="4.60934">
        <ele>201.60000610352</ele>
        <time>2021-10-02T13:24:20Z</time>
      </trkpt>
      <trkpt lat="44.5366" lon="4.60931">
        <ele>201.80000305176</ele>
        <time>2021-10-02T13:24:21Z</time>
      </trkpt>
      <trkpt lat="44.53661" lon="4.60928">
        <ele>201.80000305176</ele>
        <time>2021-10-02T13:24:22Z</time>
      </trkpt>
      <trkpt lat="44.53661" lon="4.60925">
        <ele>202</ele>
        <time>2021-10-02T13:24:23Z</time>
      </trkpt>
      <trkpt lat="44.53661" lon="4.60922">
        <ele>202.19999694824</ele>
        <time>2021-10-02T13:24:24Z</time>
      </trkpt>
      <trkpt lat="44.53661" lon="4.60918">
        <ele>202.19999694824</ele>
        <time>2021-10-02T13:24:25Z</time>
      </trkpt>
      <trkpt lat="44.53661" lon="4.60915">
        <ele>202.60000610352</ele>
        <time>2021-10-02T13:24:26Z</time>
      </trkpt>
      <trkpt lat="44.53661" lon="4.60911">
        <ele>202.39999389648</ele>
        <time>2021-10-02T13:24:27Z</time>
      </trkpt>
      <trkpt lat="44.53661" lon="4.60907">
        <ele>202.60000610352</ele>
        <time>2021-10-02T13:24:28Z</time>
      </trkpt>
      <trkpt lat="44.53661" lon="4.60904">
        <ele>202.60000610352</ele>
        <time>2021-10-02T13:24:29Z</time>
      </trkpt>
      <trkpt lat="44.53661" lon="4.609">
        <ele>202.80000305176</ele>
        <time>2021-10-02T13:24:30Z</time>
      </trkpt>
      <trkpt lat="44.53662" lon="4.60896">
        <ele>202.80000305176</ele>
        <time>2021-10-02T13:24:31Z</time>
      </trkpt>
      <trkpt lat="44.53662" lon="4.60892">
        <ele>202.60000610352</ele>
        <time>2021-10-02T13:24:32Z</time>
      </trkpt>
      <trkpt lat="44.53663" lon="4.60887">
        <ele>202.80000305176</ele>
        <time>2021-10-02T13:24:33Z</time>
      </trkpt>
      <trkpt lat="44.53665" lon="4.60882">
        <ele>203</ele>
        <time>2021-10-02T13:24:34Z</time>
      </trkpt>
      <trkpt lat="44.53666" lon="4.60876">
        <ele>203</ele>
        <time>2021-10-02T13:24:35Z</time>
      </trkpt>
      <trkpt lat="44.53668" lon="4.60871">
        <ele>202.80000305176</ele>
        <time>2021-10-02T13:24:36Z</time>
      </trkpt>
      <trkpt lat="44.5367" lon="4.60866">
        <ele>202.80000305176</ele>
        <time>2021-10-02T13:24:37Z</time>
      </trkpt>
      <trkpt lat="44.53682" lon="4.60837">
        <ele>202.80000305176</ele>
        <time>2021-10-02T13:24:42Z</time>
      </trkpt>
      <trkpt lat="44.53684" lon="4.6083">
        <ele>202.80000305176</ele>
        <time>2021-10-02T13:24:43Z</time>
      </trkpt>
      <trkpt lat="44.53686" lon="4.60822">
        <ele>202.80000305176</ele>
        <time>2021-10-02T13:24:44Z</time>
      </trkpt>
      <trkpt lat="44.53697" lon="4.60783">
        <ele>202</ele>
        <time>2021-10-02T13:24:49Z</time>
      </trkpt>
      <trkpt lat="44.53699" lon="4.60776">
        <ele>201.80000305176</ele>
        <time>2021-10-02T13:24:50Z</time>
      </trkpt>
      <trkpt lat="44.53702" lon="4.60769">
        <ele>201.80000305176</ele>
        <time>2021-10-02T13:24:51Z</time>
      </trkpt>
      <trkpt lat="44.53705" lon="4.60763">
        <ele>201.60000610352</ele>
        <time>2021-10-02T13:24:52Z</time>
      </trkpt>
      <trkpt lat="44.53708" lon="4.60757">
        <ele>201.80000305176</ele>
        <time>2021-10-02T13:24:53Z</time>
      </trkpt>
      <trkpt lat="44.53712" lon="4.60752">
        <ele>201.80000305176</ele>
        <time>2021-10-02T13:24:54Z</time>
      </trkpt>
      <trkpt lat="44.53716" lon="4.60748">
        <ele>201.80000305176</ele>
        <time>2021-10-02T13:24:55Z</time>
      </trkpt>
      <trkpt lat="44.53719" lon="4.60744">
        <ele>201.80000305176</ele>
        <time>2021-10-02T13:24:56Z</time>
      </trkpt>
      <trkpt lat="44.53723" lon="4.60741">
        <ele>201.80000305176</ele>
        <time>2021-10-02T13:24:57Z</time>
      </trkpt>
      <trkpt lat="44.53726" lon="4.60738">
        <ele>201.60000610352</ele>
        <time>2021-10-02T13:24:58Z</time>
      </trkpt>
      <trkpt lat="44.53729" lon="4.60735">
        <ele>201.80000305176</ele>
        <time>2021-10-02T13:24:59Z</time>
      </trkpt>
      <trkpt lat="44.53733" lon="4.60733">
        <ele>201.80000305176</ele>
        <time>2021-10-02T13:25:00Z</time>
      </trkpt>
      <trkpt lat="44.53736" lon="4.6073">
        <ele>202</ele>
        <time>2021-10-02T13:25:01Z</time>
      </trkpt>
      <trkpt lat="44.53739" lon="4.60729">
        <ele>202</ele>
        <time>2021-10-02T13:25:02Z</time>
      </trkpt>
      <trkpt lat="44.53741" lon="4.60728">
        <ele>202.19999694824</ele>
        <time>2021-10-02T13:25:03Z</time>
      </trkpt>
      <trkpt lat="44.53744" lon="4.60727">
        <ele>202.39999389648</ele>
        <time>2021-10-02T13:25:04Z</time>
      </trkpt>
      <trkpt lat="44.53745" lon="4.60726">
        <ele>202.60000610352</ele>
        <time>2021-10-02T13:25:05Z</time>
      </trkpt>
      <trkpt lat="44.53747" lon="4.60725">
        <ele>202.80000305176</ele>
        <time>2021-10-02T13:25:06Z</time>
      </trkpt>
      <trkpt lat="44.53747" lon="4.60724">
        <ele>202.80000305176</ele>
        <time>2021-10-02T13:25:07Z</time>
      </trkpt>
      <trkpt lat="44.53747" lon="4.60722">
        <ele>202.80000305176</ele>
        <time>2021-10-02T13:25:08Z</time>
      </trkpt>
      <trkpt lat="44.53746" lon="4.60721">
        <ele>203</ele>
        <time>2021-10-02T13:25:09Z</time>
      </trkpt>
      <trkpt lat="44.53745" lon="4.60718">
        <ele>202.80000305176</ele>
        <time>2021-10-02T13:25:10Z</time>
      </trkpt>
      <trkpt lat="44.53743" lon="4.60713">
        <ele>202.80000305176</ele>
        <time>2021-10-02T13:25:12Z</time>
      </trkpt>
      <trkpt lat="44.5374" lon="4.60711">
        <ele>202.80000305176</ele>
        <time>2021-10-02T13:25:13Z</time>
      </trkpt>
      <trkpt lat="44.53736" lon="4.60708">
        <ele>202.80000305176</ele>
        <time>2021-10-02T13:25:14Z</time>
      </trkpt>
      <trkpt lat="44.53733" lon="4.60706">
        <ele>203</ele>
        <time>2021-10-02T13:25:15Z</time>
      </trkpt>
      <trkpt lat="44.53729" lon="4.60703">
        <ele>203</ele>
        <time>2021-10-02T13:25:16Z</time>
      </trkpt>
      <trkpt lat="44.53726" lon="4.607">
        <ele>202.80000305176</ele>
        <time>2021-10-02T13:25:17Z</time>
      </trkpt>
      <trkpt lat="44.53722" lon="4.60695">
        <ele>202.39999389648</ele>
        <time>2021-10-02T13:25:18Z</time>
      </trkpt>
      <trkpt lat="44.53716" lon="4.60689">
        <ele>201.19999694824</ele>
        <time>2021-10-02T13:25:20Z</time>
      </trkpt>
      <trkpt lat="44.53711" lon="4.60686">
        <ele>200.39999389648</ele>
        <time>2021-10-02T13:25:21Z</time>
      </trkpt>
      <trkpt lat="44.53707" lon="4.60683">
        <ele>200</ele>
        <time>2021-10-02T13:25:22Z</time>
      </trkpt>
      <trkpt lat="44.53703" lon="4.60679">
        <ele>199.39999389648</ele>
        <time>2021-10-02T13:25:23Z</time>
      </trkpt>
      <trkpt lat="44.53699" lon="4.60675">
        <ele>198.60000610352</ele>
        <time>2021-10-02T13:25:24Z</time>
      </trkpt>
      <trkpt lat="44.53695" lon="4.60672">
        <ele>197.39999389648</ele>
        <time>2021-10-02T13:25:25Z</time>
      </trkpt>
      <trkpt lat="44.53691" lon="4.60668">
        <ele>196.39999389648</ele>
        <time>2021-10-02T13:25:26Z</time>
      </trkpt>
      <trkpt lat="44.53689" lon="4.60664">
        <ele>195.19999694824</ele>
        <time>2021-10-02T13:25:27Z</time>
      </trkpt>
      <trkpt lat="44.53687" lon="4.60661">
        <ele>194.19999694824</ele>
        <time>2021-10-02T13:25:28Z</time>
      </trkpt>
      <trkpt lat="44.53685" lon="4.60656">
        <ele>193.19999694824</ele>
        <time>2021-10-02T13:25:29Z</time>
      </trkpt>
      <trkpt lat="44.53686" lon="4.60652">
        <ele>192.60000610352</ele>
        <time>2021-10-02T13:25:30Z</time>
      </trkpt>
      <trkpt lat="44.53686" lon="4.60647">
        <ele>191.80000305176</ele>
        <time>2021-10-02T13:25:31Z</time>
      </trkpt>
      <trkpt lat="44.53686" lon="4.60643">
        <ele>191.19999694824</ele>
        <time>2021-10-02T13:25:32Z</time>
      </trkpt>
      <trkpt lat="44.53683" lon="4.60637">
        <ele>189.39999389648</ele>
        <time>2021-10-02T13:25:34Z</time>
      </trkpt>
      <trkpt lat="44.53681" lon="4.60635">
        <ele>188.80000305176</ele>
        <time>2021-10-02T13:25:35Z</time>
      </trkpt>
      <trkpt lat="44.5368" lon="4.60633">
        <ele>188.39999389648</ele>
        <time>2021-10-02T13:25:36Z</time>
      </trkpt>
      <trkpt lat="44.5368" lon="4.60632">
        <ele>188</ele>
        <time>2021-10-02T13:25:37Z</time>
      </trkpt>
      <trkpt lat="44.53679" lon="4.6063">
        <ele>187.19999694824</ele>
        <time>2021-10-02T13:25:38Z</time>
      </trkpt>
      <trkpt lat="44.53678" lon="4.60628">
        <ele>187.19999694824</ele>
        <time>2021-10-02T13:25:39Z</time>
      </trkpt>
      <trkpt lat="44.53678" lon="4.60627">
        <ele>186.80000305176</ele>
        <time>2021-10-02T13:25:40Z</time>
      </trkpt>
      <trkpt lat="44.53678" lon="4.60626">
        <ele>186</ele>
        <time>2021-10-02T13:25:41Z</time>
      </trkpt>
      <trkpt lat="44.53677" lon="4.60625">
        <ele>185.60000610352</ele>
        <time>2021-10-02T13:25:42Z</time>
      </trkpt>
      <trkpt lat="44.53677" lon="4.60624">
        <ele>185</ele>
        <time>2021-10-02T13:25:43Z</time>
      </trkpt>
      <trkpt lat="44.53677" lon="4.60623">
        <ele>184.19999694824</ele>
        <time>2021-10-02T13:25:44Z</time>
      </trkpt>
      <trkpt lat="44.53677" lon="4.60622">
        <ele>183.60000610352</ele>
        <time>2021-10-02T13:25:45Z</time>
      </trkpt>
      <trkpt lat="44.53677" lon="4.60622">
        <ele>183.39999389648</ele>
        <time>2021-10-02T13:25:46Z</time>
      </trkpt>
      <trkpt lat="44.53676" lon="4.60619">
        <ele>182</ele>
        <time>2021-10-02T13:25:49Z</time>
      </trkpt>
      <trkpt lat="44.53676" lon="4.60616">
        <ele>181.39999389648</ele>
        <time>2021-10-02T13:25:50Z</time>
      </trkpt>
      <trkpt lat="44.53679" lon="4.6061">
        <ele>180.39999389648</ele>
        <time>2021-10-02T13:25:52Z</time>
      </trkpt>
      <trkpt lat="44.5368" lon="4.60606">
        <ele>180</ele>
        <time>2021-10-02T13:25:53Z</time>
      </trkpt>
      <trkpt lat="44.53682" lon="4.60601">
        <ele>179.39999389648</ele>
        <time>2021-10-02T13:25:54Z</time>
      </trkpt>
      <trkpt lat="44.53684" lon="4.60597">
        <ele>179.19999694824</ele>
        <time>2021-10-02T13:25:55Z</time>
      </trkpt>
      <trkpt lat="44.53689" lon="4.60587">
        <ele>178.39999389648</ele>
        <time>2021-10-02T13:25:57Z</time>
      </trkpt>
      <trkpt lat="44.53692" lon="4.60582">
        <ele>178</ele>
        <time>2021-10-02T13:25:58Z</time>
      </trkpt>
      <trkpt lat="44.53694" lon="4.60576">
        <ele>178.19999694824</ele>
        <time>2021-10-02T13:25:59Z</time>
      </trkpt>
      <trkpt lat="44.53696" lon="4.60569">
        <ele>178</ele>
        <time>2021-10-02T13:26:00Z</time>
      </trkpt>
      <trkpt lat="44.537" lon="4.60557">
        <ele>178</ele>
        <time>2021-10-02T13:26:02Z</time>
      </trkpt>
      <trkpt lat="44.53702" lon="4.60552">
        <ele>178</ele>
        <time>2021-10-02T13:26:03Z</time>
      </trkpt>
      <trkpt lat="44.53703" lon="4.60547">
        <ele>178</ele>
        <time>2021-10-02T13:26:04Z</time>
      </trkpt>
      <trkpt lat="44.53705" lon="4.60542">
        <ele>178</ele>
        <time>2021-10-02T13:26:05Z</time>
      </trkpt>
      <trkpt lat="44.53706" lon="4.60539">
        <ele>178</ele>
        <time>2021-10-02T13:26:06Z</time>
      </trkpt>
      <trkpt lat="44.53707" lon="4.60535">
        <ele>178.19999694824</ele>
        <time>2021-10-02T13:26:07Z</time>
      </trkpt>
      <trkpt lat="44.53707" lon="4.60533">
        <ele>178.19999694824</ele>
        <time>2021-10-02T13:26:08Z</time>
      </trkpt>
      <trkpt lat="44.53708" lon="4.60531">
        <ele>178.19999694824</ele>
        <time>2021-10-02T13:26:09Z</time>
      </trkpt>
      <trkpt lat="44.53708" lon="4.6053">
        <ele>178.39999389648</ele>
        <time>2021-10-02T13:26:10Z</time>
      </trkpt>
      <trkpt lat="44.53708" lon="4.60531">
        <ele>179</ele>
        <time>2021-10-02T13:26:11Z</time>
      </trkpt>
      <trkpt lat="44.53708" lon="4.60529">
        <ele>181</ele>
        <time>2021-10-02T13:26:17Z</time>
      </trkpt>
      <trkpt lat="44.53708" lon="4.60528">
        <ele>181.19999694824</ele>
        <time>2021-10-02T13:26:19Z</time>
      </trkpt>
      <trkpt lat="44.53709" lon="4.60527">
        <ele>181.19999694824</ele>
        <time>2021-10-02T13:26:20Z</time>
      </trkpt>
      <trkpt lat="44.53709" lon="4.60526">
        <ele>181.39999389648</ele>
        <time>2021-10-02T13:26:21Z</time>
      </trkpt>
      <trkpt lat="44.5371" lon="4.60526">
        <ele>181.39999389648</ele>
        <time>2021-10-02T13:26:22Z</time>
      </trkpt>
      <trkpt lat="44.5371" lon="4.60525">
        <ele>181.39999389648</ele>
        <time>2021-10-02T13:26:23Z</time>
      </trkpt>
      <trkpt lat="44.5371" lon="4.60524">
        <ele>181.60000610352</ele>
        <time>2021-10-02T13:26:32Z</time>
      </trkpt>
      <trkpt lat="44.53712" lon="4.60517">
        <ele>181.80000305176</ele>
        <time>2021-10-02T13:26:38Z</time>
      </trkpt>
      <trkpt lat="44.53713" lon="4.60514">
        <ele>181.80000305176</ele>
        <time>2021-10-02T13:26:39Z</time>
      </trkpt>
      <trkpt lat="44.53717" lon="4.60502">
        <ele>181.80000305176</ele>
        <time>2021-10-02T13:26:43Z</time>
      </trkpt>
      <trkpt lat="44.53718" lon="4.60499">
        <ele>181.80000305176</ele>
        <time>2021-10-02T13:26:44Z</time>
      </trkpt>
      <trkpt lat="44.5372" lon="4.60494">
        <ele>181.80000305176</ele>
        <time>2021-10-02T13:26:46Z</time>
      </trkpt>
      <trkpt lat="44.53721" lon="4.60492">
        <ele>181.80000305176</ele>
        <time>2021-10-02T13:26:47Z</time>
      </trkpt>
      <trkpt lat="44.53722" lon="4.60489">
        <ele>182</ele>
        <time>2021-10-02T13:26:48Z</time>
      </trkpt>
      <trkpt lat="44.53723" lon="4.60487">
        <ele>182.19999694824</ele>
        <time>2021-10-02T13:26:49Z</time>
      </trkpt>
      <trkpt lat="44.53724" lon="4.60484">
        <ele>182.60000610352</ele>
        <time>2021-10-02T13:26:50Z</time>
      </trkpt>
      <trkpt lat="44.53725" lon="4.60481">
        <ele>182.60000610352</ele>
        <time>2021-10-02T13:26:51Z</time>
      </trkpt>
      <trkpt lat="44.53726" lon="4.60479">
        <ele>183</ele>
        <time>2021-10-02T13:26:52Z</time>
      </trkpt>
      <trkpt lat="44.53727" lon="4.60476">
        <ele>183.39999389648</ele>
        <time>2021-10-02T13:26:53Z</time>
      </trkpt>
      <trkpt lat="44.53728" lon="4.60473">
        <ele>183.60000610352</ele>
        <time>2021-10-02T13:26:54Z</time>
      </trkpt>
      <trkpt lat="44.53729" lon="4.60471">
        <ele>184.19999694824</ele>
        <time>2021-10-02T13:26:55Z</time>
      </trkpt>
      <trkpt lat="44.5373" lon="4.60468">
        <ele>184.60000610352</ele>
        <time>2021-10-02T13:26:56Z</time>
      </trkpt>
      <trkpt lat="44.53731" lon="4.60465">
        <ele>184.80000305176</ele>
        <time>2021-10-02T13:26:57Z</time>
      </trkpt>
      <trkpt lat="44.53732" lon="4.60463">
        <ele>185.19999694824</ele>
        <time>2021-10-02T13:26:58Z</time>
      </trkpt>
      <trkpt lat="44.53733" lon="4.6046">
        <ele>185.39999389648</ele>
        <time>2021-10-02T13:26:59Z</time>
      </trkpt>
      <trkpt lat="44.53734" lon="4.60457">
        <ele>185.60000610352</ele>
        <time>2021-10-02T13:27:00Z</time>
      </trkpt>
      <trkpt lat="44.53735" lon="4.60454">
        <ele>185.80000305176</ele>
        <time>2021-10-02T13:27:01Z</time>
      </trkpt>
      <trkpt lat="44.53737" lon="4.60452">
        <ele>186</ele>
        <time>2021-10-02T13:27:02Z</time>
      </trkpt>
      <trkpt lat="44.53738" lon="4.60449">
        <ele>186.19999694824</ele>
        <time>2021-10-02T13:27:03Z</time>
      </trkpt>
      <trkpt lat="44.53739" lon="4.60447">
        <ele>186.39999389648</ele>
        <time>2021-10-02T13:27:04Z</time>
      </trkpt>
      <trkpt lat="44.53741" lon="4.60445">
        <ele>186.60000610352</ele>
        <time>2021-10-02T13:27:05Z</time>
      </trkpt>
      <trkpt lat="44.53742" lon="4.60442">
        <ele>186.80000305176</ele>
        <time>2021-10-02T13:27:06Z</time>
      </trkpt>
      <trkpt lat="44.53743" lon="4.6044">
        <ele>187</ele>
        <time>2021-10-02T13:27:07Z</time>
      </trkpt>
      <trkpt lat="44.53744" lon="4.60438">
        <ele>187.19999694824</ele>
        <time>2021-10-02T13:27:08Z</time>
      </trkpt>
      <trkpt lat="44.53745" lon="4.60436">
        <ele>187.39999389648</ele>
        <time>2021-10-02T13:27:09Z</time>
      </trkpt>
      <trkpt lat="44.53746" lon="4.60434">
        <ele>187.39999389648</ele>
        <time>2021-10-02T13:27:10Z</time>
      </trkpt>
      <trkpt lat="44.53747" lon="4.60432">
        <ele>187.60000610352</ele>
        <time>2021-10-02T13:27:11Z</time>
      </trkpt>
      <trkpt lat="44.53748" lon="4.60429">
        <ele>187.80000305176</ele>
        <time>2021-10-02T13:27:12Z</time>
      </trkpt>
      <trkpt lat="44.5375" lon="4.60427">
        <ele>188</ele>
        <time>2021-10-02T13:27:13Z</time>
      </trkpt>
      <trkpt lat="44.53751" lon="4.60424">
        <ele>188.19999694824</ele>
        <time>2021-10-02T13:27:14Z</time>
      </trkpt>
      <trkpt lat="44.53752" lon="4.60422">
        <ele>188.39999389648</ele>
        <time>2021-10-02T13:27:15Z</time>
      </trkpt>
      <trkpt lat="44.53754" lon="4.60419">
        <ele>188.60000610352</ele>
        <time>2021-10-02T13:27:16Z</time>
      </trkpt>
      <trkpt lat="44.53755" lon="4.60416">
        <ele>188.60000610352</ele>
        <time>2021-10-02T13:27:17Z</time>
      </trkpt>
      <trkpt lat="44.53756" lon="4.60414">
        <ele>189</ele>
        <time>2021-10-02T13:27:18Z</time>
      </trkpt>
      <trkpt lat="44.53756" lon="4.60411">
        <ele>189.19999694824</ele>
        <time>2021-10-02T13:27:19Z</time>
      </trkpt>
      <trkpt lat="44.53757" lon="4.60409">
        <ele>189.60000610352</ele>
        <time>2021-10-02T13:27:20Z</time>
      </trkpt>
      <trkpt lat="44.53758" lon="4.60407">
        <ele>189.60000610352</ele>
        <time>2021-10-02T13:27:21Z</time>
      </trkpt>
      <trkpt lat="44.53759" lon="4.60405">
        <ele>189.60000610352</ele>
        <time>2021-10-02T13:27:22Z</time>
      </trkpt>
      <trkpt lat="44.5376" lon="4.60402">
        <ele>190</ele>
        <time>2021-10-02T13:27:23Z</time>
      </trkpt>
      <trkpt lat="44.53761" lon="4.604">
        <ele>190.19999694824</ele>
        <time>2021-10-02T13:27:24Z</time>
      </trkpt>
      <trkpt lat="44.53761" lon="4.60397">
        <ele>190.39999389648</ele>
        <time>2021-10-02T13:27:25Z</time>
      </trkpt>
      <trkpt lat="44.53762" lon="4.60395">
        <ele>190.80000305176</ele>
        <time>2021-10-02T13:27:26Z</time>
      </trkpt>
      <trkpt lat="44.53763" lon="4.60393">
        <ele>191</ele>
        <time>2021-10-02T13:27:27Z</time>
      </trkpt>
      <trkpt lat="44.53764" lon="4.6039">
        <ele>191.19999694824</ele>
        <time>2021-10-02T13:27:28Z</time>
      </trkpt>
      <trkpt lat="44.53765" lon="4.60387">
        <ele>191.39999389648</ele>
        <time>2021-10-02T13:27:29Z</time>
      </trkpt>
      <trkpt lat="44.53766" lon="4.60384">
        <ele>191.80000305176</ele>
        <time>2021-10-02T13:27:30Z</time>
      </trkpt>
      <trkpt lat="44.53767" lon="4.60381">
        <ele>192.19999694824</ele>
        <time>2021-10-02T13:27:31Z</time>
      </trkpt>
      <trkpt lat="44.53768" lon="4.60379">
        <ele>192.19999694824</ele>
        <time>2021-10-02T13:27:32Z</time>
      </trkpt>
      <trkpt lat="44.5377" lon="4.60376">
        <ele>192.19999694824</ele>
        <time>2021-10-02T13:27:33Z</time>
      </trkpt>
      <trkpt lat="44.53771" lon="4.60373">
        <ele>192.39999389648</ele>
        <time>2021-10-02T13:27:34Z</time>
      </trkpt>
      <trkpt lat="44.53773" lon="4.6037">
        <ele>192.39999389648</ele>
        <time>2021-10-02T13:27:35Z</time>
      </trkpt>
      <trkpt lat="44.53774" lon="4.60367">
        <ele>192.60000610352</ele>
        <time>2021-10-02T13:27:36Z</time>
      </trkpt>
      <trkpt lat="44.53775" lon="4.60364">
        <ele>192.80000305176</ele>
        <time>2021-10-02T13:27:37Z</time>
      </trkpt>
      <trkpt lat="44.53777" lon="4.60361">
        <ele>193.19999694824</ele>
        <time>2021-10-02T13:27:38Z</time>
      </trkpt>
      <trkpt lat="44.53778" lon="4.60357">
        <ele>193.19999694824</ele>
        <time>2021-10-02T13:27:39Z</time>
      </trkpt>
      <trkpt lat="44.5378" lon="4.60354">
        <ele>193.39999389648</ele>
        <time>2021-10-02T13:27:40Z</time>
      </trkpt>
      <trkpt lat="44.53781" lon="4.60351">
        <ele>193.39999389648</ele>
        <time>2021-10-02T13:27:41Z</time>
      </trkpt>
      <trkpt lat="44.53783" lon="4.60348">
        <ele>193.60000610352</ele>
        <time>2021-10-02T13:27:42Z</time>
      </trkpt>
      <trkpt lat="44.53785" lon="4.60344">
        <ele>193.80000305176</ele>
        <time>2021-10-02T13:27:43Z</time>
      </trkpt>
      <trkpt lat="44.53786" lon="4.60341">
        <ele>194.19999694824</ele>
        <time>2021-10-02T13:27:44Z</time>
      </trkpt>
      <trkpt lat="44.53788" lon="4.60338">
        <ele>194.39999389648</ele>
        <time>2021-10-02T13:27:45Z</time>
      </trkpt>
      <trkpt lat="44.5379" lon="4.60335">
        <ele>194.60000610352</ele>
        <time>2021-10-02T13:27:46Z</time>
      </trkpt>
      <trkpt lat="44.53792" lon="4.60332">
        <ele>194.60000610352</ele>
        <time>2021-10-02T13:27:47Z</time>
      </trkpt>
      <trkpt lat="44.53793" lon="4.6033">
        <ele>194.60000610352</ele>
        <time>2021-10-02T13:27:48Z</time>
      </trkpt>
      <trkpt lat="44.53795" lon="4.60327">
        <ele>194.80000305176</ele>
        <time>2021-10-02T13:27:49Z</time>
      </trkpt>
      <trkpt lat="44.53798" lon="4.60324">
        <ele>195</ele>
        <time>2021-10-02T13:27:50Z</time>
      </trkpt>
      <trkpt lat="44.53799" lon="4.60322">
        <ele>195</ele>
        <time>2021-10-02T13:27:51Z</time>
      </trkpt>
      <trkpt lat="44.53801" lon="4.6032">
        <ele>195</ele>
        <time>2021-10-02T13:27:52Z</time>
      </trkpt>
      <trkpt lat="44.53802" lon="4.60319">
        <ele>195.19999694824</ele>
        <time>2021-10-02T13:27:53Z</time>
      </trkpt>
      <trkpt lat="44.53804" lon="4.60316">
        <ele>195.39999389648</ele>
        <time>2021-10-02T13:27:54Z</time>
      </trkpt>
      <trkpt lat="44.53805" lon="4.60313">
        <ele>195.39999389648</ele>
        <time>2021-10-02T13:27:55Z</time>
      </trkpt>
      <trkpt lat="44.53807" lon="4.60308">
        <ele>195.60000610352</ele>
        <time>2021-10-02T13:27:56Z</time>
      </trkpt>
      <trkpt lat="44.53808" lon="4.60303">
        <ele>195.80000305176</ele>
        <time>2021-10-02T13:27:57Z</time>
      </trkpt>
      <trkpt lat="44.53809" lon="4.60298">
        <ele>195.80000305176</ele>
        <time>2021-10-02T13:27:58Z</time>
      </trkpt>
      <trkpt lat="44.5381" lon="4.60293">
        <ele>196</ele>
        <time>2021-10-02T13:27:59Z</time>
      </trkpt>
      <trkpt lat="44.53811" lon="4.60288">
        <ele>196.19999694824</ele>
        <time>2021-10-02T13:28:00Z</time>
      </trkpt>
      <trkpt lat="44.53812" lon="4.60284">
        <ele>196.39999389648</ele>
        <time>2021-10-02T13:28:01Z</time>
      </trkpt>
      <trkpt lat="44.53813" lon="4.6028">
        <ele>196.39999389648</ele>
        <time>2021-10-02T13:28:02Z</time>
      </trkpt>
      <trkpt lat="44.53814" lon="4.60276">
        <ele>196.60000610352</ele>
        <time>2021-10-02T13:28:03Z</time>
      </trkpt>
      <trkpt lat="44.53815" lon="4.60272">
        <ele>196.80000305176</ele>
        <time>2021-10-02T13:28:04Z</time>
      </trkpt>
      <trkpt lat="44.53816" lon="4.60267">
        <ele>196.80000305176</ele>
        <time>2021-10-02T13:28:05Z</time>
      </trkpt>
      <trkpt lat="44.53816" lon="4.60261">
        <ele>196.80000305176</ele>
        <time>2021-10-02T13:28:06Z</time>
      </trkpt>
      <trkpt lat="44.53817" lon="4.60255">
        <ele>196.80000305176</ele>
        <time>2021-10-02T13:28:07Z</time>
      </trkpt>
      <trkpt lat="44.53818" lon="4.60249">
        <ele>197</ele>
        <time>2021-10-02T13:28:08Z</time>
      </trkpt>
      <trkpt lat="44.53818" lon="4.60242">
        <ele>196.80000305176</ele>
        <time>2021-10-02T13:28:09Z</time>
      </trkpt>
      <trkpt lat="44.53819" lon="4.60235">
        <ele>196.80000305176</ele>
        <time>2021-10-02T13:28:10Z</time>
      </trkpt>
      <trkpt lat="44.53823" lon="4.60221">
        <ele>196.60000610352</ele>
        <time>2021-10-02T13:28:12Z</time>
      </trkpt>
      <trkpt lat="44.53824" lon="4.60215">
        <ele>196.80000305176</ele>
        <time>2021-10-02T13:28:13Z</time>
      </trkpt>
      <trkpt lat="44.53826" lon="4.6021">
        <ele>196.80000305176</ele>
        <time>2021-10-02T13:28:14Z</time>
      </trkpt>
      <trkpt lat="44.53828" lon="4.60206">
        <ele>196.80000305176</ele>
        <time>2021-10-02T13:28:15Z</time>
      </trkpt>
      <trkpt lat="44.5383" lon="4.60203">
        <ele>196.80000305176</ele>
        <time>2021-10-02T13:28:16Z</time>
      </trkpt>
      <trkpt lat="44.53832" lon="4.60202">
        <ele>196.80000305176</ele>
        <time>2021-10-02T13:28:17Z</time>
      </trkpt>
      <trkpt lat="44.53834" lon="4.60202">
        <ele>196.80000305176</ele>
        <time>2021-10-02T13:28:18Z</time>
      </trkpt>
      <trkpt lat="44.53836" lon="4.60201">
        <ele>196.80000305176</ele>
        <time>2021-10-02T13:28:19Z</time>
      </trkpt>
      <trkpt lat="44.53844" lon="4.602">
        <ele>196.60000610352</ele>
        <time>2021-10-02T13:28:22Z</time>
      </trkpt>
      <trkpt lat="44.53846" lon="4.602">
        <ele>196.60000610352</ele>
        <time>2021-10-02T13:28:23Z</time>
      </trkpt>
      <trkpt lat="44.53849" lon="4.60199">
        <ele>196.60000610352</ele>
        <time>2021-10-02T13:28:24Z</time>
      </trkpt>
      <trkpt lat="44.53851" lon="4.60199">
        <ele>196.60000610352</ele>
        <time>2021-10-02T13:28:25Z</time>
      </trkpt>
      <trkpt lat="44.53853" lon="4.60198">
        <ele>196.60000610352</ele>
        <time>2021-10-02T13:28:26Z</time>
      </trkpt>
      <trkpt lat="44.53856" lon="4.60197">
        <ele>196.80000305176</ele>
        <time>2021-10-02T13:28:27Z</time>
      </trkpt>
      <trkpt lat="44.53862" lon="4.60194">
        <ele>197.39999389648</ele>
        <time>2021-10-02T13:28:29Z</time>
      </trkpt>
      <trkpt lat="44.53865" lon="4.60192">
        <ele>197.60000610352</ele>
        <time>2021-10-02T13:28:30Z</time>
      </trkpt>
      <trkpt lat="44.53868" lon="4.6019">
        <ele>198</ele>
        <time>2021-10-02T13:28:31Z</time>
      </trkpt>
      <trkpt lat="44.5387" lon="4.6019">
        <ele>198.19999694824</ele>
        <time>2021-10-02T13:28:32Z</time>
      </trkpt>
      <trkpt lat="44.53872" lon="4.60191">
        <ele>198.60000610352</ele>
        <time>2021-10-02T13:28:33Z</time>
      </trkpt>
      <trkpt lat="44.53874" lon="4.60192">
        <ele>199</ele>
        <time>2021-10-02T13:28:34Z</time>
      </trkpt>
      <trkpt lat="44.53875" lon="4.60194">
        <ele>199.39999389648</ele>
        <time>2021-10-02T13:28:35Z</time>
      </trkpt>
      <trkpt lat="44.53878" lon="4.60195">
        <ele>199.60000610352</ele>
        <time>2021-10-02T13:28:36Z</time>
      </trkpt>
      <trkpt lat="44.53881" lon="4.60195">
        <ele>199.80000305176</ele>
        <time>2021-10-02T13:28:37Z</time>
      </trkpt>
      <trkpt lat="44.53884" lon="4.60194">
        <ele>199.60000610352</ele>
        <time>2021-10-02T13:28:38Z</time>
      </trkpt>
      <trkpt lat="44.53886" lon="4.60192">
        <ele>199.80000305176</ele>
        <time>2021-10-02T13:28:39Z</time>
      </trkpt>
      <trkpt lat="44.53889" lon="4.6019">
        <ele>199.80000305176</ele>
        <time>2021-10-02T13:28:40Z</time>
      </trkpt>
      <trkpt lat="44.53891" lon="4.60187">
        <ele>199.80000305176</ele>
        <time>2021-10-02T13:28:41Z</time>
      </trkpt>
      <trkpt lat="44.53893" lon="4.60185">
        <ele>199.80000305176</ele>
        <time>2021-10-02T13:28:42Z</time>
      </trkpt>
      <trkpt lat="44.53896" lon="4.60182">
        <ele>200</ele>
        <time>2021-10-02T13:28:43Z</time>
      </trkpt>
      <trkpt lat="44.53898" lon="4.60181">
        <ele>200</ele>
        <time>2021-10-02T13:28:44Z</time>
      </trkpt>
      <trkpt lat="44.539" lon="4.60179">
        <ele>200.19999694824</ele>
        <time>2021-10-02T13:28:45Z</time>
      </trkpt>
      <trkpt lat="44.53903" lon="4.60178">
        <ele>200.60000610352</ele>
        <time>2021-10-02T13:28:46Z</time>
      </trkpt>
      <trkpt lat="44.53905" lon="4.60177">
        <ele>200.39999389648</ele>
        <time>2021-10-02T13:28:47Z</time>
      </trkpt>
      <trkpt lat="44.53907" lon="4.60175">
        <ele>200.39999389648</ele>
        <time>2021-10-02T13:28:48Z</time>
      </trkpt>
      <trkpt lat="44.53909" lon="4.60174">
        <ele>200.60000610352</ele>
        <time>2021-10-02T13:28:49Z</time>
      </trkpt>
      <trkpt lat="44.53911" lon="4.60173">
        <ele>200.80000305176</ele>
        <time>2021-10-02T13:28:50Z</time>
      </trkpt>
      <trkpt lat="44.53913" lon="4.60172">
        <ele>201.19999694824</ele>
        <time>2021-10-02T13:28:51Z</time>
      </trkpt>
      <trkpt lat="44.53915" lon="4.6017">
        <ele>201.39999389648</ele>
        <time>2021-10-02T13:28:52Z</time>
      </trkpt>
      <trkpt lat="44.53917" lon="4.60169">
        <ele>201.60000610352</ele>
        <time>2021-10-02T13:28:53Z</time>
      </trkpt>
      <trkpt lat="44.53919" lon="4.60168">
        <ele>202.19999694824</ele>
        <time>2021-10-02T13:28:54Z</time>
      </trkpt>
      <trkpt lat="44.5392" lon="4.60167">
        <ele>202.39999389648</ele>
        <time>2021-10-02T13:28:55Z</time>
      </trkpt>
      <trkpt lat="44.53922" lon="4.60166">
        <ele>202.80000305176</ele>
        <time>2021-10-02T13:28:56Z</time>
      </trkpt>
      <trkpt lat="44.53924" lon="4.60165">
        <ele>203</ele>
        <time>2021-10-02T13:28:57Z</time>
      </trkpt>
      <trkpt lat="44.53927" lon="4.60164">
        <ele>203.39999389648</ele>
        <time>2021-10-02T13:28:58Z</time>
      </trkpt>
      <trkpt lat="44.53929" lon="4.60163">
        <ele>203.39999389648</ele>
        <time>2021-10-02T13:28:59Z</time>
      </trkpt>
      <trkpt lat="44.53931" lon="4.60162">
        <ele>203.80000305176</ele>
        <time>2021-10-02T13:29:00Z</time>
      </trkpt>
      <trkpt lat="44.53933" lon="4.60161">
        <ele>204</ele>
        <time>2021-10-02T13:29:01Z</time>
      </trkpt>
      <trkpt lat="44.53935" lon="4.6016">
        <ele>204.19999694824</ele>
        <time>2021-10-02T13:29:02Z</time>
      </trkpt>
      <trkpt lat="44.53937" lon="4.6016">
        <ele>204.19999694824</ele>
        <time>2021-10-02T13:29:03Z</time>
      </trkpt>
      <trkpt lat="44.53939" lon="4.60159">
        <ele>204.60000610352</ele>
        <time>2021-10-02T13:29:04Z</time>
      </trkpt>
      <trkpt lat="44.53941" lon="4.60159">
        <ele>204.60000610352</ele>
        <time>2021-10-02T13:29:05Z</time>
      </trkpt>
      <trkpt lat="44.53942" lon="4.60158">
        <ele>205</ele>
        <time>2021-10-02T13:29:06Z</time>
      </trkpt>
      <trkpt lat="44.53944" lon="4.60157">
        <ele>205.19999694824</ele>
        <time>2021-10-02T13:29:07Z</time>
      </trkpt>
      <trkpt lat="44.53945" lon="4.60156">
        <ele>205.39999389648</ele>
        <time>2021-10-02T13:29:08Z</time>
      </trkpt>
      <trkpt lat="44.53947" lon="4.60155">
        <ele>205.60000610352</ele>
        <time>2021-10-02T13:29:09Z</time>
      </trkpt>
      <trkpt lat="44.53948" lon="4.60154">
        <ele>206</ele>
        <time>2021-10-02T13:29:10Z</time>
      </trkpt>
      <trkpt lat="44.5395" lon="4.60153">
        <ele>206.60000610352</ele>
        <time>2021-10-02T13:29:11Z</time>
      </trkpt>
      <trkpt lat="44.53951" lon="4.60152">
        <ele>207</ele>
        <time>2021-10-02T13:29:12Z</time>
      </trkpt>
      <trkpt lat="44.53953" lon="4.60151">
        <ele>207.39999389648</ele>
        <time>2021-10-02T13:29:13Z</time>
      </trkpt>
      <trkpt lat="44.53954" lon="4.6015">
        <ele>207.80000305176</ele>
        <time>2021-10-02T13:29:14Z</time>
      </trkpt>
      <trkpt lat="44.53956" lon="4.60148">
        <ele>208.39999389648</ele>
        <time>2021-10-02T13:29:15Z</time>
      </trkpt>
      <trkpt lat="44.53957" lon="4.60147">
        <ele>209.19999694824</ele>
        <time>2021-10-02T13:29:16Z</time>
      </trkpt>
      <trkpt lat="44.53959" lon="4.60147">
        <ele>209.60000610352</ele>
        <time>2021-10-02T13:29:17Z</time>
      </trkpt>
      <trkpt lat="44.53961" lon="4.60146">
        <ele>210</ele>
        <time>2021-10-02T13:29:18Z</time>
      </trkpt>
      <trkpt lat="44.53962" lon="4.60145">
        <ele>210.39999389648</ele>
        <time>2021-10-02T13:29:19Z</time>
      </trkpt>
      <trkpt lat="44.53964" lon="4.60144">
        <ele>210.60000610352</ele>
        <time>2021-10-02T13:29:20Z</time>
      </trkpt>
      <trkpt lat="44.53966" lon="4.60144">
        <ele>211</ele>
        <time>2021-10-02T13:29:21Z</time>
      </trkpt>
      <trkpt lat="44.53968" lon="4.60143">
        <ele>211.19999694824</ele>
        <time>2021-10-02T13:29:22Z</time>
      </trkpt>
      <trkpt lat="44.53969" lon="4.60142">
        <ele>211.39999389648</ele>
        <time>2021-10-02T13:29:23Z</time>
      </trkpt>
      <trkpt lat="44.53971" lon="4.60142">
        <ele>211.39999389648</ele>
        <time>2021-10-02T13:29:24Z</time>
      </trkpt>
      <trkpt lat="44.53972" lon="4.60141">
        <ele>211.80000305176</ele>
        <time>2021-10-02T13:29:25Z</time>
      </trkpt>
      <trkpt lat="44.53973" lon="4.60139">
        <ele>211.80000305176</ele>
        <time>2021-10-02T13:29:26Z</time>
      </trkpt>
      <trkpt lat="44.53975" lon="4.60138">
        <ele>212</ele>
        <time>2021-10-02T13:29:27Z</time>
      </trkpt>
      <trkpt lat="44.53977" lon="4.60137">
        <ele>212.19999694824</ele>
        <time>2021-10-02T13:29:28Z</time>
      </trkpt>
      <trkpt lat="44.53978" lon="4.60137">
        <ele>212.39999389648</ele>
        <time>2021-10-02T13:29:29Z</time>
      </trkpt>
      <trkpt lat="44.53979" lon="4.60136">
        <ele>212.60000610352</ele>
        <time>2021-10-02T13:29:30Z</time>
      </trkpt>
      <trkpt lat="44.53981" lon="4.60135">
        <ele>212.80000305176</ele>
        <time>2021-10-02T13:29:31Z</time>
      </trkpt>
      <trkpt lat="44.53982" lon="4.60134">
        <ele>213.19999694824</ele>
        <time>2021-10-02T13:29:32Z</time>
      </trkpt>
      <trkpt lat="44.53983" lon="4.60133">
        <ele>213.39999389648</ele>
        <time>2021-10-02T13:29:33Z</time>
      </trkpt>
      <trkpt lat="44.53984" lon="4.60132">
        <ele>213.60000610352</ele>
        <time>2021-10-02T13:29:34Z</time>
      </trkpt>
      <trkpt lat="44.53985" lon="4.60132">
        <ele>213.80000305176</ele>
        <time>2021-10-02T13:29:35Z</time>
      </trkpt>
      <trkpt lat="44.53986" lon="4.60131">
        <ele>214.19999694824</ele>
        <time>2021-10-02T13:29:36Z</time>
      </trkpt>
      <trkpt lat="44.53987" lon="4.60131">
        <ele>214.19999694824</ele>
        <time>2021-10-02T13:29:37Z</time>
      </trkpt>
      <trkpt lat="44.53987" lon="4.6013">
        <ele>214.39999389648</ele>
        <time>2021-10-02T13:29:38Z</time>
      </trkpt>
      <trkpt lat="44.53988" lon="4.60129">
        <ele>214.60000610352</ele>
        <time>2021-10-02T13:29:39Z</time>
      </trkpt>
      <trkpt lat="44.53988" lon="4.60129">
        <ele>214.60000610352</ele>
        <time>2021-10-02T13:29:40Z</time>
      </trkpt>
      <trkpt lat="44.53989" lon="4.60129">
        <ele>215</ele>
        <time>2021-10-02T13:29:41Z</time>
      </trkpt>
      <trkpt lat="44.53989" lon="4.60128">
        <ele>215</ele>
        <time>2021-10-02T13:29:42Z</time>
      </trkpt>
      <trkpt lat="44.5399" lon="4.60128">
        <ele>215.19999694824</ele>
        <time>2021-10-02T13:29:43Z</time>
      </trkpt>
      <trkpt lat="44.53991" lon="4.60127">
        <ele>215.19999694824</ele>
        <time>2021-10-02T13:29:44Z</time>
      </trkpt>
      <trkpt lat="44.53992" lon="4.60127">
        <ele>215.39999389648</ele>
        <time>2021-10-02T13:29:45Z</time>
      </trkpt>
      <trkpt lat="44.53992" lon="4.60126">
        <ele>215.39999389648</ele>
        <time>2021-10-02T13:29:46Z</time>
      </trkpt>
      <trkpt lat="44.53993" lon="4.60125">
        <ele>215.60000610352</ele>
        <time>2021-10-02T13:29:47Z</time>
      </trkpt>
      <trkpt lat="44.53994" lon="4.60124">
        <ele>215.80000305176</ele>
        <time>2021-10-02T13:29:48Z</time>
      </trkpt>
      <trkpt lat="44.53995" lon="4.60123">
        <ele>215.80000305176</ele>
        <time>2021-10-02T13:29:49Z</time>
      </trkpt>
      <trkpt lat="44.53995" lon="4.60123">
        <ele>215.80000305176</ele>
        <time>2021-10-02T13:29:50Z</time>
      </trkpt>
      <trkpt lat="44.53995" lon="4.60123">
        <ele>216</ele>
        <time>2021-10-02T13:29:52Z</time>
      </trkpt>
      <trkpt lat="44.53996" lon="4.60122">
        <ele>216.60000610352</ele>
        <time>2021-10-02T13:29:59Z</time>
      </trkpt>
      <trkpt lat="44.53997" lon="4.6012">
        <ele>216.60000610352</ele>
        <time>2021-10-02T13:30:00Z</time>
      </trkpt>
      <trkpt lat="44.54" lon="4.60116">
        <ele>216.60000610352</ele>
        <time>2021-10-02T13:30:02Z</time>
      </trkpt>
      <trkpt lat="44.54006" lon="4.6011">
        <ele>216.60000610352</ele>
        <time>2021-10-02T13:30:05Z</time>
      </trkpt>
      <trkpt lat="44.54008" lon="4.60107">
        <ele>216.80000305176</ele>
        <time>2021-10-02T13:30:06Z</time>
      </trkpt>
      <trkpt lat="44.54012" lon="4.60103">
        <ele>216.60000610352</ele>
        <time>2021-10-02T13:30:08Z</time>
      </trkpt>
      <trkpt lat="44.54013" lon="4.601">
        <ele>216.80000305176</ele>
        <time>2021-10-02T13:30:09Z</time>
      </trkpt>
      <trkpt lat="44.54015" lon="4.60097">
        <ele>216.80000305176</ele>
        <time>2021-10-02T13:30:10Z</time>
      </trkpt>
      <trkpt lat="44.54017" lon="4.60095">
        <ele>216.80000305176</ele>
        <time>2021-10-02T13:30:11Z</time>
      </trkpt>
      <trkpt lat="44.54018" lon="4.60092">
        <ele>217.19999694824</ele>
        <time>2021-10-02T13:30:12Z</time>
      </trkpt>
      <trkpt lat="44.5402" lon="4.60089">
        <ele>217.60000610352</ele>
        <time>2021-10-02T13:30:13Z</time>
      </trkpt>
      <trkpt lat="44.54022" lon="4.60085">
        <ele>217.80000305176</ele>
        <time>2021-10-02T13:30:14Z</time>
      </trkpt>
      <trkpt lat="44.54024" lon="4.60082">
        <ele>218.19999694824</ele>
        <time>2021-10-02T13:30:15Z</time>
      </trkpt>
      <trkpt lat="44.54026" lon="4.60079">
        <ele>218.60000610352</ele>
        <time>2021-10-02T13:30:16Z</time>
      </trkpt>
      <trkpt lat="44.54027" lon="4.60075">
        <ele>219</ele>
        <time>2021-10-02T13:30:17Z</time>
      </trkpt>
      <trkpt lat="44.54029" lon="4.60071">
        <ele>219.19999694824</ele>
        <time>2021-10-02T13:30:18Z</time>
      </trkpt>
      <trkpt lat="44.54031" lon="4.60068">
        <ele>219.19999694824</ele>
        <time>2021-10-02T13:30:19Z</time>
      </trkpt>
      <trkpt lat="44.54033" lon="4.60064">
        <ele>219.19999694824</ele>
        <time>2021-10-02T13:30:20Z</time>
      </trkpt>
      <trkpt lat="44.54035" lon="4.60061">
        <ele>219.19999694824</ele>
        <time>2021-10-02T13:30:21Z</time>
      </trkpt>
      <trkpt lat="44.54037" lon="4.60058">
        <ele>219.19999694824</ele>
        <time>2021-10-02T13:30:22Z</time>
      </trkpt>
      <trkpt lat="44.54039" lon="4.60055">
        <ele>219.39999389648</ele>
        <time>2021-10-02T13:30:23Z</time>
      </trkpt>
      <trkpt lat="44.5404" lon="4.60052">
        <ele>219.39999389648</ele>
        <time>2021-10-02T13:30:24Z</time>
      </trkpt>
      <trkpt lat="44.54042" lon="4.60049">
        <ele>219.80000305176</ele>
        <time>2021-10-02T13:30:25Z</time>
      </trkpt>
      <trkpt lat="44.54044" lon="4.60046">
        <ele>220</ele>
        <time>2021-10-02T13:30:26Z</time>
      </trkpt>
      <trkpt lat="44.54045" lon="4.60043">
        <ele>220.19999694824</ele>
        <time>2021-10-02T13:30:27Z</time>
      </trkpt>
      <trkpt lat="44.54047" lon="4.60039">
        <ele>220.39999389648</ele>
        <time>2021-10-02T13:30:28Z</time>
      </trkpt>
      <trkpt lat="44.54049" lon="4.60036">
        <ele>220.80000305176</ele>
        <time>2021-10-02T13:30:29Z</time>
      </trkpt>
      <trkpt lat="44.5405" lon="4.60033">
        <ele>220.80000305176</ele>
        <time>2021-10-02T13:30:30Z</time>
      </trkpt>
      <trkpt lat="44.54052" lon="4.6003">
        <ele>220.80000305176</ele>
        <time>2021-10-02T13:30:31Z</time>
      </trkpt>
      <trkpt lat="44.54054" lon="4.60026">
        <ele>220.80000305176</ele>
        <time>2021-10-02T13:30:32Z</time>
      </trkpt>
      <trkpt lat="44.54056" lon="4.60023">
        <ele>221.19999694824</ele>
        <time>2021-10-02T13:30:33Z</time>
      </trkpt>
      <trkpt lat="44.54057" lon="4.6002">
        <ele>221.19999694824</ele>
        <time>2021-10-02T13:30:34Z</time>
      </trkpt>
      <trkpt lat="44.54059" lon="4.60017">
        <ele>221.60000610352</ele>
        <time>2021-10-02T13:30:35Z</time>
      </trkpt>
      <trkpt lat="44.54061" lon="4.60013">
        <ele>222</ele>
        <time>2021-10-02T13:30:36Z</time>
      </trkpt>
      <trkpt lat="44.54062" lon="4.6001">
        <ele>221.80000305176</ele>
        <time>2021-10-02T13:30:37Z</time>
      </trkpt>
      <trkpt lat="44.54064" lon="4.60006">
        <ele>222</ele>
        <time>2021-10-02T13:30:38Z</time>
      </trkpt>
      <trkpt lat="44.54065" lon="4.60003">
        <ele>222.19999694824</ele>
        <time>2021-10-02T13:30:39Z</time>
      </trkpt>
      <trkpt lat="44.54067" lon="4.59999">
        <ele>222.39999389648</ele>
        <time>2021-10-02T13:30:40Z</time>
      </trkpt>
      <trkpt lat="44.54068" lon="4.59996">
        <ele>222.39999389648</ele>
        <time>2021-10-02T13:30:41Z</time>
      </trkpt>
      <trkpt lat="44.5407" lon="4.59993">
        <ele>222.60000610352</ele>
        <time>2021-10-02T13:30:42Z</time>
      </trkpt>
      <trkpt lat="44.54071" lon="4.5999">
        <ele>222.60000610352</ele>
        <time>2021-10-02T13:30:43Z</time>
      </trkpt>
      <trkpt lat="44.54072" lon="4.59987">
        <ele>222.39999389648</ele>
        <time>2021-10-02T13:30:44Z</time>
      </trkpt>
      <trkpt lat="44.54074" lon="4.59984">
        <ele>222.80000305176</ele>
        <time>2021-10-02T13:30:45Z</time>
      </trkpt>
      <trkpt lat="44.54075" lon="4.59981">
        <ele>222.80000305176</ele>
        <time>2021-10-02T13:30:46Z</time>
      </trkpt>
      <trkpt lat="44.54076" lon="4.59978">
        <ele>223.19999694824</ele>
        <time>2021-10-02T13:30:47Z</time>
      </trkpt>
      <trkpt lat="44.54078" lon="4.59975">
        <ele>223.39999389648</ele>
        <time>2021-10-02T13:30:48Z</time>
      </trkpt>
      <trkpt lat="44.5408" lon="4.59972">
        <ele>223.39999389648</ele>
        <time>2021-10-02T13:30:49Z</time>
      </trkpt>
      <trkpt lat="44.54081" lon="4.59969">
        <ele>223.39999389648</ele>
        <time>2021-10-02T13:30:50Z</time>
      </trkpt>
      <trkpt lat="44.54083" lon="4.59966">
        <ele>223.60000610352</ele>
        <time>2021-10-02T13:30:51Z</time>
      </trkpt>
      <trkpt lat="44.54084" lon="4.59963">
        <ele>223.60000610352</ele>
        <time>2021-10-02T13:30:52Z</time>
      </trkpt>
      <trkpt lat="44.54086" lon="4.59961">
        <ele>223.80000305176</ele>
        <time>2021-10-02T13:30:53Z</time>
      </trkpt>
      <trkpt lat="44.54088" lon="4.59958">
        <ele>223.80000305176</ele>
        <time>2021-10-02T13:30:54Z</time>
      </trkpt>
      <trkpt lat="44.5409" lon="4.59956">
        <ele>223.80000305176</ele>
        <time>2021-10-02T13:30:55Z</time>
      </trkpt>
      <trkpt lat="44.54092" lon="4.59954">
        <ele>224.19999694824</ele>
        <time>2021-10-02T13:30:56Z</time>
      </trkpt>
      <trkpt lat="44.54094" lon="4.59952">
        <ele>224.19999694824</ele>
        <time>2021-10-02T13:30:57Z</time>
      </trkpt>
      <trkpt lat="44.54096" lon="4.59949">
        <ele>224.39999389648</ele>
        <time>2021-10-02T13:30:58Z</time>
      </trkpt>
      <trkpt lat="44.54098" lon="4.59947">
        <ele>224.80000305176</ele>
        <time>2021-10-02T13:30:59Z</time>
      </trkpt>
      <trkpt lat="44.541" lon="4.59944">
        <ele>225.19999694824</ele>
        <time>2021-10-02T13:31:00Z</time>
      </trkpt>
      <trkpt lat="44.54102" lon="4.59942">
        <ele>225.39999389648</ele>
        <time>2021-10-02T13:31:01Z</time>
      </trkpt>
      <trkpt lat="44.54104" lon="4.5994">
        <ele>225.60000610352</ele>
        <time>2021-10-02T13:31:02Z</time>
      </trkpt>
      <trkpt lat="44.54106" lon="4.59937">
        <ele>226</ele>
        <time>2021-10-02T13:31:03Z</time>
      </trkpt>
      <trkpt lat="44.54109" lon="4.59935">
        <ele>226.60000610352</ele>
        <time>2021-10-02T13:31:04Z</time>
      </trkpt>
      <trkpt lat="44.54111" lon="4.59933">
        <ele>226.80000305176</ele>
        <time>2021-10-02T13:31:05Z</time>
      </trkpt>
      <trkpt lat="44.54113" lon="4.5993">
        <ele>227.19999694824</ele>
        <time>2021-10-02T13:31:06Z</time>
      </trkpt>
      <trkpt lat="44.54115" lon="4.59928">
        <ele>227.39999389648</ele>
        <time>2021-10-02T13:31:07Z</time>
      </trkpt>
      <trkpt lat="44.54117" lon="4.59926">
        <ele>227.60000610352</ele>
        <time>2021-10-02T13:31:08Z</time>
      </trkpt>
      <trkpt lat="44.54119" lon="4.59923">
        <ele>227.80000305176</ele>
        <time>2021-10-02T13:31:09Z</time>
      </trkpt>
      <trkpt lat="44.5412" lon="4.59921">
        <ele>227.80000305176</ele>
        <time>2021-10-02T13:31:10Z</time>
      </trkpt>
      <trkpt lat="44.54122" lon="4.59919">
        <ele>228</ele>
        <time>2021-10-02T13:31:11Z</time>
      </trkpt>
      <trkpt lat="44.54124" lon="4.59916">
        <ele>228.39999389648</ele>
        <time>2021-10-02T13:31:12Z</time>
      </trkpt>
      <trkpt lat="44.54125" lon="4.59914">
        <ele>228.60000610352</ele>
        <time>2021-10-02T13:31:13Z</time>
      </trkpt>
      <trkpt lat="44.54127" lon="4.59911">
        <ele>228.60000610352</ele>
        <time>2021-10-02T13:31:14Z</time>
      </trkpt>
      <trkpt lat="44.54128" lon="4.59908">
        <ele>229</ele>
        <time>2021-10-02T13:31:15Z</time>
      </trkpt>
      <trkpt lat="44.5413" lon="4.59906">
        <ele>229.19999694824</ele>
        <time>2021-10-02T13:31:16Z</time>
      </trkpt>
      <trkpt lat="44.54132" lon="4.59903">
        <ele>229.39999389648</ele>
        <time>2021-10-02T13:31:17Z</time>
      </trkpt>
      <trkpt lat="44.54133" lon="4.599">
        <ele>229.60000610352</ele>
        <time>2021-10-02T13:31:18Z</time>
      </trkpt>
      <trkpt lat="44.54135" lon="4.59897">
        <ele>229.80000305176</ele>
        <time>2021-10-02T13:31:19Z</time>
      </trkpt>
      <trkpt lat="44.54136" lon="4.59894">
        <ele>229.80000305176</ele>
        <time>2021-10-02T13:31:20Z</time>
      </trkpt>
      <trkpt lat="44.54137" lon="4.59891">
        <ele>230.19999694824</ele>
        <time>2021-10-02T13:31:21Z</time>
      </trkpt>
      <trkpt lat="44.54139" lon="4.59889">
        <ele>230.19999694824</ele>
        <time>2021-10-02T13:31:22Z</time>
      </trkpt>
      <trkpt lat="44.5414" lon="4.59886">
        <ele>230.39999389648</ele>
        <time>2021-10-02T13:31:23Z</time>
      </trkpt>
      <trkpt lat="44.54142" lon="4.59883">
        <ele>230.39999389648</ele>
        <time>2021-10-02T13:31:24Z</time>
      </trkpt>
      <trkpt lat="44.54143" lon="4.5988">
        <ele>230.60000610352</ele>
        <time>2021-10-02T13:31:25Z</time>
      </trkpt>
      <trkpt lat="44.54145" lon="4.59878">
        <ele>230.80000305176</ele>
        <time>2021-10-02T13:31:26Z</time>
      </trkpt>
      <trkpt lat="44.54146" lon="4.59875">
        <ele>230.80000305176</ele>
        <time>2021-10-02T13:31:27Z</time>
      </trkpt>
      <trkpt lat="44.54147" lon="4.59872">
        <ele>231</ele>
        <time>2021-10-02T13:31:28Z</time>
      </trkpt>
      <trkpt lat="44.54149" lon="4.59869">
        <ele>231.19999694824</ele>
        <time>2021-10-02T13:31:29Z</time>
      </trkpt>
      <trkpt lat="44.5415" lon="4.59866">
        <ele>231.39999389648</ele>
        <time>2021-10-02T13:31:30Z</time>
      </trkpt>
      <trkpt lat="44.54151" lon="4.59863">
        <ele>231.39999389648</ele>
        <time>2021-10-02T13:31:31Z</time>
      </trkpt>
      <trkpt lat="44.54152" lon="4.5986">
        <ele>231.60000610352</ele>
        <time>2021-10-02T13:31:32Z</time>
      </trkpt>
      <trkpt lat="44.54154" lon="4.59857">
        <ele>231.80000305176</ele>
        <time>2021-10-02T13:31:33Z</time>
      </trkpt>
      <trkpt lat="44.54155" lon="4.59854">
        <ele>232</ele>
        <time>2021-10-02T13:31:34Z</time>
      </trkpt>
      <trkpt lat="44.54156" lon="4.59852">
        <ele>232.39999389648</ele>
        <time>2021-10-02T13:31:35Z</time>
      </trkpt>
      <trkpt lat="44.54158" lon="4.59849">
        <ele>232.60000610352</ele>
        <time>2021-10-02T13:31:36Z</time>
      </trkpt>
      <trkpt lat="44.54159" lon="4.59846">
        <ele>232.80000305176</ele>
        <time>2021-10-02T13:31:37Z</time>
      </trkpt>
      <trkpt lat="44.5416" lon="4.59842">
        <ele>233.19999694824</ele>
        <time>2021-10-02T13:31:38Z</time>
      </trkpt>
      <trkpt lat="44.54162" lon="4.59839">
        <ele>233.39999389648</ele>
        <time>2021-10-02T13:31:39Z</time>
      </trkpt>
      <trkpt lat="44.54163" lon="4.59836">
        <ele>233.60000610352</ele>
        <time>2021-10-02T13:31:40Z</time>
      </trkpt>
      <trkpt lat="44.54164" lon="4.59833">
        <ele>234</ele>
        <time>2021-10-02T13:31:41Z</time>
      </trkpt>
      <trkpt lat="44.54166" lon="4.59831">
        <ele>234</ele>
        <time>2021-10-02T13:31:42Z</time>
      </trkpt>
      <trkpt lat="44.54167" lon="4.59828">
        <ele>234.19999694824</ele>
        <time>2021-10-02T13:31:43Z</time>
      </trkpt>
      <trkpt lat="44.54169" lon="4.59825">
        <ele>234.19999694824</ele>
        <time>2021-10-02T13:31:44Z</time>
      </trkpt>
      <trkpt lat="44.5417" lon="4.59822">
        <ele>234.60000610352</ele>
        <time>2021-10-02T13:31:45Z</time>
      </trkpt>
      <trkpt lat="44.54172" lon="4.59819">
        <ele>235</ele>
        <time>2021-10-02T13:31:46Z</time>
      </trkpt>
      <trkpt lat="44.54174" lon="4.59816">
        <ele>235.19999694824</ele>
        <time>2021-10-02T13:31:47Z</time>
      </trkpt>
      <trkpt lat="44.54176" lon="4.59813">
        <ele>235.60000610352</ele>
        <time>2021-10-02T13:31:48Z</time>
      </trkpt>
      <trkpt lat="44.54178" lon="4.5981">
        <ele>236</ele>
        <time>2021-10-02T13:31:49Z</time>
      </trkpt>
      <trkpt lat="44.54179" lon="4.59807">
        <ele>236.19999694824</ele>
        <time>2021-10-02T13:31:50Z</time>
      </trkpt>
      <trkpt lat="44.54181" lon="4.59804">
        <ele>236.39999389648</ele>
        <time>2021-10-02T13:31:51Z</time>
      </trkpt>
      <trkpt lat="44.54183" lon="4.59801">
        <ele>237.19999694824</ele>
        <time>2021-10-02T13:31:52Z</time>
      </trkpt>
      <trkpt lat="44.54185" lon="4.59798">
        <ele>237.60000610352</ele>
        <time>2021-10-02T13:31:53Z</time>
      </trkpt>
      <trkpt lat="44.54187" lon="4.59794">
        <ele>238</ele>
        <time>2021-10-02T13:31:54Z</time>
      </trkpt>
      <trkpt lat="44.54189" lon="4.59791">
        <ele>238.19999694824</ele>
        <time>2021-10-02T13:31:55Z</time>
      </trkpt>
      <trkpt lat="44.54191" lon="4.59788">
        <ele>238.19999694824</ele>
        <time>2021-10-02T13:31:56Z</time>
      </trkpt>
      <trkpt lat="44.54193" lon="4.59785">
        <ele>238.19999694824</ele>
        <time>2021-10-02T13:31:57Z</time>
      </trkpt>
      <trkpt lat="44.54194" lon="4.59783">
        <ele>238.39999389648</ele>
        <time>2021-10-02T13:31:58Z</time>
      </trkpt>
      <trkpt lat="44.54196" lon="4.5978">
        <ele>238.39999389648</ele>
        <time>2021-10-02T13:31:59Z</time>
      </trkpt>
      <trkpt lat="44.54198" lon="4.59777">
        <ele>238.39999389648</ele>
        <time>2021-10-02T13:32:00Z</time>
      </trkpt>
      <trkpt lat="44.542" lon="4.59774">
        <ele>238.39999389648</ele>
        <time>2021-10-02T13:32:01Z</time>
      </trkpt>
      <trkpt lat="44.54203" lon="4.5977">
        <ele>238.60000610352</ele>
        <time>2021-10-02T13:32:02Z</time>
      </trkpt>
      <trkpt lat="44.54204" lon="4.59767">
        <ele>238.39999389648</ele>
        <time>2021-10-02T13:32:03Z</time>
      </trkpt>
      <trkpt lat="44.54207" lon="4.59764">
        <ele>238.39999389648</ele>
        <time>2021-10-02T13:32:04Z</time>
      </trkpt>
      <trkpt lat="44.54209" lon="4.59761">
        <ele>238.39999389648</ele>
        <time>2021-10-02T13:32:05Z</time>
      </trkpt>
      <trkpt lat="44.54211" lon="4.59759">
        <ele>238.60000610352</ele>
        <time>2021-10-02T13:32:06Z</time>
      </trkpt>
      <trkpt lat="44.54213" lon="4.59756">
        <ele>238.80000305176</ele>
        <time>2021-10-02T13:32:07Z</time>
      </trkpt>
      <trkpt lat="44.54215" lon="4.59753">
        <ele>238.80000305176</ele>
        <time>2021-10-02T13:32:08Z</time>
      </trkpt>
      <trkpt lat="44.54217" lon="4.5975">
        <ele>239</ele>
        <time>2021-10-02T13:32:09Z</time>
      </trkpt>
      <trkpt lat="44.54219" lon="4.59747">
        <ele>239.19999694824</ele>
        <time>2021-10-02T13:32:10Z</time>
      </trkpt>
      <trkpt lat="44.54221" lon="4.59744">
        <ele>239</ele>
        <time>2021-10-02T13:32:11Z</time>
      </trkpt>
      <trkpt lat="44.54223" lon="4.59741">
        <ele>239.19999694824</ele>
        <time>2021-10-02T13:32:12Z</time>
      </trkpt>
      <trkpt lat="44.54225" lon="4.59738">
        <ele>239.39999389648</ele>
        <time>2021-10-02T13:32:13Z</time>
      </trkpt>
      <trkpt lat="44.54227" lon="4.59734">
        <ele>239.60000610352</ele>
        <time>2021-10-02T13:32:14Z</time>
      </trkpt>
      <trkpt lat="44.54229" lon="4.59731">
        <ele>239.80000305176</ele>
        <time>2021-10-02T13:32:15Z</time>
      </trkpt>
      <trkpt lat="44.54231" lon="4.59728">
        <ele>240</ele>
        <time>2021-10-02T13:32:16Z</time>
      </trkpt>
      <trkpt lat="44.54233" lon="4.59725">
        <ele>240.39999389648</ele>
        <time>2021-10-02T13:32:17Z</time>
      </trkpt>
      <trkpt lat="44.54235" lon="4.59721">
        <ele>240.60000610352</ele>
        <time>2021-10-02T13:32:18Z</time>
      </trkpt>
      <trkpt lat="44.54237" lon="4.59718">
        <ele>240.80000305176</ele>
        <time>2021-10-02T13:32:19Z</time>
      </trkpt>
      <trkpt lat="44.54239" lon="4.59715">
        <ele>241</ele>
        <time>2021-10-02T13:32:20Z</time>
      </trkpt>
      <trkpt lat="44.54241" lon="4.59712">
        <ele>241.19999694824</ele>
        <time>2021-10-02T13:32:21Z</time>
      </trkpt>
      <trkpt lat="44.54243" lon="4.59709">
        <ele>241.39999389648</ele>
        <time>2021-10-02T13:32:22Z</time>
      </trkpt>
      <trkpt lat="44.54245" lon="4.59706">
        <ele>241.60000610352</ele>
        <time>2021-10-02T13:32:23Z</time>
      </trkpt>
      <trkpt lat="44.54247" lon="4.59703">
        <ele>241.60000610352</ele>
        <time>2021-10-02T13:32:24Z</time>
      </trkpt>
      <trkpt lat="44.54249" lon="4.597">
        <ele>242</ele>
        <time>2021-10-02T13:32:25Z</time>
      </trkpt>
      <trkpt lat="44.54251" lon="4.59697">
        <ele>242</ele>
        <time>2021-10-02T13:32:26Z</time>
      </trkpt>
      <trkpt lat="44.54253" lon="4.59694">
        <ele>242.19999694824</ele>
        <time>2021-10-02T13:32:27Z</time>
      </trkpt>
      <trkpt lat="44.54254" lon="4.5969">
        <ele>242.19999694824</ele>
        <time>2021-10-02T13:32:28Z</time>
      </trkpt>
      <trkpt lat="44.54256" lon="4.59687">
        <ele>242.19999694824</ele>
        <time>2021-10-02T13:32:29Z</time>
      </trkpt>
      <trkpt lat="44.54258" lon="4.59684">
        <ele>242.80000305176</ele>
        <time>2021-10-02T13:32:30Z</time>
      </trkpt>
      <trkpt lat="44.5426" lon="4.5968">
        <ele>243</ele>
        <time>2021-10-02T13:32:31Z</time>
      </trkpt>
      <trkpt lat="44.54262" lon="4.59677">
        <ele>243.19999694824</ele>
        <time>2021-10-02T13:32:32Z</time>
      </trkpt>
      <trkpt lat="44.54264" lon="4.59674">
        <ele>243.39999389648</ele>
        <time>2021-10-02T13:32:33Z</time>
      </trkpt>
      <trkpt lat="44.54266" lon="4.59671">
        <ele>243.60000610352</ele>
        <time>2021-10-02T13:32:34Z</time>
      </trkpt>
      <trkpt lat="44.54267" lon="4.59668">
        <ele>244</ele>
        <time>2021-10-02T13:32:35Z</time>
      </trkpt>
      <trkpt lat="44.54269" lon="4.59665">
        <ele>244.39999389648</ele>
        <time>2021-10-02T13:32:36Z</time>
      </trkpt>
      <trkpt lat="44.5427" lon="4.59663">
        <ele>244.80000305176</ele>
        <time>2021-10-02T13:32:37Z</time>
      </trkpt>
      <trkpt lat="44.54272" lon="4.5966">
        <ele>245.19999694824</ele>
        <time>2021-10-02T13:32:38Z</time>
      </trkpt>
      <trkpt lat="44.54274" lon="4.59658">
        <ele>245.60000610352</ele>
        <time>2021-10-02T13:32:39Z</time>
      </trkpt>
      <trkpt lat="44.54275" lon="4.59655">
        <ele>246</ele>
        <time>2021-10-02T13:32:40Z</time>
      </trkpt>
      <trkpt lat="44.54277" lon="4.59653">
        <ele>246.19999694824</ele>
        <time>2021-10-02T13:32:41Z</time>
      </trkpt>
      <trkpt lat="44.54279" lon="4.5965">
        <ele>246.60000610352</ele>
        <time>2021-10-02T13:32:42Z</time>
      </trkpt>
      <trkpt lat="44.5428" lon="4.59648">
        <ele>247</ele>
        <time>2021-10-02T13:32:43Z</time>
      </trkpt>
      <trkpt lat="44.54282" lon="4.59645">
        <ele>247.39999389648</ele>
        <time>2021-10-02T13:32:44Z</time>
      </trkpt>
      <trkpt lat="44.54283" lon="4.59642">
        <ele>247.60000610352</ele>
        <time>2021-10-02T13:32:45Z</time>
      </trkpt>
      <trkpt lat="44.54285" lon="4.59639">
        <ele>248</ele>
        <time>2021-10-02T13:32:46Z</time>
      </trkpt>
      <trkpt lat="44.54286" lon="4.59636">
        <ele>248.19999694824</ele>
        <time>2021-10-02T13:32:47Z</time>
      </trkpt>
      <trkpt lat="44.54287" lon="4.59632">
        <ele>248.39999389648</ele>
        <time>2021-10-02T13:32:48Z</time>
      </trkpt>
      <trkpt lat="44.54287" lon="4.59627">
        <ele>248.39999389648</ele>
        <time>2021-10-02T13:32:49Z</time>
      </trkpt>
      <trkpt lat="44.54286" lon="4.59623">
        <ele>248.39999389648</ele>
        <time>2021-10-02T13:32:50Z</time>
      </trkpt>
      <trkpt lat="44.54282" lon="4.59619">
        <ele>248.60000610352</ele>
        <time>2021-10-02T13:32:51Z</time>
      </trkpt>
      <trkpt lat="44.54278" lon="4.59617">
        <ele>248.60000610352</ele>
        <time>2021-10-02T13:32:52Z</time>
      </trkpt>
      <trkpt lat="44.54274" lon="4.59615">
        <ele>248.60000610352</ele>
        <time>2021-10-02T13:32:53Z</time>
      </trkpt>
      <trkpt lat="44.5427" lon="4.59613">
        <ele>248.60000610352</ele>
        <time>2021-10-02T13:32:54Z</time>
      </trkpt>
      <trkpt lat="44.54265" lon="4.59612">
        <ele>248.39999389648</ele>
        <time>2021-10-02T13:32:55Z</time>
      </trkpt>
      <trkpt lat="44.5426" lon="4.59611">
        <ele>248.39999389648</ele>
        <time>2021-10-02T13:32:56Z</time>
      </trkpt>
      <trkpt lat="44.54255" lon="4.5961">
        <ele>248.60000610352</ele>
        <time>2021-10-02T13:32:57Z</time>
      </trkpt>
      <trkpt lat="44.5425" lon="4.59609">
        <ele>248.60000610352</ele>
        <time>2021-10-02T13:32:58Z</time>
      </trkpt>
      <trkpt lat="44.54248" lon="4.59608">
        <ele>248.60000610352</ele>
        <time>2021-10-02T13:32:59Z</time>
      </trkpt>
      <trkpt lat="44.54245" lon="4.59606">
        <ele>248.19999694824</ele>
        <time>2021-10-02T13:33:00Z</time>
      </trkpt>
      <trkpt lat="44.54244" lon="4.59606">
        <ele>248.19999694824</ele>
        <time>2021-10-02T13:33:01Z</time>
      </trkpt>
      <trkpt lat="44.54242" lon="4.59605">
        <ele>248.19999694824</ele>
        <time>2021-10-02T13:33:02Z</time>
      </trkpt>
      <trkpt lat="44.54241" lon="4.59605">
        <ele>248</ele>
        <time>2021-10-02T13:33:03Z</time>
      </trkpt>
      <trkpt lat="44.54239" lon="4.59605">
        <ele>247.60000610352</ele>
        <time>2021-10-02T13:33:04Z</time>
      </trkpt>
      <trkpt lat="44.54237" lon="4.59604">
        <ele>247.39999389648</ele>
        <time>2021-10-02T13:33:05Z</time>
      </trkpt>
      <trkpt lat="44.54243" lon="4.59612">
        <ele>246.80000305176</ele>
        <time>2020-05-31T06:52:09Z</time>
      </trkpt>
      <trkpt lat="44.54231" lon="4.59607">
        <ele>246.39999389648</ele>
        <time>2020-05-31T06:52:11Z</time>
      </trkpt>
      <trkpt lat="44.54217" lon="4.59602">
        <ele>246</ele>
        <time>2020-05-31T06:52:13Z</time>
      </trkpt>
      <trkpt lat="44.5421" lon="4.596">
        <ele>245.39999389648</ele>
        <time>2020-05-31T06:52:14Z</time>
      </trkpt>
      <trkpt lat="44.54202" lon="4.59598">
        <ele>245.19999694824</ele>
        <time>2020-05-31T06:52:15Z</time>
      </trkpt>
      <trkpt lat="44.54194" lon="4.59595">
        <ele>244.80000305176</ele>
        <time>2020-05-31T06:52:16Z</time>
      </trkpt>
      <trkpt lat="44.54186" lon="4.59592">
        <ele>244.39999389648</ele>
        <time>2020-05-31T06:52:17Z</time>
      </trkpt>
      <trkpt lat="44.54179" lon="4.5959">
        <ele>244</ele>
        <time>2020-05-31T06:52:18Z</time>
      </trkpt>
      <trkpt lat="44.54172" lon="4.5959">
        <ele>243.80000305176</ele>
        <time>2020-05-31T06:52:19Z</time>
      </trkpt>
      <trkpt lat="44.54165" lon="4.59593">
        <ele>243.19999694824</ele>
        <time>2020-05-31T06:52:20Z</time>
      </trkpt>
      <trkpt lat="44.54158" lon="4.59595">
        <ele>243.19999694824</ele>
        <time>2020-05-31T06:52:21Z</time>
      </trkpt>
      <trkpt lat="44.54152" lon="4.59597">
        <ele>242.60000610352</ele>
        <time>2020-05-31T06:52:22Z</time>
      </trkpt>
      <trkpt lat="44.54146" lon="4.59599">
        <ele>241.80000305176</ele>
        <time>2020-05-31T06:52:23Z</time>
      </trkpt>
      <trkpt lat="44.5414" lon="4.596">
        <ele>241</ele>
        <time>2020-05-31T06:52:24Z</time>
      </trkpt>
      <trkpt lat="44.54134" lon="4.596">
        <ele>240.39999389648</ele>
        <time>2020-05-31T06:52:25Z</time>
      </trkpt>
      <trkpt lat="44.54128" lon="4.59601">
        <ele>240.19999694824</ele>
        <time>2020-05-31T06:52:26Z</time>
      </trkpt>
      <trkpt lat="44.54122" lon="4.59602">
        <ele>240</ele>
        <time>2020-05-31T06:52:27Z</time>
      </trkpt>
      <trkpt lat="44.54117" lon="4.59603">
        <ele>240</ele>
        <time>2020-05-31T06:52:28Z</time>
      </trkpt>
      <trkpt lat="44.54111" lon="4.59605">
        <ele>239.80000305176</ele>
        <time>2020-05-31T06:52:29Z</time>
      </trkpt>
      <trkpt lat="44.54106" lon="4.59607">
        <ele>239.80000305176</ele>
        <time>2020-05-31T06:52:30Z</time>
      </trkpt>
      <trkpt lat="44.54101" lon="4.59611">
        <ele>239.80000305176</ele>
        <time>2020-05-31T06:52:31Z</time>
      </trkpt>
      <trkpt lat="44.54097" lon="4.59616">
        <ele>239.80000305176</ele>
        <time>2020-05-31T06:52:32Z</time>
      </trkpt>
      <trkpt lat="44.54093" lon="4.59622">
        <ele>239.80000305176</ele>
        <time>2020-05-31T06:52:33Z</time>
      </trkpt>
      <trkpt lat="44.54089" lon="4.59628">
        <ele>239.80000305176</ele>
        <time>2020-05-31T06:52:34Z</time>
      </trkpt>
      <trkpt lat="44.54085" lon="4.59634">
        <ele>240.19999694824</ele>
        <time>2020-05-31T06:52:35Z</time>
      </trkpt>
      <trkpt lat="44.54081" lon="4.59639">
        <ele>240.39999389648</ele>
        <time>2020-05-31T06:52:36Z</time>
      </trkpt>
      <trkpt lat="44.54077" lon="4.59645">
        <ele>240.60000610352</ele>
        <time>2020-05-31T06:52:37Z</time>
      </trkpt>
      <trkpt lat="44.54073" lon="4.5965">
        <ele>240.60000610352</ele>
        <time>2020-05-31T06:52:38Z</time>
      </trkpt>
      <trkpt lat="44.54068" lon="4.59655">
        <ele>240.80000305176</ele>
        <time>2020-05-31T06:52:39Z</time>
      </trkpt>
      <trkpt lat="44.54064" lon="4.59659">
        <ele>241</ele>
        <time>2020-05-31T06:52:40Z</time>
      </trkpt>
      <trkpt lat="44.54059" lon="4.59664">
        <ele>241</ele>
        <time>2020-05-31T06:52:41Z</time>
      </trkpt>
      <trkpt lat="44.54051" lon="4.59675">
        <ele>241</ele>
        <time>2020-05-31T06:52:43Z</time>
      </trkpt>
      <trkpt lat="44.54042" lon="4.59686">
        <ele>241.60000610352</ele>
        <time>2020-05-31T06:52:45Z</time>
      </trkpt>
      <trkpt lat="44.54038" lon="4.59692">
        <ele>241.80000305176</ele>
        <time>2020-05-31T06:52:46Z</time>
      </trkpt>
      <trkpt lat="44.54034" lon="4.59697">
        <ele>242</ele>
        <time>2020-05-31T06:52:47Z</time>
      </trkpt>
      <trkpt lat="44.5403" lon="4.59702">
        <ele>242</ele>
        <time>2020-05-31T06:52:48Z</time>
      </trkpt>
      <trkpt lat="44.54025" lon="4.59707">
        <ele>241.80000305176</ele>
        <time>2020-05-31T06:52:49Z</time>
      </trkpt>
      <trkpt lat="44.54021" lon="4.59713">
        <ele>242</ele>
        <time>2020-05-31T06:52:50Z</time>
      </trkpt>
      <trkpt lat="44.54017" lon="4.59718">
        <ele>241.80000305176</ele>
        <time>2020-05-31T06:52:51Z</time>
      </trkpt>
      <trkpt lat="44.54009" lon="4.59729">
        <ele>242</ele>
        <time>2020-05-31T06:52:53Z</time>
      </trkpt>
      <trkpt lat="44.54006" lon="4.59735">
        <ele>241.80000305176</ele>
        <time>2020-05-31T06:52:54Z</time>
      </trkpt>
      <trkpt lat="44.54003" lon="4.5974">
        <ele>241.80000305176</ele>
        <time>2020-05-31T06:52:55Z</time>
      </trkpt>
      <trkpt lat="44.54" lon="4.59744">
        <ele>241.80000305176</ele>
        <time>2020-05-31T06:52:56Z</time>
      </trkpt>
      <trkpt lat="44.53997" lon="4.59748">
        <ele>241.80000305176</ele>
        <time>2020-05-31T06:52:57Z</time>
      </trkpt>
      <trkpt lat="44.53995" lon="4.59751">
        <ele>241.80000305176</ele>
        <time>2020-05-31T06:52:58Z</time>
      </trkpt>
      <trkpt lat="44.53992" lon="4.59754">
        <ele>242</ele>
        <time>2020-05-31T06:52:59Z</time>
      </trkpt>
      <trkpt lat="44.5399" lon="4.59758">
        <ele>242</ele>
        <time>2020-05-31T06:53:00Z</time>
      </trkpt>
      <trkpt lat="44.53987" lon="4.59761">
        <ele>241.80000305176</ele>
        <time>2020-05-31T06:53:01Z</time>
      </trkpt>
      <trkpt lat="44.53984" lon="4.59765">
        <ele>241.80000305176</ele>
        <time>2020-05-31T06:53:02Z</time>
      </trkpt>
      <trkpt lat="44.53981" lon="4.59769">
        <ele>241.80000305176</ele>
        <time>2020-05-31T06:53:03Z</time>
      </trkpt>
      <trkpt lat="44.5397" lon="4.5978">
        <ele>241.60000610352</ele>
        <time>2020-05-31T06:53:06Z</time>
      </trkpt>
      <trkpt lat="44.53967" lon="4.59783">
        <ele>241.60000610352</ele>
        <time>2020-05-31T06:53:07Z</time>
      </trkpt>
      <trkpt lat="44.53964" lon="4.59787">
        <ele>241.80000305176</ele>
        <time>2020-05-31T06:53:08Z</time>
      </trkpt>
      <trkpt lat="44.53961" lon="4.5979">
        <ele>241.60000610352</ele>
        <time>2020-05-31T06:53:09Z</time>
      </trkpt>
      <trkpt lat="44.53957" lon="4.59794">
        <ele>241.60000610352</ele>
        <time>2020-05-31T06:53:10Z</time>
      </trkpt>
      <trkpt lat="44.53955" lon="4.59797">
        <ele>241.60000610352</ele>
        <time>2020-05-31T06:53:11Z</time>
      </trkpt>
      <trkpt lat="44.53952" lon="4.598">
        <ele>241.39999389648</ele>
        <time>2020-05-31T06:53:12Z</time>
      </trkpt>
      <trkpt lat="44.53949" lon="4.59803">
        <ele>241.60000610352</ele>
        <time>2020-05-31T06:53:13Z</time>
      </trkpt>
      <trkpt lat="44.53943" lon="4.59809">
        <ele>241.39999389648</ele>
        <time>2020-05-31T06:53:15Z</time>
      </trkpt>
      <trkpt lat="44.5394" lon="4.59812">
        <ele>241.39999389648</ele>
        <time>2020-05-31T06:53:16Z</time>
      </trkpt>
      <trkpt lat="44.53937" lon="4.59815">
        <ele>241.19999694824</ele>
        <time>2020-05-31T06:53:17Z</time>
      </trkpt>
      <trkpt lat="44.53934" lon="4.59818">
        <ele>241.19999694824</ele>
        <time>2020-05-31T06:53:18Z</time>
      </trkpt>
      <trkpt lat="44.53929" lon="4.59824">
        <ele>241.19999694824</ele>
        <time>2020-05-31T06:53:20Z</time>
      </trkpt>
      <trkpt lat="44.53923" lon="4.59831">
        <ele>241.19999694824</ele>
        <time>2020-05-31T06:53:22Z</time>
      </trkpt>
      <trkpt lat="44.5392" lon="4.59834">
        <ele>241.19999694824</ele>
        <time>2020-05-31T06:53:23Z</time>
      </trkpt>
      <trkpt lat="44.53905" lon="4.59851">
        <ele>241</ele>
        <time>2020-05-31T06:53:28Z</time>
      </trkpt>
      <trkpt lat="44.5389" lon="4.59864">
        <ele>241</ele>
        <time>2020-05-31T06:53:32Z</time>
      </trkpt>
      <trkpt lat="44.53879" lon="4.59874">
        <ele>241</ele>
        <time>2020-05-31T06:53:35Z</time>
      </trkpt>
      <trkpt lat="44.5386" lon="4.59892">
        <ele>240.80000305176</ele>
        <time>2020-05-31T06:53:40Z</time>
      </trkpt>
      <trkpt lat="44.53849" lon="4.59904">
        <ele>240.60000610352</ele>
        <time>2020-05-31T06:53:43Z</time>
      </trkpt>
      <trkpt lat="44.53845" lon="4.59907">
        <ele>240.39999389648</ele>
        <time>2020-05-31T06:53:44Z</time>
      </trkpt>
      <trkpt lat="44.53833" lon="4.59917">
        <ele>240.19999694824</ele>
        <time>2020-05-31T06:53:47Z</time>
      </trkpt>
      <trkpt lat="44.53828" lon="4.5992">
        <ele>240.19999694824</ele>
        <time>2020-05-31T06:53:48Z</time>
      </trkpt>
      <trkpt lat="44.53824" lon="4.59922">
        <ele>240.19999694824</ele>
        <time>2020-05-31T06:53:49Z</time>
      </trkpt>
      <trkpt lat="44.5382" lon="4.59925">
        <ele>240.19999694824</ele>
        <time>2020-05-31T06:53:50Z</time>
      </trkpt>
      <trkpt lat="44.53816" lon="4.59928">
        <ele>240</ele>
        <time>2020-05-31T06:53:51Z</time>
      </trkpt>
      <trkpt lat="44.53813" lon="4.5993">
        <ele>240</ele>
        <time>2020-05-31T06:53:52Z</time>
      </trkpt>
      <trkpt lat="44.53809" lon="4.59933">
        <ele>240</ele>
        <time>2020-05-31T06:53:53Z</time>
      </trkpt>
      <trkpt lat="44.53805" lon="4.59935">
        <ele>239.80000305176</ele>
        <time>2020-05-31T06:53:54Z</time>
      </trkpt>
      <trkpt lat="44.53801" lon="4.59937">
        <ele>239.80000305176</ele>
        <time>2020-05-31T06:53:55Z</time>
      </trkpt>
      <trkpt lat="44.53798" lon="4.5994">
        <ele>239.60000610352</ele>
        <time>2020-05-31T06:53:56Z</time>
      </trkpt>
      <trkpt lat="44.53794" lon="4.59942">
        <ele>239.60000610352</ele>
        <time>2020-05-31T06:53:57Z</time>
      </trkpt>
      <trkpt lat="44.53791" lon="4.59944">
        <ele>239.39999389648</ele>
        <time>2020-05-31T06:53:58Z</time>
      </trkpt>
      <trkpt lat="44.53787" lon="4.59946">
        <ele>239.39999389648</ele>
        <time>2020-05-31T06:53:59Z</time>
      </trkpt>
      <trkpt lat="44.53783" lon="4.59948">
        <ele>239.39999389648</ele>
        <time>2020-05-31T06:54:00Z</time>
      </trkpt>
      <trkpt lat="44.53771" lon="4.59956">
        <ele>239.19999694824</ele>
        <time>2020-05-31T06:54:03Z</time>
      </trkpt>
      <trkpt lat="44.53753" lon="4.59965">
        <ele>239</ele>
        <time>2020-05-31T06:54:07Z</time>
      </trkpt>
      <trkpt lat="44.53744" lon="4.59971">
        <ele>238.80000305176</ele>
        <time>2020-05-31T06:54:09Z</time>
      </trkpt>
      <trkpt lat="44.53739" lon="4.59973">
        <ele>238.60000610352</ele>
        <time>2020-05-31T06:54:10Z</time>
      </trkpt>
      <trkpt lat="44.5373" lon="4.59978">
        <ele>238.19999694824</ele>
        <time>2020-05-31T06:54:12Z</time>
      </trkpt>
      <trkpt lat="44.53725" lon="4.5998">
        <ele>238.19999694824</ele>
        <time>2020-05-31T06:54:13Z</time>
      </trkpt>
      <trkpt lat="44.53721" lon="4.59982">
        <ele>238</ele>
        <time>2020-05-31T06:54:14Z</time>
      </trkpt>
      <trkpt lat="44.53712" lon="4.59986">
        <ele>237.80000305176</ele>
        <time>2020-05-31T06:54:16Z</time>
      </trkpt>
      <trkpt lat="44.53698" lon="4.59993">
        <ele>237.60000610352</ele>
        <time>2020-05-31T06:54:19Z</time>
      </trkpt>
      <trkpt lat="44.53693" lon="4.59995">
        <ele>237.60000610352</ele>
        <time>2020-05-31T06:54:20Z</time>
      </trkpt>
      <trkpt lat="44.53688" lon="4.59998">
        <ele>237.60000610352</ele>
        <time>2020-05-31T06:54:21Z</time>
      </trkpt>
      <trkpt lat="44.53662" lon="4.6001">
        <ele>236.60000610352</ele>
        <time>2020-05-31T06:54:26Z</time>
      </trkpt>
      <trkpt lat="44.53657" lon="4.60012">
        <ele>236.39999389648</ele>
        <time>2020-05-31T06:54:27Z</time>
      </trkpt>
      <trkpt lat="44.53652" lon="4.60013">
        <ele>236.19999694824</ele>
        <time>2020-05-31T06:54:28Z</time>
      </trkpt>
      <trkpt lat="44.53647" lon="4.60014">
        <ele>236.19999694824</ele>
        <time>2020-05-31T06:54:29Z</time>
      </trkpt>
      <trkpt lat="44.53642" lon="4.60016">
        <ele>235.60000610352</ele>
        <time>2020-05-31T06:54:30Z</time>
      </trkpt>
      <trkpt lat="44.53631" lon="4.60019">
        <ele>235</ele>
        <time>2020-05-31T06:54:32Z</time>
      </trkpt>
      <trkpt lat="44.53626" lon="4.60021">
        <ele>234.80000305176</ele>
        <time>2020-05-31T06:54:33Z</time>
      </trkpt>
      <trkpt lat="44.53622" lon="4.60023">
        <ele>234.60000610352</ele>
        <time>2020-05-31T06:54:34Z</time>
      </trkpt>
      <trkpt lat="44.53617" lon="4.60025">
        <ele>234.60000610352</ele>
        <time>2020-05-31T06:54:35Z</time>
      </trkpt>
      <trkpt lat="44.53612" lon="4.60027">
        <ele>234.60000610352</ele>
        <time>2020-05-31T06:54:36Z</time>
      </trkpt>
      <trkpt lat="44.53608" lon="4.60029">
        <ele>234.39999389648</ele>
        <time>2020-05-31T06:54:37Z</time>
      </trkpt>
      <trkpt lat="44.53603" lon="4.60029">
        <ele>234.39999389648</ele>
        <time>2020-05-31T06:54:38Z</time>
      </trkpt>
      <trkpt lat="44.53599" lon="4.60029">
        <ele>234.39999389648</ele>
        <time>2020-05-31T06:54:39Z</time>
      </trkpt>
      <trkpt lat="44.53595" lon="4.60028">
        <ele>234.19999694824</ele>
        <time>2020-05-31T06:54:40Z</time>
      </trkpt>
      <trkpt lat="44.5359" lon="4.60026">
        <ele>234.19999694824</ele>
        <time>2020-05-31T06:54:41Z</time>
      </trkpt>
      <trkpt lat="44.53586" lon="4.60024">
        <ele>234.19999694824</ele>
        <time>2020-05-31T06:54:42Z</time>
      </trkpt>
      <trkpt lat="44.53582" lon="4.60021">
        <ele>234.19999694824</ele>
        <time>2020-05-31T06:54:43Z</time>
      </trkpt>
      <trkpt lat="44.53573" lon="4.60017">
        <ele>234</ele>
        <time>2020-05-31T06:54:45Z</time>
      </trkpt>
      <trkpt lat="44.53568" lon="4.60015">
        <ele>234</ele>
        <time>2020-05-31T06:54:46Z</time>
      </trkpt>
      <trkpt lat="44.53564" lon="4.60012">
        <ele>234</ele>
        <time>2020-05-31T06:54:47Z</time>
      </trkpt>
      <trkpt lat="44.53562" lon="4.60007">
        <ele>233.80000305176</ele>
        <time>2020-05-31T06:54:48Z</time>
      </trkpt>
      <trkpt lat="44.5356" lon="4.60002">
        <ele>233.80000305176</ele>
        <time>2020-05-31T06:54:49Z</time>
      </trkpt>
      <trkpt lat="44.53561" lon="4.59996">
        <ele>233.60000610352</ele>
        <time>2020-05-31T06:54:50Z</time>
      </trkpt>
      <trkpt lat="44.53563" lon="4.59989">
        <ele>233.60000610352</ele>
        <time>2020-05-31T06:54:51Z</time>
      </trkpt>
      <trkpt lat="44.53566" lon="4.59973">
        <ele>233.60000610352</ele>
        <time>2020-05-31T06:54:53Z</time>
      </trkpt>
      <trkpt lat="44.5357" lon="4.59955">
        <ele>233.19999694824</ele>
        <time>2020-05-31T06:54:55Z</time>
      </trkpt>
      <trkpt lat="44.53575" lon="4.59938">
        <ele>232.60000610352</ele>
        <time>2020-05-31T06:54:57Z</time>
      </trkpt>
      <trkpt lat="44.53577" lon="4.5993">
        <ele>232.39999389648</ele>
        <time>2020-05-31T06:54:58Z</time>
      </trkpt>
      <trkpt lat="44.5358" lon="4.59912">
        <ele>231.39999389648</ele>
        <time>2020-05-31T06:55:00Z</time>
      </trkpt>
      <trkpt lat="44.53581" lon="4.59904">
        <ele>230.80000305176</ele>
        <time>2020-05-31T06:55:01Z</time>
      </trkpt>
      <trkpt lat="44.53582" lon="4.59896">
        <ele>230.19999694824</ele>
        <time>2020-05-31T06:55:02Z</time>
      </trkpt>
      <trkpt lat="44.53582" lon="4.59887">
        <ele>229.60000610352</ele>
        <time>2020-05-31T06:55:03Z</time>
      </trkpt>
      <trkpt lat="44.53583" lon="4.5988">
        <ele>229.19999694824</ele>
        <time>2020-05-31T06:55:04Z</time>
      </trkpt>
      <trkpt lat="44.53583" lon="4.59872">
        <ele>229</ele>
        <time>2020-05-31T06:55:05Z</time>
      </trkpt>
      <trkpt lat="44.53584" lon="4.59848">
        <ele>228.60000610352</ele>
        <time>2020-05-31T06:55:08Z</time>
      </trkpt>
      <trkpt lat="44.53584" lon="4.59839">
        <ele>228.80000305176</ele>
        <time>2020-05-31T06:55:09Z</time>
      </trkpt>
      <trkpt lat="44.53582" lon="4.59831">
        <ele>228.80000305176</ele>
        <time>2020-05-31T06:55:10Z</time>
      </trkpt>
      <trkpt lat="44.53581" lon="4.59823">
        <ele>228.60000610352</ele>
        <time>2020-05-31T06:55:11Z</time>
      </trkpt>
      <trkpt lat="44.53579" lon="4.59815">
        <ele>228.39999389648</ele>
        <time>2020-05-31T06:55:12Z</time>
      </trkpt>
      <trkpt lat="44.53578" lon="4.59807">
        <ele>228.19999694824</ele>
        <time>2020-05-31T06:55:13Z</time>
      </trkpt>
      <trkpt lat="44.53577" lon="4.59799">
        <ele>228.19999694824</ele>
        <time>2020-05-31T06:55:14Z</time>
      </trkpt>
      <trkpt lat="44.53576" lon="4.59791">
        <ele>228</ele>
        <time>2020-05-31T06:55:15Z</time>
      </trkpt>
      <trkpt lat="44.53576" lon="4.59784">
        <ele>228</ele>
        <time>2020-05-31T06:55:16Z</time>
      </trkpt>
      <trkpt lat="44.53576" lon="4.59776">
        <ele>227.80000305176</ele>
        <time>2020-05-31T06:55:17Z</time>
      </trkpt>
      <trkpt lat="44.53575" lon="4.59769">
        <ele>227.39999389648</ele>
        <time>2020-05-31T06:55:18Z</time>
      </trkpt>
      <trkpt lat="44.53575" lon="4.59762">
        <ele>227.19999694824</ele>
        <time>2020-05-31T06:55:19Z</time>
      </trkpt>
      <trkpt lat="44.53576" lon="4.59754">
        <ele>227.19999694824</ele>
        <time>2020-05-31T06:55:20Z</time>
      </trkpt>
      <trkpt lat="44.53576" lon="4.59747">
        <ele>227.19999694824</ele>
        <time>2020-05-31T06:55:21Z</time>
      </trkpt>
      <trkpt lat="44.53576" lon="4.59741">
        <ele>226.80000305176</ele>
        <time>2020-05-31T06:55:22Z</time>
      </trkpt>
      <trkpt lat="44.53576" lon="4.59734">
        <ele>227</ele>
        <time>2020-05-31T06:55:23Z</time>
      </trkpt>
      <trkpt lat="44.53576" lon="4.59727">
        <ele>226.80000305176</ele>
        <time>2020-05-31T06:55:24Z</time>
      </trkpt>
      <trkpt lat="44.53576" lon="4.5972">
        <ele>226.80000305176</ele>
        <time>2020-05-31T06:55:25Z</time>
      </trkpt>
      <trkpt lat="44.53576" lon="4.59714">
        <ele>226.80000305176</ele>
        <time>2020-05-31T06:55:26Z</time>
      </trkpt>
      <trkpt lat="44.53576" lon="4.59708">
        <ele>226.80000305176</ele>
        <time>2020-05-31T06:55:27Z</time>
      </trkpt>
      <trkpt lat="44.53576" lon="4.59702">
        <ele>226.80000305176</ele>
        <time>2020-05-31T06:55:28Z</time>
      </trkpt>
      <trkpt lat="44.53576" lon="4.59689">
        <ele>227</ele>
        <time>2020-05-31T06:55:30Z</time>
      </trkpt>
      <trkpt lat="44.53575" lon="4.59683">
        <ele>227</ele>
        <time>2020-05-31T06:55:31Z</time>
      </trkpt>
      <trkpt lat="44.53574" lon="4.59676">
        <ele>227</ele>
        <time>2020-05-31T06:55:32Z</time>
      </trkpt>
      <trkpt lat="44.53573" lon="4.5967">
        <ele>227</ele>
        <time>2020-05-31T06:55:33Z</time>
      </trkpt>
      <trkpt lat="44.53569" lon="4.59658">
        <ele>227</ele>
        <time>2020-05-31T06:55:35Z</time>
      </trkpt>
      <trkpt lat="44.53567" lon="4.59651">
        <ele>227</ele>
        <time>2020-05-31T06:55:36Z</time>
      </trkpt>
      <trkpt lat="44.53561" lon="4.59632">
        <ele>227</ele>
        <time>2020-05-31T06:55:39Z</time>
      </trkpt>
      <trkpt lat="44.5356" lon="4.59626">
        <ele>227</ele>
        <time>2020-05-31T06:55:40Z</time>
      </trkpt>
      <trkpt lat="44.53559" lon="4.59622">
        <ele>227.19999694824</ele>
        <time>2020-05-31T06:55:41Z</time>
      </trkpt>
      <trkpt lat="44.53557" lon="4.5962">
        <ele>226.80000305176</ele>
        <time>2020-05-31T06:55:42Z</time>
      </trkpt>
      <trkpt lat="44.53556" lon="4.59618">
        <ele>227</ele>
        <time>2020-05-31T06:55:43Z</time>
      </trkpt>
      <trkpt lat="44.53554" lon="4.59616">
        <ele>226.39999389648</ele>
        <time>2020-05-31T06:55:44Z</time>
      </trkpt>
      <trkpt lat="44.53552" lon="4.59616">
        <ele>226.39999389648</ele>
        <time>2020-05-31T06:55:45Z</time>
      </trkpt>
      <trkpt lat="44.5355" lon="4.59617">
        <ele>226</ele>
        <time>2020-05-31T06:55:46Z</time>
      </trkpt>
      <trkpt lat="44.53548" lon="4.5962">
        <ele>225.60000610352</ele>
        <time>2020-05-31T06:55:47Z</time>
      </trkpt>
      <trkpt lat="44.53545" lon="4.59624">
        <ele>225.39999389648</ele>
        <time>2020-05-31T06:55:48Z</time>
      </trkpt>
      <trkpt lat="44.53534" lon="4.59646">
        <ele>224.60000610352</ele>
        <time>2020-05-31T06:55:53Z</time>
      </trkpt>
      <trkpt lat="44.53532" lon="4.5965">
        <ele>224.60000610352</ele>
        <time>2020-05-31T06:55:54Z</time>
      </trkpt>
      <trkpt lat="44.5353" lon="4.59653">
        <ele>224.80000305176</ele>
        <time>2020-05-31T06:55:55Z</time>
      </trkpt>
      <trkpt lat="44.53527" lon="4.59656">
        <ele>224.60000610352</ele>
        <time>2020-05-31T06:55:56Z</time>
      </trkpt>
      <trkpt lat="44.53524" lon="4.59659">
        <ele>224.60000610352</ele>
        <time>2020-05-31T06:55:57Z</time>
      </trkpt>
      <trkpt lat="44.53521" lon="4.59661">
        <ele>224.60000610352</ele>
        <time>2020-05-31T06:55:58Z</time>
      </trkpt>
      <trkpt lat="44.53518" lon="4.59664">
        <ele>224.60000610352</ele>
        <time>2020-05-31T06:55:59Z</time>
      </trkpt>
      <trkpt lat="44.53515" lon="4.59666">
        <ele>224.39999389648</ele>
        <time>2020-05-31T06:56:00Z</time>
      </trkpt>
      <trkpt lat="44.53512" lon="4.59668">
        <ele>224.60000610352</ele>
        <time>2020-05-31T06:56:01Z</time>
      </trkpt>
      <trkpt lat="44.53509" lon="4.59671">
        <ele>224.80000305176</ele>
        <time>2020-05-31T06:56:02Z</time>
      </trkpt>
      <trkpt lat="44.53505" lon="4.59674">
        <ele>224.80000305176</ele>
        <time>2020-05-31T06:56:03Z</time>
      </trkpt>
      <trkpt lat="44.53502" lon="4.59676">
        <ele>225.19999694824</ele>
        <time>2020-05-31T06:56:04Z</time>
      </trkpt>
      <trkpt lat="44.53512" lon="4.59655">
        <ele>231.39999389648</ele>
        <time>2019-08-22T15:09:40Z</time>
      </trkpt>
      <trkpt lat="44.53518" lon="4.59637">
        <ele>232.19999694824</ele>
        <time>2019-08-22T15:09:38Z</time>
      </trkpt>
      <trkpt lat="44.53524" lon="4.5962">
        <ele>233.39999389648</ele>
        <time>2019-08-22T15:09:36Z</time>
      </trkpt>
      <trkpt lat="44.53528" lon="4.59611">
        <ele>233.80000305176</ele>
        <time>2019-08-22T15:09:35Z</time>
      </trkpt>
      <trkpt lat="44.53538" lon="4.59584">
        <ele>234.19999694824</ele>
        <time>2019-08-22T15:09:32Z</time>
      </trkpt>
      <trkpt lat="44.53544" lon="4.59566">
        <ele>234.80000305176</ele>
        <time>2019-08-22T15:09:30Z</time>
      </trkpt>
      <trkpt lat="44.53548" lon="4.59549">
        <ele>236</ele>
        <time>2019-08-22T15:09:28Z</time>
      </trkpt>
      <trkpt lat="44.53556" lon="4.59512">
        <ele>237.19999694824</ele>
        <time>2019-08-22T15:09:24Z</time>
      </trkpt>
      <trkpt lat="44.5356" lon="4.59493">
        <ele>237.60000610352</ele>
        <time>2019-08-22T15:09:22Z</time>
      </trkpt>
      <trkpt lat="44.53564" lon="4.59474">
        <ele>238.80000305176</ele>
        <time>2019-08-22T15:09:20Z</time>
      </trkpt>
      <trkpt lat="44.53565" lon="4.59466">
        <ele>239</ele>
        <time>2019-08-22T15:09:19Z</time>
      </trkpt>
      <trkpt lat="44.53566" lon="4.59457">
        <ele>239.39999389648</ele>
        <time>2019-08-22T15:09:18Z</time>
      </trkpt>
      <trkpt lat="44.53567" lon="4.59449">
        <ele>239.80000305176</ele>
        <time>2019-08-22T15:09:17Z</time>
      </trkpt>
      <trkpt lat="44.53568" lon="4.59441">
        <ele>240.60000610352</ele>
        <time>2019-08-22T15:09:16Z</time>
      </trkpt>
      <trkpt lat="44.53569" lon="4.59426">
        <ele>241.39999389648</ele>
        <time>2019-08-22T15:09:14Z</time>
      </trkpt>
      <trkpt lat="44.5357" lon="4.59417">
        <ele>241.80000305176</ele>
        <time>2019-08-22T15:09:13Z</time>
      </trkpt>
      <trkpt lat="44.53569" lon="4.59409">
        <ele>242.39999389648</ele>
        <time>2019-08-22T15:09:12Z</time>
      </trkpt>
      <trkpt lat="44.53568" lon="4.59401">
        <ele>243</ele>
        <time>2019-08-22T15:09:11Z</time>
      </trkpt>
      <trkpt lat="44.53565" lon="4.59393">
        <ele>244.39999389648</ele>
        <time>2019-08-22T15:09:10Z</time>
      </trkpt>
      <trkpt lat="44.53555" lon="4.59374">
        <ele>246</ele>
        <time>2019-08-22T15:09:07Z</time>
      </trkpt>
      <trkpt lat="44.53551" lon="4.59368">
        <ele>246.39999389648</ele>
        <time>2019-08-22T15:09:06Z</time>
      </trkpt>
      <trkpt lat="44.53541" lon="4.5935">
        <ele>247.19999694824</ele>
        <time>2019-08-22T15:09:03Z</time>
      </trkpt>
      <trkpt lat="44.53538" lon="4.59345">
        <ele>247.19999694824</ele>
        <time>2019-08-22T15:09:02Z</time>
      </trkpt>
      <trkpt lat="44.53534" lon="4.5934">
        <ele>247.39999389648</ele>
        <time>2019-08-22T15:09:01Z</time>
      </trkpt>
      <trkpt lat="44.53524" lon="4.59326">
        <ele>247.80000305176</ele>
        <time>2019-08-22T15:08:58Z</time>
      </trkpt>
      <trkpt lat="44.53521" lon="4.59322">
        <ele>247.80000305176</ele>
        <time>2019-08-22T15:08:57Z</time>
      </trkpt>
      <trkpt lat="44.53518" lon="4.59318">
        <ele>248</ele>
        <time>2019-08-22T15:08:56Z</time>
      </trkpt>
      <trkpt lat="44.53516" lon="4.59308">
        <ele>248.80000305176</ele>
        <time>2019-08-22T15:08:54Z</time>
      </trkpt>
      <trkpt lat="44.53512" lon="4.59306">
        <ele>249.82421875</ele>
      </trkpt>
      <trkpt lat="44.53506" lon="4.59307">
        <ele>249.99609375</ele>
      </trkpt>
      <trkpt lat="44.53506" lon="4.59307">
        <ele>249.99609375</ele>
      </trkpt>
      <trkpt lat="44.53504" lon="4.59307">
        <ele>248.19999694824</ele>
        <time>2021-10-02T13:38:38Z</time>
      </trkpt>
      <trkpt lat="44.53503" lon="4.59306">
        <ele>248.39999389648</ele>
        <time>2021-10-02T13:38:39Z</time>
      </trkpt>
      <trkpt lat="44.535" lon="4.59306">
        <ele>248.80000305176</ele>
        <time>2021-10-02T13:38:40Z</time>
      </trkpt>
      <trkpt lat="44.53498" lon="4.59308">
        <ele>249</ele>
        <time>2021-10-02T13:38:41Z</time>
      </trkpt>
      <trkpt lat="44.53496" lon="4.59311">
        <ele>249.19999694824</ele>
        <time>2021-10-02T13:38:42Z</time>
      </trkpt>
      <trkpt lat="44.53493" lon="4.59314">
        <ele>249.60000610352</ele>
        <time>2021-10-02T13:38:43Z</time>
      </trkpt>
      <trkpt lat="44.53491" lon="4.59316">
        <ele>249.80000305176</ele>
        <time>2021-10-02T13:38:44Z</time>
      </trkpt>
      <trkpt lat="44.53489" lon="4.59319">
        <ele>250</ele>
        <time>2021-10-02T13:38:45Z</time>
      </trkpt>
      <trkpt lat="44.53488" lon="4.59323">
        <ele>250.19999694824</ele>
        <time>2021-10-02T13:38:46Z</time>
      </trkpt>
      <trkpt lat="44.53486" lon="4.59326">
        <ele>250.19999694824</ele>
        <time>2021-10-02T13:38:47Z</time>
      </trkpt>
      <trkpt lat="44.53485" lon="4.59329">
        <ele>250.19999694824</ele>
        <time>2021-10-02T13:38:48Z</time>
      </trkpt>
      <trkpt lat="44.53485" lon="4.59333">
        <ele>250.39999389648</ele>
        <time>2021-10-02T13:38:49Z</time>
      </trkpt>
      <trkpt lat="44.53485" lon="4.59337">
        <ele>250.60000610352</ele>
        <time>2021-10-02T13:38:50Z</time>
      </trkpt>
      <trkpt lat="44.53485" lon="4.5934">
        <ele>250.80000305176</ele>
        <time>2021-10-02T13:38:51Z</time>
      </trkpt>
      <trkpt lat="44.53485" lon="4.59344">
        <ele>251</ele>
        <time>2021-10-02T13:38:52Z</time>
      </trkpt>
      <trkpt lat="44.53486" lon="4.59348">
        <ele>251</ele>
        <time>2021-10-02T13:38:53Z</time>
      </trkpt>
      <trkpt lat="44.53486" lon="4.59351">
        <ele>251</ele>
        <time>2021-10-02T13:38:54Z</time>
      </trkpt>
      <trkpt lat="44.53485" lon="4.59354">
        <ele>251.39999389648</ele>
        <time>2021-10-02T13:38:55Z</time>
      </trkpt>
      <trkpt lat="44.53485" lon="4.59357">
        <ele>251.60000610352</ele>
        <time>2021-10-02T13:38:56Z</time>
      </trkpt>
      <trkpt lat="44.53484" lon="4.5936">
        <ele>251.80000305176</ele>
        <time>2021-10-02T13:38:57Z</time>
      </trkpt>
      <trkpt lat="44.53483" lon="4.59362">
        <ele>252.19999694824</ele>
        <time>2021-10-02T13:38:58Z</time>
      </trkpt>
      <trkpt lat="44.53481" lon="4.59364">
        <ele>252.39999389648</ele>
        <time>2021-10-02T13:38:59Z</time>
      </trkpt>
      <trkpt lat="44.5348" lon="4.59366">
        <ele>252.80000305176</ele>
        <time>2021-10-02T13:39:00Z</time>
      </trkpt>
      <trkpt lat="44.53478" lon="4.59367">
        <ele>253</ele>
        <time>2021-10-02T13:39:01Z</time>
      </trkpt>
      <trkpt lat="44.53476" lon="4.59367">
        <ele>253.60000610352</ele>
        <time>2021-10-02T13:39:02Z</time>
      </trkpt>
      <trkpt lat="44.53474" lon="4.59367">
        <ele>253.80000305176</ele>
        <time>2021-10-02T13:39:03Z</time>
      </trkpt>
      <trkpt lat="44.53472" lon="4.59367">
        <ele>254</ele>
        <time>2021-10-02T13:39:04Z</time>
      </trkpt>
      <trkpt lat="44.5347" lon="4.59366">
        <ele>254.19999694824</ele>
        <time>2021-10-02T13:39:05Z</time>
      </trkpt>
      <trkpt lat="44.53468" lon="4.59366">
        <ele>254.80000305176</ele>
        <time>2021-10-02T13:39:06Z</time>
      </trkpt>
      <trkpt lat="44.53466" lon="4.59365">
        <ele>255.19999694824</ele>
        <time>2021-10-02T13:39:07Z</time>
      </trkpt>
      <trkpt lat="44.53464" lon="4.59365">
        <ele>255.80000305176</ele>
        <time>2021-10-02T13:39:08Z</time>
      </trkpt>
      <trkpt lat="44.53462" lon="4.59364">
        <ele>256.20001220703</ele>
        <time>2021-10-02T13:39:09Z</time>
      </trkpt>
      <trkpt lat="44.5346" lon="4.59364">
        <ele>256.60000610352</ele>
        <time>2021-10-02T13:39:10Z</time>
      </trkpt>
      <trkpt lat="44.53458" lon="4.59363">
        <ele>257</ele>
        <time>2021-10-02T13:39:11Z</time>
      </trkpt>
      <trkpt lat="44.53456" lon="4.59363">
        <ele>257.39999389648</ele>
        <time>2021-10-02T13:39:12Z</time>
      </trkpt>
      <trkpt lat="44.53454" lon="4.59363">
        <ele>257.79998779297</ele>
        <time>2021-10-02T13:39:13Z</time>
      </trkpt>
      <trkpt lat="44.53452" lon="4.59362">
        <ele>258.20001220703</ele>
        <time>2021-10-02T13:39:14Z</time>
      </trkpt>
      <trkpt lat="44.5345" lon="4.59362">
        <ele>258.60000610352</ele>
        <time>2021-10-02T13:39:15Z</time>
      </trkpt>
      <trkpt lat="44.53448" lon="4.59361">
        <ele>258.60000610352</ele>
        <time>2021-10-02T13:39:16Z</time>
      </trkpt>
      <trkpt lat="44.53446" lon="4.59361">
        <ele>259</ele>
        <time>2021-10-02T13:39:17Z</time>
      </trkpt>
      <trkpt lat="44.53444" lon="4.59361">
        <ele>259.39999389648</ele>
        <time>2021-10-02T13:39:18Z</time>
      </trkpt>
      <trkpt lat="44.53442" lon="4.59361">
        <ele>259.79998779297</ele>
        <time>2021-10-02T13:39:19Z</time>
      </trkpt>
      <trkpt lat="44.5344" lon="4.5936">
        <ele>260</ele>
        <time>2021-10-02T13:39:20Z</time>
      </trkpt>
      <trkpt lat="44.53438" lon="4.59359">
        <ele>260.39999389648</ele>
        <time>2021-10-02T13:39:21Z</time>
      </trkpt>
      <trkpt lat="44.53436" lon="4.59358">
        <ele>260.60000610352</ele>
        <time>2021-10-02T13:39:22Z</time>
      </trkpt>
      <trkpt lat="44.53434" lon="4.59358">
        <ele>260.79998779297</ele>
        <time>2021-10-02T13:39:23Z</time>
      </trkpt>
      <trkpt lat="44.53432" lon="4.59358">
        <ele>261.20001220703</ele>
        <time>2021-10-02T13:39:24Z</time>
      </trkpt>
      <trkpt lat="44.5343" lon="4.59357">
        <ele>261.39999389648</ele>
        <time>2021-10-02T13:39:25Z</time>
      </trkpt>
      <trkpt lat="44.53428" lon="4.59358">
        <ele>261.79998779297</ele>
        <time>2021-10-02T13:39:26Z</time>
      </trkpt>
      <trkpt lat="44.53426" lon="4.59358">
        <ele>262</ele>
        <time>2021-10-02T13:39:27Z</time>
      </trkpt>
      <trkpt lat="44.53424" lon="4.59359">
        <ele>262.39999389648</ele>
        <time>2021-10-02T13:39:28Z</time>
      </trkpt>
      <trkpt lat="44.53423" lon="4.59359">
        <ele>262.39999389648</ele>
        <time>2021-10-02T13:39:29Z</time>
      </trkpt>
      <trkpt lat="44.53421" lon="4.59359">
        <ele>262.79998779297</ele>
        <time>2021-10-02T13:39:30Z</time>
      </trkpt>
      <trkpt lat="44.53419" lon="4.59359">
        <ele>262.79998779297</ele>
        <time>2021-10-02T13:39:31Z</time>
      </trkpt>
      <trkpt lat="44.53417" lon="4.59359">
        <ele>263</ele>
        <time>2021-10-02T13:39:32Z</time>
      </trkpt>
      <trkpt lat="44.53415" lon="4.59359">
        <ele>263.20001220703</ele>
        <time>2021-10-02T13:39:33Z</time>
      </trkpt>
      <trkpt lat="44.53413" lon="4.59359">
        <ele>263.60000610352</ele>
        <time>2021-10-02T13:39:34Z</time>
      </trkpt>
      <trkpt lat="44.53411" lon="4.59359">
        <ele>264</ele>
        <time>2021-10-02T13:39:35Z</time>
      </trkpt>
      <trkpt lat="44.53409" lon="4.59359">
        <ele>264.39999389648</ele>
        <time>2021-10-02T13:39:36Z</time>
      </trkpt>
      <trkpt lat="44.53407" lon="4.59359">
        <ele>265</ele>
        <time>2021-10-02T13:39:37Z</time>
      </trkpt>
      <trkpt lat="44.53405" lon="4.59359">
        <ele>265.39999389648</ele>
        <time>2021-10-02T13:39:38Z</time>
      </trkpt>
      <trkpt lat="44.53403" lon="4.59359">
        <ele>265.39999389648</ele>
        <time>2021-10-02T13:39:39Z</time>
      </trkpt>
      <trkpt lat="44.53401" lon="4.59359">
        <ele>266</ele>
        <time>2021-10-02T13:39:40Z</time>
      </trkpt>
      <trkpt lat="44.53399" lon="4.59359">
        <ele>266.39999389648</ele>
        <time>2021-10-02T13:39:41Z</time>
      </trkpt>
      <trkpt lat="44.53397" lon="4.59359">
        <ele>266.79998779297</ele>
        <time>2021-10-02T13:39:42Z</time>
      </trkpt>
      <trkpt lat="44.53395" lon="4.59358">
        <ele>267</ele>
        <time>2021-10-02T13:39:43Z</time>
      </trkpt>
      <trkpt lat="44.53392" lon="4.59358">
        <ele>267.39999389648</ele>
        <time>2021-10-02T13:39:44Z</time>
      </trkpt>
      <trkpt lat="44.5339" lon="4.59358">
        <ele>267.79998779297</ele>
        <time>2021-10-02T13:39:45Z</time>
      </trkpt>
      <trkpt lat="44.53388" lon="4.59358">
        <ele>268</ele>
        <time>2021-10-02T13:39:46Z</time>
      </trkpt>
      <trkpt lat="44.53386" lon="4.59358">
        <ele>268.39999389648</ele>
        <time>2021-10-02T13:39:47Z</time>
      </trkpt>
      <trkpt lat="44.53384" lon="4.59358">
        <ele>268.60000610352</ele>
        <time>2021-10-02T13:39:48Z</time>
      </trkpt>
      <trkpt lat="44.53382" lon="4.59359">
        <ele>268.79998779297</ele>
        <time>2021-10-02T13:39:49Z</time>
      </trkpt>
      <trkpt lat="44.5338" lon="4.59359">
        <ele>269</ele>
        <time>2021-10-02T13:39:50Z</time>
      </trkpt>
      <trkpt lat="44.53378" lon="4.59359">
        <ele>269.20001220703</ele>
        <time>2021-10-02T13:39:51Z</time>
      </trkpt>
      <trkpt lat="44.53376" lon="4.59359">
        <ele>269.39999389648</ele>
        <time>2021-10-02T13:39:52Z</time>
      </trkpt>
      <trkpt lat="44.53374" lon="4.59359">
        <ele>269.79998779297</ele>
        <time>2021-10-02T13:39:53Z</time>
      </trkpt>
      <trkpt lat="44.53372" lon="4.59359">
        <ele>270</ele>
        <time>2021-10-02T13:39:54Z</time>
      </trkpt>
      <trkpt lat="44.5337" lon="4.59359">
        <ele>270.20001220703</ele>
        <time>2021-10-02T13:39:55Z</time>
      </trkpt>
      <trkpt lat="44.53368" lon="4.59359">
        <ele>270.60000610352</ele>
        <time>2021-10-02T13:39:56Z</time>
      </trkpt>
      <trkpt lat="44.53366" lon="4.59359">
        <ele>270.79998779297</ele>
        <time>2021-10-02T13:39:57Z</time>
      </trkpt>
      <trkpt lat="44.53364" lon="4.59359">
        <ele>271</ele>
        <time>2021-10-02T13:39:58Z</time>
      </trkpt>
      <trkpt lat="44.53362" lon="4.59359">
        <ele>271.20001220703</ele>
        <time>2021-10-02T13:39:59Z</time>
      </trkpt>
      <trkpt lat="44.5336" lon="4.5936">
        <ele>271.39999389648</ele>
        <time>2021-10-02T13:40:00Z</time>
      </trkpt>
      <trkpt lat="44.53358" lon="4.5936">
        <ele>271.39999389648</ele>
        <time>2021-10-02T13:40:01Z</time>
      </trkpt>
      <trkpt lat="44.53356" lon="4.5936">
        <ele>271.39999389648</ele>
        <time>2021-10-02T13:40:02Z</time>
      </trkpt>
      <trkpt lat="44.53354" lon="4.59361">
        <ele>271.79998779297</ele>
        <time>2021-10-02T13:40:03Z</time>
      </trkpt>
      <trkpt lat="44.53353" lon="4.59361">
        <ele>272</ele>
        <time>2021-10-02T13:40:04Z</time>
      </trkpt>
      <trkpt lat="44.53351" lon="4.59362">
        <ele>272.20001220703</ele>
        <time>2021-10-02T13:40:05Z</time>
      </trkpt>
      <trkpt lat="44.53349" lon="4.59362">
        <ele>272.39999389648</ele>
        <time>2021-10-02T13:40:06Z</time>
      </trkpt>
      <trkpt lat="44.53347" lon="4.59363">
        <ele>272.60000610352</ele>
        <time>2021-10-02T13:40:07Z</time>
      </trkpt>
      <trkpt lat="44.53345" lon="4.59364">
        <ele>272.79998779297</ele>
        <time>2021-10-02T13:40:08Z</time>
      </trkpt>
      <trkpt lat="44.53344" lon="4.59365">
        <ele>272.79998779297</ele>
        <time>2021-10-02T13:40:09Z</time>
      </trkpt>
      <trkpt lat="44.53342" lon="4.59366">
        <ele>273</ele>
        <time>2021-10-02T13:40:10Z</time>
      </trkpt>
      <trkpt lat="44.5334" lon="4.59367">
        <ele>273.20001220703</ele>
        <time>2021-10-02T13:40:11Z</time>
      </trkpt>
      <trkpt lat="44.53338" lon="4.59367">
        <ele>273.39999389648</ele>
        <time>2021-10-02T13:40:12Z</time>
      </trkpt>
      <trkpt lat="44.53337" lon="4.59368">
        <ele>273.79998779297</ele>
        <time>2021-10-02T13:40:13Z</time>
      </trkpt>
      <trkpt lat="44.53335" lon="4.59369">
        <ele>274</ele>
        <time>2021-10-02T13:40:14Z</time>
      </trkpt>
      <trkpt lat="44.53333" lon="4.59369">
        <ele>274.20001220703</ele>
        <time>2021-10-02T13:40:15Z</time>
      </trkpt>
      <trkpt lat="44.53331" lon="4.5937">
        <ele>274.20001220703</ele>
        <time>2021-10-02T13:40:16Z</time>
      </trkpt>
      <trkpt lat="44.5333" lon="4.59371">
        <ele>274.60000610352</ele>
        <time>2021-10-02T13:40:17Z</time>
      </trkpt>
      <trkpt lat="44.53328" lon="4.59371">
        <ele>275</ele>
        <time>2021-10-02T13:40:18Z</time>
      </trkpt>
      <trkpt lat="44.53326" lon="4.59372">
        <ele>275.20001220703</ele>
        <time>2021-10-02T13:40:19Z</time>
      </trkpt>
      <trkpt lat="44.53324" lon="4.59373">
        <ele>275.39999389648</ele>
        <time>2021-10-02T13:40:20Z</time>
      </trkpt>
      <trkpt lat="44.53322" lon="4.59374">
        <ele>275.79998779297</ele>
        <time>2021-10-02T13:40:21Z</time>
      </trkpt>
      <trkpt lat="44.53321" lon="4.59374">
        <ele>276.39999389648</ele>
        <time>2021-10-02T13:40:22Z</time>
      </trkpt>
      <trkpt lat="44.53319" lon="4.59375">
        <ele>276.60000610352</ele>
        <time>2021-10-02T13:40:23Z</time>
      </trkpt>
      <trkpt lat="44.53317" lon="4.59376">
        <ele>276.60000610352</ele>
        <time>2021-10-02T13:40:24Z</time>
      </trkpt>
      <trkpt lat="44.53316" lon="4.59377">
        <ele>277.20001220703</ele>
        <time>2021-10-02T13:40:25Z</time>
      </trkpt>
      <trkpt lat="44.53314" lon="4.59377">
        <ele>277.60000610352</ele>
        <time>2021-10-02T13:40:26Z</time>
      </trkpt>
      <trkpt lat="44.53312" lon="4.59378">
        <ele>278</ele>
        <time>2021-10-02T13:40:27Z</time>
      </trkpt>
      <trkpt lat="44.53311" lon="4.59379">
        <ele>278.39999389648</ele>
        <time>2021-10-02T13:40:28Z</time>
      </trkpt>
      <trkpt lat="44.53309" lon="4.5938">
        <ele>278.79998779297</ele>
        <time>2021-10-02T13:40:29Z</time>
      </trkpt>
      <trkpt lat="44.53307" lon="4.59381">
        <ele>279</ele>
        <time>2021-10-02T13:40:30Z</time>
      </trkpt>
      <trkpt lat="44.53305" lon="4.59382">
        <ele>279.39999389648</ele>
        <time>2021-10-02T13:40:31Z</time>
      </trkpt>
      <trkpt lat="44.53303" lon="4.59382">
        <ele>279.60000610352</ele>
        <time>2021-10-02T13:40:32Z</time>
      </trkpt>
      <trkpt lat="44.53302" lon="4.59383">
        <ele>280</ele>
        <time>2021-10-02T13:40:33Z</time>
      </trkpt>
      <trkpt lat="44.533" lon="4.59384">
        <ele>280.20001220703</ele>
        <time>2021-10-02T13:40:34Z</time>
      </trkpt>
      <trkpt lat="44.53299" lon="4.59385">
        <ele>280.39999389648</ele>
        <time>2021-10-02T13:40:35Z</time>
      </trkpt>
      <trkpt lat="44.53297" lon="4.59386">
        <ele>280.79998779297</ele>
        <time>2021-10-02T13:40:36Z</time>
      </trkpt>
      <trkpt lat="44.53295" lon="4.59387">
        <ele>281</ele>
        <time>2021-10-02T13:40:37Z</time>
      </trkpt>
      <trkpt lat="44.53294" lon="4.59387">
        <ele>281.39999389648</ele>
        <time>2021-10-02T13:40:38Z</time>
      </trkpt>
      <trkpt lat="44.53292" lon="4.59388">
        <ele>281.60000610352</ele>
        <time>2021-10-02T13:40:39Z</time>
      </trkpt>
      <trkpt lat="44.5329" lon="4.59389">
        <ele>282</ele>
        <time>2021-10-02T13:40:40Z</time>
      </trkpt>
      <trkpt lat="44.53289" lon="4.5939">
        <ele>282.39999389648</ele>
        <time>2021-10-02T13:40:41Z</time>
      </trkpt>
      <trkpt lat="44.53287" lon="4.59391">
        <ele>282.60000610352</ele>
        <time>2021-10-02T13:40:42Z</time>
      </trkpt>
      <trkpt lat="44.53285" lon="4.59391">
        <ele>283.20001220703</ele>
        <time>2021-10-02T13:40:43Z</time>
      </trkpt>
      <trkpt lat="44.53284" lon="4.59392">
        <ele>283.20001220703</ele>
        <time>2021-10-02T13:40:44Z</time>
      </trkpt>
      <trkpt lat="44.53282" lon="4.59393">
        <ele>283.60000610352</ele>
        <time>2021-10-02T13:40:45Z</time>
      </trkpt>
      <trkpt lat="44.5328" lon="4.59394">
        <ele>283.79998779297</ele>
        <time>2021-10-02T13:40:46Z</time>
      </trkpt>
      <trkpt lat="44.53278" lon="4.59395">
        <ele>283.79998779297</ele>
        <time>2021-10-02T13:40:47Z</time>
      </trkpt>
      <trkpt lat="44.53277" lon="4.59395">
        <ele>284</ele>
        <time>2021-10-02T13:40:48Z</time>
      </trkpt>
      <trkpt lat="44.53275" lon="4.59396">
        <ele>284</ele>
        <time>2021-10-02T13:40:49Z</time>
      </trkpt>
      <trkpt lat="44.53273" lon="4.59397">
        <ele>284.39999389648</ele>
        <time>2021-10-02T13:40:50Z</time>
      </trkpt>
      <trkpt lat="44.53271" lon="4.59398">
        <ele>284.60000610352</ele>
        <time>2021-10-02T13:40:51Z</time>
      </trkpt>
      <trkpt lat="44.53269" lon="4.59398">
        <ele>284.79998779297</ele>
        <time>2021-10-02T13:40:52Z</time>
      </trkpt>
      <trkpt lat="44.53267" lon="4.59399">
        <ele>285</ele>
        <time>2021-10-02T13:40:53Z</time>
      </trkpt>
      <trkpt lat="44.53265" lon="4.594">
        <ele>285.20001220703</ele>
        <time>2021-10-02T13:40:54Z</time>
      </trkpt>
      <trkpt lat="44.53263" lon="4.59401">
        <ele>285.39999389648</ele>
        <time>2021-10-02T13:40:55Z</time>
      </trkpt>
      <trkpt lat="44.53261" lon="4.59401">
        <ele>285.39999389648</ele>
        <time>2021-10-02T13:40:56Z</time>
      </trkpt>
      <trkpt lat="44.53259" lon="4.59402">
        <ele>285.79998779297</ele>
        <time>2021-10-02T13:40:57Z</time>
      </trkpt>
      <trkpt lat="44.53256" lon="4.59402">
        <ele>286</ele>
        <time>2021-10-02T13:40:58Z</time>
      </trkpt>
      <trkpt lat="44.53254" lon="4.59402">
        <ele>286.20001220703</ele>
        <time>2021-10-02T13:40:59Z</time>
      </trkpt>
      <trkpt lat="44.53252" lon="4.59403">
        <ele>286.39999389648</ele>
        <time>2021-10-02T13:41:00Z</time>
      </trkpt>
      <trkpt lat="44.5325" lon="4.59404">
        <ele>286.60000610352</ele>
        <time>2021-10-02T13:41:01Z</time>
      </trkpt>
      <trkpt lat="44.53249" lon="4.59404">
        <ele>286.79998779297</ele>
        <time>2021-10-02T13:41:02Z</time>
      </trkpt>
      <trkpt lat="44.53247" lon="4.59405">
        <ele>287</ele>
        <time>2021-10-02T13:41:03Z</time>
      </trkpt>
      <trkpt lat="44.53245" lon="4.59405">
        <ele>287.39999389648</ele>
        <time>2021-10-02T13:41:04Z</time>
      </trkpt>
      <trkpt lat="44.53243" lon="4.59406">
        <ele>287.79998779297</ele>
        <time>2021-10-02T13:41:05Z</time>
      </trkpt>
      <trkpt lat="44.53241" lon="4.59407">
        <ele>288</ele>
        <time>2021-10-02T13:41:06Z</time>
      </trkpt>
      <trkpt lat="44.53239" lon="4.59407">
        <ele>288.20001220703</ele>
        <time>2021-10-02T13:41:07Z</time>
      </trkpt>
      <trkpt lat="44.53237" lon="4.59408">
        <ele>288.39999389648</ele>
        <time>2021-10-02T13:41:08Z</time>
      </trkpt>
      <trkpt lat="44.53235" lon="4.59409">
        <ele>288.39999389648</ele>
        <time>2021-10-02T13:41:09Z</time>
      </trkpt>
      <trkpt lat="44.53233" lon="4.5941">
        <ele>288.60000610352</ele>
        <time>2021-10-02T13:41:10Z</time>
      </trkpt>
      <trkpt lat="44.53231" lon="4.5941">
        <ele>288.79998779297</ele>
        <time>2021-10-02T13:41:11Z</time>
      </trkpt>
      <trkpt lat="44.53229" lon="4.59411">
        <ele>289</ele>
        <time>2021-10-02T13:41:12Z</time>
      </trkpt>
      <trkpt lat="44.53227" lon="4.59412">
        <ele>289.20001220703</ele>
        <time>2021-10-02T13:41:13Z</time>
      </trkpt>
      <trkpt lat="44.53225" lon="4.59412">
        <ele>289.39999389648</ele>
        <time>2021-10-02T13:41:14Z</time>
      </trkpt>
      <trkpt lat="44.53223" lon="4.59413">
        <ele>289.39999389648</ele>
        <time>2021-10-02T13:41:15Z</time>
      </trkpt>
      <trkpt lat="44.53221" lon="4.59414">
        <ele>289.79998779297</ele>
        <time>2021-10-02T13:41:16Z</time>
      </trkpt>
      <trkpt lat="44.53219" lon="4.59415">
        <ele>290</ele>
        <time>2021-10-02T13:41:17Z</time>
      </trkpt>
      <trkpt lat="44.53217" lon="4.59416">
        <ele>290.20001220703</ele>
        <time>2021-10-02T13:41:18Z</time>
      </trkpt>
      <trkpt lat="44.53216" lon="4.59417">
        <ele>290.39999389648</ele>
        <time>2021-10-02T13:41:19Z</time>
      </trkpt>
      <trkpt lat="44.53214" lon="4.59418">
        <ele>290.60000610352</ele>
        <time>2021-10-02T13:41:20Z</time>
      </trkpt>
      <trkpt lat="44.53212" lon="4.59419">
        <ele>290.79998779297</ele>
        <time>2021-10-02T13:41:21Z</time>
      </trkpt>
      <trkpt lat="44.5321" lon="4.5942">
        <ele>291</ele>
        <time>2021-10-02T13:41:22Z</time>
      </trkpt>
      <trkpt lat="44.53208" lon="4.59422">
        <ele>291</ele>
        <time>2021-10-02T13:41:23Z</time>
      </trkpt>
      <trkpt lat="44.53206" lon="4.59423">
        <ele>291.39999389648</ele>
        <time>2021-10-02T13:41:24Z</time>
      </trkpt>
      <trkpt lat="44.53204" lon="4.59424">
        <ele>291.60000610352</ele>
        <time>2021-10-02T13:41:25Z</time>
      </trkpt>
      <trkpt lat="44.53203" lon="4.59426">
        <ele>291.79998779297</ele>
        <time>2021-10-02T13:41:26Z</time>
      </trkpt>
      <trkpt lat="44.53201" lon="4.59427">
        <ele>291.79998779297</ele>
        <time>2021-10-02T13:41:27Z</time>
      </trkpt>
      <trkpt lat="44.53199" lon="4.59428">
        <ele>292.20001220703</ele>
        <time>2021-10-02T13:41:28Z</time>
      </trkpt>
      <trkpt lat="44.53198" lon="4.5943">
        <ele>292.20001220703</ele>
        <time>2021-10-02T13:41:29Z</time>
      </trkpt>
      <trkpt lat="44.53196" lon="4.59431">
        <ele>292.39999389648</ele>
        <time>2021-10-02T13:41:30Z</time>
      </trkpt>
      <trkpt lat="44.53194" lon="4.59433">
        <ele>292.60000610352</ele>
        <time>2021-10-02T13:41:31Z</time>
      </trkpt>
      <trkpt lat="44.53193" lon="4.59434">
        <ele>292.60000610352</ele>
        <time>2021-10-02T13:41:32Z</time>
      </trkpt>
      <trkpt lat="44.53191" lon="4.59436">
        <ele>292.60000610352</ele>
        <time>2021-10-02T13:41:33Z</time>
      </trkpt>
      <trkpt lat="44.5319" lon="4.59437">
        <ele>292.79998779297</ele>
        <time>2021-10-02T13:41:34Z</time>
      </trkpt>
      <trkpt lat="44.53188" lon="4.59439">
        <ele>293</ele>
        <time>2021-10-02T13:41:35Z</time>
      </trkpt>
      <trkpt lat="44.53186" lon="4.5944">
        <ele>293.39999389648</ele>
        <time>2021-10-02T13:41:36Z</time>
      </trkpt>
      <trkpt lat="44.53185" lon="4.59441">
        <ele>293.60000610352</ele>
        <time>2021-10-02T13:41:37Z</time>
      </trkpt>
      <trkpt lat="44.53183" lon="4.59443">
        <ele>293.79998779297</ele>
        <time>2021-10-02T13:41:38Z</time>
      </trkpt>
      <trkpt lat="44.53181" lon="4.59444">
        <ele>294</ele>
        <time>2021-10-02T13:41:39Z</time>
      </trkpt>
      <trkpt lat="44.53179" lon="4.59445">
        <ele>294.20001220703</ele>
        <time>2021-10-02T13:41:40Z</time>
      </trkpt>
      <trkpt lat="44.53177" lon="4.59446">
        <ele>294.20001220703</ele>
        <time>2021-10-02T13:41:41Z</time>
      </trkpt>
      <trkpt lat="44.53176" lon="4.59446">
        <ele>294.39999389648</ele>
        <time>2021-10-02T13:41:42Z</time>
      </trkpt>
      <trkpt lat="44.53174" lon="4.59447">
        <ele>294.60000610352</ele>
        <time>2021-10-02T13:41:43Z</time>
      </trkpt>
      <trkpt lat="44.53172" lon="4.59448">
        <ele>294.79998779297</ele>
        <time>2021-10-02T13:41:44Z</time>
      </trkpt>
      <trkpt lat="44.53171" lon="4.59449">
        <ele>294.79998779297</ele>
        <time>2021-10-02T13:41:45Z</time>
      </trkpt>
      <trkpt lat="44.53169" lon="4.5945">
        <ele>295.39999389648</ele>
        <time>2021-10-02T13:41:46Z</time>
      </trkpt>
      <trkpt lat="44.53167" lon="4.59451">
        <ele>295.60000610352</ele>
        <time>2021-10-02T13:41:47Z</time>
      </trkpt>
      <trkpt lat="44.53165" lon="4.59452">
        <ele>295.60000610352</ele>
        <time>2021-10-02T13:41:48Z</time>
      </trkpt>
      <trkpt lat="44.53163" lon="4.59454">
        <ele>296</ele>
        <time>2021-10-02T13:41:49Z</time>
      </trkpt>
      <trkpt lat="44.53161" lon="4.59455">
        <ele>296</ele>
        <time>2021-10-02T13:41:50Z</time>
      </trkpt>
      <trkpt lat="44.53159" lon="4.59456">
        <ele>296.39999389648</ele>
        <time>2021-10-02T13:41:51Z</time>
      </trkpt>
      <trkpt lat="44.53157" lon="4.59458">
        <ele>296.60000610352</ele>
        <time>2021-10-02T13:41:52Z</time>
      </trkpt>
      <trkpt lat="44.53155" lon="4.59459">
        <ele>296.79998779297</ele>
        <time>2021-10-02T13:41:53Z</time>
      </trkpt>
      <trkpt lat="44.53153" lon="4.59461">
        <ele>296.79998779297</ele>
        <time>2021-10-02T13:41:54Z</time>
      </trkpt>
      <trkpt lat="44.53152" lon="4.59462">
        <ele>296.79998779297</ele>
        <time>2021-10-02T13:41:55Z</time>
      </trkpt>
      <trkpt lat="44.5315" lon="4.59463">
        <ele>297</ele>
        <time>2021-10-02T13:41:56Z</time>
      </trkpt>
      <trkpt lat="44.53148" lon="4.59464">
        <ele>297.20001220703</ele>
        <time>2021-10-02T13:41:57Z</time>
      </trkpt>
      <trkpt lat="44.53146" lon="4.59465">
        <ele>298</ele>
        <time>2021-10-02T13:41:58Z</time>
      </trkpt>
      <trkpt lat="44.53144" lon="4.59467">
        <ele>298.39999389648</ele>
        <time>2021-10-02T13:41:59Z</time>
      </trkpt>
      <trkpt lat="44.53143" lon="4.59468">
        <ele>298.79998779297</ele>
        <time>2021-10-02T13:42:00Z</time>
      </trkpt>
      <trkpt lat="44.53141" lon="4.5947">
        <ele>298.79998779297</ele>
        <time>2021-10-02T13:42:01Z</time>
      </trkpt>
      <trkpt lat="44.53139" lon="4.59471">
        <ele>299.20001220703</ele>
        <time>2021-10-02T13:42:02Z</time>
      </trkpt>
      <trkpt lat="44.53138" lon="4.59473">
        <ele>299.20001220703</ele>
        <time>2021-10-02T13:42:03Z</time>
      </trkpt>
      <trkpt lat="44.53136" lon="4.59475">
        <ele>299.39999389648</ele>
        <time>2021-10-02T13:42:04Z</time>
      </trkpt>
      <trkpt lat="44.53135" lon="4.59477">
        <ele>299.79998779297</ele>
        <time>2021-10-02T13:42:05Z</time>
      </trkpt>
      <trkpt lat="44.53134" lon="4.5948">
        <ele>300</ele>
        <time>2021-10-02T13:42:06Z</time>
      </trkpt>
      <trkpt lat="44.53132" lon="4.59482">
        <ele>300.39999389648</ele>
        <time>2021-10-02T13:42:07Z</time>
      </trkpt>
      <trkpt lat="44.53131" lon="4.59484">
        <ele>300.79998779297</ele>
        <time>2021-10-02T13:42:08Z</time>
      </trkpt>
      <trkpt lat="44.53131" lon="4.59487">
        <ele>301</ele>
        <time>2021-10-02T13:42:09Z</time>
      </trkpt>
      <trkpt lat="44.5313" lon="4.59489">
        <ele>301.20001220703</ele>
        <time>2021-10-02T13:42:10Z</time>
      </trkpt>
      <trkpt lat="44.5313" lon="4.59492">
        <ele>301.60000610352</ele>
        <time>2021-10-02T13:42:11Z</time>
      </trkpt>
      <trkpt lat="44.5313" lon="4.59494">
        <ele>301.79998779297</ele>
        <time>2021-10-02T13:42:12Z</time>
      </trkpt>
      <trkpt lat="44.5313" lon="4.59497">
        <ele>302.20001220703</ele>
        <time>2021-10-02T13:42:13Z</time>
      </trkpt>
      <trkpt lat="44.5313" lon="4.595">
        <ele>302.60000610352</ele>
        <time>2021-10-02T13:42:14Z</time>
      </trkpt>
      <trkpt lat="44.5313" lon="4.59503">
        <ele>302.79998779297</ele>
        <time>2021-10-02T13:42:15Z</time>
      </trkpt>
      <trkpt lat="44.5313" lon="4.59506">
        <ele>303.20001220703</ele>
        <time>2021-10-02T13:42:16Z</time>
      </trkpt>
      <trkpt lat="44.5313" lon="4.59509">
        <ele>303.39999389648</ele>
        <time>2021-10-02T13:42:17Z</time>
      </trkpt>
      <trkpt lat="44.5313" lon="4.59512">
        <ele>303.39999389648</ele>
        <time>2021-10-02T13:42:18Z</time>
      </trkpt>
      <trkpt lat="44.53131" lon="4.59515">
        <ele>304</ele>
        <time>2021-10-02T13:42:19Z</time>
      </trkpt>
      <trkpt lat="44.53131" lon="4.59519">
        <ele>304.39999389648</ele>
        <time>2021-10-02T13:42:20Z</time>
      </trkpt>
      <trkpt lat="44.53131" lon="4.59522">
        <ele>304.79998779297</ele>
        <time>2021-10-02T13:42:21Z</time>
      </trkpt>
      <trkpt lat="44.53132" lon="4.59525">
        <ele>305</ele>
        <time>2021-10-02T13:42:22Z</time>
      </trkpt>
      <trkpt lat="44.53132" lon="4.59529">
        <ele>305.60000610352</ele>
        <time>2021-10-02T13:42:23Z</time>
      </trkpt>
      <trkpt lat="44.53132" lon="4.59532">
        <ele>305.79998779297</ele>
        <time>2021-10-02T13:42:24Z</time>
      </trkpt>
      <trkpt lat="44.53131" lon="4.59535">
        <ele>306</ele>
        <time>2021-10-02T13:42:25Z</time>
      </trkpt>
      <trkpt lat="44.5313" lon="4.59538">
        <ele>306.39999389648</ele>
        <time>2021-10-02T13:42:26Z</time>
      </trkpt>
      <trkpt lat="44.53129" lon="4.59542">
        <ele>306.39999389648</ele>
        <time>2021-10-02T13:42:27Z</time>
      </trkpt>
      <trkpt lat="44.53128" lon="4.59546">
        <ele>306.79998779297</ele>
        <time>2021-10-02T13:42:28Z</time>
      </trkpt>
      <trkpt lat="44.53128" lon="4.59549">
        <ele>307.20001220703</ele>
        <time>2021-10-02T13:42:29Z</time>
      </trkpt>
      <trkpt lat="44.53127" lon="4.59553">
        <ele>307.39999389648</ele>
        <time>2021-10-02T13:42:30Z</time>
      </trkpt>
      <trkpt lat="44.53126" lon="4.59557">
        <ele>307.60000610352</ele>
        <time>2021-10-02T13:42:31Z</time>
      </trkpt>
      <trkpt lat="44.53125" lon="4.59561">
        <ele>307.60000610352</ele>
        <time>2021-10-02T13:42:32Z</time>
      </trkpt>
      <trkpt lat="44.53124" lon="4.59565">
        <ele>307.79998779297</ele>
        <time>2021-10-02T13:42:33Z</time>
      </trkpt>
      <trkpt lat="44.53122" lon="4.59569">
        <ele>307.60000610352</ele>
        <time>2021-10-02T13:42:34Z</time>
      </trkpt>
      <trkpt lat="44.53121" lon="4.59573">
        <ele>308</ele>
        <time>2021-10-02T13:42:35Z</time>
      </trkpt>
      <trkpt lat="44.53119" lon="4.59577">
        <ele>308</ele>
        <time>2021-10-02T13:42:36Z</time>
      </trkpt>
      <trkpt lat="44.53118" lon="4.5958">
        <ele>308</ele>
        <time>2021-10-02T13:42:37Z</time>
      </trkpt>
      <trkpt lat="44.53116" lon="4.59584">
        <ele>308</ele>
        <time>2021-10-02T13:42:38Z</time>
      </trkpt>
      <trkpt lat="44.53114" lon="4.59588">
        <ele>308</ele>
        <time>2021-10-02T13:42:39Z</time>
      </trkpt>
      <trkpt lat="44.53112" lon="4.59591">
        <ele>308</ele>
        <time>2021-10-02T13:42:40Z</time>
      </trkpt>
      <trkpt lat="44.5311" lon="4.59595">
        <ele>308</ele>
        <time>2021-10-02T13:42:41Z</time>
      </trkpt>
      <trkpt lat="44.53108" lon="4.59598">
        <ele>308.20001220703</ele>
        <time>2021-10-02T13:42:42Z</time>
      </trkpt>
      <trkpt lat="44.53106" lon="4.59602">
        <ele>308.20001220703</ele>
        <time>2021-10-02T13:42:43Z</time>
      </trkpt>
      <trkpt lat="44.53102" lon="4.59609">
        <ele>308.20001220703</ele>
        <time>2021-10-02T13:42:45Z</time>
      </trkpt>
      <trkpt lat="44.53093" lon="4.59623">
        <ele>308.20001220703</ele>
        <time>2021-10-02T13:42:49Z</time>
      </trkpt>
      <trkpt lat="44.53091" lon="4.59627">
        <ele>308.39999389648</ele>
        <time>2021-10-02T13:42:50Z</time>
      </trkpt>
      <trkpt lat="44.53089" lon="4.5963">
        <ele>308.39999389648</ele>
        <time>2021-10-02T13:42:51Z</time>
      </trkpt>
      <trkpt lat="44.53087" lon="4.59633">
        <ele>308.39999389648</ele>
        <time>2021-10-02T13:42:52Z</time>
      </trkpt>
      <trkpt lat="44.53085" lon="4.59636">
        <ele>308.60000610352</ele>
        <time>2021-10-02T13:42:53Z</time>
      </trkpt>
      <trkpt lat="44.53083" lon="4.59639">
        <ele>308.79998779297</ele>
        <time>2021-10-02T13:42:54Z</time>
      </trkpt>
      <trkpt lat="44.53081" lon="4.59642">
        <ele>308.79998779297</ele>
        <time>2021-10-02T13:42:55Z</time>
      </trkpt>
      <trkpt lat="44.5308" lon="4.59645">
        <ele>308.79998779297</ele>
        <time>2021-10-02T13:42:56Z</time>
      </trkpt>
      <trkpt lat="44.53078" lon="4.59648">
        <ele>309</ele>
        <time>2021-10-02T13:42:57Z</time>
      </trkpt>
      <trkpt lat="44.53075" lon="4.5965">
        <ele>309</ele>
        <time>2021-10-02T13:42:58Z</time>
      </trkpt>
      <trkpt lat="44.53073" lon="4.59652">
        <ele>309</ele>
        <time>2021-10-02T13:42:59Z</time>
      </trkpt>
      <trkpt lat="44.53071" lon="4.59654">
        <ele>309.79998779297</ele>
        <time>2021-10-02T13:43:00Z</time>
      </trkpt>
      <trkpt lat="44.53069" lon="4.59656">
        <ele>310.20001220703</ele>
        <time>2021-10-02T13:43:01Z</time>
      </trkpt>
      <trkpt lat="44.53066" lon="4.59657">
        <ele>310.39999389648</ele>
        <time>2021-10-02T13:43:02Z</time>
      </trkpt>
      <trkpt lat="44.53064" lon="4.59659">
        <ele>310.39999389648</ele>
        <time>2021-10-02T13:43:03Z</time>
      </trkpt>
      <trkpt lat="44.53062" lon="4.5966">
        <ele>310.79998779297</ele>
        <time>2021-10-02T13:43:04Z</time>
      </trkpt>
      <trkpt lat="44.5306" lon="4.59662">
        <ele>310.79998779297</ele>
        <time>2021-10-02T13:43:05Z</time>
      </trkpt>
      <trkpt lat="44.53058" lon="4.59664">
        <ele>311.20001220703</ele>
        <time>2021-10-02T13:43:06Z</time>
      </trkpt>
      <trkpt lat="44.53055" lon="4.59666">
        <ele>311.39999389648</ele>
        <time>2021-10-02T13:43:07Z</time>
      </trkpt>
      <trkpt lat="44.53053" lon="4.59667">
        <ele>311.79998779297</ele>
        <time>2021-10-02T13:43:08Z</time>
      </trkpt>
      <trkpt lat="44.53052" lon="4.59669">
        <ele>312.20001220703</ele>
        <time>2021-10-02T13:43:09Z</time>
      </trkpt>
      <trkpt lat="44.5305" lon="4.59671">
        <ele>312.39999389648</ele>
        <time>2021-10-02T13:43:10Z</time>
      </trkpt>
      <trkpt lat="44.53048" lon="4.59673">
        <ele>312.60000610352</ele>
        <time>2021-10-02T13:43:11Z</time>
      </trkpt>
      <trkpt lat="44.53047" lon="4.59675">
        <ele>312.79998779297</ele>
        <time>2021-10-02T13:43:12Z</time>
      </trkpt>
      <trkpt lat="44.53045" lon="4.59677">
        <ele>312.79998779297</ele>
        <time>2021-10-02T13:43:13Z</time>
      </trkpt>
      <trkpt lat="44.53044" lon="4.59679">
        <ele>313.20001220703</ele>
        <time>2021-10-02T13:43:14Z</time>
      </trkpt>
      <trkpt lat="44.53043" lon="4.59681">
        <ele>313.60000610352</ele>
        <time>2021-10-02T13:43:15Z</time>
      </trkpt>
      <trkpt lat="44.53042" lon="4.59684">
        <ele>313.79998779297</ele>
        <time>2021-10-02T13:43:16Z</time>
      </trkpt>
      <trkpt lat="44.53041" lon="4.59686">
        <ele>314.20001220703</ele>
        <time>2021-10-02T13:43:17Z</time>
      </trkpt>
      <trkpt lat="44.5304" lon="4.59688">
        <ele>314.39999389648</ele>
        <time>2021-10-02T13:43:18Z</time>
      </trkpt>
      <trkpt lat="44.53038" lon="4.5969">
        <ele>314.79998779297</ele>
        <time>2021-10-02T13:43:19Z</time>
      </trkpt>
      <trkpt lat="44.53037" lon="4.59692">
        <ele>315</ele>
        <time>2021-10-02T13:43:20Z</time>
      </trkpt>
      <trkpt lat="44.53036" lon="4.59694">
        <ele>315.39999389648</ele>
        <time>2021-10-02T13:43:21Z</time>
      </trkpt>
      <trkpt lat="44.53035" lon="4.59696">
        <ele>316</ele>
        <time>2021-10-02T13:43:22Z</time>
      </trkpt>
      <trkpt lat="44.53034" lon="4.59698">
        <ele>316.20001220703</ele>
        <time>2021-10-02T13:43:23Z</time>
      </trkpt>
      <trkpt lat="44.53033" lon="4.59701">
        <ele>316.60000610352</ele>
        <time>2021-10-02T13:43:24Z</time>
      </trkpt>
      <trkpt lat="44.53032" lon="4.59703">
        <ele>316.60000610352</ele>
        <time>2021-10-02T13:43:25Z</time>
      </trkpt>
      <trkpt lat="44.53031" lon="4.59705">
        <ele>317.20001220703</ele>
        <time>2021-10-02T13:43:26Z</time>
      </trkpt>
      <trkpt lat="44.53029" lon="4.59708">
        <ele>317.79998779297</ele>
        <time>2021-10-02T13:43:27Z</time>
      </trkpt>
      <trkpt lat="44.53028" lon="4.5971">
        <ele>318.39999389648</ele>
        <time>2021-10-02T13:43:28Z</time>
      </trkpt>
      <trkpt lat="44.53027" lon="4.59712">
        <ele>318.79998779297</ele>
        <time>2021-10-02T13:43:29Z</time>
      </trkpt>
      <trkpt lat="44.53026" lon="4.59714">
        <ele>319.20001220703</ele>
        <time>2021-10-02T13:43:30Z</time>
      </trkpt>
      <trkpt lat="44.53024" lon="4.59716">
        <ele>319.60000610352</ele>
        <time>2021-10-02T13:43:31Z</time>
      </trkpt>
      <trkpt lat="44.53023" lon="4.59718">
        <ele>319.79998779297</ele>
        <time>2021-10-02T13:43:32Z</time>
      </trkpt>
      <trkpt lat="44.53022" lon="4.5972">
        <ele>320.20001220703</ele>
        <time>2021-10-02T13:43:33Z</time>
      </trkpt>
      <trkpt lat="44.5302" lon="4.59722">
        <ele>320.60000610352</ele>
        <time>2021-10-02T13:43:34Z</time>
      </trkpt>
      <trkpt lat="44.53019" lon="4.59724">
        <ele>321</ele>
        <time>2021-10-02T13:43:35Z</time>
      </trkpt>
      <trkpt lat="44.53017" lon="4.59725">
        <ele>321.39999389648</ele>
        <time>2021-10-02T13:43:36Z</time>
      </trkpt>
      <trkpt lat="44.53016" lon="4.59727">
        <ele>321.60000610352</ele>
        <time>2021-10-02T13:43:37Z</time>
      </trkpt>
      <trkpt lat="44.53014" lon="4.59728">
        <ele>322</ele>
        <time>2021-10-02T13:43:38Z</time>
      </trkpt>
      <trkpt lat="44.53012" lon="4.59729">
        <ele>322.39999389648</ele>
        <time>2021-10-02T13:43:39Z</time>
      </trkpt>
      <trkpt lat="44.5301" lon="4.5973">
        <ele>322.60000610352</ele>
        <time>2021-10-02T13:43:40Z</time>
      </trkpt>
      <trkpt lat="44.53008" lon="4.59731">
        <ele>322.79998779297</ele>
        <time>2021-10-02T13:43:41Z</time>
      </trkpt>
      <trkpt lat="44.53007" lon="4.59732">
        <ele>323</ele>
        <time>2021-10-02T13:43:42Z</time>
      </trkpt>
      <trkpt lat="44.53005" lon="4.59734">
        <ele>323.39999389648</ele>
        <time>2021-10-02T13:43:43Z</time>
      </trkpt>
      <trkpt lat="44.53003" lon="4.59735">
        <ele>323.60000610352</ele>
        <time>2021-10-02T13:43:44Z</time>
      </trkpt>
      <trkpt lat="44.53001" lon="4.59738">
        <ele>323.79998779297</ele>
        <time>2021-10-02T13:43:45Z</time>
      </trkpt>
      <trkpt lat="44.53" lon="4.5974">
        <ele>324</ele>
        <time>2021-10-02T13:43:46Z</time>
      </trkpt>
      <trkpt lat="44.52998" lon="4.59742">
        <ele>324.39999389648</ele>
        <time>2021-10-02T13:43:47Z</time>
      </trkpt>
      <trkpt lat="44.52997" lon="4.59744">
        <ele>324.39999389648</ele>
        <time>2021-10-02T13:43:48Z</time>
      </trkpt>
      <trkpt lat="44.52996" lon="4.59746">
        <ele>324.60000610352</ele>
        <time>2021-10-02T13:43:49Z</time>
      </trkpt>
      <trkpt lat="44.52994" lon="4.59749">
        <ele>325</ele>
        <time>2021-10-02T13:43:50Z</time>
      </trkpt>
      <trkpt lat="44.52992" lon="4.59751">
        <ele>325.20001220703</ele>
        <time>2021-10-02T13:43:51Z</time>
      </trkpt>
      <trkpt lat="44.52991" lon="4.59753">
        <ele>325.20001220703</ele>
        <time>2021-10-02T13:43:52Z</time>
      </trkpt>
      <trkpt lat="44.52989" lon="4.59755">
        <ele>325.60000610352</ele>
        <time>2021-10-02T13:43:53Z</time>
      </trkpt>
      <trkpt lat="44.52987" lon="4.59757">
        <ele>325.79998779297</ele>
        <time>2021-10-02T13:43:54Z</time>
      </trkpt>
      <trkpt lat="44.52986" lon="4.59759">
        <ele>326.20001220703</ele>
        <time>2021-10-02T13:43:55Z</time>
      </trkpt>
      <trkpt lat="44.52984" lon="4.59761">
        <ele>326.39999389648</ele>
        <time>2021-10-02T13:43:56Z</time>
      </trkpt>
      <trkpt lat="44.52984" lon="4.59764">
        <ele>326.39999389648</ele>
        <time>2021-10-02T13:43:57Z</time>
      </trkpt>
      <trkpt lat="44.52983" lon="4.59767">
        <ele>326.60000610352</ele>
        <time>2021-10-02T13:43:58Z</time>
      </trkpt>
      <trkpt lat="44.52983" lon="4.5977">
        <ele>326.79998779297</ele>
        <time>2021-10-02T13:43:59Z</time>
      </trkpt>
      <trkpt lat="44.52983" lon="4.59773">
        <ele>327</ele>
        <time>2021-10-02T13:44:00Z</time>
      </trkpt>
      <trkpt lat="44.52982" lon="4.59776">
        <ele>327.20001220703</ele>
        <time>2021-10-02T13:44:01Z</time>
      </trkpt>
      <trkpt lat="44.52982" lon="4.59779">
        <ele>327.39999389648</ele>
        <time>2021-10-02T13:44:02Z</time>
      </trkpt>
      <trkpt lat="44.52982" lon="4.59782">
        <ele>327.60000610352</ele>
        <time>2021-10-02T13:44:03Z</time>
      </trkpt>
      <trkpt lat="44.52981" lon="4.59785">
        <ele>328</ele>
        <time>2021-10-02T13:44:04Z</time>
      </trkpt>
      <trkpt lat="44.52981" lon="4.59787">
        <ele>328.39999389648</ele>
        <time>2021-10-02T13:44:05Z</time>
      </trkpt>
      <trkpt lat="44.52981" lon="4.5979">
        <ele>328.60000610352</ele>
        <time>2021-10-02T13:44:06Z</time>
      </trkpt>
      <trkpt lat="44.5298" lon="4.59793">
        <ele>328.60000610352</ele>
        <time>2021-10-02T13:44:07Z</time>
      </trkpt>
      <trkpt lat="44.52979" lon="4.59797">
        <ele>328.79998779297</ele>
        <time>2021-10-02T13:44:08Z</time>
      </trkpt>
      <trkpt lat="44.52978" lon="4.59801">
        <ele>328.79998779297</ele>
        <time>2021-10-02T13:44:09Z</time>
      </trkpt>
      <trkpt lat="44.52977" lon="4.59805">
        <ele>329</ele>
        <time>2021-10-02T13:44:10Z</time>
      </trkpt>
      <trkpt lat="44.52975" lon="4.5981">
        <ele>329</ele>
        <time>2021-10-02T13:44:11Z</time>
      </trkpt>
      <trkpt lat="44.52974" lon="4.59814">
        <ele>328.79998779297</ele>
        <time>2021-10-02T13:44:12Z</time>
      </trkpt>
      <trkpt lat="44.52973" lon="4.59817">
        <ele>329</ele>
        <time>2021-10-02T13:44:13Z</time>
      </trkpt>
      <trkpt lat="44.52971" lon="4.5982">
        <ele>329</ele>
        <time>2021-10-02T13:44:14Z</time>
      </trkpt>
      <trkpt lat="44.5297" lon="4.59824">
        <ele>329.20001220703</ele>
        <time>2021-10-02T13:44:15Z</time>
      </trkpt>
      <trkpt lat="44.52969" lon="4.59826">
        <ele>329.20001220703</ele>
        <time>2021-10-02T13:44:16Z</time>
      </trkpt>
      <trkpt lat="44.52969" lon="4.5983">
        <ele>329.20001220703</ele>
        <time>2021-10-02T13:44:17Z</time>
      </trkpt>
      <trkpt lat="44.52968" lon="4.59833">
        <ele>329.20001220703</ele>
        <time>2021-10-02T13:44:18Z</time>
      </trkpt>
      <trkpt lat="44.52968" lon="4.59836">
        <ele>329.39999389648</ele>
        <time>2021-10-02T13:44:19Z</time>
      </trkpt>
      <trkpt lat="44.52967" lon="4.5984">
        <ele>329.39999389648</ele>
        <time>2021-10-02T13:44:20Z</time>
      </trkpt>
      <trkpt lat="44.52966" lon="4.59843">
        <ele>329.39999389648</ele>
        <time>2021-10-02T13:44:21Z</time>
      </trkpt>
      <trkpt lat="44.52964" lon="4.59846">
        <ele>329.20001220703</ele>
        <time>2021-10-02T13:44:22Z</time>
      </trkpt>
      <trkpt lat="44.52963" lon="4.59849">
        <ele>329.20001220703</ele>
        <time>2021-10-02T13:44:23Z</time>
      </trkpt>
      <trkpt lat="44.52964" lon="4.59857">
        <ele>329.20001220703</ele>
        <time>2021-10-02T13:44:25Z</time>
      </trkpt>
      <trkpt lat="44.52966" lon="4.59861">
        <ele>329.39999389648</ele>
        <time>2021-10-02T13:44:26Z</time>
      </trkpt>
      <trkpt lat="44.52968" lon="4.59867">
        <ele>329.20001220703</ele>
        <time>2021-10-02T13:44:27Z</time>
      </trkpt>
      <trkpt lat="44.52975" lon="4.59883">
        <ele>329.39999389648</ele>
        <time>2021-10-02T13:44:30Z</time>
      </trkpt>
      <trkpt lat="44.52977" lon="4.59888">
        <ele>329.20001220703</ele>
        <time>2021-10-02T13:44:31Z</time>
      </trkpt>
      <trkpt lat="44.5298" lon="4.59893">
        <ele>329.20001220703</ele>
        <time>2021-10-02T13:44:32Z</time>
      </trkpt>
      <trkpt lat="44.52987" lon="4.59902">
        <ele>329</ele>
        <time>2021-10-02T13:44:34Z</time>
      </trkpt>
      <trkpt lat="44.52996" lon="4.59926">
        <ele>327.20001220703</ele>
        <time>2021-10-02T13:44:38Z</time>
      </trkpt>
      <trkpt lat="44.52998" lon="4.5993">
        <ele>326.79998779297</ele>
        <time>2021-10-02T13:44:39Z</time>
      </trkpt>
      <trkpt lat="44.53" lon="4.59935">
        <ele>326.20001220703</ele>
        <time>2021-10-02T13:44:40Z</time>
      </trkpt>
      <trkpt lat="44.53001" lon="4.5994">
        <ele>326</ele>
        <time>2021-10-02T13:44:41Z</time>
      </trkpt>
      <trkpt lat="44.53001" lon="4.59945">
        <ele>325.20001220703</ele>
        <time>2021-10-02T13:44:42Z</time>
      </trkpt>
      <trkpt lat="44.53" lon="4.5995">
        <ele>324.39999389648</ele>
        <time>2021-10-02T13:44:43Z</time>
      </trkpt>
      <trkpt lat="44.52999" lon="4.59955">
        <ele>324.20001220703</ele>
        <time>2021-10-02T13:44:44Z</time>
      </trkpt>
      <trkpt lat="44.52998" lon="4.5996">
        <ele>324</ele>
        <time>2021-10-02T13:44:45Z</time>
      </trkpt>
      <trkpt lat="44.52997" lon="4.59967">
        <ele>323.39999389648</ele>
        <time>2021-10-02T13:44:46Z</time>
      </trkpt>
      <trkpt lat="44.52998" lon="4.59973">
        <ele>323.20001220703</ele>
        <time>2021-10-02T13:44:47Z</time>
      </trkpt>
      <trkpt lat="44.52998" lon="4.59979">
        <ele>322.79998779297</ele>
        <time>2021-10-02T13:44:48Z</time>
      </trkpt>
      <trkpt lat="44.52998" lon="4.59985">
        <ele>322</ele>
        <time>2021-10-02T13:44:49Z</time>
      </trkpt>
      <trkpt lat="44.52996" lon="4.59996">
        <ele>321.39999389648</ele>
        <time>2021-10-02T13:44:51Z</time>
      </trkpt>
      <trkpt lat="44.52994" lon="4.60001">
        <ele>321.20001220703</ele>
        <time>2021-10-02T13:44:52Z</time>
      </trkpt>
      <trkpt lat="44.5299" lon="4.60006">
        <ele>321.20001220703</ele>
        <time>2021-10-02T13:44:53Z</time>
      </trkpt>
      <trkpt lat="44.52987" lon="4.60012">
        <ele>320.79998779297</ele>
        <time>2021-10-02T13:44:54Z</time>
      </trkpt>
      <trkpt lat="44.52984" lon="4.60017">
        <ele>320.60000610352</ele>
        <time>2021-10-02T13:44:55Z</time>
      </trkpt>
      <trkpt lat="44.5298" lon="4.60022">
        <ele>320.60000610352</ele>
        <time>2021-10-02T13:44:56Z</time>
      </trkpt>
      <trkpt lat="44.52978" lon="4.60026">
        <ele>320.39999389648</ele>
        <time>2021-10-02T13:44:57Z</time>
      </trkpt>
      <trkpt lat="44.52976" lon="4.60032">
        <ele>320</ele>
        <time>2021-10-02T13:44:58Z</time>
      </trkpt>
      <trkpt lat="44.52975" lon="4.60038">
        <ele>319.60000610352</ele>
        <time>2021-10-02T13:44:59Z</time>
      </trkpt>
      <trkpt lat="44.52975" lon="4.60043">
        <ele>319.20001220703</ele>
        <time>2021-10-02T13:45:00Z</time>
      </trkpt>
      <trkpt lat="44.52975" lon="4.60049">
        <ele>318.60000610352</ele>
        <time>2021-10-02T13:45:01Z</time>
      </trkpt>
      <trkpt lat="44.52974" lon="4.60055">
        <ele>318</ele>
        <time>2021-10-02T13:45:02Z</time>
      </trkpt>
      <trkpt lat="44.52973" lon="4.6006">
        <ele>317.20001220703</ele>
        <time>2021-10-02T13:45:03Z</time>
      </trkpt>
      <trkpt lat="44.52971" lon="4.60064">
        <ele>316.60000610352</ele>
        <time>2021-10-02T13:45:04Z</time>
      </trkpt>
      <trkpt lat="44.52969" lon="4.60069">
        <ele>315.39999389648</ele>
        <time>2021-10-02T13:45:05Z</time>
      </trkpt>
      <trkpt lat="44.52967" lon="4.60074">
        <ele>314.79998779297</ele>
        <time>2021-10-02T13:45:06Z</time>
      </trkpt>
      <trkpt lat="44.52966" lon="4.60079">
        <ele>314</ele>
        <time>2021-10-02T13:45:07Z</time>
      </trkpt>
      <trkpt lat="44.52965" lon="4.60084">
        <ele>313.39999389648</ele>
        <time>2021-10-02T13:45:08Z</time>
      </trkpt>
      <trkpt lat="44.52964" lon="4.60089">
        <ele>312.79998779297</ele>
        <time>2021-10-02T13:45:09Z</time>
      </trkpt>
      <trkpt lat="44.52956" lon="4.60114">
        <ele>311.20001220703</ele>
        <time>2021-10-02T13:45:14Z</time>
      </trkpt>
      <trkpt lat="44.52954" lon="4.60119">
        <ele>311</ele>
        <time>2021-10-02T13:45:15Z</time>
      </trkpt>
      <trkpt lat="44.52952" lon="4.60123">
        <ele>311</ele>
        <time>2021-10-02T13:45:16Z</time>
      </trkpt>
      <trkpt lat="44.5295" lon="4.60126">
        <ele>311</ele>
        <time>2021-10-02T13:45:17Z</time>
      </trkpt>
      <trkpt lat="44.52948" lon="4.6013">
        <ele>311</ele>
        <time>2021-10-02T13:45:18Z</time>
      </trkpt>
      <trkpt lat="44.52946" lon="4.6014">
        <ele>311</ele>
        <time>2021-10-02T13:45:20Z</time>
      </trkpt>
      <trkpt lat="44.52939" lon="4.60161">
        <ele>311</ele>
        <time>2021-10-02T13:45:24Z</time>
      </trkpt>
      <trkpt lat="44.52938" lon="4.60165">
        <ele>310.79998779297</ele>
        <time>2021-10-02T13:45:25Z</time>
      </trkpt>
      <trkpt lat="44.52936" lon="4.6017">
        <ele>311</ele>
        <time>2021-10-02T13:45:26Z</time>
      </trkpt>
      <trkpt lat="44.52936" lon="4.60175">
        <ele>311</ele>
        <time>2021-10-02T13:45:27Z</time>
      </trkpt>
      <trkpt lat="44.52935" lon="4.6018">
        <ele>311.20001220703</ele>
        <time>2021-10-02T13:45:28Z</time>
      </trkpt>
      <trkpt lat="44.52932" lon="4.60195">
        <ele>311.39999389648</ele>
        <time>2021-10-02T13:45:31Z</time>
      </trkpt>
      <trkpt lat="44.52931" lon="4.60199">
        <ele>311.60000610352</ele>
        <time>2021-10-02T13:45:32Z</time>
      </trkpt>
      <trkpt lat="44.52931" lon="4.60204">
        <ele>311.60000610352</ele>
        <time>2021-10-02T13:45:33Z</time>
      </trkpt>
      <trkpt lat="44.52931" lon="4.60209">
        <ele>311.79998779297</ele>
        <time>2021-10-02T13:45:34Z</time>
      </trkpt>
      <trkpt lat="44.52931" lon="4.60213">
        <ele>311.79998779297</ele>
        <time>2021-10-02T13:45:35Z</time>
      </trkpt>
      <trkpt lat="44.52932" lon="4.60216">
        <ele>312</ele>
        <time>2021-10-02T13:45:36Z</time>
      </trkpt>
      <trkpt lat="44.52932" lon="4.60218">
        <ele>312</ele>
        <time>2021-10-02T13:45:37Z</time>
      </trkpt>
      <trkpt lat="44.52932" lon="4.6022">
        <ele>312.20001220703</ele>
        <time>2021-10-02T13:45:38Z</time>
      </trkpt>
      <trkpt lat="44.52933" lon="4.60221">
        <ele>312.60000610352</ele>
        <time>2021-10-02T13:45:39Z</time>
      </trkpt>
      <trkpt lat="44.52933" lon="4.60222">
        <ele>312.79998779297</ele>
        <time>2021-10-02T13:45:40Z</time>
      </trkpt>
      <trkpt lat="44.52933" lon="4.60222">
        <ele>313.39999389648</ele>
        <time>2021-10-02T13:45:43Z</time>
      </trkpt>
      <trkpt lat="44.52933" lon="4.60222">
        <ele>314.60000610352</ele>
        <time>2021-10-02T13:45:54Z</time>
      </trkpt>
      <trkpt lat="44.52933" lon="4.60222">
        <ele>314.60000610352</ele>
        <time>2021-10-02T13:45:57Z</time>
      </trkpt>
      <trkpt lat="44.52933" lon="4.60222">
        <ele>314.60000610352</ele>
        <time>2021-10-02T13:45:58Z</time>
      </trkpt>
      <trkpt lat="44.52933" lon="4.60222">
        <ele>314.60000610352</ele>
        <time>2021-10-02T13:45:59Z</time>
      </trkpt>
      <trkpt lat="44.52933" lon="4.60222">
        <ele>314.60000610352</ele>
        <time>2021-10-02T13:46:00Z</time>
      </trkpt>
      <trkpt lat="44.52933" lon="4.60221">
        <ele>314.60000610352</ele>
        <time>2021-10-02T13:46:01Z</time>
      </trkpt>
      <trkpt lat="44.52933" lon="4.60221">
        <ele>314.60000610352</ele>
        <time>2021-10-02T13:46:02Z</time>
      </trkpt>
      <trkpt lat="44.52933" lon="4.60221">
        <ele>314.60000610352</ele>
        <time>2021-10-02T13:46:03Z</time>
      </trkpt>
      <trkpt lat="44.52933" lon="4.60221">
        <ele>314.60000610352</ele>
        <time>2021-10-02T13:46:05Z</time>
      </trkpt>
      <trkpt lat="44.52933" lon="4.60224">
        <ele>314.60000610352</ele>
        <time>2021-10-02T13:46:10Z</time>
      </trkpt>
      <trkpt lat="44.52935" lon="4.60226">
        <ele>314.60000610352</ele>
        <time>2021-10-02T13:46:11Z</time>
      </trkpt>
      <trkpt lat="44.52935" lon="4.60226">
        <ele>314.60000610352</ele>
        <time>2021-10-02T13:46:12Z</time>
      </trkpt>
      <trkpt lat="44.52935" lon="4.60226">
        <ele>314.39999389648</ele>
        <time>2021-10-02T13:46:16Z</time>
      </trkpt>
      <trkpt lat="44.52936" lon="4.60227">
        <ele>314.20001220703</ele>
        <time>2021-10-02T13:46:20Z</time>
      </trkpt>
      <trkpt lat="44.52939" lon="4.60232">
        <ele>314.20001220703</ele>
        <time>2021-10-02T13:46:22Z</time>
      </trkpt>
      <trkpt lat="44.52941" lon="4.60235">
        <ele>314.20001220703</ele>
        <time>2021-10-02T13:46:23Z</time>
      </trkpt>
      <trkpt lat="44.52944" lon="4.60243">
        <ele>314.20001220703</ele>
        <time>2021-10-02T13:46:25Z</time>
      </trkpt>
      <trkpt lat="44.52946" lon="4.60248">
        <ele>314.20001220703</ele>
        <time>2021-10-02T13:46:26Z</time>
      </trkpt>
      <trkpt lat="44.52947" lon="4.60252">
        <ele>314.20001220703</ele>
        <time>2021-10-02T13:46:27Z</time>
      </trkpt>
      <trkpt lat="44.52949" lon="4.60256">
        <ele>314.20001220703</ele>
        <time>2021-10-02T13:46:28Z</time>
      </trkpt>
      <trkpt lat="44.52952" lon="4.60259">
        <ele>314.20001220703</ele>
        <time>2021-10-02T13:46:29Z</time>
      </trkpt>
      <trkpt lat="44.52954" lon="4.60263">
        <ele>314.20001220703</ele>
        <time>2021-10-02T13:46:30Z</time>
      </trkpt>
      <trkpt lat="44.52959" lon="4.60272">
        <ele>314</ele>
        <time>2021-10-02T13:46:32Z</time>
      </trkpt>
      <trkpt lat="44.52963" lon="4.60281">
        <ele>313.79998779297</ele>
        <time>2021-10-02T13:46:34Z</time>
      </trkpt>
      <trkpt lat="44.5297" lon="4.60297">
        <ele>313.20001220703</ele>
        <time>2021-10-02T13:46:37Z</time>
      </trkpt>
      <trkpt lat="44.52973" lon="4.60302">
        <ele>313.20001220703</ele>
        <time>2021-10-02T13:46:38Z</time>
      </trkpt>
      <trkpt lat="44.52976" lon="4.60308">
        <ele>312.79998779297</ele>
        <time>2021-10-02T13:46:39Z</time>
      </trkpt>
      <trkpt lat="44.5298" lon="4.60314">
        <ele>313</ele>
        <time>2021-10-02T13:46:40Z</time>
      </trkpt>
      <trkpt lat="44.52983" lon="4.60321">
        <ele>312.79998779297</ele>
        <time>2021-10-02T13:46:41Z</time>
      </trkpt>
      <trkpt lat="44.52987" lon="4.60334">
        <ele>312.39999389648</ele>
        <time>2021-10-02T13:46:43Z</time>
      </trkpt>
      <trkpt lat="44.52987" lon="4.6034">
        <ele>312</ele>
        <time>2021-10-02T13:46:44Z</time>
      </trkpt>
      <trkpt lat="44.52987" lon="4.60347">
        <ele>311.79998779297</ele>
        <time>2021-10-02T13:46:45Z</time>
      </trkpt>
      <trkpt lat="44.52986" lon="4.60355">
        <ele>311.20001220703</ele>
        <time>2021-10-02T13:46:46Z</time>
      </trkpt>
      <trkpt lat="44.52984" lon="4.60363">
        <ele>310.60000610352</ele>
        <time>2021-10-02T13:46:47Z</time>
      </trkpt>
      <trkpt lat="44.52981" lon="4.60371">
        <ele>310</ele>
        <time>2021-10-02T13:46:48Z</time>
      </trkpt>
      <trkpt lat="44.52978" lon="4.60378">
        <ele>310</ele>
        <time>2021-10-02T13:46:49Z</time>
      </trkpt>
      <trkpt lat="44.52973" lon="4.60385">
        <ele>309.39999389648</ele>
        <time>2021-10-02T13:46:50Z</time>
      </trkpt>
      <trkpt lat="44.52968" lon="4.60391">
        <ele>308.39999389648</ele>
        <time>2021-10-02T13:46:51Z</time>
      </trkpt>
      <trkpt lat="44.52962" lon="4.60398">
        <ele>307.39999389648</ele>
        <time>2021-10-02T13:46:52Z</time>
      </trkpt>
      <trkpt lat="44.52957" lon="4.60404">
        <ele>306.79998779297</ele>
        <time>2021-10-02T13:46:53Z</time>
      </trkpt>
      <trkpt lat="44.52951" lon="4.60411">
        <ele>306</ele>
        <time>2021-10-02T13:46:54Z</time>
      </trkpt>
      <trkpt lat="44.52941" lon="4.60426">
        <ele>304.39999389648</ele>
        <time>2021-10-02T13:46:56Z</time>
      </trkpt>
      <trkpt lat="44.52937" lon="4.60434">
        <ele>303.60000610352</ele>
        <time>2021-10-02T13:46:57Z</time>
      </trkpt>
      <trkpt lat="44.52932" lon="4.60443">
        <ele>302.60000610352</ele>
        <time>2021-10-02T13:46:58Z</time>
      </trkpt>
      <trkpt lat="44.52929" lon="4.60451">
        <ele>301.39999389648</ele>
        <time>2021-10-02T13:46:59Z</time>
      </trkpt>
      <trkpt lat="44.52927" lon="4.60457">
        <ele>300.79998779297</ele>
        <time>2021-10-02T13:47:00Z</time>
      </trkpt>
      <trkpt lat="44.52927" lon="4.60463">
        <ele>299.79998779297</ele>
        <time>2021-10-02T13:47:01Z</time>
      </trkpt>
      <trkpt lat="44.52928" lon="4.60468">
        <ele>299</ele>
        <time>2021-10-02T13:47:02Z</time>
      </trkpt>
      <trkpt lat="44.52927" lon="4.60474">
        <ele>297.79998779297</ele>
        <time>2021-10-02T13:47:03Z</time>
      </trkpt>
      <trkpt lat="44.52926" lon="4.60479">
        <ele>297.20001220703</ele>
        <time>2021-10-02T13:47:04Z</time>
      </trkpt>
      <trkpt lat="44.52924" lon="4.60484">
        <ele>296.39999389648</ele>
        <time>2021-10-02T13:47:05Z</time>
      </trkpt>
      <trkpt lat="44.52921" lon="4.6049">
        <ele>295.79998779297</ele>
        <time>2021-10-02T13:47:06Z</time>
      </trkpt>
      <trkpt lat="44.52919" lon="4.60497">
        <ele>294.60000610352</ele>
        <time>2021-10-02T13:47:07Z</time>
      </trkpt>
      <trkpt lat="44.52917" lon="4.60505">
        <ele>293.39999389648</ele>
        <time>2021-10-02T13:47:08Z</time>
      </trkpt>
      <trkpt lat="44.52914" lon="4.60512">
        <ele>292.60000610352</ele>
        <time>2021-10-02T13:47:09Z</time>
      </trkpt>
      <trkpt lat="44.52907" lon="4.60526">
        <ele>291.60000610352</ele>
        <time>2021-10-02T13:47:11Z</time>
      </trkpt>
      <trkpt lat="44.529" lon="4.60539">
        <ele>291.39999389648</ele>
        <time>2021-10-02T13:47:13Z</time>
      </trkpt>
      <trkpt lat="44.52897" lon="4.60545">
        <ele>291</ele>
        <time>2021-10-02T13:47:14Z</time>
      </trkpt>
      <trkpt lat="44.52894" lon="4.60551">
        <ele>291</ele>
        <time>2021-10-02T13:47:15Z</time>
      </trkpt>
      <trkpt lat="44.5289" lon="4.60557">
        <ele>291</ele>
        <time>2021-10-02T13:47:16Z</time>
      </trkpt>
      <trkpt lat="44.52887" lon="4.60563">
        <ele>291</ele>
        <time>2021-10-02T13:47:17Z</time>
      </trkpt>
      <trkpt lat="44.52883" lon="4.60569">
        <ele>291</ele>
        <time>2021-10-02T13:47:18Z</time>
      </trkpt>
      <trkpt lat="44.52879" lon="4.60575">
        <ele>290.79998779297</ele>
        <time>2021-10-02T13:47:19Z</time>
      </trkpt>
      <trkpt lat="44.52876" lon="4.60581">
        <ele>290.79998779297</ele>
        <time>2021-10-02T13:47:20Z</time>
      </trkpt>
      <trkpt lat="44.52869" lon="4.60592">
        <ele>291</ele>
        <time>2021-10-02T13:47:22Z</time>
      </trkpt>
      <trkpt lat="44.52854" lon="4.60615">
        <ele>291</ele>
        <time>2021-10-02T13:47:26Z</time>
      </trkpt>
      <trkpt lat="44.52851" lon="4.6062">
        <ele>291</ele>
        <time>2021-10-02T13:47:27Z</time>
      </trkpt>
      <trkpt lat="44.52847" lon="4.60624">
        <ele>291</ele>
        <time>2021-10-02T13:47:28Z</time>
      </trkpt>
      <trkpt lat="44.52844" lon="4.60627">
        <ele>291.20001220703</ele>
        <time>2021-10-02T13:47:29Z</time>
      </trkpt>
      <trkpt lat="44.5284" lon="4.60631">
        <ele>291.20001220703</ele>
        <time>2021-10-02T13:47:30Z</time>
      </trkpt>
      <trkpt lat="44.52829" lon="4.60645">
        <ele>291.39999389648</ele>
        <time>2021-10-02T13:47:33Z</time>
      </trkpt>
      <trkpt lat="44.52826" lon="4.60649">
        <ele>291.20001220703</ele>
        <time>2021-10-02T13:47:34Z</time>
      </trkpt>
      <trkpt lat="44.52823" lon="4.60653">
        <ele>291.20001220703</ele>
        <time>2021-10-02T13:47:35Z</time>
      </trkpt>
      <trkpt lat="44.5282" lon="4.60656">
        <ele>291.20001220703</ele>
        <time>2021-10-02T13:47:36Z</time>
      </trkpt>
      <trkpt lat="44.52816" lon="4.6066">
        <ele>291.20001220703</ele>
        <time>2021-10-02T13:47:37Z</time>
      </trkpt>
      <trkpt lat="44.5281" lon="4.60667">
        <ele>291.39999389648</ele>
        <time>2021-10-02T13:47:39Z</time>
      </trkpt>
      <trkpt lat="44.52806" lon="4.60671">
        <ele>291.20001220703</ele>
        <time>2021-10-02T13:47:40Z</time>
      </trkpt>
      <trkpt lat="44.52803" lon="4.60674">
        <ele>291.39999389648</ele>
        <time>2021-10-02T13:47:41Z</time>
      </trkpt>
      <trkpt lat="44.528" lon="4.60678">
        <ele>291.20001220703</ele>
        <time>2021-10-02T13:47:42Z</time>
      </trkpt>
      <trkpt lat="44.52798" lon="4.60681">
        <ele>291.20001220703</ele>
        <time>2021-10-02T13:47:43Z</time>
      </trkpt>
      <trkpt lat="44.52795" lon="4.60684">
        <ele>291.39999389648</ele>
        <time>2021-10-02T13:47:44Z</time>
      </trkpt>
      <trkpt lat="44.52792" lon="4.60687">
        <ele>291.39999389648</ele>
        <time>2021-10-02T13:47:45Z</time>
      </trkpt>
      <trkpt lat="44.52783" lon="4.60695">
        <ele>291.39999389648</ele>
        <time>2021-10-02T13:47:48Z</time>
      </trkpt>
      <trkpt lat="44.5278" lon="4.60697">
        <ele>291.60000610352</ele>
        <time>2021-10-02T13:47:49Z</time>
      </trkpt>
      <trkpt lat="44.52774" lon="4.60703">
        <ele>291.79998779297</ele>
        <time>2021-10-02T13:47:51Z</time>
      </trkpt>
      <trkpt lat="44.5277" lon="4.6071">
        <ele>291.79998779297</ele>
        <time>2021-10-02T13:47:53Z</time>
      </trkpt>
      <trkpt lat="44.52768" lon="4.60713">
        <ele>292</ele>
        <time>2021-10-02T13:47:54Z</time>
      </trkpt>
      <trkpt lat="44.52765" lon="4.60716">
        <ele>292</ele>
        <time>2021-10-02T13:47:55Z</time>
      </trkpt>
      <trkpt lat="44.52763" lon="4.60719">
        <ele>292</ele>
        <time>2021-10-02T13:47:56Z</time>
      </trkpt>
      <trkpt lat="44.52758" lon="4.60726">
        <ele>292</ele>
        <time>2021-10-02T13:47:58Z</time>
      </trkpt>
      <trkpt lat="44.52756" lon="4.60728">
        <ele>292.20001220703</ele>
        <time>2021-10-02T13:47:59Z</time>
      </trkpt>
      <trkpt lat="44.52754" lon="4.60731">
        <ele>292.20001220703</ele>
        <time>2021-10-02T13:48:00Z</time>
      </trkpt>
      <trkpt lat="44.52752" lon="4.60733">
        <ele>292.39999389648</ele>
        <time>2021-10-02T13:48:01Z</time>
      </trkpt>
      <trkpt lat="44.5275" lon="4.60735">
        <ele>292.39999389648</ele>
        <time>2021-10-02T13:48:02Z</time>
      </trkpt>
      <trkpt lat="44.52749" lon="4.60737">
        <ele>292.60000610352</ele>
        <time>2021-10-02T13:48:03Z</time>
      </trkpt>
      <trkpt lat="44.52747" lon="4.60739">
        <ele>292.60000610352</ele>
        <time>2021-10-02T13:48:04Z</time>
      </trkpt>
      <trkpt lat="44.52745" lon="4.60741">
        <ele>293</ele>
        <time>2021-10-02T13:48:05Z</time>
      </trkpt>
      <trkpt lat="44.52743" lon="4.60743">
        <ele>293.20001220703</ele>
        <time>2021-10-02T13:48:06Z</time>
      </trkpt>
      <trkpt lat="44.52742" lon="4.60745">
        <ele>293.39999389648</ele>
        <time>2021-10-02T13:48:07Z</time>
      </trkpt>
      <trkpt lat="44.5274" lon="4.60747">
        <ele>293.79998779297</ele>
        <time>2021-10-02T13:48:08Z</time>
      </trkpt>
      <trkpt lat="44.52738" lon="4.6075">
        <ele>294</ele>
        <time>2021-10-02T13:48:09Z</time>
      </trkpt>
      <trkpt lat="44.52737" lon="4.60752">
        <ele>294.20001220703</ele>
        <time>2021-10-02T13:48:10Z</time>
      </trkpt>
      <trkpt lat="44.52735" lon="4.60754">
        <ele>294.79998779297</ele>
        <time>2021-10-02T13:48:11Z</time>
      </trkpt>
      <trkpt lat="44.52733" lon="4.60757">
        <ele>295</ele>
        <time>2021-10-02T13:48:12Z</time>
      </trkpt>
      <trkpt lat="44.52731" lon="4.60759">
        <ele>295.39999389648</ele>
        <time>2021-10-02T13:48:13Z</time>
      </trkpt>
      <trkpt lat="44.52729" lon="4.60761">
        <ele>295.39999389648</ele>
        <time>2021-10-02T13:48:14Z</time>
      </trkpt>
      <trkpt lat="44.52727" lon="4.60763">
        <ele>295.79998779297</ele>
        <time>2021-10-02T13:48:15Z</time>
      </trkpt>
      <trkpt lat="44.52726" lon="4.60766">
        <ele>295.60000610352</ele>
        <time>2021-10-02T13:48:16Z</time>
      </trkpt>
      <trkpt lat="44.52724" lon="4.60768">
        <ele>296</ele>
        <time>2021-10-02T13:48:17Z</time>
      </trkpt>
      <trkpt lat="44.52722" lon="4.60771">
        <ele>296.39999389648</ele>
        <time>2021-10-02T13:48:18Z</time>
      </trkpt>
      <trkpt lat="44.52721" lon="4.60773">
        <ele>296.60000610352</ele>
        <time>2021-10-02T13:48:19Z</time>
      </trkpt>
      <trkpt lat="44.52719" lon="4.60775">
        <ele>296.60000610352</ele>
        <time>2021-10-02T13:48:20Z</time>
      </trkpt>
      <trkpt lat="44.52718" lon="4.60777">
        <ele>296.79998779297</ele>
        <time>2021-10-02T13:48:21Z</time>
      </trkpt>
      <trkpt lat="44.52716" lon="4.60779">
        <ele>297</ele>
        <time>2021-10-02T13:48:22Z</time>
      </trkpt>
      <trkpt lat="44.52714" lon="4.60781">
        <ele>297.20001220703</ele>
        <time>2021-10-02T13:48:23Z</time>
      </trkpt>
      <trkpt lat="44.52713" lon="4.60783">
        <ele>297.60000610352</ele>
        <time>2021-10-02T13:48:24Z</time>
      </trkpt>
      <trkpt lat="44.52711" lon="4.60786">
        <ele>297.60000610352</ele>
        <time>2021-10-02T13:48:25Z</time>
      </trkpt>
      <trkpt lat="44.5271" lon="4.60788">
        <ele>298</ele>
        <time>2021-10-02T13:48:26Z</time>
      </trkpt>
      <trkpt lat="44.52709" lon="4.60791">
        <ele>298.20001220703</ele>
        <time>2021-10-02T13:48:27Z</time>
      </trkpt>
      <trkpt lat="44.52707" lon="4.60793">
        <ele>298.39999389648</ele>
        <time>2021-10-02T13:48:28Z</time>
      </trkpt>
      <trkpt lat="44.52705" lon="4.60795">
        <ele>298.60000610352</ele>
        <time>2021-10-02T13:48:29Z</time>
      </trkpt>
      <trkpt lat="44.52704" lon="4.60797">
        <ele>299</ele>
        <time>2021-10-02T13:48:30Z</time>
      </trkpt>
      <trkpt lat="44.52702" lon="4.60798">
        <ele>299</ele>
        <time>2021-10-02T13:48:31Z</time>
      </trkpt>
      <trkpt lat="44.52701" lon="4.608">
        <ele>299.20001220703</ele>
        <time>2021-10-02T13:48:32Z</time>
      </trkpt>
      <trkpt lat="44.52699" lon="4.60801">
        <ele>299.39999389648</ele>
        <time>2021-10-02T13:48:33Z</time>
      </trkpt>
      <trkpt lat="44.52698" lon="4.60803">
        <ele>299.79998779297</ele>
        <time>2021-10-02T13:48:34Z</time>
      </trkpt>
      <trkpt lat="44.52697" lon="4.60805">
        <ele>300.20001220703</ele>
        <time>2021-10-02T13:48:35Z</time>
      </trkpt>
      <trkpt lat="44.52696" lon="4.60806">
        <ele>300.60000610352</ele>
        <time>2021-10-02T13:48:36Z</time>
      </trkpt>
      <trkpt lat="44.52694" lon="4.60808">
        <ele>301</ele>
        <time>2021-10-02T13:48:37Z</time>
      </trkpt>
      <trkpt lat="44.52693" lon="4.6081">
        <ele>301.39999389648</ele>
        <time>2021-10-02T13:48:38Z</time>
      </trkpt>
      <trkpt lat="44.52692" lon="4.60812">
        <ele>302</ele>
        <time>2021-10-02T13:48:39Z</time>
      </trkpt>
      <trkpt lat="44.5269" lon="4.60813">
        <ele>302.39999389648</ele>
        <time>2021-10-02T13:48:40Z</time>
      </trkpt>
      <trkpt lat="44.52689" lon="4.60815">
        <ele>302.79998779297</ele>
        <time>2021-10-02T13:48:41Z</time>
      </trkpt>
      <trkpt lat="44.52688" lon="4.60817">
        <ele>303.20001220703</ele>
        <time>2021-10-02T13:48:42Z</time>
      </trkpt>
      <trkpt lat="44.52686" lon="4.60819">
        <ele>303.20001220703</ele>
        <time>2021-10-02T13:48:43Z</time>
      </trkpt>
      <trkpt lat="44.52685" lon="4.60821">
        <ele>303.39999389648</ele>
        <time>2021-10-02T13:48:44Z</time>
      </trkpt>
      <trkpt lat="44.52684" lon="4.60822">
        <ele>303.60000610352</ele>
        <time>2021-10-02T13:48:45Z</time>
      </trkpt>
      <trkpt lat="44.52682" lon="4.60823">
        <ele>304</ele>
        <time>2021-10-02T13:48:46Z</time>
      </trkpt>
      <trkpt lat="44.52681" lon="4.60825">
        <ele>304.20001220703</ele>
        <time>2021-10-02T13:48:47Z</time>
      </trkpt>
      <trkpt lat="44.52679" lon="4.60825">
        <ele>304.39999389648</ele>
        <time>2021-10-02T13:48:48Z</time>
      </trkpt>
      <trkpt lat="44.52677" lon="4.60826">
        <ele>304.39999389648</ele>
        <time>2021-10-02T13:48:49Z</time>
      </trkpt>
      <trkpt lat="44.52675" lon="4.60826">
        <ele>304.60000610352</ele>
        <time>2021-10-02T13:48:50Z</time>
      </trkpt>
      <trkpt lat="44.52672" lon="4.60825">
        <ele>304.79998779297</ele>
        <time>2021-10-02T13:48:51Z</time>
      </trkpt>
      <trkpt lat="44.52669" lon="4.60825">
        <ele>305</ele>
        <time>2021-10-02T13:48:52Z</time>
      </trkpt>
      <trkpt lat="44.52667" lon="4.60826">
        <ele>305.20001220703</ele>
        <time>2021-10-02T13:48:53Z</time>
      </trkpt>
      <trkpt lat="44.52664" lon="4.60827">
        <ele>305.20001220703</ele>
        <time>2021-10-02T13:48:54Z</time>
      </trkpt>
      <trkpt lat="44.52662" lon="4.60829">
        <ele>305.20001220703</ele>
        <time>2021-10-02T13:48:55Z</time>
      </trkpt>
      <trkpt lat="44.52658" lon="4.60831">
        <ele>305.39999389648</ele>
        <time>2021-10-02T13:48:56Z</time>
      </trkpt>
      <trkpt lat="44.52655" lon="4.60833">
        <ele>305.20001220703</ele>
        <time>2021-10-02T13:48:57Z</time>
      </trkpt>
      <trkpt lat="44.52651" lon="4.60835">
        <ele>305.20001220703</ele>
        <time>2021-10-02T13:48:58Z</time>
      </trkpt>
      <trkpt lat="44.52647" lon="4.60836">
        <ele>305.39999389648</ele>
        <time>2021-10-02T13:48:59Z</time>
      </trkpt>
      <trkpt lat="44.52642" lon="4.60838">
        <ele>305.39999389648</ele>
        <time>2021-10-02T13:49:00Z</time>
      </trkpt>
      <trkpt lat="44.52633" lon="4.6084">
        <ele>305.20001220703</ele>
        <time>2021-10-02T13:49:02Z</time>
      </trkpt>
      <trkpt lat="44.52628" lon="4.60842">
        <ele>305.39999389648</ele>
        <time>2021-10-02T13:49:03Z</time>
      </trkpt>
      <trkpt lat="44.52623" lon="4.60844">
        <ele>305.20001220703</ele>
        <time>2021-10-02T13:49:04Z</time>
      </trkpt>
      <trkpt lat="44.52612" lon="4.60849">
        <ele>304.79998779297</ele>
        <time>2021-10-02T13:49:06Z</time>
      </trkpt>
      <trkpt lat="44.52606" lon="4.6085">
        <ele>304.79998779297</ele>
        <time>2021-10-02T13:49:07Z</time>
      </trkpt>
      <trkpt lat="44.52601" lon="4.60852">
        <ele>304.60000610352</ele>
        <time>2021-10-02T13:49:08Z</time>
      </trkpt>
      <trkpt lat="44.52596" lon="4.60853">
        <ele>304</ele>
        <time>2021-10-02T13:49:09Z</time>
      </trkpt>
      <trkpt lat="44.52584" lon="4.60856">
        <ele>303.79998779297</ele>
        <time>2021-10-02T13:49:11Z</time>
      </trkpt>
      <trkpt lat="44.52578" lon="4.60857">
        <ele>303.60000610352</ele>
        <time>2021-10-02T13:49:12Z</time>
      </trkpt>
      <trkpt lat="44.52573" lon="4.60858">
        <ele>303.39999389648</ele>
        <time>2021-10-02T13:49:13Z</time>
      </trkpt>
      <trkpt lat="44.52567" lon="4.6086">
        <ele>302.20001220703</ele>
        <time>2021-10-02T13:49:14Z</time>
      </trkpt>
      <trkpt lat="44.52562" lon="4.60862">
        <ele>301.39999389648</ele>
        <time>2021-10-02T13:49:15Z</time>
      </trkpt>
      <trkpt lat="44.52556" lon="4.60863">
        <ele>300.79998779297</ele>
        <time>2021-10-02T13:49:16Z</time>
      </trkpt>
      <trkpt lat="44.52551" lon="4.60864">
        <ele>300.60000610352</ele>
        <time>2021-10-02T13:49:17Z</time>
      </trkpt>
      <trkpt lat="44.52545" lon="4.60864">
        <ele>299.20001220703</ele>
        <time>2021-10-02T13:49:18Z</time>
      </trkpt>
      <trkpt lat="44.52538" lon="4.60865">
        <ele>298</ele>
        <time>2021-10-02T13:49:19Z</time>
      </trkpt>
      <trkpt lat="44.52532" lon="4.60867">
        <ele>297.20001220703</ele>
        <time>2021-10-02T13:49:20Z</time>
      </trkpt>
      <trkpt lat="44.52526" lon="4.60868">
        <ele>296.60000610352</ele>
        <time>2021-10-02T13:49:21Z</time>
      </trkpt>
      <trkpt lat="44.5252" lon="4.60868">
        <ele>295.20001220703</ele>
        <time>2021-10-02T13:49:22Z</time>
      </trkpt>
      <trkpt lat="44.52515" lon="4.6087">
        <ele>293.79998779297</ele>
        <time>2021-10-02T13:49:23Z</time>
      </trkpt>
      <trkpt lat="44.5251" lon="4.60872">
        <ele>292.60000610352</ele>
        <time>2021-10-02T13:49:24Z</time>
      </trkpt>
      <trkpt lat="44.52504" lon="4.60876">
        <ele>292</ele>
        <time>2021-10-02T13:49:25Z</time>
      </trkpt>
      <trkpt lat="44.52493" lon="4.60881">
        <ele>289.79998779297</ele>
        <time>2021-10-02T13:49:27Z</time>
      </trkpt>
      <trkpt lat="44.52488" lon="4.60882">
        <ele>289.79998779297</ele>
        <time>2021-10-02T13:49:28Z</time>
      </trkpt>
      <trkpt lat="44.52482" lon="4.60883">
        <ele>288.60000610352</ele>
        <time>2021-10-02T13:49:29Z</time>
      </trkpt>
      <trkpt lat="44.5247" lon="4.60888">
        <ele>285.60000610352</ele>
        <time>2021-10-02T13:49:31Z</time>
      </trkpt>
      <trkpt lat="44.52465" lon="4.6089">
        <ele>284.60000610352</ele>
        <time>2021-10-02T13:49:32Z</time>
      </trkpt>
      <trkpt lat="44.52461" lon="4.60891">
        <ele>283.39999389648</ele>
        <time>2021-10-02T13:49:33Z</time>
      </trkpt>
      <trkpt lat="44.52456" lon="4.60894">
        <ele>282.79998779297</ele>
        <time>2021-10-02T13:49:34Z</time>
      </trkpt>
      <trkpt lat="44.52451" lon="4.60898">
        <ele>282</ele>
        <time>2021-10-02T13:49:35Z</time>
      </trkpt>
      <trkpt lat="44.52445" lon="4.60903">
        <ele>281.20001220703</ele>
        <time>2021-10-02T13:49:36Z</time>
      </trkpt>
      <trkpt lat="44.52432" lon="4.60909">
        <ele>279</ele>
        <time>2021-10-02T13:49:38Z</time>
      </trkpt>
      <trkpt lat="44.52427" lon="4.60911">
        <ele>278</ele>
        <time>2021-10-02T13:49:39Z</time>
      </trkpt>
      <trkpt lat="44.52421" lon="4.60912">
        <ele>276.79998779297</ele>
        <time>2021-10-02T13:49:40Z</time>
      </trkpt>
      <trkpt lat="44.52415" lon="4.60913">
        <ele>275.60000610352</ele>
        <time>2021-10-02T13:49:41Z</time>
      </trkpt>
      <trkpt lat="44.52396" lon="4.60922">
        <ele>272.20001220703</ele>
        <time>2021-10-02T13:49:44Z</time>
      </trkpt>
      <trkpt lat="44.52384" lon="4.60928">
        <ele>269.39999389648</ele>
        <time>2021-10-02T13:49:46Z</time>
      </trkpt>
      <trkpt lat="44.52378" lon="4.60932">
        <ele>268.39999389648</ele>
        <time>2021-10-02T13:49:47Z</time>
      </trkpt>
      <trkpt lat="44.52371" lon="4.60935">
        <ele>267.79998779297</ele>
        <time>2021-10-02T13:49:48Z</time>
      </trkpt>
      <trkpt lat="44.5235" lon="4.60942">
        <ele>265.79998779297</ele>
        <time>2021-10-02T13:49:51Z</time>
      </trkpt>
      <trkpt lat="44.52344" lon="4.60944">
        <ele>265</ele>
        <time>2021-10-02T13:49:52Z</time>
      </trkpt>
      <trkpt lat="44.52338" lon="4.60947">
        <ele>264.39999389648</ele>
        <time>2021-10-02T13:49:53Z</time>
      </trkpt>
      <trkpt lat="44.52332" lon="4.60949">
        <ele>263.79998779297</ele>
        <time>2021-10-02T13:49:54Z</time>
      </trkpt>
      <trkpt lat="44.52326" lon="4.60952">
        <ele>263.39999389648</ele>
        <time>2021-10-02T13:49:55Z</time>
      </trkpt>
      <trkpt lat="44.52321" lon="4.60954">
        <ele>262.79998779297</ele>
        <time>2021-10-02T13:49:56Z</time>
      </trkpt>
      <trkpt lat="44.52315" lon="4.60955">
        <ele>261.79998779297</ele>
        <time>2021-10-02T13:49:57Z</time>
      </trkpt>
      <trkpt lat="44.5231" lon="4.60958">
        <ele>261</ele>
        <time>2021-10-02T13:49:58Z</time>
      </trkpt>
      <trkpt lat="44.52305" lon="4.60959">
        <ele>260.39999389648</ele>
        <time>2021-10-02T13:49:59Z</time>
      </trkpt>
      <trkpt lat="44.523" lon="4.6096">
        <ele>260.20001220703</ele>
        <time>2021-10-02T13:50:00Z</time>
      </trkpt>
      <trkpt lat="44.52294" lon="4.60961">
        <ele>260</ele>
        <time>2021-10-02T13:50:01Z</time>
      </trkpt>
      <trkpt lat="44.52289" lon="4.60963">
        <ele>259.39999389648</ele>
        <time>2021-10-02T13:50:02Z</time>
      </trkpt>
      <trkpt lat="44.52284" lon="4.60964">
        <ele>259.39999389648</ele>
        <time>2021-10-02T13:50:03Z</time>
      </trkpt>
      <trkpt lat="44.52278" lon="4.60966">
        <ele>259</ele>
        <time>2021-10-02T13:50:04Z</time>
      </trkpt>
      <trkpt lat="44.52272" lon="4.60966">
        <ele>259</ele>
        <time>2021-10-02T13:50:05Z</time>
      </trkpt>
      <trkpt lat="44.52259" lon="4.60967">
        <ele>259</ele>
        <time>2021-10-02T13:50:07Z</time>
      </trkpt>
      <trkpt lat="44.52245" lon="4.60968">
        <ele>258.79998779297</ele>
        <time>2021-10-02T13:50:09Z</time>
      </trkpt>
      <trkpt lat="44.52239" lon="4.60967">
        <ele>258.60000610352</ele>
        <time>2021-10-02T13:50:10Z</time>
      </trkpt>
      <trkpt lat="44.52233" lon="4.60966">
        <ele>258.39999389648</ele>
        <time>2021-10-02T13:50:11Z</time>
      </trkpt>
      <trkpt lat="44.52228" lon="4.60967">
        <ele>258</ele>
        <time>2021-10-02T13:50:12Z</time>
      </trkpt>
      <trkpt lat="44.52223" lon="4.60968">
        <ele>258</ele>
        <time>2021-10-02T13:50:13Z</time>
      </trkpt>
      <trkpt lat="44.52218" lon="4.60969">
        <ele>258</ele>
        <time>2021-10-02T13:50:14Z</time>
      </trkpt>
      <trkpt lat="44.52213" lon="4.60969">
        <ele>257.60000610352</ele>
        <time>2021-10-02T13:50:15Z</time>
      </trkpt>
      <trkpt lat="44.52208" lon="4.60968">
        <ele>257.39999389648</ele>
        <time>2021-10-02T13:50:16Z</time>
      </trkpt>
      <trkpt lat="44.52203" lon="4.60965">
        <ele>256.39999389648</ele>
        <time>2021-10-02T13:50:17Z</time>
      </trkpt>
      <trkpt lat="44.52197" lon="4.60961">
        <ele>255.60000610352</ele>
        <time>2021-10-02T13:50:18Z</time>
      </trkpt>
      <trkpt lat="44.5219" lon="4.60957">
        <ele>254.39999389648</ele>
        <time>2021-10-02T13:50:19Z</time>
      </trkpt>
      <trkpt lat="44.52183" lon="4.60954">
        <ele>253.80000305176</ele>
        <time>2021-10-02T13:50:20Z</time>
      </trkpt>
      <trkpt lat="44.52176" lon="4.60951">
        <ele>252.60000610352</ele>
        <time>2021-10-02T13:50:21Z</time>
      </trkpt>
      <trkpt lat="44.52171" lon="4.60949">
        <ele>251.60000610352</ele>
        <time>2021-10-02T13:50:22Z</time>
      </trkpt>
      <trkpt lat="44.52167" lon="4.60946">
        <ele>250.60000610352</ele>
        <time>2021-10-02T13:50:23Z</time>
      </trkpt>
      <trkpt lat="44.52163" lon="4.60941">
        <ele>249.60000610352</ele>
        <time>2021-10-02T13:50:24Z</time>
      </trkpt>
      <trkpt lat="44.52158" lon="4.60937">
        <ele>248.19999694824</ele>
        <time>2021-10-02T13:50:25Z</time>
      </trkpt>
      <trkpt lat="44.52153" lon="4.60935">
        <ele>246.39999389648</ele>
        <time>2021-10-02T13:50:26Z</time>
      </trkpt>
      <trkpt lat="44.52148" lon="4.60935">
        <ele>245.39999389648</ele>
        <time>2021-10-02T13:50:27Z</time>
      </trkpt>
      <trkpt lat="44.52143" lon="4.60934">
        <ele>243.39999389648</ele>
        <time>2021-10-02T13:50:28Z</time>
      </trkpt>
      <trkpt lat="44.52138" lon="4.60931">
        <ele>242.39999389648</ele>
        <time>2021-10-02T13:50:29Z</time>
      </trkpt>
      <trkpt lat="44.52134" lon="4.60928">
        <ele>240.80000305176</ele>
        <time>2021-10-02T13:50:30Z</time>
      </trkpt>
      <trkpt lat="44.5213" lon="4.60924">
        <ele>239.39999389648</ele>
        <time>2021-10-02T13:50:31Z</time>
      </trkpt>
      <trkpt lat="44.52126" lon="4.60921">
        <ele>238.19999694824</ele>
        <time>2021-10-02T13:50:32Z</time>
      </trkpt>
      <trkpt lat="44.52121" lon="4.60919">
        <ele>236.80000305176</ele>
        <time>2021-10-02T13:50:33Z</time>
      </trkpt>
      <trkpt lat="44.52116" lon="4.60916">
        <ele>236</ele>
        <time>2021-10-02T13:50:34Z</time>
      </trkpt>
      <trkpt lat="44.52111" lon="4.60915">
        <ele>235</ele>
        <time>2021-10-02T13:50:35Z</time>
      </trkpt>
      <trkpt lat="44.52108" lon="4.60913">
        <ele>235</ele>
        <time>2021-10-02T13:50:36Z</time>
      </trkpt>
      <trkpt lat="44.52105" lon="4.60913">
        <ele>234</ele>
        <time>2021-10-02T13:50:37Z</time>
      </trkpt>
      <trkpt lat="44.52103" lon="4.60914">
        <ele>233.39999389648</ele>
        <time>2021-10-02T13:50:38Z</time>
      </trkpt>
      <trkpt lat="44.52103" lon="4.60915">
        <ele>232.19999694824</ele>
        <time>2021-10-02T13:50:39Z</time>
      </trkpt>
      <trkpt lat="44.52103" lon="4.60915">
        <ele>228</ele>
        <time>2021-10-02T13:50:43Z</time>
      </trkpt>
      <trkpt lat="44.52104" lon="4.60915">
        <ele>222.19999694824</ele>
        <time>2021-10-02T13:51:03Z</time>
      </trkpt>
      <trkpt lat="44.52102" lon="4.60916">
        <ele>222</ele>
        <time>2021-10-02T13:51:14Z</time>
      </trkpt>
      <trkpt lat="44.521" lon="4.60915">
        <ele>222.19999694824</ele>
        <time>2021-10-02T13:51:15Z</time>
      </trkpt>
      <trkpt lat="44.52098" lon="4.60913">
        <ele>222.19999694824</ele>
        <time>2021-10-02T13:51:16Z</time>
      </trkpt>
      <trkpt lat="44.52094" lon="4.60909">
        <ele>222.19999694824</ele>
        <time>2021-10-02T13:51:17Z</time>
      </trkpt>
      <trkpt lat="44.5209" lon="4.60906">
        <ele>222</ele>
        <time>2021-10-02T13:51:18Z</time>
      </trkpt>
      <trkpt lat="44.52086" lon="4.60901">
        <ele>222.19999694824</ele>
        <time>2021-10-02T13:51:19Z</time>
      </trkpt>
      <trkpt lat="44.52084" lon="4.60897">
        <ele>222</ele>
        <time>2021-10-02T13:51:20Z</time>
      </trkpt>
      <trkpt lat="44.52083" lon="4.60893">
        <ele>222</ele>
        <time>2021-10-02T13:51:21Z</time>
      </trkpt>
      <trkpt lat="44.52082" lon="4.60889">
        <ele>222</ele>
        <time>2021-10-02T13:51:22Z</time>
      </trkpt>
      <trkpt lat="44.5208" lon="4.60886">
        <ele>222.19999694824</ele>
        <time>2021-10-02T13:51:23Z</time>
      </trkpt>
      <trkpt lat="44.52078" lon="4.60886">
        <ele>222.19999694824</ele>
        <time>2021-10-02T13:51:24Z</time>
      </trkpt>
      <trkpt lat="44.52075" lon="4.60886">
        <ele>222</ele>
        <time>2021-10-02T13:51:25Z</time>
      </trkpt>
      <trkpt lat="44.52072" lon="4.60888">
        <ele>221.60000610352</ele>
        <time>2021-10-02T13:51:26Z</time>
      </trkpt>
      <trkpt lat="44.5207" lon="4.6089">
        <ele>220.60000610352</ele>
        <time>2021-10-02T13:51:27Z</time>
      </trkpt>
      <trkpt lat="44.52068" lon="4.60892">
        <ele>220</ele>
        <time>2021-10-02T13:51:28Z</time>
      </trkpt>
      <trkpt lat="44.52068" lon="4.60894">
        <ele>219</ele>
        <time>2021-10-02T13:51:29Z</time>
      </trkpt>
      <trkpt lat="44.52068" lon="4.60896">
        <ele>218</ele>
        <time>2021-10-02T13:51:30Z</time>
      </trkpt>
      <trkpt lat="44.52068" lon="4.60899">
        <ele>217.60000610352</ele>
        <time>2021-10-02T13:51:31Z</time>
      </trkpt>
      <trkpt lat="44.52068" lon="4.60903">
        <ele>216.80000305176</ele>
        <time>2021-10-02T13:51:32Z</time>
      </trkpt>
      <trkpt lat="44.52066" lon="4.60908">
        <ele>215.80000305176</ele>
        <time>2021-10-02T13:51:33Z</time>
      </trkpt>
      <trkpt lat="44.52066" lon="4.60913">
        <ele>215</ele>
        <time>2021-10-02T13:51:34Z</time>
      </trkpt>
      <trkpt lat="44.52065" lon="4.60917">
        <ele>214.19999694824</ele>
        <time>2021-10-02T13:51:35Z</time>
      </trkpt>
      <trkpt lat="44.52064" lon="4.60921">
        <ele>213.80000305176</ele>
        <time>2021-10-02T13:51:36Z</time>
      </trkpt>
      <trkpt lat="44.52062" lon="4.60925">
        <ele>213.19999694824</ele>
        <time>2021-10-02T13:51:37Z</time>
      </trkpt>
      <trkpt lat="44.52061" lon="4.60929">
        <ele>213</ele>
        <time>2021-10-02T13:51:38Z</time>
      </trkpt>
      <trkpt lat="44.52061" lon="4.60934">
        <ele>212.80000305176</ele>
        <time>2021-10-02T13:51:39Z</time>
      </trkpt>
      <trkpt lat="44.52061" lon="4.60939">
        <ele>212.60000610352</ele>
        <time>2021-10-02T13:51:40Z</time>
      </trkpt>
      <trkpt lat="44.52061" lon="4.60943">
        <ele>212.39999389648</ele>
        <time>2021-10-02T13:51:41Z</time>
      </trkpt>
      <trkpt lat="44.52061" lon="4.60948">
        <ele>211.60000610352</ele>
        <time>2021-10-02T13:51:42Z</time>
      </trkpt>
      <trkpt lat="44.5206" lon="4.60953">
        <ele>211</ele>
        <time>2021-10-02T13:51:43Z</time>
      </trkpt>
      <trkpt lat="44.52059" lon="4.60958">
        <ele>211</ele>
        <time>2021-10-02T13:51:44Z</time>
      </trkpt>
      <trkpt lat="44.52055" lon="4.60969">
        <ele>209</ele>
        <time>2021-10-02T13:51:46Z</time>
      </trkpt>
      <trkpt lat="44.52052" lon="4.60973">
        <ele>207.80000305176</ele>
        <time>2021-10-02T13:51:47Z</time>
      </trkpt>
      <trkpt lat="44.52051" lon="4.60978">
        <ele>206.60000610352</ele>
        <time>2021-10-02T13:51:48Z</time>
      </trkpt>
      <trkpt lat="44.52048" lon="4.60989">
        <ele>204.80000305176</ele>
        <time>2021-10-02T13:51:50Z</time>
      </trkpt>
      <trkpt lat="44.52046" lon="4.60995">
        <ele>204</ele>
        <time>2021-10-02T13:51:51Z</time>
      </trkpt>
      <trkpt lat="44.52044" lon="4.60999">
        <ele>202.80000305176</ele>
        <time>2021-10-02T13:51:52Z</time>
      </trkpt>
      <trkpt lat="44.52042" lon="4.60999">
        <ele>201</ele>
        <time>2021-10-02T13:51:53Z</time>
      </trkpt>
      <trkpt lat="44.5204" lon="4.60998">
        <ele>199.80000305176</ele>
        <time>2021-10-02T13:51:54Z</time>
      </trkpt>
      <trkpt lat="44.5204" lon="4.60994">
        <ele>199.19999694824</ele>
        <time>2021-10-02T13:51:55Z</time>
      </trkpt>
      <trkpt lat="44.52038" lon="4.60986">
        <ele>197.39999389648</ele>
        <time>2021-10-02T13:51:57Z</time>
      </trkpt>
      <trkpt lat="44.52034" lon="4.60983">
        <ele>197</ele>
        <time>2021-10-02T13:51:58Z</time>
      </trkpt>
      <trkpt lat="44.5203" lon="4.60981">
        <ele>196.60000610352</ele>
        <time>2021-10-02T13:51:59Z</time>
      </trkpt>
      <trkpt lat="44.52024" lon="4.6098">
        <ele>196.19999694824</ele>
        <time>2021-10-02T13:52:00Z</time>
      </trkpt>
      <trkpt lat="44.52018" lon="4.60981">
        <ele>196</ele>
        <time>2021-10-02T13:52:01Z</time>
      </trkpt>
      <trkpt lat="44.52012" lon="4.60984">
        <ele>196</ele>
        <time>2021-10-02T13:52:02Z</time>
      </trkpt>
      <trkpt lat="44.52006" lon="4.60987">
        <ele>195.80000305176</ele>
        <time>2021-10-02T13:52:03Z</time>
      </trkpt>
      <trkpt lat="44.52" lon="4.60987">
        <ele>195.19999694824</ele>
        <time>2021-10-02T13:52:04Z</time>
      </trkpt>
      <trkpt lat="44.51994" lon="4.60987">
        <ele>194.80000305176</ele>
        <time>2021-10-02T13:52:05Z</time>
      </trkpt>
      <trkpt lat="44.51987" lon="4.60987">
        <ele>194.39999389648</ele>
        <time>2021-10-02T13:52:06Z</time>
      </trkpt>
      <trkpt lat="44.5198" lon="4.60986">
        <ele>194.39999389648</ele>
        <time>2021-10-02T13:52:07Z</time>
      </trkpt>
      <trkpt lat="44.51973" lon="4.60985">
        <ele>193.80000305176</ele>
        <time>2021-10-02T13:52:08Z</time>
      </trkpt>
      <trkpt lat="44.51965" lon="4.60982">
        <ele>192.19999694824</ele>
        <time>2021-10-02T13:52:09Z</time>
      </trkpt>
      <trkpt lat="44.51958" lon="4.6098">
        <ele>190.60000610352</ele>
        <time>2021-10-02T13:52:10Z</time>
      </trkpt>
      <trkpt lat="44.51951" lon="4.60979">
        <ele>189</ele>
        <time>2021-10-02T13:52:11Z</time>
      </trkpt>
      <trkpt lat="44.51935" lon="4.60974">
        <ele>186.80000305176</ele>
        <time>2021-10-02T13:52:13Z</time>
      </trkpt>
      <trkpt lat="44.51911" lon="4.60965">
        <ele>183.60000610352</ele>
        <time>2021-10-02T13:52:16Z</time>
      </trkpt>
      <trkpt lat="44.51895" lon="4.60961">
        <ele>181.39999389648</ele>
        <time>2021-10-02T13:52:18Z</time>
      </trkpt>
      <trkpt lat="44.51887" lon="4.6096">
        <ele>180.19999694824</ele>
        <time>2021-10-02T13:52:19Z</time>
      </trkpt>
      <trkpt lat="44.5188" lon="4.6096">
        <ele>178.80000305176</ele>
        <time>2021-10-02T13:52:20Z</time>
      </trkpt>
      <trkpt lat="44.51876" lon="4.60962">
        <ele>178</ele>
        <time>2021-10-02T13:52:21Z</time>
      </trkpt>
      <trkpt lat="44.51873" lon="4.60965">
        <ele>177</ele>
        <time>2021-10-02T13:52:22Z</time>
      </trkpt>
      <trkpt lat="44.51871" lon="4.60969">
        <ele>176.39999389648</ele>
        <time>2021-10-02T13:52:23Z</time>
      </trkpt>
      <trkpt lat="44.5187" lon="4.60973">
        <ele>176</ele>
        <time>2021-10-02T13:52:24Z</time>
      </trkpt>
      <trkpt lat="44.51868" lon="4.60977">
        <ele>175.19999694824</ele>
        <time>2021-10-02T13:52:25Z</time>
      </trkpt>
      <trkpt lat="44.51867" lon="4.60982">
        <ele>174.39999389648</ele>
        <time>2021-10-02T13:52:26Z</time>
      </trkpt>
      <trkpt lat="44.51866" lon="4.60986">
        <ele>173.80000305176</ele>
        <time>2021-10-02T13:52:27Z</time>
      </trkpt>
      <trkpt lat="44.51865" lon="4.6099">
        <ele>173.19999694824</ele>
        <time>2021-10-02T13:52:28Z</time>
      </trkpt>
      <trkpt lat="44.51864" lon="4.60994">
        <ele>173</ele>
        <time>2021-10-02T13:52:29Z</time>
      </trkpt>
      <trkpt lat="44.51862" lon="4.60998">
        <ele>173</ele>
        <time>2021-10-02T13:52:30Z</time>
      </trkpt>
      <trkpt lat="44.51861" lon="4.61002">
        <ele>172.80000305176</ele>
        <time>2021-10-02T13:52:31Z</time>
      </trkpt>
      <trkpt lat="44.51857" lon="4.61009">
        <ele>172.80000305176</ele>
        <time>2021-10-02T13:52:33Z</time>
      </trkpt>
      <trkpt lat="44.51856" lon="4.61012">
        <ele>172.80000305176</ele>
        <time>2021-10-02T13:52:34Z</time>
      </trkpt>
      <trkpt lat="44.51855" lon="4.61016">
        <ele>172.60000610352</ele>
        <time>2021-10-02T13:52:35Z</time>
      </trkpt>
      <trkpt lat="44.5185" lon="4.61026">
        <ele>172.80000305176</ele>
        <time>2021-10-02T13:52:38Z</time>
      </trkpt>
      <trkpt lat="44.51849" lon="4.6103">
        <ele>173</ele>
        <time>2021-10-02T13:52:39Z</time>
      </trkpt>
      <trkpt lat="44.51847" lon="4.61033">
        <ele>173.39999389648</ele>
        <time>2021-10-02T13:52:40Z</time>
      </trkpt>
      <trkpt lat="44.51846" lon="4.61036">
        <ele>174</ele>
        <time>2021-10-02T13:52:41Z</time>
      </trkpt>
      <trkpt lat="44.51845" lon="4.61039">
        <ele>174.39999389648</ele>
        <time>2021-10-02T13:52:42Z</time>
      </trkpt>
      <trkpt lat="44.51843" lon="4.61042">
        <ele>175</ele>
        <time>2021-10-02T13:52:43Z</time>
      </trkpt>
      <trkpt lat="44.51842" lon="4.61044">
        <ele>175.19999694824</ele>
        <time>2021-10-02T13:52:44Z</time>
      </trkpt>
      <trkpt lat="44.51841" lon="4.61046">
        <ele>175.39999389648</ele>
        <time>2021-10-02T13:52:45Z</time>
      </trkpt>
      <trkpt lat="44.5184" lon="4.61048">
        <ele>175.60000610352</ele>
        <time>2021-10-02T13:52:46Z</time>
      </trkpt>
      <trkpt lat="44.51839" lon="4.61051">
        <ele>175.80000305176</ele>
        <time>2021-10-02T13:52:47Z</time>
      </trkpt>
      <trkpt lat="44.51838" lon="4.61053">
        <ele>175.80000305176</ele>
        <time>2021-10-02T13:52:48Z</time>
      </trkpt>
      <trkpt lat="44.51836" lon="4.61058">
        <ele>176.39999389648</ele>
        <time>2021-10-02T13:52:50Z</time>
      </trkpt>
      <trkpt lat="44.51836" lon="4.6106">
        <ele>176.80000305176</ele>
        <time>2021-10-02T13:52:51Z</time>
      </trkpt>
      <trkpt lat="44.51835" lon="4.61062">
        <ele>176.80000305176</ele>
        <time>2021-10-02T13:52:52Z</time>
      </trkpt>
      <trkpt lat="44.51834" lon="4.61064">
        <ele>177</ele>
        <time>2021-10-02T13:52:53Z</time>
      </trkpt>
      <trkpt lat="44.51833" lon="4.61066">
        <ele>177.19999694824</ele>
        <time>2021-10-02T13:52:54Z</time>
      </trkpt>
      <trkpt lat="44.51832" lon="4.61068">
        <ele>177.39999389648</ele>
        <time>2021-10-02T13:52:55Z</time>
      </trkpt>
      <trkpt lat="44.51831" lon="4.6107">
        <ele>177.60000610352</ele>
        <time>2021-10-02T13:52:56Z</time>
      </trkpt>
      <trkpt lat="44.5183" lon="4.61072">
        <ele>177.60000610352</ele>
        <time>2021-10-02T13:52:57Z</time>
      </trkpt>
      <trkpt lat="44.5183" lon="4.61074">
        <ele>177.60000610352</ele>
        <time>2021-10-02T13:52:58Z</time>
      </trkpt>
      <trkpt lat="44.51829" lon="4.61075">
        <ele>177.80000305176</ele>
        <time>2021-10-02T13:52:59Z</time>
      </trkpt>
      <trkpt lat="44.51828" lon="4.61077">
        <ele>177.80000305176</ele>
        <time>2021-10-02T13:53:00Z</time>
      </trkpt>
      <trkpt lat="44.51826" lon="4.61078">
        <ele>178</ele>
        <time>2021-10-02T13:53:01Z</time>
      </trkpt>
      <trkpt lat="44.51825" lon="4.61079">
        <ele>178.19999694824</ele>
        <time>2021-10-02T13:53:02Z</time>
      </trkpt>
      <trkpt lat="44.51823" lon="4.61081">
        <ele>178.60000610352</ele>
        <time>2021-10-02T13:53:03Z</time>
      </trkpt>
      <trkpt lat="44.51821" lon="4.61083">
        <ele>178.80000305176</ele>
        <time>2021-10-02T13:53:04Z</time>
      </trkpt>
      <trkpt lat="44.51819" lon="4.61086">
        <ele>179</ele>
        <time>2021-10-02T13:53:05Z</time>
      </trkpt>
      <trkpt lat="44.51816" lon="4.61088">
        <ele>179</ele>
        <time>2021-10-02T13:53:06Z</time>
      </trkpt>
      <trkpt lat="44.51814" lon="4.61089">
        <ele>179.39999389648</ele>
        <time>2021-10-02T13:53:07Z</time>
      </trkpt>
      <trkpt lat="44.51812" lon="4.61091">
        <ele>179.39999389648</ele>
        <time>2021-10-02T13:53:08Z</time>
      </trkpt>
      <trkpt lat="44.51809" lon="4.61094">
        <ele>179.80000305176</ele>
        <time>2021-10-02T13:53:09Z</time>
      </trkpt>
      <trkpt lat="44.51807" lon="4.61096">
        <ele>179.60000610352</ele>
        <time>2021-10-02T13:53:10Z</time>
      </trkpt>
      <trkpt lat="44.51805" lon="4.61097">
        <ele>179.80000305176</ele>
        <time>2021-10-02T13:53:11Z</time>
      </trkpt>
      <trkpt lat="44.51803" lon="4.61099">
        <ele>179.80000305176</ele>
        <time>2021-10-02T13:53:12Z</time>
      </trkpt>
      <trkpt lat="44.51801" lon="4.61101">
        <ele>179.80000305176</ele>
        <time>2021-10-02T13:53:13Z</time>
      </trkpt>
      <trkpt lat="44.51799" lon="4.61102">
        <ele>179.80000305176</ele>
        <time>2021-10-02T13:53:14Z</time>
      </trkpt>
      <trkpt lat="44.51798" lon="4.61104">
        <ele>179.80000305176</ele>
        <time>2021-10-02T13:53:15Z</time>
      </trkpt>
      <trkpt lat="44.51796" lon="4.61105">
        <ele>179.80000305176</ele>
        <time>2021-10-02T13:53:16Z</time>
      </trkpt>
      <trkpt lat="44.51792" lon="4.61109">
        <ele>180.19999694824</ele>
        <time>2021-10-02T13:53:18Z</time>
      </trkpt>
      <trkpt lat="44.51781" lon="4.61116">
        <ele>180.19999694824</ele>
        <time>2021-10-02T13:53:23Z</time>
      </trkpt>
      <trkpt lat="44.51778" lon="4.61119">
        <ele>180.19999694824</ele>
        <time>2021-10-02T13:53:25Z</time>
      </trkpt>
      <trkpt lat="44.51777" lon="4.61121">
        <ele>180.19999694824</ele>
        <time>2021-10-02T13:53:26Z</time>
      </trkpt>
      <trkpt lat="44.51768" lon="4.61119">
        <ele>176.19999694824</ele>
        <time>2020-05-31T07:09:36Z</time>
      </trkpt>
      <trkpt lat="44.51762" lon="4.61117">
        <ele>175.60000610352</ele>
        <time>2020-05-31T07:09:37Z</time>
      </trkpt>
      <trkpt lat="44.51752" lon="4.61114">
        <ele>174.80000305176</ele>
        <time>2020-05-31T07:09:39Z</time>
      </trkpt>
      <trkpt lat="44.51747" lon="4.61114">
        <ele>174.39999389648</ele>
        <time>2020-05-31T07:09:40Z</time>
      </trkpt>
      <trkpt lat="44.51742" lon="4.61114">
        <ele>174.39999389648</ele>
        <time>2020-05-31T07:09:41Z</time>
      </trkpt>
      <trkpt lat="44.51738" lon="4.61115">
        <ele>174</ele>
        <time>2020-05-31T07:09:42Z</time>
      </trkpt>
      <trkpt lat="44.51734" lon="4.61116">
        <ele>173.19999694824</ele>
        <time>2020-05-31T07:09:43Z</time>
      </trkpt>
      <trkpt lat="44.5173" lon="4.61116">
        <ele>172.80000305176</ele>
        <time>2020-05-31T07:09:44Z</time>
      </trkpt>
      <trkpt lat="44.51726" lon="4.61115">
        <ele>171.80000305176</ele>
        <time>2020-05-31T07:09:45Z</time>
      </trkpt>
      <trkpt lat="44.51722" lon="4.61112">
        <ele>170.60000610352</ele>
        <time>2020-05-31T07:09:46Z</time>
      </trkpt>
      <trkpt lat="44.51719" lon="4.61109">
        <ele>170.19999694824</ele>
        <time>2020-05-31T07:09:47Z</time>
      </trkpt>
      <trkpt lat="44.51716" lon="4.61105">
        <ele>169.60000610352</ele>
        <time>2020-05-31T07:09:48Z</time>
      </trkpt>
      <trkpt lat="44.51713" lon="4.61102">
        <ele>169.60000610352</ele>
        <time>2020-05-31T07:09:49Z</time>
      </trkpt>
      <trkpt lat="44.51711" lon="4.61099">
        <ele>169.19999694824</ele>
        <time>2020-05-31T07:09:50Z</time>
      </trkpt>
      <trkpt lat="44.51709" lon="4.61096">
        <ele>168.60000610352</ele>
        <time>2020-05-31T07:09:51Z</time>
      </trkpt>
      <trkpt lat="44.51707" lon="4.61093">
        <ele>168.19999694824</ele>
        <time>2020-05-31T07:09:52Z</time>
      </trkpt>
      <trkpt lat="44.51705" lon="4.61091">
        <ele>167.60000610352</ele>
        <time>2020-05-31T07:09:53Z</time>
      </trkpt>
      <trkpt lat="44.51703" lon="4.61088">
        <ele>167.19999694824</ele>
        <time>2020-05-31T07:09:54Z</time>
      </trkpt>
      <trkpt lat="44.517" lon="4.61086">
        <ele>167.19999694824</ele>
        <time>2020-05-31T07:09:55Z</time>
      </trkpt>
      <trkpt lat="44.51697" lon="4.61084">
        <ele>166.80000305176</ele>
        <time>2020-05-31T07:09:56Z</time>
      </trkpt>
      <trkpt lat="44.51688" lon="4.61079">
        <ele>166.39999389648</ele>
        <time>2020-05-31T07:09:58Z</time>
      </trkpt>
      <trkpt lat="44.51682" lon="4.61076">
        <ele>166.19999694824</ele>
        <time>2020-05-31T07:09:59Z</time>
      </trkpt>
      <trkpt lat="44.51672" lon="4.61069">
        <ele>166</ele>
        <time>2020-05-31T07:10:01Z</time>
      </trkpt>
      <trkpt lat="44.51667" lon="4.61066">
        <ele>166</ele>
        <time>2020-05-31T07:10:02Z</time>
      </trkpt>
      <trkpt lat="44.51663" lon="4.61063">
        <ele>165.80000305176</ele>
        <time>2020-05-31T07:10:03Z</time>
      </trkpt>
      <trkpt lat="44.51659" lon="4.61061">
        <ele>165.60000610352</ele>
        <time>2020-05-31T07:10:04Z</time>
      </trkpt>
      <trkpt lat="44.51655" lon="4.61058">
        <ele>165.60000610352</ele>
        <time>2020-05-31T07:10:05Z</time>
      </trkpt>
      <trkpt lat="44.51652" lon="4.61056">
        <ele>165.19999694824</ele>
        <time>2020-05-31T07:10:06Z</time>
      </trkpt>
      <trkpt lat="44.51649" lon="4.61055">
        <ele>164.80000305176</ele>
        <time>2020-05-31T07:10:07Z</time>
      </trkpt>
      <trkpt lat="44.51647" lon="4.61053">
        <ele>164.19999694824</ele>
        <time>2020-05-31T07:10:08Z</time>
      </trkpt>
      <trkpt lat="44.51646" lon="4.61052">
        <ele>163.80000305176</ele>
        <time>2020-05-31T07:10:09Z</time>
      </trkpt>
      <trkpt lat="44.51645" lon="4.6105">
        <ele>163.39999389648</ele>
        <time>2020-05-31T07:10:10Z</time>
      </trkpt>
      <trkpt lat="44.51644" lon="4.61047">
        <ele>159.39999389648</ele>
        <time>2020-05-31T07:12:35Z</time>
      </trkpt>
      <trkpt lat="44.51642" lon="4.61049">
        <ele>159.60000610352</ele>
        <time>2020-05-31T07:12:36Z</time>
      </trkpt>
      <trkpt lat="44.51641" lon="4.61049">
        <ele>159.60000610352</ele>
        <time>2020-05-31T07:12:37Z</time>
      </trkpt>
      <trkpt lat="44.51638" lon="4.6105">
        <ele>159.80000305176</ele>
        <time>2020-05-31T07:12:38Z</time>
      </trkpt>
      <trkpt lat="44.51624" lon="4.61052">
        <ele>159.60000610352</ele>
        <time>2020-05-31T07:12:42Z</time>
      </trkpt>
      <trkpt lat="44.51622" lon="4.61053">
        <ele>159.80000305176</ele>
        <time>2020-05-31T07:12:43Z</time>
      </trkpt>
      <trkpt lat="44.5162" lon="4.61054">
        <ele>159.80000305176</ele>
        <time>2020-05-31T07:12:44Z</time>
      </trkpt>
      <trkpt lat="44.51618" lon="4.61056">
        <ele>159.60000610352</ele>
        <time>2020-05-31T07:12:45Z</time>
      </trkpt>
      <trkpt lat="44.51612" lon="4.61062">
        <ele>159.60000610352</ele>
        <time>2020-05-31T07:12:47Z</time>
      </trkpt>
      <trkpt lat="44.51609" lon="4.61065">
        <ele>159.60000610352</ele>
        <time>2020-05-31T07:12:48Z</time>
      </trkpt>
      <trkpt lat="44.51605" lon="4.6107">
        <ele>159.60000610352</ele>
        <time>2020-05-31T07:12:49Z</time>
      </trkpt>
      <trkpt lat="44.51602" lon="4.61076">
        <ele>159.80000305176</ele>
        <time>2020-05-31T07:12:50Z</time>
      </trkpt>
      <trkpt lat="44.51599" lon="4.61083">
        <ele>159.60000610352</ele>
        <time>2020-05-31T07:12:51Z</time>
      </trkpt>
      <trkpt lat="44.51593" lon="4.61098">
        <ele>159.19999694824</ele>
        <time>2020-05-31T07:12:53Z</time>
      </trkpt>
      <trkpt lat="44.51587" lon="4.61114">
        <ele>159</ele>
        <time>2020-05-31T07:12:55Z</time>
      </trkpt>
      <trkpt lat="44.51583" lon="4.6112">
        <ele>158.19999694824</ele>
        <time>2020-05-31T07:12:56Z</time>
      </trkpt>
      <trkpt lat="44.51579" lon="4.61124">
        <ele>157.80000305176</ele>
        <time>2020-05-31T07:12:57Z</time>
      </trkpt>
      <trkpt lat="44.51576" lon="4.61128">
        <ele>157</ele>
        <time>2020-05-31T07:12:58Z</time>
      </trkpt>
      <trkpt lat="44.51573" lon="4.61131">
        <ele>155</ele>
        <time>2020-05-31T07:12:59Z</time>
      </trkpt>
      <trkpt lat="44.5157" lon="4.61134">
        <ele>153.80000305176</ele>
        <time>2020-05-31T07:13:00Z</time>
      </trkpt>
      <trkpt lat="44.51568" lon="4.61138">
        <ele>152.80000305176</ele>
        <time>2020-05-31T07:13:01Z</time>
      </trkpt>
      <trkpt lat="44.51565" lon="4.6114">
        <ele>152.39999389648</ele>
        <time>2020-05-31T07:13:02Z</time>
      </trkpt>
      <trkpt lat="44.51563" lon="4.61142">
        <ele>152.39999389648</ele>
        <time>2020-05-31T07:13:03Z</time>
      </trkpt>
      <trkpt lat="44.51561" lon="4.61144">
        <ele>152.19999694824</ele>
        <time>2020-05-31T07:13:04Z</time>
      </trkpt>
      <trkpt lat="44.5156" lon="4.61147">
        <ele>152</ele>
        <time>2020-05-31T07:13:05Z</time>
      </trkpt>
      <trkpt lat="44.51559" lon="4.6115">
        <ele>152</ele>
        <time>2020-05-31T07:13:06Z</time>
      </trkpt>
      <trkpt lat="44.51558" lon="4.61153">
        <ele>152</ele>
        <time>2020-05-31T07:13:07Z</time>
      </trkpt>
      <trkpt lat="44.51556" lon="4.61156">
        <ele>152</ele>
        <time>2020-05-31T07:13:08Z</time>
      </trkpt>
      <trkpt lat="44.51555" lon="4.61159">
        <ele>152.19999694824</ele>
        <time>2020-05-31T07:13:09Z</time>
      </trkpt>
      <trkpt lat="44.51554" lon="4.61162">
        <ele>152</ele>
        <time>2020-05-31T07:13:10Z</time>
      </trkpt>
      <trkpt lat="44.51552" lon="4.61164">
        <ele>152.39999389648</ele>
        <time>2020-05-31T07:13:11Z</time>
      </trkpt>
      <trkpt lat="44.51549" lon="4.61166">
        <ele>152.60000610352</ele>
        <time>2020-05-31T07:13:12Z</time>
      </trkpt>
      <trkpt lat="44.51546" lon="4.6117">
        <ele>152.80000305176</ele>
        <time>2020-05-31T07:13:13Z</time>
      </trkpt>
      <trkpt lat="44.51545" lon="4.61174">
        <ele>153</ele>
        <time>2020-05-31T07:13:14Z</time>
      </trkpt>
      <trkpt lat="44.51544" lon="4.6118">
        <ele>153</ele>
        <time>2020-05-31T07:13:15Z</time>
      </trkpt>
      <trkpt lat="44.51544" lon="4.61187">
        <ele>153</ele>
        <time>2020-05-31T07:13:16Z</time>
      </trkpt>
      <trkpt lat="44.51543" lon="4.61201">
        <ele>153</ele>
        <time>2020-05-31T07:13:18Z</time>
      </trkpt>
      <trkpt lat="44.51542" lon="4.61205">
        <ele>153.19999694824</ele>
        <time>2020-05-31T07:13:19Z</time>
      </trkpt>
      <trkpt lat="44.51541" lon="4.61209">
        <ele>153</ele>
        <time>2020-05-31T07:13:20Z</time>
      </trkpt>
      <trkpt lat="44.5154" lon="4.61212">
        <ele>153.19999694824</ele>
        <time>2020-05-31T07:13:21Z</time>
      </trkpt>
      <trkpt lat="44.51539" lon="4.61216">
        <ele>153.19999694824</ele>
        <time>2020-05-31T07:13:22Z</time>
      </trkpt>
      <trkpt lat="44.51539" lon="4.6122">
        <ele>153</ele>
        <time>2020-05-31T07:13:23Z</time>
      </trkpt>
      <trkpt lat="44.5154" lon="4.61224">
        <ele>152.80000305176</ele>
        <time>2020-05-31T07:13:24Z</time>
      </trkpt>
      <trkpt lat="44.51542" lon="4.61233">
        <ele>151.60000610352</ele>
        <time>2020-05-31T07:13:26Z</time>
      </trkpt>
      <trkpt lat="44.51542" lon="4.61236">
        <ele>150.80000305176</ele>
        <time>2020-05-31T07:13:27Z</time>
      </trkpt>
      <trkpt lat="44.51542" lon="4.61239">
        <ele>150.39999389648</ele>
        <time>2020-05-31T07:13:28Z</time>
      </trkpt>
      <trkpt lat="44.51542" lon="4.61242">
        <ele>149.80000305176</ele>
        <time>2020-05-31T07:13:29Z</time>
      </trkpt>
      <trkpt lat="44.5154" lon="4.61244">
        <ele>149.39999389648</ele>
        <time>2020-05-31T07:13:30Z</time>
      </trkpt>
      <trkpt lat="44.51538" lon="4.61247">
        <ele>148.60000610352</ele>
        <time>2020-05-31T07:13:31Z</time>
      </trkpt>
      <trkpt lat="44.51536" lon="4.61248">
        <ele>148</ele>
        <time>2020-05-31T07:13:32Z</time>
      </trkpt>
      <trkpt lat="44.51533" lon="4.61249">
        <ele>147.19999694824</ele>
        <time>2020-05-31T07:13:33Z</time>
      </trkpt>
      <trkpt lat="44.5153" lon="4.6125">
        <ele>146.39999389648</ele>
        <time>2020-05-31T07:13:34Z</time>
      </trkpt>
      <trkpt lat="44.51526" lon="4.6125">
        <ele>146</ele>
        <time>2020-05-31T07:13:35Z</time>
      </trkpt>
      <trkpt lat="44.51518" lon="4.61252">
        <ele>145.19999694824</ele>
        <time>2020-05-31T07:13:37Z</time>
      </trkpt>
      <trkpt lat="44.51507" lon="4.61257">
        <ele>144.39999389648</ele>
        <time>2020-05-31T07:13:39Z</time>
      </trkpt>
      <trkpt lat="44.515" lon="4.6126">
        <ele>143.60000610352</ele>
        <time>2020-05-31T07:13:40Z</time>
      </trkpt>
      <trkpt lat="44.51494" lon="4.61264">
        <ele>142.39999389648</ele>
        <time>2020-05-31T07:13:41Z</time>
      </trkpt>
      <trkpt lat="44.51481" lon="4.61271">
        <ele>140.80000305176</ele>
        <time>2020-05-31T07:13:43Z</time>
      </trkpt>
      <trkpt lat="44.51475" lon="4.61275">
        <ele>140.39999389648</ele>
        <time>2020-05-31T07:13:44Z</time>
      </trkpt>
      <trkpt lat="44.51462" lon="4.61283">
        <ele>138.60000610352</ele>
        <time>2020-05-31T07:13:46Z</time>
      </trkpt>
      <trkpt lat="44.51457" lon="4.61288">
        <ele>137.80000305176</ele>
        <time>2020-05-31T07:13:47Z</time>
      </trkpt>
      <trkpt lat="44.51452" lon="4.61292">
        <ele>137.19999694824</ele>
        <time>2020-05-31T07:13:48Z</time>
      </trkpt>
      <trkpt lat="44.51447" lon="4.61296">
        <ele>136.39999389648</ele>
        <time>2020-05-31T07:13:49Z</time>
      </trkpt>
      <trkpt lat="44.51437" lon="4.61302">
        <ele>135</ele>
        <time>2020-05-31T07:13:51Z</time>
      </trkpt>
      <trkpt lat="44.51432" lon="4.61305">
        <ele>134.60000610352</ele>
        <time>2020-05-31T07:13:52Z</time>
      </trkpt>
      <trkpt lat="44.51426" lon="4.61308">
        <ele>133.80000305176</ele>
        <time>2020-05-31T07:13:53Z</time>
      </trkpt>
      <trkpt lat="44.51415" lon="4.61314">
        <ele>132.60000610352</ele>
        <time>2020-05-31T07:13:55Z</time>
      </trkpt>
      <trkpt lat="44.5141" lon="4.61317">
        <ele>131.80000305176</ele>
        <time>2020-05-31T07:13:56Z</time>
      </trkpt>
      <trkpt lat="44.51405" lon="4.6132">
        <ele>131.80000305176</ele>
        <time>2020-05-31T07:13:57Z</time>
      </trkpt>
      <trkpt lat="44.514" lon="4.61322">
        <ele>131.19999694824</ele>
        <time>2020-05-31T07:13:58Z</time>
      </trkpt>
      <trkpt lat="44.51395" lon="4.61323">
        <ele>130.80000305176</ele>
        <time>2020-05-31T07:13:59Z</time>
      </trkpt>
      <trkpt lat="44.5139" lon="4.61322">
        <ele>130.19999694824</ele>
        <time>2020-05-31T07:14:00Z</time>
      </trkpt>
      <trkpt lat="44.51386" lon="4.61319">
        <ele>130</ele>
        <time>2020-05-31T07:14:01Z</time>
      </trkpt>
      <trkpt lat="44.51382" lon="4.61314">
        <ele>129.60000610352</ele>
        <time>2020-05-31T07:14:02Z</time>
      </trkpt>
      <trkpt lat="44.51379" lon="4.6131">
        <ele>128.60000610352</ele>
        <time>2020-05-31T07:14:03Z</time>
      </trkpt>
      <trkpt lat="44.51378" lon="4.61304">
        <ele>127.59999847412</ele>
        <time>2020-05-31T07:14:04Z</time>
      </trkpt>
      <trkpt lat="44.51377" lon="4.61298">
        <ele>127.19999694824</ele>
        <time>2020-05-31T07:14:05Z</time>
      </trkpt>
      <trkpt lat="44.51376" lon="4.61292">
        <ele>126.80000305176</ele>
        <time>2020-05-31T07:14:06Z</time>
      </trkpt>
      <trkpt lat="44.51375" lon="4.61285">
        <ele>126.80000305176</ele>
        <time>2020-05-31T07:14:07Z</time>
      </trkpt>
      <trkpt lat="44.51374" lon="4.61272">
        <ele>126.59999847412</ele>
        <time>2020-05-31T07:14:09Z</time>
      </trkpt>
      <trkpt lat="44.51373" lon="4.61266">
        <ele>126.80000305176</ele>
        <time>2020-05-31T07:14:10Z</time>
      </trkpt>
      <trkpt lat="44.51372" lon="4.61259">
        <ele>126.59999847412</ele>
        <time>2020-05-31T07:14:11Z</time>
      </trkpt>
      <trkpt lat="44.51371" lon="4.61252">
        <ele>126.80000305176</ele>
        <time>2020-05-31T07:14:12Z</time>
      </trkpt>
      <trkpt lat="44.51371" lon="4.61246">
        <ele>126.59999847412</ele>
        <time>2020-05-31T07:14:13Z</time>
      </trkpt>
      <trkpt lat="44.5137" lon="4.6124">
        <ele>126.59999847412</ele>
        <time>2020-05-31T07:14:14Z</time>
      </trkpt>
      <trkpt lat="44.51369" lon="4.61236">
        <ele>126.59999847412</ele>
        <time>2020-05-31T07:14:15Z</time>
      </trkpt>
      <trkpt lat="44.51368" lon="4.61235">
        <ele>126.80000305176</ele>
        <time>2020-05-31T07:14:16Z</time>
      </trkpt>
      <trkpt lat="44.51367" lon="4.61236">
        <ele>126.80000305176</ele>
        <time>2020-05-31T07:14:17Z</time>
      </trkpt>
      <trkpt lat="44.51366" lon="4.61238">
        <ele>126.80000305176</ele>
        <time>2020-05-31T07:14:18Z</time>
      </trkpt>
      <trkpt lat="44.51366" lon="4.61242">
        <ele>126.80000305176</ele>
        <time>2020-05-31T07:14:19Z</time>
      </trkpt>
      <trkpt lat="44.51367" lon="4.61247">
        <ele>126.80000305176</ele>
        <time>2020-05-31T07:14:20Z</time>
      </trkpt>
      <trkpt lat="44.51367" lon="4.61251">
        <ele>127</ele>
        <time>2020-05-31T07:14:21Z</time>
      </trkpt>
      <trkpt lat="44.51367" lon="4.61256">
        <ele>127.19999694824</ele>
        <time>2020-05-31T07:14:22Z</time>
      </trkpt>
      <trkpt lat="44.51371" lon="4.61289">
        <ele>128.39999389648</ele>
        <time>2020-05-31T07:14:28Z</time>
      </trkpt>
      <trkpt lat="44.51372" lon="4.61295">
        <ele>128.39999389648</ele>
        <time>2020-05-31T07:14:29Z</time>
      </trkpt>
      <trkpt lat="44.51372" lon="4.61301">
        <ele>128.39999389648</ele>
        <time>2020-05-31T07:14:30Z</time>
      </trkpt>
      <trkpt lat="44.51372" lon="4.61306">
        <ele>128.60000610352</ele>
        <time>2020-05-31T07:14:31Z</time>
      </trkpt>
      <trkpt lat="44.51371" lon="4.6131">
        <ele>128.39999389648</ele>
        <time>2020-05-31T07:14:32Z</time>
      </trkpt>
      <trkpt lat="44.5137" lon="4.61314">
        <ele>128.39999389648</ele>
        <time>2020-05-31T07:14:33Z</time>
      </trkpt>
      <trkpt lat="44.51369" lon="4.61318">
        <ele>128.39999389648</ele>
        <time>2020-05-31T07:14:34Z</time>
      </trkpt>
      <trkpt lat="44.51369" lon="4.61321">
        <ele>128.60000610352</ele>
        <time>2020-05-31T07:14:35Z</time>
      </trkpt>
      <trkpt lat="44.51368" lon="4.61323">
        <ele>128.60000610352</ele>
        <time>2020-05-31T07:14:36Z</time>
      </trkpt>
      <trkpt lat="44.51368" lon="4.61324">
        <ele>128.60000610352</ele>
        <time>2020-05-31T07:14:37Z</time>
      </trkpt>
      <trkpt lat="44.51367" lon="4.61325">
        <ele>128.60000610352</ele>
        <time>2020-05-31T07:14:38Z</time>
      </trkpt>
      <trkpt lat="44.51367" lon="4.61326">
        <ele>128.60000610352</ele>
        <time>2020-05-31T07:14:39Z</time>
      </trkpt>
      <trkpt lat="44.51366" lon="4.61327">
        <ele>128.60000610352</ele>
        <time>2020-05-31T07:14:40Z</time>
      </trkpt>
      <trkpt lat="44.51366" lon="4.61328">
        <ele>128.60000610352</ele>
        <time>2020-05-31T07:14:41Z</time>
      </trkpt>
      <trkpt lat="44.51365" lon="4.61328">
        <ele>128.60000610352</ele>
        <time>2020-05-31T07:14:42Z</time>
      </trkpt>
      <trkpt lat="44.51364" lon="4.61327">
        <ele>128.80000305176</ele>
        <time>2020-05-31T07:14:43Z</time>
      </trkpt>
      <trkpt lat="44.51361" lon="4.61325">
        <ele>129</ele>
        <time>2020-05-31T07:14:49Z</time>
      </trkpt>
      <trkpt lat="44.51361" lon="4.61325">
        <ele>128.80000305176</ele>
        <time>2020-05-31T07:14:50Z</time>
      </trkpt>
      <trkpt lat="44.5136" lon="4.61324">
        <ele>128.80000305176</ele>
        <time>2020-05-31T07:14:51Z</time>
      </trkpt>
      <trkpt lat="44.51359" lon="4.61323">
        <ele>129</ele>
        <time>2020-05-31T07:14:53Z</time>
      </trkpt>
      <trkpt lat="44.51359" lon="4.61323">
        <ele>128.80000305176</ele>
        <time>2020-05-31T07:14:56Z</time>
      </trkpt>
      <trkpt lat="44.51358" lon="4.61322">
        <ele>129</ele>
        <time>2020-05-31T07:14:58Z</time>
      </trkpt>
      <trkpt lat="44.51356" lon="4.61321">
        <ele>128.80000305176</ele>
        <time>2020-05-31T07:14:59Z</time>
      </trkpt>
      <trkpt lat="44.51354" lon="4.61319">
        <ele>128.80000305176</ele>
        <time>2020-05-31T07:15:00Z</time>
      </trkpt>
      <trkpt lat="44.51348" lon="4.61312">
        <ele>128.80000305176</ele>
        <time>2020-05-31T07:15:03Z</time>
      </trkpt>
      <trkpt lat="44.51347" lon="4.61309">
        <ele>128.80000305176</ele>
        <time>2020-05-31T07:15:04Z</time>
      </trkpt>
      <trkpt lat="44.51345" lon="4.61308">
        <ele>128.80000305176</ele>
        <time>2020-05-31T07:15:05Z</time>
      </trkpt>
      <trkpt lat="44.51344" lon="4.61306">
        <ele>129</ele>
        <time>2020-05-31T07:15:06Z</time>
      </trkpt>
      <trkpt lat="44.51343" lon="4.61304">
        <ele>128.80000305176</ele>
        <time>2020-05-31T07:15:07Z</time>
      </trkpt>
      <trkpt lat="44.51342" lon="4.61302">
        <ele>128.80000305176</ele>
        <time>2020-05-31T07:15:08Z</time>
      </trkpt>
      <trkpt lat="44.51341" lon="4.613">
        <ele>128.80000305176</ele>
        <time>2020-05-31T07:15:09Z</time>
      </trkpt>
      <trkpt lat="44.5134" lon="4.61299">
        <ele>128.80000305176</ele>
        <time>2020-05-31T07:15:10Z</time>
      </trkpt>
      <trkpt lat="44.51339" lon="4.61297">
        <ele>129</ele>
        <time>2020-05-31T07:15:11Z</time>
      </trkpt>
      <trkpt lat="44.51339" lon="4.61296">
        <ele>129.39999389648</ele>
        <time>2020-05-31T07:15:12Z</time>
      </trkpt>
      <trkpt lat="44.51338" lon="4.61295">
        <ele>130.19999694824</ele>
        <time>2020-05-31T07:15:13Z</time>
      </trkpt>
      <trkpt lat="44.51338" lon="4.61293">
        <ele>130.60000610352</ele>
        <time>2020-05-31T07:15:14Z</time>
      </trkpt>
      <trkpt lat="44.51337" lon="4.61291">
        <ele>130.80000305176</ele>
        <time>2020-05-31T07:15:15Z</time>
      </trkpt>
      <trkpt lat="44.51336" lon="4.6129">
        <ele>131.39999389648</ele>
        <time>2020-05-31T07:15:16Z</time>
      </trkpt>
      <trkpt lat="44.51335" lon="4.61288">
        <ele>131.80000305176</ele>
        <time>2020-05-31T07:15:17Z</time>
      </trkpt>
      <trkpt lat="44.51335" lon="4.61287">
        <ele>132.19999694824</ele>
        <time>2020-05-31T07:15:18Z</time>
      </trkpt>
      <trkpt lat="44.51333" lon="4.61286">
        <ele>132.60000610352</ele>
        <time>2020-05-31T07:15:19Z</time>
      </trkpt>
      <trkpt lat="44.51332" lon="4.61285">
        <ele>132.80000305176</ele>
        <time>2020-05-31T07:15:20Z</time>
      </trkpt>
      <trkpt lat="44.5133" lon="4.61284">
        <ele>133.19999694824</ele>
        <time>2020-05-31T07:15:21Z</time>
      </trkpt>
      <trkpt lat="44.51328" lon="4.61283">
        <ele>133.19999694824</ele>
        <time>2020-05-31T07:15:22Z</time>
      </trkpt>
      <trkpt lat="44.51327" lon="4.61282">
        <ele>133.60000610352</ele>
        <time>2020-05-31T07:15:23Z</time>
      </trkpt>
      <trkpt lat="44.51325" lon="4.61282">
        <ele>134</ele>
        <time>2020-05-31T07:15:24Z</time>
      </trkpt>
      <trkpt lat="44.51324" lon="4.61282">
        <ele>134.39999389648</ele>
        <time>2020-05-31T07:15:25Z</time>
      </trkpt>
      <trkpt lat="44.51322" lon="4.61281">
        <ele>134.60000610352</ele>
        <time>2020-05-31T07:15:26Z</time>
      </trkpt>
      <trkpt lat="44.51321" lon="4.6128">
        <ele>135</ele>
        <time>2020-05-31T07:15:27Z</time>
      </trkpt>
      <trkpt lat="44.5132" lon="4.61279">
        <ele>135.19999694824</ele>
        <time>2020-05-31T07:15:28Z</time>
      </trkpt>
      <trkpt lat="44.51318" lon="4.61278">
        <ele>135.60000610352</ele>
        <time>2020-05-31T07:15:29Z</time>
      </trkpt>
      <trkpt lat="44.51317" lon="4.61277">
        <ele>135.80000305176</ele>
        <time>2020-05-31T07:15:30Z</time>
      </trkpt>
      <trkpt lat="44.51317" lon="4.61276">
        <ele>136</ele>
        <time>2020-05-31T07:15:31Z</time>
      </trkpt>
      <trkpt lat="44.51316" lon="4.61275">
        <ele>136.19999694824</ele>
        <time>2020-05-31T07:15:32Z</time>
      </trkpt>
      <trkpt lat="44.51315" lon="4.61274">
        <ele>136.19999694824</ele>
        <time>2020-05-31T07:15:33Z</time>
      </trkpt>
      <trkpt lat="44.51313" lon="4.61273">
        <ele>136.39999389648</ele>
        <time>2020-05-31T07:15:34Z</time>
      </trkpt>
      <trkpt lat="44.51312" lon="4.61272">
        <ele>136.60000610352</ele>
        <time>2020-05-31T07:15:35Z</time>
      </trkpt>
      <trkpt lat="44.51311" lon="4.61271">
        <ele>136.80000305176</ele>
        <time>2020-05-31T07:15:36Z</time>
      </trkpt>
      <trkpt lat="44.5131" lon="4.6127">
        <ele>137</ele>
        <time>2020-05-31T07:15:37Z</time>
      </trkpt>
      <trkpt lat="44.51309" lon="4.6127">
        <ele>137</ele>
        <time>2020-05-31T07:15:38Z</time>
      </trkpt>
      <trkpt lat="44.51308" lon="4.61269">
        <ele>137.19999694824</ele>
        <time>2020-05-31T07:15:39Z</time>
      </trkpt>
      <trkpt lat="44.51307" lon="4.61267">
        <ele>137.60000610352</ele>
        <time>2020-05-31T07:15:40Z</time>
      </trkpt>
      <trkpt lat="44.51306" lon="4.61266">
        <ele>138</ele>
        <time>2020-05-31T07:15:41Z</time>
      </trkpt>
      <trkpt lat="44.51305" lon="4.61265">
        <ele>138</ele>
        <time>2020-05-31T07:15:42Z</time>
      </trkpt>
      <trkpt lat="44.51304" lon="4.61264">
        <ele>138</ele>
        <time>2020-05-31T07:15:43Z</time>
      </trkpt>
      <trkpt lat="44.51303" lon="4.61263">
        <ele>138.39999389648</ele>
        <time>2020-05-31T07:15:44Z</time>
      </trkpt>
      <trkpt lat="44.51301" lon="4.61262">
        <ele>138.80000305176</ele>
        <time>2020-05-31T07:15:45Z</time>
      </trkpt>
      <trkpt lat="44.513" lon="4.6126">
        <ele>139</ele>
        <time>2020-05-31T07:15:46Z</time>
      </trkpt>
      <trkpt lat="44.51299" lon="4.61259">
        <ele>139.60000610352</ele>
        <time>2020-05-31T07:15:47Z</time>
      </trkpt>
      <trkpt lat="44.51298" lon="4.61259">
        <ele>139.80000305176</ele>
        <time>2020-05-31T07:15:48Z</time>
      </trkpt>
      <trkpt lat="44.51297" lon="4.61258">
        <ele>140</ele>
        <time>2020-05-31T07:15:49Z</time>
      </trkpt>
      <trkpt lat="44.51296" lon="4.61257">
        <ele>140.39999389648</ele>
        <time>2020-05-31T07:15:50Z</time>
      </trkpt>
      <trkpt lat="44.51295" lon="4.61255">
        <ele>140.60000610352</ele>
        <time>2020-05-31T07:15:51Z</time>
      </trkpt>
      <trkpt lat="44.51294" lon="4.61254">
        <ele>141</ele>
        <time>2020-05-31T07:15:52Z</time>
      </trkpt>
      <trkpt lat="44.51292" lon="4.61253">
        <ele>141.39999389648</ele>
        <time>2020-05-31T07:15:53Z</time>
      </trkpt>
      <trkpt lat="44.51291" lon="4.61252">
        <ele>141.60000610352</ele>
        <time>2020-05-31T07:15:54Z</time>
      </trkpt>
      <trkpt lat="44.51291" lon="4.61251">
        <ele>141.60000610352</ele>
        <time>2020-05-31T07:15:55Z</time>
      </trkpt>
      <trkpt lat="44.5129" lon="4.61251">
        <ele>142</ele>
        <time>2020-05-31T07:15:56Z</time>
      </trkpt>
      <trkpt lat="44.51288" lon="4.61249">
        <ele>142.39999389648</ele>
        <time>2020-05-31T07:15:57Z</time>
      </trkpt>
      <trkpt lat="44.51287" lon="4.61248">
        <ele>142.60000610352</ele>
        <time>2020-05-31T07:15:58Z</time>
      </trkpt>
      <trkpt lat="44.51286" lon="4.61247">
        <ele>142.80000305176</ele>
        <time>2020-05-31T07:15:59Z</time>
      </trkpt>
      <trkpt lat="44.51284" lon="4.61246">
        <ele>143</ele>
        <time>2020-05-31T07:16:00Z</time>
      </trkpt>
      <trkpt lat="44.51283" lon="4.61245">
        <ele>143.19999694824</ele>
        <time>2020-05-31T07:16:01Z</time>
      </trkpt>
      <trkpt lat="44.51282" lon="4.61244">
        <ele>143.39999389648</ele>
        <time>2020-05-31T07:16:02Z</time>
      </trkpt>
      <trkpt lat="44.5128" lon="4.61243">
        <ele>143.80000305176</ele>
        <time>2020-05-31T07:16:03Z</time>
      </trkpt>
      <trkpt lat="44.5128" lon="4.61241">
        <ele>144</ele>
        <time>2020-05-31T07:16:04Z</time>
      </trkpt>
      <trkpt lat="44.5128" lon="4.61238">
        <ele>144</ele>
        <time>2020-05-31T07:16:05Z</time>
      </trkpt>
      <trkpt lat="44.51279" lon="4.61235">
        <ele>144.39999389648</ele>
        <time>2020-05-31T07:16:06Z</time>
      </trkpt>
      <trkpt lat="44.51278" lon="4.61232">
        <ele>144.39999389648</ele>
        <time>2020-05-31T07:16:07Z</time>
      </trkpt>
      <trkpt lat="44.51277" lon="4.61229">
        <ele>144.60000610352</ele>
        <time>2020-05-31T07:16:08Z</time>
      </trkpt>
      <trkpt lat="44.51276" lon="4.61226">
        <ele>144.80000305176</ele>
        <time>2020-05-31T07:16:09Z</time>
      </trkpt>
      <trkpt lat="44.51275" lon="4.61224">
        <ele>145.19999694824</ele>
        <time>2020-05-31T07:16:10Z</time>
      </trkpt>
      <trkpt lat="44.51274" lon="4.61221">
        <ele>145.39999389648</ele>
        <time>2020-05-31T07:16:11Z</time>
      </trkpt>
      <trkpt lat="44.51274" lon="4.61218">
        <ele>145.60000610352</ele>
        <time>2020-05-31T07:16:12Z</time>
      </trkpt>
      <trkpt lat="44.51273" lon="4.61216">
        <ele>145.80000305176</ele>
        <time>2020-05-31T07:16:13Z</time>
      </trkpt>
      <trkpt lat="44.51273" lon="4.61214">
        <ele>146</ele>
        <time>2020-05-31T07:16:14Z</time>
      </trkpt>
      <trkpt lat="44.51272" lon="4.61212">
        <ele>146</ele>
        <time>2020-05-31T07:16:15Z</time>
      </trkpt>
      <trkpt lat="44.51272" lon="4.6121">
        <ele>146.19999694824</ele>
        <time>2020-05-31T07:16:16Z</time>
      </trkpt>
      <trkpt lat="44.51271" lon="4.61208">
        <ele>146.60000610352</ele>
        <time>2020-05-31T07:16:17Z</time>
      </trkpt>
      <trkpt lat="44.5127" lon="4.61206">
        <ele>146.80000305176</ele>
        <time>2020-05-31T07:16:18Z</time>
      </trkpt>
      <trkpt lat="44.51269" lon="4.61203">
        <ele>147.19999694824</ele>
        <time>2020-05-31T07:16:19Z</time>
      </trkpt>
      <trkpt lat="44.51269" lon="4.61201">
        <ele>147.19999694824</ele>
        <time>2020-05-31T07:16:20Z</time>
      </trkpt>
      <trkpt lat="44.51268" lon="4.61199">
        <ele>147.60000610352</ele>
        <time>2020-05-31T07:16:21Z</time>
      </trkpt>
      <trkpt lat="44.51268" lon="4.61197">
        <ele>148.19999694824</ele>
        <time>2020-05-31T07:16:22Z</time>
      </trkpt>
      <trkpt lat="44.51268" lon="4.61195">
        <ele>148.39999389648</ele>
        <time>2020-05-31T07:16:23Z</time>
      </trkpt>
      <trkpt lat="44.51267" lon="4.61193">
        <ele>148.80000305176</ele>
        <time>2020-05-31T07:16:24Z</time>
      </trkpt>
      <trkpt lat="44.51266" lon="4.6119">
        <ele>149.19999694824</ele>
        <time>2020-05-31T07:16:25Z</time>
      </trkpt>
      <trkpt lat="44.51266" lon="4.61187">
        <ele>149.60000610352</ele>
        <time>2020-05-31T07:16:26Z</time>
      </trkpt>
      <trkpt lat="44.51265" lon="4.61185">
        <ele>149.60000610352</ele>
        <time>2020-05-31T07:16:27Z</time>
      </trkpt>
      <trkpt lat="44.51265" lon="4.61182">
        <ele>150</ele>
        <time>2020-05-31T07:16:28Z</time>
      </trkpt>
      <trkpt lat="44.51264" lon="4.6118">
        <ele>150.39999389648</ele>
        <time>2020-05-31T07:16:29Z</time>
      </trkpt>
      <trkpt lat="44.51264" lon="4.61177">
        <ele>150.39999389648</ele>
        <time>2020-05-31T07:16:30Z</time>
      </trkpt>
      <trkpt lat="44.51263" lon="4.61175">
        <ele>150.60000610352</ele>
        <time>2020-05-31T07:16:31Z</time>
      </trkpt>
      <trkpt lat="44.51263" lon="4.61172">
        <ele>151.19999694824</ele>
        <time>2020-05-31T07:16:32Z</time>
      </trkpt>
      <trkpt lat="44.51262" lon="4.6117">
        <ele>151.39999389648</ele>
        <time>2020-05-31T07:16:33Z</time>
      </trkpt>
      <trkpt lat="44.51262" lon="4.61168">
        <ele>151.60000610352</ele>
        <time>2020-05-31T07:16:34Z</time>
      </trkpt>
      <trkpt lat="44.51262" lon="4.61166">
        <ele>152</ele>
        <time>2020-05-31T07:16:35Z</time>
      </trkpt>
      <trkpt lat="44.51261" lon="4.61163">
        <ele>152.19999694824</ele>
        <time>2020-05-31T07:16:36Z</time>
      </trkpt>
      <trkpt lat="44.51261" lon="4.61161">
        <ele>152.39999389648</ele>
        <time>2020-05-31T07:16:37Z</time>
      </trkpt>
      <trkpt lat="44.51261" lon="4.61158">
        <ele>152.60000610352</ele>
        <time>2020-05-31T07:16:38Z</time>
      </trkpt>
      <trkpt lat="44.51262" lon="4.61156">
        <ele>152.60000610352</ele>
        <time>2020-05-31T07:16:39Z</time>
      </trkpt>
      <trkpt lat="44.51262" lon="4.61153">
        <ele>152.80000305176</ele>
        <time>2020-05-31T07:16:40Z</time>
      </trkpt>
      <trkpt lat="44.51262" lon="4.61151">
        <ele>153</ele>
        <time>2020-05-31T07:16:41Z</time>
      </trkpt>
      <trkpt lat="44.51263" lon="4.61149">
        <ele>153.19999694824</ele>
        <time>2020-05-31T07:16:42Z</time>
      </trkpt>
      <trkpt lat="44.51264" lon="4.61146">
        <ele>153.39999389648</ele>
        <time>2020-05-31T07:16:43Z</time>
      </trkpt>
      <trkpt lat="44.51265" lon="4.61144">
        <ele>153.39999389648</ele>
        <time>2020-05-31T07:16:44Z</time>
      </trkpt>
      <trkpt lat="44.51266" lon="4.61139">
        <ele>153.80000305176</ele>
        <time>2020-05-31T07:16:46Z</time>
      </trkpt>
      <trkpt lat="44.51267" lon="4.61136">
        <ele>154</ele>
        <time>2020-05-31T07:16:47Z</time>
      </trkpt>
      <trkpt lat="44.5127" lon="4.61128">
        <ele>154.19999694824</ele>
        <time>2020-05-31T07:16:50Z</time>
      </trkpt>
      <trkpt lat="44.51271" lon="4.61126">
        <ele>154.19999694824</ele>
        <time>2020-05-31T07:16:51Z</time>
      </trkpt>
      <trkpt lat="44.51271" lon="4.61123">
        <ele>154.60000610352</ele>
        <time>2020-05-31T07:16:52Z</time>
      </trkpt>
      <trkpt lat="44.51272" lon="4.61121">
        <ele>154.39999389648</ele>
        <time>2020-05-31T07:16:53Z</time>
      </trkpt>
      <trkpt lat="44.51272" lon="4.61118">
        <ele>154.39999389648</ele>
        <time>2020-05-31T07:16:54Z</time>
      </trkpt>
      <trkpt lat="44.51274" lon="4.61106">
        <ele>154.80000305176</ele>
        <time>2020-05-31T07:16:59Z</time>
      </trkpt>
      <trkpt lat="44.51275" lon="4.611">
        <ele>154.80000305176</ele>
        <time>2020-05-31T07:17:01Z</time>
      </trkpt>
      <trkpt lat="44.51276" lon="4.61098">
        <ele>154.80000305176</ele>
        <time>2020-05-31T07:17:02Z</time>
      </trkpt>
      <trkpt lat="44.51277" lon="4.61083">
        <ele>155.39999389648</ele>
        <time>2020-05-31T07:17:07Z</time>
      </trkpt>
      <trkpt lat="44.51277" lon="4.61079">
        <ele>155.39999389648</ele>
        <time>2020-05-31T07:17:08Z</time>
      </trkpt>
      <trkpt lat="44.51276" lon="4.61076">
        <ele>155.60000610352</ele>
        <time>2020-05-31T07:17:09Z</time>
      </trkpt>
      <trkpt lat="44.51275" lon="4.61072">
        <ele>155.60000610352</ele>
        <time>2020-05-31T07:17:10Z</time>
      </trkpt>
      <trkpt lat="44.51274" lon="4.61069">
        <ele>155.60000610352</ele>
        <time>2020-05-31T07:17:11Z</time>
      </trkpt>
      <trkpt lat="44.51272" lon="4.61065">
        <ele>155.39999389648</ele>
        <time>2020-05-31T07:17:12Z</time>
      </trkpt>
      <trkpt lat="44.51269" lon="4.61061">
        <ele>155.60000610352</ele>
        <time>2020-05-31T07:17:13Z</time>
      </trkpt>
      <trkpt lat="44.5126" lon="4.6105">
        <ele>155.60000610352</ele>
        <time>2020-05-31T07:17:16Z</time>
      </trkpt>
      <trkpt lat="44.51259" lon="4.61045">
        <ele>155.60000610352</ele>
        <time>2020-05-31T07:17:17Z</time>
      </trkpt>
      <trkpt lat="44.5126" lon="4.61041">
        <ele>155.60000610352</ele>
        <time>2020-05-31T07:17:18Z</time>
      </trkpt>
      <trkpt lat="44.51262" lon="4.61037">
        <ele>155.39999389648</ele>
        <time>2020-05-31T07:17:19Z</time>
      </trkpt>
      <trkpt lat="44.51265" lon="4.61035">
        <ele>155.19999694824</ele>
        <time>2020-05-31T07:17:20Z</time>
      </trkpt>
      <trkpt lat="44.51269" lon="4.61033">
        <ele>154.80000305176</ele>
        <time>2020-05-31T07:17:21Z</time>
      </trkpt>
      <trkpt lat="44.51272" lon="4.61031">
        <ele>154.39999389648</ele>
        <time>2020-05-31T07:17:22Z</time>
      </trkpt>
      <trkpt lat="44.51276" lon="4.61029">
        <ele>154</ele>
        <time>2020-05-31T07:17:23Z</time>
      </trkpt>
      <trkpt lat="44.51282" lon="4.61025">
        <ele>153.60000610352</ele>
        <time>2020-05-31T07:17:25Z</time>
      </trkpt>
      <trkpt lat="44.51285" lon="4.61022">
        <ele>153.60000610352</ele>
        <time>2020-05-31T07:17:26Z</time>
      </trkpt>
      <trkpt lat="44.51287" lon="4.61019">
        <ele>153.39999389648</ele>
        <time>2020-05-31T07:17:27Z</time>
      </trkpt>
      <trkpt lat="44.51289" lon="4.61016">
        <ele>153.60000610352</ele>
        <time>2020-05-31T07:17:28Z</time>
      </trkpt>
      <trkpt lat="44.51291" lon="4.61014">
        <ele>153.60000610352</ele>
        <time>2020-05-31T07:17:29Z</time>
      </trkpt>
      <trkpt lat="44.51293" lon="4.61011">
        <ele>153.39999389648</ele>
        <time>2020-05-31T07:17:30Z</time>
      </trkpt>
      <trkpt lat="44.51295" lon="4.61008">
        <ele>153.39999389648</ele>
        <time>2020-05-31T07:17:31Z</time>
      </trkpt>
      <trkpt lat="44.51297" lon="4.61005">
        <ele>153.39999389648</ele>
        <time>2020-05-31T07:17:32Z</time>
      </trkpt>
      <trkpt lat="44.51299" lon="4.61003">
        <ele>153.39999389648</ele>
        <time>2020-05-31T07:17:33Z</time>
      </trkpt>
      <trkpt lat="44.513" lon="4.61002">
        <ele>153.39999389648</ele>
        <time>2020-05-31T07:17:34Z</time>
      </trkpt>
      <trkpt lat="44.51301" lon="4.61001">
        <ele>153.60000610352</ele>
        <time>2020-05-31T07:17:35Z</time>
      </trkpt>
      <trkpt lat="44.51303" lon="4.61001">
        <ele>153.80000305176</ele>
        <time>2020-05-31T07:17:36Z</time>
      </trkpt>
      <trkpt lat="44.51305" lon="4.61">
        <ele>154.19999694824</ele>
        <time>2020-05-31T07:17:37Z</time>
      </trkpt>
      <trkpt lat="44.51307" lon="4.60999">
        <ele>154.60000610352</ele>
        <time>2020-05-31T07:17:38Z</time>
      </trkpt>
      <trkpt lat="44.5131" lon="4.60998">
        <ele>154.80000305176</ele>
        <time>2020-05-31T07:17:39Z</time>
      </trkpt>
      <trkpt lat="44.51314" lon="4.60995">
        <ele>155</ele>
        <time>2020-05-31T07:17:40Z</time>
      </trkpt>
      <trkpt lat="44.51321" lon="4.60987">
        <ele>155</ele>
        <time>2020-05-31T07:17:42Z</time>
      </trkpt>
      <trkpt lat="44.51325" lon="4.60982">
        <ele>155</ele>
        <time>2020-05-31T07:17:43Z</time>
      </trkpt>
      <trkpt lat="44.51338" lon="4.60964">
        <ele>155</ele>
        <time>2020-05-31T07:17:46Z</time>
      </trkpt>
      <trkpt lat="44.51342" lon="4.60958">
        <ele>155</ele>
        <time>2020-05-31T07:17:47Z</time>
      </trkpt>
      <trkpt lat="44.51352" lon="4.60934">
        <ele>154.80000305176</ele>
        <time>2020-05-31T07:17:50Z</time>
      </trkpt>
      <trkpt lat="44.51355" lon="4.60925">
        <ele>154.39999389648</ele>
        <time>2020-05-31T07:17:51Z</time>
      </trkpt>
      <trkpt lat="44.51358" lon="4.60916">
        <ele>154</ele>
        <time>2020-05-31T07:17:52Z</time>
      </trkpt>
      <trkpt lat="44.51367" lon="4.60887">
        <ele>153</ele>
        <time>2020-05-31T07:17:55Z</time>
      </trkpt>
      <trkpt lat="44.51373" lon="4.60867">
        <ele>152.39999389648</ele>
        <time>2020-05-31T07:17:57Z</time>
      </trkpt>
      <trkpt lat="44.51382" lon="4.60835">
        <ele>151.60000610352</ele>
        <time>2020-05-31T07:18:00Z</time>
      </trkpt>
      <trkpt lat="44.51388" lon="4.608">
        <ele>150.39999389648</ele>
        <time>2020-05-31T07:18:03Z</time>
      </trkpt>
      <trkpt lat="44.51392" lon="4.60775">
        <ele>149.60000610352</ele>
        <time>2020-05-31T07:18:05Z</time>
      </trkpt>
      <trkpt lat="44.51393" lon="4.60763">
        <ele>149</ele>
        <time>2020-05-31T07:18:06Z</time>
      </trkpt>
      <trkpt lat="44.51396" lon="4.60752">
        <ele>148.60000610352</ele>
        <time>2020-05-31T07:18:07Z</time>
      </trkpt>
      <trkpt lat="44.51399" lon="4.60742">
        <ele>148</ele>
        <time>2020-05-31T07:18:08Z</time>
      </trkpt>
      <trkpt lat="44.51401" lon="4.60733">
        <ele>147.80000305176</ele>
        <time>2020-05-31T07:18:09Z</time>
      </trkpt>
      <trkpt lat="44.51402" lon="4.60724">
        <ele>147.19999694824</ele>
        <time>2020-05-31T07:18:10Z</time>
      </trkpt>
      <trkpt lat="44.514" lon="4.60715">
        <ele>146.80000305176</ele>
        <time>2020-05-31T07:18:11Z</time>
      </trkpt>
      <trkpt lat="44.51396" lon="4.60707">
        <ele>146.19999694824</ele>
        <time>2020-05-31T07:18:12Z</time>
      </trkpt>
      <trkpt lat="44.51392" lon="4.60698">
        <ele>145.19999694824</ele>
        <time>2020-05-31T07:18:13Z</time>
      </trkpt>
      <trkpt lat="44.51387" lon="4.6069">
        <ele>145.19999694824</ele>
        <time>2020-05-31T07:18:14Z</time>
      </trkpt>
      <trkpt lat="44.51384" lon="4.60682">
        <ele>144.60000610352</ele>
        <time>2020-05-31T07:18:15Z</time>
      </trkpt>
      <trkpt lat="44.51384" lon="4.60675">
        <ele>144</ele>
        <time>2020-05-31T07:18:16Z</time>
      </trkpt>
      <trkpt lat="44.51385" lon="4.60669">
        <ele>143.80000305176</ele>
        <time>2020-05-31T07:18:17Z</time>
      </trkpt>
      <trkpt lat="44.51387" lon="4.60667">
        <ele>143.39999389648</ele>
        <time>2020-05-31T07:18:18Z</time>
      </trkpt>
      <trkpt lat="44.51391" lon="4.6067">
        <ele>143</ele>
        <time>2020-05-31T07:18:19Z</time>
      </trkpt>
      <trkpt lat="44.51394" lon="4.60674">
        <ele>142.80000305176</ele>
        <time>2020-05-31T07:18:20Z</time>
      </trkpt>
      <trkpt lat="44.51398" lon="4.60678">
        <ele>142.19999694824</ele>
        <time>2020-05-31T07:18:21Z</time>
      </trkpt>
      <trkpt lat="44.5141" lon="4.60694">
        <ele>140.39999389648</ele>
        <time>2020-05-31T07:18:24Z</time>
      </trkpt>
      <trkpt lat="44.51413" lon="4.60701">
        <ele>139.80000305176</ele>
        <time>2020-05-31T07:18:25Z</time>
      </trkpt>
      <trkpt lat="44.51416" lon="4.60708">
        <ele>139.80000305176</ele>
        <time>2020-05-31T07:18:26Z</time>
      </trkpt>
      <trkpt lat="44.51419" lon="4.60717">
        <ele>139.60000610352</ele>
        <time>2020-05-31T07:18:27Z</time>
      </trkpt>
      <trkpt lat="44.51421" lon="4.60726">
        <ele>139.39999389648</ele>
        <time>2020-05-31T07:18:28Z</time>
      </trkpt>
      <trkpt lat="44.51423" lon="4.60734">
        <ele>139.19999694824</ele>
        <time>2020-05-31T07:18:29Z</time>
      </trkpt>
      <trkpt lat="44.51424" lon="4.60741">
        <ele>139.19999694824</ele>
        <time>2020-05-31T07:18:30Z</time>
      </trkpt>
      <trkpt lat="44.51427" lon="4.60745">
        <ele>139.19999694824</ele>
        <time>2020-05-31T07:18:31Z</time>
      </trkpt>
      <trkpt lat="44.5143" lon="4.60746">
        <ele>139</ele>
        <time>2020-05-31T07:18:32Z</time>
      </trkpt>
      <trkpt lat="44.51433" lon="4.60746">
        <ele>138.80000305176</ele>
        <time>2020-05-31T07:18:33Z</time>
      </trkpt>
      <trkpt lat="44.51436" lon="4.60745">
        <ele>138.60000610352</ele>
        <time>2020-05-31T07:18:34Z</time>
      </trkpt>
      <trkpt lat="44.51439" lon="4.60744">
        <ele>138.39999389648</ele>
        <time>2020-05-31T07:18:35Z</time>
      </trkpt>
      <trkpt lat="44.51442" lon="4.60743">
        <ele>138.39999389648</ele>
        <time>2020-05-31T07:18:36Z</time>
      </trkpt>
      <trkpt lat="44.51449" lon="4.60741">
        <ele>138.19999694824</ele>
        <time>2020-05-31T07:18:38Z</time>
      </trkpt>
      <trkpt lat="44.51452" lon="4.6074">
        <ele>138.39999389648</ele>
        <time>2020-05-31T07:18:39Z</time>
      </trkpt>
      <trkpt lat="44.51455" lon="4.60738">
        <ele>138.19999694824</ele>
        <time>2020-05-31T07:18:40Z</time>
      </trkpt>
      <trkpt lat="44.51458" lon="4.60737">
        <ele>138.39999389648</ele>
        <time>2020-05-31T07:18:41Z</time>
      </trkpt>
      <trkpt lat="44.51462" lon="4.60735">
        <ele>138</ele>
        <time>2020-05-31T07:18:42Z</time>
      </trkpt>
      <trkpt lat="44.51465" lon="4.60734">
        <ele>138.39999389648</ele>
        <time>2020-05-31T07:18:43Z</time>
      </trkpt>
      <trkpt lat="44.51469" lon="4.60733">
        <ele>138.19999694824</ele>
        <time>2020-05-31T07:18:44Z</time>
      </trkpt>
      <trkpt lat="44.51472" lon="4.60733">
        <ele>138.19999694824</ele>
        <time>2020-05-31T07:18:45Z</time>
      </trkpt>
      <trkpt lat="44.51475" lon="4.60733">
        <ele>138.39999389648</ele>
        <time>2020-05-31T07:18:46Z</time>
      </trkpt>
      <trkpt lat="44.51479" lon="4.60733">
        <ele>138.60000610352</ele>
        <time>2020-05-31T07:18:47Z</time>
      </trkpt>
      <trkpt lat="44.51482" lon="4.60734">
        <ele>139.19999694824</ele>
        <time>2020-05-31T07:18:48Z</time>
      </trkpt>
      <trkpt lat="44.51486" lon="4.60735">
        <ele>139.19999694824</ele>
        <time>2020-05-31T07:18:49Z</time>
      </trkpt>
      <trkpt lat="44.51489" lon="4.60736">
        <ele>139.60000610352</ele>
        <time>2020-05-31T07:18:50Z</time>
      </trkpt>
      <trkpt lat="44.51492" lon="4.60736">
        <ele>140.19999694824</ele>
        <time>2020-05-31T07:18:51Z</time>
      </trkpt>
      <trkpt lat="44.51495" lon="4.60735">
        <ele>140.60000610352</ele>
        <time>2020-05-31T07:18:52Z</time>
      </trkpt>
      <trkpt lat="44.51498" lon="4.60734">
        <ele>141</ele>
        <time>2020-05-31T07:18:53Z</time>
      </trkpt>
      <trkpt lat="44.51501" lon="4.60733">
        <ele>141.39999389648</ele>
        <time>2020-05-31T07:18:54Z</time>
      </trkpt>
      <trkpt lat="44.51504" lon="4.60732">
        <ele>141.80000305176</ele>
        <time>2020-05-31T07:18:55Z</time>
      </trkpt>
      <trkpt lat="44.51506" lon="4.60731">
        <ele>142.19999694824</ele>
        <time>2020-05-31T07:18:56Z</time>
      </trkpt>
      <trkpt lat="44.51508" lon="4.60729">
        <ele>142.19999694824</ele>
        <time>2020-05-31T07:18:57Z</time>
      </trkpt>
      <trkpt lat="44.51509" lon="4.60728">
        <ele>142.60000610352</ele>
        <time>2020-05-31T07:18:58Z</time>
      </trkpt>
      <trkpt lat="44.51511" lon="4.60726">
        <ele>143.19999694824</ele>
        <time>2020-05-31T07:18:59Z</time>
      </trkpt>
      <trkpt lat="44.51512" lon="4.60724">
        <ele>143.60000610352</ele>
        <time>2020-05-31T07:19:00Z</time>
      </trkpt>
      <trkpt lat="44.51514" lon="4.60721">
        <ele>144</ele>
        <time>2020-05-31T07:19:01Z</time>
      </trkpt>
      <trkpt lat="44.51515" lon="4.60719">
        <ele>144.39999389648</ele>
        <time>2020-05-31T07:19:02Z</time>
      </trkpt>
      <trkpt lat="44.51517" lon="4.60717">
        <ele>144.80000305176</ele>
        <time>2020-05-31T07:19:03Z</time>
      </trkpt>
      <trkpt lat="44.51518" lon="4.60714">
        <ele>145.60000610352</ele>
        <time>2020-05-31T07:19:04Z</time>
      </trkpt>
      <trkpt lat="44.51519" lon="4.60712">
        <ele>146.19999694824</ele>
        <time>2020-05-31T07:19:05Z</time>
      </trkpt>
      <trkpt lat="44.51521" lon="4.60709">
        <ele>146.60000610352</ele>
        <time>2020-05-31T07:19:06Z</time>
      </trkpt>
      <trkpt lat="44.51522" lon="4.60707">
        <ele>146.80000305176</ele>
        <time>2020-05-31T07:19:07Z</time>
      </trkpt>
      <trkpt lat="44.51524" lon="4.60705">
        <ele>147.19999694824</ele>
        <time>2020-05-31T07:19:08Z</time>
      </trkpt>
      <trkpt lat="44.51525" lon="4.60702">
        <ele>147.60000610352</ele>
        <time>2020-05-31T07:19:09Z</time>
      </trkpt>
      <trkpt lat="44.51526" lon="4.607">
        <ele>148</ele>
        <time>2020-05-31T07:19:10Z</time>
      </trkpt>
      <trkpt lat="44.51528" lon="4.60698">
        <ele>148.39999389648</ele>
        <time>2020-05-31T07:19:11Z</time>
      </trkpt>
      <trkpt lat="44.51529" lon="4.60696">
        <ele>148.60000610352</ele>
        <time>2020-05-31T07:19:12Z</time>
      </trkpt>
      <trkpt lat="44.51531" lon="4.60694">
        <ele>149</ele>
        <time>2020-05-31T07:19:13Z</time>
      </trkpt>
      <trkpt lat="44.51532" lon="4.60692">
        <ele>149.19999694824</ele>
        <time>2020-05-31T07:19:14Z</time>
      </trkpt>
      <trkpt lat="44.51534" lon="4.6069">
        <ele>149.39999389648</ele>
        <time>2020-05-31T07:19:15Z</time>
      </trkpt>
      <trkpt lat="44.51535" lon="4.60687">
        <ele>149.80000305176</ele>
        <time>2020-05-31T07:19:16Z</time>
      </trkpt>
      <trkpt lat="44.51537" lon="4.60685">
        <ele>150</ele>
        <time>2020-05-31T07:19:17Z</time>
      </trkpt>
      <trkpt lat="44.51538" lon="4.60683">
        <ele>150.39999389648</ele>
        <time>2020-05-31T07:19:18Z</time>
      </trkpt>
      <trkpt lat="44.5154" lon="4.6068">
        <ele>150.39999389648</ele>
        <time>2020-05-31T07:19:19Z</time>
      </trkpt>
      <trkpt lat="44.51541" lon="4.60678">
        <ele>150.80000305176</ele>
        <time>2020-05-31T07:19:20Z</time>
      </trkpt>
      <trkpt lat="44.51542" lon="4.60676">
        <ele>151.19999694824</ele>
        <time>2020-05-31T07:19:21Z</time>
      </trkpt>
      <trkpt lat="44.51543" lon="4.60675">
        <ele>151.60000610352</ele>
        <time>2020-05-31T07:19:22Z</time>
      </trkpt>
      <trkpt lat="44.51543" lon="4.60673">
        <ele>152</ele>
        <time>2020-05-31T07:19:23Z</time>
      </trkpt>
      <trkpt lat="44.51543" lon="4.6067">
        <ele>152.39999389648</ele>
        <time>2020-05-31T07:19:24Z</time>
      </trkpt>
      <trkpt lat="44.51543" lon="4.60667">
        <ele>152.39999389648</ele>
        <time>2020-05-31T07:19:25Z</time>
      </trkpt>
      <trkpt lat="44.51543" lon="4.60664">
        <ele>152.60000610352</ele>
        <time>2020-05-31T07:19:26Z</time>
      </trkpt>
      <trkpt lat="44.51543" lon="4.60661">
        <ele>153</ele>
        <time>2020-05-31T07:19:27Z</time>
      </trkpt>
      <trkpt lat="44.51543" lon="4.60658">
        <ele>153</ele>
        <time>2020-05-31T07:19:28Z</time>
      </trkpt>
      <trkpt lat="44.51543" lon="4.60655">
        <ele>153.19999694824</ele>
        <time>2020-05-31T07:19:29Z</time>
      </trkpt>
      <trkpt lat="44.51542" lon="4.60653">
        <ele>153.39999389648</ele>
        <time>2020-05-31T07:19:30Z</time>
      </trkpt>
      <trkpt lat="44.51542" lon="4.6065">
        <ele>153.60000610352</ele>
        <time>2020-05-31T07:19:31Z</time>
      </trkpt>
      <trkpt lat="44.51541" lon="4.60648">
        <ele>153.80000305176</ele>
        <time>2020-05-31T07:19:32Z</time>
      </trkpt>
      <trkpt lat="44.51539" lon="4.60646">
        <ele>153.80000305176</ele>
        <time>2020-05-31T07:19:33Z</time>
      </trkpt>
      <trkpt lat="44.51538" lon="4.60645">
        <ele>154</ele>
        <time>2020-05-31T07:19:34Z</time>
      </trkpt>
      <trkpt lat="44.51537" lon="4.60644">
        <ele>154.19999694824</ele>
        <time>2020-05-31T07:19:35Z</time>
      </trkpt>
      <trkpt lat="44.51535" lon="4.60642">
        <ele>154.60000610352</ele>
        <time>2020-05-31T07:19:36Z</time>
      </trkpt>
      <trkpt lat="44.51533" lon="4.60641">
        <ele>155</ele>
        <time>2020-05-31T07:19:37Z</time>
      </trkpt>
      <trkpt lat="44.51532" lon="4.6064">
        <ele>155</ele>
        <time>2020-05-31T07:19:38Z</time>
      </trkpt>
      <trkpt lat="44.5153" lon="4.60639">
        <ele>155.60000610352</ele>
        <time>2020-05-31T07:19:39Z</time>
      </trkpt>
      <trkpt lat="44.51528" lon="4.60638">
        <ele>156.19999694824</ele>
        <time>2020-05-31T07:19:40Z</time>
      </trkpt>
      <trkpt lat="44.51526" lon="4.60637">
        <ele>156.19999694824</ele>
        <time>2020-05-31T07:19:41Z</time>
      </trkpt>
      <trkpt lat="44.51525" lon="4.60635">
        <ele>156.60000610352</ele>
        <time>2020-05-31T07:19:42Z</time>
      </trkpt>
      <trkpt lat="44.51523" lon="4.60633">
        <ele>156.60000610352</ele>
        <time>2020-05-31T07:19:43Z</time>
      </trkpt>
      <trkpt lat="44.51521" lon="4.60631">
        <ele>156.80000305176</ele>
        <time>2020-05-31T07:19:44Z</time>
      </trkpt>
      <trkpt lat="44.5152" lon="4.60629">
        <ele>157</ele>
        <time>2020-05-31T07:19:45Z</time>
      </trkpt>
      <trkpt lat="44.51519" lon="4.60627">
        <ele>157</ele>
        <time>2020-05-31T07:19:46Z</time>
      </trkpt>
      <trkpt lat="44.51517" lon="4.60625">
        <ele>157.39999389648</ele>
        <time>2020-05-31T07:19:47Z</time>
      </trkpt>
      <trkpt lat="44.51516" lon="4.60623">
        <ele>157.60000610352</ele>
        <time>2020-05-31T07:19:48Z</time>
      </trkpt>
      <trkpt lat="44.51515" lon="4.60621">
        <ele>157.80000305176</ele>
        <time>2020-05-31T07:19:49Z</time>
      </trkpt>
      <trkpt lat="44.51515" lon="4.60619">
        <ele>158</ele>
        <time>2020-05-31T07:19:50Z</time>
      </trkpt>
      <trkpt lat="44.51514" lon="4.60616">
        <ele>158</ele>
        <time>2020-05-31T07:19:51Z</time>
      </trkpt>
      <trkpt lat="44.51513" lon="4.60614">
        <ele>158</ele>
        <time>2020-05-31T07:19:52Z</time>
      </trkpt>
      <trkpt lat="44.51512" lon="4.60612">
        <ele>158.19999694824</ele>
        <time>2020-05-31T07:19:53Z</time>
      </trkpt>
      <trkpt lat="44.51511" lon="4.6061">
        <ele>158.39999389648</ele>
        <time>2020-05-31T07:19:54Z</time>
      </trkpt>
      <trkpt lat="44.5151" lon="4.60607">
        <ele>158.80000305176</ele>
        <time>2020-05-31T07:19:55Z</time>
      </trkpt>
      <trkpt lat="44.5151" lon="4.60605">
        <ele>159.19999694824</ele>
        <time>2020-05-31T07:19:56Z</time>
      </trkpt>
      <trkpt lat="44.51509" lon="4.60603">
        <ele>159.60000610352</ele>
        <time>2020-05-31T07:19:57Z</time>
      </trkpt>
      <trkpt lat="44.51508" lon="4.60601">
        <ele>160</ele>
        <time>2020-05-31T07:19:58Z</time>
      </trkpt>
      <trkpt lat="44.51507" lon="4.60598">
        <ele>160.39999389648</ele>
        <time>2020-05-31T07:19:59Z</time>
      </trkpt>
      <trkpt lat="44.51507" lon="4.60596">
        <ele>160.39999389648</ele>
        <time>2020-05-31T07:20:00Z</time>
      </trkpt>
      <trkpt lat="44.51506" lon="4.60594">
        <ele>160.60000610352</ele>
        <time>2020-05-31T07:20:01Z</time>
      </trkpt>
      <trkpt lat="44.51504" lon="4.60592">
        <ele>160.60000610352</ele>
        <time>2020-05-31T07:20:02Z</time>
      </trkpt>
      <trkpt lat="44.51504" lon="4.60589">
        <ele>161</ele>
        <time>2020-05-31T07:20:03Z</time>
      </trkpt>
      <trkpt lat="44.51503" lon="4.60587">
        <ele>161.19999694824</ele>
        <time>2020-05-31T07:20:04Z</time>
      </trkpt>
      <trkpt lat="44.51502" lon="4.60585">
        <ele>161.60000610352</ele>
        <time>2020-05-31T07:20:05Z</time>
      </trkpt>
      <trkpt lat="44.51501" lon="4.60583">
        <ele>161.80000305176</ele>
        <time>2020-05-31T07:20:06Z</time>
      </trkpt>
      <trkpt lat="44.51501" lon="4.60581">
        <ele>162.19999694824</ele>
        <time>2020-05-31T07:20:07Z</time>
      </trkpt>
      <trkpt lat="44.515" lon="4.60579">
        <ele>162.60000610352</ele>
        <time>2020-05-31T07:20:08Z</time>
      </trkpt>
      <trkpt lat="44.51499" lon="4.60576">
        <ele>162.80000305176</ele>
        <time>2020-05-31T07:20:09Z</time>
      </trkpt>
      <trkpt lat="44.51499" lon="4.60574">
        <ele>163</ele>
        <time>2020-05-31T07:20:10Z</time>
      </trkpt>
      <trkpt lat="44.51498" lon="4.60572">
        <ele>163.19999694824</ele>
        <time>2020-05-31T07:20:11Z</time>
      </trkpt>
      <trkpt lat="44.51497" lon="4.6057">
        <ele>163.60000610352</ele>
        <time>2020-05-31T07:20:12Z</time>
      </trkpt>
      <trkpt lat="44.51496" lon="4.60568">
        <ele>163.80000305176</ele>
        <time>2020-05-31T07:20:13Z</time>
      </trkpt>
      <trkpt lat="44.51495" lon="4.60565">
        <ele>164</ele>
        <time>2020-05-31T07:20:14Z</time>
      </trkpt>
      <trkpt lat="44.51494" lon="4.60563">
        <ele>164</ele>
        <time>2020-05-31T07:20:15Z</time>
      </trkpt>
      <trkpt lat="44.51493" lon="4.60561">
        <ele>164.39999389648</ele>
        <time>2020-05-31T07:20:16Z</time>
      </trkpt>
      <trkpt lat="44.51491" lon="4.60559">
        <ele>164.60000610352</ele>
        <time>2020-05-31T07:20:17Z</time>
      </trkpt>
      <trkpt lat="44.5149" lon="4.60558">
        <ele>165</ele>
        <time>2020-05-31T07:20:18Z</time>
      </trkpt>
      <trkpt lat="44.51489" lon="4.60556">
        <ele>165.19999694824</ele>
        <time>2020-05-31T07:20:19Z</time>
      </trkpt>
      <trkpt lat="44.51487" lon="4.60554">
        <ele>165.60000610352</ele>
        <time>2020-05-31T07:20:20Z</time>
      </trkpt>
      <trkpt lat="44.51486" lon="4.60552">
        <ele>165.80000305176</ele>
        <time>2020-05-31T07:20:21Z</time>
      </trkpt>
      <trkpt lat="44.51484" lon="4.60551">
        <ele>166.19999694824</ele>
        <time>2020-05-31T07:20:22Z</time>
      </trkpt>
      <trkpt lat="44.51483" lon="4.6055">
        <ele>166.19999694824</ele>
        <time>2020-05-31T07:20:23Z</time>
      </trkpt>
      <trkpt lat="44.51481" lon="4.60549">
        <ele>166.39999389648</ele>
        <time>2020-05-31T07:20:24Z</time>
      </trkpt>
      <trkpt lat="44.5148" lon="4.60547">
        <ele>166.60000610352</ele>
        <time>2020-05-31T07:20:25Z</time>
      </trkpt>
      <trkpt lat="44.51478" lon="4.60546">
        <ele>166.80000305176</ele>
        <time>2020-05-31T07:20:26Z</time>
      </trkpt>
      <trkpt lat="44.51476" lon="4.60544">
        <ele>167.19999694824</ele>
        <time>2020-05-31T07:20:27Z</time>
      </trkpt>
      <trkpt lat="44.51475" lon="4.60543">
        <ele>167.60000610352</ele>
        <time>2020-05-31T07:20:28Z</time>
      </trkpt>
      <trkpt lat="44.51474" lon="4.60541">
        <ele>167.80000305176</ele>
        <time>2020-05-31T07:20:29Z</time>
      </trkpt>
      <trkpt lat="44.51473" lon="4.60538">
        <ele>168</ele>
        <time>2020-05-31T07:20:30Z</time>
      </trkpt>
      <trkpt lat="44.51472" lon="4.60536">
        <ele>168.39999389648</ele>
        <time>2020-05-31T07:20:31Z</time>
      </trkpt>
      <trkpt lat="44.51471" lon="4.60533">
        <ele>168.80000305176</ele>
        <time>2020-05-31T07:20:32Z</time>
      </trkpt>
      <trkpt lat="44.5147" lon="4.6053">
        <ele>169</ele>
        <time>2020-05-31T07:20:33Z</time>
      </trkpt>
      <trkpt lat="44.51469" lon="4.60528">
        <ele>169.19999694824</ele>
        <time>2020-05-31T07:20:34Z</time>
      </trkpt>
      <trkpt lat="44.51469" lon="4.60525">
        <ele>169.39999389648</ele>
        <time>2020-05-31T07:20:35Z</time>
      </trkpt>
      <trkpt lat="44.51468" lon="4.60522">
        <ele>169.60000610352</ele>
        <time>2020-05-31T07:20:36Z</time>
      </trkpt>
      <trkpt lat="44.51468" lon="4.6052">
        <ele>169.80000305176</ele>
        <time>2020-05-31T07:20:37Z</time>
      </trkpt>
      <trkpt lat="44.51468" lon="4.60517">
        <ele>170.19999694824</ele>
        <time>2020-05-31T07:20:38Z</time>
      </trkpt>
      <trkpt lat="44.51467" lon="4.60514">
        <ele>170.19999694824</ele>
        <time>2020-05-31T07:20:39Z</time>
      </trkpt>
      <trkpt lat="44.51467" lon="4.6051">
        <ele>170.39999389648</ele>
        <time>2020-05-31T07:20:40Z</time>
      </trkpt>
      <trkpt lat="44.51467" lon="4.60507">
        <ele>170.60000610352</ele>
        <time>2020-05-31T07:20:41Z</time>
      </trkpt>
      <trkpt lat="44.51467" lon="4.60503">
        <ele>170.80000305176</ele>
        <time>2020-05-31T07:20:42Z</time>
      </trkpt>
      <trkpt lat="44.51467" lon="4.605">
        <ele>170.80000305176</ele>
        <time>2020-05-31T07:20:43Z</time>
      </trkpt>
      <trkpt lat="44.51466" lon="4.60496">
        <ele>170.80000305176</ele>
        <time>2020-05-31T07:20:44Z</time>
      </trkpt>
      <trkpt lat="44.51466" lon="4.60493">
        <ele>170.80000305176</ele>
        <time>2020-05-31T07:20:45Z</time>
      </trkpt>
      <trkpt lat="44.51465" lon="4.6049">
        <ele>171</ele>
        <time>2020-05-31T07:20:46Z</time>
      </trkpt>
      <trkpt lat="44.51464" lon="4.60487">
        <ele>171.19999694824</ele>
        <time>2020-05-31T07:20:47Z</time>
      </trkpt>
      <trkpt lat="44.51463" lon="4.60484">
        <ele>171.19999694824</ele>
        <time>2020-05-31T07:20:48Z</time>
      </trkpt>
      <trkpt lat="44.51463" lon="4.60481">
        <ele>171.39999389648</ele>
        <time>2020-05-31T07:20:49Z</time>
      </trkpt>
      <trkpt lat="44.51461" lon="4.60477">
        <ele>171.39999389648</ele>
        <time>2020-05-31T07:20:50Z</time>
      </trkpt>
      <trkpt lat="44.5146" lon="4.60474">
        <ele>171.60000610352</ele>
        <time>2020-05-31T07:20:51Z</time>
      </trkpt>
      <trkpt lat="44.51458" lon="4.60471">
        <ele>171.80000305176</ele>
        <time>2020-05-31T07:20:52Z</time>
      </trkpt>
      <trkpt lat="44.51456" lon="4.60469">
        <ele>172</ele>
        <time>2020-05-31T07:20:53Z</time>
      </trkpt>
      <trkpt lat="44.51453" lon="4.60466">
        <ele>172.19999694824</ele>
        <time>2020-05-31T07:20:54Z</time>
      </trkpt>
      <trkpt lat="44.51451" lon="4.60463">
        <ele>172.60000610352</ele>
        <time>2020-05-31T07:20:55Z</time>
      </trkpt>
      <trkpt lat="44.51444" lon="4.60455">
        <ele>173.19999694824</ele>
        <time>2020-05-31T07:20:58Z</time>
      </trkpt>
      <trkpt lat="44.51442" lon="4.60452">
        <ele>173</ele>
        <time>2020-05-31T07:20:59Z</time>
      </trkpt>
      <trkpt lat="44.51439" lon="4.60449">
        <ele>173.39999389648</ele>
        <time>2020-05-31T07:21:00Z</time>
      </trkpt>
      <trkpt lat="44.51437" lon="4.60446">
        <ele>173.39999389648</ele>
        <time>2020-05-31T07:21:01Z</time>
      </trkpt>
      <trkpt lat="44.51435" lon="4.60442">
        <ele>173.19999694824</ele>
        <time>2020-05-31T07:21:02Z</time>
      </trkpt>
      <trkpt lat="44.51433" lon="4.60439">
        <ele>173.39999389648</ele>
        <time>2020-05-31T07:21:03Z</time>
      </trkpt>
      <trkpt lat="44.51431" lon="4.60435">
        <ele>173.39999389648</ele>
        <time>2020-05-31T07:21:04Z</time>
      </trkpt>
      <trkpt lat="44.51429" lon="4.60432">
        <ele>173.60000610352</ele>
        <time>2020-05-31T07:21:05Z</time>
      </trkpt>
      <trkpt lat="44.51427" lon="4.60429">
        <ele>173.39999389648</ele>
        <time>2020-05-31T07:21:06Z</time>
      </trkpt>
      <trkpt lat="44.51423" lon="4.60422">
        <ele>173.60000610352</ele>
        <time>2020-05-31T07:21:08Z</time>
      </trkpt>
      <trkpt lat="44.51421" lon="4.60418">
        <ele>173.60000610352</ele>
        <time>2020-05-31T07:21:09Z</time>
      </trkpt>
      <trkpt lat="44.51421" lon="4.60413">
        <ele>173.60000610352</ele>
        <time>2020-05-31T07:21:10Z</time>
      </trkpt>
      <trkpt lat="44.51419" lon="4.60398">
        <ele>173.80000305176</ele>
        <time>2020-05-31T07:21:13Z</time>
      </trkpt>
      <trkpt lat="44.51419" lon="4.60392">
        <ele>173.80000305176</ele>
        <time>2020-05-31T07:21:14Z</time>
      </trkpt>
      <trkpt lat="44.51418" lon="4.60387">
        <ele>173.80000305176</ele>
        <time>2020-05-31T07:21:15Z</time>
      </trkpt>
      <trkpt lat="44.51418" lon="4.60382">
        <ele>173.80000305176</ele>
        <time>2020-05-31T07:21:16Z</time>
      </trkpt>
      <trkpt lat="44.51418" lon="4.60378">
        <ele>173.80000305176</ele>
        <time>2020-05-31T07:21:17Z</time>
      </trkpt>
      <trkpt lat="44.51418" lon="4.60374">
        <ele>173.80000305176</ele>
        <time>2020-05-31T07:21:18Z</time>
      </trkpt>
      <trkpt lat="44.51417" lon="4.6037">
        <ele>173.80000305176</ele>
        <time>2020-05-31T07:21:19Z</time>
      </trkpt>
      <trkpt lat="44.51415" lon="4.60366">
        <ele>174</ele>
        <time>2020-05-31T07:21:20Z</time>
      </trkpt>
      <trkpt lat="44.51413" lon="4.60364">
        <ele>174</ele>
        <time>2020-05-31T07:21:21Z</time>
      </trkpt>
      <trkpt lat="44.5141" lon="4.60361">
        <ele>174</ele>
        <time>2020-05-31T07:21:22Z</time>
      </trkpt>
      <trkpt lat="44.51408" lon="4.60359">
        <ele>174.60000610352</ele>
        <time>2020-05-31T07:21:23Z</time>
      </trkpt>
      <trkpt lat="44.51397" lon="4.60349">
        <ele>176.19999694824</ele>
        <time>2020-05-31T07:21:27Z</time>
      </trkpt>
      <trkpt lat="44.51391" lon="4.60343">
        <ele>176.39999389648</ele>
        <time>2020-05-31T07:21:29Z</time>
      </trkpt>
      <trkpt lat="44.51388" lon="4.6034">
        <ele>176.60000610352</ele>
        <time>2020-05-31T07:21:30Z</time>
      </trkpt>
      <trkpt lat="44.51386" lon="4.60337">
        <ele>176.60000610352</ele>
        <time>2020-05-31T07:21:31Z</time>
      </trkpt>
      <trkpt lat="44.51383" lon="4.60334">
        <ele>176.60000610352</ele>
        <time>2020-05-31T07:21:32Z</time>
      </trkpt>
      <trkpt lat="44.51381" lon="4.60331">
        <ele>176.80000305176</ele>
        <time>2020-05-31T07:21:33Z</time>
      </trkpt>
      <trkpt lat="44.51378" lon="4.60328">
        <ele>177</ele>
        <time>2020-05-31T07:21:34Z</time>
      </trkpt>
      <trkpt lat="44.51376" lon="4.60325">
        <ele>177</ele>
        <time>2020-05-31T07:21:35Z</time>
      </trkpt>
      <trkpt lat="44.51374" lon="4.60321">
        <ele>177</ele>
        <time>2020-05-31T07:21:36Z</time>
      </trkpt>
      <trkpt lat="44.51372" lon="4.60318">
        <ele>177.19999694824</ele>
        <time>2020-05-31T07:21:37Z</time>
      </trkpt>
      <trkpt lat="44.51371" lon="4.60314">
        <ele>177.19999694824</ele>
        <time>2020-05-31T07:21:38Z</time>
      </trkpt>
      <trkpt lat="44.51371" lon="4.6031">
        <ele>177.19999694824</ele>
        <time>2020-05-31T07:21:39Z</time>
      </trkpt>
      <trkpt lat="44.5137" lon="4.60306">
        <ele>177.39999389648</ele>
        <time>2020-05-31T07:21:40Z</time>
      </trkpt>
      <trkpt lat="44.51369" lon="4.60302">
        <ele>177.80000305176</ele>
        <time>2020-05-31T07:21:41Z</time>
      </trkpt>
      <trkpt lat="44.51368" lon="4.60297">
        <ele>177.80000305176</ele>
        <time>2020-05-31T07:21:42Z</time>
      </trkpt>
      <trkpt lat="44.51367" lon="4.60293">
        <ele>177.80000305176</ele>
        <time>2020-05-31T07:21:43Z</time>
      </trkpt>
      <trkpt lat="44.51367" lon="4.60288">
        <ele>178</ele>
        <time>2020-05-31T07:21:44Z</time>
      </trkpt>
      <trkpt lat="44.51366" lon="4.60284">
        <ele>178</ele>
        <time>2020-05-31T07:21:45Z</time>
      </trkpt>
      <trkpt lat="44.51365" lon="4.60274">
        <ele>178.19999694824</ele>
        <time>2020-05-31T07:21:47Z</time>
      </trkpt>
      <trkpt lat="44.51365" lon="4.60271">
        <ele>178.39999389648</ele>
        <time>2020-05-31T07:21:48Z</time>
      </trkpt>
      <trkpt lat="44.51364" lon="4.60268">
        <ele>178.39999389648</ele>
        <time>2020-05-31T07:21:49Z</time>
      </trkpt>
      <trkpt lat="44.51364" lon="4.60267">
        <ele>178.39999389648</ele>
        <time>2020-05-31T07:21:50Z</time>
      </trkpt>
      <trkpt lat="44.51363" lon="4.60266">
        <ele>178.39999389648</ele>
        <time>2020-05-31T07:21:51Z</time>
      </trkpt>
      <trkpt lat="44.51363" lon="4.60265">
        <ele>178.39999389648</ele>
        <time>2020-05-31T07:21:53Z</time>
      </trkpt>
      <trkpt lat="44.51363" lon="4.60264">
        <ele>178.39999389648</ele>
        <time>2020-05-31T07:21:54Z</time>
      </trkpt>
      <trkpt lat="44.51362" lon="4.60263">
        <ele>178.39999389648</ele>
        <time>2020-05-31T07:21:55Z</time>
      </trkpt>
      <trkpt lat="44.51362" lon="4.60262">
        <ele>178.39999389648</ele>
        <time>2020-05-31T07:21:56Z</time>
      </trkpt>
      <trkpt lat="44.51362" lon="4.6026">
        <ele>178.60000610352</ele>
        <time>2020-05-31T07:21:57Z</time>
      </trkpt>
      <trkpt lat="44.51361" lon="4.60257">
        <ele>178.19999694824</ele>
        <time>2020-05-31T07:21:59Z</time>
      </trkpt>
      <trkpt lat="44.51361" lon="4.60257">
        <ele>178.19999694824</ele>
        <time>2020-05-31T07:22:00Z</time>
      </trkpt>
      <trkpt lat="44.5136" lon="4.60257">
        <ele>177.80000305176</ele>
        <time>2020-05-31T07:22:17Z</time>
      </trkpt>
      <trkpt lat="44.51359" lon="4.60256">
        <ele>177.80000305176</ele>
        <time>2020-05-31T07:22:18Z</time>
      </trkpt>
      <trkpt lat="44.51358" lon="4.60254">
        <ele>177.80000305176</ele>
        <time>2020-05-31T07:22:19Z</time>
      </trkpt>
      <trkpt lat="44.51358" lon="4.60252">
        <ele>177.80000305176</ele>
        <time>2020-05-31T07:22:20Z</time>
      </trkpt>
      <trkpt lat="44.51357" lon="4.6025">
        <ele>177.80000305176</ele>
        <time>2020-05-31T07:22:21Z</time>
      </trkpt>
      <trkpt lat="44.51357" lon="4.60248">
        <ele>177.80000305176</ele>
        <time>2020-05-31T07:22:22Z</time>
      </trkpt>
      <trkpt lat="44.51356" lon="4.60245">
        <ele>177.80000305176</ele>
        <time>2020-05-31T07:22:23Z</time>
      </trkpt>
      <trkpt lat="44.51355" lon="4.60239">
        <ele>177.80000305176</ele>
        <time>2020-05-31T07:22:25Z</time>
      </trkpt>
      <trkpt lat="44.51354" lon="4.60231">
        <ele>177.80000305176</ele>
        <time>2020-05-31T07:22:27Z</time>
      </trkpt>
      <trkpt lat="44.51353" lon="4.60223">
        <ele>177.80000305176</ele>
        <time>2020-05-31T07:22:29Z</time>
      </trkpt>
      <trkpt lat="44.51353" lon="4.60219">
        <ele>177.60000610352</ele>
        <time>2020-05-31T07:22:30Z</time>
      </trkpt>
      <trkpt lat="44.51352" lon="4.60215">
        <ele>177.60000610352</ele>
        <time>2020-05-31T07:22:31Z</time>
      </trkpt>
      <trkpt lat="44.51352" lon="4.60211">
        <ele>177.39999389648</ele>
        <time>2020-05-31T07:22:32Z</time>
      </trkpt>
      <trkpt lat="44.5135" lon="4.60196">
        <ele>177</ele>
        <time>2020-05-31T07:22:35Z</time>
      </trkpt>
      <trkpt lat="44.51351" lon="4.6019">
        <ele>177</ele>
        <time>2020-05-31T07:22:36Z</time>
      </trkpt>
      <trkpt lat="44.51352" lon="4.60174">
        <ele>176.60000610352</ele>
        <time>2020-05-31T07:22:39Z</time>
      </trkpt>
      <trkpt lat="44.51351" lon="4.60168">
        <ele>176.60000610352</ele>
        <time>2020-05-31T07:22:40Z</time>
      </trkpt>
      <trkpt lat="44.51351" lon="4.60162">
        <ele>176.60000610352</ele>
        <time>2020-05-31T07:22:41Z</time>
      </trkpt>
      <trkpt lat="44.51351" lon="4.60156">
        <ele>176.19999694824</ele>
        <time>2020-05-31T07:22:42Z</time>
      </trkpt>
      <trkpt lat="44.51351" lon="4.6015">
        <ele>176.39999389648</ele>
        <time>2020-05-31T07:22:43Z</time>
      </trkpt>
      <trkpt lat="44.51351" lon="4.60146">
        <ele>176</ele>
        <time>2020-05-31T07:22:44Z</time>
      </trkpt>
      <trkpt lat="44.51351" lon="4.60141">
        <ele>175.80000305176</ele>
        <time>2020-05-31T07:22:45Z</time>
      </trkpt>
      <trkpt lat="44.51352" lon="4.60137">
        <ele>175.60000610352</ele>
        <time>2020-05-31T07:22:46Z</time>
      </trkpt>
      <trkpt lat="44.51353" lon="4.60134">
        <ele>175.60000610352</ele>
        <time>2020-05-31T07:22:47Z</time>
      </trkpt>
      <trkpt lat="44.51354" lon="4.60131">
        <ele>175.39999389648</ele>
        <time>2020-05-31T07:22:48Z</time>
      </trkpt>
      <trkpt lat="44.51356" lon="4.60127">
        <ele>175.39999389648</ele>
        <time>2020-05-31T07:22:49Z</time>
      </trkpt>
      <trkpt lat="44.51357" lon="4.60124">
        <ele>175.39999389648</ele>
        <time>2020-05-31T07:22:50Z</time>
      </trkpt>
      <trkpt lat="44.51358" lon="4.6012">
        <ele>175.39999389648</ele>
        <time>2020-05-31T07:22:51Z</time>
      </trkpt>
      <trkpt lat="44.51359" lon="4.60116">
        <ele>175.39999389648</ele>
        <time>2020-05-31T07:22:52Z</time>
      </trkpt>
      <trkpt lat="44.51359" lon="4.60112">
        <ele>175.39999389648</ele>
        <time>2020-05-31T07:22:53Z</time>
      </trkpt>
      <trkpt lat="44.5136" lon="4.60108">
        <ele>175.39999389648</ele>
        <time>2020-05-31T07:22:54Z</time>
      </trkpt>
      <trkpt lat="44.5136" lon="4.60104">
        <ele>175.19999694824</ele>
        <time>2020-05-31T07:22:55Z</time>
      </trkpt>
      <trkpt lat="44.5136" lon="4.60101">
        <ele>175.19999694824</ele>
        <time>2020-05-31T07:22:56Z</time>
      </trkpt>
      <trkpt lat="44.5136" lon="4.60097">
        <ele>175.39999389648</ele>
        <time>2020-05-31T07:22:57Z</time>
      </trkpt>
      <trkpt lat="44.5136" lon="4.60093">
        <ele>175.39999389648</ele>
        <time>2020-05-31T07:22:58Z</time>
      </trkpt>
      <trkpt lat="44.5136" lon="4.6009">
        <ele>175.39999389648</ele>
        <time>2020-05-31T07:22:59Z</time>
      </trkpt>
      <trkpt lat="44.51361" lon="4.60086">
        <ele>175.39999389648</ele>
        <time>2020-05-31T07:23:00Z</time>
      </trkpt>
      <trkpt lat="44.51362" lon="4.60083">
        <ele>175.80000305176</ele>
        <time>2020-05-31T07:23:01Z</time>
      </trkpt>
      <trkpt lat="44.51363" lon="4.6008">
        <ele>176</ele>
        <time>2020-05-31T07:23:02Z</time>
      </trkpt>
      <trkpt lat="44.51364" lon="4.60076">
        <ele>176</ele>
        <time>2020-05-31T07:23:03Z</time>
      </trkpt>
      <trkpt lat="44.51365" lon="4.60072">
        <ele>176.39999389648</ele>
        <time>2020-05-31T07:23:04Z</time>
      </trkpt>
      <trkpt lat="44.51365" lon="4.60068">
        <ele>176.80000305176</ele>
        <time>2020-05-31T07:23:05Z</time>
      </trkpt>
      <trkpt lat="44.51366" lon="4.60065">
        <ele>177</ele>
        <time>2020-05-31T07:23:06Z</time>
      </trkpt>
      <trkpt lat="44.51366" lon="4.60061">
        <ele>177.19999694824</ele>
        <time>2020-05-31T07:23:07Z</time>
      </trkpt>
      <trkpt lat="44.51367" lon="4.60058">
        <ele>177.60000610352</ele>
        <time>2020-05-31T07:23:08Z</time>
      </trkpt>
      <trkpt lat="44.51368" lon="4.60055">
        <ele>178.19999694824</ele>
        <time>2020-05-31T07:23:09Z</time>
      </trkpt>
      <trkpt lat="44.51369" lon="4.60052">
        <ele>178.39999389648</ele>
        <time>2020-05-31T07:23:10Z</time>
      </trkpt>
      <trkpt lat="44.5137" lon="4.60051">
        <ele>179</ele>
        <time>2020-05-31T07:23:13Z</time>
      </trkpt>
      <trkpt lat="44.51369" lon="4.6005">
        <ele>179.19999694824</ele>
        <time>2020-05-31T07:23:15Z</time>
      </trkpt>
      <trkpt lat="44.5137" lon="4.60049">
        <ele>179.39999389648</ele>
        <time>2020-05-31T07:23:16Z</time>
      </trkpt>
      <trkpt lat="44.5137" lon="4.60048">
        <ele>179.80000305176</ele>
        <time>2020-05-31T07:23:17Z</time>
      </trkpt>
      <trkpt lat="44.5137" lon="4.60047">
        <ele>180.19999694824</ele>
        <time>2020-05-31T07:23:18Z</time>
      </trkpt>
      <trkpt lat="44.51371" lon="4.60045">
        <ele>180.60000610352</ele>
        <time>2020-05-31T07:23:19Z</time>
      </trkpt>
      <trkpt lat="44.51371" lon="4.60043">
        <ele>181</ele>
        <time>2020-05-31T07:23:20Z</time>
      </trkpt>
      <trkpt lat="44.51372" lon="4.60041">
        <ele>181.39999389648</ele>
        <time>2020-05-31T07:23:21Z</time>
      </trkpt>
      <trkpt lat="44.51372" lon="4.60037">
        <ele>181.60000610352</ele>
        <time>2020-05-31T07:23:22Z</time>
      </trkpt>
      <trkpt lat="44.51372" lon="4.60034">
        <ele>181.60000610352</ele>
        <time>2020-05-31T07:23:23Z</time>
      </trkpt>
      <trkpt lat="44.51371" lon="4.60031">
        <ele>181.80000305176</ele>
        <time>2020-05-31T07:23:24Z</time>
      </trkpt>
      <trkpt lat="44.5137" lon="4.60028">
        <ele>182</ele>
        <time>2020-05-31T07:23:25Z</time>
      </trkpt>
      <trkpt lat="44.51369" lon="4.60026">
        <ele>182</ele>
        <time>2020-05-31T07:23:26Z</time>
      </trkpt>
      <trkpt lat="44.51364" lon="4.60017">
        <ele>182.39999389648</ele>
        <time>2020-05-31T07:23:29Z</time>
      </trkpt>
      <trkpt lat="44.51361" lon="4.60014">
        <ele>182.60000610352</ele>
        <time>2020-05-31T07:23:30Z</time>
      </trkpt>
      <trkpt lat="44.51358" lon="4.6001">
        <ele>182.60000610352</ele>
        <time>2020-05-31T07:23:31Z</time>
      </trkpt>
      <trkpt lat="44.51355" lon="4.60005">
        <ele>182.60000610352</ele>
        <time>2020-05-31T07:23:32Z</time>
      </trkpt>
      <trkpt lat="44.51353" lon="4.59999">
        <ele>182.60000610352</ele>
        <time>2020-05-31T07:23:33Z</time>
      </trkpt>
      <trkpt lat="44.51351" lon="4.59993">
        <ele>182.60000610352</ele>
        <time>2020-05-31T07:23:34Z</time>
      </trkpt>
      <trkpt lat="44.51349" lon="4.59988">
        <ele>182.60000610352</ele>
        <time>2020-05-31T07:23:35Z</time>
      </trkpt>
      <trkpt lat="44.51347" lon="4.59982">
        <ele>182.60000610352</ele>
        <time>2020-05-31T07:23:36Z</time>
      </trkpt>
      <trkpt lat="44.51346" lon="4.59977">
        <ele>182.60000610352</ele>
        <time>2020-05-31T07:23:37Z</time>
      </trkpt>
      <trkpt lat="44.51346" lon="4.59972">
        <ele>182.60000610352</ele>
        <time>2020-05-31T07:23:38Z</time>
      </trkpt>
      <trkpt lat="44.51347" lon="4.59969">
        <ele>182.19999694824</ele>
        <time>2020-05-31T07:23:39Z</time>
      </trkpt>
      <trkpt lat="44.51347" lon="4.59967">
        <ele>181.80000305176</ele>
        <time>2020-05-31T07:23:41Z</time>
      </trkpt>
      <trkpt lat="44.51347" lon="4.59967">
        <ele>179.19999694824</ele>
        <time>2020-05-31T07:23:55Z</time>
      </trkpt>
      <trkpt lat="44.51347" lon="4.59967">
        <ele>179.19999694824</ele>
        <time>2020-05-31T07:24:16Z</time>
      </trkpt>
      <trkpt lat="44.51348" lon="4.59966">
        <ele>179.19999694824</ele>
        <time>2020-05-31T07:24:19Z</time>
      </trkpt>
      <trkpt lat="44.51348" lon="4.59965">
        <ele>179</ele>
        <time>2020-05-31T07:24:20Z</time>
      </trkpt>
      <trkpt lat="44.51349" lon="4.59963">
        <ele>179.19999694824</ele>
        <time>2020-05-31T07:24:21Z</time>
      </trkpt>
      <trkpt lat="44.51352" lon="4.59957">
        <ele>179</ele>
        <time>2020-05-31T07:24:23Z</time>
      </trkpt>
      <trkpt lat="44.51353" lon="4.59955">
        <ele>179</ele>
        <time>2020-05-31T07:24:24Z</time>
      </trkpt>
      <trkpt lat="44.51354" lon="4.59952">
        <ele>178.80000305176</ele>
        <time>2020-05-31T07:24:25Z</time>
      </trkpt>
      <trkpt lat="44.51355" lon="4.5995">
        <ele>179</ele>
        <time>2020-05-31T07:24:26Z</time>
      </trkpt>
      <trkpt lat="44.51356" lon="4.59947">
        <ele>179</ele>
        <time>2020-05-31T07:24:27Z</time>
      </trkpt>
      <trkpt lat="44.51357" lon="4.59945">
        <ele>178.80000305176</ele>
        <time>2020-05-31T07:24:28Z</time>
      </trkpt>
      <trkpt lat="44.51358" lon="4.59943">
        <ele>178.80000305176</ele>
        <time>2020-05-31T07:24:29Z</time>
      </trkpt>
      <trkpt lat="44.5136" lon="4.59941">
        <ele>178.80000305176</ele>
        <time>2020-05-31T07:24:30Z</time>
      </trkpt>
      <trkpt lat="44.51361" lon="4.5994">
        <ele>178.60000610352</ele>
        <time>2020-05-31T07:24:31Z</time>
      </trkpt>
      <trkpt lat="44.51363" lon="4.5994">
        <ele>178.60000610352</ele>
        <time>2020-05-31T07:24:32Z</time>
      </trkpt>
      <trkpt lat="44.5137" lon="4.59939">
        <ele>178.19999694824</ele>
        <time>2020-05-31T07:24:35Z</time>
      </trkpt>
      <trkpt lat="44.51371" lon="4.59937">
        <ele>178.19999694824</ele>
        <time>2020-05-31T07:24:36Z</time>
      </trkpt>
      <trkpt lat="44.51372" lon="4.59935">
        <ele>178.19999694824</ele>
        <time>2020-05-31T07:24:37Z</time>
      </trkpt>
      <trkpt lat="44.51372" lon="4.59933">
        <ele>178</ele>
        <time>2020-05-31T07:24:38Z</time>
      </trkpt>
      <trkpt lat="44.51371" lon="4.59931">
        <ele>178.19999694824</ele>
        <time>2020-05-31T07:24:39Z</time>
      </trkpt>
      <trkpt lat="44.51369" lon="4.5993">
        <ele>178</ele>
        <time>2020-05-31T07:24:40Z</time>
      </trkpt>
      <trkpt lat="44.51368" lon="4.59929">
        <ele>178</ele>
        <time>2020-05-31T07:24:41Z</time>
      </trkpt>
      <trkpt lat="44.51366" lon="4.59928">
        <ele>178</ele>
        <time>2020-05-31T07:24:42Z</time>
      </trkpt>
      <trkpt lat="44.51365" lon="4.59927">
        <ele>178</ele>
        <time>2020-05-31T07:24:43Z</time>
      </trkpt>
      <trkpt lat="44.51366" lon="4.59927">
        <ele>178.19999694824</ele>
        <time>2020-05-31T07:24:44Z</time>
      </trkpt>
      <trkpt lat="44.51366" lon="4.59927">
        <ele>178</ele>
        <time>2020-05-31T07:24:45Z</time>
      </trkpt>
      <trkpt lat="44.51364" lon="4.59927">
        <ele>179.60000610352</ele>
        <time>2020-05-31T07:24:48Z</time>
      </trkpt>
      <trkpt lat="44.51364" lon="4.59926">
        <ele>180.19999694824</ele>
        <time>2020-05-31T07:24:49Z</time>
      </trkpt>
      <trkpt lat="44.51363" lon="4.59926">
        <ele>180.60000610352</ele>
        <time>2020-05-31T07:24:50Z</time>
      </trkpt>
      <trkpt lat="44.51363" lon="4.59926">
        <ele>181.60000610352</ele>
        <time>2020-05-31T07:24:53Z</time>
      </trkpt>
      <trkpt lat="44.51362" lon="4.59925">
        <ele>182</ele>
        <time>2020-05-31T07:24:56Z</time>
      </trkpt>
      <trkpt lat="44.51361" lon="4.59924">
        <ele>182.19999694824</ele>
        <time>2020-05-31T07:24:57Z</time>
      </trkpt>
      <trkpt lat="44.51361" lon="4.59924">
        <ele>182.39999389648</ele>
        <time>2020-05-31T07:24:58Z</time>
      </trkpt>
      <trkpt lat="44.51361" lon="4.59922">
        <ele>182.39999389648</ele>
        <time>2020-05-31T07:24:59Z</time>
      </trkpt>
      <trkpt lat="44.5136" lon="4.5992">
        <ele>182.60000610352</ele>
        <time>2020-05-31T07:25:00Z</time>
      </trkpt>
      <trkpt lat="44.5136" lon="4.59918">
        <ele>182.60000610352</ele>
        <time>2020-05-31T07:25:01Z</time>
      </trkpt>
      <trkpt lat="44.51359" lon="4.59917">
        <ele>182.60000610352</ele>
        <time>2020-05-31T07:25:03Z</time>
      </trkpt>
      <trkpt lat="44.51359" lon="4.59916">
        <ele>182.80000305176</ele>
        <time>2020-05-31T07:25:04Z</time>
      </trkpt>
      <trkpt lat="44.51359" lon="4.59915">
        <ele>182.80000305176</ele>
        <time>2020-05-31T07:25:05Z</time>
      </trkpt>
      <trkpt lat="44.51359" lon="4.59913">
        <ele>182.80000305176</ele>
        <time>2020-05-31T07:25:06Z</time>
      </trkpt>
      <trkpt lat="44.51358" lon="4.59912">
        <ele>182.80000305176</ele>
        <time>2020-05-31T07:25:07Z</time>
      </trkpt>
      <trkpt lat="44.51359" lon="4.59911">
        <ele>183</ele>
        <time>2020-05-31T07:25:08Z</time>
      </trkpt>
      <trkpt lat="44.51359" lon="4.5991">
        <ele>183.39999389648</ele>
        <time>2020-05-31T07:25:09Z</time>
      </trkpt>
      <trkpt lat="44.51358" lon="4.59909">
        <ele>183.39999389648</ele>
        <time>2020-05-31T07:25:10Z</time>
      </trkpt>
      <trkpt lat="44.51359" lon="4.59908">
        <ele>183.80000305176</ele>
        <time>2020-05-31T07:25:11Z</time>
      </trkpt>
      <trkpt lat="44.51358" lon="4.59907">
        <ele>184</ele>
        <time>2020-05-31T07:25:12Z</time>
      </trkpt>
      <trkpt lat="44.51358" lon="4.59906">
        <ele>184.19999694824</ele>
        <time>2020-05-31T07:25:13Z</time>
      </trkpt>
      <trkpt lat="44.51359" lon="4.59905">
        <ele>185.19999694824</ele>
        <time>2020-05-31T07:25:18Z</time>
      </trkpt>
      <trkpt lat="44.51359" lon="4.59904">
        <ele>185.60000610352</ele>
        <time>2020-05-31T07:25:22Z</time>
      </trkpt>
      <trkpt lat="44.5136" lon="4.59902">
        <ele>185.60000610352</ele>
        <time>2020-05-31T07:25:23Z</time>
      </trkpt>
      <trkpt lat="44.51361" lon="4.599">
        <ele>185.80000305176</ele>
        <time>2020-05-31T07:25:24Z</time>
      </trkpt>
      <trkpt lat="44.51362" lon="4.59898">
        <ele>185.80000305176</ele>
        <time>2020-05-31T07:25:25Z</time>
      </trkpt>
      <trkpt lat="44.51362" lon="4.59896">
        <ele>185.80000305176</ele>
        <time>2020-05-31T07:25:26Z</time>
      </trkpt>
      <trkpt lat="44.51362" lon="4.59893">
        <ele>185.80000305176</ele>
        <time>2020-05-31T07:25:27Z</time>
      </trkpt>
      <trkpt lat="44.51362" lon="4.59892">
        <ele>185.80000305176</ele>
        <time>2020-05-31T07:25:29Z</time>
      </trkpt>
      <trkpt lat="44.51363" lon="4.59892">
        <ele>186</ele>
        <time>2020-05-31T07:25:31Z</time>
      </trkpt>
      <trkpt lat="44.51363" lon="4.59891">
        <ele>186</ele>
        <time>2020-05-31T07:25:32Z</time>
      </trkpt>
      <trkpt lat="44.51363" lon="4.5989">
        <ele>186</ele>
        <time>2020-05-31T07:25:33Z</time>
      </trkpt>
      <trkpt lat="44.51363" lon="4.59889">
        <ele>186.39999389648</ele>
        <time>2020-05-31T07:25:34Z</time>
      </trkpt>
      <trkpt lat="44.51364" lon="4.59888">
        <ele>186.80000305176</ele>
        <time>2020-05-31T07:25:35Z</time>
      </trkpt>
      <trkpt lat="44.51364" lon="4.59887">
        <ele>187</ele>
        <time>2020-05-31T07:25:36Z</time>
      </trkpt>
      <trkpt lat="44.51364" lon="4.59885">
        <ele>188.19999694824</ele>
        <time>2020-05-31T07:25:40Z</time>
      </trkpt>
      <trkpt lat="44.51364" lon="4.59883">
        <ele>188.19999694824</ele>
        <time>2020-05-31T07:25:41Z</time>
      </trkpt>
      <trkpt lat="44.51365" lon="4.5988">
        <ele>188.19999694824</ele>
        <time>2020-05-31T07:25:42Z</time>
      </trkpt>
      <trkpt lat="44.51365" lon="4.59877">
        <ele>188.39999389648</ele>
        <time>2020-05-31T07:25:43Z</time>
      </trkpt>
      <trkpt lat="44.51366" lon="4.59873">
        <ele>188.60000610352</ele>
        <time>2020-05-31T07:25:44Z</time>
      </trkpt>
      <trkpt lat="44.51366" lon="4.5987">
        <ele>188.60000610352</ele>
        <time>2020-05-31T07:25:45Z</time>
      </trkpt>
      <trkpt lat="44.51366" lon="4.59868">
        <ele>188.80000305176</ele>
        <time>2020-05-31T07:25:46Z</time>
      </trkpt>
      <trkpt lat="44.51366" lon="4.59865">
        <ele>188.80000305176</ele>
        <time>2020-05-31T07:25:47Z</time>
      </trkpt>
      <trkpt lat="44.51366" lon="4.59861">
        <ele>189</ele>
        <time>2020-05-31T07:25:48Z</time>
      </trkpt>
      <trkpt lat="44.51366" lon="4.59859">
        <ele>189</ele>
        <time>2020-05-31T07:25:49Z</time>
      </trkpt>
      <trkpt lat="44.51367" lon="4.59856">
        <ele>189.19999694824</ele>
        <time>2020-05-31T07:25:50Z</time>
      </trkpt>
      <trkpt lat="44.51367" lon="4.59853">
        <ele>189.39999389648</ele>
        <time>2020-05-31T07:25:51Z</time>
      </trkpt>
      <trkpt lat="44.51368" lon="4.5985">
        <ele>189.39999389648</ele>
        <time>2020-05-31T07:25:52Z</time>
      </trkpt>
      <trkpt lat="44.51368" lon="4.59847">
        <ele>189.60000610352</ele>
        <time>2020-05-31T07:25:53Z</time>
      </trkpt>
      <trkpt lat="44.51369" lon="4.59845">
        <ele>189.80000305176</ele>
        <time>2020-05-31T07:25:54Z</time>
      </trkpt>
      <trkpt lat="44.51369" lon="4.59842">
        <ele>190</ele>
        <time>2020-05-31T07:25:55Z</time>
      </trkpt>
      <trkpt lat="44.51369" lon="4.5984">
        <ele>190.19999694824</ele>
        <time>2020-05-31T07:25:56Z</time>
      </trkpt>
      <trkpt lat="44.51368" lon="4.59837">
        <ele>190.19999694824</ele>
        <time>2020-05-31T07:25:57Z</time>
      </trkpt>
      <trkpt lat="44.51368" lon="4.59834">
        <ele>190.80000305176</ele>
        <time>2020-05-31T07:25:58Z</time>
      </trkpt>
      <trkpt lat="44.51368" lon="4.59831">
        <ele>191</ele>
        <time>2020-05-31T07:25:59Z</time>
      </trkpt>
      <trkpt lat="44.51367" lon="4.59829">
        <ele>191.39999389648</ele>
        <time>2020-05-31T07:26:00Z</time>
      </trkpt>
      <trkpt lat="44.51367" lon="4.59826">
        <ele>191.60000610352</ele>
        <time>2020-05-31T07:26:01Z</time>
      </trkpt>
      <trkpt lat="44.51366" lon="4.59823">
        <ele>191.80000305176</ele>
        <time>2020-05-31T07:26:02Z</time>
      </trkpt>
      <trkpt lat="44.51366" lon="4.5982">
        <ele>192</ele>
        <time>2020-05-31T07:26:03Z</time>
      </trkpt>
      <trkpt lat="44.51365" lon="4.59817">
        <ele>192.19999694824</ele>
        <time>2020-05-31T07:26:04Z</time>
      </trkpt>
      <trkpt lat="44.51365" lon="4.59814">
        <ele>192.60000610352</ele>
        <time>2020-05-31T07:26:05Z</time>
      </trkpt>
      <trkpt lat="44.51364" lon="4.59811">
        <ele>192.80000305176</ele>
        <time>2020-05-31T07:26:06Z</time>
      </trkpt>
      <trkpt lat="44.51364" lon="4.59807">
        <ele>192.80000305176</ele>
        <time>2020-05-31T07:26:07Z</time>
      </trkpt>
      <trkpt lat="44.51364" lon="4.59804">
        <ele>192.80000305176</ele>
        <time>2020-05-31T07:26:08Z</time>
      </trkpt>
      <trkpt lat="44.51364" lon="4.59801">
        <ele>193.19999694824</ele>
        <time>2020-05-31T07:26:09Z</time>
      </trkpt>
      <trkpt lat="44.51363" lon="4.59798">
        <ele>193</ele>
        <time>2020-05-31T07:26:10Z</time>
      </trkpt>
      <trkpt lat="44.51363" lon="4.59795">
        <ele>193.19999694824</ele>
        <time>2020-05-31T07:26:11Z</time>
      </trkpt>
      <trkpt lat="44.51363" lon="4.59791">
        <ele>193.39999389648</ele>
        <time>2020-05-31T07:26:12Z</time>
      </trkpt>
      <trkpt lat="44.51363" lon="4.59788">
        <ele>193.80000305176</ele>
        <time>2020-05-31T07:26:13Z</time>
      </trkpt>
      <trkpt lat="44.51363" lon="4.59784">
        <ele>194</ele>
        <time>2020-05-31T07:26:14Z</time>
      </trkpt>
      <trkpt lat="44.51363" lon="4.59781">
        <ele>194.19999694824</ele>
        <time>2020-05-31T07:26:15Z</time>
      </trkpt>
      <trkpt lat="44.51363" lon="4.59778">
        <ele>194.19999694824</ele>
        <time>2020-05-31T07:26:16Z</time>
      </trkpt>
      <trkpt lat="44.51363" lon="4.59774">
        <ele>194.39999389648</ele>
        <time>2020-05-31T07:26:17Z</time>
      </trkpt>
      <trkpt lat="44.51362" lon="4.59771">
        <ele>195</ele>
        <time>2020-05-31T07:26:18Z</time>
      </trkpt>
      <trkpt lat="44.51362" lon="4.59768">
        <ele>195.19999694824</ele>
        <time>2020-05-31T07:26:19Z</time>
      </trkpt>
      <trkpt lat="44.51361" lon="4.59765">
        <ele>195.60000610352</ele>
        <time>2020-05-31T07:26:20Z</time>
      </trkpt>
      <trkpt lat="44.5136" lon="4.59761">
        <ele>195.80000305176</ele>
        <time>2020-05-31T07:26:21Z</time>
      </trkpt>
      <trkpt lat="44.5136" lon="4.59758">
        <ele>195.80000305176</ele>
        <time>2020-05-31T07:26:22Z</time>
      </trkpt>
      <trkpt lat="44.5136" lon="4.59754">
        <ele>196.19999694824</ele>
        <time>2020-05-31T07:26:23Z</time>
      </trkpt>
      <trkpt lat="44.51359" lon="4.59751">
        <ele>196.80000305176</ele>
        <time>2020-05-31T07:26:24Z</time>
      </trkpt>
      <trkpt lat="44.51359" lon="4.59748">
        <ele>197</ele>
        <time>2020-05-31T07:26:25Z</time>
      </trkpt>
      <trkpt lat="44.51359" lon="4.59744">
        <ele>197.39999389648</ele>
        <time>2020-05-31T07:26:26Z</time>
      </trkpt>
      <trkpt lat="44.51358" lon="4.59741">
        <ele>197.80000305176</ele>
        <time>2020-05-31T07:26:27Z</time>
      </trkpt>
      <trkpt lat="44.51358" lon="4.59737">
        <ele>197.80000305176</ele>
        <time>2020-05-31T07:26:28Z</time>
      </trkpt>
      <trkpt lat="44.51357" lon="4.59733">
        <ele>198</ele>
        <time>2020-05-31T07:26:29Z</time>
      </trkpt>
      <trkpt lat="44.51356" lon="4.59729">
        <ele>198.19999694824</ele>
        <time>2020-05-31T07:26:30Z</time>
      </trkpt>
      <trkpt lat="44.51355" lon="4.59726">
        <ele>198.60000610352</ele>
        <time>2020-05-31T07:26:31Z</time>
      </trkpt>
      <trkpt lat="44.51354" lon="4.59722">
        <ele>198.80000305176</ele>
        <time>2020-05-31T07:26:32Z</time>
      </trkpt>
      <trkpt lat="44.51354" lon="4.59718">
        <ele>199</ele>
        <time>2020-05-31T07:26:33Z</time>
      </trkpt>
      <trkpt lat="44.51353" lon="4.59714">
        <ele>199.19999694824</ele>
        <time>2020-05-31T07:26:34Z</time>
      </trkpt>
      <trkpt lat="44.51352" lon="4.59711">
        <ele>199.39999389648</ele>
        <time>2020-05-31T07:26:35Z</time>
      </trkpt>
      <trkpt lat="44.51351" lon="4.59707">
        <ele>199.39999389648</ele>
        <time>2020-05-31T07:26:36Z</time>
      </trkpt>
      <trkpt lat="44.5135" lon="4.59704">
        <ele>199.39999389648</ele>
        <time>2020-05-31T07:26:37Z</time>
      </trkpt>
      <trkpt lat="44.51349" lon="4.59701">
        <ele>199.60000610352</ele>
        <time>2020-05-31T07:26:38Z</time>
      </trkpt>
      <trkpt lat="44.51349" lon="4.59697">
        <ele>199.80000305176</ele>
        <time>2020-05-31T07:26:39Z</time>
      </trkpt>
      <trkpt lat="44.51348" lon="4.59694">
        <ele>200.19999694824</ele>
        <time>2020-05-31T07:26:40Z</time>
      </trkpt>
      <trkpt lat="44.51348" lon="4.5969">
        <ele>200</ele>
        <time>2020-05-31T07:26:41Z</time>
      </trkpt>
      <trkpt lat="44.51347" lon="4.59687">
        <ele>200.19999694824</ele>
        <time>2020-05-31T07:26:42Z</time>
      </trkpt>
      <trkpt lat="44.51346" lon="4.59683">
        <ele>200.39999389648</ele>
        <time>2020-05-31T07:26:43Z</time>
      </trkpt>
      <trkpt lat="44.51345" lon="4.5968">
        <ele>200.39999389648</ele>
        <time>2020-05-31T07:26:44Z</time>
      </trkpt>
      <trkpt lat="44.51344" lon="4.59676">
        <ele>200.80000305176</ele>
        <time>2020-05-31T07:26:45Z</time>
      </trkpt>
      <trkpt lat="44.51344" lon="4.59673">
        <ele>201</ele>
        <time>2020-05-31T07:26:46Z</time>
      </trkpt>
      <trkpt lat="44.51343" lon="4.59669">
        <ele>201.19999694824</ele>
        <time>2020-05-31T07:26:47Z</time>
      </trkpt>
      <trkpt lat="44.51342" lon="4.59665">
        <ele>201.39999389648</ele>
        <time>2020-05-31T07:26:48Z</time>
      </trkpt>
      <trkpt lat="44.51342" lon="4.59662">
        <ele>201.39999389648</ele>
        <time>2020-05-31T07:26:49Z</time>
      </trkpt>
      <trkpt lat="44.5134" lon="4.5965">
        <ele>201.80000305176</ele>
        <time>2020-05-31T07:26:52Z</time>
      </trkpt>
      <trkpt lat="44.5134" lon="4.59646">
        <ele>202</ele>
        <time>2020-05-31T07:26:53Z</time>
      </trkpt>
      <trkpt lat="44.51339" lon="4.59642">
        <ele>202</ele>
        <time>2020-05-31T07:26:54Z</time>
      </trkpt>
      <trkpt lat="44.51338" lon="4.59638">
        <ele>202.19999694824</ele>
        <time>2020-05-31T07:26:55Z</time>
      </trkpt>
      <trkpt lat="44.51338" lon="4.59634">
        <ele>202.19999694824</ele>
        <time>2020-05-31T07:26:56Z</time>
      </trkpt>
      <trkpt lat="44.51337" lon="4.59631">
        <ele>202.39999389648</ele>
        <time>2020-05-31T07:26:57Z</time>
      </trkpt>
      <trkpt lat="44.51337" lon="4.59627">
        <ele>202.19999694824</ele>
        <time>2020-05-31T07:26:58Z</time>
      </trkpt>
      <trkpt lat="44.51337" lon="4.59623">
        <ele>202.39999389648</ele>
        <time>2020-05-31T07:26:59Z</time>
      </trkpt>
      <trkpt lat="44.51336" lon="4.59619">
        <ele>202.60000610352</ele>
        <time>2020-05-31T07:27:00Z</time>
      </trkpt>
      <trkpt lat="44.51336" lon="4.59615">
        <ele>202.60000610352</ele>
        <time>2020-05-31T07:27:01Z</time>
      </trkpt>
      <trkpt lat="44.51336" lon="4.59612">
        <ele>203</ele>
        <time>2020-05-31T07:27:02Z</time>
      </trkpt>
      <trkpt lat="44.51335" lon="4.59608">
        <ele>203.19999694824</ele>
        <time>2020-05-31T07:27:03Z</time>
      </trkpt>
      <trkpt lat="44.51334" lon="4.59605">
        <ele>203.19999694824</ele>
        <time>2020-05-31T07:27:04Z</time>
      </trkpt>
      <trkpt lat="44.51333" lon="4.59602">
        <ele>203.39999389648</ele>
        <time>2020-05-31T07:27:05Z</time>
      </trkpt>
      <trkpt lat="44.51332" lon="4.59598">
        <ele>203.39999389648</ele>
        <time>2020-05-31T07:27:06Z</time>
      </trkpt>
      <trkpt lat="44.51331" lon="4.59594">
        <ele>203.60000610352</ele>
        <time>2020-05-31T07:27:07Z</time>
      </trkpt>
      <trkpt lat="44.51331" lon="4.5959">
        <ele>203.60000610352</ele>
        <time>2020-05-31T07:27:08Z</time>
      </trkpt>
      <trkpt lat="44.51331" lon="4.59586">
        <ele>203.80000305176</ele>
        <time>2020-05-31T07:27:09Z</time>
      </trkpt>
      <trkpt lat="44.5133" lon="4.59582">
        <ele>203.80000305176</ele>
        <time>2020-05-31T07:27:10Z</time>
      </trkpt>
      <trkpt lat="44.51331" lon="4.59574">
        <ele>204.19999694824</ele>
        <time>2020-05-31T07:27:12Z</time>
      </trkpt>
      <trkpt lat="44.51332" lon="4.59566">
        <ele>204.60000610352</ele>
        <time>2020-05-31T07:27:14Z</time>
      </trkpt>
      <trkpt lat="44.51332" lon="4.59561">
        <ele>204.80000305176</ele>
        <time>2020-05-31T07:27:15Z</time>
      </trkpt>
      <trkpt lat="44.51332" lon="4.59557">
        <ele>204.80000305176</ele>
        <time>2020-05-31T07:27:16Z</time>
      </trkpt>
      <trkpt lat="44.51332" lon="4.59553">
        <ele>205</ele>
        <time>2020-05-31T07:27:17Z</time>
      </trkpt>
      <trkpt lat="44.51332" lon="4.59549">
        <ele>205.19999694824</ele>
        <time>2020-05-31T07:27:18Z</time>
      </trkpt>
      <trkpt lat="44.51332" lon="4.59546">
        <ele>205.19999694824</ele>
        <time>2020-05-31T07:27:19Z</time>
      </trkpt>
      <trkpt lat="44.51332" lon="4.59541">
        <ele>205</ele>
        <time>2020-05-31T07:27:20Z</time>
      </trkpt>
      <trkpt lat="44.51331" lon="4.59537">
        <ele>205.19999694824</ele>
        <time>2020-05-31T07:27:21Z</time>
      </trkpt>
      <trkpt lat="44.51331" lon="4.59533">
        <ele>205.39999389648</ele>
        <time>2020-05-31T07:27:22Z</time>
      </trkpt>
      <trkpt lat="44.51331" lon="4.59529">
        <ele>205.60000610352</ele>
        <time>2020-05-31T07:27:23Z</time>
      </trkpt>
      <trkpt lat="44.5133" lon="4.59521">
        <ele>205.60000610352</ele>
        <time>2020-05-31T07:27:25Z</time>
      </trkpt>
      <trkpt lat="44.5133" lon="4.59517">
        <ele>206</ele>
        <time>2020-05-31T07:27:26Z</time>
      </trkpt>
      <trkpt lat="44.5133" lon="4.59513">
        <ele>206.19999694824</ele>
        <time>2020-05-31T07:27:27Z</time>
      </trkpt>
      <trkpt lat="44.5133" lon="4.59509">
        <ele>206.19999694824</ele>
        <time>2020-05-31T07:27:28Z</time>
      </trkpt>
      <trkpt lat="44.5133" lon="4.59505">
        <ele>206.39999389648</ele>
        <time>2020-05-31T07:27:29Z</time>
      </trkpt>
      <trkpt lat="44.5133" lon="4.59501">
        <ele>206.60000610352</ele>
        <time>2020-05-31T07:27:30Z</time>
      </trkpt>
      <trkpt lat="44.5133" lon="4.59497">
        <ele>206.60000610352</ele>
        <time>2020-05-31T07:27:31Z</time>
      </trkpt>
      <trkpt lat="44.51329" lon="4.59493">
        <ele>206.60000610352</ele>
        <time>2020-05-31T07:27:32Z</time>
      </trkpt>
      <trkpt lat="44.51329" lon="4.59488">
        <ele>206.60000610352</ele>
        <time>2020-05-31T07:27:33Z</time>
      </trkpt>
      <trkpt lat="44.51329" lon="4.59484">
        <ele>206.60000610352</ele>
        <time>2020-05-31T07:27:34Z</time>
      </trkpt>
      <trkpt lat="44.51329" lon="4.5948">
        <ele>206.80000305176</ele>
        <time>2020-05-31T07:27:35Z</time>
      </trkpt>
      <trkpt lat="44.51329" lon="4.59476">
        <ele>206.80000305176</ele>
        <time>2020-05-31T07:27:36Z</time>
      </trkpt>
      <trkpt lat="44.51329" lon="4.59473">
        <ele>207.19999694824</ele>
        <time>2020-05-31T07:27:37Z</time>
      </trkpt>
      <trkpt lat="44.51329" lon="4.59469">
        <ele>207.39999389648</ele>
        <time>2020-05-31T07:27:38Z</time>
      </trkpt>
      <trkpt lat="44.51329" lon="4.59466">
        <ele>207.60000610352</ele>
        <time>2020-05-31T07:27:39Z</time>
      </trkpt>
      <trkpt lat="44.51329" lon="4.59462">
        <ele>207.80000305176</ele>
        <time>2020-05-31T07:27:40Z</time>
      </trkpt>
      <trkpt lat="44.51329" lon="4.59458">
        <ele>208</ele>
        <time>2020-05-31T07:27:41Z</time>
      </trkpt>
      <trkpt lat="44.5133" lon="4.59454">
        <ele>208</ele>
        <time>2020-05-31T07:27:42Z</time>
      </trkpt>
      <trkpt lat="44.5133" lon="4.5945">
        <ele>208.19999694824</ele>
        <time>2020-05-31T07:27:43Z</time>
      </trkpt>
      <trkpt lat="44.5133" lon="4.59447">
        <ele>208.19999694824</ele>
        <time>2020-05-31T07:27:44Z</time>
      </trkpt>
      <trkpt lat="44.5133" lon="4.59443">
        <ele>208.39999389648</ele>
        <time>2020-05-31T07:27:45Z</time>
      </trkpt>
      <trkpt lat="44.5133" lon="4.59439">
        <ele>208.39999389648</ele>
        <time>2020-05-31T07:27:46Z</time>
      </trkpt>
      <trkpt lat="44.51329" lon="4.59436">
        <ele>208.60000610352</ele>
        <time>2020-05-31T07:27:47Z</time>
      </trkpt>
      <trkpt lat="44.51329" lon="4.59432">
        <ele>209</ele>
        <time>2020-05-31T07:27:48Z</time>
      </trkpt>
      <trkpt lat="44.51329" lon="4.59429">
        <ele>209</ele>
        <time>2020-05-31T07:27:49Z</time>
      </trkpt>
      <trkpt lat="44.51328" lon="4.59427">
        <ele>209</ele>
        <time>2020-05-31T07:27:50Z</time>
      </trkpt>
      <trkpt lat="44.51328" lon="4.59424">
        <ele>209.39999389648</ele>
        <time>2020-05-31T07:27:51Z</time>
      </trkpt>
      <trkpt lat="44.51328" lon="4.59422">
        <ele>209.60000610352</ele>
        <time>2020-05-31T07:27:52Z</time>
      </trkpt>
      <trkpt lat="44.51328" lon="4.5942">
        <ele>209.80000305176</ele>
        <time>2020-05-31T07:27:53Z</time>
      </trkpt>
      <trkpt lat="44.51329" lon="4.59417">
        <ele>210</ele>
        <time>2020-05-31T07:27:54Z</time>
      </trkpt>
      <trkpt lat="44.51328" lon="4.59415">
        <ele>210</ele>
        <time>2020-05-31T07:27:55Z</time>
      </trkpt>
      <trkpt lat="44.51328" lon="4.59412">
        <ele>210.19999694824</ele>
        <time>2020-05-31T07:27:56Z</time>
      </trkpt>
      <trkpt lat="44.51328" lon="4.59411">
        <ele>210.39999389648</ele>
        <time>2020-05-31T07:27:57Z</time>
      </trkpt>
      <trkpt lat="44.51327" lon="4.5941">
        <ele>210.39999389648</ele>
        <time>2020-05-31T07:27:58Z</time>
      </trkpt>
      <trkpt lat="44.51325" lon="4.59409">
        <ele>210.60000610352</ele>
        <time>2020-05-31T07:27:59Z</time>
      </trkpt>
      <trkpt lat="44.51322" lon="4.59407">
        <ele>210.80000305176</ele>
        <time>2020-05-31T07:28:01Z</time>
      </trkpt>
      <trkpt lat="44.51321" lon="4.59406">
        <ele>211</ele>
        <time>2020-05-31T07:28:02Z</time>
      </trkpt>
      <trkpt lat="44.51319" lon="4.59406">
        <ele>211.19999694824</ele>
        <time>2020-05-31T07:28:03Z</time>
      </trkpt>
      <trkpt lat="44.51318" lon="4.59405">
        <ele>211.19999694824</ele>
        <time>2020-05-31T07:28:04Z</time>
      </trkpt>
      <trkpt lat="44.51317" lon="4.59406">
        <ele>211.39999389648</ele>
        <time>2020-05-31T07:28:05Z</time>
      </trkpt>
      <trkpt lat="44.51316" lon="4.59408">
        <ele>211.19999694824</ele>
        <time>2020-05-31T07:28:06Z</time>
      </trkpt>
      <trkpt lat="44.51315" lon="4.59413">
        <ele>211.39999389648</ele>
        <time>2020-05-31T07:28:08Z</time>
      </trkpt>
      <trkpt lat="44.51314" lon="4.59414">
        <ele>211.39999389648</ele>
        <time>2020-05-31T07:28:09Z</time>
      </trkpt>
      <trkpt lat="44.51313" lon="4.59413">
        <ele>211.39999389648</ele>
        <time>2020-05-31T07:28:11Z</time>
      </trkpt>
      <trkpt lat="44.51313" lon="4.59414">
        <ele>211.60000610352</ele>
        <time>2020-05-31T07:28:12Z</time>
      </trkpt>
      <trkpt lat="44.51313" lon="4.59415">
        <ele>211.39999389648</ele>
        <time>2020-05-31T07:28:14Z</time>
      </trkpt>
      <trkpt lat="44.51313" lon="4.59417">
        <ele>211.39999389648</ele>
        <time>2020-05-31T07:28:15Z</time>
      </trkpt>
      <trkpt lat="44.51313" lon="4.5942">
        <ele>211.39999389648</ele>
        <time>2020-05-31T07:28:16Z</time>
      </trkpt>
      <trkpt lat="44.51313" lon="4.59423">
        <ele>211.39999389648</ele>
        <time>2020-05-31T07:28:17Z</time>
      </trkpt>
      <trkpt lat="44.51314" lon="4.59427">
        <ele>211.39999389648</ele>
        <time>2020-05-31T07:28:18Z</time>
      </trkpt>
      <trkpt lat="44.51313" lon="4.59435">
        <ele>211.19999694824</ele>
        <time>2020-05-31T07:28:20Z</time>
      </trkpt>
      <trkpt lat="44.51312" lon="4.5944">
        <ele>211.39999389648</ele>
        <time>2020-05-31T07:28:21Z</time>
      </trkpt>
      <trkpt lat="44.51311" lon="4.59445">
        <ele>211.39999389648</ele>
        <time>2020-05-31T07:28:22Z</time>
      </trkpt>
      <trkpt lat="44.51311" lon="4.5945">
        <ele>211.39999389648</ele>
        <time>2020-05-31T07:28:23Z</time>
      </trkpt>
      <trkpt lat="44.5131" lon="4.59453">
        <ele>211.39999389648</ele>
        <time>2020-05-31T07:28:24Z</time>
      </trkpt>
      <trkpt lat="44.51308" lon="4.59456">
        <ele>211</ele>
        <time>2020-05-31T07:28:25Z</time>
      </trkpt>
      <trkpt lat="44.51308" lon="4.59459">
        <ele>211</ele>
        <time>2020-05-31T07:28:26Z</time>
      </trkpt>
      <trkpt lat="44.51308" lon="4.59462">
        <ele>210.80000305176</ele>
        <time>2020-05-31T07:28:27Z</time>
      </trkpt>
      <trkpt lat="44.51309" lon="4.59465">
        <ele>210.19999694824</ele>
        <time>2020-05-31T07:28:28Z</time>
      </trkpt>
      <trkpt lat="44.51309" lon="4.59468">
        <ele>210</ele>
        <time>2020-05-31T07:28:29Z</time>
      </trkpt>
      <trkpt lat="44.5131" lon="4.59472">
        <ele>209.80000305176</ele>
        <time>2020-05-31T07:28:30Z</time>
      </trkpt>
      <trkpt lat="44.51311" lon="4.59476">
        <ele>209.80000305176</ele>
        <time>2020-05-31T07:28:31Z</time>
      </trkpt>
      <trkpt lat="44.51311" lon="4.5948">
        <ele>209.60000610352</ele>
        <time>2020-05-31T07:28:32Z</time>
      </trkpt>
      <trkpt lat="44.51311" lon="4.59484">
        <ele>209.39999389648</ele>
        <time>2020-05-31T07:28:33Z</time>
      </trkpt>
      <trkpt lat="44.51312" lon="4.59487">
        <ele>209.19999694824</ele>
        <time>2020-05-31T07:28:34Z</time>
      </trkpt>
      <trkpt lat="44.51311" lon="4.5949">
        <ele>209</ele>
        <time>2020-05-31T07:28:35Z</time>
      </trkpt>
      <trkpt lat="44.51311" lon="4.59493">
        <ele>208.80000305176</ele>
        <time>2020-05-31T07:28:36Z</time>
      </trkpt>
      <trkpt lat="44.5131" lon="4.59496">
        <ele>208.39999389648</ele>
        <time>2020-05-31T07:28:37Z</time>
      </trkpt>
      <trkpt lat="44.51309" lon="4.59499">
        <ele>208.39999389648</ele>
        <time>2020-05-31T07:28:38Z</time>
      </trkpt>
      <trkpt lat="44.51308" lon="4.59502">
        <ele>208</ele>
        <time>2020-05-31T07:28:39Z</time>
      </trkpt>
      <trkpt lat="44.51307" lon="4.59505">
        <ele>207.39999389648</ele>
        <time>2020-05-31T07:28:40Z</time>
      </trkpt>
      <trkpt lat="44.51306" lon="4.59508">
        <ele>206.80000305176</ele>
        <time>2020-05-31T07:28:41Z</time>
      </trkpt>
      <trkpt lat="44.51306" lon="4.59512">
        <ele>206.39999389648</ele>
        <time>2020-05-31T07:28:42Z</time>
      </trkpt>
      <trkpt lat="44.51303" lon="4.59523">
        <ele>204.19999694824</ele>
        <time>2020-05-31T07:28:45Z</time>
      </trkpt>
      <trkpt lat="44.51303" lon="4.59528">
        <ele>203.80000305176</ele>
        <time>2020-05-31T07:28:46Z</time>
      </trkpt>
      <trkpt lat="44.51303" lon="4.59533">
        <ele>203.19999694824</ele>
        <time>2020-05-31T07:28:47Z</time>
      </trkpt>
      <trkpt lat="44.51303" lon="4.59537">
        <ele>202.80000305176</ele>
        <time>2020-05-31T07:28:48Z</time>
      </trkpt>
      <trkpt lat="44.51302" lon="4.59548">
        <ele>201.60000610352</ele>
        <time>2020-05-31T07:28:50Z</time>
      </trkpt>
      <trkpt lat="44.51302" lon="4.59553">
        <ele>201.60000610352</ele>
        <time>2020-05-31T07:28:51Z</time>
      </trkpt>
      <trkpt lat="44.51302" lon="4.59558">
        <ele>201.39999389648</ele>
        <time>2020-05-31T07:28:52Z</time>
      </trkpt>
      <trkpt lat="44.51302" lon="4.59563">
        <ele>201.19999694824</ele>
        <time>2020-05-31T07:28:53Z</time>
      </trkpt>
      <trkpt lat="44.51301" lon="4.59567">
        <ele>201</ele>
        <time>2020-05-31T07:28:54Z</time>
      </trkpt>
      <trkpt lat="44.51301" lon="4.59571">
        <ele>200.80000305176</ele>
        <time>2020-05-31T07:28:55Z</time>
      </trkpt>
      <trkpt lat="44.51301" lon="4.59575">
        <ele>200.19999694824</ele>
        <time>2020-05-31T07:28:56Z</time>
      </trkpt>
      <trkpt lat="44.51301" lon="4.59583">
        <ele>199.19999694824</ele>
        <time>2020-05-31T07:28:58Z</time>
      </trkpt>
      <trkpt lat="44.513" lon="4.59587">
        <ele>199.19999694824</ele>
        <time>2020-05-31T07:28:59Z</time>
      </trkpt>
      <trkpt lat="44.513" lon="4.59591">
        <ele>198.60000610352</ele>
        <time>2020-05-31T07:29:00Z</time>
      </trkpt>
      <trkpt lat="44.51299" lon="4.59594">
        <ele>198</ele>
        <time>2020-05-31T07:29:01Z</time>
      </trkpt>
      <trkpt lat="44.51299" lon="4.59596">
        <ele>197.19999694824</ele>
        <time>2020-05-31T07:29:02Z</time>
      </trkpt>
      <trkpt lat="44.51299" lon="4.59598">
        <ele>196.80000305176</ele>
        <time>2020-05-31T07:29:03Z</time>
      </trkpt>
      <trkpt lat="44.51299" lon="4.59599">
        <ele>195.80000305176</ele>
        <time>2020-05-31T07:29:04Z</time>
      </trkpt>
      <trkpt lat="44.51298" lon="4.59602">
        <ele>195.19999694824</ele>
        <time>2020-05-31T07:29:05Z</time>
      </trkpt>
      <trkpt lat="44.51298" lon="4.59604">
        <ele>194.60000610352</ele>
        <time>2020-05-31T07:29:06Z</time>
      </trkpt>
      <trkpt lat="44.51297" lon="4.59606">
        <ele>194</ele>
        <time>2020-05-31T07:29:07Z</time>
      </trkpt>
      <trkpt lat="44.51297" lon="4.59608">
        <ele>193.39999389648</ele>
        <time>2020-05-31T07:29:08Z</time>
      </trkpt>
      <trkpt lat="44.51297" lon="4.5961">
        <ele>191.60000610352</ele>
        <time>2020-05-31T07:29:11Z</time>
      </trkpt>
      <trkpt lat="44.51298" lon="4.59611">
        <ele>189.39999389648</ele>
        <time>2020-05-31T07:29:18Z</time>
      </trkpt>
      <trkpt lat="44.51297" lon="4.59612">
        <ele>189.39999389648</ele>
        <time>2020-05-31T07:29:19Z</time>
      </trkpt>
      <trkpt lat="44.51296" lon="4.59614">
        <ele>189.19999694824</ele>
        <time>2020-05-31T07:29:20Z</time>
      </trkpt>
      <trkpt lat="44.51296" lon="4.59617">
        <ele>189.19999694824</ele>
        <time>2020-05-31T07:29:21Z</time>
      </trkpt>
      <trkpt lat="44.51295" lon="4.5962">
        <ele>189.19999694824</ele>
        <time>2020-05-31T07:29:22Z</time>
      </trkpt>
      <trkpt lat="44.51295" lon="4.59621">
        <ele>189.19999694824</ele>
        <time>2020-05-31T07:29:23Z</time>
      </trkpt>
      <trkpt lat="44.51295" lon="4.59623">
        <ele>189</ele>
        <time>2020-05-31T07:29:24Z</time>
      </trkpt>
      <trkpt lat="44.51295" lon="4.59625">
        <ele>189.19999694824</ele>
        <time>2020-05-31T07:29:25Z</time>
      </trkpt>
      <trkpt lat="44.51294" lon="4.59626">
        <ele>189.19999694824</ele>
        <time>2020-05-31T07:29:26Z</time>
      </trkpt>
      <trkpt lat="44.51294" lon="4.59627">
        <ele>189.19999694824</ele>
        <time>2020-05-31T07:29:27Z</time>
      </trkpt>
      <trkpt lat="44.51294" lon="4.59629">
        <ele>189</ele>
        <time>2020-05-31T07:29:28Z</time>
      </trkpt>
      <trkpt lat="44.51294" lon="4.59632">
        <ele>189</ele>
        <time>2020-05-31T07:29:29Z</time>
      </trkpt>
      <trkpt lat="44.51294" lon="4.59634">
        <ele>188.80000305176</ele>
        <time>2020-05-31T07:29:30Z</time>
      </trkpt>
      <trkpt lat="44.51294" lon="4.59637">
        <ele>188.80000305176</ele>
        <time>2020-05-31T07:29:31Z</time>
      </trkpt>
      <trkpt lat="44.51294" lon="4.59641">
        <ele>188.80000305176</ele>
        <time>2020-05-31T07:29:32Z</time>
      </trkpt>
      <trkpt lat="44.51293" lon="4.59645">
        <ele>188.60000610352</ele>
        <time>2020-05-31T07:29:33Z</time>
      </trkpt>
      <trkpt lat="44.51292" lon="4.59648">
        <ele>188.80000305176</ele>
        <time>2020-05-31T07:29:34Z</time>
      </trkpt>
      <trkpt lat="44.51292" lon="4.59652">
        <ele>188.80000305176</ele>
        <time>2020-05-31T07:29:35Z</time>
      </trkpt>
      <trkpt lat="44.51291" lon="4.59655">
        <ele>188.80000305176</ele>
        <time>2020-05-31T07:29:36Z</time>
      </trkpt>
      <trkpt lat="44.5129" lon="4.59659">
        <ele>188.60000610352</ele>
        <time>2020-05-31T07:29:37Z</time>
      </trkpt>
      <trkpt lat="44.51289" lon="4.59663">
        <ele>188.60000610352</ele>
        <time>2020-05-31T07:29:38Z</time>
      </trkpt>
      <trkpt lat="44.51288" lon="4.59666">
        <ele>188.60000610352</ele>
        <time>2020-05-31T07:29:39Z</time>
      </trkpt>
      <trkpt lat="44.51287" lon="4.59671">
        <ele>188.80000305176</ele>
        <time>2020-05-31T07:29:40Z</time>
      </trkpt>
      <trkpt lat="44.51286" lon="4.59676">
        <ele>188.60000610352</ele>
        <time>2020-05-31T07:29:41Z</time>
      </trkpt>
      <trkpt lat="44.51286" lon="4.59681">
        <ele>188.60000610352</ele>
        <time>2020-05-31T07:29:42Z</time>
      </trkpt>
      <trkpt lat="44.51286" lon="4.59687">
        <ele>188.60000610352</ele>
        <time>2020-05-31T07:29:43Z</time>
      </trkpt>
      <trkpt lat="44.51287" lon="4.59692">
        <ele>188.60000610352</ele>
        <time>2020-05-31T07:29:44Z</time>
      </trkpt>
      <trkpt lat="44.51287" lon="4.59697">
        <ele>188.80000305176</ele>
        <time>2020-05-31T07:29:45Z</time>
      </trkpt>
      <trkpt lat="44.51288" lon="4.59701">
        <ele>189</ele>
        <time>2020-05-31T07:29:46Z</time>
      </trkpt>
      <trkpt lat="44.51288" lon="4.59706">
        <ele>188.80000305176</ele>
        <time>2020-05-31T07:29:47Z</time>
      </trkpt>
      <trkpt lat="44.51288" lon="4.5971">
        <ele>189</ele>
        <time>2020-05-31T07:29:48Z</time>
      </trkpt>
      <trkpt lat="44.51287" lon="4.59714">
        <ele>189</ele>
        <time>2020-05-31T07:29:49Z</time>
      </trkpt>
      <trkpt lat="44.51285" lon="4.59739">
        <ele>189.19999694824</ele>
        <time>2020-05-31T07:29:54Z</time>
      </trkpt>
      <trkpt lat="44.51284" lon="4.59744">
        <ele>189.39999389648</ele>
        <time>2020-05-31T07:29:55Z</time>
      </trkpt>
      <trkpt lat="44.51283" lon="4.59749">
        <ele>189.60000610352</ele>
        <time>2020-05-31T07:29:56Z</time>
      </trkpt>
      <trkpt lat="44.51282" lon="4.59754">
        <ele>189.60000610352</ele>
        <time>2020-05-31T07:29:57Z</time>
      </trkpt>
      <trkpt lat="44.51281" lon="4.59758">
        <ele>189.39999389648</ele>
        <time>2020-05-31T07:29:58Z</time>
      </trkpt>
      <trkpt lat="44.5128" lon="4.59764">
        <ele>189.39999389648</ele>
        <time>2020-05-31T07:29:59Z</time>
      </trkpt>
      <trkpt lat="44.51279" lon="4.59768">
        <ele>189.60000610352</ele>
        <time>2020-05-31T07:30:00Z</time>
      </trkpt>
      <trkpt lat="44.51277" lon="4.59774">
        <ele>189.39999389648</ele>
        <time>2020-05-31T07:30:01Z</time>
      </trkpt>
      <trkpt lat="44.51276" lon="4.59779">
        <ele>189.80000305176</ele>
        <time>2020-05-31T07:30:02Z</time>
      </trkpt>
      <trkpt lat="44.51275" lon="4.59784">
        <ele>190</ele>
        <time>2020-05-31T07:30:03Z</time>
      </trkpt>
      <trkpt lat="44.51274" lon="4.59788">
        <ele>190</ele>
        <time>2020-05-31T07:30:04Z</time>
      </trkpt>
      <trkpt lat="44.51273" lon="4.59793">
        <ele>190.19999694824</ele>
        <time>2020-05-31T07:30:05Z</time>
      </trkpt>
      <trkpt lat="44.5127" lon="4.59801">
        <ele>190.39999389648</ele>
        <time>2020-05-31T07:30:07Z</time>
      </trkpt>
      <trkpt lat="44.51269" lon="4.59805">
        <ele>190.39999389648</ele>
        <time>2020-05-31T07:30:08Z</time>
      </trkpt>
      <trkpt lat="44.51258" lon="4.59832">
        <ele>191</ele>
        <time>2020-05-31T07:30:14Z</time>
      </trkpt>
      <trkpt lat="44.51253" lon="4.59844">
        <ele>191</ele>
        <time>2020-05-31T07:30:16Z</time>
      </trkpt>
      <trkpt lat="44.51249" lon="4.59849">
        <ele>191</ele>
        <time>2020-05-31T07:30:17Z</time>
      </trkpt>
      <trkpt lat="44.51245" lon="4.59854">
        <ele>191</ele>
        <time>2020-05-31T07:30:18Z</time>
      </trkpt>
      <trkpt lat="44.51243" lon="4.59857">
        <ele>191</ele>
        <time>2020-05-31T07:30:19Z</time>
      </trkpt>
      <trkpt lat="44.51241" lon="4.59861">
        <ele>191</ele>
        <time>2020-05-31T07:30:20Z</time>
      </trkpt>
      <trkpt lat="44.51239" lon="4.59864">
        <ele>190.80000305176</ele>
        <time>2020-05-31T07:30:21Z</time>
      </trkpt>
      <trkpt lat="44.51238" lon="4.59867">
        <ele>190.60000610352</ele>
        <time>2020-05-31T07:30:22Z</time>
      </trkpt>
      <trkpt lat="44.51236" lon="4.59874">
        <ele>190.60000610352</ele>
        <time>2020-05-31T07:30:24Z</time>
      </trkpt>
      <trkpt lat="44.51234" lon="4.59878">
        <ele>190.60000610352</ele>
        <time>2020-05-31T07:30:25Z</time>
      </trkpt>
      <trkpt lat="44.51233" lon="4.59882">
        <ele>190.60000610352</ele>
        <time>2020-05-31T07:30:26Z</time>
      </trkpt>
      <trkpt lat="44.51232" lon="4.59886">
        <ele>190.60000610352</ele>
        <time>2020-05-31T07:30:27Z</time>
      </trkpt>
      <trkpt lat="44.5123" lon="4.59891">
        <ele>190.39999389648</ele>
        <time>2020-05-31T07:30:28Z</time>
      </trkpt>
      <trkpt lat="44.51228" lon="4.59895">
        <ele>190.60000610352</ele>
        <time>2020-05-31T07:30:29Z</time>
      </trkpt>
      <trkpt lat="44.51226" lon="4.59898">
        <ele>190.39999389648</ele>
        <time>2020-05-31T07:30:30Z</time>
      </trkpt>
      <trkpt lat="44.51224" lon="4.59902">
        <ele>190.39999389648</ele>
        <time>2020-05-31T07:30:31Z</time>
      </trkpt>
      <trkpt lat="44.51223" lon="4.59905">
        <ele>190.39999389648</ele>
        <time>2020-05-31T07:30:32Z</time>
      </trkpt>
      <trkpt lat="44.51221" lon="4.59909">
        <ele>190.60000610352</ele>
        <time>2020-05-31T07:30:33Z</time>
      </trkpt>
      <trkpt lat="44.51219" lon="4.59912">
        <ele>190.60000610352</ele>
        <time>2020-05-31T07:30:34Z</time>
      </trkpt>
      <trkpt lat="44.51217" lon="4.59914">
        <ele>191</ele>
        <time>2020-05-31T07:30:35Z</time>
      </trkpt>
      <trkpt lat="44.51215" lon="4.59917">
        <ele>191</ele>
        <time>2020-05-31T07:30:36Z</time>
      </trkpt>
      <trkpt lat="44.51213" lon="4.59919">
        <ele>191</ele>
        <time>2020-05-31T07:30:37Z</time>
      </trkpt>
      <trkpt lat="44.5121" lon="4.59921">
        <ele>191</ele>
        <time>2020-05-31T07:30:38Z</time>
      </trkpt>
      <trkpt lat="44.51204" lon="4.59924">
        <ele>191.19999694824</ele>
        <time>2020-05-31T07:30:40Z</time>
      </trkpt>
      <trkpt lat="44.512" lon="4.59925">
        <ele>191.39999389648</ele>
        <time>2020-05-31T07:30:41Z</time>
      </trkpt>
      <trkpt lat="44.51197" lon="4.59925">
        <ele>191.39999389648</ele>
        <time>2020-05-31T07:30:42Z</time>
      </trkpt>
      <trkpt lat="44.51194" lon="4.59926">
        <ele>191.39999389648</ele>
        <time>2020-05-31T07:30:43Z</time>
      </trkpt>
      <trkpt lat="44.5119" lon="4.59926">
        <ele>191.60000610352</ele>
        <time>2020-05-31T07:30:44Z</time>
      </trkpt>
      <trkpt lat="44.51187" lon="4.59926">
        <ele>191.39999389648</ele>
        <time>2020-05-31T07:30:45Z</time>
      </trkpt>
      <trkpt lat="44.51184" lon="4.59926">
        <ele>191.80000305176</ele>
        <time>2020-05-31T07:30:46Z</time>
      </trkpt>
      <trkpt lat="44.51181" lon="4.59925">
        <ele>191.80000305176</ele>
        <time>2020-05-31T07:30:47Z</time>
      </trkpt>
      <trkpt lat="44.51179" lon="4.59925">
        <ele>191.80000305176</ele>
        <time>2020-05-31T07:30:48Z</time>
      </trkpt>
      <trkpt lat="44.51176" lon="4.59925">
        <ele>191.80000305176</ele>
        <time>2020-05-31T07:30:49Z</time>
      </trkpt>
      <trkpt lat="44.51172" lon="4.59925">
        <ele>192</ele>
        <time>2020-05-31T07:30:50Z</time>
      </trkpt>
      <trkpt lat="44.51169" lon="4.59924">
        <ele>192.19999694824</ele>
        <time>2020-05-31T07:30:51Z</time>
      </trkpt>
      <trkpt lat="44.51167" lon="4.59923">
        <ele>192.60000610352</ele>
        <time>2020-05-31T07:30:52Z</time>
      </trkpt>
      <trkpt lat="44.51164" lon="4.59923">
        <ele>193.19999694824</ele>
        <time>2020-05-31T07:30:53Z</time>
      </trkpt>
      <trkpt lat="44.51161" lon="4.59922">
        <ele>193.39999389648</ele>
        <time>2020-05-31T07:30:54Z</time>
      </trkpt>
      <trkpt lat="44.51158" lon="4.59921">
        <ele>193.60000610352</ele>
        <time>2020-05-31T07:30:55Z</time>
      </trkpt>
      <trkpt lat="44.51156" lon="4.5992">
        <ele>194</ele>
        <time>2020-05-31T07:30:56Z</time>
      </trkpt>
      <trkpt lat="44.51154" lon="4.59919">
        <ele>194.39999389648</ele>
        <time>2020-05-31T07:30:57Z</time>
      </trkpt>
      <trkpt lat="44.51152" lon="4.59919">
        <ele>194.80000305176</ele>
        <time>2020-05-31T07:30:58Z</time>
      </trkpt>
      <trkpt lat="44.5115" lon="4.59919">
        <ele>195.19999694824</ele>
        <time>2020-05-31T07:30:59Z</time>
      </trkpt>
      <trkpt lat="44.51148" lon="4.59918">
        <ele>195.39999389648</ele>
        <time>2020-05-31T07:31:00Z</time>
      </trkpt>
      <trkpt lat="44.51147" lon="4.59916">
        <ele>195.80000305176</ele>
        <time>2020-05-31T07:31:01Z</time>
      </trkpt>
      <trkpt lat="44.51147" lon="4.59914">
        <ele>196.19999694824</ele>
        <time>2020-05-31T07:31:02Z</time>
      </trkpt>
      <trkpt lat="44.51148" lon="4.59912">
        <ele>196.39999389648</ele>
        <time>2020-05-31T07:31:03Z</time>
      </trkpt>
      <trkpt lat="44.51149" lon="4.59911">
        <ele>197</ele>
        <time>2020-05-31T07:31:04Z</time>
      </trkpt>
      <trkpt lat="44.51151" lon="4.5991">
        <ele>197.60000610352</ele>
        <time>2020-05-31T07:31:05Z</time>
      </trkpt>
      <trkpt lat="44.51154" lon="4.5991">
        <ele>197.80000305176</ele>
        <time>2020-05-31T07:31:06Z</time>
      </trkpt>
      <trkpt lat="44.51156" lon="4.59909">
        <ele>198</ele>
        <time>2020-05-31T07:31:07Z</time>
      </trkpt>
      <trkpt lat="44.51159" lon="4.59908">
        <ele>198.19999694824</ele>
        <time>2020-05-31T07:31:08Z</time>
      </trkpt>
      <trkpt lat="44.51162" lon="4.59906">
        <ele>198.19999694824</ele>
        <time>2020-05-31T07:31:09Z</time>
      </trkpt>
      <trkpt lat="44.51164" lon="4.59905">
        <ele>198.39999389648</ele>
        <time>2020-05-31T07:31:10Z</time>
      </trkpt>
      <trkpt lat="44.51167" lon="4.59903">
        <ele>198.60000610352</ele>
        <time>2020-05-31T07:31:11Z</time>
      </trkpt>
      <trkpt lat="44.5117" lon="4.59901">
        <ele>199</ele>
        <time>2020-05-31T07:31:12Z</time>
      </trkpt>
      <trkpt lat="44.51173" lon="4.59899">
        <ele>199.19999694824</ele>
        <time>2020-05-31T07:31:13Z</time>
      </trkpt>
      <trkpt lat="44.51176" lon="4.59897">
        <ele>199.39999389648</ele>
        <time>2020-05-31T07:31:14Z</time>
      </trkpt>
      <trkpt lat="44.51178" lon="4.59894">
        <ele>199.60000610352</ele>
        <time>2020-05-31T07:31:15Z</time>
      </trkpt>
      <trkpt lat="44.51181" lon="4.59892">
        <ele>199.60000610352</ele>
        <time>2020-05-31T07:31:16Z</time>
      </trkpt>
      <trkpt lat="44.51183" lon="4.59889">
        <ele>200</ele>
        <time>2020-05-31T07:31:17Z</time>
      </trkpt>
      <trkpt lat="44.51186" lon="4.59886">
        <ele>200.19999694824</ele>
        <time>2020-05-31T07:31:18Z</time>
      </trkpt>
      <trkpt lat="44.51188" lon="4.59883">
        <ele>200.60000610352</ele>
        <time>2020-05-31T07:31:19Z</time>
      </trkpt>
      <trkpt lat="44.51189" lon="4.5988">
        <ele>200.60000610352</ele>
        <time>2020-05-31T07:31:20Z</time>
      </trkpt>
      <trkpt lat="44.51191" lon="4.59877">
        <ele>200.80000305176</ele>
        <time>2020-05-31T07:31:21Z</time>
      </trkpt>
      <trkpt lat="44.51192" lon="4.59874">
        <ele>201</ele>
        <time>2020-05-31T07:31:22Z</time>
      </trkpt>
      <trkpt lat="44.51193" lon="4.59871">
        <ele>201</ele>
        <time>2020-05-31T07:31:23Z</time>
      </trkpt>
      <trkpt lat="44.51195" lon="4.59868">
        <ele>201.19999694824</ele>
        <time>2020-05-31T07:31:24Z</time>
      </trkpt>
      <trkpt lat="44.51196" lon="4.59864">
        <ele>201.39999389648</ele>
        <time>2020-05-31T07:31:25Z</time>
      </trkpt>
      <trkpt lat="44.51197" lon="4.59861">
        <ele>201.60000610352</ele>
        <time>2020-05-31T07:31:26Z</time>
      </trkpt>
      <trkpt lat="44.51197" lon="4.59858">
        <ele>201.60000610352</ele>
        <time>2020-05-31T07:31:27Z</time>
      </trkpt>
      <trkpt lat="44.51198" lon="4.59854">
        <ele>201.60000610352</ele>
        <time>2020-05-31T07:31:28Z</time>
      </trkpt>
      <trkpt lat="44.51199" lon="4.59851">
        <ele>201.80000305176</ele>
        <time>2020-05-31T07:31:29Z</time>
      </trkpt>
      <trkpt lat="44.51199" lon="4.59848">
        <ele>201.80000305176</ele>
        <time>2020-05-31T07:31:30Z</time>
      </trkpt>
      <trkpt lat="44.512" lon="4.59845">
        <ele>201.80000305176</ele>
        <time>2020-05-31T07:31:31Z</time>
      </trkpt>
      <trkpt lat="44.512" lon="4.59842">
        <ele>202</ele>
        <time>2020-05-31T07:31:32Z</time>
      </trkpt>
      <trkpt lat="44.51201" lon="4.59839">
        <ele>202.19999694824</ele>
        <time>2020-05-31T07:31:33Z</time>
      </trkpt>
      <trkpt lat="44.51201" lon="4.59835">
        <ele>202.19999694824</ele>
        <time>2020-05-31T07:31:34Z</time>
      </trkpt>
      <trkpt lat="44.51201" lon="4.59832">
        <ele>202.60000610352</ele>
        <time>2020-05-31T07:31:35Z</time>
      </trkpt>
      <trkpt lat="44.51202" lon="4.59828">
        <ele>203</ele>
        <time>2020-05-31T07:31:36Z</time>
      </trkpt>
      <trkpt lat="44.51202" lon="4.59825">
        <ele>203.19999694824</ele>
        <time>2020-05-31T07:31:37Z</time>
      </trkpt>
      <trkpt lat="44.51203" lon="4.59822">
        <ele>203.39999389648</ele>
        <time>2020-05-31T07:31:38Z</time>
      </trkpt>
      <trkpt lat="44.51203" lon="4.59818">
        <ele>203.60000610352</ele>
        <time>2020-05-31T07:31:39Z</time>
      </trkpt>
      <trkpt lat="44.51204" lon="4.59815">
        <ele>203.60000610352</ele>
        <time>2020-05-31T07:31:40Z</time>
      </trkpt>
      <trkpt lat="44.51206" lon="4.59812">
        <ele>203.80000305176</ele>
        <time>2020-05-31T07:31:41Z</time>
      </trkpt>
      <trkpt lat="44.51207" lon="4.59809">
        <ele>204.19999694824</ele>
        <time>2020-05-31T07:31:42Z</time>
      </trkpt>
      <trkpt lat="44.51208" lon="4.59806">
        <ele>204.19999694824</ele>
        <time>2020-05-31T07:31:43Z</time>
      </trkpt>
      <trkpt lat="44.51209" lon="4.59803">
        <ele>204.39999389648</ele>
        <time>2020-05-31T07:31:44Z</time>
      </trkpt>
      <trkpt lat="44.5121" lon="4.59799">
        <ele>204.39999389648</ele>
        <time>2020-05-31T07:31:45Z</time>
      </trkpt>
      <trkpt lat="44.51211" lon="4.59796">
        <ele>204.60000610352</ele>
        <time>2020-05-31T07:31:46Z</time>
      </trkpt>
      <trkpt lat="44.51212" lon="4.59793">
        <ele>204.60000610352</ele>
        <time>2020-05-31T07:31:47Z</time>
      </trkpt>
      <trkpt lat="44.51214" lon="4.5979">
        <ele>204.80000305176</ele>
        <time>2020-05-31T07:31:48Z</time>
      </trkpt>
      <trkpt lat="44.51215" lon="4.59787">
        <ele>205</ele>
        <time>2020-05-31T07:31:49Z</time>
      </trkpt>
      <trkpt lat="44.51217" lon="4.59785">
        <ele>205</ele>
        <time>2020-05-31T07:31:50Z</time>
      </trkpt>
      <trkpt lat="44.51219" lon="4.59782">
        <ele>205</ele>
        <time>2020-05-31T07:31:51Z</time>
      </trkpt>
      <trkpt lat="44.51222" lon="4.59776">
        <ele>205.60000610352</ele>
        <time>2020-05-31T07:31:53Z</time>
      </trkpt>
      <trkpt lat="44.51223" lon="4.59773">
        <ele>205.60000610352</ele>
        <time>2020-05-31T07:31:54Z</time>
      </trkpt>
      <trkpt lat="44.51225" lon="4.5977">
        <ele>205.80000305176</ele>
        <time>2020-05-31T07:31:55Z</time>
      </trkpt>
      <trkpt lat="44.51226" lon="4.59766">
        <ele>206</ele>
        <time>2020-05-31T07:31:56Z</time>
      </trkpt>
      <trkpt lat="44.51228" lon="4.59763">
        <ele>206.19999694824</ele>
        <time>2020-05-31T07:31:57Z</time>
      </trkpt>
      <trkpt lat="44.51229" lon="4.59759">
        <ele>206</ele>
        <time>2020-05-31T07:31:58Z</time>
      </trkpt>
      <trkpt lat="44.51231" lon="4.59755">
        <ele>206.19999694824</ele>
        <time>2020-05-31T07:31:59Z</time>
      </trkpt>
      <trkpt lat="44.51232" lon="4.59751">
        <ele>206.19999694824</ele>
        <time>2020-05-31T07:32:00Z</time>
      </trkpt>
      <trkpt lat="44.51232" lon="4.59747">
        <ele>206.39999389648</ele>
        <time>2020-05-31T07:32:01Z</time>
      </trkpt>
      <trkpt lat="44.51233" lon="4.59743">
        <ele>206.39999389648</ele>
        <time>2020-05-31T07:32:02Z</time>
      </trkpt>
      <trkpt lat="44.51234" lon="4.59739">
        <ele>206.60000610352</ele>
        <time>2020-05-31T07:32:03Z</time>
      </trkpt>
      <trkpt lat="44.51234" lon="4.59735">
        <ele>206.80000305176</ele>
        <time>2020-05-31T07:32:04Z</time>
      </trkpt>
      <trkpt lat="44.51234" lon="4.59731">
        <ele>206.80000305176</ele>
        <time>2020-05-31T07:32:05Z</time>
      </trkpt>
      <trkpt lat="44.51234" lon="4.59728">
        <ele>207</ele>
        <time>2020-05-31T07:32:06Z</time>
      </trkpt>
      <trkpt lat="44.51234" lon="4.59724">
        <ele>207.39999389648</ele>
        <time>2020-05-31T07:32:07Z</time>
      </trkpt>
      <trkpt lat="44.51234" lon="4.5972">
        <ele>207.60000610352</ele>
        <time>2020-05-31T07:32:08Z</time>
      </trkpt>
      <trkpt lat="44.51234" lon="4.59717">
        <ele>207.80000305176</ele>
        <time>2020-05-31T07:32:09Z</time>
      </trkpt>
      <trkpt lat="44.51233" lon="4.59714">
        <ele>207.80000305176</ele>
        <time>2020-05-31T07:32:10Z</time>
      </trkpt>
      <trkpt lat="44.51233" lon="4.59711">
        <ele>208</ele>
        <time>2020-05-31T07:32:11Z</time>
      </trkpt>
      <trkpt lat="44.51232" lon="4.59708">
        <ele>208.19999694824</ele>
        <time>2020-05-31T07:32:12Z</time>
      </trkpt>
      <trkpt lat="44.51231" lon="4.59705">
        <ele>208.19999694824</ele>
        <time>2020-05-31T07:32:13Z</time>
      </trkpt>
      <trkpt lat="44.5123" lon="4.59702">
        <ele>208.39999389648</ele>
        <time>2020-05-31T07:32:14Z</time>
      </trkpt>
      <trkpt lat="44.51229" lon="4.59699">
        <ele>208.60000610352</ele>
        <time>2020-05-31T07:32:15Z</time>
      </trkpt>
      <trkpt lat="44.51228" lon="4.59696">
        <ele>208.80000305176</ele>
        <time>2020-05-31T07:32:16Z</time>
      </trkpt>
      <trkpt lat="44.51227" lon="4.59694">
        <ele>209</ele>
        <time>2020-05-31T07:32:17Z</time>
      </trkpt>
      <trkpt lat="44.51227" lon="4.59691">
        <ele>209.39999389648</ele>
        <time>2020-05-31T07:32:18Z</time>
      </trkpt>
      <trkpt lat="44.51226" lon="4.59688">
        <ele>209.80000305176</ele>
        <time>2020-05-31T07:32:19Z</time>
      </trkpt>
      <trkpt lat="44.51226" lon="4.59685">
        <ele>209.80000305176</ele>
        <time>2020-05-31T07:32:20Z</time>
      </trkpt>
      <trkpt lat="44.51226" lon="4.59682">
        <ele>210</ele>
        <time>2020-05-31T07:32:21Z</time>
      </trkpt>
      <trkpt lat="44.51226" lon="4.59678">
        <ele>210.19999694824</ele>
        <time>2020-05-31T07:32:22Z</time>
      </trkpt>
      <trkpt lat="44.51226" lon="4.59675">
        <ele>210.39999389648</ele>
        <time>2020-05-31T07:32:23Z</time>
      </trkpt>
      <trkpt lat="44.51227" lon="4.59671">
        <ele>210.60000610352</ele>
        <time>2020-05-31T07:32:24Z</time>
      </trkpt>
      <trkpt lat="44.51227" lon="4.59668">
        <ele>210.80000305176</ele>
        <time>2020-05-31T07:32:25Z</time>
      </trkpt>
      <trkpt lat="44.51228" lon="4.59664">
        <ele>211</ele>
        <time>2020-05-31T07:32:26Z</time>
      </trkpt>
      <trkpt lat="44.51228" lon="4.59661">
        <ele>211</ele>
        <time>2020-05-31T07:32:27Z</time>
      </trkpt>
      <trkpt lat="44.51227" lon="4.59657">
        <ele>211.60000610352</ele>
        <time>2020-05-31T07:32:28Z</time>
      </trkpt>
      <trkpt lat="44.51227" lon="4.59654">
        <ele>211.80000305176</ele>
        <time>2020-05-31T07:32:29Z</time>
      </trkpt>
      <trkpt lat="44.51227" lon="4.5965">
        <ele>212</ele>
        <time>2020-05-31T07:32:30Z</time>
      </trkpt>
      <trkpt lat="44.51226" lon="4.59647">
        <ele>212</ele>
        <time>2020-05-31T07:32:31Z</time>
      </trkpt>
      <trkpt lat="44.51226" lon="4.59643">
        <ele>212.19999694824</ele>
        <time>2020-05-31T07:32:32Z</time>
      </trkpt>
      <trkpt lat="44.51226" lon="4.5964">
        <ele>212.80000305176</ele>
        <time>2020-05-31T07:32:33Z</time>
      </trkpt>
      <trkpt lat="44.51225" lon="4.59637">
        <ele>212.80000305176</ele>
        <time>2020-05-31T07:32:34Z</time>
      </trkpt>
      <trkpt lat="44.51225" lon="4.59635">
        <ele>212.80000305176</ele>
        <time>2020-05-31T07:32:35Z</time>
      </trkpt>
      <trkpt lat="44.51224" lon="4.59634">
        <ele>213</ele>
        <time>2020-05-31T07:32:36Z</time>
      </trkpt>
      <trkpt lat="44.51223" lon="4.59633">
        <ele>213</ele>
        <time>2020-05-31T07:32:37Z</time>
      </trkpt>
      <trkpt lat="44.51222" lon="4.59632">
        <ele>213.39999389648</ele>
        <time>2020-05-31T07:32:38Z</time>
      </trkpt>
      <trkpt lat="44.51221" lon="4.59634">
        <ele>213.80000305176</ele>
        <time>2020-05-31T07:32:39Z</time>
      </trkpt>
      <trkpt lat="44.5122" lon="4.59635">
        <ele>213.80000305176</ele>
        <time>2020-05-31T07:32:40Z</time>
      </trkpt>
      <trkpt lat="44.5122" lon="4.59637">
        <ele>214</ele>
        <time>2020-05-31T07:32:41Z</time>
      </trkpt>
      <trkpt lat="44.5122" lon="4.5964">
        <ele>214.19999694824</ele>
        <time>2020-05-31T07:32:42Z</time>
      </trkpt>
      <trkpt lat="44.5122" lon="4.59643">
        <ele>214.19999694824</ele>
        <time>2020-05-31T07:32:43Z</time>
      </trkpt>
      <trkpt lat="44.5122" lon="4.59646">
        <ele>214.60000610352</ele>
        <time>2020-05-31T07:32:44Z</time>
      </trkpt>
      <trkpt lat="44.51219" lon="4.59649">
        <ele>215</ele>
        <time>2020-05-31T07:32:45Z</time>
      </trkpt>
      <trkpt lat="44.51219" lon="4.59652">
        <ele>215.19999694824</ele>
        <time>2020-05-31T07:32:46Z</time>
      </trkpt>
      <trkpt lat="44.51219" lon="4.59654">
        <ele>215.80000305176</ele>
        <time>2020-05-31T07:32:47Z</time>
      </trkpt>
      <trkpt lat="44.51218" lon="4.59657">
        <ele>215.80000305176</ele>
        <time>2020-05-31T07:32:48Z</time>
      </trkpt>
      <trkpt lat="44.51217" lon="4.59661">
        <ele>216.19999694824</ele>
        <time>2020-05-31T07:32:49Z</time>
      </trkpt>
      <trkpt lat="44.51217" lon="4.59663">
        <ele>216.60000610352</ele>
        <time>2020-05-31T07:32:50Z</time>
      </trkpt>
      <trkpt lat="44.51216" lon="4.59666">
        <ele>216.80000305176</ele>
        <time>2020-05-31T07:32:51Z</time>
      </trkpt>
      <trkpt lat="44.51216" lon="4.59669">
        <ele>217.19999694824</ele>
        <time>2020-05-31T07:32:52Z</time>
      </trkpt>
      <trkpt lat="44.51215" lon="4.59672">
        <ele>217.19999694824</ele>
        <time>2020-05-31T07:32:53Z</time>
      </trkpt>
      <trkpt lat="44.51214" lon="4.59675">
        <ele>217.39999389648</ele>
        <time>2020-05-31T07:32:54Z</time>
      </trkpt>
      <trkpt lat="44.51213" lon="4.59678">
        <ele>217.80000305176</ele>
        <time>2020-05-31T07:32:55Z</time>
      </trkpt>
      <trkpt lat="44.51213" lon="4.5968">
        <ele>218</ele>
        <time>2020-05-31T07:32:56Z</time>
      </trkpt>
      <trkpt lat="44.51212" lon="4.59683">
        <ele>218</ele>
        <time>2020-05-31T07:32:57Z</time>
      </trkpt>
      <trkpt lat="44.51211" lon="4.59686">
        <ele>218</ele>
        <time>2020-05-31T07:32:58Z</time>
      </trkpt>
      <trkpt lat="44.51211" lon="4.59689">
        <ele>218.39999389648</ele>
        <time>2020-05-31T07:32:59Z</time>
      </trkpt>
      <trkpt lat="44.5121" lon="4.59692">
        <ele>218.60000610352</ele>
        <time>2020-05-31T07:33:00Z</time>
      </trkpt>
      <trkpt lat="44.51209" lon="4.59694">
        <ele>218.80000305176</ele>
        <time>2020-05-31T07:33:01Z</time>
      </trkpt>
      <trkpt lat="44.51208" lon="4.59697">
        <ele>219.19999694824</ele>
        <time>2020-05-31T07:33:02Z</time>
      </trkpt>
      <trkpt lat="44.51207" lon="4.597">
        <ele>219.19999694824</ele>
        <time>2020-05-31T07:33:03Z</time>
      </trkpt>
      <trkpt lat="44.51207" lon="4.59703">
        <ele>219.39999389648</ele>
        <time>2020-05-31T07:33:04Z</time>
      </trkpt>
      <trkpt lat="44.51206" lon="4.59706">
        <ele>219.60000610352</ele>
        <time>2020-05-31T07:33:05Z</time>
      </trkpt>
      <trkpt lat="44.51205" lon="4.59709">
        <ele>219.60000610352</ele>
        <time>2020-05-31T07:33:06Z</time>
      </trkpt>
      <trkpt lat="44.51203" lon="4.59712">
        <ele>219.80000305176</ele>
        <time>2020-05-31T07:33:07Z</time>
      </trkpt>
      <trkpt lat="44.51202" lon="4.59715">
        <ele>220.19999694824</ele>
        <time>2020-05-31T07:33:08Z</time>
      </trkpt>
      <trkpt lat="44.51201" lon="4.59718">
        <ele>220.60000610352</ele>
        <time>2020-05-31T07:33:09Z</time>
      </trkpt>
      <trkpt lat="44.512" lon="4.5972">
        <ele>220.80000305176</ele>
        <time>2020-05-31T07:33:10Z</time>
      </trkpt>
      <trkpt lat="44.51199" lon="4.59723">
        <ele>221</ele>
        <time>2020-05-31T07:33:11Z</time>
      </trkpt>
      <trkpt lat="44.51198" lon="4.59726">
        <ele>221.39999389648</ele>
        <time>2020-05-31T07:33:12Z</time>
      </trkpt>
      <trkpt lat="44.51197" lon="4.59728">
        <ele>221.60000610352</ele>
        <time>2020-05-31T07:33:13Z</time>
      </trkpt>
      <trkpt lat="44.51197" lon="4.59731">
        <ele>221.60000610352</ele>
        <time>2020-05-31T07:33:14Z</time>
      </trkpt>
      <trkpt lat="44.51196" lon="4.59733">
        <ele>221.80000305176</ele>
        <time>2020-05-31T07:33:15Z</time>
      </trkpt>
      <trkpt lat="44.51195" lon="4.59736">
        <ele>222.19999694824</ele>
        <time>2020-05-31T07:33:16Z</time>
      </trkpt>
      <trkpt lat="44.51194" lon="4.59739">
        <ele>222.19999694824</ele>
        <time>2020-05-31T07:33:17Z</time>
      </trkpt>
      <trkpt lat="44.51192" lon="4.59741">
        <ele>222.19999694824</ele>
        <time>2020-05-31T07:33:18Z</time>
      </trkpt>
      <trkpt lat="44.5119" lon="4.59747">
        <ele>222.60000610352</ele>
        <time>2020-05-31T07:33:20Z</time>
      </trkpt>
      <trkpt lat="44.51188" lon="4.5975">
        <ele>222.80000305176</ele>
        <time>2020-05-31T07:33:21Z</time>
      </trkpt>
      <trkpt lat="44.51187" lon="4.59752">
        <ele>223</ele>
        <time>2020-05-31T07:33:22Z</time>
      </trkpt>
      <trkpt lat="44.51185" lon="4.59755">
        <ele>223.19999694824</ele>
        <time>2020-05-31T07:33:23Z</time>
      </trkpt>
      <trkpt lat="44.51184" lon="4.59757">
        <ele>223.19999694824</ele>
        <time>2020-05-31T07:33:24Z</time>
      </trkpt>
      <trkpt lat="44.51182" lon="4.5976">
        <ele>223.39999389648</ele>
        <time>2020-05-31T07:33:25Z</time>
      </trkpt>
      <trkpt lat="44.51181" lon="4.59762">
        <ele>223.39999389648</ele>
        <time>2020-05-31T07:33:26Z</time>
      </trkpt>
      <trkpt lat="44.51179" lon="4.59764">
        <ele>223.60000610352</ele>
        <time>2020-05-31T07:33:27Z</time>
      </trkpt>
      <trkpt lat="44.51178" lon="4.59766">
        <ele>223.60000610352</ele>
        <time>2020-05-31T07:33:28Z</time>
      </trkpt>
      <trkpt lat="44.51176" lon="4.59765">
        <ele>223.80000305176</ele>
        <time>2020-05-31T07:33:29Z</time>
      </trkpt>
      <trkpt lat="44.51175" lon="4.59764">
        <ele>224</ele>
        <time>2020-05-31T07:33:30Z</time>
      </trkpt>
      <trkpt lat="44.51175" lon="4.59762">
        <ele>224.19999694824</ele>
        <time>2020-05-31T07:33:31Z</time>
      </trkpt>
      <trkpt lat="44.51176" lon="4.5976">
        <ele>224.19999694824</ele>
        <time>2020-05-31T07:33:32Z</time>
      </trkpt>
      <trkpt lat="44.51178" lon="4.59757">
        <ele>224.39999389648</ele>
        <time>2020-05-31T07:33:33Z</time>
      </trkpt>
      <trkpt lat="44.51179" lon="4.59754">
        <ele>224.60000610352</ele>
        <time>2020-05-31T07:33:34Z</time>
      </trkpt>
      <trkpt lat="44.51181" lon="4.59752">
        <ele>224.80000305176</ele>
        <time>2020-05-31T07:33:35Z</time>
      </trkpt>
      <trkpt lat="44.51182" lon="4.59749">
        <ele>224.80000305176</ele>
        <time>2020-05-31T07:33:36Z</time>
      </trkpt>
      <trkpt lat="44.51183" lon="4.59745">
        <ele>225</ele>
        <time>2020-05-31T07:33:37Z</time>
      </trkpt>
      <trkpt lat="44.51184" lon="4.59742">
        <ele>225.19999694824</ele>
        <time>2020-05-31T07:33:38Z</time>
      </trkpt>
      <trkpt lat="44.51185" lon="4.59739">
        <ele>225.19999694824</ele>
        <time>2020-05-31T07:33:39Z</time>
      </trkpt>
      <trkpt lat="44.51186" lon="4.59735">
        <ele>225.60000610352</ele>
        <time>2020-05-31T07:33:40Z</time>
      </trkpt>
      <trkpt lat="44.51187" lon="4.59732">
        <ele>226</ele>
        <time>2020-05-31T07:33:41Z</time>
      </trkpt>
      <trkpt lat="44.51187" lon="4.59729">
        <ele>226.19999694824</ele>
        <time>2020-05-31T07:33:42Z</time>
      </trkpt>
      <trkpt lat="44.51188" lon="4.59725">
        <ele>226.19999694824</ele>
        <time>2020-05-31T07:33:43Z</time>
      </trkpt>
      <trkpt lat="44.51189" lon="4.59722">
        <ele>226.39999389648</ele>
        <time>2020-05-31T07:33:44Z</time>
      </trkpt>
      <trkpt lat="44.5119" lon="4.59719">
        <ele>226.60000610352</ele>
        <time>2020-05-31T07:33:45Z</time>
      </trkpt>
      <trkpt lat="44.5119" lon="4.59716">
        <ele>226.80000305176</ele>
        <time>2020-05-31T07:33:46Z</time>
      </trkpt>
      <trkpt lat="44.51193" lon="4.59704">
        <ele>227</ele>
        <time>2020-05-31T07:33:49Z</time>
      </trkpt>
      <trkpt lat="44.51195" lon="4.59691">
        <ele>227.39999389648</ele>
        <time>2020-05-31T07:33:52Z</time>
      </trkpt>
      <trkpt lat="44.51197" lon="4.59666">
        <ele>227.80000305176</ele>
        <time>2020-05-31T07:33:58Z</time>
      </trkpt>
      <trkpt lat="44.51198" lon="4.59661">
        <ele>228</ele>
        <time>2020-05-31T07:33:59Z</time>
      </trkpt>
      <trkpt lat="44.51197" lon="4.59657">
        <ele>228</ele>
        <time>2020-05-31T07:34:00Z</time>
      </trkpt>
      <trkpt lat="44.51197" lon="4.59653">
        <ele>228</ele>
        <time>2020-05-31T07:34:01Z</time>
      </trkpt>
      <trkpt lat="44.51196" lon="4.59649">
        <ele>228</ele>
        <time>2020-05-31T07:34:02Z</time>
      </trkpt>
      <trkpt lat="44.51195" lon="4.59645">
        <ele>228.19999694824</ele>
        <time>2020-05-31T07:34:03Z</time>
      </trkpt>
      <trkpt lat="44.51194" lon="4.59641">
        <ele>228.19999694824</ele>
        <time>2020-05-31T07:34:04Z</time>
      </trkpt>
      <trkpt lat="44.51193" lon="4.59638">
        <ele>228.19999694824</ele>
        <time>2020-05-31T07:34:05Z</time>
      </trkpt>
      <trkpt lat="44.51191" lon="4.59635">
        <ele>228.19999694824</ele>
        <time>2020-05-31T07:34:06Z</time>
      </trkpt>
      <trkpt lat="44.51189" lon="4.59632">
        <ele>228.39999389648</ele>
        <time>2020-05-31T07:34:07Z</time>
      </trkpt>
      <trkpt lat="44.51188" lon="4.59629">
        <ele>228.39999389648</ele>
        <time>2020-05-31T07:34:08Z</time>
      </trkpt>
      <trkpt lat="44.51186" lon="4.59627">
        <ele>228.60000610352</ele>
        <time>2020-05-31T07:34:09Z</time>
      </trkpt>
      <trkpt lat="44.51184" lon="4.59625">
        <ele>228.60000610352</ele>
        <time>2020-05-31T07:34:10Z</time>
      </trkpt>
      <trkpt lat="44.51182" lon="4.59623">
        <ele>229</ele>
        <time>2020-05-31T07:34:11Z</time>
      </trkpt>
      <trkpt lat="44.5118" lon="4.59621">
        <ele>229.19999694824</ele>
        <time>2020-05-31T07:34:12Z</time>
      </trkpt>
      <trkpt lat="44.51179" lon="4.59619">
        <ele>229.39999389648</ele>
        <time>2020-05-31T07:34:13Z</time>
      </trkpt>
      <trkpt lat="44.51178" lon="4.59617">
        <ele>229.39999389648</ele>
        <time>2020-05-31T07:34:14Z</time>
      </trkpt>
      <trkpt lat="44.51176" lon="4.59616">
        <ele>229.80000305176</ele>
        <time>2020-05-31T07:34:15Z</time>
      </trkpt>
      <trkpt lat="44.51175" lon="4.59617">
        <ele>230</ele>
        <time>2020-05-31T07:34:16Z</time>
      </trkpt>
      <trkpt lat="44.51174" lon="4.59619">
        <ele>230.39999389648</ele>
        <time>2020-05-31T07:34:17Z</time>
      </trkpt>
      <trkpt lat="44.51174" lon="4.59621">
        <ele>230.60000610352</ele>
        <time>2020-05-31T07:34:18Z</time>
      </trkpt>
      <trkpt lat="44.51175" lon="4.59623">
        <ele>230.80000305176</ele>
        <time>2020-05-31T07:34:19Z</time>
      </trkpt>
      <trkpt lat="44.51175" lon="4.59626">
        <ele>231.39999389648</ele>
        <time>2020-05-31T07:34:20Z</time>
      </trkpt>
      <trkpt lat="44.51177" lon="4.59629">
        <ele>231.60000610352</ele>
        <time>2020-05-31T07:34:21Z</time>
      </trkpt>
      <trkpt lat="44.51178" lon="4.59631">
        <ele>232</ele>
        <time>2020-05-31T07:34:22Z</time>
      </trkpt>
      <trkpt lat="44.51178" lon="4.59634">
        <ele>232</ele>
        <time>2020-05-31T07:34:23Z</time>
      </trkpt>
      <trkpt lat="44.51179" lon="4.59637">
        <ele>232.19999694824</ele>
        <time>2020-05-31T07:34:24Z</time>
      </trkpt>
      <trkpt lat="44.5118" lon="4.5964">
        <ele>232.39999389648</ele>
        <time>2020-05-31T07:34:25Z</time>
      </trkpt>
      <trkpt lat="44.5118" lon="4.59643">
        <ele>232.39999389648</ele>
        <time>2020-05-31T07:34:26Z</time>
      </trkpt>
      <trkpt lat="44.51181" lon="4.59647">
        <ele>232.80000305176</ele>
        <time>2020-05-31T07:34:27Z</time>
      </trkpt>
      <trkpt lat="44.51181" lon="4.59649">
        <ele>233</ele>
        <time>2020-05-31T07:34:28Z</time>
      </trkpt>
      <trkpt lat="44.51181" lon="4.59653">
        <ele>233.19999694824</ele>
        <time>2020-05-31T07:34:29Z</time>
      </trkpt>
      <trkpt lat="44.51181" lon="4.59656">
        <ele>233.60000610352</ele>
        <time>2020-05-31T07:34:30Z</time>
      </trkpt>
      <trkpt lat="44.51181" lon="4.59659">
        <ele>233.80000305176</ele>
        <time>2020-05-31T07:34:31Z</time>
      </trkpt>
      <trkpt lat="44.5118" lon="4.59662">
        <ele>234.19999694824</ele>
        <time>2020-05-31T07:34:32Z</time>
      </trkpt>
      <trkpt lat="44.5118" lon="4.59664">
        <ele>234.80000305176</ele>
        <time>2020-05-31T07:34:33Z</time>
      </trkpt>
      <trkpt lat="44.51179" lon="4.59667">
        <ele>235.19999694824</ele>
        <time>2020-05-31T07:34:34Z</time>
      </trkpt>
      <trkpt lat="44.51178" lon="4.5967">
        <ele>235.60000610352</ele>
        <time>2020-05-31T07:34:35Z</time>
      </trkpt>
      <trkpt lat="44.51177" lon="4.59672">
        <ele>236</ele>
        <time>2020-05-31T07:34:36Z</time>
      </trkpt>
      <trkpt lat="44.51176" lon="4.59675">
        <ele>236.19999694824</ele>
        <time>2020-05-31T07:34:37Z</time>
      </trkpt>
      <trkpt lat="44.51175" lon="4.59678">
        <ele>236.39999389648</ele>
        <time>2020-05-31T07:34:38Z</time>
      </trkpt>
      <trkpt lat="44.51174" lon="4.5968">
        <ele>236.39999389648</ele>
        <time>2020-05-31T07:34:39Z</time>
      </trkpt>
      <trkpt lat="44.51173" lon="4.59683">
        <ele>237</ele>
        <time>2020-05-31T07:34:40Z</time>
      </trkpt>
      <trkpt lat="44.51172" lon="4.59686">
        <ele>237.19999694824</ele>
        <time>2020-05-31T07:34:41Z</time>
      </trkpt>
      <trkpt lat="44.51171" lon="4.59689">
        <ele>237.19999694824</ele>
        <time>2020-05-31T07:34:42Z</time>
      </trkpt>
      <trkpt lat="44.5117" lon="4.59692">
        <ele>237.60000610352</ele>
        <time>2020-05-31T07:34:43Z</time>
      </trkpt>
      <trkpt lat="44.51169" lon="4.59694">
        <ele>237.60000610352</ele>
        <time>2020-05-31T07:34:44Z</time>
      </trkpt>
      <trkpt lat="44.51168" lon="4.59697">
        <ele>237.60000610352</ele>
        <time>2020-05-31T07:34:45Z</time>
      </trkpt>
      <trkpt lat="44.51167" lon="4.59701">
        <ele>237.80000305176</ele>
        <time>2020-05-31T07:34:46Z</time>
      </trkpt>
      <trkpt lat="44.51166" lon="4.59704">
        <ele>238.19999694824</ele>
        <time>2020-05-31T07:34:47Z</time>
      </trkpt>
      <trkpt lat="44.51165" lon="4.59707">
        <ele>238.80000305176</ele>
        <time>2020-05-31T07:34:48Z</time>
      </trkpt>
      <trkpt lat="44.51163" lon="4.59709">
        <ele>239.19999694824</ele>
        <time>2020-05-31T07:34:49Z</time>
      </trkpt>
      <trkpt lat="44.51162" lon="4.59712">
        <ele>239.60000610352</ele>
        <time>2020-05-31T07:34:50Z</time>
      </trkpt>
      <trkpt lat="44.51161" lon="4.59715">
        <ele>239.80000305176</ele>
        <time>2020-05-31T07:34:51Z</time>
      </trkpt>
      <trkpt lat="44.5116" lon="4.59718">
        <ele>239.80000305176</ele>
        <time>2020-05-31T07:34:52Z</time>
      </trkpt>
      <trkpt lat="44.51158" lon="4.59721">
        <ele>240.19999694824</ele>
        <time>2020-05-31T07:34:53Z</time>
      </trkpt>
      <trkpt lat="44.51157" lon="4.59724">
        <ele>240.39999389648</ele>
        <time>2020-05-31T07:34:54Z</time>
      </trkpt>
      <trkpt lat="44.51155" lon="4.59727">
        <ele>240.60000610352</ele>
        <time>2020-05-31T07:34:55Z</time>
      </trkpt>
      <trkpt lat="44.51154" lon="4.59731">
        <ele>240.80000305176</ele>
        <time>2020-05-31T07:34:56Z</time>
      </trkpt>
      <trkpt lat="44.51152" lon="4.59733">
        <ele>241</ele>
        <time>2020-05-31T07:34:57Z</time>
      </trkpt>
      <trkpt lat="44.5115" lon="4.59736">
        <ele>241.19999694824</ele>
        <time>2020-05-31T07:34:58Z</time>
      </trkpt>
      <trkpt lat="44.51149" lon="4.59738">
        <ele>241.19999694824</ele>
        <time>2020-05-31T07:34:59Z</time>
      </trkpt>
      <trkpt lat="44.51147" lon="4.5974">
        <ele>241.19999694824</ele>
        <time>2020-05-31T07:35:00Z</time>
      </trkpt>
      <trkpt lat="44.51145" lon="4.59743">
        <ele>241.19999694824</ele>
        <time>2020-05-31T07:35:01Z</time>
      </trkpt>
      <trkpt lat="44.51143" lon="4.59745">
        <ele>241.39999389648</ele>
        <time>2020-05-31T07:35:02Z</time>
      </trkpt>
      <trkpt lat="44.51141" lon="4.59747">
        <ele>241.60000610352</ele>
        <time>2020-05-31T07:35:03Z</time>
      </trkpt>
      <trkpt lat="44.51134" lon="4.59753">
        <ele>241.80000305176</ele>
        <time>2020-05-31T07:35:06Z</time>
      </trkpt>
      <trkpt lat="44.51132" lon="4.59755">
        <ele>241.80000305176</ele>
        <time>2020-05-31T07:35:07Z</time>
      </trkpt>
      <trkpt lat="44.5113" lon="4.59757">
        <ele>241.80000305176</ele>
        <time>2020-05-31T07:35:08Z</time>
      </trkpt>
      <trkpt lat="44.5112" lon="4.59766">
        <ele>242.19999694824</ele>
        <time>2020-05-31T07:35:12Z</time>
      </trkpt>
      <trkpt lat="44.51117" lon="4.59768">
        <ele>242.19999694824</ele>
        <time>2020-05-31T07:35:13Z</time>
      </trkpt>
      <trkpt lat="44.5111" lon="4.59771">
        <ele>242.19999694824</ele>
        <time>2020-05-31T07:35:15Z</time>
      </trkpt>
      <trkpt lat="44.51099" lon="4.59774">
        <ele>242</ele>
        <time>2020-05-31T07:35:18Z</time>
      </trkpt>
      <trkpt lat="44.51095" lon="4.59774">
        <ele>242</ele>
        <time>2020-05-31T07:35:19Z</time>
      </trkpt>
      <trkpt lat="44.51081" lon="4.59773">
        <ele>241.60000610352</ele>
        <time>2020-05-31T07:35:23Z</time>
      </trkpt>
      <trkpt lat="44.51073" lon="4.59771">
        <ele>241.60000610352</ele>
        <time>2020-05-31T07:35:25Z</time>
      </trkpt>
      <trkpt lat="44.5107" lon="4.5977">
        <ele>241.60000610352</ele>
        <time>2020-05-31T07:35:26Z</time>
      </trkpt>
      <trkpt lat="44.51067" lon="4.59769">
        <ele>241.60000610352</ele>
        <time>2020-05-31T07:35:27Z</time>
      </trkpt>
      <trkpt lat="44.51063" lon="4.59768">
        <ele>241.39999389648</ele>
        <time>2020-05-31T07:35:28Z</time>
      </trkpt>
      <trkpt lat="44.5106" lon="4.59767">
        <ele>241.60000610352</ele>
        <time>2020-05-31T07:35:29Z</time>
      </trkpt>
      <trkpt lat="44.51057" lon="4.59766">
        <ele>241.60000610352</ele>
        <time>2020-05-31T07:35:30Z</time>
      </trkpt>
      <trkpt lat="44.51054" lon="4.59765">
        <ele>241.60000610352</ele>
        <time>2020-05-31T07:35:31Z</time>
      </trkpt>
      <trkpt lat="44.51051" lon="4.59764">
        <ele>241.60000610352</ele>
        <time>2020-05-31T07:35:32Z</time>
      </trkpt>
      <trkpt lat="44.51048" lon="4.59763">
        <ele>241.60000610352</ele>
        <time>2020-05-31T07:35:33Z</time>
      </trkpt>
      <trkpt lat="44.51044" lon="4.59761">
        <ele>241.60000610352</ele>
        <time>2020-05-31T07:35:34Z</time>
      </trkpt>
      <trkpt lat="44.51041" lon="4.5976">
        <ele>241.80000305176</ele>
        <time>2020-05-31T07:35:35Z</time>
      </trkpt>
      <trkpt lat="44.51037" lon="4.59758">
        <ele>241.80000305176</ele>
        <time>2020-05-31T07:35:36Z</time>
      </trkpt>
      <trkpt lat="44.51034" lon="4.59757">
        <ele>242.19999694824</ele>
        <time>2020-05-31T07:35:37Z</time>
      </trkpt>
      <trkpt lat="44.5103" lon="4.59756">
        <ele>242.19999694824</ele>
        <time>2020-05-31T07:35:38Z</time>
      </trkpt>
      <trkpt lat="44.51026" lon="4.59754">
        <ele>242.39999389648</ele>
        <time>2020-05-31T07:35:39Z</time>
      </trkpt>
      <trkpt lat="44.51023" lon="4.59753">
        <ele>242.60000610352</ele>
        <time>2020-05-31T07:35:40Z</time>
      </trkpt>
      <trkpt lat="44.51016" lon="4.59751">
        <ele>243</ele>
        <time>2020-05-31T07:35:42Z</time>
      </trkpt>
      <trkpt lat="44.51012" lon="4.59749">
        <ele>242.80000305176</ele>
        <time>2020-05-31T07:35:43Z</time>
      </trkpt>
      <trkpt lat="44.51009" lon="4.59749">
        <ele>243</ele>
        <time>2020-05-31T07:35:44Z</time>
      </trkpt>
      <trkpt lat="44.51005" lon="4.59748">
        <ele>243.19999694824</ele>
        <time>2020-05-31T07:35:45Z</time>
      </trkpt>
      <trkpt lat="44.51001" lon="4.59747">
        <ele>243.39999389648</ele>
        <time>2020-05-31T07:35:46Z</time>
      </trkpt>
      <trkpt lat="44.50998" lon="4.59746">
        <ele>243.39999389648</ele>
        <time>2020-05-31T07:35:47Z</time>
      </trkpt>
      <trkpt lat="44.50994" lon="4.59745">
        <ele>243.60000610352</ele>
        <time>2020-05-31T07:35:48Z</time>
      </trkpt>
      <trkpt lat="44.5099" lon="4.59744">
        <ele>243.60000610352</ele>
        <time>2020-05-31T07:35:49Z</time>
      </trkpt>
      <trkpt lat="44.50987" lon="4.59743">
        <ele>243.60000610352</ele>
        <time>2020-05-31T07:35:50Z</time>
      </trkpt>
      <trkpt lat="44.50983" lon="4.59742">
        <ele>243.60000610352</ele>
        <time>2020-05-31T07:35:51Z</time>
      </trkpt>
      <trkpt lat="44.50979" lon="4.59741">
        <ele>244</ele>
        <time>2020-05-31T07:35:52Z</time>
      </trkpt>
      <trkpt lat="44.50975" lon="4.5974">
        <ele>244</ele>
        <time>2020-05-31T07:35:53Z</time>
      </trkpt>
      <trkpt lat="44.50972" lon="4.59739">
        <ele>244.19999694824</ele>
        <time>2020-05-31T07:35:54Z</time>
      </trkpt>
      <trkpt lat="44.50968" lon="4.59738">
        <ele>244.19999694824</ele>
        <time>2020-05-31T07:35:55Z</time>
      </trkpt>
      <trkpt lat="44.50965" lon="4.59736">
        <ele>244.39999389648</ele>
        <time>2020-05-31T07:35:56Z</time>
      </trkpt>
      <trkpt lat="44.50961" lon="4.59735">
        <ele>244.60000610352</ele>
        <time>2020-05-31T07:35:57Z</time>
      </trkpt>
      <trkpt lat="44.50958" lon="4.59735">
        <ele>244.60000610352</ele>
        <time>2020-05-31T07:35:58Z</time>
      </trkpt>
      <trkpt lat="44.50954" lon="4.59735">
        <ele>244.80000305176</ele>
        <time>2020-05-31T07:35:59Z</time>
      </trkpt>
      <trkpt lat="44.5095" lon="4.59735">
        <ele>245</ele>
        <time>2020-05-31T07:36:00Z</time>
      </trkpt>
      <trkpt lat="44.50946" lon="4.59736">
        <ele>245</ele>
        <time>2020-05-31T07:36:01Z</time>
      </trkpt>
      <trkpt lat="44.50938" lon="4.59739">
        <ele>245.19999694824</ele>
        <time>2020-05-31T07:36:03Z</time>
      </trkpt>
      <trkpt lat="44.50935" lon="4.59742">
        <ele>245.39999389648</ele>
        <time>2020-05-31T07:36:04Z</time>
      </trkpt>
      <trkpt lat="44.50932" lon="4.59745">
        <ele>245.60000610352</ele>
        <time>2020-05-31T07:36:05Z</time>
      </trkpt>
      <trkpt lat="44.5093" lon="4.59748">
        <ele>245.60000610352</ele>
        <time>2020-05-31T07:36:06Z</time>
      </trkpt>
      <trkpt lat="44.50928" lon="4.59752">
        <ele>245.60000610352</ele>
        <time>2020-05-31T07:36:07Z</time>
      </trkpt>
      <trkpt lat="44.50927" lon="4.59756">
        <ele>245.80000305176</ele>
        <time>2020-05-31T07:36:08Z</time>
      </trkpt>
      <trkpt lat="44.50926" lon="4.5976">
        <ele>245.80000305176</ele>
        <time>2020-05-31T07:36:09Z</time>
      </trkpt>
      <trkpt lat="44.50925" lon="4.59764">
        <ele>245.80000305176</ele>
        <time>2020-05-31T07:36:10Z</time>
      </trkpt>
      <trkpt lat="44.50924" lon="4.59768">
        <ele>245.80000305176</ele>
        <time>2020-05-31T07:36:11Z</time>
      </trkpt>
      <trkpt lat="44.50924" lon="4.59773">
        <ele>246</ele>
        <time>2020-05-31T07:36:12Z</time>
      </trkpt>
      <trkpt lat="44.50922" lon="4.59777">
        <ele>246</ele>
        <time>2020-05-31T07:36:13Z</time>
      </trkpt>
      <trkpt lat="44.50921" lon="4.59782">
        <ele>246.19999694824</ele>
        <time>2020-05-31T07:36:14Z</time>
      </trkpt>
      <trkpt lat="44.5092" lon="4.59785">
        <ele>246.19999694824</ele>
        <time>2020-05-31T07:36:15Z</time>
      </trkpt>
      <trkpt lat="44.50918" lon="4.59788">
        <ele>246.19999694824</ele>
        <time>2020-05-31T07:36:16Z</time>
      </trkpt>
      <trkpt lat="44.50916" lon="4.5979">
        <ele>246.39999389648</ele>
        <time>2020-05-31T07:36:17Z</time>
      </trkpt>
      <trkpt lat="44.50914" lon="4.59792">
        <ele>246.39999389648</ele>
        <time>2020-05-31T07:36:18Z</time>
      </trkpt>
      <trkpt lat="44.50912" lon="4.59794">
        <ele>246.39999389648</ele>
        <time>2020-05-31T07:36:19Z</time>
      </trkpt>
      <trkpt lat="44.5091" lon="4.59795">
        <ele>246.39999389648</ele>
        <time>2020-05-31T07:36:20Z</time>
      </trkpt>
      <trkpt lat="44.50909" lon="4.59796">
        <ele>247</ele>
        <time>2020-05-31T07:36:24Z</time>
      </trkpt>
      <trkpt lat="44.50909" lon="4.59796">
        <ele>248.39999389648</ele>
        <time>2020-05-31T07:36:35Z</time>
      </trkpt>
      <trkpt lat="44.50909" lon="4.59795">
        <ele>248.39999389648</ele>
        <time>2020-05-31T07:36:37Z</time>
      </trkpt>
      <trkpt lat="44.50909" lon="4.59795">
        <ele>248.39999389648</ele>
        <time>2020-05-31T07:36:38Z</time>
      </trkpt>
      <trkpt lat="44.50909" lon="4.59795">
        <ele>248.39999389648</ele>
        <time>2020-05-31T07:36:39Z</time>
      </trkpt>
      <trkpt lat="44.50909" lon="4.59795">
        <ele>248.39999389648</ele>
        <time>2020-05-31T07:36:40Z</time>
      </trkpt>
      <trkpt lat="44.50909" lon="4.59795">
        <ele>248.39999389648</ele>
        <time>2020-05-31T07:36:41Z</time>
      </trkpt>
      <trkpt lat="44.50908" lon="4.59796">
        <ele>248.19999694824</ele>
        <time>2020-05-31T07:36:46Z</time>
      </trkpt>
      <trkpt lat="44.50906" lon="4.59796">
        <ele>248.39999389648</ele>
        <time>2020-05-31T07:36:47Z</time>
      </trkpt>
      <trkpt lat="44.50904" lon="4.59797">
        <ele>248.39999389648</ele>
        <time>2020-05-31T07:36:48Z</time>
      </trkpt>
      <trkpt lat="44.50902" lon="4.59797">
        <ele>248.19999694824</ele>
        <time>2020-05-31T07:36:49Z</time>
      </trkpt>
      <trkpt lat="44.50895" lon="4.59798">
        <ele>248.19999694824</ele>
        <time>2020-05-31T07:36:51Z</time>
      </trkpt>
      <trkpt lat="44.50867" lon="4.59804">
        <ele>248.19999694824</ele>
        <time>2020-05-31T07:36:58Z</time>
      </trkpt>
      <trkpt lat="44.50862" lon="4.59805">
        <ele>247.80000305176</ele>
        <time>2020-05-31T07:36:59Z</time>
      </trkpt>
      <trkpt lat="44.50858" lon="4.59805">
        <ele>247.60000610352</ele>
        <time>2020-05-31T07:37:00Z</time>
      </trkpt>
      <trkpt lat="44.50854" lon="4.59806">
        <ele>247.60000610352</ele>
        <time>2020-05-31T07:37:01Z</time>
      </trkpt>
      <trkpt lat="44.50838" lon="4.59811">
        <ele>247.19999694824</ele>
        <time>2020-05-31T07:37:05Z</time>
      </trkpt>
      <trkpt lat="44.50834" lon="4.59812">
        <ele>247</ele>
        <time>2020-05-31T07:37:06Z</time>
      </trkpt>
      <trkpt lat="44.5083" lon="4.59813">
        <ele>246.80000305176</ele>
        <time>2020-05-31T07:37:07Z</time>
      </trkpt>
      <trkpt lat="44.50826" lon="4.59815">
        <ele>246.60000610352</ele>
        <time>2020-05-31T07:37:08Z</time>
      </trkpt>
      <trkpt lat="44.50808" lon="4.59819">
        <ele>246.39999389648</ele>
        <time>2020-05-31T07:37:12Z</time>
      </trkpt>
      <trkpt lat="44.50794" lon="4.59822">
        <ele>246.39999389648</ele>
        <time>2020-05-31T07:37:15Z</time>
      </trkpt>
      <trkpt lat="44.50789" lon="4.59823">
        <ele>246.39999389648</ele>
        <time>2020-05-31T07:37:16Z</time>
      </trkpt>
      <trkpt lat="44.50784" lon="4.59825">
        <ele>246</ele>
        <time>2020-05-31T07:37:17Z</time>
      </trkpt>
      <trkpt lat="44.5078" lon="4.59826">
        <ele>246.19999694824</ele>
        <time>2020-05-31T07:37:18Z</time>
      </trkpt>
      <trkpt lat="44.50775" lon="4.59827">
        <ele>246</ele>
        <time>2020-05-31T07:37:19Z</time>
      </trkpt>
      <trkpt lat="44.50771" lon="4.59829">
        <ele>246</ele>
        <time>2020-05-31T07:37:20Z</time>
      </trkpt>
      <trkpt lat="44.50762" lon="4.59832">
        <ele>246</ele>
        <time>2020-05-31T07:37:22Z</time>
      </trkpt>
      <trkpt lat="44.50757" lon="4.59834">
        <ele>245.80000305176</ele>
        <time>2020-05-31T07:37:23Z</time>
      </trkpt>
      <trkpt lat="44.50753" lon="4.59836">
        <ele>245.80000305176</ele>
        <time>2020-05-31T07:37:24Z</time>
      </trkpt>
      <trkpt lat="44.50749" lon="4.59837">
        <ele>245.80000305176</ele>
        <time>2020-05-31T07:37:25Z</time>
      </trkpt>
      <trkpt lat="44.50745" lon="4.59839">
        <ele>245.80000305176</ele>
        <time>2020-05-31T07:37:26Z</time>
      </trkpt>
      <trkpt lat="44.50742" lon="4.59842">
        <ele>245.80000305176</ele>
        <time>2020-05-31T07:37:27Z</time>
      </trkpt>
      <trkpt lat="44.50738" lon="4.59844">
        <ele>245.60000610352</ele>
        <time>2020-05-31T07:37:28Z</time>
      </trkpt>
      <trkpt lat="44.50735" lon="4.59846">
        <ele>245.60000610352</ele>
        <time>2020-05-31T07:37:29Z</time>
      </trkpt>
      <trkpt lat="44.50731" lon="4.59848">
        <ele>245.60000610352</ele>
        <time>2020-05-31T07:37:30Z</time>
      </trkpt>
      <trkpt lat="44.50728" lon="4.5985">
        <ele>245.60000610352</ele>
        <time>2020-05-31T07:37:31Z</time>
      </trkpt>
      <trkpt lat="44.50724" lon="4.59852">
        <ele>245.39999389648</ele>
        <time>2020-05-31T07:37:32Z</time>
      </trkpt>
      <trkpt lat="44.50717" lon="4.59854">
        <ele>245.60000610352</ele>
        <time>2020-05-31T07:37:34Z</time>
      </trkpt>
      <trkpt lat="44.50714" lon="4.59856">
        <ele>245.60000610352</ele>
        <time>2020-05-31T07:37:35Z</time>
      </trkpt>
      <trkpt lat="44.50711" lon="4.59857">
        <ele>245.39999389648</ele>
        <time>2020-05-31T07:37:36Z</time>
      </trkpt>
      <trkpt lat="44.50708" lon="4.59859">
        <ele>245.39999389648</ele>
        <time>2020-05-31T07:37:37Z</time>
      </trkpt>
      <trkpt lat="44.50706" lon="4.5986">
        <ele>245.39999389648</ele>
        <time>2020-05-31T07:37:38Z</time>
      </trkpt>
      <trkpt lat="44.50703" lon="4.59862">
        <ele>245.39999389648</ele>
        <time>2020-05-31T07:37:39Z</time>
      </trkpt>
      <trkpt lat="44.50704" lon="4.59853">
        <ele>248.80000305176</ele>
        <time>2021-05-22T08:34:16Z</time>
      </trkpt>
      <trkpt lat="44.50701" lon="4.59848">
        <ele>248.60000610352</ele>
        <time>2021-05-22T08:34:18Z</time>
      </trkpt>
      <trkpt lat="44.50699" lon="4.59846">
        <ele>248.60000610352</ele>
        <time>2021-05-22T08:34:19Z</time>
      </trkpt>
      <trkpt lat="44.50697" lon="4.59843">
        <ele>248.60000610352</ele>
        <time>2021-05-22T08:34:20Z</time>
      </trkpt>
      <trkpt lat="44.50695" lon="4.59839">
        <ele>248.39999389648</ele>
        <time>2021-05-22T08:34:21Z</time>
      </trkpt>
      <trkpt lat="44.50694" lon="4.59834">
        <ele>248.60000610352</ele>
        <time>2021-05-22T08:34:22Z</time>
      </trkpt>
      <trkpt lat="44.50693" lon="4.5983">
        <ele>248.39999389648</ele>
        <time>2021-05-22T08:34:23Z</time>
      </trkpt>
      <trkpt lat="44.50693" lon="4.59825">
        <ele>248.39999389648</ele>
        <time>2021-05-22T08:34:24Z</time>
      </trkpt>
      <trkpt lat="44.50694" lon="4.5982">
        <ele>248.60000610352</ele>
        <time>2021-05-22T08:34:25Z</time>
      </trkpt>
      <trkpt lat="44.50694" lon="4.59814">
        <ele>248.19999694824</ele>
        <time>2021-05-22T08:34:26Z</time>
      </trkpt>
      <trkpt lat="44.50694" lon="4.59809">
        <ele>248.39999389648</ele>
        <time>2021-05-22T08:34:27Z</time>
      </trkpt>
      <trkpt lat="44.50694" lon="4.59804">
        <ele>247.60000610352</ele>
        <time>2021-05-22T08:34:28Z</time>
      </trkpt>
      <trkpt lat="44.50694" lon="4.598">
        <ele>247.39999389648</ele>
        <time>2021-05-22T08:34:29Z</time>
      </trkpt>
      <trkpt lat="44.50694" lon="4.59795">
        <ele>246.80000305176</ele>
        <time>2021-05-22T08:34:30Z</time>
      </trkpt>
      <trkpt lat="44.50695" lon="4.59787">
        <ele>246.19999694824</ele>
        <time>2021-05-22T08:34:31Z</time>
      </trkpt>
      <trkpt lat="44.50695" lon="4.59783">
        <ele>245.80000305176</ele>
        <time>2021-05-22T08:34:32Z</time>
      </trkpt>
      <trkpt lat="44.50695" lon="4.59779">
        <ele>245.80000305176</ele>
        <time>2021-05-22T08:34:33Z</time>
      </trkpt>
      <trkpt lat="44.50695" lon="4.59779">
        <ele>245</ele>
        <time>2021-05-22T08:34:34Z</time>
      </trkpt>
      <trkpt lat="44.50696" lon="4.59773">
        <ele>244.39999389648</ele>
        <time>2021-05-22T08:34:35Z</time>
      </trkpt>
      <trkpt lat="44.50696" lon="4.59773">
        <ele>243.60000610352</ele>
        <time>2021-05-22T08:34:36Z</time>
      </trkpt>
      <trkpt lat="44.50696" lon="4.5977">
        <ele>242.60000610352</ele>
        <time>2021-05-22T08:34:37Z</time>
      </trkpt>
      <trkpt lat="44.50696" lon="4.59769">
        <ele>241.60000610352</ele>
        <time>2021-05-22T08:34:38Z</time>
      </trkpt>
      <trkpt lat="44.50695" lon="4.59765">
        <ele>237.60000610352</ele>
        <time>2021-05-22T08:34:45Z</time>
      </trkpt>
      <trkpt lat="44.50695" lon="4.59763">
        <ele>237.19999694824</ele>
        <time>2021-05-22T08:34:46Z</time>
      </trkpt>
      <trkpt lat="44.50694" lon="4.59754">
        <ele>236.60000610352</ele>
        <time>2021-05-22T08:34:49Z</time>
      </trkpt>
      <trkpt lat="44.50693" lon="4.59748">
        <ele>236.19999694824</ele>
        <time>2021-05-22T08:34:50Z</time>
      </trkpt>
      <trkpt lat="44.50693" lon="4.59742">
        <ele>236.19999694824</ele>
        <time>2021-05-22T08:34:52Z</time>
      </trkpt>
      <trkpt lat="44.50692" lon="4.59739">
        <ele>236</ele>
        <time>2021-05-22T08:34:54Z</time>
      </trkpt>
      <trkpt lat="44.50692" lon="4.59737">
        <ele>235.60000610352</ele>
        <time>2021-05-22T08:34:55Z</time>
      </trkpt>
      <trkpt lat="44.50692" lon="4.59736">
        <ele>235</ele>
        <time>2021-05-22T08:34:58Z</time>
      </trkpt>
      <trkpt lat="44.50692" lon="4.59736">
        <ele>232.19999694824</ele>
        <time>2021-05-22T08:35:07Z</time>
      </trkpt>
      <trkpt lat="44.50689" lon="4.59731">
        <ele>232</ele>
        <time>2021-05-22T08:35:09Z</time>
      </trkpt>
      <trkpt lat="44.50687" lon="4.59728">
        <ele>231.80000305176</ele>
        <time>2021-05-22T08:35:10Z</time>
      </trkpt>
      <trkpt lat="44.50682" lon="4.59718">
        <ele>231.80000305176</ele>
        <time>2021-05-22T08:35:12Z</time>
      </trkpt>
      <trkpt lat="44.50681" lon="4.59715">
        <ele>232</ele>
        <time>2021-05-22T08:35:14Z</time>
      </trkpt>
      <trkpt lat="44.50679" lon="4.59714">
        <ele>232</ele>
        <time>2021-05-22T08:35:15Z</time>
      </trkpt>
      <trkpt lat="44.50679" lon="4.59714">
        <ele>231.60000610352</ele>
        <time>2021-05-22T08:35:16Z</time>
      </trkpt>
      <trkpt lat="44.50678" lon="4.59714">
        <ele>231.19999694824</ele>
        <time>2021-05-22T08:35:17Z</time>
      </trkpt>
      <trkpt lat="44.50676" lon="4.59713">
        <ele>231.19999694824</ele>
        <time>2021-05-22T08:35:18Z</time>
      </trkpt>
      <trkpt lat="44.50675" lon="4.59711">
        <ele>230.19999694824</ele>
        <time>2021-05-22T08:35:19Z</time>
      </trkpt>
      <trkpt lat="44.50672" lon="4.59706">
        <ele>229.80000305176</ele>
        <time>2021-05-22T08:35:20Z</time>
      </trkpt>
      <trkpt lat="44.50672" lon="4.59703">
        <ele>229.19999694824</ele>
        <time>2021-05-22T08:35:21Z</time>
      </trkpt>
      <trkpt lat="44.50671" lon="4.597">
        <ele>228.80000305176</ele>
        <time>2021-05-22T08:35:22Z</time>
      </trkpt>
      <trkpt lat="44.50671" lon="4.59698">
        <ele>228.39999389648</ele>
        <time>2021-05-22T08:35:23Z</time>
      </trkpt>
      <trkpt lat="44.5067" lon="4.59695">
        <ele>228.19999694824</ele>
        <time>2021-05-22T08:35:24Z</time>
      </trkpt>
      <trkpt lat="44.5067" lon="4.59695">
        <ele>228</ele>
        <time>2021-05-22T08:35:25Z</time>
      </trkpt>
      <trkpt lat="44.5067" lon="4.59693">
        <ele>228</ele>
        <time>2021-05-22T08:35:26Z</time>
      </trkpt>
      <trkpt lat="44.5067" lon="4.59686">
        <ele>227.60000610352</ele>
        <time>2021-05-22T08:35:28Z</time>
      </trkpt>
      <trkpt lat="44.50672" lon="4.59681">
        <ele>227.60000610352</ele>
        <time>2021-05-22T08:35:29Z</time>
      </trkpt>
      <trkpt lat="44.50672" lon="4.59681">
        <ele>227</ele>
        <time>2021-05-22T08:35:30Z</time>
      </trkpt>
      <trkpt lat="44.50672" lon="4.59681">
        <ele>225.80000305176</ele>
        <time>2021-05-22T08:35:34Z</time>
      </trkpt>
      <trkpt lat="44.50673" lon="4.59679">
        <ele>224</ele>
        <time>2021-05-22T08:35:41Z</time>
      </trkpt>
      <trkpt lat="44.50675" lon="4.59672">
        <ele>224</ele>
        <time>2021-05-22T08:35:42Z</time>
      </trkpt>
      <trkpt lat="44.50675" lon="4.59668">
        <ele>223.80000305176</ele>
        <time>2021-05-22T08:35:44Z</time>
      </trkpt>
      <trkpt lat="44.50677" lon="4.5966">
        <ele>223.80000305176</ele>
        <time>2021-05-22T08:35:45Z</time>
      </trkpt>
      <trkpt lat="44.50677" lon="4.5966">
        <ele>223.80000305176</ele>
        <time>2021-05-22T08:35:46Z</time>
      </trkpt>
      <trkpt lat="44.50678" lon="4.59656">
        <ele>223.60000610352</ele>
        <time>2021-05-22T08:35:47Z</time>
      </trkpt>
      <trkpt lat="44.5068" lon="4.59649">
        <ele>223.60000610352</ele>
        <time>2021-05-22T08:35:48Z</time>
      </trkpt>
      <trkpt lat="44.50681" lon="4.59645">
        <ele>223.60000610352</ele>
        <time>2021-05-22T08:35:49Z</time>
      </trkpt>
      <trkpt lat="44.50684" lon="4.59632">
        <ele>223</ele>
        <time>2021-05-22T08:35:52Z</time>
      </trkpt>
      <trkpt lat="44.50684" lon="4.59632">
        <ele>222.60000610352</ele>
        <time>2021-05-22T08:35:53Z</time>
      </trkpt>
      <trkpt lat="44.50685" lon="4.59625">
        <ele>222</ele>
        <time>2021-05-22T08:35:54Z</time>
      </trkpt>
      <trkpt lat="44.50685" lon="4.59625">
        <ele>221.60000610352</ele>
        <time>2021-05-22T08:35:55Z</time>
      </trkpt>
      <trkpt lat="44.50686" lon="4.59622">
        <ele>221</ele>
        <time>2021-05-22T08:35:56Z</time>
      </trkpt>
      <trkpt lat="44.50687" lon="4.5962">
        <ele>220.39999389648</ele>
        <time>2021-05-22T08:35:57Z</time>
      </trkpt>
      <trkpt lat="44.5069" lon="4.59616">
        <ele>219.80000305176</ele>
        <time>2021-05-22T08:35:58Z</time>
      </trkpt>
      <trkpt lat="44.50691" lon="4.59614">
        <ele>219.39999389648</ele>
        <time>2021-05-22T08:35:59Z</time>
      </trkpt>
      <trkpt lat="44.50691" lon="4.59612">
        <ele>219</ele>
        <time>2021-05-22T08:36:00Z</time>
      </trkpt>
      <trkpt lat="44.50691" lon="4.5961">
        <ele>218.60000610352</ele>
        <time>2021-05-22T08:36:01Z</time>
      </trkpt>
      <trkpt lat="44.50691" lon="4.59608">
        <ele>218.39999389648</ele>
        <time>2021-05-22T08:36:02Z</time>
      </trkpt>
      <trkpt lat="44.50692" lon="4.59607">
        <ele>218.39999389648</ele>
        <time>2021-05-22T08:36:03Z</time>
      </trkpt>
      <trkpt lat="44.50692" lon="4.59607">
        <ele>217.80000305176</ele>
        <time>2021-05-22T08:36:04Z</time>
      </trkpt>
      <trkpt lat="44.50693" lon="4.59606">
        <ele>217.19999694824</ele>
        <time>2021-05-22T08:36:05Z</time>
      </trkpt>
      <trkpt lat="44.50696" lon="4.59603">
        <ele>217</ele>
        <time>2021-05-22T08:36:06Z</time>
      </trkpt>
      <trkpt lat="44.50698" lon="4.596">
        <ele>216.60000610352</ele>
        <time>2021-05-22T08:36:07Z</time>
      </trkpt>
      <trkpt lat="44.50704" lon="4.59592">
        <ele>215.60000610352</ele>
        <time>2021-05-22T08:36:10Z</time>
      </trkpt>
      <trkpt lat="44.50707" lon="4.59587">
        <ele>215</ele>
        <time>2021-05-22T08:36:12Z</time>
      </trkpt>
      <trkpt lat="44.50707" lon="4.59584">
        <ele>214.80000305176</ele>
        <time>2021-05-22T08:36:13Z</time>
      </trkpt>
      <trkpt lat="44.50707" lon="4.59582">
        <ele>214.39999389648</ele>
        <time>2021-05-22T08:36:14Z</time>
      </trkpt>
      <trkpt lat="44.50707" lon="4.5958">
        <ele>214.19999694824</ele>
        <time>2021-05-22T08:36:15Z</time>
      </trkpt>
      <trkpt lat="44.50707" lon="4.59579">
        <ele>214</ele>
        <time>2021-05-22T08:36:16Z</time>
      </trkpt>
      <trkpt lat="44.50707" lon="4.59578">
        <ele>213.80000305176</ele>
        <time>2021-05-22T08:36:17Z</time>
      </trkpt>
      <trkpt lat="44.50707" lon="4.59577">
        <ele>213.80000305176</ele>
        <time>2021-05-22T08:36:18Z</time>
      </trkpt>
      <trkpt lat="44.50706" lon="4.59576">
        <ele>213</ele>
        <time>2021-05-22T08:36:19Z</time>
      </trkpt>
      <trkpt lat="44.50705" lon="4.59574">
        <ele>212.80000305176</ele>
        <time>2021-05-22T08:36:20Z</time>
      </trkpt>
      <trkpt lat="44.50705" lon="4.59572">
        <ele>212.39999389648</ele>
        <time>2021-05-22T08:36:21Z</time>
      </trkpt>
      <trkpt lat="44.50703" lon="4.59566">
        <ele>212</ele>
        <time>2021-05-22T08:36:23Z</time>
      </trkpt>
      <trkpt lat="44.50702" lon="4.59559">
        <ele>212</ele>
        <time>2021-05-22T08:36:25Z</time>
      </trkpt>
      <trkpt lat="44.50701" lon="4.59555">
        <ele>212</ele>
        <time>2021-05-22T08:36:26Z</time>
      </trkpt>
      <trkpt lat="44.50702" lon="4.59549">
        <ele>211.80000305176</ele>
        <time>2021-05-22T08:36:28Z</time>
      </trkpt>
      <trkpt lat="44.50702" lon="4.59545">
        <ele>211.80000305176</ele>
        <time>2021-05-22T08:36:29Z</time>
      </trkpt>
      <trkpt lat="44.50704" lon="4.59538">
        <ele>211.80000305176</ele>
        <time>2021-05-22T08:36:31Z</time>
      </trkpt>
      <trkpt lat="44.50705" lon="4.59536">
        <ele>211.60000610352</ele>
        <time>2021-05-22T08:36:32Z</time>
      </trkpt>
      <trkpt lat="44.50707" lon="4.59534">
        <ele>211.39999389648</ele>
        <time>2021-05-22T08:36:33Z</time>
      </trkpt>
      <trkpt lat="44.50709" lon="4.59531">
        <ele>211</ele>
        <time>2021-05-22T08:36:34Z</time>
      </trkpt>
      <trkpt lat="44.5071" lon="4.59528">
        <ele>210.39999389648</ele>
        <time>2021-05-22T08:36:35Z</time>
      </trkpt>
      <trkpt lat="44.50712" lon="4.59525">
        <ele>209.39999389648</ele>
        <time>2021-05-22T08:36:36Z</time>
      </trkpt>
      <trkpt lat="44.50713" lon="4.59522">
        <ele>208.60000610352</ele>
        <time>2021-05-22T08:36:37Z</time>
      </trkpt>
      <trkpt lat="44.50713" lon="4.59519">
        <ele>207.80000305176</ele>
        <time>2021-05-22T08:36:38Z</time>
      </trkpt>
      <trkpt lat="44.50714" lon="4.59517">
        <ele>207.39999389648</ele>
        <time>2021-05-22T08:36:39Z</time>
      </trkpt>
      <trkpt lat="44.50715" lon="4.59516">
        <ele>206.80000305176</ele>
        <time>2021-05-22T08:36:40Z</time>
      </trkpt>
      <trkpt lat="44.50714" lon="4.59514">
        <ele>206.19999694824</ele>
        <time>2021-05-22T08:36:41Z</time>
      </trkpt>
      <trkpt lat="44.50714" lon="4.59513">
        <ele>205.80000305176</ele>
        <time>2021-05-22T08:36:42Z</time>
      </trkpt>
      <trkpt lat="44.50714" lon="4.59513">
        <ele>205.19999694824</ele>
        <time>2021-05-22T08:36:43Z</time>
      </trkpt>
      <trkpt lat="44.50713" lon="4.59513">
        <ele>204.80000305176</ele>
        <time>2021-05-22T08:36:44Z</time>
      </trkpt>
      <trkpt lat="44.50713" lon="4.59512">
        <ele>204.19999694824</ele>
        <time>2021-05-22T08:36:45Z</time>
      </trkpt>
      <trkpt lat="44.50712" lon="4.59513">
        <ele>204</ele>
        <time>2021-05-22T08:36:46Z</time>
      </trkpt>
      <trkpt lat="44.50711" lon="4.59513">
        <ele>203.80000305176</ele>
        <time>2021-05-22T08:36:48Z</time>
      </trkpt>
      <trkpt lat="44.50711" lon="4.59513">
        <ele>204</ele>
        <time>2021-05-22T08:36:49Z</time>
      </trkpt>
      <trkpt lat="44.50708" lon="4.59513">
        <ele>203.80000305176</ele>
        <time>2021-05-22T08:36:53Z</time>
      </trkpt>
      <trkpt lat="44.50707" lon="4.59511">
        <ele>203.80000305176</ele>
        <time>2021-05-22T08:36:56Z</time>
      </trkpt>
      <trkpt lat="44.50707" lon="4.59512">
        <ele>203.80000305176</ele>
        <time>2021-05-22T08:36:59Z</time>
      </trkpt>
      <trkpt lat="44.50704" lon="4.5951">
        <ele>204.80000305176</ele>
        <time>2021-05-22T08:37:08Z</time>
      </trkpt>
      <trkpt lat="44.50693" lon="4.59507">
        <ele>204.80000305176</ele>
        <time>2021-05-22T08:37:13Z</time>
      </trkpt>
      <trkpt lat="44.50687" lon="4.59507">
        <ele>204.80000305176</ele>
        <time>2021-05-22T08:37:15Z</time>
      </trkpt>
      <trkpt lat="44.50685" lon="4.59505">
        <ele>204.80000305176</ele>
        <time>2021-05-22T08:37:16Z</time>
      </trkpt>
      <trkpt lat="44.50683" lon="4.59503">
        <ele>204.80000305176</ele>
        <time>2021-05-22T08:37:17Z</time>
      </trkpt>
      <trkpt lat="44.50681" lon="4.59501">
        <ele>205</ele>
        <time>2021-05-22T08:37:18Z</time>
      </trkpt>
      <trkpt lat="44.50679" lon="4.595">
        <ele>205</ele>
        <time>2021-05-22T08:37:19Z</time>
      </trkpt>
      <trkpt lat="44.50676" lon="4.59499">
        <ele>205.39999389648</ele>
        <time>2021-05-22T08:37:20Z</time>
      </trkpt>
      <trkpt lat="44.50674" lon="4.59499">
        <ele>205.39999389648</ele>
        <time>2021-05-22T08:37:21Z</time>
      </trkpt>
      <trkpt lat="44.50671" lon="4.59498">
        <ele>205.80000305176</ele>
        <time>2021-05-22T08:37:22Z</time>
      </trkpt>
      <trkpt lat="44.50668" lon="4.59497">
        <ele>206.39999389648</ele>
        <time>2021-05-22T08:37:23Z</time>
      </trkpt>
      <trkpt lat="44.50666" lon="4.59496">
        <ele>206.60000610352</ele>
        <time>2021-05-22T08:37:24Z</time>
      </trkpt>
      <trkpt lat="44.50663" lon="4.59494">
        <ele>207</ele>
        <time>2021-05-22T08:37:25Z</time>
      </trkpt>
      <trkpt lat="44.5066" lon="4.59494">
        <ele>207.39999389648</ele>
        <time>2021-05-22T08:37:26Z</time>
      </trkpt>
      <trkpt lat="44.50658" lon="4.59493">
        <ele>207.60000610352</ele>
        <time>2021-05-22T08:37:27Z</time>
      </trkpt>
      <trkpt lat="44.50657" lon="4.59493">
        <ele>207.60000610352</ele>
        <time>2021-05-22T08:37:28Z</time>
      </trkpt>
      <trkpt lat="44.50656" lon="4.59493">
        <ele>208</ele>
        <time>2021-05-22T08:37:29Z</time>
      </trkpt>
      <trkpt lat="44.50654" lon="4.59493">
        <ele>208</ele>
        <time>2021-05-22T08:37:30Z</time>
      </trkpt>
      <trkpt lat="44.50652" lon="4.59492">
        <ele>208.39999389648</ele>
        <time>2021-05-22T08:37:31Z</time>
      </trkpt>
      <trkpt lat="44.5065" lon="4.5949">
        <ele>208.80000305176</ele>
        <time>2021-05-22T08:37:32Z</time>
      </trkpt>
      <trkpt lat="44.50648" lon="4.59489">
        <ele>208.80000305176</ele>
        <time>2021-05-22T08:37:33Z</time>
      </trkpt>
      <trkpt lat="44.50646" lon="4.59487">
        <ele>208.80000305176</ele>
        <time>2021-05-22T08:37:34Z</time>
      </trkpt>
      <trkpt lat="44.50643" lon="4.59485">
        <ele>209.39999389648</ele>
        <time>2021-05-22T08:37:35Z</time>
      </trkpt>
      <trkpt lat="44.50641" lon="4.59483">
        <ele>210.19999694824</ele>
        <time>2021-05-22T08:37:36Z</time>
      </trkpt>
      <trkpt lat="44.50638" lon="4.59482">
        <ele>211</ele>
        <time>2021-05-22T08:37:37Z</time>
      </trkpt>
      <trkpt lat="44.50636" lon="4.59481">
        <ele>211.19999694824</ele>
        <time>2021-05-22T08:37:38Z</time>
      </trkpt>
      <trkpt lat="44.50633" lon="4.5948">
        <ele>211.60000610352</ele>
        <time>2021-05-22T08:37:39Z</time>
      </trkpt>
      <trkpt lat="44.50631" lon="4.59479">
        <ele>211.60000610352</ele>
        <time>2021-05-22T08:37:40Z</time>
      </trkpt>
      <trkpt lat="44.50628" lon="4.59477">
        <ele>212</ele>
        <time>2021-05-22T08:37:41Z</time>
      </trkpt>
      <trkpt lat="44.50626" lon="4.59476">
        <ele>212.19999694824</ele>
        <time>2021-05-22T08:37:42Z</time>
      </trkpt>
      <trkpt lat="44.50623" lon="4.59474">
        <ele>212.39999389648</ele>
        <time>2021-05-22T08:37:43Z</time>
      </trkpt>
      <trkpt lat="44.50621" lon="4.59472">
        <ele>212.80000305176</ele>
        <time>2021-05-22T08:37:44Z</time>
      </trkpt>
      <trkpt lat="44.50618" lon="4.59471">
        <ele>213</ele>
        <time>2021-05-22T08:37:45Z</time>
      </trkpt>
      <trkpt lat="44.50616" lon="4.59469">
        <ele>213.60000610352</ele>
        <time>2021-05-22T08:37:46Z</time>
      </trkpt>
      <trkpt lat="44.50613" lon="4.59468">
        <ele>214</ele>
        <time>2021-05-22T08:37:47Z</time>
      </trkpt>
      <trkpt lat="44.5061" lon="4.59466">
        <ele>214</ele>
        <time>2021-05-22T08:37:48Z</time>
      </trkpt>
      <trkpt lat="44.50608" lon="4.59465">
        <ele>214.19999694824</ele>
        <time>2021-05-22T08:37:49Z</time>
      </trkpt>
      <trkpt lat="44.50605" lon="4.59463">
        <ele>214.60000610352</ele>
        <time>2021-05-22T08:37:50Z</time>
      </trkpt>
      <trkpt lat="44.50602" lon="4.59462">
        <ele>214.80000305176</ele>
        <time>2021-05-22T08:37:51Z</time>
      </trkpt>
      <trkpt lat="44.50599" lon="4.59461">
        <ele>215</ele>
        <time>2021-05-22T08:37:52Z</time>
      </trkpt>
      <trkpt lat="44.50596" lon="4.59459">
        <ele>215.19999694824</ele>
        <time>2021-05-22T08:37:53Z</time>
      </trkpt>
      <trkpt lat="44.50594" lon="4.59457">
        <ele>215.39999389648</ele>
        <time>2021-05-22T08:37:54Z</time>
      </trkpt>
      <trkpt lat="44.50591" lon="4.59455">
        <ele>215.39999389648</ele>
        <time>2021-05-22T08:37:55Z</time>
      </trkpt>
      <trkpt lat="44.50589" lon="4.59453">
        <ele>215.60000610352</ele>
        <time>2021-05-22T08:37:56Z</time>
      </trkpt>
      <trkpt lat="44.50587" lon="4.59451">
        <ele>215.80000305176</ele>
        <time>2021-05-22T08:37:57Z</time>
      </trkpt>
      <trkpt lat="44.50585" lon="4.59448">
        <ele>216</ele>
        <time>2021-05-22T08:37:58Z</time>
      </trkpt>
      <trkpt lat="44.50582" lon="4.59446">
        <ele>216</ele>
        <time>2021-05-22T08:37:59Z</time>
      </trkpt>
      <trkpt lat="44.50579" lon="4.59444">
        <ele>216.19999694824</ele>
        <time>2021-05-22T08:38:00Z</time>
      </trkpt>
      <trkpt lat="44.50577" lon="4.59442">
        <ele>216.39999389648</ele>
        <time>2021-05-22T08:38:01Z</time>
      </trkpt>
      <trkpt lat="44.50574" lon="4.5944">
        <ele>216.60000610352</ele>
        <time>2021-05-22T08:38:02Z</time>
      </trkpt>
      <trkpt lat="44.50572" lon="4.59438">
        <ele>216.60000610352</ele>
        <time>2021-05-22T08:38:03Z</time>
      </trkpt>
      <trkpt lat="44.50569" lon="4.59436">
        <ele>217</ele>
        <time>2021-05-22T08:38:04Z</time>
      </trkpt>
      <trkpt lat="44.50567" lon="4.59434">
        <ele>217</ele>
        <time>2021-05-22T08:38:05Z</time>
      </trkpt>
      <trkpt lat="44.50565" lon="4.59431">
        <ele>217.19999694824</ele>
        <time>2021-05-22T08:38:06Z</time>
      </trkpt>
      <trkpt lat="44.50562" lon="4.59429">
        <ele>217.39999389648</ele>
        <time>2021-05-22T08:38:07Z</time>
      </trkpt>
      <trkpt lat="44.5056" lon="4.59426">
        <ele>217.60000610352</ele>
        <time>2021-05-22T08:38:08Z</time>
      </trkpt>
      <trkpt lat="44.50558" lon="4.59423">
        <ele>217.80000305176</ele>
        <time>2021-05-22T08:38:09Z</time>
      </trkpt>
      <trkpt lat="44.50556" lon="4.5942">
        <ele>217.80000305176</ele>
        <time>2021-05-22T08:38:10Z</time>
      </trkpt>
      <trkpt lat="44.50554" lon="4.59417">
        <ele>218</ele>
        <time>2021-05-22T08:38:11Z</time>
      </trkpt>
      <trkpt lat="44.50553" lon="4.59414">
        <ele>218.39999389648</ele>
        <time>2021-05-22T08:38:12Z</time>
      </trkpt>
      <trkpt lat="44.50551" lon="4.5941">
        <ele>218.60000610352</ele>
        <time>2021-05-22T08:38:13Z</time>
      </trkpt>
      <trkpt lat="44.50549" lon="4.59407">
        <ele>218.80000305176</ele>
        <time>2021-05-22T08:38:14Z</time>
      </trkpt>
      <trkpt lat="44.50547" lon="4.59404">
        <ele>218.60000610352</ele>
        <time>2021-05-22T08:38:15Z</time>
      </trkpt>
      <trkpt lat="44.50545" lon="4.59401">
        <ele>218.80000305176</ele>
        <time>2021-05-22T08:38:16Z</time>
      </trkpt>
      <trkpt lat="44.50543" lon="4.59398">
        <ele>218.80000305176</ele>
        <time>2021-05-22T08:38:17Z</time>
      </trkpt>
      <trkpt lat="44.50542" lon="4.59394">
        <ele>218.80000305176</ele>
        <time>2021-05-22T08:38:18Z</time>
      </trkpt>
      <trkpt lat="44.50541" lon="4.59391">
        <ele>219</ele>
        <time>2021-05-22T08:38:19Z</time>
      </trkpt>
      <trkpt lat="44.5054" lon="4.59387">
        <ele>219.19999694824</ele>
        <time>2021-05-22T08:38:20Z</time>
      </trkpt>
      <trkpt lat="44.50539" lon="4.59383">
        <ele>219.39999389648</ele>
        <time>2021-05-22T08:38:21Z</time>
      </trkpt>
      <trkpt lat="44.50538" lon="4.59378">
        <ele>219.60000610352</ele>
        <time>2021-05-22T08:38:22Z</time>
      </trkpt>
      <trkpt lat="44.50537" lon="4.59374">
        <ele>219.80000305176</ele>
        <time>2021-05-22T08:38:23Z</time>
      </trkpt>
      <trkpt lat="44.50536" lon="4.59369">
        <ele>220</ele>
        <time>2021-05-22T08:38:24Z</time>
      </trkpt>
      <trkpt lat="44.50536" lon="4.59364">
        <ele>220</ele>
        <time>2021-05-22T08:38:25Z</time>
      </trkpt>
      <trkpt lat="44.50535" lon="4.5936">
        <ele>220.19999694824</ele>
        <time>2021-05-22T08:38:26Z</time>
      </trkpt>
      <trkpt lat="44.50534" lon="4.59355">
        <ele>220.19999694824</ele>
        <time>2021-05-22T08:38:27Z</time>
      </trkpt>
      <trkpt lat="44.50534" lon="4.59351">
        <ele>220.39999389648</ele>
        <time>2021-05-22T08:38:28Z</time>
      </trkpt>
      <trkpt lat="44.50533" lon="4.59347">
        <ele>220.39999389648</ele>
        <time>2021-05-22T08:38:29Z</time>
      </trkpt>
      <trkpt lat="44.50533" lon="4.59343">
        <ele>220.39999389648</ele>
        <time>2021-05-22T08:38:30Z</time>
      </trkpt>
      <trkpt lat="44.5053" lon="4.59325">
        <ele>220.39999389648</ele>
        <time>2021-05-22T08:38:34Z</time>
      </trkpt>
      <trkpt lat="44.50529" lon="4.59321">
        <ele>220.39999389648</ele>
        <time>2021-05-22T08:38:35Z</time>
      </trkpt>
      <trkpt lat="44.50528" lon="4.59316">
        <ele>220.60000610352</ele>
        <time>2021-05-22T08:38:36Z</time>
      </trkpt>
      <trkpt lat="44.50527" lon="4.59313">
        <ele>220.39999389648</ele>
        <time>2021-05-22T08:38:37Z</time>
      </trkpt>
      <trkpt lat="44.50527" lon="4.59309">
        <ele>220.39999389648</ele>
        <time>2021-05-22T08:38:38Z</time>
      </trkpt>
      <trkpt lat="44.50527" lon="4.59305">
        <ele>220.60000610352</ele>
        <time>2021-05-22T08:38:39Z</time>
      </trkpt>
      <trkpt lat="44.50527" lon="4.59302">
        <ele>220.60000610352</ele>
        <time>2021-05-22T08:38:40Z</time>
      </trkpt>
      <trkpt lat="44.50527" lon="4.59298">
        <ele>220.60000610352</ele>
        <time>2021-05-22T08:38:41Z</time>
      </trkpt>
      <trkpt lat="44.50526" lon="4.59291">
        <ele>220.60000610352</ele>
        <time>2021-05-22T08:38:43Z</time>
      </trkpt>
      <trkpt lat="44.50526" lon="4.59288">
        <ele>220.60000610352</ele>
        <time>2021-05-22T08:38:44Z</time>
      </trkpt>
      <trkpt lat="44.50527" lon="4.59285">
        <ele>220.39999389648</ele>
        <time>2021-05-22T08:38:45Z</time>
      </trkpt>
      <trkpt lat="44.50528" lon="4.5928">
        <ele>220.60000610352</ele>
        <time>2021-05-22T08:38:46Z</time>
      </trkpt>
      <trkpt lat="44.50529" lon="4.59275">
        <ele>220.60000610352</ele>
        <time>2021-05-22T08:38:47Z</time>
      </trkpt>
      <trkpt lat="44.50531" lon="4.5927">
        <ele>220.60000610352</ele>
        <time>2021-05-22T08:38:48Z</time>
      </trkpt>
      <trkpt lat="44.50533" lon="4.59264">
        <ele>220.60000610352</ele>
        <time>2021-05-22T08:38:49Z</time>
      </trkpt>
      <trkpt lat="44.50533" lon="4.59258">
        <ele>220.60000610352</ele>
        <time>2021-05-22T08:38:50Z</time>
      </trkpt>
      <trkpt lat="44.50533" lon="4.59251">
        <ele>220.39999389648</ele>
        <time>2021-05-22T08:38:51Z</time>
      </trkpt>
      <trkpt lat="44.50533" lon="4.59245">
        <ele>220.19999694824</ele>
        <time>2021-05-22T08:38:52Z</time>
      </trkpt>
      <trkpt lat="44.50533" lon="4.59239">
        <ele>219.80000305176</ele>
        <time>2021-05-22T08:38:53Z</time>
      </trkpt>
      <trkpt lat="44.50534" lon="4.59234">
        <ele>219.39999389648</ele>
        <time>2021-05-22T08:38:54Z</time>
      </trkpt>
      <trkpt lat="44.50535" lon="4.59228">
        <ele>218.80000305176</ele>
        <time>2021-05-22T08:38:55Z</time>
      </trkpt>
      <trkpt lat="44.50536" lon="4.59223">
        <ele>218.19999694824</ele>
        <time>2021-05-22T08:38:56Z</time>
      </trkpt>
      <trkpt lat="44.50537" lon="4.59217">
        <ele>217.60000610352</ele>
        <time>2021-05-22T08:38:57Z</time>
      </trkpt>
      <trkpt lat="44.50538" lon="4.59213">
        <ele>217.19999694824</ele>
        <time>2021-05-22T08:38:58Z</time>
      </trkpt>
      <trkpt lat="44.50539" lon="4.59208">
        <ele>216.60000610352</ele>
        <time>2021-05-22T08:38:59Z</time>
      </trkpt>
      <trkpt lat="44.5054" lon="4.59203">
        <ele>216.19999694824</ele>
        <time>2021-05-22T08:39:00Z</time>
      </trkpt>
      <trkpt lat="44.50542" lon="4.59199">
        <ele>215.80000305176</ele>
        <time>2021-05-22T08:39:01Z</time>
      </trkpt>
      <trkpt lat="44.50543" lon="4.59189">
        <ele>215.80000305176</ele>
        <time>2021-05-22T08:39:03Z</time>
      </trkpt>
      <trkpt lat="44.50547" lon="4.59164">
        <ele>215.60000610352</ele>
        <time>2021-05-22T08:39:08Z</time>
      </trkpt>
      <trkpt lat="44.50548" lon="4.5916">
        <ele>215.60000610352</ele>
        <time>2021-05-22T08:39:09Z</time>
      </trkpt>
      <trkpt lat="44.50549" lon="4.59155">
        <ele>215.60000610352</ele>
        <time>2021-05-22T08:39:10Z</time>
      </trkpt>
      <trkpt lat="44.5055" lon="4.59151">
        <ele>215.80000305176</ele>
        <time>2021-05-22T08:39:11Z</time>
      </trkpt>
      <trkpt lat="44.5055" lon="4.59146">
        <ele>215.80000305176</ele>
        <time>2021-05-22T08:39:12Z</time>
      </trkpt>
      <trkpt lat="44.50554" lon="4.59122">
        <ele>216.60000610352</ele>
        <time>2021-05-22T08:39:17Z</time>
      </trkpt>
      <trkpt lat="44.50555" lon="4.59117">
        <ele>216.80000305176</ele>
        <time>2021-05-22T08:39:18Z</time>
      </trkpt>
      <trkpt lat="44.50555" lon="4.59112">
        <ele>217</ele>
        <time>2021-05-22T08:39:19Z</time>
      </trkpt>
      <trkpt lat="44.50558" lon="4.59096">
        <ele>217.19999694824</ele>
        <time>2021-05-22T08:39:22Z</time>
      </trkpt>
      <trkpt lat="44.50559" lon="4.59091">
        <ele>217</ele>
        <time>2021-05-22T08:39:23Z</time>
      </trkpt>
      <trkpt lat="44.50561" lon="4.59081">
        <ele>217.19999694824</ele>
        <time>2021-05-22T08:39:25Z</time>
      </trkpt>
      <trkpt lat="44.50561" lon="4.59078">
        <ele>217.19999694824</ele>
        <time>2021-05-22T08:39:26Z</time>
      </trkpt>
      <trkpt lat="44.50559" lon="4.59076">
        <ele>217.19999694824</ele>
        <time>2021-05-22T08:39:27Z</time>
      </trkpt>
      <trkpt lat="44.50557" lon="4.59075">
        <ele>217</ele>
        <time>2021-05-22T08:39:28Z</time>
      </trkpt>
      <trkpt lat="44.50555" lon="4.59075">
        <ele>217</ele>
        <time>2021-05-22T08:39:29Z</time>
      </trkpt>
      <trkpt lat="44.5055" lon="4.59079">
        <ele>216.80000305176</ele>
        <time>2021-05-22T08:39:31Z</time>
      </trkpt>
      <trkpt lat="44.50546" lon="4.59081">
        <ele>215.80000305176</ele>
        <time>2021-05-22T08:39:33Z</time>
      </trkpt>
      <trkpt lat="44.50544" lon="4.59082">
        <ele>215.60000610352</ele>
        <time>2021-05-22T08:39:34Z</time>
      </trkpt>
      <trkpt lat="44.50541" lon="4.59083">
        <ele>215.60000610352</ele>
        <time>2021-05-22T08:39:35Z</time>
      </trkpt>
      <trkpt lat="44.50535" lon="4.59086">
        <ele>215.60000610352</ele>
        <time>2021-05-22T08:39:37Z</time>
      </trkpt>
      <trkpt lat="44.5053" lon="4.59086">
        <ele>215.60000610352</ele>
        <time>2021-05-22T08:39:39Z</time>
      </trkpt>
      <trkpt lat="44.50528" lon="4.59084">
        <ele>215.39999389648</ele>
        <time>2021-05-22T08:39:40Z</time>
      </trkpt>
      <trkpt lat="44.50527" lon="4.59083">
        <ele>215.60000610352</ele>
        <time>2021-05-22T08:39:41Z</time>
      </trkpt>
      <trkpt lat="44.50525" lon="4.59081">
        <ele>216</ele>
        <time>2021-05-22T08:39:42Z</time>
      </trkpt>
      <trkpt lat="44.50524" lon="4.59078">
        <ele>216.39999389648</ele>
        <time>2021-05-22T08:39:43Z</time>
      </trkpt>
      <trkpt lat="44.50523" lon="4.59071">
        <ele>217.19999694824</ele>
        <time>2021-05-22T08:39:45Z</time>
      </trkpt>
      <trkpt lat="44.50522" lon="4.59067">
        <ele>217.80000305176</ele>
        <time>2021-05-22T08:39:46Z</time>
      </trkpt>
      <trkpt lat="44.50522" lon="4.59062">
        <ele>217.80000305176</ele>
        <time>2021-05-22T08:39:47Z</time>
      </trkpt>
      <trkpt lat="44.50522" lon="4.59058">
        <ele>218</ele>
        <time>2021-05-22T08:39:48Z</time>
      </trkpt>
      <trkpt lat="44.50522" lon="4.59053">
        <ele>218.39999389648</ele>
        <time>2021-05-22T08:39:49Z</time>
      </trkpt>
      <trkpt lat="44.50522" lon="4.59048">
        <ele>218.60000610352</ele>
        <time>2021-05-22T08:39:50Z</time>
      </trkpt>
      <trkpt lat="44.50522" lon="4.59043">
        <ele>218.60000610352</ele>
        <time>2021-05-22T08:39:51Z</time>
      </trkpt>
      <trkpt lat="44.50522" lon="4.59037">
        <ele>218.80000305176</ele>
        <time>2021-05-22T08:39:52Z</time>
      </trkpt>
      <trkpt lat="44.50521" lon="4.59032">
        <ele>218.80000305176</ele>
        <time>2021-05-22T08:39:53Z</time>
      </trkpt>
      <trkpt lat="44.50521" lon="4.59026">
        <ele>218.80000305176</ele>
        <time>2021-05-22T08:39:54Z</time>
      </trkpt>
      <trkpt lat="44.50521" lon="4.59021">
        <ele>218.80000305176</ele>
        <time>2021-05-22T08:39:55Z</time>
      </trkpt>
      <trkpt lat="44.50521" lon="4.59016">
        <ele>218.80000305176</ele>
        <time>2021-05-22T08:39:56Z</time>
      </trkpt>
      <trkpt lat="44.50521" lon="4.59011">
        <ele>218.80000305176</ele>
        <time>2021-05-22T08:39:57Z</time>
      </trkpt>
      <trkpt lat="44.50521" lon="4.59007">
        <ele>218.80000305176</ele>
        <time>2021-05-22T08:39:58Z</time>
      </trkpt>
      <trkpt lat="44.50522" lon="4.59002">
        <ele>218.80000305176</ele>
        <time>2021-05-22T08:39:59Z</time>
      </trkpt>
      <trkpt lat="44.50521" lon="4.58988">
        <ele>218.60000610352</ele>
        <time>2021-05-22T08:40:02Z</time>
      </trkpt>
      <trkpt lat="44.50521" lon="4.58985">
        <ele>218.60000610352</ele>
        <time>2021-05-22T08:40:03Z</time>
      </trkpt>
      <trkpt lat="44.5052" lon="4.58981">
        <ele>218.39999389648</ele>
        <time>2021-05-22T08:40:04Z</time>
      </trkpt>
      <trkpt lat="44.50519" lon="4.58978">
        <ele>218.39999389648</ele>
        <time>2021-05-22T08:40:05Z</time>
      </trkpt>
      <trkpt lat="44.50519" lon="4.58974">
        <ele>218.39999389648</ele>
        <time>2021-05-22T08:40:06Z</time>
      </trkpt>
      <trkpt lat="44.50515" lon="4.5896">
        <ele>218.19999694824</ele>
        <time>2021-05-22T08:40:09Z</time>
      </trkpt>
      <trkpt lat="44.50514" lon="4.58955">
        <ele>218</ele>
        <time>2021-05-22T08:40:10Z</time>
      </trkpt>
      <trkpt lat="44.5051" lon="4.58938">
        <ele>217.80000305176</ele>
        <time>2021-05-22T08:40:13Z</time>
      </trkpt>
      <trkpt lat="44.50507" lon="4.58927">
        <ele>217.60000610352</ele>
        <time>2021-05-22T08:40:15Z</time>
      </trkpt>
      <trkpt lat="44.50506" lon="4.58922">
        <ele>217.19999694824</ele>
        <time>2021-05-22T08:40:16Z</time>
      </trkpt>
      <trkpt lat="44.50504" lon="4.58917">
        <ele>217</ele>
        <time>2021-05-22T08:40:17Z</time>
      </trkpt>
      <trkpt lat="44.50504" lon="4.58912">
        <ele>216.80000305176</ele>
        <time>2021-05-22T08:40:18Z</time>
      </trkpt>
      <trkpt lat="44.50504" lon="4.58908">
        <ele>216.39999389648</ele>
        <time>2021-05-22T08:40:19Z</time>
      </trkpt>
      <trkpt lat="44.50504" lon="4.58904">
        <ele>216</ele>
        <time>2021-05-22T08:40:20Z</time>
      </trkpt>
      <trkpt lat="44.50505" lon="4.589">
        <ele>215.80000305176</ele>
        <time>2021-05-22T08:40:21Z</time>
      </trkpt>
      <trkpt lat="44.50505" lon="4.58896">
        <ele>215.19999694824</ele>
        <time>2021-05-22T08:40:22Z</time>
      </trkpt>
      <trkpt lat="44.50507" lon="4.58887">
        <ele>214.60000610352</ele>
        <time>2021-05-22T08:40:24Z</time>
      </trkpt>
      <trkpt lat="44.50508" lon="4.58879">
        <ele>214.60000610352</ele>
        <time>2021-05-22T08:40:26Z</time>
      </trkpt>
      <trkpt lat="44.50509" lon="4.58875">
        <ele>214.60000610352</ele>
        <time>2021-05-22T08:40:27Z</time>
      </trkpt>
      <trkpt lat="44.50511" lon="4.58871">
        <ele>214.39999389648</ele>
        <time>2021-05-22T08:40:28Z</time>
      </trkpt>
      <trkpt lat="44.50512" lon="4.58868">
        <ele>214.39999389648</ele>
        <time>2021-05-22T08:40:29Z</time>
      </trkpt>
      <trkpt lat="44.50514" lon="4.58864">
        <ele>214.39999389648</ele>
        <time>2021-05-22T08:40:30Z</time>
      </trkpt>
      <trkpt lat="44.50515" lon="4.58861">
        <ele>214.39999389648</ele>
        <time>2021-05-22T08:40:31Z</time>
      </trkpt>
      <trkpt lat="44.50516" lon="4.58858">
        <ele>214.39999389648</ele>
        <time>2021-05-22T08:40:32Z</time>
      </trkpt>
      <trkpt lat="44.5052" lon="4.58852">
        <ele>214.60000610352</ele>
        <time>2021-05-22T08:40:34Z</time>
      </trkpt>
      <trkpt lat="44.50522" lon="4.58849">
        <ele>214.80000305176</ele>
        <time>2021-05-22T08:40:35Z</time>
      </trkpt>
      <trkpt lat="44.50524" lon="4.58846">
        <ele>215.39999389648</ele>
        <time>2021-05-22T08:40:36Z</time>
      </trkpt>
      <trkpt lat="44.50526" lon="4.58844">
        <ele>216</ele>
        <time>2021-05-22T08:40:37Z</time>
      </trkpt>
      <trkpt lat="44.50527" lon="4.58842">
        <ele>216.39999389648</ele>
        <time>2021-05-22T08:40:38Z</time>
      </trkpt>
      <trkpt lat="44.50529" lon="4.5884">
        <ele>217</ele>
        <time>2021-05-22T08:40:39Z</time>
      </trkpt>
      <trkpt lat="44.50531" lon="4.58838">
        <ele>217.80000305176</ele>
        <time>2021-05-22T08:40:40Z</time>
      </trkpt>
      <trkpt lat="44.50533" lon="4.58835">
        <ele>218.80000305176</ele>
        <time>2021-05-22T08:40:41Z</time>
      </trkpt>
      <trkpt lat="44.50536" lon="4.58833">
        <ele>219.39999389648</ele>
        <time>2021-05-22T08:40:42Z</time>
      </trkpt>
      <trkpt lat="44.50538" lon="4.58831">
        <ele>220</ele>
        <time>2021-05-22T08:40:43Z</time>
      </trkpt>
      <trkpt lat="44.5054" lon="4.58829">
        <ele>220.39999389648</ele>
        <time>2021-05-22T08:40:44Z</time>
      </trkpt>
      <trkpt lat="44.50542" lon="4.58827">
        <ele>221</ele>
        <time>2021-05-22T08:40:45Z</time>
      </trkpt>
      <trkpt lat="44.50544" lon="4.58825">
        <ele>221.80000305176</ele>
        <time>2021-05-22T08:40:46Z</time>
      </trkpt>
      <trkpt lat="44.50547" lon="4.58823">
        <ele>222</ele>
        <time>2021-05-22T08:40:47Z</time>
      </trkpt>
      <trkpt lat="44.50549" lon="4.58822">
        <ele>222.80000305176</ele>
        <time>2021-05-22T08:40:48Z</time>
      </trkpt>
      <trkpt lat="44.50551" lon="4.5882">
        <ele>223.19999694824</ele>
        <time>2021-05-22T08:40:49Z</time>
      </trkpt>
      <trkpt lat="44.50553" lon="4.58819">
        <ele>224</ele>
        <time>2021-05-22T08:40:50Z</time>
      </trkpt>
      <trkpt lat="44.50555" lon="4.58817">
        <ele>224.39999389648</ele>
        <time>2021-05-22T08:40:51Z</time>
      </trkpt>
      <trkpt lat="44.50558" lon="4.58816">
        <ele>225</ele>
        <time>2021-05-22T08:40:52Z</time>
      </trkpt>
      <trkpt lat="44.5056" lon="4.58815">
        <ele>225.39999389648</ele>
        <time>2021-05-22T08:40:53Z</time>
      </trkpt>
      <trkpt lat="44.50562" lon="4.58814">
        <ele>225.39999389648</ele>
        <time>2021-05-22T08:40:54Z</time>
      </trkpt>
      <trkpt lat="44.50564" lon="4.58812">
        <ele>226</ele>
        <time>2021-05-22T08:40:55Z</time>
      </trkpt>
      <trkpt lat="44.50566" lon="4.58811">
        <ele>226.60000610352</ele>
        <time>2021-05-22T08:40:56Z</time>
      </trkpt>
      <trkpt lat="44.50568" lon="4.5881">
        <ele>227</ele>
        <time>2021-05-22T08:40:57Z</time>
      </trkpt>
      <trkpt lat="44.5057" lon="4.58809">
        <ele>227.39999389648</ele>
        <time>2021-05-22T08:40:58Z</time>
      </trkpt>
      <trkpt lat="44.50572" lon="4.58808">
        <ele>228</ele>
        <time>2021-05-22T08:40:59Z</time>
      </trkpt>
      <trkpt lat="44.50575" lon="4.58807">
        <ele>228.39999389648</ele>
        <time>2021-05-22T08:41:00Z</time>
      </trkpt>
      <trkpt lat="44.50577" lon="4.58806">
        <ele>228.80000305176</ele>
        <time>2021-05-22T08:41:01Z</time>
      </trkpt>
      <trkpt lat="44.50579" lon="4.58806">
        <ele>229.39999389648</ele>
        <time>2021-05-22T08:41:02Z</time>
      </trkpt>
      <trkpt lat="44.50581" lon="4.58804">
        <ele>229.80000305176</ele>
        <time>2021-05-22T08:41:03Z</time>
      </trkpt>
      <trkpt lat="44.50583" lon="4.58803">
        <ele>230.60000610352</ele>
        <time>2021-05-22T08:41:04Z</time>
      </trkpt>
      <trkpt lat="44.50585" lon="4.58802">
        <ele>231</ele>
        <time>2021-05-22T08:41:05Z</time>
      </trkpt>
      <trkpt lat="44.50587" lon="4.58801">
        <ele>231.60000610352</ele>
        <time>2021-05-22T08:41:06Z</time>
      </trkpt>
      <trkpt lat="44.50589" lon="4.588">
        <ele>232</ele>
        <time>2021-05-22T08:41:07Z</time>
      </trkpt>
      <trkpt lat="44.50591" lon="4.58799">
        <ele>232.39999389648</ele>
        <time>2021-05-22T08:41:08Z</time>
      </trkpt>
      <trkpt lat="44.50594" lon="4.58798">
        <ele>232.80000305176</ele>
        <time>2021-05-22T08:41:09Z</time>
      </trkpt>
      <trkpt lat="44.50596" lon="4.58797">
        <ele>233</ele>
        <time>2021-05-22T08:41:10Z</time>
      </trkpt>
      <trkpt lat="44.50598" lon="4.58796">
        <ele>233.19999694824</ele>
        <time>2021-05-22T08:41:11Z</time>
      </trkpt>
      <trkpt lat="44.506" lon="4.58795">
        <ele>233.60000610352</ele>
        <time>2021-05-22T08:41:12Z</time>
      </trkpt>
      <trkpt lat="44.50602" lon="4.58794">
        <ele>234.19999694824</ele>
        <time>2021-05-22T08:41:13Z</time>
      </trkpt>
      <trkpt lat="44.50604" lon="4.58793">
        <ele>234.19999694824</ele>
        <time>2021-05-22T08:41:14Z</time>
      </trkpt>
      <trkpt lat="44.50606" lon="4.58792">
        <ele>234.19999694824</ele>
        <time>2021-05-22T08:41:15Z</time>
      </trkpt>
      <trkpt lat="44.50608" lon="4.5879">
        <ele>234.60000610352</ele>
        <time>2021-05-22T08:41:16Z</time>
      </trkpt>
      <trkpt lat="44.50609" lon="4.58789">
        <ele>235</ele>
        <time>2021-05-22T08:41:17Z</time>
      </trkpt>
      <trkpt lat="44.50611" lon="4.58788">
        <ele>235.39999389648</ele>
        <time>2021-05-22T08:41:18Z</time>
      </trkpt>
      <trkpt lat="44.50614" lon="4.58787">
        <ele>235.80000305176</ele>
        <time>2021-05-22T08:41:19Z</time>
      </trkpt>
      <trkpt lat="44.50616" lon="4.58786">
        <ele>236</ele>
        <time>2021-05-22T08:41:20Z</time>
      </trkpt>
      <trkpt lat="44.50618" lon="4.58785">
        <ele>236.19999694824</ele>
        <time>2021-05-22T08:41:21Z</time>
      </trkpt>
      <trkpt lat="44.5062" lon="4.58784">
        <ele>236.39999389648</ele>
        <time>2021-05-22T08:41:22Z</time>
      </trkpt>
      <trkpt lat="44.50622" lon="4.58783">
        <ele>237</ele>
        <time>2021-05-22T08:41:23Z</time>
      </trkpt>
      <trkpt lat="44.50624" lon="4.58782">
        <ele>237.39999389648</ele>
        <time>2021-05-22T08:41:24Z</time>
      </trkpt>
      <trkpt lat="44.50626" lon="4.58781">
        <ele>237.60000610352</ele>
        <time>2021-05-22T08:41:25Z</time>
      </trkpt>
      <trkpt lat="44.50628" lon="4.5878">
        <ele>237.80000305176</ele>
        <time>2021-05-22T08:41:26Z</time>
      </trkpt>
      <trkpt lat="44.50631" lon="4.58778">
        <ele>238</ele>
        <time>2021-05-22T08:41:27Z</time>
      </trkpt>
      <trkpt lat="44.50633" lon="4.58777">
        <ele>238.39999389648</ele>
        <time>2021-05-22T08:41:28Z</time>
      </trkpt>
      <trkpt lat="44.50636" lon="4.58776">
        <ele>238.80000305176</ele>
        <time>2021-05-22T08:41:29Z</time>
      </trkpt>
      <trkpt lat="44.50639" lon="4.58775">
        <ele>238.80000305176</ele>
        <time>2021-05-22T08:41:30Z</time>
      </trkpt>
      <trkpt lat="44.50641" lon="4.58774">
        <ele>239.19999694824</ele>
        <time>2021-05-22T08:41:31Z</time>
      </trkpt>
      <trkpt lat="44.50644" lon="4.58774">
        <ele>239.39999389648</ele>
        <time>2021-05-22T08:41:32Z</time>
      </trkpt>
      <trkpt lat="44.50646" lon="4.58773">
        <ele>239.39999389648</ele>
        <time>2021-05-22T08:41:33Z</time>
      </trkpt>
      <trkpt lat="44.50648" lon="4.58773">
        <ele>239.80000305176</ele>
        <time>2021-05-22T08:41:34Z</time>
      </trkpt>
      <trkpt lat="44.50651" lon="4.58773">
        <ele>239.80000305176</ele>
        <time>2021-05-22T08:41:35Z</time>
      </trkpt>
      <trkpt lat="44.50653" lon="4.58772">
        <ele>240</ele>
        <time>2021-05-22T08:41:36Z</time>
      </trkpt>
      <trkpt lat="44.50656" lon="4.58772">
        <ele>240</ele>
        <time>2021-05-22T08:41:37Z</time>
      </trkpt>
      <trkpt lat="44.50659" lon="4.58771">
        <ele>240</ele>
        <time>2021-05-22T08:41:38Z</time>
      </trkpt>
      <trkpt lat="44.50662" lon="4.58771">
        <ele>240.39999389648</ele>
        <time>2021-05-22T08:41:39Z</time>
      </trkpt>
      <trkpt lat="44.50664" lon="4.58771">
        <ele>240.39999389648</ele>
        <time>2021-05-22T08:41:40Z</time>
      </trkpt>
      <trkpt lat="44.50667" lon="4.58771">
        <ele>240.60000610352</ele>
        <time>2021-05-22T08:41:41Z</time>
      </trkpt>
      <trkpt lat="44.5067" lon="4.5877">
        <ele>240.80000305176</ele>
        <time>2021-05-22T08:41:42Z</time>
      </trkpt>
      <trkpt lat="44.50673" lon="4.5877">
        <ele>240.80000305176</ele>
        <time>2021-05-22T08:41:43Z</time>
      </trkpt>
      <trkpt lat="44.50676" lon="4.58771">
        <ele>241</ele>
        <time>2021-05-22T08:41:44Z</time>
      </trkpt>
      <trkpt lat="44.50679" lon="4.58771">
        <ele>241.19999694824</ele>
        <time>2021-05-22T08:41:45Z</time>
      </trkpt>
      <trkpt lat="44.50682" lon="4.58772">
        <ele>241.19999694824</ele>
        <time>2021-05-22T08:41:46Z</time>
      </trkpt>
      <trkpt lat="44.50685" lon="4.58773">
        <ele>241.39999389648</ele>
        <time>2021-05-22T08:41:47Z</time>
      </trkpt>
      <trkpt lat="44.50688" lon="4.58773">
        <ele>241.39999389648</ele>
        <time>2021-05-22T08:41:48Z</time>
      </trkpt>
      <trkpt lat="44.50691" lon="4.58774">
        <ele>241.39999389648</ele>
        <time>2021-05-22T08:41:49Z</time>
      </trkpt>
      <trkpt lat="44.50693" lon="4.58775">
        <ele>241.39999389648</ele>
        <time>2021-05-22T08:41:50Z</time>
      </trkpt>
      <trkpt lat="44.50695" lon="4.58776">
        <ele>241.60000610352</ele>
        <time>2021-05-22T08:41:51Z</time>
      </trkpt>
      <trkpt lat="44.50697" lon="4.58777">
        <ele>241.60000610352</ele>
        <time>2021-05-22T08:41:52Z</time>
      </trkpt>
      <trkpt lat="44.50698" lon="4.58777">
        <ele>241.60000610352</ele>
        <time>2021-05-22T08:41:53Z</time>
      </trkpt>
      <trkpt lat="44.507" lon="4.58778">
        <ele>241.60000610352</ele>
        <time>2021-05-22T08:41:54Z</time>
      </trkpt>
      <trkpt lat="44.50702" lon="4.58779">
        <ele>241.60000610352</ele>
        <time>2021-05-22T08:41:55Z</time>
      </trkpt>
      <trkpt lat="44.50704" lon="4.5878">
        <ele>241.80000305176</ele>
        <time>2021-05-22T08:41:56Z</time>
      </trkpt>
      <trkpt lat="44.50706" lon="4.5878">
        <ele>241.80000305176</ele>
        <time>2021-05-22T08:41:57Z</time>
      </trkpt>
      <trkpt lat="44.50707" lon="4.58779">
        <ele>242.39999389648</ele>
        <time>2021-05-22T08:41:58Z</time>
      </trkpt>
      <trkpt lat="44.50709" lon="4.58779">
        <ele>242.60000610352</ele>
        <time>2021-05-22T08:41:59Z</time>
      </trkpt>
      <trkpt lat="44.50711" lon="4.5878">
        <ele>242.60000610352</ele>
        <time>2021-05-22T08:42:00Z</time>
      </trkpt>
      <trkpt lat="44.50713" lon="4.5878">
        <ele>243.19999694824</ele>
        <time>2021-05-22T08:42:01Z</time>
      </trkpt>
      <trkpt lat="44.50715" lon="4.58781">
        <ele>243.39999389648</ele>
        <time>2021-05-22T08:42:02Z</time>
      </trkpt>
      <trkpt lat="44.50717" lon="4.58782">
        <ele>243.39999389648</ele>
        <time>2021-05-22T08:42:03Z</time>
      </trkpt>
      <trkpt lat="44.50719" lon="4.58783">
        <ele>243.60000610352</ele>
        <time>2021-05-22T08:42:04Z</time>
      </trkpt>
      <trkpt lat="44.50722" lon="4.58783">
        <ele>243.80000305176</ele>
        <time>2021-05-22T08:42:05Z</time>
      </trkpt>
      <trkpt lat="44.50724" lon="4.58784">
        <ele>244.19999694824</ele>
        <time>2021-05-22T08:42:06Z</time>
      </trkpt>
      <trkpt lat="44.50727" lon="4.58785">
        <ele>244</ele>
        <time>2021-05-22T08:42:07Z</time>
      </trkpt>
      <trkpt lat="44.50729" lon="4.58787">
        <ele>244.19999694824</ele>
        <time>2021-05-22T08:42:08Z</time>
      </trkpt>
      <trkpt lat="44.50732" lon="4.58787">
        <ele>244.39999389648</ele>
        <time>2021-05-22T08:42:09Z</time>
      </trkpt>
      <trkpt lat="44.50734" lon="4.58788">
        <ele>244.60000610352</ele>
        <time>2021-05-22T08:42:10Z</time>
      </trkpt>
      <trkpt lat="44.50737" lon="4.58789">
        <ele>244.80000305176</ele>
        <time>2021-05-22T08:42:11Z</time>
      </trkpt>
      <trkpt lat="44.50739" lon="4.5879">
        <ele>245.19999694824</ele>
        <time>2021-05-22T08:42:12Z</time>
      </trkpt>
      <trkpt lat="44.50742" lon="4.58791">
        <ele>245.80000305176</ele>
        <time>2021-05-22T08:42:13Z</time>
      </trkpt>
      <trkpt lat="44.50744" lon="4.58792">
        <ele>246</ele>
        <time>2021-05-22T08:42:14Z</time>
      </trkpt>
      <trkpt lat="44.50747" lon="4.58793">
        <ele>246.19999694824</ele>
        <time>2021-05-22T08:42:15Z</time>
      </trkpt>
      <trkpt lat="44.5075" lon="4.58795">
        <ele>246.60000610352</ele>
        <time>2021-05-22T08:42:16Z</time>
      </trkpt>
      <trkpt lat="44.50753" lon="4.58796">
        <ele>246.80000305176</ele>
        <time>2021-05-22T08:42:17Z</time>
      </trkpt>
      <trkpt lat="44.50755" lon="4.58797">
        <ele>247.39999389648</ele>
        <time>2021-05-22T08:42:18Z</time>
      </trkpt>
      <trkpt lat="44.50758" lon="4.58797">
        <ele>247.60000610352</ele>
        <time>2021-05-22T08:42:19Z</time>
      </trkpt>
      <trkpt lat="44.50761" lon="4.58798">
        <ele>247.60000610352</ele>
        <time>2021-05-22T08:42:20Z</time>
      </trkpt>
      <trkpt lat="44.50764" lon="4.58798">
        <ele>248</ele>
        <time>2021-05-22T08:42:21Z</time>
      </trkpt>
      <trkpt lat="44.50766" lon="4.58798">
        <ele>248.19999694824</ele>
        <time>2021-05-22T08:42:22Z</time>
      </trkpt>
      <trkpt lat="44.50769" lon="4.58798">
        <ele>248.19999694824</ele>
        <time>2021-05-22T08:42:23Z</time>
      </trkpt>
      <trkpt lat="44.50772" lon="4.58799">
        <ele>248.60000610352</ele>
        <time>2021-05-22T08:42:24Z</time>
      </trkpt>
      <trkpt lat="44.50775" lon="4.588">
        <ele>249</ele>
        <time>2021-05-22T08:42:25Z</time>
      </trkpt>
      <trkpt lat="44.50777" lon="4.588">
        <ele>249.60000610352</ele>
        <time>2021-05-22T08:42:26Z</time>
      </trkpt>
      <trkpt lat="44.5078" lon="4.58801">
        <ele>249.60000610352</ele>
        <time>2021-05-22T08:42:27Z</time>
      </trkpt>
      <trkpt lat="44.50783" lon="4.58801">
        <ele>250.19999694824</ele>
        <time>2021-05-22T08:42:28Z</time>
      </trkpt>
      <trkpt lat="44.50785" lon="4.58801">
        <ele>250.39999389648</ele>
        <time>2021-05-22T08:42:29Z</time>
      </trkpt>
      <trkpt lat="44.50788" lon="4.58801">
        <ele>250.80000305176</ele>
        <time>2021-05-22T08:42:30Z</time>
      </trkpt>
      <trkpt lat="44.5079" lon="4.58801">
        <ele>251</ele>
        <time>2021-05-22T08:42:31Z</time>
      </trkpt>
      <trkpt lat="44.50793" lon="4.58801">
        <ele>251</ele>
        <time>2021-05-22T08:42:32Z</time>
      </trkpt>
      <trkpt lat="44.50796" lon="4.58801">
        <ele>251.19999694824</ele>
        <time>2021-05-22T08:42:33Z</time>
      </trkpt>
      <trkpt lat="44.50798" lon="4.58801">
        <ele>251.60000610352</ele>
        <time>2021-05-22T08:42:34Z</time>
      </trkpt>
      <trkpt lat="44.50801" lon="4.58802">
        <ele>251.80000305176</ele>
        <time>2021-05-22T08:42:35Z</time>
      </trkpt>
      <trkpt lat="44.50803" lon="4.58803">
        <ele>252</ele>
        <time>2021-05-22T08:42:36Z</time>
      </trkpt>
      <trkpt lat="44.50806" lon="4.58803">
        <ele>252.39999389648</ele>
        <time>2021-05-22T08:42:37Z</time>
      </trkpt>
      <trkpt lat="44.50809" lon="4.58803">
        <ele>252.39999389648</ele>
        <time>2021-05-22T08:42:38Z</time>
      </trkpt>
      <trkpt lat="44.50812" lon="4.58802">
        <ele>252.60000610352</ele>
        <time>2021-05-22T08:42:39Z</time>
      </trkpt>
      <trkpt lat="44.50814" lon="4.58803">
        <ele>252.80000305176</ele>
        <time>2021-05-22T08:42:40Z</time>
      </trkpt>
      <trkpt lat="44.50817" lon="4.58804">
        <ele>252.80000305176</ele>
        <time>2021-05-22T08:42:41Z</time>
      </trkpt>
      <trkpt lat="44.5082" lon="4.58804">
        <ele>252.80000305176</ele>
        <time>2021-05-22T08:42:42Z</time>
      </trkpt>
      <trkpt lat="44.50822" lon="4.58806">
        <ele>253.19999694824</ele>
        <time>2021-05-22T08:42:43Z</time>
      </trkpt>
      <trkpt lat="44.50825" lon="4.58807">
        <ele>253.19999694824</ele>
        <time>2021-05-22T08:42:44Z</time>
      </trkpt>
      <trkpt lat="44.50827" lon="4.58808">
        <ele>253.19999694824</ele>
        <time>2021-05-22T08:42:45Z</time>
      </trkpt>
      <trkpt lat="44.50829" lon="4.58809">
        <ele>253.19999694824</ele>
        <time>2021-05-22T08:42:46Z</time>
      </trkpt>
      <trkpt lat="44.50832" lon="4.5881">
        <ele>253.60000610352</ele>
        <time>2021-05-22T08:42:47Z</time>
      </trkpt>
      <trkpt lat="44.50834" lon="4.58811">
        <ele>253.80000305176</ele>
        <time>2021-05-22T08:42:48Z</time>
      </trkpt>
      <trkpt lat="44.50836" lon="4.58811">
        <ele>253.80000305176</ele>
        <time>2021-05-22T08:42:49Z</time>
      </trkpt>
      <trkpt lat="44.50838" lon="4.58812">
        <ele>254.19999694824</ele>
        <time>2021-05-22T08:42:50Z</time>
      </trkpt>
      <trkpt lat="44.50839" lon="4.58813">
        <ele>254.80000305176</ele>
        <time>2021-05-22T08:42:51Z</time>
      </trkpt>
      <trkpt lat="44.50839" lon="4.58814">
        <ele>255.19999694824</ele>
        <time>2021-05-22T08:42:52Z</time>
      </trkpt>
      <trkpt lat="44.5084" lon="4.58814">
        <ele>258.79998779297</ele>
        <time>2021-05-22T08:43:01Z</time>
      </trkpt>
      <trkpt lat="44.50842" lon="4.58815">
        <ele>259</ele>
        <time>2021-05-22T08:43:10Z</time>
      </trkpt>
      <trkpt lat="44.50843" lon="4.58816">
        <ele>259</ele>
        <time>2021-05-22T08:43:11Z</time>
      </trkpt>
      <trkpt lat="44.50845" lon="4.58816">
        <ele>259</ele>
        <time>2021-05-22T08:43:12Z</time>
      </trkpt>
      <trkpt lat="44.50847" lon="4.58816">
        <ele>259</ele>
        <time>2021-05-22T08:43:13Z</time>
      </trkpt>
      <trkpt lat="44.50849" lon="4.58816">
        <ele>259</ele>
        <time>2021-05-22T08:43:14Z</time>
      </trkpt>
      <trkpt lat="44.50852" lon="4.58816">
        <ele>259</ele>
        <time>2021-05-22T08:43:15Z</time>
      </trkpt>
      <trkpt lat="44.50859" lon="4.58818">
        <ele>259</ele>
        <time>2021-05-22T08:43:18Z</time>
      </trkpt>
      <trkpt lat="44.50865" lon="4.58818">
        <ele>259</ele>
        <time>2021-05-22T08:43:20Z</time>
      </trkpt>
      <trkpt lat="44.50873" lon="4.58818">
        <ele>259.20001220703</ele>
        <time>2021-05-22T08:43:23Z</time>
      </trkpt>
      <trkpt lat="44.50875" lon="4.58818">
        <ele>259.20001220703</ele>
        <time>2021-05-22T08:43:24Z</time>
      </trkpt>
      <trkpt lat="44.5088" lon="4.58818">
        <ele>259.20001220703</ele>
        <time>2021-05-22T08:43:26Z</time>
      </trkpt>
      <trkpt lat="44.50882" lon="4.58818">
        <ele>259.20001220703</ele>
        <time>2021-05-22T08:43:27Z</time>
      </trkpt>
      <trkpt lat="44.50887" lon="4.58817">
        <ele>259.39999389648</ele>
        <time>2021-05-22T08:43:29Z</time>
      </trkpt>
      <trkpt lat="44.5089" lon="4.58817">
        <ele>259.39999389648</ele>
        <time>2021-05-22T08:43:30Z</time>
      </trkpt>
      <trkpt lat="44.50896" lon="4.58819">
        <ele>259.39999389648</ele>
        <time>2021-05-22T08:43:32Z</time>
      </trkpt>
      <trkpt lat="44.50908" lon="4.58822">
        <ele>259.39999389648</ele>
        <time>2021-05-22T08:43:36Z</time>
      </trkpt>
      <trkpt lat="44.50911" lon="4.58823">
        <ele>259.39999389648</ele>
        <time>2021-05-22T08:43:37Z</time>
      </trkpt>
      <trkpt lat="44.50914" lon="4.58824">
        <ele>259.39999389648</ele>
        <time>2021-05-22T08:43:38Z</time>
      </trkpt>
      <trkpt lat="44.50917" lon="4.58825">
        <ele>259.60000610352</ele>
        <time>2021-05-22T08:43:39Z</time>
      </trkpt>
      <trkpt lat="44.50922" lon="4.58827">
        <ele>259.60000610352</ele>
        <time>2021-05-22T08:43:41Z</time>
      </trkpt>
      <trkpt lat="44.50926" lon="4.58828">
        <ele>259.60000610352</ele>
        <time>2021-05-22T08:43:42Z</time>
      </trkpt>
      <trkpt lat="44.50929" lon="4.58829">
        <ele>259.60000610352</ele>
        <time>2021-05-22T08:43:43Z</time>
      </trkpt>
      <trkpt lat="44.50932" lon="4.58831">
        <ele>259.79998779297</ele>
        <time>2021-05-22T08:43:44Z</time>
      </trkpt>
      <trkpt lat="44.50938" lon="4.58834">
        <ele>260</ele>
        <time>2021-05-22T08:43:46Z</time>
      </trkpt>
      <trkpt lat="44.5094" lon="4.58835">
        <ele>260</ele>
        <time>2021-05-22T08:43:47Z</time>
      </trkpt>
      <trkpt lat="44.50943" lon="4.58836">
        <ele>260.39999389648</ele>
        <time>2021-05-22T08:43:48Z</time>
      </trkpt>
      <trkpt lat="44.50945" lon="4.58837">
        <ele>260.60000610352</ele>
        <time>2021-05-22T08:43:49Z</time>
      </trkpt>
      <trkpt lat="44.50948" lon="4.58839">
        <ele>260.79998779297</ele>
        <time>2021-05-22T08:43:50Z</time>
      </trkpt>
      <trkpt lat="44.50951" lon="4.58841">
        <ele>260.79998779297</ele>
        <time>2021-05-22T08:43:51Z</time>
      </trkpt>
      <trkpt lat="44.50953" lon="4.58843">
        <ele>260.79998779297</ele>
        <time>2021-05-22T08:43:52Z</time>
      </trkpt>
      <trkpt lat="44.50956" lon="4.58845">
        <ele>261</ele>
        <time>2021-05-22T08:43:53Z</time>
      </trkpt>
      <trkpt lat="44.50959" lon="4.58846">
        <ele>261.60000610352</ele>
        <time>2021-05-22T08:43:54Z</time>
      </trkpt>
      <trkpt lat="44.50962" lon="4.58848">
        <ele>262.39999389648</ele>
        <time>2021-05-22T08:43:55Z</time>
      </trkpt>
      <trkpt lat="44.50965" lon="4.58849">
        <ele>262.60000610352</ele>
        <time>2021-05-22T08:43:56Z</time>
      </trkpt>
      <trkpt lat="44.50967" lon="4.58851">
        <ele>263.39999389648</ele>
        <time>2021-05-22T08:43:57Z</time>
      </trkpt>
      <trkpt lat="44.5097" lon="4.58852">
        <ele>263.79998779297</ele>
        <time>2021-05-22T08:43:58Z</time>
      </trkpt>
      <trkpt lat="44.50973" lon="4.58853">
        <ele>264.39999389648</ele>
        <time>2021-05-22T08:43:59Z</time>
      </trkpt>
      <trkpt lat="44.50976" lon="4.58854">
        <ele>264.79998779297</ele>
        <time>2021-05-22T08:44:00Z</time>
      </trkpt>
      <trkpt lat="44.50978" lon="4.58856">
        <ele>265.20001220703</ele>
        <time>2021-05-22T08:44:01Z</time>
      </trkpt>
      <trkpt lat="44.50981" lon="4.58857">
        <ele>265.60000610352</ele>
        <time>2021-05-22T08:44:02Z</time>
      </trkpt>
      <trkpt lat="44.50983" lon="4.5886">
        <ele>266</ele>
        <time>2021-05-22T08:44:03Z</time>
      </trkpt>
      <trkpt lat="44.50986" lon="4.58859">
        <ele>266.60000610352</ele>
        <time>2021-05-22T08:44:04Z</time>
      </trkpt>
      <trkpt lat="44.50988" lon="4.58861">
        <ele>266.79998779297</ele>
        <time>2021-05-22T08:44:05Z</time>
      </trkpt>
      <trkpt lat="44.50991" lon="4.58862">
        <ele>267</ele>
        <time>2021-05-22T08:44:06Z</time>
      </trkpt>
      <trkpt lat="44.50993" lon="4.58864">
        <ele>267.20001220703</ele>
        <time>2021-05-22T08:44:07Z</time>
      </trkpt>
      <trkpt lat="44.50996" lon="4.58867">
        <ele>267.79998779297</ele>
        <time>2021-05-22T08:44:08Z</time>
      </trkpt>
      <trkpt lat="44.50998" lon="4.58869">
        <ele>268</ele>
        <time>2021-05-22T08:44:09Z</time>
      </trkpt>
      <trkpt lat="44.51" lon="4.5887">
        <ele>268.39999389648</ele>
        <time>2021-05-22T08:44:10Z</time>
      </trkpt>
      <trkpt lat="44.51002" lon="4.58872">
        <ele>268.60000610352</ele>
        <time>2021-05-22T08:44:11Z</time>
      </trkpt>
      <trkpt lat="44.51005" lon="4.58874">
        <ele>268.79998779297</ele>
        <time>2021-05-22T08:44:12Z</time>
      </trkpt>
      <trkpt lat="44.51007" lon="4.58875">
        <ele>269.20001220703</ele>
        <time>2021-05-22T08:44:13Z</time>
      </trkpt>
      <trkpt lat="44.5101" lon="4.58876">
        <ele>269.20001220703</ele>
        <time>2021-05-22T08:44:14Z</time>
      </trkpt>
      <trkpt lat="44.51013" lon="4.58876">
        <ele>269.39999389648</ele>
        <time>2021-05-22T08:44:15Z</time>
      </trkpt>
      <trkpt lat="44.51015" lon="4.58877">
        <ele>269.79998779297</ele>
        <time>2021-05-22T08:44:16Z</time>
      </trkpt>
      <trkpt lat="44.51018" lon="4.58878">
        <ele>270</ele>
        <time>2021-05-22T08:44:17Z</time>
      </trkpt>
      <trkpt lat="44.5102" lon="4.58879">
        <ele>270.20001220703</ele>
        <time>2021-05-22T08:44:18Z</time>
      </trkpt>
      <trkpt lat="44.51023" lon="4.58879">
        <ele>270.60000610352</ele>
        <time>2021-05-22T08:44:19Z</time>
      </trkpt>
      <trkpt lat="44.51026" lon="4.58879">
        <ele>270.79998779297</ele>
        <time>2021-05-22T08:44:20Z</time>
      </trkpt>
      <trkpt lat="44.51029" lon="4.5888">
        <ele>271.20001220703</ele>
        <time>2021-05-22T08:44:21Z</time>
      </trkpt>
      <trkpt lat="44.51031" lon="4.58881">
        <ele>271.60000610352</ele>
        <time>2021-05-22T08:44:22Z</time>
      </trkpt>
      <trkpt lat="44.51033" lon="4.58881">
        <ele>272</ele>
        <time>2021-05-22T08:44:23Z</time>
      </trkpt>
      <trkpt lat="44.51035" lon="4.5888">
        <ele>272.39999389648</ele>
        <time>2021-05-22T08:44:24Z</time>
      </trkpt>
      <trkpt lat="44.51038" lon="4.5888">
        <ele>272.60000610352</ele>
        <time>2021-05-22T08:44:25Z</time>
      </trkpt>
      <trkpt lat="44.5104" lon="4.58879">
        <ele>273</ele>
        <time>2021-05-22T08:44:26Z</time>
      </trkpt>
      <trkpt lat="44.51043" lon="4.58878">
        <ele>273</ele>
        <time>2021-05-22T08:44:27Z</time>
      </trkpt>
      <trkpt lat="44.51046" lon="4.58877">
        <ele>273.20001220703</ele>
        <time>2021-05-22T08:44:28Z</time>
      </trkpt>
      <trkpt lat="44.51049" lon="4.58877">
        <ele>273.20001220703</ele>
        <time>2021-05-22T08:44:29Z</time>
      </trkpt>
      <trkpt lat="44.51051" lon="4.58877">
        <ele>273.39999389648</ele>
        <time>2021-05-22T08:44:30Z</time>
      </trkpt>
      <trkpt lat="44.51054" lon="4.58877">
        <ele>273.39999389648</ele>
        <time>2021-05-22T08:44:31Z</time>
      </trkpt>
      <trkpt lat="44.51057" lon="4.58876">
        <ele>273.39999389648</ele>
        <time>2021-05-22T08:44:32Z</time>
      </trkpt>
      <trkpt lat="44.51059" lon="4.58876">
        <ele>273.60000610352</ele>
        <time>2021-05-22T08:44:33Z</time>
      </trkpt>
      <trkpt lat="44.51062" lon="4.58874">
        <ele>273.39999389648</ele>
        <time>2021-05-22T08:44:34Z</time>
      </trkpt>
      <trkpt lat="44.51064" lon="4.58872">
        <ele>273.60000610352</ele>
        <time>2021-05-22T08:44:35Z</time>
      </trkpt>
      <trkpt lat="44.51066" lon="4.58871">
        <ele>273.60000610352</ele>
        <time>2021-05-22T08:44:36Z</time>
      </trkpt>
      <trkpt lat="44.51068" lon="4.5887">
        <ele>273.60000610352</ele>
        <time>2021-05-22T08:44:37Z</time>
      </trkpt>
      <trkpt lat="44.5107" lon="4.58869">
        <ele>273.60000610352</ele>
        <time>2021-05-22T08:44:38Z</time>
      </trkpt>
      <trkpt lat="44.51072" lon="4.58867">
        <ele>273.60000610352</ele>
        <time>2021-05-22T08:44:39Z</time>
      </trkpt>
      <trkpt lat="44.51074" lon="4.58865">
        <ele>273.60000610352</ele>
        <time>2021-05-22T08:44:40Z</time>
      </trkpt>
      <trkpt lat="44.51076" lon="4.58863">
        <ele>273.79998779297</ele>
        <time>2021-05-22T08:44:41Z</time>
      </trkpt>
      <trkpt lat="44.51078" lon="4.58861">
        <ele>273.79998779297</ele>
        <time>2021-05-22T08:44:42Z</time>
      </trkpt>
      <trkpt lat="44.51081" lon="4.58857">
        <ele>273.60000610352</ele>
        <time>2021-05-22T08:44:44Z</time>
      </trkpt>
      <trkpt lat="44.51084" lon="4.58851">
        <ele>273.79998779297</ele>
        <time>2021-05-22T08:44:46Z</time>
      </trkpt>
      <trkpt lat="44.51089" lon="4.58843">
        <ele>274.20001220703</ele>
        <time>2021-05-22T08:44:49Z</time>
      </trkpt>
      <trkpt lat="44.51093" lon="4.58838">
        <ele>274.39999389648</ele>
        <time>2021-05-22T08:44:51Z</time>
      </trkpt>
      <trkpt lat="44.51097" lon="4.58834">
        <ele>274.60000610352</ele>
        <time>2021-05-22T08:44:53Z</time>
      </trkpt>
      <trkpt lat="44.511" lon="4.5883">
        <ele>274.60000610352</ele>
        <time>2021-05-22T08:44:55Z</time>
      </trkpt>
      <trkpt lat="44.51102" lon="4.5883">
        <ele>274.79998779297</ele>
        <time>2021-05-22T08:44:56Z</time>
      </trkpt>
      <trkpt lat="44.51103" lon="4.58829">
        <ele>275</ele>
        <time>2021-05-22T08:44:57Z</time>
      </trkpt>
      <trkpt lat="44.51104" lon="4.58828">
        <ele>275.20001220703</ele>
        <time>2021-05-22T08:44:58Z</time>
      </trkpt>
      <trkpt lat="44.51106" lon="4.58826">
        <ele>275.20001220703</ele>
        <time>2021-05-22T08:44:59Z</time>
      </trkpt>
      <trkpt lat="44.51108" lon="4.58824">
        <ele>275.39999389648</ele>
        <time>2021-05-22T08:45:00Z</time>
      </trkpt>
      <trkpt lat="44.5111" lon="4.58821">
        <ele>275.60000610352</ele>
        <time>2021-05-22T08:45:01Z</time>
      </trkpt>
      <trkpt lat="44.51112" lon="4.5882">
        <ele>275.79998779297</ele>
        <time>2021-05-22T08:45:02Z</time>
      </trkpt>
      <trkpt lat="44.51114" lon="4.58818">
        <ele>276</ele>
        <time>2021-05-22T08:45:03Z</time>
      </trkpt>
      <trkpt lat="44.51115" lon="4.58817">
        <ele>276</ele>
        <time>2021-05-22T08:45:04Z</time>
      </trkpt>
      <trkpt lat="44.51117" lon="4.58816">
        <ele>275.79998779297</ele>
        <time>2021-05-22T08:45:05Z</time>
      </trkpt>
      <trkpt lat="44.51119" lon="4.58816">
        <ele>275.79998779297</ele>
        <time>2021-05-22T08:45:06Z</time>
      </trkpt>
      <trkpt lat="44.51121" lon="4.58815">
        <ele>276</ele>
        <time>2021-05-22T08:45:07Z</time>
      </trkpt>
      <trkpt lat="44.51123" lon="4.58813">
        <ele>275.79998779297</ele>
        <time>2021-05-22T08:45:08Z</time>
      </trkpt>
      <trkpt lat="44.51125" lon="4.5881">
        <ele>275.79998779297</ele>
        <time>2021-05-22T08:45:09Z</time>
      </trkpt>
      <trkpt lat="44.51136" lon="4.58801">
        <ele>275.39999389648</ele>
        <time>2021-05-22T08:45:13Z</time>
      </trkpt>
      <trkpt lat="44.51148" lon="4.58794">
        <ele>274.79998779297</ele>
        <time>2021-05-22T08:45:16Z</time>
      </trkpt>
      <trkpt lat="44.51157" lon="4.5879">
        <ele>274.20001220703</ele>
        <time>2021-05-22T08:45:18Z</time>
      </trkpt>
      <trkpt lat="44.5116" lon="4.58788">
        <ele>273.60000610352</ele>
        <time>2021-05-22T08:45:19Z</time>
      </trkpt>
      <trkpt lat="44.51164" lon="4.58786">
        <ele>273.39999389648</ele>
        <time>2021-05-22T08:45:20Z</time>
      </trkpt>
      <trkpt lat="44.51166" lon="4.58784">
        <ele>273.39999389648</ele>
        <time>2021-05-22T08:45:21Z</time>
      </trkpt>
      <trkpt lat="44.51169" lon="4.58782">
        <ele>273</ele>
        <time>2021-05-22T08:45:22Z</time>
      </trkpt>
      <trkpt lat="44.51172" lon="4.5878">
        <ele>272.79998779297</ele>
        <time>2021-05-22T08:45:23Z</time>
      </trkpt>
      <trkpt lat="44.51176" lon="4.58778">
        <ele>272.39999389648</ele>
        <time>2021-05-22T08:45:24Z</time>
      </trkpt>
      <trkpt lat="44.5118" lon="4.58776">
        <ele>272</ele>
        <time>2021-05-22T08:45:25Z</time>
      </trkpt>
      <trkpt lat="44.51194" lon="4.58767">
        <ele>270.79998779297</ele>
        <time>2021-05-22T08:45:28Z</time>
      </trkpt>
      <trkpt lat="44.51204" lon="4.58761">
        <ele>270</ele>
        <time>2021-05-22T08:45:30Z</time>
      </trkpt>
      <trkpt lat="44.51209" lon="4.58758">
        <ele>270</ele>
        <time>2021-05-22T08:45:31Z</time>
      </trkpt>
      <trkpt lat="44.51219" lon="4.58753">
        <ele>269.20001220703</ele>
        <time>2021-05-22T08:45:33Z</time>
      </trkpt>
      <trkpt lat="44.51223" lon="4.5875">
        <ele>268.39999389648</ele>
        <time>2021-05-22T08:45:34Z</time>
      </trkpt>
      <trkpt lat="44.51228" lon="4.58748">
        <ele>268</ele>
        <time>2021-05-22T08:45:35Z</time>
      </trkpt>
      <trkpt lat="44.51232" lon="4.58746">
        <ele>267.60000610352</ele>
        <time>2021-05-22T08:45:36Z</time>
      </trkpt>
      <trkpt lat="44.51236" lon="4.58743">
        <ele>267.20001220703</ele>
        <time>2021-05-22T08:45:37Z</time>
      </trkpt>
      <trkpt lat="44.51239" lon="4.58741">
        <ele>266.20001220703</ele>
        <time>2021-05-22T08:45:38Z</time>
      </trkpt>
      <trkpt lat="44.51243" lon="4.58739">
        <ele>265.60000610352</ele>
        <time>2021-05-22T08:45:39Z</time>
      </trkpt>
      <trkpt lat="44.51246" lon="4.58738">
        <ele>265</ele>
        <time>2021-05-22T08:45:40Z</time>
      </trkpt>
      <trkpt lat="44.51249" lon="4.58736">
        <ele>264.79998779297</ele>
        <time>2021-05-22T08:45:41Z</time>
      </trkpt>
      <trkpt lat="44.51254" lon="4.58733">
        <ele>264</ele>
        <time>2021-05-22T08:45:43Z</time>
      </trkpt>
      <trkpt lat="44.51256" lon="4.58732">
        <ele>263</ele>
        <time>2021-05-22T08:45:44Z</time>
      </trkpt>
      <trkpt lat="44.51257" lon="4.58732">
        <ele>262.20001220703</ele>
        <time>2021-05-22T08:45:45Z</time>
      </trkpt>
      <trkpt lat="44.51257" lon="4.58732">
        <ele>261.39999389648</ele>
        <time>2021-05-22T08:45:46Z</time>
      </trkpt>
      <trkpt lat="44.51258" lon="4.58732">
        <ele>260.79998779297</ele>
        <time>2021-05-22T08:45:47Z</time>
      </trkpt>
      <trkpt lat="44.51258" lon="4.58733">
        <ele>259.39999389648</ele>
        <time>2021-05-22T08:45:50Z</time>
      </trkpt>
      <trkpt lat="44.51259" lon="4.58732">
        <ele>258.60000610352</ele>
        <time>2021-05-22T08:45:51Z</time>
      </trkpt>
      <trkpt lat="44.51261" lon="4.5873">
        <ele>258.39999389648</ele>
        <time>2021-05-22T08:45:52Z</time>
      </trkpt>
      <trkpt lat="44.51262" lon="4.5873">
        <ele>257.60000610352</ele>
        <time>2021-05-22T08:45:53Z</time>
      </trkpt>
      <trkpt lat="44.51262" lon="4.58731">
        <ele>257.20001220703</ele>
        <time>2021-05-22T08:45:54Z</time>
      </trkpt>
      <trkpt lat="44.51262" lon="4.5873">
        <ele>255.80000305176</ele>
        <time>2021-05-22T08:46:02Z</time>
      </trkpt>
      <trkpt lat="44.51262" lon="4.58729">
        <ele>255.39999389648</ele>
        <time>2021-05-22T08:46:24Z</time>
      </trkpt>
      <trkpt lat="44.51262" lon="4.58729">
        <ele>255.39999389648</ele>
        <time>2021-05-22T08:46:31Z</time>
      </trkpt>
      <trkpt lat="44.51262" lon="4.58729">
        <ele>255.80000305176</ele>
        <time>2021-05-22T08:46:40Z</time>
      </trkpt>
      <trkpt lat="44.51262" lon="4.58729">
        <ele>256</ele>
        <time>2021-05-22T08:46:57Z</time>
      </trkpt>
      <trkpt lat="44.51262" lon="4.58729">
        <ele>255.80000305176</ele>
        <time>2021-05-22T08:47:13Z</time>
      </trkpt>
      <trkpt lat="44.51262" lon="4.58729">
        <ele>255.80000305176</ele>
        <time>2021-05-22T08:47:19Z</time>
      </trkpt>
      <trkpt lat="44.51262" lon="4.58729">
        <ele>255.80000305176</ele>
        <time>2021-05-22T08:47:20Z</time>
      </trkpt>
      <trkpt lat="44.51262" lon="4.58729">
        <ele>256</ele>
        <time>2021-05-22T08:47:21Z</time>
      </trkpt>
      <trkpt lat="44.51262" lon="4.58729">
        <ele>255.80000305176</ele>
        <time>2021-05-22T08:47:22Z</time>
      </trkpt>
      <trkpt lat="44.51262" lon="4.58729">
        <ele>255.80000305176</ele>
        <time>2021-05-22T08:47:23Z</time>
      </trkpt>
      <trkpt lat="44.51262" lon="4.58729">
        <ele>255.60000610352</ele>
        <time>2021-05-22T08:47:24Z</time>
      </trkpt>
      <trkpt lat="44.51262" lon="4.58729">
        <ele>255.80000305176</ele>
        <time>2021-05-22T08:47:25Z</time>
      </trkpt>
      <trkpt lat="44.51262" lon="4.58729">
        <ele>255.60000610352</ele>
        <time>2021-05-22T08:47:26Z</time>
      </trkpt>
      <trkpt lat="44.51262" lon="4.58729">
        <ele>255.60000610352</ele>
        <time>2021-05-22T08:47:28Z</time>
      </trkpt>
      <trkpt lat="44.51262" lon="4.58729">
        <ele>255.60000610352</ele>
        <time>2021-05-22T08:47:29Z</time>
      </trkpt>
      <trkpt lat="44.51262" lon="4.58729">
        <ele>255.60000610352</ele>
        <time>2021-05-22T08:47:30Z</time>
      </trkpt>
      <trkpt lat="44.51262" lon="4.58729">
        <ele>256</ele>
        <time>2021-05-22T08:47:41Z</time>
      </trkpt>
      <trkpt lat="44.51262" lon="4.58728">
        <ele>256</ele>
        <time>2021-05-22T08:47:47Z</time>
      </trkpt>
      <trkpt lat="44.51262" lon="4.58725">
        <ele>256.20001220703</ele>
        <time>2021-05-22T08:47:49Z</time>
      </trkpt>
      <trkpt lat="44.51261" lon="4.58724">
        <ele>256.20001220703</ele>
        <time>2021-05-22T08:47:50Z</time>
      </trkpt>
      <trkpt lat="44.51261" lon="4.58723">
        <ele>256</ele>
        <time>2021-05-22T08:47:51Z</time>
      </trkpt>
      <trkpt lat="44.51261" lon="4.58723">
        <ele>256.20001220703</ele>
        <time>2021-05-22T08:47:54Z</time>
      </trkpt>
      <trkpt lat="44.5126" lon="4.58722">
        <ele>255.19999694824</ele>
        <time>2021-05-22T08:48:06Z</time>
      </trkpt>
      <trkpt lat="44.51256" lon="4.58719">
        <ele>255</ele>
        <time>2021-05-22T08:48:09Z</time>
      </trkpt>
      <trkpt lat="44.51254" lon="4.58718">
        <ele>255</ele>
        <time>2021-05-22T08:48:10Z</time>
      </trkpt>
      <trkpt lat="44.51253" lon="4.58717">
        <ele>255</ele>
        <time>2021-05-22T08:48:11Z</time>
      </trkpt>
      <trkpt lat="44.51252" lon="4.58716">
        <ele>255</ele>
        <time>2021-05-22T08:48:12Z</time>
      </trkpt>
      <trkpt lat="44.51247" lon="4.58713">
        <ele>255</ele>
        <time>2021-05-22T08:48:14Z</time>
      </trkpt>
      <trkpt lat="44.51242" lon="4.5871">
        <ele>254.80000305176</ele>
        <time>2021-05-22T08:48:16Z</time>
      </trkpt>
      <trkpt lat="44.51229" lon="4.58703">
        <ele>254.19999694824</ele>
        <time>2021-05-22T08:48:20Z</time>
      </trkpt>
      <trkpt lat="44.51217" lon="4.58699">
        <ele>253.19999694824</ele>
        <time>2021-05-22T08:48:23Z</time>
      </trkpt>
      <trkpt lat="44.51208" lon="4.58697">
        <ele>252.60000610352</ele>
        <time>2021-05-22T08:48:25Z</time>
      </trkpt>
      <trkpt lat="44.51204" lon="4.58696">
        <ele>252.19999694824</ele>
        <time>2021-05-22T08:48:26Z</time>
      </trkpt>
      <trkpt lat="44.512" lon="4.58695">
        <ele>251.60000610352</ele>
        <time>2021-05-22T08:48:27Z</time>
      </trkpt>
      <trkpt lat="44.51196" lon="4.58694">
        <ele>251.39999389648</ele>
        <time>2021-05-22T08:48:28Z</time>
      </trkpt>
      <trkpt lat="44.51193" lon="4.58692">
        <ele>250.80000305176</ele>
        <time>2021-05-22T08:48:29Z</time>
      </trkpt>
      <trkpt lat="44.51189" lon="4.58688">
        <ele>250.19999694824</ele>
        <time>2021-05-22T08:48:30Z</time>
      </trkpt>
      <trkpt lat="44.51182" lon="4.58679">
        <ele>249</ele>
        <time>2021-05-22T08:48:32Z</time>
      </trkpt>
      <trkpt lat="44.51179" lon="4.58673">
        <ele>248.39999389648</ele>
        <time>2021-05-22T08:48:33Z</time>
      </trkpt>
      <trkpt lat="44.51175" lon="4.58669">
        <ele>247.39999389648</ele>
        <time>2021-05-22T08:48:34Z</time>
      </trkpt>
      <trkpt lat="44.5117" lon="4.58665">
        <ele>247</ele>
        <time>2021-05-22T08:48:35Z</time>
      </trkpt>
      <trkpt lat="44.51165" lon="4.58662">
        <ele>246.80000305176</ele>
        <time>2021-05-22T08:48:36Z</time>
      </trkpt>
      <trkpt lat="44.5116" lon="4.5866">
        <ele>246.19999694824</ele>
        <time>2021-05-22T08:48:37Z</time>
      </trkpt>
      <trkpt lat="44.51155" lon="4.58659">
        <ele>245.60000610352</ele>
        <time>2021-05-22T08:48:38Z</time>
      </trkpt>
      <trkpt lat="44.5115" lon="4.58657">
        <ele>244.80000305176</ele>
        <time>2021-05-22T08:48:39Z</time>
      </trkpt>
      <trkpt lat="44.51147" lon="4.58655">
        <ele>243.80000305176</ele>
        <time>2021-05-22T08:48:40Z</time>
      </trkpt>
      <trkpt lat="44.51145" lon="4.58653">
        <ele>243.80000305176</ele>
        <time>2021-05-22T08:48:41Z</time>
      </trkpt>
      <trkpt lat="44.51145" lon="4.5865">
        <ele>242.80000305176</ele>
        <time>2021-05-22T08:48:42Z</time>
      </trkpt>
      <trkpt lat="44.51146" lon="4.58647">
        <ele>241.39999389648</ele>
        <time>2021-05-22T08:48:43Z</time>
      </trkpt>
      <trkpt lat="44.51147" lon="4.58645">
        <ele>240.60000610352</ele>
        <time>2021-05-22T08:48:44Z</time>
      </trkpt>
      <trkpt lat="44.51148" lon="4.58644">
        <ele>239.60000610352</ele>
        <time>2021-05-22T08:48:45Z</time>
      </trkpt>
      <trkpt lat="44.51149" lon="4.58642">
        <ele>238.39999389648</ele>
        <time>2021-05-22T08:48:46Z</time>
      </trkpt>
      <trkpt lat="44.5115" lon="4.5864">
        <ele>237.60000610352</ele>
        <time>2021-05-22T08:48:47Z</time>
      </trkpt>
      <trkpt lat="44.51152" lon="4.58638">
        <ele>236.60000610352</ele>
        <time>2021-05-22T08:48:48Z</time>
      </trkpt>
      <trkpt lat="44.51158" lon="4.58631">
        <ele>235.19999694824</ele>
        <time>2021-05-22T08:48:50Z</time>
      </trkpt>
      <trkpt lat="44.51161" lon="4.58627">
        <ele>234.80000305176</ele>
        <time>2021-05-22T08:48:51Z</time>
      </trkpt>
      <trkpt lat="44.51164" lon="4.58621">
        <ele>234.80000305176</ele>
        <time>2021-05-22T08:48:52Z</time>
      </trkpt>
      <trkpt lat="44.51167" lon="4.58613">
        <ele>234.60000610352</ele>
        <time>2021-05-22T08:48:53Z</time>
      </trkpt>
      <trkpt lat="44.5117" lon="4.58604">
        <ele>234.19999694824</ele>
        <time>2021-05-22T08:48:54Z</time>
      </trkpt>
      <trkpt lat="44.51173" lon="4.58594">
        <ele>234</ele>
        <time>2021-05-22T08:48:55Z</time>
      </trkpt>
      <trkpt lat="44.51175" lon="4.58581">
        <ele>233.60000610352</ele>
        <time>2021-05-22T08:48:56Z</time>
      </trkpt>
      <trkpt lat="44.51176" lon="4.58567">
        <ele>233.60000610352</ele>
        <time>2021-05-22T08:48:57Z</time>
      </trkpt>
      <trkpt lat="44.51178" lon="4.58552">
        <ele>233.19999694824</ele>
        <time>2021-05-22T08:48:58Z</time>
      </trkpt>
      <trkpt lat="44.51178" lon="4.58536">
        <ele>232.80000305176</ele>
        <time>2021-05-22T08:48:59Z</time>
      </trkpt>
      <trkpt lat="44.51179" lon="4.58519">
        <ele>232.19999694824</ele>
        <time>2021-05-22T08:49:00Z</time>
      </trkpt>
      <trkpt lat="44.5118" lon="4.58503">
        <ele>231.60000610352</ele>
        <time>2021-05-22T08:49:01Z</time>
      </trkpt>
      <trkpt lat="44.51181" lon="4.58488">
        <ele>230.80000305176</ele>
        <time>2021-05-22T08:49:02Z</time>
      </trkpt>
      <trkpt lat="44.5118" lon="4.58473">
        <ele>230</ele>
        <time>2021-05-22T08:49:03Z</time>
      </trkpt>
      <trkpt lat="44.51179" lon="4.58457">
        <ele>230</ele>
        <time>2021-05-22T08:49:04Z</time>
      </trkpt>
      <trkpt lat="44.51178" lon="4.5844">
        <ele>228.60000610352</ele>
        <time>2021-05-22T08:49:05Z</time>
      </trkpt>
      <trkpt lat="44.51176" lon="4.58423">
        <ele>227</ele>
        <time>2021-05-22T08:49:06Z</time>
      </trkpt>
      <trkpt lat="44.51174" lon="4.58406">
        <ele>225</ele>
        <time>2021-05-22T08:49:07Z</time>
      </trkpt>
      <trkpt lat="44.51171" lon="4.58389">
        <ele>223</ele>
        <time>2021-05-22T08:49:08Z</time>
      </trkpt>
      <trkpt lat="44.5117" lon="4.58372">
        <ele>221.39999389648</ele>
        <time>2021-05-22T08:49:09Z</time>
      </trkpt>
      <trkpt lat="44.51168" lon="4.58355">
        <ele>219.60000610352</ele>
        <time>2021-05-22T08:49:10Z</time>
      </trkpt>
      <trkpt lat="44.51166" lon="4.58339">
        <ele>218.19999694824</ele>
        <time>2021-05-22T08:49:11Z</time>
      </trkpt>
      <trkpt lat="44.51164" lon="4.58326">
        <ele>217</ele>
        <time>2021-05-22T08:49:12Z</time>
      </trkpt>
      <trkpt lat="44.51162" lon="4.58313">
        <ele>215.39999389648</ele>
        <time>2021-05-22T08:49:13Z</time>
      </trkpt>
      <trkpt lat="44.51162" lon="4.58301">
        <ele>213.60000610352</ele>
        <time>2021-05-22T08:49:14Z</time>
      </trkpt>
      <trkpt lat="44.51164" lon="4.58288">
        <ele>211.39999389648</ele>
        <time>2021-05-22T08:49:15Z</time>
      </trkpt>
      <trkpt lat="44.51167" lon="4.58276">
        <ele>209.60000610352</ele>
        <time>2021-05-22T08:49:16Z</time>
      </trkpt>
      <trkpt lat="44.51169" lon="4.58264">
        <ele>208</ele>
        <time>2021-05-22T08:49:17Z</time>
      </trkpt>
      <trkpt lat="44.5117" lon="4.58253">
        <ele>206.19999694824</ele>
        <time>2021-05-22T08:49:18Z</time>
      </trkpt>
      <trkpt lat="44.51168" lon="4.58241">
        <ele>204.80000305176</ele>
        <time>2021-05-22T08:49:19Z</time>
      </trkpt>
      <trkpt lat="44.51164" lon="4.5823">
        <ele>203.60000610352</ele>
        <time>2021-05-22T08:49:20Z</time>
      </trkpt>
      <trkpt lat="44.5116" lon="4.5822">
        <ele>202.80000305176</ele>
        <time>2021-05-22T08:49:21Z</time>
      </trkpt>
      <trkpt lat="44.51155" lon="4.58212">
        <ele>202.19999694824</ele>
        <time>2021-05-22T08:49:22Z</time>
      </trkpt>
      <trkpt lat="44.51152" lon="4.58206">
        <ele>201.39999389648</ele>
        <time>2021-05-22T08:49:23Z</time>
      </trkpt>
      <trkpt lat="44.5115" lon="4.58201">
        <ele>200</ele>
        <time>2021-05-22T08:49:24Z</time>
      </trkpt>
      <trkpt lat="44.51149" lon="4.58199">
        <ele>199</ele>
        <time>2021-05-22T08:49:25Z</time>
      </trkpt>
      <trkpt lat="44.51148" lon="4.58196">
        <ele>198</ele>
        <time>2021-05-22T08:49:26Z</time>
      </trkpt>
      <trkpt lat="44.51146" lon="4.58193">
        <ele>198</ele>
        <time>2021-05-22T08:49:27Z</time>
      </trkpt>
      <trkpt lat="44.51145" lon="4.5819">
        <ele>197.19999694824</ele>
        <time>2021-05-22T08:49:28Z</time>
      </trkpt>
      <trkpt lat="44.51152" lon="4.58204">
        <ele>198.80000305176</ele>
        <time>2019-08-22T16:12:54Z</time>
      </trkpt>
      <trkpt lat="44.5115" lon="4.582">
        <ele>197.80000305176</ele>
        <time>2019-08-22T16:12:55Z</time>
      </trkpt>
      <trkpt lat="44.51141" lon="4.58188">
        <ele>196.60000610352</ele>
        <time>2019-08-22T16:12:59Z</time>
      </trkpt>
      <trkpt lat="44.51139" lon="4.58187">
        <ele>196.39999389648</ele>
        <time>2019-08-22T16:13:00Z</time>
      </trkpt>
      <trkpt lat="44.51125" lon="4.58183">
        <ele>194</ele>
        <time>2019-08-22T16:13:06Z</time>
      </trkpt>
      <trkpt lat="44.51122" lon="4.58183">
        <ele>193.80000305176</ele>
        <time>2019-08-22T16:13:07Z</time>
      </trkpt>
      <trkpt lat="44.51104" lon="4.58177">
        <ele>193.39999389648</ele>
        <time>2019-08-22T16:13:11Z</time>
      </trkpt>
      <trkpt lat="44.51089" lon="4.58171">
        <ele>193</ele>
        <time>2019-08-22T16:13:14Z</time>
      </trkpt>
      <trkpt lat="44.5106" lon="4.5816">
        <ele>192</ele>
        <time>2019-08-22T16:13:19Z</time>
      </trkpt>
      <trkpt lat="44.51042" lon="4.58154">
        <ele>191.60000610352</ele>
        <time>2019-08-22T16:13:22Z</time>
      </trkpt>
      <trkpt lat="44.51018" lon="4.58147">
        <ele>190.80000305176</ele>
        <time>2019-08-22T16:13:26Z</time>
      </trkpt>
      <trkpt lat="44.51005" lon="4.58143">
        <ele>190.39999389648</ele>
        <time>2019-08-22T16:13:28Z</time>
      </trkpt>
      <trkpt lat="44.50991" lon="4.5814">
        <ele>190</ele>
        <time>2019-08-22T16:13:30Z</time>
      </trkpt>
      <trkpt lat="44.5097" lon="4.58136">
        <ele>189</ele>
        <time>2019-08-22T16:13:33Z</time>
      </trkpt>
      <trkpt lat="44.50941" lon="4.58131">
        <ele>187.80000305176</ele>
        <time>2019-08-22T16:13:38Z</time>
      </trkpt>
      <trkpt lat="44.50926" lon="4.58128">
        <ele>186.80000305176</ele>
        <time>2019-08-22T16:13:41Z</time>
      </trkpt>
      <trkpt lat="44.50912" lon="4.58122">
        <ele>186.60000610352</ele>
        <time>2019-08-22T16:13:44Z</time>
      </trkpt>
      <trkpt lat="44.50907" lon="4.58119">
        <ele>186.19999694824</ele>
        <time>2019-08-22T16:13:45Z</time>
      </trkpt>
      <trkpt lat="44.5089" lon="4.58113">
        <ele>185.60000610352</ele>
        <time>2019-08-22T16:13:48Z</time>
      </trkpt>
      <trkpt lat="44.50884" lon="4.5811">
        <ele>185</ele>
        <time>2019-08-22T16:13:49Z</time>
      </trkpt>
      <trkpt lat="44.50871" lon="4.58102">
        <ele>184.19999694824</ele>
        <time>2019-08-22T16:13:51Z</time>
      </trkpt>
      <trkpt lat="44.50852" lon="4.58089">
        <ele>183.39999389648</ele>
        <time>2019-08-22T16:13:54Z</time>
      </trkpt>
      <trkpt lat="44.50829" lon="4.58075">
        <ele>182.19999694824</ele>
        <time>2019-08-22T16:13:58Z</time>
      </trkpt>
      <trkpt lat="44.50829" lon="4.58075">
        <ele>182.19999694824</ele>
        <time>2019-08-22T16:13:58Z</time>
      </trkpt>
      <trkpt lat="44.50827" lon="4.58069">
        <ele>181.80000305176</ele>
        <time>2019-08-22T16:13:59Z</time>
      </trkpt>
      <trkpt lat="44.50826" lon="4.58062">
        <ele>181.60000610352</ele>
        <time>2019-08-22T16:14:00Z</time>
      </trkpt>
      <trkpt lat="44.50831" lon="4.58049">
        <ele>181.39999389648</ele>
        <time>2019-08-22T16:14:02Z</time>
      </trkpt>
      <trkpt lat="44.50854" lon="4.58025">
        <ele>181</ele>
        <time>2019-08-22T16:14:07Z</time>
      </trkpt>
      <trkpt lat="44.50859" lon="4.58021">
        <ele>180.60000610352</ele>
        <time>2019-08-22T16:14:08Z</time>
      </trkpt>
      <trkpt lat="44.50865" lon="4.58017">
        <ele>180.80000305176</ele>
        <time>2019-08-22T16:14:09Z</time>
      </trkpt>
      <trkpt lat="44.50871" lon="4.58015">
        <ele>180.60000610352</ele>
        <time>2019-08-22T16:14:10Z</time>
      </trkpt>
      <trkpt lat="44.50877" lon="4.58014">
        <ele>180.39999389648</ele>
        <time>2019-08-22T16:14:11Z</time>
      </trkpt>
      <trkpt lat="44.50901" lon="4.58013">
        <ele>180</ele>
        <time>2019-08-22T16:14:15Z</time>
      </trkpt>
      <trkpt lat="44.50912" lon="4.58014">
        <ele>180</ele>
        <time>2019-08-22T16:14:17Z</time>
      </trkpt>
      <trkpt lat="44.50917" lon="4.58015">
        <ele>179.80000305176</ele>
        <time>2019-08-22T16:14:18Z</time>
      </trkpt>
      <trkpt lat="44.50941" lon="4.58016">
        <ele>180.39999389648</ele>
        <time>2019-08-22T16:14:23Z</time>
      </trkpt>
      <trkpt lat="44.5095" lon="4.58016">
        <ele>180.80000305176</ele>
        <time>2019-08-22T16:14:25Z</time>
      </trkpt>
      <trkpt lat="44.50954" lon="4.58016">
        <ele>181</ele>
        <time>2019-08-22T16:14:26Z</time>
      </trkpt>
      <trkpt lat="44.50965" lon="4.58012">
        <ele>182</ele>
        <time>2019-08-22T16:14:29Z</time>
      </trkpt>
      <trkpt lat="44.50981" lon="4.58003">
        <ele>183.60000610352</ele>
        <time>2019-08-22T16:14:34Z</time>
      </trkpt>
      <trkpt lat="44.50993" lon="4.57994">
        <ele>184.80000305176</ele>
        <time>2019-08-22T16:14:38Z</time>
      </trkpt>
      <trkpt lat="44.50999" lon="4.57989">
        <ele>185.39999389648</ele>
        <time>2019-08-22T16:14:40Z</time>
      </trkpt>
      <trkpt lat="44.5101" lon="4.57981">
        <ele>186.60000610352</ele>
        <time>2019-08-22T16:14:44Z</time>
      </trkpt>
      <trkpt lat="44.51021" lon="4.57972">
        <ele>187.80000305176</ele>
        <time>2019-08-22T16:14:48Z</time>
      </trkpt>
      <trkpt lat="44.51041" lon="4.57953">
        <ele>189.39999389648</ele>
        <time>2019-08-22T16:14:55Z</time>
      </trkpt>
      <trkpt lat="44.51047" lon="4.57948">
        <ele>189.80000305176</ele>
        <time>2019-08-22T16:14:57Z</time>
      </trkpt>
      <trkpt lat="44.51055" lon="4.5794">
        <ele>190.19999694824</ele>
        <time>2019-08-22T16:15:00Z</time>
      </trkpt>
      <trkpt lat="44.51066" lon="4.57932">
        <ele>191</ele>
        <time>2019-08-22T16:15:04Z</time>
      </trkpt>
      <trkpt lat="44.51075" lon="4.57928">
        <ele>191.39999389648</ele>
        <time>2019-08-22T16:15:07Z</time>
      </trkpt>
      <trkpt lat="44.51092" lon="4.57919">
        <ele>192.80000305176</ele>
        <time>2019-08-22T16:15:13Z</time>
      </trkpt>
      <trkpt lat="44.51096" lon="4.57917">
        <ele>193</ele>
        <time>2019-08-22T16:15:14Z</time>
      </trkpt>
      <trkpt lat="44.51113" lon="4.57906">
        <ele>193.80000305176</ele>
        <time>2019-08-22T16:15:20Z</time>
      </trkpt>
      <trkpt lat="44.51119" lon="4.57901">
        <ele>194.39999389648</ele>
        <time>2019-08-22T16:15:22Z</time>
      </trkpt>
      <trkpt lat="44.51128" lon="4.57895">
        <ele>194.60000610352</ele>
        <time>2019-08-22T16:15:25Z</time>
      </trkpt>
      <trkpt lat="44.51149" lon="4.5788">
        <ele>195.80000305176</ele>
        <time>2019-08-22T16:15:32Z</time>
      </trkpt>
      <trkpt lat="44.51155" lon="4.57876">
        <ele>196.39999389648</ele>
        <time>2019-08-22T16:15:34Z</time>
      </trkpt>
      <trkpt lat="44.51179" lon="4.57857">
        <ele>197.60000610352</ele>
        <time>2019-08-22T16:15:42Z</time>
      </trkpt>
      <trkpt lat="44.51189" lon="4.57849">
        <ele>198.19999694824</ele>
        <time>2019-08-22T16:15:45Z</time>
      </trkpt>
      <trkpt lat="44.51203" lon="4.57838">
        <ele>198.60000610352</ele>
        <time>2019-08-22T16:15:49Z</time>
      </trkpt>
      <trkpt lat="44.51226" lon="4.57818">
        <ele>199.39999389648</ele>
        <time>2019-08-22T16:15:56Z</time>
      </trkpt>
      <trkpt lat="44.51229" lon="4.57814">
        <ele>199.60000610352</ele>
        <time>2019-08-22T16:15:57Z</time>
      </trkpt>
      <trkpt lat="44.51242" lon="4.57797">
        <ele>199.80000305176</ele>
        <time>2019-08-22T16:16:02Z</time>
      </trkpt>
      <trkpt lat="44.51252" lon="4.57783">
        <ele>200.39999389648</ele>
        <time>2019-08-22T16:16:07Z</time>
      </trkpt>
      <trkpt lat="44.51256" lon="4.5778">
        <ele>200.39999389648</ele>
        <time>2019-08-22T16:16:09Z</time>
      </trkpt>
      <trkpt lat="44.51258" lon="4.57778">
        <ele>200.60000610352</ele>
        <time>2019-08-22T16:16:11Z</time>
      </trkpt>
      <trkpt lat="44.51258" lon="4.57778">
        <ele>201.19999694824</ele>
        <time>2019-08-22T16:16:21Z</time>
      </trkpt>
      <trkpt lat="44.51257" lon="4.57778">
        <ele>201.19999694824</ele>
        <time>2019-08-22T16:16:32Z</time>
      </trkpt>
      <trkpt lat="44.51256" lon="4.57778">
        <ele>201.19999694824</ele>
        <time>2019-08-22T16:16:36Z</time>
      </trkpt>
      <trkpt lat="44.51256" lon="4.57779">
        <ele>200.80000305176</ele>
        <time>2019-08-22T16:17:09Z</time>
      </trkpt>
      <trkpt lat="44.51256" lon="4.57779">
        <ele>200.80000305176</ele>
        <time>2019-08-22T16:17:20Z</time>
      </trkpt>
      <trkpt lat="44.51255" lon="4.5778">
        <ele>201</ele>
        <time>2019-08-22T16:17:26Z</time>
      </trkpt>
      <trkpt lat="44.51254" lon="4.5778">
        <ele>201</ele>
        <time>2019-08-22T16:17:27Z</time>
      </trkpt>
      <trkpt lat="44.51251" lon="4.57782">
        <ele>201</ele>
        <time>2019-08-22T16:17:29Z</time>
      </trkpt>
      <trkpt lat="44.51249" lon="4.57782">
        <ele>201</ele>
        <time>2019-08-22T16:17:30Z</time>
      </trkpt>
      <trkpt lat="44.51245" lon="4.57779">
        <ele>201</ele>
        <time>2019-08-22T16:17:32Z</time>
      </trkpt>
      <trkpt lat="44.5124" lon="4.57772">
        <ele>201</ele>
        <time>2019-08-22T16:17:34Z</time>
      </trkpt>
      <trkpt lat="44.51238" lon="4.57768">
        <ele>200.80000305176</ele>
        <time>2019-08-22T16:17:35Z</time>
      </trkpt>
      <trkpt lat="44.51235" lon="4.57764">
        <ele>200.80000305176</ele>
        <time>2019-08-22T16:17:36Z</time>
      </trkpt>
      <trkpt lat="44.51229" lon="4.57754">
        <ele>200.60000610352</ele>
        <time>2019-08-22T16:17:38Z</time>
      </trkpt>
      <trkpt lat="44.51223" lon="4.57745">
        <ele>200.19999694824</ele>
        <time>2019-08-22T16:17:40Z</time>
      </trkpt>
      <trkpt lat="44.5122" lon="4.57743">
        <ele>200.19999694824</ele>
        <time>2019-08-22T16:17:41Z</time>
      </trkpt>
      <trkpt lat="44.51211" lon="4.57733">
        <ele>199.19999694824</ele>
        <time>2019-08-22T16:17:44Z</time>
      </trkpt>
      <trkpt lat="44.5121" lon="4.57729">
        <ele>199</ele>
        <time>2019-08-22T16:17:45Z</time>
      </trkpt>
      <trkpt lat="44.51212" lon="4.57722">
        <ele>198.60000610352</ele>
        <time>2019-08-22T16:17:47Z</time>
      </trkpt>
      <trkpt lat="44.51215" lon="4.57712">
        <ele>198.19999694824</ele>
        <time>2019-08-22T16:17:49Z</time>
      </trkpt>
      <trkpt lat="44.51217" lon="4.57705">
        <ele>197.19999694824</ele>
        <time>2019-08-22T16:17:50Z</time>
      </trkpt>
      <trkpt lat="44.51219" lon="4.57699">
        <ele>196.60000610352</ele>
        <time>2019-08-22T16:17:51Z</time>
      </trkpt>
      <trkpt lat="44.51217" lon="4.57688">
        <ele>195.39999389648</ele>
        <time>2019-08-22T16:17:53Z</time>
      </trkpt>
      <trkpt lat="44.51214" lon="4.57685">
        <ele>194.80000305176</ele>
        <time>2019-08-22T16:17:54Z</time>
      </trkpt>
      <trkpt lat="44.51209" lon="4.57683">
        <ele>194.39999389648</ele>
        <time>2019-08-22T16:17:55Z</time>
      </trkpt>
      <trkpt lat="44.51204" lon="4.57681">
        <ele>193.80000305176</ele>
        <time>2019-08-22T16:17:56Z</time>
      </trkpt>
      <trkpt lat="44.51197" lon="4.57679">
        <ele>192.60000610352</ele>
        <time>2019-08-22T16:17:57Z</time>
      </trkpt>
      <trkpt lat="44.5119" lon="4.57676">
        <ele>192.39999389648</ele>
        <time>2019-08-22T16:17:58Z</time>
      </trkpt>
      <trkpt lat="44.51184" lon="4.57673">
        <ele>192.19999694824</ele>
        <time>2019-08-22T16:17:59Z</time>
      </trkpt>
      <trkpt lat="44.51178" lon="4.57671">
        <ele>191.60000610352</ele>
        <time>2019-08-22T16:18:00Z</time>
      </trkpt>
      <trkpt lat="44.51172" lon="4.5767">
        <ele>190.80000305176</ele>
        <time>2019-08-22T16:18:01Z</time>
      </trkpt>
      <trkpt lat="44.51168" lon="4.57672">
        <ele>190.19999694824</ele>
        <time>2019-08-22T16:18:02Z</time>
      </trkpt>
      <trkpt lat="44.51166" lon="4.57676">
        <ele>189.80000305176</ele>
        <time>2019-08-22T16:18:03Z</time>
      </trkpt>
      <trkpt lat="44.51164" lon="4.57682">
        <ele>189.19999694824</ele>
        <time>2019-08-22T16:18:04Z</time>
      </trkpt>
      <trkpt lat="44.51163" lon="4.57688">
        <ele>188.19999694824</ele>
        <time>2019-08-22T16:18:05Z</time>
      </trkpt>
      <trkpt lat="44.51163" lon="4.57695">
        <ele>187.80000305176</ele>
        <time>2019-08-22T16:18:06Z</time>
      </trkpt>
      <trkpt lat="44.51162" lon="4.57702">
        <ele>186.60000610352</ele>
        <time>2019-08-22T16:18:07Z</time>
      </trkpt>
      <trkpt lat="44.5116" lon="4.57716">
        <ele>185.60000610352</ele>
        <time>2019-08-22T16:18:09Z</time>
      </trkpt>
      <trkpt lat="44.51158" lon="4.5772">
        <ele>185.39999389648</ele>
        <time>2019-08-22T16:18:10Z</time>
      </trkpt>
      <trkpt lat="44.51155" lon="4.57721">
        <ele>185.19999694824</ele>
        <time>2019-08-22T16:18:11Z</time>
      </trkpt>
      <trkpt lat="44.51152" lon="4.5772">
        <ele>185</ele>
        <time>2019-08-22T16:18:12Z</time>
      </trkpt>
      <trkpt lat="44.5115" lon="4.57719">
        <ele>185</ele>
        <time>2019-08-22T16:18:13Z</time>
      </trkpt>
      <trkpt lat="44.51146" lon="4.57716">
        <ele>185.19999694824</ele>
        <time>2019-08-22T16:18:15Z</time>
      </trkpt>
      <trkpt lat="44.51139" lon="4.57713">
        <ele>185</ele>
        <time>2019-08-22T16:18:18Z</time>
      </trkpt>
      <trkpt lat="44.51135" lon="4.5771">
        <ele>185.39999389648</ele>
        <time>2019-08-22T16:18:20Z</time>
      </trkpt>
      <trkpt lat="44.51132" lon="4.57706">
        <ele>185.80000305176</ele>
        <time>2019-08-22T16:18:22Z</time>
      </trkpt>
      <trkpt lat="44.51132" lon="4.577">
        <ele>186.80000305176</ele>
        <time>2019-08-22T16:18:24Z</time>
      </trkpt>
      <trkpt lat="44.51133" lon="4.57698">
        <ele>187.39999389648</ele>
        <time>2019-08-22T16:18:25Z</time>
      </trkpt>
      <trkpt lat="44.51139" lon="4.57691">
        <ele>190</ele>
        <time>2019-08-22T16:18:29Z</time>
      </trkpt>
      <trkpt lat="44.5114" lon="4.57689">
        <ele>190.39999389648</ele>
        <time>2019-08-22T16:18:30Z</time>
      </trkpt>
      <trkpt lat="44.51142" lon="4.57683">
        <ele>191.60000610352</ele>
        <time>2019-08-22T16:18:33Z</time>
      </trkpt>
      <trkpt lat="44.51142" lon="4.57681">
        <ele>191.60000610352</ele>
        <time>2019-08-22T16:18:34Z</time>
      </trkpt>
      <trkpt lat="44.51141" lon="4.57671">
        <ele>192.80000305176</ele>
        <time>2019-08-22T16:18:39Z</time>
      </trkpt>
      <trkpt lat="44.5114" lon="4.57661">
        <ele>194.60000610352</ele>
        <time>2019-08-22T16:18:43Z</time>
      </trkpt>
      <trkpt lat="44.5114" lon="4.57659">
        <ele>194.60000610352</ele>
        <time>2019-08-22T16:18:44Z</time>
      </trkpt>
      <trkpt lat="44.51144" lon="4.57645">
        <ele>196.19999694824</ele>
        <time>2019-08-22T16:18:49Z</time>
      </trkpt>
      <trkpt lat="44.51151" lon="4.57626">
        <ele>198</ele>
        <time>2019-08-22T16:18:56Z</time>
      </trkpt>
      <trkpt lat="44.51159" lon="4.57612">
        <ele>198.60000610352</ele>
        <time>2019-08-22T16:19:02Z</time>
      </trkpt>
      <trkpt lat="44.51161" lon="4.57608">
        <ele>198.80000305176</ele>
        <time>2019-08-22T16:19:04Z</time>
      </trkpt>
      <trkpt lat="44.51165" lon="4.57603">
        <ele>199.19999694824</ele>
        <time>2019-08-22T16:19:07Z</time>
      </trkpt>
      <trkpt lat="44.51172" lon="4.576">
        <ele>200.19999694824</ele>
        <time>2019-08-22T16:19:11Z</time>
      </trkpt>
      <trkpt lat="44.51186" lon="4.57599">
        <ele>201.60000610352</ele>
        <time>2019-08-22T16:19:18Z</time>
      </trkpt>
      <trkpt lat="44.51195" lon="4.57592">
        <ele>202</ele>
        <time>2019-08-22T16:19:24Z</time>
      </trkpt>
      <trkpt lat="44.51205" lon="4.57584">
        <ele>202</ele>
        <time>2019-08-22T16:19:30Z</time>
      </trkpt>
      <trkpt lat="44.5121" lon="4.57578">
        <ele>202.60000610352</ele>
        <time>2019-08-22T16:19:33Z</time>
      </trkpt>
      <trkpt lat="44.51212" lon="4.57574">
        <ele>203</ele>
        <time>2019-08-22T16:19:35Z</time>
      </trkpt>
      <trkpt lat="44.51213" lon="4.57572">
        <ele>203</ele>
        <time>2019-08-22T16:19:36Z</time>
      </trkpt>
      <trkpt lat="44.51219" lon="4.57554">
        <ele>205</ele>
        <time>2019-08-22T16:19:43Z</time>
      </trkpt>
      <trkpt lat="44.51219" lon="4.5754">
        <ele>206.19999694824</ele>
        <time>2019-08-22T16:19:48Z</time>
      </trkpt>
      <trkpt lat="44.51218" lon="4.57535">
        <ele>206.39999389648</ele>
        <time>2019-08-22T16:19:50Z</time>
      </trkpt>
      <trkpt lat="44.51208" lon="4.57517">
        <ele>207.19999694824</ele>
        <time>2019-08-22T16:19:58Z</time>
      </trkpt>
      <trkpt lat="44.51195" lon="4.57493">
        <ele>207.19999694824</ele>
        <time>2019-08-22T16:20:07Z</time>
      </trkpt>
      <trkpt lat="44.51194" lon="4.57474">
        <ele>207</ele>
        <time>2019-08-22T16:20:12Z</time>
      </trkpt>
      <trkpt lat="44.51201" lon="4.57436">
        <ele>207</ele>
        <time>2019-08-22T16:20:21Z</time>
      </trkpt>
      <trkpt lat="44.51212" lon="4.57422">
        <ele>207.19999694824</ele>
        <time>2019-08-22T16:20:26Z</time>
      </trkpt>
      <trkpt lat="44.51219" lon="4.57403">
        <ele>207.39999389648</ele>
        <time>2019-08-22T16:20:31Z</time>
      </trkpt>
      <trkpt lat="44.51222" lon="4.57392">
        <ele>207.60000610352</ele>
        <time>2019-08-22T16:20:34Z</time>
      </trkpt>
      <trkpt lat="44.51227" lon="4.57384">
        <ele>207.80000305176</ele>
        <time>2019-08-22T16:20:37Z</time>
      </trkpt>
      <trkpt lat="44.51234" lon="4.57366">
        <ele>208.60000610352</ele>
        <time>2019-08-22T16:20:43Z</time>
      </trkpt>
      <trkpt lat="44.51234" lon="4.57362">
        <ele>208.60000610352</ele>
        <time>2019-08-22T16:20:44Z</time>
      </trkpt>
      <trkpt lat="44.51233" lon="4.57349">
        <ele>209.60000610352</ele>
        <time>2019-08-22T16:20:48Z</time>
      </trkpt>
      <trkpt lat="44.51234" lon="4.57343">
        <ele>210</ele>
        <time>2019-08-22T16:20:50Z</time>
      </trkpt>
      <trkpt lat="44.51236" lon="4.57337">
        <ele>210.19999694824</ele>
        <time>2019-08-22T16:20:52Z</time>
      </trkpt>
      <trkpt lat="44.51242" lon="4.57323">
        <ele>212</ele>
        <time>2019-08-22T16:20:57Z</time>
      </trkpt>
      <trkpt lat="44.51254" lon="4.57308">
        <ele>213.19999694824</ele>
        <time>2019-08-22T16:21:04Z</time>
      </trkpt>
      <trkpt lat="44.51271" lon="4.57294">
        <ele>214.80000305176</ele>
        <time>2019-08-22T16:21:11Z</time>
      </trkpt>
      <trkpt lat="44.51273" lon="4.57292">
        <ele>214.60000610352</ele>
        <time>2019-08-22T16:21:12Z</time>
      </trkpt>
      <trkpt lat="44.51281" lon="4.57283">
        <ele>215</ele>
        <time>2019-08-22T16:21:16Z</time>
      </trkpt>
      <trkpt lat="44.51288" lon="4.57278">
        <ele>215.19999694824</ele>
        <time>2019-08-22T16:21:19Z</time>
      </trkpt>
      <trkpt lat="44.513" lon="4.57267">
        <ele>216.60000610352</ele>
        <time>2019-08-22T16:21:25Z</time>
      </trkpt>
      <trkpt lat="44.51301" lon="4.57264">
        <ele>217</ele>
        <time>2019-08-22T16:21:26Z</time>
      </trkpt>
      <trkpt lat="44.51304" lon="4.57246">
        <ele>217.60000610352</ele>
        <time>2019-08-22T16:21:31Z</time>
      </trkpt>
      <trkpt lat="44.51307" lon="4.5722">
        <ele>218.60000610352</ele>
        <time>2019-08-22T16:21:38Z</time>
      </trkpt>
      <trkpt lat="44.51307" lon="4.57217">
        <ele>218.80000305176</ele>
        <time>2019-08-22T16:21:39Z</time>
      </trkpt>
      <trkpt lat="44.5131" lon="4.5719">
        <ele>219.39999389648</ele>
        <time>2019-08-22T16:21:46Z</time>
      </trkpt>
      <trkpt lat="44.51311" lon="4.57186">
        <ele>219.39999389648</ele>
        <time>2019-08-22T16:21:47Z</time>
      </trkpt>
      <trkpt lat="44.51312" lon="4.57164">
        <ele>220.39999389648</ele>
        <time>2019-08-22T16:21:53Z</time>
      </trkpt>
      <trkpt lat="44.51317" lon="4.57128">
        <ele>221.39999389648</ele>
        <time>2019-08-22T16:22:01Z</time>
      </trkpt>
      <trkpt lat="44.51323" lon="4.57097">
        <ele>221.60000610352</ele>
        <time>2019-08-22T16:22:08Z</time>
      </trkpt>
      <trkpt lat="44.51324" lon="4.57093">
        <ele>221.80000305176</ele>
        <time>2019-08-22T16:22:09Z</time>
      </trkpt>
      <trkpt lat="44.5133" lon="4.57068">
        <ele>222.39999389648</ele>
        <time>2019-08-22T16:22:15Z</time>
      </trkpt>
      <trkpt lat="44.51332" lon="4.57057">
        <ele>222.80000305176</ele>
        <time>2019-08-22T16:22:18Z</time>
      </trkpt>
      <trkpt lat="44.51337" lon="4.57032">
        <ele>224</ele>
        <time>2019-08-22T16:22:24Z</time>
      </trkpt>
      <trkpt lat="44.51339" lon="4.57019">
        <ele>224.39999389648</ele>
        <time>2019-08-22T16:22:27Z</time>
      </trkpt>
      <trkpt lat="44.51347" lon="4.56977">
        <ele>225.39999389648</ele>
        <time>2019-08-22T16:22:36Z</time>
      </trkpt>
      <trkpt lat="44.51348" lon="4.56972">
        <ele>225.60000610352</ele>
        <time>2019-08-22T16:22:37Z</time>
      </trkpt>
      <trkpt lat="44.51356" lon="4.5694">
        <ele>226.39999389648</ele>
        <time>2019-08-22T16:22:44Z</time>
      </trkpt>
      <trkpt lat="44.5136" lon="4.56923">
        <ele>227</ele>
        <time>2019-08-22T16:22:48Z</time>
      </trkpt>
      <trkpt lat="44.51365" lon="4.56905">
        <ele>227.60000610352</ele>
        <time>2019-08-22T16:22:52Z</time>
      </trkpt>
      <trkpt lat="44.51372" lon="4.56876">
        <ele>228</ele>
        <time>2019-08-22T16:22:59Z</time>
      </trkpt>
      <trkpt lat="44.51372" lon="4.56872">
        <ele>228.19999694824</ele>
        <time>2019-08-22T16:23:00Z</time>
      </trkpt>
      <trkpt lat="44.51371" lon="4.56869">
        <ele>228.39999389648</ele>
        <time>2019-08-22T16:23:01Z</time>
      </trkpt>
      <trkpt lat="44.51364" lon="4.5686">
        <ele>228.60000610352</ele>
        <time>2019-08-22T16:23:04Z</time>
      </trkpt>
      <trkpt lat="44.51363" lon="4.56857">
        <ele>228.80000305176</ele>
        <time>2019-08-22T16:23:05Z</time>
      </trkpt>
      <trkpt lat="44.51358" lon="4.56847">
        <ele>230</ele>
        <time>2019-08-22T16:23:08Z</time>
      </trkpt>
      <trkpt lat="44.51358" lon="4.56843">
        <ele>230</ele>
        <time>2019-08-22T16:23:09Z</time>
      </trkpt>
      <trkpt lat="44.5136" lon="4.5682">
        <ele>231.19999694824</ele>
        <time>2019-08-22T16:23:14Z</time>
      </trkpt>
      <trkpt lat="44.51361" lon="4.56802">
        <ele>232.19999694824</ele>
        <time>2019-08-22T16:23:18Z</time>
      </trkpt>
      <trkpt lat="44.5136" lon="4.56783">
        <ele>232.60000610352</ele>
        <time>2019-08-22T16:23:22Z</time>
      </trkpt>
      <trkpt lat="44.51356" lon="4.56766">
        <ele>233</ele>
        <time>2019-08-22T16:23:26Z</time>
      </trkpt>
      <trkpt lat="44.51351" lon="4.56753">
        <ele>233.19999694824</ele>
        <time>2019-08-22T16:23:29Z</time>
      </trkpt>
      <trkpt lat="44.51346" lon="4.56742">
        <ele>233.60000610352</ele>
        <time>2019-08-22T16:23:32Z</time>
      </trkpt>
      <trkpt lat="44.51336" lon="4.56719">
        <ele>234.80000305176</ele>
        <time>2019-08-22T16:23:38Z</time>
      </trkpt>
      <trkpt lat="44.51324" lon="4.56698">
        <ele>237.80000305176</ele>
        <time>2019-08-22T16:23:45Z</time>
      </trkpt>
      <trkpt lat="44.51306" lon="4.5669">
        <ele>238.80000305176</ele>
        <time>2019-08-22T16:23:51Z</time>
      </trkpt>
      <trkpt lat="44.51302" lon="4.56687">
        <ele>238.60000610352</ele>
        <time>2019-08-22T16:23:52Z</time>
      </trkpt>
      <trkpt lat="44.51298" lon="4.56682">
        <ele>238.80000305176</ele>
        <time>2019-08-22T16:23:53Z</time>
      </trkpt>
      <trkpt lat="44.51295" lon="4.56675">
        <ele>238.80000305176</ele>
        <time>2019-08-22T16:23:54Z</time>
      </trkpt>
      <trkpt lat="44.51293" lon="4.56667">
        <ele>238.80000305176</ele>
        <time>2019-08-22T16:23:55Z</time>
      </trkpt>
      <trkpt lat="44.51293" lon="4.56659">
        <ele>238.80000305176</ele>
        <time>2019-08-22T16:23:56Z</time>
      </trkpt>
      <trkpt lat="44.51294" lon="4.5665">
        <ele>238.60000610352</ele>
        <time>2019-08-22T16:23:57Z</time>
      </trkpt>
      <trkpt lat="44.51295" lon="4.56643">
        <ele>238.60000610352</ele>
        <time>2019-08-22T16:23:58Z</time>
      </trkpt>
      <trkpt lat="44.51301" lon="4.56622">
        <ele>238.19999694824</ele>
        <time>2019-08-22T16:24:01Z</time>
      </trkpt>
      <trkpt lat="44.51306" lon="4.56606">
        <ele>237</ele>
        <time>2019-08-22T16:24:04Z</time>
      </trkpt>
      <trkpt lat="44.51306" lon="4.56594">
        <ele>236.80000305176</ele>
        <time>2019-08-22T16:24:06Z</time>
      </trkpt>
      <trkpt lat="44.51303" lon="4.56589">
        <ele>236.39999389648</ele>
        <time>2019-08-22T16:24:07Z</time>
      </trkpt>
      <trkpt lat="44.51299" lon="4.56585">
        <ele>236.19999694824</ele>
        <time>2019-08-22T16:24:08Z</time>
      </trkpt>
      <trkpt lat="44.51285" lon="4.56581">
        <ele>236</ele>
        <time>2019-08-22T16:24:11Z</time>
      </trkpt>
      <trkpt lat="44.51277" lon="4.56579">
        <ele>236.19999694824</ele>
        <time>2019-08-22T16:24:13Z</time>
      </trkpt>
      <trkpt lat="44.51265" lon="4.56576">
        <ele>236.19999694824</ele>
        <time>2019-08-22T16:24:16Z</time>
      </trkpt>
      <trkpt lat="44.5125" lon="4.56571">
        <ele>236.39999389648</ele>
        <time>2019-08-22T16:24:20Z</time>
      </trkpt>
      <trkpt lat="44.51242" lon="4.56571">
        <ele>236.39999389648</ele>
        <time>2019-08-22T16:24:22Z</time>
      </trkpt>
      <trkpt lat="44.51226" lon="4.56573">
        <ele>237.39999389648</ele>
        <time>2019-08-22T16:24:27Z</time>
      </trkpt>
      <trkpt lat="44.51202" lon="4.56578">
        <ele>239</ele>
        <time>2019-08-22T16:24:35Z</time>
      </trkpt>
      <trkpt lat="44.51196" lon="4.56579">
        <ele>239.60000610352</ele>
        <time>2019-08-22T16:24:37Z</time>
      </trkpt>
      <trkpt lat="44.51172" lon="4.56581">
        <ele>240.80000305176</ele>
        <time>2019-08-22T16:24:46Z</time>
      </trkpt>
      <trkpt lat="44.51166" lon="4.56578">
        <ele>240.80000305176</ele>
        <time>2019-08-22T16:24:48Z</time>
      </trkpt>
      <trkpt lat="44.51165" lon="4.56575">
        <ele>240.80000305176</ele>
        <time>2019-08-22T16:24:49Z</time>
      </trkpt>
      <trkpt lat="44.51164" lon="4.56572">
        <ele>241</ele>
        <time>2019-08-22T16:24:50Z</time>
      </trkpt>
      <trkpt lat="44.51166" lon="4.56561">
        <ele>241</ele>
        <time>2019-08-22T16:24:53Z</time>
      </trkpt>
      <trkpt lat="44.5117" lon="4.5655">
        <ele>241</ele>
        <time>2019-08-22T16:24:56Z</time>
      </trkpt>
      <trkpt lat="44.51173" lon="4.56539">
        <ele>241.60000610352</ele>
        <time>2019-08-22T16:24:59Z</time>
      </trkpt>
      <trkpt lat="44.51175" lon="4.56533">
        <ele>242</ele>
        <time>2019-08-22T16:25:01Z</time>
      </trkpt>
      <trkpt lat="44.51176" lon="4.56529">
        <ele>242.19999694824</ele>
        <time>2019-08-22T16:25:02Z</time>
      </trkpt>
      <trkpt lat="44.5118" lon="4.56516">
        <ele>243.80000305176</ele>
        <time>2019-08-22T16:25:06Z</time>
      </trkpt>
      <trkpt lat="44.51183" lon="4.56503">
        <ele>245.39999389648</ele>
        <time>2019-08-22T16:25:10Z</time>
      </trkpt>
      <trkpt lat="44.51185" lon="4.56486">
        <ele>246.60000610352</ele>
        <time>2019-08-22T16:25:15Z</time>
      </trkpt>
      <trkpt lat="44.51186" lon="4.56479">
        <ele>247.39999389648</ele>
        <time>2019-08-22T16:25:17Z</time>
      </trkpt>
      <trkpt lat="44.51187" lon="4.56469">
        <ele>248</ele>
        <time>2019-08-22T16:25:20Z</time>
      </trkpt>
      <trkpt lat="44.51188" lon="4.56451">
        <ele>249.19999694824</ele>
        <time>2019-08-22T16:25:25Z</time>
      </trkpt>
      <trkpt lat="44.51189" lon="4.56445">
        <ele>250</ele>
        <time>2019-08-22T16:25:27Z</time>
      </trkpt>
      <trkpt lat="44.51193" lon="4.56424">
        <ele>250.80000305176</ele>
        <time>2019-08-22T16:25:33Z</time>
      </trkpt>
      <trkpt lat="44.51195" lon="4.56417">
        <ele>251.39999389648</ele>
        <time>2019-08-22T16:25:35Z</time>
      </trkpt>
      <trkpt lat="44.51206" lon="4.56383">
        <ele>252.60000610352</ele>
        <time>2019-08-22T16:25:44Z</time>
      </trkpt>
      <trkpt lat="44.51215" lon="4.56356">
        <ele>253</ele>
        <time>2019-08-22T16:25:51Z</time>
      </trkpt>
      <trkpt lat="44.51222" lon="4.56334">
        <ele>253.39999389648</ele>
        <time>2019-08-22T16:25:57Z</time>
      </trkpt>
      <trkpt lat="44.51229" lon="4.56307">
        <ele>253.80000305176</ele>
        <time>2019-08-22T16:26:04Z</time>
      </trkpt>
      <trkpt lat="44.5123" lon="4.56303">
        <ele>254</ele>
        <time>2019-08-22T16:26:05Z</time>
      </trkpt>
      <trkpt lat="44.51232" lon="4.56296">
        <ele>254.19999694824</ele>
        <time>2019-08-22T16:26:07Z</time>
      </trkpt>
      <trkpt lat="44.51238" lon="4.56282">
        <ele>254.60000610352</ele>
        <time>2019-08-22T16:26:11Z</time>
      </trkpt>
      <trkpt lat="44.51242" lon="4.56276">
        <ele>255.19999694824</ele>
        <time>2019-08-22T16:26:13Z</time>
      </trkpt>
      <trkpt lat="44.5125" lon="4.56263">
        <ele>256</ele>
        <time>2019-08-22T16:26:17Z</time>
      </trkpt>
      <trkpt lat="44.51259" lon="4.56248">
        <ele>256.79998779297</ele>
        <time>2019-08-22T16:26:22Z</time>
      </trkpt>
      <trkpt lat="44.51261" lon="4.56245">
        <ele>257.20001220703</ele>
        <time>2019-08-22T16:26:23Z</time>
      </trkpt>
      <trkpt lat="44.51263" lon="4.56242">
        <ele>257.39999389648</ele>
        <time>2019-08-22T16:26:24Z</time>
      </trkpt>
      <trkpt lat="44.51279" lon="4.56225">
        <ele>258.60000610352</ele>
        <time>2019-08-22T16:26:31Z</time>
      </trkpt>
      <trkpt lat="44.51282" lon="4.56223">
        <ele>259</ele>
        <time>2019-08-22T16:26:32Z</time>
      </trkpt>
      <trkpt lat="44.51286" lon="4.56219">
        <ele>259.60000610352</ele>
        <time>2019-08-22T16:26:34Z</time>
      </trkpt>
      <trkpt lat="44.51292" lon="4.56211">
        <ele>259.79998779297</ele>
        <time>2019-08-22T16:26:37Z</time>
      </trkpt>
      <trkpt lat="44.51297" lon="4.56198">
        <ele>260.60000610352</ele>
        <time>2019-08-22T16:26:41Z</time>
      </trkpt>
      <trkpt lat="44.51299" lon="4.56195">
        <ele>261</ele>
        <time>2019-08-22T16:26:42Z</time>
      </trkpt>
      <trkpt lat="44.51301" lon="4.56186">
        <ele>262</ele>
        <time>2019-08-22T16:26:45Z</time>
      </trkpt>
      <trkpt lat="44.51304" lon="4.56177">
        <ele>262.60000610352</ele>
        <time>2019-08-22T16:26:48Z</time>
      </trkpt>
      <trkpt lat="44.51305" lon="4.5617">
        <ele>262.79998779297</ele>
        <time>2019-08-22T16:26:50Z</time>
      </trkpt>
      <trkpt lat="44.5131" lon="4.56149">
        <ele>264.39999389648</ele>
        <time>2019-08-22T16:26:56Z</time>
      </trkpt>
      <trkpt lat="44.51312" lon="4.56141">
        <ele>264.79998779297</ele>
        <time>2019-08-22T16:26:58Z</time>
      </trkpt>
      <trkpt lat="44.51316" lon="4.56132">
        <ele>265.60000610352</ele>
        <time>2019-08-22T16:27:01Z</time>
      </trkpt>
      <trkpt lat="44.51317" lon="4.56129">
        <ele>265.79998779297</ele>
        <time>2019-08-22T16:27:02Z</time>
      </trkpt>
      <trkpt lat="44.51321" lon="4.5612">
        <ele>266</ele>
        <time>2019-08-22T16:27:05Z</time>
      </trkpt>
      <trkpt lat="44.51325" lon="4.56115">
        <ele>266.60000610352</ele>
        <time>2019-08-22T16:27:07Z</time>
      </trkpt>
      <trkpt lat="44.51333" lon="4.56108">
        <ele>267.60000610352</ele>
        <time>2019-08-22T16:27:11Z</time>
      </trkpt>
      <trkpt lat="44.51335" lon="4.56107">
        <ele>268.20001220703</ele>
        <time>2019-08-22T16:27:12Z</time>
      </trkpt>
      <trkpt lat="44.51342" lon="4.56099">
        <ele>269.79998779297</ele>
        <time>2019-08-22T16:27:16Z</time>
      </trkpt>
      <trkpt lat="44.51347" lon="4.56092">
        <ele>270.39999389648</ele>
        <time>2019-08-22T16:27:19Z</time>
      </trkpt>
      <trkpt lat="44.5135" lon="4.56085">
        <ele>271.39999389648</ele>
        <time>2019-08-22T16:27:22Z</time>
      </trkpt>
      <trkpt lat="44.51355" lon="4.56078">
        <ele>272.20001220703</ele>
        <time>2019-08-22T16:27:25Z</time>
      </trkpt>
      <trkpt lat="44.5136" lon="4.5607">
        <ele>272.79998779297</ele>
        <time>2019-08-22T16:27:28Z</time>
      </trkpt>
      <trkpt lat="44.51362" lon="4.56065">
        <ele>273.20001220703</ele>
        <time>2019-08-22T16:27:30Z</time>
      </trkpt>
      <trkpt lat="44.51365" lon="4.56057">
        <ele>274</ele>
        <time>2019-08-22T16:27:33Z</time>
      </trkpt>
      <trkpt lat="44.51367" lon="4.56051">
        <ele>274.39999389648</ele>
        <time>2019-08-22T16:27:35Z</time>
      </trkpt>
      <trkpt lat="44.51368" lon="4.56049">
        <ele>274.60000610352</ele>
        <time>2019-08-22T16:27:36Z</time>
      </trkpt>
      <trkpt lat="44.5137" lon="4.56041">
        <ele>275.60000610352</ele>
        <time>2019-08-22T16:27:39Z</time>
      </trkpt>
      <trkpt lat="44.51373" lon="4.56033">
        <ele>276.20001220703</ele>
        <time>2019-08-22T16:27:42Z</time>
      </trkpt>
      <trkpt lat="44.51374" lon="4.56031">
        <ele>276.60000610352</ele>
        <time>2019-08-22T16:27:43Z</time>
      </trkpt>
      <trkpt lat="44.51377" lon="4.5602">
        <ele>278</ele>
        <time>2019-08-22T16:27:48Z</time>
      </trkpt>
      <trkpt lat="44.51378" lon="4.56017">
        <ele>278.20001220703</ele>
        <time>2019-08-22T16:27:49Z</time>
      </trkpt>
      <trkpt lat="44.51379" lon="4.56007">
        <ele>279.20001220703</ele>
        <time>2019-08-22T16:27:52Z</time>
      </trkpt>
      <trkpt lat="44.51382" lon="4.55995">
        <ele>280.39999389648</ele>
        <time>2019-08-22T16:27:56Z</time>
      </trkpt>
      <trkpt lat="44.51382" lon="4.55993">
        <ele>280.60000610352</ele>
        <time>2019-08-22T16:27:57Z</time>
      </trkpt>
      <trkpt lat="44.51383" lon="4.55986">
        <ele>281.39999389648</ele>
        <time>2019-08-22T16:28:00Z</time>
      </trkpt>
      <trkpt lat="44.51384" lon="4.55979">
        <ele>282.39999389648</ele>
        <time>2019-08-22T16:28:03Z</time>
      </trkpt>
      <trkpt lat="44.51385" lon="4.55975">
        <ele>282.60000610352</ele>
        <time>2019-08-22T16:28:04Z</time>
      </trkpt>
      <trkpt lat="44.51388" lon="4.55968">
        <ele>283.79998779297</ele>
        <time>2019-08-22T16:28:08Z</time>
      </trkpt>
      <trkpt lat="44.51389" lon="4.55967">
        <ele>284</ele>
        <time>2019-08-22T16:28:09Z</time>
      </trkpt>
      <trkpt lat="44.51392" lon="4.55965">
        <ele>284.79998779297</ele>
        <time>2019-08-22T16:28:11Z</time>
      </trkpt>
      <trkpt lat="44.51396" lon="4.55963">
        <ele>286.20001220703</ele>
        <time>2019-08-22T16:28:15Z</time>
      </trkpt>
      <trkpt lat="44.51402" lon="4.5596">
        <ele>288</ele>
        <time>2019-08-22T16:28:24Z</time>
      </trkpt>
      <trkpt lat="44.51403" lon="4.55961">
        <ele>288.20001220703</ele>
        <time>2019-08-22T16:28:25Z</time>
      </trkpt>
      <trkpt lat="44.51406" lon="4.55964">
        <ele>288.20001220703</ele>
        <time>2019-08-22T16:28:27Z</time>
      </trkpt>
      <trkpt lat="44.51409" lon="4.55965">
        <ele>288.20001220703</ele>
        <time>2019-08-22T16:28:29Z</time>
      </trkpt>
      <trkpt lat="44.51411" lon="4.55965">
        <ele>288.20001220703</ele>
        <time>2019-08-22T16:28:30Z</time>
      </trkpt>
      <trkpt lat="44.51415" lon="4.5596">
        <ele>288.20001220703</ele>
        <time>2019-08-22T16:28:33Z</time>
      </trkpt>
      <trkpt lat="44.51416" lon="4.55958">
        <ele>288.39999389648</ele>
        <time>2019-08-22T16:28:34Z</time>
      </trkpt>
      <trkpt lat="44.51418" lon="4.55954">
        <ele>288.60000610352</ele>
        <time>2019-08-22T16:28:36Z</time>
      </trkpt>
      <trkpt lat="44.51421" lon="4.55951">
        <ele>288.60000610352</ele>
        <time>2019-08-22T16:28:38Z</time>
      </trkpt>
      <trkpt lat="44.51423" lon="4.55948">
        <ele>288.60000610352</ele>
        <time>2019-08-22T16:28:40Z</time>
      </trkpt>
      <trkpt lat="44.51426" lon="4.55944">
        <ele>289.60000610352</ele>
        <time>2019-08-22T16:28:42Z</time>
      </trkpt>
      <trkpt lat="44.51428" lon="4.55942">
        <ele>290.60000610352</ele>
        <time>2019-08-22T16:28:44Z</time>
      </trkpt>
      <trkpt lat="44.51433" lon="4.55936">
        <ele>292.79998779297</ele>
        <time>2019-08-22T16:28:48Z</time>
      </trkpt>
      <trkpt lat="44.51437" lon="4.55931">
        <ele>294.20001220703</ele>
        <time>2019-08-22T16:28:53Z</time>
      </trkpt>
      <trkpt lat="44.5144" lon="4.55927">
        <ele>295.39999389648</ele>
        <time>2019-08-22T16:28:56Z</time>
      </trkpt>
      <trkpt lat="44.51445" lon="4.55922">
        <ele>297.20001220703</ele>
        <time>2019-08-22T16:29:00Z</time>
      </trkpt>
      <trkpt lat="44.51447" lon="4.55918">
        <ele>298</ele>
        <time>2019-08-22T16:29:03Z</time>
      </trkpt>
      <trkpt lat="44.51448" lon="4.55917">
        <ele>298.39999389648</ele>
        <time>2019-08-22T16:29:04Z</time>
      </trkpt>
      <trkpt lat="44.51449" lon="4.55915">
        <ele>298.79998779297</ele>
        <time>2019-08-22T16:29:05Z</time>
      </trkpt>
      <trkpt lat="44.51452" lon="4.5591">
        <ele>299.60000610352</ele>
        <time>2019-08-22T16:29:08Z</time>
      </trkpt>
      <trkpt lat="44.51455" lon="4.55906">
        <ele>300.79998779297</ele>
        <time>2019-08-22T16:29:11Z</time>
      </trkpt>
      <trkpt lat="44.51457" lon="4.55904">
        <ele>301.20001220703</ele>
        <time>2019-08-22T16:29:13Z</time>
      </trkpt>
      <trkpt lat="44.51459" lon="4.55901">
        <ele>302</ele>
        <time>2019-08-22T16:29:15Z</time>
      </trkpt>
      <trkpt lat="44.51462" lon="4.55896">
        <ele>302.79998779297</ele>
        <time>2019-08-22T16:29:18Z</time>
      </trkpt>
      <trkpt lat="44.51466" lon="4.55891">
        <ele>304.39999389648</ele>
        <time>2019-08-22T16:29:23Z</time>
      </trkpt>
      <trkpt lat="44.51466" lon="4.55889">
        <ele>306.79998779297</ele>
        <time>2019-08-22T16:29:34Z</time>
      </trkpt>
      <trkpt lat="44.51467" lon="4.55887">
        <ele>306.79998779297</ele>
        <time>2019-08-22T16:29:43Z</time>
      </trkpt>
      <trkpt lat="44.51468" lon="4.55887">
        <ele>307</ele>
        <time>2019-08-22T16:29:44Z</time>
      </trkpt>
      <trkpt lat="44.51471" lon="4.55883">
        <ele>307</ele>
        <time>2019-08-22T16:29:52Z</time>
      </trkpt>
      <trkpt lat="44.51472" lon="4.55882">
        <ele>307.20001220703</ele>
        <time>2019-08-22T16:29:53Z</time>
      </trkpt>
      <trkpt lat="44.51475" lon="4.5588">
        <ele>307.20001220703</ele>
        <time>2019-08-22T16:29:55Z</time>
      </trkpt>
      <trkpt lat="44.51477" lon="4.55879">
        <ele>307.39999389648</ele>
        <time>2019-08-22T16:29:57Z</time>
      </trkpt>
      <trkpt lat="44.51478" lon="4.55881">
        <ele>307.39999389648</ele>
        <time>2019-08-22T16:29:58Z</time>
      </trkpt>
      <trkpt lat="44.51479" lon="4.55883">
        <ele>307.60000610352</ele>
        <time>2019-08-22T16:29:59Z</time>
      </trkpt>
      <trkpt lat="44.5148" lon="4.55885">
        <ele>307.79998779297</ele>
        <time>2019-08-22T16:30:00Z</time>
      </trkpt>
      <trkpt lat="44.5148" lon="4.5589">
        <ele>308.39999389648</ele>
        <time>2019-08-22T16:30:02Z</time>
      </trkpt>
      <trkpt lat="44.51479" lon="4.55899">
        <ele>309.60000610352</ele>
        <time>2019-08-22T16:30:06Z</time>
      </trkpt>
      <trkpt lat="44.51478" lon="4.55905">
        <ele>310.60000610352</ele>
        <time>2019-08-22T16:30:09Z</time>
      </trkpt>
      <trkpt lat="44.51477" lon="4.55913">
        <ele>311.20001220703</ele>
        <time>2019-08-22T16:30:12Z</time>
      </trkpt>
      <trkpt lat="44.51476" lon="4.55921">
        <ele>311.60000610352</ele>
        <time>2019-08-22T16:30:15Z</time>
      </trkpt>
      <trkpt lat="44.51477" lon="4.55937">
        <ele>312.60000610352</ele>
        <time>2019-08-22T16:30:20Z</time>
      </trkpt>
      <trkpt lat="44.51477" lon="4.5594">
        <ele>313</ele>
        <time>2019-08-22T16:30:21Z</time>
      </trkpt>
      <trkpt lat="44.51479" lon="4.55954">
        <ele>313.60000610352</ele>
        <time>2019-08-22T16:30:26Z</time>
      </trkpt>
      <trkpt lat="44.51482" lon="4.55962">
        <ele>314</ele>
        <time>2019-08-22T16:30:29Z</time>
      </trkpt>
      <trkpt lat="44.51486" lon="4.55981">
        <ele>315.79998779297</ele>
        <time>2019-08-22T16:30:36Z</time>
      </trkpt>
      <trkpt lat="44.51487" lon="4.55997">
        <ele>317</ele>
        <time>2019-08-22T16:30:42Z</time>
      </trkpt>
      <trkpt lat="44.51487" lon="4.55999">
        <ele>317.20001220703</ele>
        <time>2019-08-22T16:30:43Z</time>
      </trkpt>
      <trkpt lat="44.51486" lon="4.56015">
        <ele>318</ele>
        <time>2019-08-22T16:30:48Z</time>
      </trkpt>
      <trkpt lat="44.51485" lon="4.56031">
        <ele>318.20001220703</ele>
        <time>2019-08-22T16:30:52Z</time>
      </trkpt>
      <trkpt lat="44.51485" lon="4.56041">
        <ele>318.39999389648</ele>
        <time>2019-08-22T16:30:54Z</time>
      </trkpt>
      <trkpt lat="44.51486" lon="4.56067">
        <ele>318</ele>
        <time>2019-08-22T16:30:59Z</time>
      </trkpt>
      <trkpt lat="44.51486" lon="4.56073">
        <ele>318</ele>
        <time>2019-08-22T16:31:00Z</time>
      </trkpt>
      <trkpt lat="44.51484" lon="4.56099">
        <ele>317.20001220703</ele>
        <time>2019-08-22T16:31:06Z</time>
      </trkpt>
      <trkpt lat="44.51485" lon="4.56119">
        <ele>316.79998779297</ele>
        <time>2019-08-22T16:31:12Z</time>
      </trkpt>
      <trkpt lat="44.51487" lon="4.5612">
        <ele>316.60000610352</ele>
        <time>2019-08-22T16:31:13Z</time>
      </trkpt>
      <trkpt lat="44.5149" lon="4.56122">
        <ele>316.60000610352</ele>
        <time>2019-08-22T16:31:15Z</time>
      </trkpt>
      <trkpt lat="44.51492" lon="4.5612">
        <ele>316.79998779297</ele>
        <time>2019-08-22T16:31:17Z</time>
      </trkpt>
      <trkpt lat="44.51495" lon="4.56118">
        <ele>316.60000610352</ele>
        <time>2019-08-22T16:31:19Z</time>
      </trkpt>
      <trkpt lat="44.51499" lon="4.56119">
        <ele>317</ele>
        <time>2019-08-22T16:31:22Z</time>
      </trkpt>
      <trkpt lat="44.51501" lon="4.5612">
        <ele>317.20001220703</ele>
        <time>2019-08-22T16:31:23Z</time>
      </trkpt>
      <trkpt lat="44.5151" lon="4.56123">
        <ele>319</ele>
        <time>2019-08-22T16:31:29Z</time>
      </trkpt>
      <trkpt lat="44.51514" lon="4.56123">
        <ele>319.79998779297</ele>
        <time>2019-08-22T16:31:31Z</time>
      </trkpt>
      <trkpt lat="44.5152" lon="4.56123">
        <ele>320.20001220703</ele>
        <time>2019-08-22T16:31:34Z</time>
      </trkpt>
      <trkpt lat="44.51528" lon="4.56122">
        <ele>321.20001220703</ele>
        <time>2019-08-22T16:31:38Z</time>
      </trkpt>
      <trkpt lat="44.51537" lon="4.56122">
        <ele>322.39999389648</ele>
        <time>2019-08-22T16:31:43Z</time>
      </trkpt>
      <trkpt lat="44.5154" lon="4.56122">
        <ele>322.79998779297</ele>
        <time>2019-08-22T16:31:45Z</time>
      </trkpt>
      <trkpt lat="44.51551" lon="4.56122">
        <ele>325.20001220703</ele>
        <time>2019-08-22T16:31:52Z</time>
      </trkpt>
      <trkpt lat="44.51552" lon="4.56122">
        <ele>325.39999389648</ele>
        <time>2019-08-22T16:31:53Z</time>
      </trkpt>
      <trkpt lat="44.51556" lon="4.56122">
        <ele>325.60000610352</ele>
        <time>2019-08-22T16:31:55Z</time>
      </trkpt>
      <trkpt lat="44.51562" lon="4.56121">
        <ele>325.79998779297</ele>
        <time>2019-08-22T16:31:59Z</time>
      </trkpt>
      <trkpt lat="44.5157" lon="4.56119">
        <ele>327.20001220703</ele>
        <time>2019-08-22T16:32:05Z</time>
      </trkpt>
      <trkpt lat="44.51577" lon="4.56116">
        <ele>327.60000610352</ele>
        <time>2019-08-22T16:32:09Z</time>
      </trkpt>
      <trkpt lat="44.51582" lon="4.56114">
        <ele>328.20001220703</ele>
        <time>2019-08-22T16:32:12Z</time>
      </trkpt>
      <trkpt lat="44.51592" lon="4.56108">
        <ele>329.39999389648</ele>
        <time>2019-08-22T16:32:19Z</time>
      </trkpt>
      <trkpt lat="44.51593" lon="4.56107">
        <ele>329.60000610352</ele>
        <time>2019-08-22T16:32:20Z</time>
      </trkpt>
      <trkpt lat="44.51599" lon="4.56103">
        <ele>330.20001220703</ele>
        <time>2019-08-22T16:32:24Z</time>
      </trkpt>
      <trkpt lat="44.51602" lon="4.56101">
        <ele>330.60000610352</ele>
        <time>2019-08-22T16:32:26Z</time>
      </trkpt>
      <trkpt lat="44.51604" lon="4.56099">
        <ele>331.60000610352</ele>
        <time>2019-08-22T16:32:32Z</time>
      </trkpt>
      <trkpt lat="44.51606" lon="4.56097">
        <ele>332.39999389648</ele>
        <time>2019-08-22T16:32:57Z</time>
      </trkpt>
      <trkpt lat="44.51606" lon="4.56096">
        <ele>332.60000610352</ele>
        <time>2019-08-22T16:32:58Z</time>
      </trkpt>
      <trkpt lat="44.51607" lon="4.56094">
        <ele>332.60000610352</ele>
        <time>2019-08-22T16:33:00Z</time>
      </trkpt>
      <trkpt lat="44.5161" lon="4.56087">
        <ele>333.79998779297</ele>
        <time>2019-08-22T16:33:09Z</time>
      </trkpt>
      <trkpt lat="44.51611" lon="4.56086">
        <ele>334</ele>
        <time>2019-08-22T16:33:10Z</time>
      </trkpt>
      <trkpt lat="44.51614" lon="4.56079">
        <ele>335.39999389648</ele>
        <time>2019-08-22T16:33:18Z</time>
      </trkpt>
      <trkpt lat="44.51616" lon="4.56074">
        <ele>336</ele>
        <time>2019-08-22T16:33:23Z</time>
      </trkpt>
      <trkpt lat="44.51617" lon="4.56073">
        <ele>336.20001220703</ele>
        <time>2019-08-22T16:33:25Z</time>
      </trkpt>
      <trkpt lat="44.51618" lon="4.56071">
        <ele>336.60000610352</ele>
        <time>2019-08-22T16:33:27Z</time>
      </trkpt>
      <trkpt lat="44.5162" lon="4.56068">
        <ele>338.20001220703</ele>
        <time>2019-08-22T16:33:31Z</time>
      </trkpt>
      <trkpt lat="44.5162" lon="4.56066">
        <ele>338.39999389648</ele>
        <time>2019-08-22T16:33:33Z</time>
      </trkpt>
      <trkpt lat="44.51622" lon="4.56063">
        <ele>339</ele>
        <time>2019-08-22T16:33:37Z</time>
      </trkpt>
      <trkpt lat="44.51623" lon="4.56061">
        <ele>339.20001220703</ele>
        <time>2019-08-22T16:33:39Z</time>
      </trkpt>
      <trkpt lat="44.51624" lon="4.56058">
        <ele>339.79998779297</ele>
        <time>2019-08-22T16:33:43Z</time>
      </trkpt>
      <trkpt lat="44.51625" lon="4.56055">
        <ele>340.20001220703</ele>
        <time>2019-08-22T16:33:46Z</time>
      </trkpt>
      <trkpt lat="44.51626" lon="4.56053">
        <ele>341</ele>
        <time>2019-08-22T16:33:50Z</time>
      </trkpt>
      <trkpt lat="44.51626" lon="4.56051">
        <ele>342</ele>
        <time>2019-08-22T16:33:58Z</time>
      </trkpt>
      <trkpt lat="44.51627" lon="4.5605">
        <ele>342.39999389648</ele>
        <time>2019-08-22T16:34:05Z</time>
      </trkpt>
      <trkpt lat="44.51627" lon="4.56048">
        <ele>342.39999389648</ele>
        <time>2019-08-22T16:34:08Z</time>
      </trkpt>
      <trkpt lat="44.51627" lon="4.56048">
        <ele>342.60000610352</ele>
        <time>2019-08-22T16:34:14Z</time>
      </trkpt>
      <trkpt lat="44.51627" lon="4.56046">
        <ele>343</ele>
        <time>2019-08-22T16:34:20Z</time>
      </trkpt>
      <trkpt lat="44.51627" lon="4.56045">
        <ele>343.20001220703</ele>
        <time>2019-08-22T16:34:27Z</time>
      </trkpt>
      <trkpt lat="44.51628" lon="4.56041">
        <ele>343.20001220703</ele>
        <time>2019-08-22T16:34:29Z</time>
      </trkpt>
      <trkpt lat="44.51628" lon="4.56039">
        <ele>343.20001220703</ele>
        <time>2019-08-22T16:34:30Z</time>
      </trkpt>
      <trkpt lat="44.51629" lon="4.56038">
        <ele>343</ele>
        <time>2019-08-22T16:34:31Z</time>
      </trkpt>
      <trkpt lat="44.5163" lon="4.56032">
        <ele>343.20001220703</ele>
        <time>2019-08-22T16:34:35Z</time>
      </trkpt>
      <trkpt lat="44.5163" lon="4.56031">
        <ele>343.20001220703</ele>
        <time>2019-08-22T16:34:37Z</time>
      </trkpt>
      <trkpt lat="44.5163" lon="4.56029">
        <ele>345.79998779297</ele>
        <time>2019-08-22T16:34:45Z</time>
      </trkpt>
      <trkpt lat="44.51632" lon="4.56019">
        <ele>345.79998779297</ele>
        <time>2019-08-22T16:34:51Z</time>
      </trkpt>
      <trkpt lat="44.51632" lon="4.5601">
        <ele>346.20001220703</ele>
        <time>2019-08-22T16:34:54Z</time>
      </trkpt>
      <trkpt lat="44.51633" lon="4.55999">
        <ele>346.39999389648</ele>
        <time>2019-08-22T16:34:58Z</time>
      </trkpt>
      <trkpt lat="44.51633" lon="4.55991">
        <ele>347.20001220703</ele>
        <time>2019-08-22T16:35:01Z</time>
      </trkpt>
      <trkpt lat="44.51632" lon="4.55988">
        <ele>348.39999389648</ele>
        <time>2019-08-22T16:35:02Z</time>
      </trkpt>
      <trkpt lat="44.51631" lon="4.55981">
        <ele>348.79998779297</ele>
        <time>2019-08-22T16:35:05Z</time>
      </trkpt>
      <trkpt lat="44.5163" lon="4.55979">
        <ele>349.39999389648</ele>
        <time>2019-08-22T16:35:06Z</time>
      </trkpt>
      <trkpt lat="44.5163" lon="4.55975">
        <ele>350.20001220703</ele>
        <time>2019-08-22T16:35:08Z</time>
      </trkpt>
      <trkpt lat="44.5163" lon="4.5597">
        <ele>351.20001220703</ele>
        <time>2019-08-22T16:35:10Z</time>
      </trkpt>
      <trkpt lat="44.5163" lon="4.55968">
        <ele>351.79998779297</ele>
        <time>2019-08-22T16:35:11Z</time>
      </trkpt>
      <trkpt lat="44.51631" lon="4.55966">
        <ele>352.39999389648</ele>
        <time>2019-08-22T16:35:12Z</time>
      </trkpt>
      <trkpt lat="44.51631" lon="4.5596">
        <ele>353.20001220703</ele>
        <time>2019-08-22T16:35:15Z</time>
      </trkpt>
      <trkpt lat="44.51632" lon="4.55958">
        <ele>354.20001220703</ele>
        <time>2019-08-22T16:35:17Z</time>
      </trkpt>
      <trkpt lat="44.51632" lon="4.55956">
        <ele>355.20001220703</ele>
        <time>2019-08-22T16:35:19Z</time>
      </trkpt>
      <trkpt lat="44.51632" lon="4.5595">
        <ele>356.60000610352</ele>
        <time>2019-08-22T16:35:26Z</time>
      </trkpt>
      <trkpt lat="44.51632" lon="4.55949">
        <ele>357.39999389648</ele>
        <time>2019-08-22T16:35:29Z</time>
      </trkpt>
      <trkpt lat="44.51633" lon="4.55947">
        <ele>357.60000610352</ele>
        <time>2019-08-22T16:35:33Z</time>
      </trkpt>
      <trkpt lat="44.51634" lon="4.55939">
        <ele>358.79998779297</ele>
        <time>2019-08-22T16:35:42Z</time>
      </trkpt>
      <trkpt lat="44.51635" lon="4.55937">
        <ele>358.79998779297</ele>
        <time>2019-08-22T16:35:44Z</time>
      </trkpt>
      <trkpt lat="44.51635" lon="4.55931">
        <ele>359.20001220703</ele>
        <time>2019-08-22T16:35:50Z</time>
      </trkpt>
      <trkpt lat="44.51635" lon="4.5593">
        <ele>359.39999389648</ele>
        <time>2019-08-22T16:35:52Z</time>
      </trkpt>
      <trkpt lat="44.51635" lon="4.55928">
        <ele>361.20001220703</ele>
        <time>2019-08-22T16:36:03Z</time>
      </trkpt>
      <trkpt lat="44.51635" lon="4.55923">
        <ele>361.39999389648</ele>
        <time>2019-08-22T16:36:08Z</time>
      </trkpt>
      <trkpt lat="44.51636" lon="4.5592">
        <ele>361.60000610352</ele>
        <time>2019-08-22T16:36:10Z</time>
      </trkpt>
      <trkpt lat="44.51636" lon="4.55916">
        <ele>362</ele>
        <time>2019-08-22T16:36:14Z</time>
      </trkpt>
      <trkpt lat="44.51636" lon="4.55913">
        <ele>362.20001220703</ele>
        <time>2019-08-22T16:36:16Z</time>
      </trkpt>
      <trkpt lat="44.51637" lon="4.55908">
        <ele>362.60000610352</ele>
        <time>2019-08-22T16:36:21Z</time>
      </trkpt>
      <trkpt lat="44.51637" lon="4.55908">
        <ele>363.60000610352</ele>
        <time>2019-08-22T16:36:24Z</time>
      </trkpt>
      <trkpt lat="44.51637" lon="4.55908">
        <ele>364.20001220703</ele>
        <time>2019-08-22T16:36:38Z</time>
      </trkpt>
      <trkpt lat="44.51638" lon="4.55904">
        <ele>364.20001220703</ele>
        <time>2019-08-22T16:36:51Z</time>
      </trkpt>
      <trkpt lat="44.51638" lon="4.559">
        <ele>364.60000610352</ele>
        <time>2019-08-22T16:36:57Z</time>
      </trkpt>
      <trkpt lat="44.5164" lon="4.55892">
        <ele>365.20001220703</ele>
        <time>2019-08-22T16:37:05Z</time>
      </trkpt>
      <trkpt lat="44.5164" lon="4.55892">
        <ele>365.39999389648</ele>
        <time>2019-08-22T16:37:06Z</time>
      </trkpt>
      <trkpt lat="44.51642" lon="4.55888">
        <ele>366</ele>
        <time>2019-08-22T16:37:09Z</time>
      </trkpt>
      <trkpt lat="44.51644" lon="4.55884">
        <ele>366.39999389648</ele>
        <time>2019-08-22T16:37:13Z</time>
      </trkpt>
      <trkpt lat="44.51645" lon="4.55882">
        <ele>366.60000610352</ele>
        <time>2019-08-22T16:37:15Z</time>
      </trkpt>
      <trkpt lat="44.51648" lon="4.55879">
        <ele>367.60000610352</ele>
        <time>2019-08-22T16:37:22Z</time>
      </trkpt>
      <trkpt lat="44.5165" lon="4.55878">
        <ele>368.79998779297</ele>
        <time>2019-08-22T16:37:27Z</time>
      </trkpt>
      <trkpt lat="44.51652" lon="4.55877">
        <ele>368.79998779297</ele>
        <time>2019-08-22T16:37:28Z</time>
      </trkpt>
      <trkpt lat="44.51656" lon="4.55877">
        <ele>369</ele>
        <time>2019-08-22T16:37:30Z</time>
      </trkpt>
      <trkpt lat="44.51664" lon="4.55877">
        <ele>369</ele>
        <time>2019-08-22T16:37:34Z</time>
      </trkpt>
      <trkpt lat="44.51674" lon="4.55878">
        <ele>369.60000610352</ele>
        <time>2019-08-22T16:37:40Z</time>
      </trkpt>
      <trkpt lat="44.51683" lon="4.55879">
        <ele>371</ele>
        <time>2019-08-22T16:37:45Z</time>
      </trkpt>
      <trkpt lat="44.51687" lon="4.5588">
        <ele>371.39999389648</ele>
        <time>2019-08-22T16:37:47Z</time>
      </trkpt>
      <trkpt lat="44.51702" lon="4.55883">
        <ele>372.60000610352</ele>
        <time>2019-08-22T16:37:54Z</time>
      </trkpt>
      <trkpt lat="44.51706" lon="4.55884">
        <ele>373</ele>
        <time>2019-08-22T16:37:56Z</time>
      </trkpt>
      <trkpt lat="44.51717" lon="4.55885">
        <ele>373.39999389648</ele>
        <time>2019-08-22T16:38:01Z</time>
      </trkpt>
      <trkpt lat="44.51719" lon="4.55886">
        <ele>373.39999389648</ele>
        <time>2019-08-22T16:38:02Z</time>
      </trkpt>
      <trkpt lat="44.51728" lon="4.55889">
        <ele>374</ele>
        <time>2019-08-22T16:38:07Z</time>
      </trkpt>
      <trkpt lat="44.5173" lon="4.5589">
        <ele>374.20001220703</ele>
        <time>2019-08-22T16:38:08Z</time>
      </trkpt>
      <trkpt lat="44.51732" lon="4.5589">
        <ele>374.60000610352</ele>
        <time>2019-08-22T16:38:09Z</time>
      </trkpt>
      <trkpt lat="44.51736" lon="4.5589">
        <ele>375.79998779297</ele>
        <time>2019-08-22T16:38:14Z</time>
      </trkpt>
      <trkpt lat="44.51736" lon="4.55891">
        <ele>377</ele>
        <time>2019-08-22T16:38:26Z</time>
      </trkpt>
      <trkpt lat="44.51736" lon="4.55891">
        <ele>377</ele>
        <time>2019-08-22T16:38:28Z</time>
      </trkpt>
      <trkpt lat="44.5174" lon="4.55893">
        <ele>377</ele>
        <time>2019-08-22T16:38:32Z</time>
      </trkpt>
      <trkpt lat="44.51755" lon="4.559">
        <ele>377.20001220703</ele>
        <time>2019-08-22T16:38:39Z</time>
      </trkpt>
      <trkpt lat="44.51764" lon="4.55905">
        <ele>377.20001220703</ele>
        <time>2019-08-22T16:38:43Z</time>
      </trkpt>
      <trkpt lat="44.51774" lon="4.5591">
        <ele>377.60000610352</ele>
        <time>2019-08-22T16:38:47Z</time>
      </trkpt>
      <trkpt lat="44.51783" lon="4.55915">
        <ele>378</ele>
        <time>2019-08-22T16:38:51Z</time>
      </trkpt>
      <trkpt lat="44.51791" lon="4.55923">
        <ele>378.60000610352</ele>
        <time>2019-08-22T16:38:55Z</time>
      </trkpt>
      <trkpt lat="44.518" lon="4.5593">
        <ele>379.20001220703</ele>
        <time>2019-08-22T16:38:59Z</time>
      </trkpt>
      <trkpt lat="44.51812" lon="4.55944">
        <ele>379.79998779297</ele>
        <time>2019-08-22T16:39:04Z</time>
      </trkpt>
      <trkpt lat="44.5182" lon="4.55954">
        <ele>380.39999389648</ele>
        <time>2019-08-22T16:39:07Z</time>
      </trkpt>
      <trkpt lat="44.51831" lon="4.5597">
        <ele>380.79998779297</ele>
        <time>2019-08-22T16:39:11Z</time>
      </trkpt>
      <trkpt lat="44.51847" lon="4.5598">
        <ele>381.79998779297</ele>
        <time>2019-08-22T16:39:16Z</time>
      </trkpt>
      <trkpt lat="44.5185" lon="4.5598">
        <ele>382</ele>
        <time>2019-08-22T16:39:17Z</time>
      </trkpt>
      <trkpt lat="44.51853" lon="4.55981">
        <ele>382.20001220703</ele>
        <time>2019-08-22T16:39:18Z</time>
      </trkpt>
      <trkpt lat="44.51856" lon="4.55981">
        <ele>382.39999389648</ele>
        <time>2019-08-22T16:39:19Z</time>
      </trkpt>
      <trkpt lat="44.51859" lon="4.55982">
        <ele>382.60000610352</ele>
        <time>2019-08-22T16:39:21Z</time>
      </trkpt>
      <trkpt lat="44.51866" lon="4.55982">
        <ele>383.20001220703</ele>
        <time>2019-08-22T16:39:25Z</time>
      </trkpt>
      <trkpt lat="44.51869" lon="4.55982">
        <ele>383.60000610352</ele>
        <time>2019-08-22T16:39:26Z</time>
      </trkpt>
      <trkpt lat="44.51871" lon="4.55982">
        <ele>384</ele>
        <time>2019-08-22T16:39:27Z</time>
      </trkpt>
      <trkpt lat="44.51876" lon="4.55981">
        <ele>385.20001220703</ele>
        <time>2019-08-22T16:39:29Z</time>
      </trkpt>
      <trkpt lat="44.51883" lon="4.55979">
        <ele>386.39999389648</ele>
        <time>2019-08-22T16:39:33Z</time>
      </trkpt>
      <trkpt lat="44.51888" lon="4.55979">
        <ele>388.20001220703</ele>
        <time>2019-08-22T16:39:37Z</time>
      </trkpt>
      <trkpt lat="44.51889" lon="4.55979">
        <ele>388.79998779297</ele>
        <time>2019-08-22T16:39:39Z</time>
      </trkpt>
      <trkpt lat="44.51892" lon="4.55979">
        <ele>390.79998779297</ele>
        <time>2019-08-22T16:39:45Z</time>
      </trkpt>
      <trkpt lat="44.51892" lon="4.55979">
        <ele>391.20001220703</ele>
        <time>2019-08-22T16:39:46Z</time>
      </trkpt>
      <trkpt lat="44.51894" lon="4.55979">
        <ele>391.60000610352</ele>
        <time>2019-08-22T16:39:48Z</time>
      </trkpt>
      <trkpt lat="44.51896" lon="4.55979">
        <ele>391.60000610352</ele>
        <time>2019-08-22T16:39:50Z</time>
      </trkpt>
      <trkpt lat="44.51898" lon="4.55978">
        <ele>391.79998779297</ele>
        <time>2019-08-22T16:39:51Z</time>
      </trkpt>
      <trkpt lat="44.51908" lon="4.55975">
        <ele>392.60000610352</ele>
        <time>2019-08-22T16:39:57Z</time>
      </trkpt>
      <trkpt lat="44.5191" lon="4.55976">
        <ele>392.79998779297</ele>
        <time>2019-08-22T16:39:58Z</time>
      </trkpt>
      <trkpt lat="44.51926" lon="4.55976">
        <ele>394.20001220703</ele>
        <time>2019-08-22T16:40:05Z</time>
      </trkpt>
      <trkpt lat="44.51946" lon="4.55974">
        <ele>395</ele>
        <time>2019-08-22T16:40:12Z</time>
      </trkpt>
      <trkpt lat="44.51957" lon="4.55969">
        <ele>395</ele>
        <time>2019-08-22T16:40:16Z</time>
      </trkpt>
      <trkpt lat="44.51961" lon="4.55967">
        <ele>395</ele>
        <time>2019-08-22T16:40:18Z</time>
      </trkpt>
      <trkpt lat="44.51974" lon="4.55961">
        <ele>395.39999389648</ele>
        <time>2019-08-22T16:40:24Z</time>
      </trkpt>
      <trkpt lat="44.51987" lon="4.55956">
        <ele>395.79998779297</ele>
        <time>2019-08-22T16:40:29Z</time>
      </trkpt>
      <trkpt lat="44.52007" lon="4.5595">
        <ele>396.20001220703</ele>
        <time>2019-08-22T16:40:35Z</time>
      </trkpt>
      <trkpt lat="44.52021" lon="4.55949">
        <ele>396.39999389648</ele>
        <time>2019-08-22T16:40:39Z</time>
      </trkpt>
      <trkpt lat="44.5203" lon="4.55949">
        <ele>396.20001220703</ele>
        <time>2019-08-22T16:40:41Z</time>
      </trkpt>
      <trkpt lat="44.52043" lon="4.5595">
        <ele>396.39999389648</ele>
        <time>2019-08-22T16:40:45Z</time>
      </trkpt>
      <trkpt lat="44.52047" lon="4.5595">
        <ele>396.39999389648</ele>
        <time>2019-08-22T16:40:46Z</time>
      </trkpt>
      <trkpt lat="44.52055" lon="4.55951">
        <ele>396.20001220703</ele>
        <time>2019-08-22T16:40:48Z</time>
      </trkpt>
      <trkpt lat="44.52062" lon="4.55953">
        <ele>396.20001220703</ele>
        <time>2019-08-22T16:40:50Z</time>
      </trkpt>
      <trkpt lat="44.52067" lon="4.55953">
        <ele>396.20001220703</ele>
        <time>2019-08-22T16:40:52Z</time>
      </trkpt>
      <trkpt lat="44.5207" lon="4.55954">
        <ele>396.39999389648</ele>
        <time>2019-08-22T16:40:53Z</time>
      </trkpt>
      <trkpt lat="44.52087" lon="4.55959">
        <ele>396.20001220703</ele>
        <time>2019-08-22T16:40:58Z</time>
      </trkpt>
      <trkpt lat="44.5209" lon="4.5596">
        <ele>396.20001220703</ele>
        <time>2019-08-22T16:40:59Z</time>
      </trkpt>
      <trkpt lat="44.52093" lon="4.55962">
        <ele>396.20001220703</ele>
        <time>2019-08-22T16:41:00Z</time>
      </trkpt>
      <trkpt lat="44.52107" lon="4.55967">
        <ele>396.20001220703</ele>
        <time>2019-08-22T16:41:04Z</time>
      </trkpt>
      <trkpt lat="44.52114" lon="4.5597">
        <ele>396.39999389648</ele>
        <time>2019-08-22T16:41:06Z</time>
      </trkpt>
      <trkpt lat="44.52134" lon="4.55981">
        <ele>396</ele>
        <time>2019-08-22T16:41:11Z</time>
      </trkpt>
      <trkpt lat="44.52142" lon="4.55985">
        <ele>396</ele>
        <time>2019-08-22T16:41:13Z</time>
      </trkpt>
      <trkpt lat="44.52146" lon="4.55987">
        <ele>395.79998779297</ele>
        <time>2019-08-22T16:41:14Z</time>
      </trkpt>
      <trkpt lat="44.52168" lon="4.55995">
        <ele>395.20001220703</ele>
        <time>2019-08-22T16:41:20Z</time>
      </trkpt>
      <trkpt lat="44.52177" lon="4.55998">
        <ele>395</ele>
        <time>2019-08-22T16:41:22Z</time>
      </trkpt>
      <trkpt lat="44.52181" lon="4.55999">
        <ele>395</ele>
        <time>2019-08-22T16:41:23Z</time>
      </trkpt>
      <trkpt lat="44.5219" lon="4.56001">
        <ele>395</ele>
        <time>2019-08-22T16:41:25Z</time>
      </trkpt>
      <trkpt lat="44.52199" lon="4.56002">
        <ele>394.60000610352</ele>
        <time>2019-08-22T16:41:27Z</time>
      </trkpt>
      <trkpt lat="44.52206" lon="4.56003">
        <ele>394.60000610352</ele>
        <time>2019-08-22T16:41:29Z</time>
      </trkpt>
      <trkpt lat="44.52213" lon="4.56005">
        <ele>394.39999389648</ele>
        <time>2019-08-22T16:41:31Z</time>
      </trkpt>
      <trkpt lat="44.52226" lon="4.56006">
        <ele>394.39999389648</ele>
        <time>2019-08-22T16:41:34Z</time>
      </trkpt>
      <trkpt lat="44.52231" lon="4.56007">
        <ele>394.20001220703</ele>
        <time>2019-08-22T16:41:35Z</time>
      </trkpt>
      <trkpt lat="44.52235" lon="4.56007">
        <ele>394</ele>
        <time>2019-08-22T16:41:36Z</time>
      </trkpt>
      <trkpt lat="44.5224" lon="4.56008">
        <ele>393.79998779297</ele>
        <time>2019-08-22T16:41:37Z</time>
      </trkpt>
      <trkpt lat="44.52264" lon="4.56008">
        <ele>391.79998779297</ele>
        <time>2019-08-22T16:41:42Z</time>
      </trkpt>
      <trkpt lat="44.52269" lon="4.56009">
        <ele>391.39999389648</ele>
        <time>2019-08-22T16:41:43Z</time>
      </trkpt>
      <trkpt lat="44.52285" lon="4.56017">
        <ele>388.39999389648</ele>
        <time>2019-08-22T16:41:47Z</time>
      </trkpt>
      <trkpt lat="44.52298" lon="4.56027">
        <ele>387.39999389648</ele>
        <time>2019-08-22T16:41:50Z</time>
      </trkpt>
      <trkpt lat="44.5231" lon="4.56038">
        <ele>386.20001220703</ele>
        <time>2019-08-22T16:41:53Z</time>
      </trkpt>
      <trkpt lat="44.52313" lon="4.56042">
        <ele>385.79998779297</ele>
        <time>2019-08-22T16:41:54Z</time>
      </trkpt>
      <trkpt lat="44.52326" lon="4.56057">
        <ele>385.39999389648</ele>
        <time>2019-08-22T16:41:58Z</time>
      </trkpt>
      <trkpt lat="44.5233" lon="4.56058">
        <ele>385.20001220703</ele>
        <time>2019-08-22T16:41:59Z</time>
      </trkpt>
      <trkpt lat="44.52333" lon="4.5606">
        <ele>385</ele>
        <time>2019-08-22T16:42:00Z</time>
      </trkpt>
      <trkpt lat="44.52338" lon="4.56061">
        <ele>385</ele>
        <time>2019-08-22T16:42:02Z</time>
      </trkpt>
      <trkpt lat="44.52341" lon="4.56062">
        <ele>385</ele>
        <time>2019-08-22T16:42:03Z</time>
      </trkpt>
      <trkpt lat="44.52346" lon="4.56063">
        <ele>385</ele>
        <time>2019-08-22T16:42:05Z</time>
      </trkpt>
      <trkpt lat="44.52354" lon="4.56065">
        <ele>385.20001220703</ele>
        <time>2019-08-22T16:42:08Z</time>
      </trkpt>
      <trkpt lat="44.52359" lon="4.56067">
        <ele>385.60000610352</ele>
        <time>2019-08-22T16:42:10Z</time>
      </trkpt>
      <trkpt lat="44.52369" lon="4.56069">
        <ele>386.79998779297</ele>
        <time>2019-08-22T16:42:14Z</time>
      </trkpt>
      <trkpt lat="44.52375" lon="4.5607">
        <ele>388</ele>
        <time>2019-08-22T16:42:17Z</time>
      </trkpt>
      <trkpt lat="44.52395" lon="4.56074">
        <ele>389.60000610352</ele>
        <time>2019-08-22T16:42:24Z</time>
      </trkpt>
      <trkpt lat="44.524" lon="4.56075">
        <ele>390.20001220703</ele>
        <time>2019-08-22T16:42:26Z</time>
      </trkpt>
      <trkpt lat="44.52408" lon="4.56077">
        <ele>390.79998779297</ele>
        <time>2019-08-22T16:42:29Z</time>
      </trkpt>
      <trkpt lat="44.52421" lon="4.5608">
        <ele>391</ele>
        <time>2019-08-22T16:42:33Z</time>
      </trkpt>
      <trkpt lat="44.5243" lon="4.56082">
        <ele>391.60000610352</ele>
        <time>2019-08-22T16:42:36Z</time>
      </trkpt>
      <trkpt lat="44.52442" lon="4.56087">
        <ele>391.79998779297</ele>
        <time>2019-08-22T16:42:40Z</time>
      </trkpt>
      <trkpt lat="44.52453" lon="4.56093">
        <ele>392.60000610352</ele>
        <time>2019-08-22T16:42:44Z</time>
      </trkpt>
      <trkpt lat="44.52474" lon="4.5611">
        <ele>394.20001220703</ele>
        <time>2019-08-22T16:42:51Z</time>
      </trkpt>
      <trkpt lat="44.52481" lon="4.56121">
        <ele>395.20001220703</ele>
        <time>2019-08-22T16:42:54Z</time>
      </trkpt>
      <trkpt lat="44.52489" lon="4.56132">
        <ele>395.39999389648</ele>
        <time>2019-08-22T16:42:57Z</time>
      </trkpt>
      <trkpt lat="44.525" lon="4.56146">
        <ele>395.60000610352</ele>
        <time>2019-08-22T16:43:01Z</time>
      </trkpt>
      <trkpt lat="44.52508" lon="4.56156">
        <ele>396.39999389648</ele>
        <time>2019-08-22T16:43:04Z</time>
      </trkpt>
      <trkpt lat="44.5251" lon="4.56159">
        <ele>396.60000610352</ele>
        <time>2019-08-22T16:43:05Z</time>
      </trkpt>
      <trkpt lat="44.52512" lon="4.56162">
        <ele>396.79998779297</ele>
        <time>2019-08-22T16:43:06Z</time>
      </trkpt>
      <trkpt lat="44.52514" lon="4.56166">
        <ele>396.79998779297</ele>
        <time>2019-08-22T16:43:07Z</time>
      </trkpt>
      <trkpt lat="44.52522" lon="4.56178">
        <ele>398.60000610352</ele>
        <time>2019-08-22T16:43:11Z</time>
      </trkpt>
      <trkpt lat="44.52526" lon="4.56183">
        <ele>399</ele>
        <time>2019-08-22T16:43:13Z</time>
      </trkpt>
      <trkpt lat="44.52535" lon="4.56187">
        <ele>400.60000610352</ele>
        <time>2019-08-22T16:43:16Z</time>
      </trkpt>
      <trkpt lat="44.52538" lon="4.56187">
        <ele>401.20001220703</ele>
        <time>2019-08-22T16:43:17Z</time>
      </trkpt>
      <trkpt lat="44.5254" lon="4.56185">
        <ele>401.60000610352</ele>
        <time>2019-08-22T16:43:18Z</time>
      </trkpt>
      <trkpt lat="44.52544" lon="4.56176">
        <ele>403</ele>
        <time>2019-08-22T16:43:21Z</time>
      </trkpt>
      <trkpt lat="44.52546" lon="4.56169">
        <ele>404</ele>
        <time>2019-08-22T16:43:23Z</time>
      </trkpt>
      <trkpt lat="44.5255" lon="4.56153">
        <ele>405.20001220703</ele>
        <time>2019-08-22T16:43:27Z</time>
      </trkpt>
      <trkpt lat="44.52554" lon="4.56133">
        <ele>406.20001220703</ele>
        <time>2019-08-22T16:43:33Z</time>
      </trkpt>
      <trkpt lat="44.52558" lon="4.56115">
        <ele>406.60000610352</ele>
        <time>2019-08-22T16:43:39Z</time>
      </trkpt>
      <trkpt lat="44.52561" lon="4.56101">
        <ele>406.79998779297</ele>
        <time>2019-08-22T16:43:44Z</time>
      </trkpt>
      <trkpt lat="44.52561" lon="4.56098">
        <ele>406.79998779297</ele>
        <time>2019-08-22T16:43:45Z</time>
      </trkpt>
      <trkpt lat="44.52567" lon="4.56077">
        <ele>407.20001220703</ele>
        <time>2019-08-22T16:43:51Z</time>
      </trkpt>
      <trkpt lat="44.5257" lon="4.56064">
        <ele>407.79998779297</ele>
        <time>2019-08-22T16:43:55Z</time>
      </trkpt>
      <trkpt lat="44.52574" lon="4.56054">
        <ele>408.20001220703</ele>
        <time>2019-08-22T16:43:58Z</time>
      </trkpt>
      <trkpt lat="44.52583" lon="4.56037">
        <ele>408.60000610352</ele>
        <time>2019-08-22T16:44:03Z</time>
      </trkpt>
      <trkpt lat="44.52585" lon="4.56034">
        <ele>408.60000610352</ele>
        <time>2019-08-22T16:44:04Z</time>
      </trkpt>
      <trkpt lat="44.52599" lon="4.56014">
        <ele>409.39999389648</ele>
        <time>2019-08-22T16:44:11Z</time>
      </trkpt>
      <trkpt lat="44.5261" lon="4.56001">
        <ele>410</ele>
        <time>2019-08-22T16:44:17Z</time>
      </trkpt>
      <trkpt lat="44.52615" lon="4.55994">
        <ele>410.20001220703</ele>
        <time>2019-08-22T16:44:20Z</time>
      </trkpt>
      <trkpt lat="44.52621" lon="4.55987">
        <ele>410.39999389648</ele>
        <time>2019-08-22T16:44:23Z</time>
      </trkpt>
      <trkpt lat="44.52628" lon="4.5598">
        <ele>410.60000610352</ele>
        <time>2019-08-22T16:44:26Z</time>
      </trkpt>
      <trkpt lat="44.52638" lon="4.5597">
        <ele>410.79998779297</ele>
        <time>2019-08-22T16:44:31Z</time>
      </trkpt>
      <trkpt lat="44.52644" lon="4.55965">
        <ele>411.39999389648</ele>
        <time>2019-08-22T16:44:34Z</time>
      </trkpt>
      <trkpt lat="44.52648" lon="4.55961">
        <ele>411.60000610352</ele>
        <time>2019-08-22T16:44:36Z</time>
      </trkpt>
      <trkpt lat="44.52651" lon="4.55958">
        <ele>412</ele>
        <time>2019-08-22T16:44:38Z</time>
      </trkpt>
      <trkpt lat="44.52653" lon="4.55956">
        <ele>412.39999389648</ele>
        <time>2019-08-22T16:44:39Z</time>
      </trkpt>
      <trkpt lat="44.52661" lon="4.55948">
        <ele>413.60000610352</ele>
        <time>2019-08-22T16:44:44Z</time>
      </trkpt>
      <trkpt lat="44.52667" lon="4.55941">
        <ele>414.79998779297</ele>
        <time>2019-08-22T16:44:48Z</time>
      </trkpt>
      <trkpt lat="44.52669" lon="4.5594">
        <ele>415.20001220703</ele>
        <time>2019-08-22T16:44:49Z</time>
      </trkpt>
      <trkpt lat="44.52673" lon="4.55937">
        <ele>415.79998779297</ele>
        <time>2019-08-22T16:44:51Z</time>
      </trkpt>
      <trkpt lat="44.52679" lon="4.55933">
        <ele>416.39999389648</ele>
        <time>2019-08-22T16:44:54Z</time>
      </trkpt>
      <trkpt lat="44.52681" lon="4.55931">
        <ele>416.60000610352</ele>
        <time>2019-08-22T16:44:55Z</time>
      </trkpt>
      <trkpt lat="44.5269" lon="4.55926">
        <ele>418.20001220703</ele>
        <time>2019-08-22T16:44:59Z</time>
      </trkpt>
      <trkpt lat="44.52695" lon="4.55922">
        <ele>419.39999389648</ele>
        <time>2019-08-22T16:45:02Z</time>
      </trkpt>
      <trkpt lat="44.52702" lon="4.55918">
        <ele>420.39999389648</ele>
        <time>2019-08-22T16:45:05Z</time>
      </trkpt>
      <trkpt lat="44.52703" lon="4.55916">
        <ele>420.60000610352</ele>
        <time>2019-08-22T16:45:06Z</time>
      </trkpt>
      <trkpt lat="44.52705" lon="4.55915">
        <ele>420.79998779297</ele>
        <time>2019-08-22T16:45:07Z</time>
      </trkpt>
      <trkpt lat="44.52707" lon="4.55911">
        <ele>421.79998779297</ele>
        <time>2019-08-22T16:45:10Z</time>
      </trkpt>
      <trkpt lat="44.52709" lon="4.55908">
        <ele>424.79998779297</ele>
        <time>2019-08-22T16:45:16Z</time>
      </trkpt>
      <trkpt lat="44.5271" lon="4.55906">
        <ele>425.20001220703</ele>
        <time>2019-08-22T16:45:17Z</time>
      </trkpt>
      <trkpt lat="44.52713" lon="4.559">
        <ele>425.79998779297</ele>
        <time>2019-08-22T16:45:23Z</time>
      </trkpt>
      <trkpt lat="44.52716" lon="4.55895">
        <ele>426.60000610352</ele>
        <time>2019-08-22T16:45:28Z</time>
      </trkpt>
      <trkpt lat="44.52716" lon="4.55894">
        <ele>426.79998779297</ele>
        <time>2019-08-22T16:45:29Z</time>
      </trkpt>
      <trkpt lat="44.52718" lon="4.55891">
        <ele>428.60000610352</ele>
        <time>2019-08-22T16:45:34Z</time>
      </trkpt>
      <trkpt lat="44.52723" lon="4.55885">
        <ele>429.79998779297</ele>
        <time>2019-08-22T16:45:40Z</time>
      </trkpt>
      <trkpt lat="44.52723" lon="4.55884">
        <ele>430</ele>
        <time>2019-08-22T16:45:42Z</time>
      </trkpt>
      <trkpt lat="44.52729" lon="4.55878">
        <ele>430.79998779297</ele>
        <time>2019-08-22T16:45:48Z</time>
      </trkpt>
      <trkpt lat="44.5273" lon="4.55877">
        <ele>431.20001220703</ele>
        <time>2019-08-22T16:45:50Z</time>
      </trkpt>
      <trkpt lat="44.52732" lon="4.55876">
        <ele>432.20001220703</ele>
        <time>2019-08-22T16:45:56Z</time>
      </trkpt>
      <trkpt lat="44.52733" lon="4.55874">
        <ele>441.55859375</ele>
      </trkpt>
      <trkpt lat="44.52728" lon="4.55875">
        <ele>441.5703125</ele>
      </trkpt>
      <trkpt lat="44.5272" lon="4.55878">
        <ele>441.5625</ele>
      </trkpt>
      <trkpt lat="44.52713" lon="4.55883">
        <ele>441.12890625</ele>
      </trkpt>
      <trkpt lat="44.52707" lon="4.55883">
        <ele>441.09765625</ele>
      </trkpt>
      <trkpt lat="44.527" lon="4.55883">
        <ele>441.265625</ele>
      </trkpt>
      <trkpt lat="44.52693" lon="4.55883">
        <ele>441.6328125</ele>
      </trkpt>
      <trkpt lat="44.52664" lon="4.55878">
        <ele>443.23828125</ele>
      </trkpt>
      <trkpt lat="44.52653" lon="4.55877">
        <ele>443.73828125</ele>
      </trkpt>
      <trkpt lat="44.5265" lon="4.55876">
        <ele>443.88671875</ele>
      </trkpt>
      <trkpt lat="44.52645" lon="4.55877">
        <ele>444.19140625</ele>
      </trkpt>
      <trkpt lat="44.52641" lon="4.55877">
        <ele>444.3828125</ele>
      </trkpt>
      <trkpt lat="44.52638" lon="4.55877">
        <ele>444.55078125</ele>
      </trkpt>
      <trkpt lat="44.52617" lon="4.55884">
        <ele>445.26171875</ele>
      </trkpt>
      <trkpt lat="44.52603" lon="4.55889">
        <ele>445.2890625</ele>
      </trkpt>
      <trkpt lat="44.52591" lon="4.55893">
        <ele>445.18359375</ele>
      </trkpt>
      <trkpt lat="44.52577" lon="4.55897">
        <ele>445.16796875</ele>
      </trkpt>
      <trkpt lat="44.52566" lon="4.559">
        <ele>445.22265625</ele>
      </trkpt>
      <trkpt lat="44.52537" lon="4.55914">
        <ele>443.77734375</ele>
      </trkpt>
      <trkpt lat="44.52517" lon="4.5592">
        <ele>443.12109375</ele>
      </trkpt>
      <trkpt lat="44.52497" lon="4.55925">
        <ele>443.01171875</ele>
      </trkpt>
      <trkpt lat="44.52478" lon="4.55929">
        <ele>442.86328125</ele>
      </trkpt>
      <trkpt lat="44.52458" lon="4.55933">
        <ele>442.859375</ele>
      </trkpt>
      <trkpt lat="44.5245" lon="4.55933">
        <ele>442.87890625</ele>
      </trkpt>
      <trkpt lat="44.52442" lon="4.55933">
        <ele>442.9453125</ele>
      </trkpt>
      <trkpt lat="44.52432" lon="4.55931">
        <ele>443.09765625</ele>
      </trkpt>
      <trkpt lat="44.52423" lon="4.55929">
        <ele>443.2265625</ele>
      </trkpt>
      <trkpt lat="44.5241" lon="4.55922">
        <ele>443.2265625</ele>
      </trkpt>
      <trkpt lat="44.52388" lon="4.55913">
        <ele>443.12890625</ele>
      </trkpt>
      <trkpt lat="44.52362" lon="4.55899">
        <ele>442.8203125</ele>
      </trkpt>
      <trkpt lat="44.52341" lon="4.55888">
        <ele>443.265625</ele>
      </trkpt>
      <trkpt lat="44.52327" lon="4.55878">
        <ele>443.93359375</ele>
      </trkpt>
      <trkpt lat="44.52319" lon="4.55873">
        <ele>443.890625</ele>
      </trkpt>
      <trkpt lat="44.52308" lon="4.55868">
        <ele>443.83203125</ele>
      </trkpt>
      <trkpt lat="44.52302" lon="4.55866">
        <ele>443.79296875</ele>
      </trkpt>
      <trkpt lat="44.52297" lon="4.55865">
        <ele>443.75390625</ele>
      </trkpt>
      <trkpt lat="44.52293" lon="4.55865">
        <ele>443.64453125</ele>
      </trkpt>
      <trkpt lat="44.52287" lon="4.55864">
        <ele>443.546875</ele>
      </trkpt>
      <trkpt lat="44.5228" lon="4.55865">
        <ele>443.35546875</ele>
      </trkpt>
      <trkpt lat="44.52262" lon="4.55868">
        <ele>442.67578125</ele>
      </trkpt>
      <trkpt lat="44.52255" lon="4.55868">
        <ele>442.4609375</ele>
      </trkpt>
      <trkpt lat="44.5225" lon="4.55868">
        <ele>442.3671875</ele>
      </trkpt>
      <trkpt lat="44.52238" lon="4.5587">
        <ele>441.890625</ele>
      </trkpt>
      <trkpt lat="44.52227" lon="4.55874">
        <ele>441.546875</ele>
      </trkpt>
      <trkpt lat="44.52218" lon="4.55876">
        <ele>441.34765625</ele>
      </trkpt>
      <trkpt lat="44.52207" lon="4.55878">
        <ele>441.19921875</ele>
      </trkpt>
      <trkpt lat="44.52199" lon="4.55877">
        <ele>441.25</ele>
      </trkpt>
      <trkpt lat="44.52193" lon="4.55877">
        <ele>441.2890625</ele>
      </trkpt>
      <trkpt lat="44.5219" lon="4.55876">
        <ele>441.3203125</ele>
      </trkpt>
      <trkpt lat="44.52178" lon="4.55873">
        <ele>441.55078125</ele>
      </trkpt>
      <trkpt lat="44.52165" lon="4.55867">
        <ele>442.046875</ele>
      </trkpt>
      <trkpt lat="44.52148" lon="4.55861">
        <ele>442.59765625</ele>
      </trkpt>
      <trkpt lat="44.52134" lon="4.55855">
        <ele>442.71484375</ele>
      </trkpt>
      <trkpt lat="44.52123" lon="4.55852">
        <ele>442.86328125</ele>
      </trkpt>
      <trkpt lat="44.52113" lon="4.55848">
        <ele>443.125</ele>
      </trkpt>
      <trkpt lat="44.52103" lon="4.55844">
        <ele>443.46484375</ele>
      </trkpt>
      <trkpt lat="44.52084" lon="4.55838">
        <ele>443.87890625</ele>
      </trkpt>
      <trkpt lat="44.52077" lon="4.55836">
        <ele>443.91796875</ele>
      </trkpt>
      <trkpt lat="44.52059" lon="4.55834">
        <ele>443.76953125</ele>
      </trkpt>
      <trkpt lat="44.52049" lon="4.55833">
        <ele>443.828125</ele>
      </trkpt>
      <trkpt lat="44.52023" lon="4.55833">
        <ele>443.99609375</ele>
      </trkpt>
      <trkpt lat="44.52008" lon="4.55833">
        <ele>444.14453125</ele>
      </trkpt>
      <trkpt lat="44.5199" lon="4.55831">
        <ele>444.62109375</ele>
      </trkpt>
      <trkpt lat="44.51968" lon="4.5583">
        <ele>445.12890625</ele>
      </trkpt>
      <trkpt lat="44.51937" lon="4.55831">
        <ele>445.09765625</ele>
      </trkpt>
      <trkpt lat="44.51909" lon="4.55831">
        <ele>444.62109375</ele>
      </trkpt>
      <trkpt lat="44.519" lon="4.55831">
        <ele>444.2265625</ele>
      </trkpt>
      <trkpt lat="44.51894" lon="4.55829">
        <ele>443.9921875</ele>
      </trkpt>
      <trkpt lat="44.51885" lon="4.55826">
        <ele>443.6796875</ele>
      </trkpt>
      <trkpt lat="44.5188" lon="4.55825">
        <ele>443.55078125</ele>
      </trkpt>
      <trkpt lat="44.5187" lon="4.55819">
        <ele>443.31640625</ele>
      </trkpt>
      <trkpt lat="44.51861" lon="4.55815">
        <ele>442.6875</ele>
      </trkpt>
      <trkpt lat="44.51852" lon="4.55808">
        <ele>442.3671875</ele>
      </trkpt>
      <trkpt lat="44.51846" lon="4.55802">
        <ele>442.4609375</ele>
      </trkpt>
      <trkpt lat="44.51836" lon="4.55794">
        <ele>442.84375</ele>
      </trkpt>
      <trkpt lat="44.51829" lon="4.55788">
        <ele>443.484375</ele>
      </trkpt>
      <trkpt lat="44.51822" lon="4.55784">
        <ele>443.1484375</ele>
      </trkpt>
      <trkpt lat="44.51813" lon="4.55779">
        <ele>442.44921875</ele>
      </trkpt>
      <trkpt lat="44.51804" lon="4.55775">
        <ele>441.9296875</ele>
      </trkpt>
      <trkpt lat="44.51798" lon="4.5577">
        <ele>441.80078125</ele>
      </trkpt>
      <trkpt lat="44.51794" lon="4.55766">
        <ele>441.8671875</ele>
      </trkpt>
      <trkpt lat="44.51789" lon="4.5576">
        <ele>442.05859375</ele>
      </trkpt>
      <trkpt lat="44.51784" lon="4.55756">
        <ele>442.359375</ele>
      </trkpt>
      <trkpt lat="44.51777" lon="4.55751">
        <ele>442.7265625</ele>
      </trkpt>
      <trkpt lat="44.51726" lon="4.55715">
        <ele>444.12890625</ele>
      </trkpt>
      <trkpt lat="44.51719" lon="4.55709">
        <ele>444.39453125</ele>
      </trkpt>
      <trkpt lat="44.51713" lon="4.55708">
        <ele>444.28515625</ele>
      </trkpt>
      <trkpt lat="44.51708" lon="4.55708">
        <ele>444.16796875</ele>
      </trkpt>
      <trkpt lat="44.51704" lon="4.55708">
        <ele>444</ele>
      </trkpt>
      <trkpt lat="44.51696" lon="4.55709">
        <ele>443.484375</ele>
      </trkpt>
      <trkpt lat="44.5169" lon="4.55711">
        <ele>442.9375</ele>
      </trkpt>
      <trkpt lat="44.51683" lon="4.55712">
        <ele>442.01953125</ele>
      </trkpt>
      <trkpt lat="44.51674" lon="4.55712">
        <ele>440.546875</ele>
      </trkpt>
      <trkpt lat="44.51669" lon="4.55712">
        <ele>439.625</ele>
      </trkpt>
      <trkpt lat="44.5166" lon="4.5571">
        <ele>438.4453125</ele>
      </trkpt>
      <trkpt lat="44.51654" lon="4.55709">
        <ele>437.7109375</ele>
      </trkpt>
      <trkpt lat="44.51647" lon="4.55707">
        <ele>437.09765625</ele>
      </trkpt>
      <trkpt lat="44.5164" lon="4.55703">
        <ele>437.05078125</ele>
      </trkpt>
      <trkpt lat="44.51633" lon="4.55698">
        <ele>436.41015625</ele>
      </trkpt>
      <trkpt lat="44.51628" lon="4.55691">
        <ele>436.43359375</ele>
      </trkpt>
      <trkpt lat="44.51622" lon="4.55682">
        <ele>437.04296875</ele>
      </trkpt>
      <trkpt lat="44.51616" lon="4.55674">
        <ele>437.359375</ele>
      </trkpt>
      <trkpt lat="44.51611" lon="4.55665">
        <ele>438.56640625</ele>
      </trkpt>
      <trkpt lat="44.51607" lon="4.55656">
        <ele>440.04296875</ele>
      </trkpt>
      <trkpt lat="44.51601" lon="4.55647">
        <ele>441.359375</ele>
      </trkpt>
      <trkpt lat="44.51597" lon="4.55637">
        <ele>443.34375</ele>
      </trkpt>
      <trkpt lat="44.51593" lon="4.55628">
        <ele>445.16796875</ele>
      </trkpt>
      <trkpt lat="44.51581" lon="4.55607">
        <ele>447.96875</ele>
      </trkpt>
      <trkpt lat="44.51574" lon="4.55598">
        <ele>448.65234375</ele>
      </trkpt>
      <trkpt lat="44.51557" lon="4.55581">
        <ele>449.57421875</ele>
      </trkpt>
      <trkpt lat="44.51541" lon="4.55568">
        <ele>449.97265625</ele>
      </trkpt>
      <trkpt lat="44.51529" lon="4.55559">
        <ele>450.07421875</ele>
      </trkpt>
      <trkpt lat="44.51521" lon="4.55552">
        <ele>450.3828125</ele>
      </trkpt>
      <trkpt lat="44.51513" lon="4.55544">
        <ele>451.0078125</ele>
      </trkpt>
      <trkpt lat="44.51506" lon="4.55534">
        <ele>452.94140625</ele>
      </trkpt>
      <trkpt lat="44.51491" lon="4.55509">
        <ele>457.49609375</ele>
      </trkpt>
      <trkpt lat="44.51479" lon="4.55494">
        <ele>458.9921875</ele>
      </trkpt>
      <trkpt lat="44.51467" lon="4.55482">
        <ele>459.8515625</ele>
      </trkpt>
      <trkpt lat="44.51449" lon="4.5547">
        <ele>459.9921875</ele>
      </trkpt>
      <trkpt lat="44.51411" lon="4.55444">
        <ele>460.85546875</ele>
      </trkpt>
      <trkpt lat="44.51395" lon="4.55435">
        <ele>461.65234375</ele>
      </trkpt>
      <trkpt lat="44.51386" lon="4.55431">
        <ele>461.6328125</ele>
      </trkpt>
      <trkpt lat="44.51367" lon="4.55425">
        <ele>460.53515625</ele>
      </trkpt>
      <trkpt lat="44.51358" lon="4.55424">
        <ele>459.80078125</ele>
      </trkpt>
      <trkpt lat="44.51339" lon="4.55424">
        <ele>458.63671875</ele>
      </trkpt>
      <trkpt lat="44.51322" lon="4.55425">
        <ele>457.4453125</ele>
      </trkpt>
      <trkpt lat="44.51307" lon="4.55429">
        <ele>456.57421875</ele>
      </trkpt>
      <trkpt lat="44.51285" lon="4.55435">
        <ele>455.703125</ele>
      </trkpt>
      <trkpt lat="44.51265" lon="4.55442">
        <ele>454.93359375</ele>
      </trkpt>
      <trkpt lat="44.51257" lon="4.55443">
        <ele>454.6171875</ele>
      </trkpt>
      <trkpt lat="44.5125" lon="4.55441">
        <ele>454.390625</ele>
      </trkpt>
      <trkpt lat="44.51244" lon="4.55438">
        <ele>454.3046875</ele>
      </trkpt>
      <trkpt lat="44.51242" lon="4.55433">
        <ele>454.3828125</ele>
      </trkpt>
      <trkpt lat="44.51241" lon="4.55427">
        <ele>454.5625</ele>
      </trkpt>
      <trkpt lat="44.51226" lon="4.55428">
        <ele>453.90234375</ele>
      </trkpt>
      <trkpt lat="44.51203" lon="4.55431">
        <ele>452.484375</ele>
      </trkpt>
      <trkpt lat="44.51188" lon="4.55434">
        <ele>451.52734375</ele>
      </trkpt>
      <trkpt lat="44.51164" lon="4.5544">
        <ele>450.02734375</ele>
      </trkpt>
      <trkpt lat="44.51139" lon="4.55448">
        <ele>448.8671875</ele>
      </trkpt>
      <trkpt lat="44.51124" lon="4.55454">
        <ele>448.5625</ele>
      </trkpt>
      <trkpt lat="44.51094" lon="4.55468">
        <ele>447.88671875</ele>
      </trkpt>
      <trkpt lat="44.51071" lon="4.55479">
        <ele>446.94140625</ele>
      </trkpt>
      <trkpt lat="44.51049" lon="4.55492">
        <ele>446.6796875</ele>
      </trkpt>
      <trkpt lat="44.51034" lon="4.55498">
        <ele>446.9375</ele>
      </trkpt>
      <trkpt lat="44.5102" lon="4.55504">
        <ele>447.43359375</ele>
      </trkpt>
      <trkpt lat="44.51007" lon="4.55509">
        <ele>448.04296875</ele>
      </trkpt>
      <trkpt lat="44.51003" lon="4.55509">
        <ele>448.20703125</ele>
      </trkpt>
      <trkpt lat="44.51" lon="4.5551">
        <ele>448.28515625</ele>
      </trkpt>
      <trkpt lat="44.50997" lon="4.55512">
        <ele>448.3359375</ele>
      </trkpt>
      <trkpt lat="44.50987" lon="4.55513">
        <ele>448.58203125</ele>
      </trkpt>
      <trkpt lat="44.50981" lon="4.55513">
        <ele>448.72265625</ele>
      </trkpt>
      <trkpt lat="44.50972" lon="4.55513">
        <ele>448.91015625</ele>
      </trkpt>
      <trkpt lat="44.50957" lon="4.55511">
        <ele>449.42578125</ele>
      </trkpt>
      <trkpt lat="44.50945" lon="4.55508">
        <ele>449.87109375</ele>
      </trkpt>
      <trkpt lat="44.5093" lon="4.55504">
        <ele>449.75</ele>
      </trkpt>
      <trkpt lat="44.50919" lon="4.55501">
        <ele>449.71875</ele>
      </trkpt>
      <trkpt lat="44.50909" lon="4.55494">
        <ele>449.80859375</ele>
      </trkpt>
      <trkpt lat="44.50887" lon="4.55486">
        <ele>449.75390625</ele>
      </trkpt>
      <trkpt lat="44.50827" lon="4.55463">
        <ele>450.7890625</ele>
      </trkpt>
      <trkpt lat="44.5082" lon="4.55461">
        <ele>450.69921875</ele>
      </trkpt>
      <trkpt lat="44.508" lon="4.55451">
        <ele>450.2734375</ele>
      </trkpt>
      <trkpt lat="44.50777" lon="4.55439">
        <ele>449.6875</ele>
      </trkpt>
      <trkpt lat="44.50758" lon="4.55431">
        <ele>449.45703125</ele>
      </trkpt>
      <trkpt lat="44.50746" lon="4.55425">
        <ele>448.92578125</ele>
      </trkpt>
      <trkpt lat="44.50735" lon="4.55415">
        <ele>448.70703125</ele>
      </trkpt>
      <trkpt lat="44.5072" lon="4.55399">
        <ele>448.30859375</ele>
      </trkpt>
      <trkpt lat="44.50686" lon="4.55367">
        <ele>448.77734375</ele>
      </trkpt>
      <trkpt lat="44.50675" lon="4.55355">
        <ele>449.4296875</ele>
      </trkpt>
      <trkpt lat="44.50667" lon="4.55344">
        <ele>450.26953125</ele>
      </trkpt>
      <trkpt lat="44.50661" lon="4.55336">
        <ele>450.84765625</ele>
      </trkpt>
      <trkpt lat="44.50652" lon="4.55326">
        <ele>451.7265625</ele>
      </trkpt>
      <trkpt lat="44.50643" lon="4.55319">
        <ele>452.48828125</ele>
      </trkpt>
      <trkpt lat="44.50633" lon="4.55315">
        <ele>453.05859375</ele>
      </trkpt>
      <trkpt lat="44.50623" lon="4.55311">
        <ele>453.65234375</ele>
      </trkpt>
      <trkpt lat="44.50614" lon="4.55308">
        <ele>453.88671875</ele>
      </trkpt>
      <trkpt lat="44.50601" lon="4.55301">
        <ele>454.6328125</ele>
      </trkpt>
      <trkpt lat="44.50587" lon="4.55289">
        <ele>456.19140625</ele>
      </trkpt>
      <trkpt lat="44.50572" lon="4.55277">
        <ele>458.2421875</ele>
      </trkpt>
      <trkpt lat="44.5056" lon="4.55265">
        <ele>459.8203125</ele>
      </trkpt>
      <trkpt lat="44.50549" lon="4.55253">
        <ele>461.65625</ele>
      </trkpt>
      <trkpt lat="44.50539" lon="4.55242">
        <ele>463.89453125</ele>
      </trkpt>
      <trkpt lat="44.50529" lon="4.55229">
        <ele>466.46875</ele>
      </trkpt>
      <trkpt lat="44.50518" lon="4.55213">
        <ele>468.62109375</ele>
      </trkpt>
      <trkpt lat="44.50509" lon="4.55204">
        <ele>470.125</ele>
      </trkpt>
      <trkpt lat="44.50505" lon="4.552">
        <ele>470.734375</ele>
      </trkpt>
      <trkpt lat="44.505" lon="4.55198">
        <ele>471.19140625</ele>
      </trkpt>
      <trkpt lat="44.50491" lon="4.55195">
        <ele>471.96484375</ele>
      </trkpt>
      <trkpt lat="44.50477" lon="4.55182">
        <ele>474.171875</ele>
      </trkpt>
      <trkpt lat="44.50468" lon="4.55167">
        <ele>476.08203125</ele>
      </trkpt>
      <trkpt lat="44.50458" lon="4.55153">
        <ele>478.1328125</ele>
      </trkpt>
      <trkpt lat="44.50452" lon="4.55142">
        <ele>479.87109375</ele>
      </trkpt>
      <trkpt lat="44.50439" lon="4.55124">
        <ele>482.01171875</ele>
      </trkpt>
      <trkpt lat="44.5043" lon="4.55108">
        <ele>483.28515625</ele>
      </trkpt>
      <trkpt lat="44.50425" lon="4.55098">
        <ele>484.33203125</ele>
      </trkpt>
      <trkpt lat="44.50418" lon="4.55083">
        <ele>485.70703125</ele>
      </trkpt>
      <trkpt lat="44.50411" lon="4.55068">
        <ele>487</ele>
      </trkpt>
      <trkpt lat="44.504" lon="4.55049">
        <ele>489.23828125</ele>
      </trkpt>
      <trkpt lat="44.50393" lon="4.55041">
        <ele>489.875</ele>
      </trkpt>
      <trkpt lat="44.50389" lon="4.55036">
        <ele>490.08984375</ele>
      </trkpt>
      <trkpt lat="44.50376" lon="4.55012">
        <ele>491.80859375</ele>
      </trkpt>
      <trkpt lat="44.50371" lon="4.55003">
        <ele>492.89453125</ele>
      </trkpt>
      <trkpt lat="44.50375" lon="4.55005">
        <ele>492.56640625</ele>
      </trkpt>
      <trkpt lat="44.50386" lon="4.55007">
        <ele>491.984375</ele>
      </trkpt>
      <trkpt lat="44.50391" lon="4.55008">
        <ele>491.75</ele>
      </trkpt>
      <trkpt lat="44.50396" lon="4.55008">
        <ele>491.62109375</ele>
      </trkpt>
      <trkpt lat="44.50402" lon="4.55007">
        <ele>491.546875</ele>
      </trkpt>
      <trkpt lat="44.50406" lon="4.55003">
        <ele>491.57421875</ele>
      </trkpt>
      <trkpt lat="44.50418" lon="4.54994">
        <ele>491.07421875</ele>
      </trkpt>
      <trkpt lat="44.50428" lon="4.54989">
        <ele>490.546875</ele>
      </trkpt>
      <trkpt lat="44.50468" lon="4.54973">
        <ele>489.16796875</ele>
      </trkpt>
      <trkpt lat="44.50487" lon="4.54963">
        <ele>488.76953125</ele>
      </trkpt>
      <trkpt lat="44.50516" lon="4.5495">
        <ele>488.640625</ele>
      </trkpt>
      <trkpt lat="44.50542" lon="4.54941">
        <ele>488.93359375</ele>
      </trkpt>
      <trkpt lat="44.50559" lon="4.54939">
        <ele>489.578125</ele>
      </trkpt>
      <trkpt lat="44.50568" lon="4.54936">
        <ele>489.921875</ele>
      </trkpt>
      <trkpt lat="44.50577" lon="4.54934">
        <ele>490.34765625</ele>
      </trkpt>
      <trkpt lat="44.50585" lon="4.54932">
        <ele>490.8984375</ele>
      </trkpt>
      <trkpt lat="44.50594" lon="4.54926">
        <ele>491.66015625</ele>
      </trkpt>
      <trkpt lat="44.50615" lon="4.54909">
        <ele>493.98046875</ele>
      </trkpt>
      <trkpt lat="44.50632" lon="4.54897">
        <ele>496.296875</ele>
      </trkpt>
      <trkpt lat="44.50636" lon="4.54894">
        <ele>496.79296875</ele>
      </trkpt>
      <trkpt lat="44.50648" lon="4.54885">
        <ele>498.4921875</ele>
      </trkpt>
      <trkpt lat="44.50665" lon="4.54879">
        <ele>500.35546875</ele>
      </trkpt>
      <trkpt lat="44.50679" lon="4.54872">
        <ele>501.40625</ele>
      </trkpt>
      <trkpt lat="44.50693" lon="4.54862">
        <ele>502.359375</ele>
      </trkpt>
      <trkpt lat="44.50709" lon="4.54853">
        <ele>502.94140625</ele>
      </trkpt>
      <trkpt lat="44.50724" lon="4.54845">
        <ele>502.9609375</ele>
      </trkpt>
      <trkpt lat="44.50755" lon="4.5483">
        <ele>502.3828125</ele>
      </trkpt>
      <trkpt lat="44.50764" lon="4.54825">
        <ele>502.19921875</ele>
      </trkpt>
      <trkpt lat="44.50772" lon="4.54817">
        <ele>502.04296875</ele>
      </trkpt>
      <trkpt lat="44.50779" lon="4.54809">
        <ele>501.7265625</ele>
      </trkpt>
      <trkpt lat="44.50787" lon="4.548">
        <ele>501.26953125</ele>
      </trkpt>
      <trkpt lat="44.50798" lon="4.54783">
        <ele>500.51953125</ele>
      </trkpt>
      <trkpt lat="44.50805" lon="4.5477">
        <ele>500.00390625</ele>
      </trkpt>
      <trkpt lat="44.50807" lon="4.54763">
        <ele>499.61328125</ele>
      </trkpt>
      <trkpt lat="44.50811" lon="4.54755">
        <ele>499.14453125</ele>
      </trkpt>
      <trkpt lat="44.50816" lon="4.54747">
        <ele>498.60546875</ele>
      </trkpt>
      <trkpt lat="44.50819" lon="4.54742">
        <ele>498.2890625</ele>
      </trkpt>
      <trkpt lat="44.50823" lon="4.54736">
        <ele>497.93359375</ele>
      </trkpt>
      <trkpt lat="44.50833" lon="4.54722">
        <ele>497.0859375</ele>
      </trkpt>
      <trkpt lat="44.50851" lon="4.54695">
        <ele>495.35546875</ele>
      </trkpt>
      <trkpt lat="44.5086" lon="4.54679">
        <ele>493.98828125</ele>
      </trkpt>
      <trkpt lat="44.50872" lon="4.54663">
        <ele>492.1171875</ele>
      </trkpt>
      <trkpt lat="44.50877" lon="4.5465">
        <ele>491.0703125</ele>
      </trkpt>
      <trkpt lat="44.50892" lon="4.54627">
        <ele>489.3203125</ele>
      </trkpt>
      <trkpt lat="44.50898" lon="4.54619">
        <ele>488.859375</ele>
      </trkpt>
      <trkpt lat="44.50908" lon="4.54602">
        <ele>487.7421875</ele>
      </trkpt>
      <trkpt lat="44.50913" lon="4.54596">
        <ele>487.28515625</ele>
      </trkpt>
      <trkpt lat="44.50923" lon="4.54585">
        <ele>486.51953125</ele>
      </trkpt>
      <trkpt lat="44.50933" lon="4.54576">
        <ele>485.76953125</ele>
      </trkpt>
      <trkpt lat="44.5095" lon="4.54558">
        <ele>484.625</ele>
      </trkpt>
      <trkpt lat="44.50962" lon="4.54542">
        <ele>483.890625</ele>
      </trkpt>
      <trkpt lat="44.50973" lon="4.5453">
        <ele>482.7421875</ele>
      </trkpt>
      <trkpt lat="44.50989" lon="4.54517">
        <ele>480.98828125</ele>
      </trkpt>
      <trkpt lat="44.51003" lon="4.54502">
        <ele>478.70703125</ele>
      </trkpt>
      <trkpt lat="44.51012" lon="4.54494">
        <ele>477.26171875</ele>
      </trkpt>
      <trkpt lat="44.51019" lon="4.54491">
        <ele>476.26953125</ele>
      </trkpt>
      <trkpt lat="44.51026" lon="4.54489">
        <ele>475.16015625</ele>
      </trkpt>
      <trkpt lat="44.51036" lon="4.54484">
        <ele>473.51171875</ele>
      </trkpt>
      <trkpt lat="44.51044" lon="4.54478">
        <ele>472.17578125</ele>
      </trkpt>
      <trkpt lat="44.51054" lon="4.54471">
        <ele>470.76171875</ele>
      </trkpt>
      <trkpt lat="44.51057" lon="4.54468">
        <ele>470.28125</ele>
      </trkpt>
      <trkpt lat="44.5107" lon="4.54456">
        <ele>468.59375</ele>
      </trkpt>
      <trkpt lat="44.5108" lon="4.54451">
        <ele>467.50390625</ele>
      </trkpt>
      <trkpt lat="44.51086" lon="4.54451">
        <ele>467.01171875</ele>
      </trkpt>
      <trkpt lat="44.51099" lon="4.54453">
        <ele>466.25</ele>
      </trkpt>
      <trkpt lat="44.51104" lon="4.54452">
        <ele>465.90625</ele>
      </trkpt>
      <trkpt lat="44.51114" lon="4.54449">
        <ele>465.26171875</ele>
      </trkpt>
      <trkpt lat="44.51122" lon="4.54447">
        <ele>464.71875</ele>
      </trkpt>
      <trkpt lat="44.51144" lon="4.54436">
        <ele>462.484375</ele>
      </trkpt>
      <trkpt lat="44.51148" lon="4.54433">
        <ele>461.8828125</ele>
      </trkpt>
      <trkpt lat="44.51155" lon="4.54427">
        <ele>461.02734375</ele>
      </trkpt>
      <trkpt lat="44.51178" lon="4.54381">
        <ele>456.03125</ele>
      </trkpt>
      <trkpt lat="44.51195" lon="4.54354">
        <ele>451.73046875</ele>
      </trkpt>
      <trkpt lat="44.51204" lon="4.54342">
        <ele>449.640625</ele>
      </trkpt>
      <trkpt lat="44.51209" lon="4.54336">
        <ele>448.71484375</ele>
      </trkpt>
      <trkpt lat="44.51217" lon="4.5433">
        <ele>447.7890625</ele>
      </trkpt>
      <trkpt lat="44.51234" lon="4.54316">
        <ele>445.43359375</ele>
      </trkpt>
      <trkpt lat="44.51245" lon="4.54305">
        <ele>444.39453125</ele>
      </trkpt>
      <trkpt lat="44.51252" lon="4.54295">
        <ele>443.9296875</ele>
      </trkpt>
      <trkpt lat="44.51265" lon="4.5428">
        <ele>444.57421875</ele>
      </trkpt>
      <trkpt lat="44.51278" lon="4.54262">
        <ele>445.66796875</ele>
      </trkpt>
      <trkpt lat="44.51289" lon="4.54243">
        <ele>444.8515625</ele>
      </trkpt>
      <trkpt lat="44.51299" lon="4.54233">
        <ele>445.265625</ele>
      </trkpt>
      <trkpt lat="44.51309" lon="4.54224">
        <ele>446.47265625</ele>
      </trkpt>
      <trkpt lat="44.51316" lon="4.54216">
        <ele>447.828125</ele>
      </trkpt>
      <trkpt lat="44.51322" lon="4.54209">
        <ele>447.4375</ele>
      </trkpt>
      <trkpt lat="44.51328" lon="4.54201">
        <ele>446.97265625</ele>
      </trkpt>
      <trkpt lat="44.51333" lon="4.54192">
        <ele>446.7265625</ele>
      </trkpt>
      <trkpt lat="44.51348" lon="4.54171">
        <ele>447.23828125</ele>
      </trkpt>
      <trkpt lat="44.51374" lon="4.54138">
        <ele>445.84765625</ele>
      </trkpt>
      <trkpt lat="44.51383" lon="4.54126">
        <ele>445.1484375</ele>
      </trkpt>
      <trkpt lat="44.51389" lon="4.54117">
        <ele>444.8828125</ele>
      </trkpt>
      <trkpt lat="44.51396" lon="4.54105">
        <ele>444.64453125</ele>
      </trkpt>
      <trkpt lat="44.51408" lon="4.5408">
        <ele>445.39453125</ele>
      </trkpt>
      <trkpt lat="44.51416" lon="4.54066">
        <ele>444.796875</ele>
      </trkpt>
      <trkpt lat="44.51423" lon="4.54054">
        <ele>444.29296875</ele>
      </trkpt>
      <trkpt lat="44.51434" lon="4.5404">
        <ele>444.05078125</ele>
      </trkpt>
      <trkpt lat="44.5145" lon="4.5402">
        <ele>444.25390625</ele>
      </trkpt>
      <trkpt lat="44.51468" lon="4.53997">
        <ele>444.33984375</ele>
      </trkpt>
      <trkpt lat="44.51478" lon="4.53982">
        <ele>444.83984375</ele>
      </trkpt>
      <trkpt lat="44.51489" lon="4.5397">
        <ele>444.76953125</ele>
      </trkpt>
      <trkpt lat="44.51494" lon="4.53967">
        <ele>444.78515625</ele>
      </trkpt>
      <trkpt lat="44.515" lon="4.53965">
        <ele>444.80859375</ele>
      </trkpt>
      <trkpt lat="44.51506" lon="4.53965">
        <ele>444.70703125</ele>
      </trkpt>
      <trkpt lat="44.51512" lon="4.53966">
        <ele>444.5859375</ele>
      </trkpt>
      <trkpt lat="44.51518" lon="4.53967">
        <ele>444.453125</ele>
      </trkpt>
      <trkpt lat="44.51535" lon="4.53972">
        <ele>444.1640625</ele>
      </trkpt>
      <trkpt lat="44.51546" lon="4.53977">
        <ele>444.015625</ele>
      </trkpt>
      <trkpt lat="44.51557" lon="4.53982">
        <ele>443.875</ele>
      </trkpt>
      <trkpt lat="44.51567" lon="4.53986">
        <ele>443.484375</ele>
      </trkpt>
      <trkpt lat="44.51575" lon="4.5399">
        <ele>443.12109375</ele>
      </trkpt>
      <trkpt lat="44.51586" lon="4.53996">
        <ele>442.65234375</ele>
      </trkpt>
      <trkpt lat="44.51591" lon="4.53999">
        <ele>442.44921875</ele>
      </trkpt>
      <trkpt lat="44.5162" lon="4.54009">
        <ele>441.84375</ele>
      </trkpt>
      <trkpt lat="44.51647" lon="4.54023">
        <ele>441.51953125</ele>
      </trkpt>
      <trkpt lat="44.51674" lon="4.54037">
        <ele>440.87890625</ele>
      </trkpt>
      <trkpt lat="44.51696" lon="4.54045">
        <ele>438.953125</ele>
      </trkpt>
      <trkpt lat="44.51718" lon="4.54051">
        <ele>435.203125</ele>
      </trkpt>
      <trkpt lat="44.51727" lon="4.54054">
        <ele>433.59765625</ele>
      </trkpt>
      <trkpt lat="44.51738" lon="4.54059">
        <ele>431.796875</ele>
      </trkpt>
      <trkpt lat="44.51759" lon="4.54065">
        <ele>428.85546875</ele>
      </trkpt>
      <trkpt lat="44.51774" lon="4.54068">
        <ele>426.77734375</ele>
      </trkpt>
      <trkpt lat="44.51787" lon="4.54071">
        <ele>425.80859375</ele>
      </trkpt>
      <trkpt lat="44.51805" lon="4.54073">
        <ele>424.7890625</ele>
      </trkpt>
      <trkpt lat="44.51822" lon="4.54077">
        <ele>423.796875</ele>
      </trkpt>
      <trkpt lat="44.51851" lon="4.54082">
        <ele>421.6328125</ele>
      </trkpt>
      <trkpt lat="44.51859" lon="4.54084">
        <ele>421.01953125</ele>
      </trkpt>
      <trkpt lat="44.51866" lon="4.54087">
        <ele>420.49609375</ele>
      </trkpt>
      <trkpt lat="44.51874" lon="4.54089">
        <ele>419.7109375</ele>
      </trkpt>
      <trkpt lat="44.51881" lon="4.54087">
        <ele>419.08203125</ele>
      </trkpt>
      <trkpt lat="44.51884" lon="4.54083">
        <ele>418.83984375</ele>
      </trkpt>
      <trkpt lat="44.51888" lon="4.54074">
        <ele>418.54296875</ele>
      </trkpt>
      <trkpt lat="44.51894" lon="4.54054">
        <ele>416.6640625</ele>
      </trkpt>
      <trkpt lat="44.51897" lon="4.5404">
        <ele>415.5</ele>
      </trkpt>
      <trkpt lat="44.519" lon="4.54032">
        <ele>414.82421875</ele>
      </trkpt>
      <trkpt lat="44.51901" lon="4.54027">
        <ele>414.21484375</ele>
      </trkpt>
      <trkpt lat="44.519" lon="4.5402">
        <ele>413.23828125</ele>
      </trkpt>
      <trkpt lat="44.51895" lon="4.54014">
        <ele>412.609375</ele>
      </trkpt>
      <trkpt lat="44.5189" lon="4.54013">
        <ele>412.6015625</ele>
      </trkpt>
      <trkpt lat="44.51881" lon="4.54011">
        <ele>412.6875</ele>
      </trkpt>
      <trkpt lat="44.51856" lon="4.54007">
        <ele>412.796875</ele>
      </trkpt>
      <trkpt lat="44.51846" lon="4.54005">
        <ele>412.5390625</ele>
      </trkpt>
      <trkpt lat="44.51836" lon="4.54002">
        <ele>412.1328125</ele>
      </trkpt>
      <trkpt lat="44.51808" lon="4.53989">
        <ele>411.28125</ele>
      </trkpt>
      <trkpt lat="44.51795" lon="4.53981">
        <ele>411.09765625</ele>
      </trkpt>
      <trkpt lat="44.51786" lon="4.5397">
        <ele>410.29296875</ele>
      </trkpt>
      <trkpt lat="44.51772" lon="4.53954">
        <ele>410.32421875</ele>
      </trkpt>
      <trkpt lat="44.51762" lon="4.53939">
        <ele>411.01953125</ele>
      </trkpt>
      <trkpt lat="44.51755" lon="4.53928">
        <ele>412.27734375</ele>
      </trkpt>
      <trkpt lat="44.51744" lon="4.53913">
        <ele>414.4453125</ele>
      </trkpt>
      <trkpt lat="44.51741" lon="4.5391">
        <ele>414.91796875</ele>
      </trkpt>
      <trkpt lat="44.51739" lon="4.53902">
        <ele>414.8046875</ele>
      </trkpt>
      <trkpt lat="44.5174" lon="4.53897">
        <ele>414.12109375</ele>
      </trkpt>
      <trkpt lat="44.51743" lon="4.53893">
        <ele>412.73828125</ele>
      </trkpt>
      <trkpt lat="44.51743" lon="4.53888">
        <ele>412.55859375</ele>
      </trkpt>
      <trkpt lat="44.51743" lon="4.53882">
        <ele>412.40234375</ele>
      </trkpt>
      <trkpt lat="44.51746" lon="4.53872">
        <ele>411.4296875</ele>
      </trkpt>
      <trkpt lat="44.51759" lon="4.53846">
        <ele>408.59765625</ele>
      </trkpt>
      <trkpt lat="44.51773" lon="4.53819">
        <ele>407.59375</ele>
      </trkpt>
      <trkpt lat="44.51779" lon="4.53805">
        <ele>407.6328125</ele>
      </trkpt>
      <trkpt lat="44.51782" lon="4.53792">
        <ele>407.57421875</ele>
      </trkpt>
      <trkpt lat="44.51784" lon="4.5378">
        <ele>407.40625</ele>
      </trkpt>
      <trkpt lat="44.51785" lon="4.53772">
        <ele>407.4765625</ele>
      </trkpt>
      <trkpt lat="44.51785" lon="4.53762">
        <ele>407.65625</ele>
      </trkpt>
      <trkpt lat="44.51782" lon="4.53748">
        <ele>408.0625</ele>
      </trkpt>
      <trkpt lat="44.51776" lon="4.53713">
        <ele>406.875</ele>
      </trkpt>
      <trkpt lat="44.51768" lon="4.53668">
        <ele>405.0625</ele>
      </trkpt>
      <trkpt lat="44.51763" lon="4.53638">
        <ele>404.5390625</ele>
      </trkpt>
      <trkpt lat="44.51761" lon="4.53626">
        <ele>404.45703125</ele>
      </trkpt>
      <trkpt lat="44.51761" lon="4.53621">
        <ele>404.32421875</ele>
      </trkpt>
      <trkpt lat="44.51761" lon="4.53617">
        <ele>404.21875</ele>
      </trkpt>
      <trkpt lat="44.51762" lon="4.5361">
        <ele>403.953125</ele>
      </trkpt>
      <trkpt lat="44.51765" lon="4.53599">
        <ele>403.3828125</ele>
      </trkpt>
      <trkpt lat="44.5177" lon="4.5358">
        <ele>402.51171875</ele>
      </trkpt>
      <trkpt lat="44.51774" lon="4.53563">
        <ele>401.80859375</ele>
      </trkpt>
      <trkpt lat="44.5178" lon="4.53547">
        <ele>400.8125</ele>
      </trkpt>
      <trkpt lat="44.51785" lon="4.53532">
        <ele>399.80078125</ele>
      </trkpt>
      <trkpt lat="44.5179" lon="4.53521">
        <ele>398.99609375</ele>
      </trkpt>
      <trkpt lat="44.51795" lon="4.53513">
        <ele>398.25390625</ele>
      </trkpt>
      <trkpt lat="44.51799" lon="4.53504">
        <ele>397.734375</ele>
      </trkpt>
      <trkpt lat="44.51801" lon="4.53497">
        <ele>397.47265625</ele>
      </trkpt>
      <trkpt lat="44.51802" lon="4.53491">
        <ele>397.3515625</ele>
      </trkpt>
      <trkpt lat="44.51802" lon="4.53486">
        <ele>397.2578125</ele>
      </trkpt>
      <trkpt lat="44.51802" lon="4.53479">
        <ele>397.18359375</ele>
      </trkpt>
      <trkpt lat="44.51802" lon="4.53475">
        <ele>397.125</ele>
      </trkpt>
      <trkpt lat="44.51802" lon="4.53468">
        <ele>397.00390625</ele>
      </trkpt>
      <trkpt lat="44.51802" lon="4.53463">
        <ele>396.91796875</ele>
      </trkpt>
      <trkpt lat="44.51802" lon="4.53457">
        <ele>396.8125</ele>
      </trkpt>
      <trkpt lat="44.51803" lon="4.53447">
        <ele>396.640625</ele>
      </trkpt>
      <trkpt lat="44.51805" lon="4.5343">
        <ele>396.453125</ele>
      </trkpt>
      <trkpt lat="44.51807" lon="4.53413">
        <ele>396.203125</ele>
      </trkpt>
      <trkpt lat="44.51808" lon="4.53402">
        <ele>396.1015625</ele>
      </trkpt>
      <trkpt lat="44.51811" lon="4.5339">
        <ele>396.234375</ele>
      </trkpt>
      <trkpt lat="44.51814" lon="4.53378">
        <ele>396.35546875</ele>
      </trkpt>
      <trkpt lat="44.51817" lon="4.53364">
        <ele>396.31640625</ele>
      </trkpt>
      <trkpt lat="44.51821" lon="4.53335">
        <ele>396.23046875</ele>
      </trkpt>
      <trkpt lat="44.51822" lon="4.53325">
        <ele>395.8125</ele>
      </trkpt>
      <trkpt lat="44.51822" lon="4.53317">
        <ele>395.3828125</ele>
      </trkpt>
      <trkpt lat="44.51822" lon="4.53296">
        <ele>394.26953125</ele>
      </trkpt>
      <trkpt lat="44.51819" lon="4.53283">
        <ele>393.26171875</ele>
      </trkpt>
      <trkpt lat="44.51818" lon="4.53271">
        <ele>392.5625</ele>
      </trkpt>
      <trkpt lat="44.51813" lon="4.53235">
        <ele>390.8203125</ele>
      </trkpt>
      <trkpt lat="44.5181" lon="4.53214">
        <ele>391.0859375</ele>
      </trkpt>
      <trkpt lat="44.51804" lon="4.53194">
        <ele>391.5</ele>
      </trkpt>
      <trkpt lat="44.51799" lon="4.53175">
        <ele>392.5859375</ele>
      </trkpt>
      <trkpt lat="44.51793" lon="4.5316">
        <ele>393.390625</ele>
      </trkpt>
      <trkpt lat="44.51787" lon="4.53142">
        <ele>394.08984375</ele>
      </trkpt>
      <trkpt lat="44.51785" lon="4.5313">
        <ele>394.29296875</ele>
      </trkpt>
      <trkpt lat="44.51785" lon="4.5313">
        <ele>394.29296875</ele>
      </trkpt>
      <trkpt lat="44.5179" lon="4.53137">
        <ele>388.20001220703</ele>
        <time>2021-10-24T08:59:09Z</time>
      </trkpt>
      <trkpt lat="44.51791" lon="4.53129">
        <ele>394.79998779297</ele>
        <time>2020-05-01T15:06:15Z</time>
      </trkpt>
      <trkpt lat="44.51793" lon="4.53129">
        <ele>395.20001220703</ele>
        <time>2020-05-01T15:06:16Z</time>
      </trkpt>
      <trkpt lat="44.51794" lon="4.53129">
        <ele>395.20001220703</ele>
        <time>2020-05-01T15:06:17Z</time>
      </trkpt>
      <trkpt lat="44.51795" lon="4.53128">
        <ele>395.60000610352</ele>
        <time>2020-05-01T15:06:18Z</time>
      </trkpt>
      <trkpt lat="44.51795" lon="4.53128">
        <ele>397</ele>
        <time>2020-05-01T15:06:23Z</time>
      </trkpt>
      <trkpt lat="44.51794" lon="4.53128">
        <ele>397.39999389648</ele>
        <time>2020-05-01T15:06:36Z</time>
      </trkpt>
      <trkpt lat="44.51794" lon="4.53128">
        <ele>397.60000610352</ele>
        <time>2020-05-01T15:07:07Z</time>
      </trkpt>
      <trkpt lat="44.51794" lon="4.53128">
        <ele>397</ele>
        <time>2020-05-01T15:07:41Z</time>
      </trkpt>
      <trkpt lat="44.51794" lon="4.53128">
        <ele>396.79998779297</ele>
        <time>2020-05-01T15:08:03Z</time>
      </trkpt>
      <trkpt lat="44.51794" lon="4.53128">
        <ele>396</ele>
        <time>2020-05-01T15:08:21Z</time>
      </trkpt>
      <trkpt lat="44.51794" lon="4.53128">
        <ele>395.79998779297</ele>
        <time>2020-05-01T15:09:09Z</time>
      </trkpt>
      <trkpt lat="44.51794" lon="4.53128">
        <ele>395.79998779297</ele>
        <time>2020-05-01T15:09:12Z</time>
      </trkpt>
      <trkpt lat="44.51794" lon="4.53128">
        <ele>395.60000610352</ele>
        <time>2020-05-01T15:10:13Z</time>
      </trkpt>
      <trkpt lat="44.51795" lon="4.53127">
        <ele>395.39999389648</ele>
        <time>2020-05-01T15:10:14Z</time>
      </trkpt>
      <trkpt lat="44.51795" lon="4.53127">
        <ele>395.39999389648</ele>
        <time>2020-05-01T15:10:19Z</time>
      </trkpt>
      <trkpt lat="44.51796" lon="4.53128">
        <ele>395.60000610352</ele>
        <time>2020-05-01T15:10:23Z</time>
      </trkpt>
      <trkpt lat="44.51796" lon="4.53128">
        <ele>395.79998779297</ele>
        <time>2020-05-01T15:10:24Z</time>
      </trkpt>
      <trkpt lat="44.51797" lon="4.53128">
        <ele>396</ele>
        <time>2020-05-01T15:10:25Z</time>
      </trkpt>
      <trkpt lat="44.518" lon="4.53128">
        <ele>396</ele>
        <time>2020-05-01T15:10:27Z</time>
      </trkpt>
      <trkpt lat="44.51806" lon="4.53127">
        <ele>396</ele>
        <time>2020-05-01T15:10:30Z</time>
      </trkpt>
      <trkpt lat="44.51808" lon="4.53127">
        <ele>396</ele>
        <time>2020-05-01T15:10:31Z</time>
      </trkpt>
      <trkpt lat="44.51812" lon="4.53128">
        <ele>396</ele>
        <time>2020-05-01T15:10:33Z</time>
      </trkpt>
      <trkpt lat="44.51816" lon="4.53129">
        <ele>396.20001220703</ele>
        <time>2020-05-01T15:10:35Z</time>
      </trkpt>
      <trkpt lat="44.51819" lon="4.5313">
        <ele>396.20001220703</ele>
        <time>2020-05-01T15:10:36Z</time>
      </trkpt>
      <trkpt lat="44.51821" lon="4.5313">
        <ele>396.20001220703</ele>
        <time>2020-05-01T15:10:37Z</time>
      </trkpt>
      <trkpt lat="44.51823" lon="4.53131">
        <ele>396.20001220703</ele>
        <time>2020-05-01T15:10:38Z</time>
      </trkpt>
      <trkpt lat="44.5183" lon="4.53134">
        <ele>396</ele>
        <time>2020-05-01T15:10:41Z</time>
      </trkpt>
      <trkpt lat="44.51835" lon="4.53136">
        <ele>396</ele>
        <time>2020-05-01T15:10:43Z</time>
      </trkpt>
      <trkpt lat="44.51849" lon="4.53141">
        <ele>395.79998779297</ele>
        <time>2020-05-01T15:10:48Z</time>
      </trkpt>
      <trkpt lat="44.51852" lon="4.53141">
        <ele>395.79998779297</ele>
        <time>2020-05-01T15:10:49Z</time>
      </trkpt>
      <trkpt lat="44.51855" lon="4.53141">
        <ele>395.79998779297</ele>
        <time>2020-05-01T15:10:50Z</time>
      </trkpt>
      <trkpt lat="44.51858" lon="4.53142">
        <ele>395.60000610352</ele>
        <time>2020-05-01T15:10:51Z</time>
      </trkpt>
      <trkpt lat="44.51861" lon="4.53142">
        <ele>395.39999389648</ele>
        <time>2020-05-01T15:10:52Z</time>
      </trkpt>
      <trkpt lat="44.5187" lon="4.53142">
        <ele>395.20001220703</ele>
        <time>2020-05-01T15:10:55Z</time>
      </trkpt>
      <trkpt lat="44.51873" lon="4.53142">
        <ele>395</ele>
        <time>2020-05-01T15:10:56Z</time>
      </trkpt>
      <trkpt lat="44.51875" lon="4.53142">
        <ele>394.60000610352</ele>
        <time>2020-05-01T15:10:57Z</time>
      </trkpt>
      <trkpt lat="44.51878" lon="4.53142">
        <ele>394.39999389648</ele>
        <time>2020-05-01T15:10:58Z</time>
      </trkpt>
      <trkpt lat="44.5188" lon="4.53141">
        <ele>393.79998779297</ele>
        <time>2020-05-01T15:10:59Z</time>
      </trkpt>
      <trkpt lat="44.51883" lon="4.5314">
        <ele>393.39999389648</ele>
        <time>2020-05-01T15:11:00Z</time>
      </trkpt>
      <trkpt lat="44.51885" lon="4.53139">
        <ele>393</ele>
        <time>2020-05-01T15:11:01Z</time>
      </trkpt>
      <trkpt lat="44.51888" lon="4.53136">
        <ele>392</ele>
        <time>2020-05-01T15:11:02Z</time>
      </trkpt>
      <trkpt lat="44.51891" lon="4.53134">
        <ele>391.60000610352</ele>
        <time>2020-05-01T15:11:03Z</time>
      </trkpt>
      <trkpt lat="44.51898" lon="4.53128">
        <ele>390.20001220703</ele>
        <time>2020-05-01T15:11:05Z</time>
      </trkpt>
      <trkpt lat="44.51902" lon="4.53125">
        <ele>389.79998779297</ele>
        <time>2020-05-01T15:11:06Z</time>
      </trkpt>
      <trkpt lat="44.51905" lon="4.53122">
        <ele>389.20001220703</ele>
        <time>2020-05-01T15:11:07Z</time>
      </trkpt>
      <trkpt lat="44.5191" lon="4.53119">
        <ele>388.39999389648</ele>
        <time>2020-05-01T15:11:08Z</time>
      </trkpt>
      <trkpt lat="44.51914" lon="4.53117">
        <ele>388</ele>
        <time>2020-05-01T15:11:09Z</time>
      </trkpt>
      <trkpt lat="44.51918" lon="4.53115">
        <ele>387.20001220703</ele>
        <time>2020-05-01T15:11:10Z</time>
      </trkpt>
      <trkpt lat="44.51926" lon="4.53112">
        <ele>385.60000610352</ele>
        <time>2020-05-01T15:11:12Z</time>
      </trkpt>
      <trkpt lat="44.51931" lon="4.53111">
        <ele>385</ele>
        <time>2020-05-01T15:11:13Z</time>
      </trkpt>
      <trkpt lat="44.51936" lon="4.5311">
        <ele>384.39999389648</ele>
        <time>2020-05-01T15:11:14Z</time>
      </trkpt>
      <trkpt lat="44.5194" lon="4.53109">
        <ele>384.39999389648</ele>
        <time>2020-05-01T15:11:15Z</time>
      </trkpt>
      <trkpt lat="44.51944" lon="4.5311">
        <ele>383.20001220703</ele>
        <time>2020-05-01T15:11:16Z</time>
      </trkpt>
      <trkpt lat="44.51948" lon="4.5311">
        <ele>382</ele>
        <time>2020-05-01T15:11:17Z</time>
      </trkpt>
      <trkpt lat="44.51953" lon="4.53109">
        <ele>381.39999389648</ele>
        <time>2020-05-01T15:11:18Z</time>
      </trkpt>
      <trkpt lat="44.51958" lon="4.53109">
        <ele>380.79998779297</ele>
        <time>2020-05-01T15:11:19Z</time>
      </trkpt>
      <trkpt lat="44.51963" lon="4.53109">
        <ele>379.79998779297</ele>
        <time>2020-05-01T15:11:20Z</time>
      </trkpt>
      <trkpt lat="44.51968" lon="4.5311">
        <ele>379.39999389648</ele>
        <time>2020-05-01T15:11:21Z</time>
      </trkpt>
      <trkpt lat="44.51972" lon="4.5311">
        <ele>378.60000610352</ele>
        <time>2020-05-01T15:11:22Z</time>
      </trkpt>
      <trkpt lat="44.51977" lon="4.53112">
        <ele>377.79998779297</ele>
        <time>2020-05-01T15:11:23Z</time>
      </trkpt>
      <trkpt lat="44.51982" lon="4.53114">
        <ele>376.79998779297</ele>
        <time>2020-05-01T15:11:24Z</time>
      </trkpt>
      <trkpt lat="44.51987" lon="4.53116">
        <ele>375.79998779297</ele>
        <time>2020-05-01T15:11:25Z</time>
      </trkpt>
      <trkpt lat="44.51999" lon="4.53123">
        <ele>373.60000610352</ele>
        <time>2020-05-01T15:11:27Z</time>
      </trkpt>
      <trkpt lat="44.52004" lon="4.53125">
        <ele>373</ele>
        <time>2020-05-01T15:11:28Z</time>
      </trkpt>
      <trkpt lat="44.5201" lon="4.53128">
        <ele>372.20001220703</ele>
        <time>2020-05-01T15:11:29Z</time>
      </trkpt>
      <trkpt lat="44.52015" lon="4.5313">
        <ele>370.79998779297</ele>
        <time>2020-05-01T15:11:30Z</time>
      </trkpt>
      <trkpt lat="44.52021" lon="4.53133">
        <ele>369.79998779297</ele>
        <time>2020-05-01T15:11:31Z</time>
      </trkpt>
      <trkpt lat="44.52026" lon="4.53135">
        <ele>368.79998779297</ele>
        <time>2020-05-01T15:11:32Z</time>
      </trkpt>
      <trkpt lat="44.52032" lon="4.53139">
        <ele>367.39999389648</ele>
        <time>2020-05-01T15:11:33Z</time>
      </trkpt>
      <trkpt lat="44.52037" lon="4.53141">
        <ele>366.20001220703</ele>
        <time>2020-05-01T15:11:34Z</time>
      </trkpt>
      <trkpt lat="44.52043" lon="4.53144">
        <ele>365.39999389648</ele>
        <time>2020-05-01T15:11:35Z</time>
      </trkpt>
      <trkpt lat="44.52048" lon="4.53146">
        <ele>364.39999389648</ele>
        <time>2020-05-01T15:11:36Z</time>
      </trkpt>
      <trkpt lat="44.5206" lon="4.53151">
        <ele>363.20001220703</ele>
        <time>2020-05-01T15:11:38Z</time>
      </trkpt>
      <trkpt lat="44.52067" lon="4.53153">
        <ele>362.20001220703</ele>
        <time>2020-05-01T15:11:39Z</time>
      </trkpt>
      <trkpt lat="44.52074" lon="4.53154">
        <ele>361.60000610352</ele>
        <time>2020-05-01T15:11:40Z</time>
      </trkpt>
      <trkpt lat="44.52096" lon="4.53157">
        <ele>357.60000610352</ele>
        <time>2020-05-01T15:11:43Z</time>
      </trkpt>
      <trkpt lat="44.52104" lon="4.53157">
        <ele>356.60000610352</ele>
        <time>2020-05-01T15:11:44Z</time>
      </trkpt>
      <trkpt lat="44.52111" lon="4.53158">
        <ele>355.79998779297</ele>
        <time>2020-05-01T15:11:45Z</time>
      </trkpt>
      <trkpt lat="44.52125" lon="4.53159">
        <ele>353.20001220703</ele>
        <time>2020-05-01T15:11:47Z</time>
      </trkpt>
      <trkpt lat="44.52132" lon="4.53159">
        <ele>351.39999389648</ele>
        <time>2020-05-01T15:11:48Z</time>
      </trkpt>
      <trkpt lat="44.52139" lon="4.53159">
        <ele>350.20001220703</ele>
        <time>2020-05-01T15:11:49Z</time>
      </trkpt>
      <trkpt lat="44.52146" lon="4.53157">
        <ele>349.20001220703</ele>
        <time>2020-05-01T15:11:50Z</time>
      </trkpt>
      <trkpt lat="44.52153" lon="4.53155">
        <ele>348.60000610352</ele>
        <time>2020-05-01T15:11:51Z</time>
      </trkpt>
      <trkpt lat="44.52161" lon="4.53154">
        <ele>347.39999389648</ele>
        <time>2020-05-01T15:11:52Z</time>
      </trkpt>
      <trkpt lat="44.52175" lon="4.53151">
        <ele>345</ele>
        <time>2020-05-01T15:11:54Z</time>
      </trkpt>
      <trkpt lat="44.52189" lon="4.53148">
        <ele>343</ele>
        <time>2020-05-01T15:11:56Z</time>
      </trkpt>
      <trkpt lat="44.52195" lon="4.53147">
        <ele>342.60000610352</ele>
        <time>2020-05-01T15:11:57Z</time>
      </trkpt>
      <trkpt lat="44.52202" lon="4.53147">
        <ele>342.60000610352</ele>
        <time>2020-05-01T15:11:58Z</time>
      </trkpt>
      <trkpt lat="44.52208" lon="4.53147">
        <ele>342</ele>
        <time>2020-05-01T15:11:59Z</time>
      </trkpt>
      <trkpt lat="44.52215" lon="4.53146">
        <ele>340.60000610352</ele>
        <time>2020-05-01T15:12:00Z</time>
      </trkpt>
      <trkpt lat="44.52221" lon="4.53147">
        <ele>339.39999389648</ele>
        <time>2020-05-01T15:12:01Z</time>
      </trkpt>
      <trkpt lat="44.52227" lon="4.53147">
        <ele>338.20001220703</ele>
        <time>2020-05-01T15:12:02Z</time>
      </trkpt>
      <trkpt lat="44.52233" lon="4.53147">
        <ele>337.60000610352</ele>
        <time>2020-05-01T15:12:03Z</time>
      </trkpt>
      <trkpt lat="44.52239" lon="4.53146">
        <ele>336.79998779297</ele>
        <time>2020-05-01T15:12:04Z</time>
      </trkpt>
      <trkpt lat="44.52246" lon="4.53145">
        <ele>336</ele>
        <time>2020-05-01T15:12:05Z</time>
      </trkpt>
      <trkpt lat="44.52252" lon="4.53143">
        <ele>335.39999389648</ele>
        <time>2020-05-01T15:12:06Z</time>
      </trkpt>
      <trkpt lat="44.52258" lon="4.53141">
        <ele>334.20001220703</ele>
        <time>2020-05-01T15:12:07Z</time>
      </trkpt>
      <trkpt lat="44.52264" lon="4.53139">
        <ele>333.20001220703</ele>
        <time>2020-05-01T15:12:08Z</time>
      </trkpt>
      <trkpt lat="44.52271" lon="4.53137">
        <ele>332</ele>
        <time>2020-05-01T15:12:09Z</time>
      </trkpt>
      <trkpt lat="44.52278" lon="4.53137">
        <ele>330</ele>
        <time>2020-05-01T15:12:10Z</time>
      </trkpt>
      <trkpt lat="44.52284" lon="4.53136">
        <ele>328.79998779297</ele>
        <time>2020-05-01T15:12:11Z</time>
      </trkpt>
      <trkpt lat="44.5229" lon="4.53136">
        <ele>327.79998779297</ele>
        <time>2020-05-01T15:12:12Z</time>
      </trkpt>
      <trkpt lat="44.52296" lon="4.53136">
        <ele>326.60000610352</ele>
        <time>2020-05-01T15:12:13Z</time>
      </trkpt>
      <trkpt lat="44.52301" lon="4.53135">
        <ele>325.60000610352</ele>
        <time>2020-05-01T15:12:14Z</time>
      </trkpt>
      <trkpt lat="44.52306" lon="4.53136">
        <ele>325</ele>
        <time>2020-05-01T15:12:15Z</time>
      </trkpt>
      <trkpt lat="44.5231" lon="4.53138">
        <ele>324.20001220703</ele>
        <time>2020-05-01T15:12:16Z</time>
      </trkpt>
      <trkpt lat="44.52315" lon="4.53141">
        <ele>321.60000610352</ele>
        <time>2020-05-01T15:12:17Z</time>
      </trkpt>
      <trkpt lat="44.5232" lon="4.53144">
        <ele>320</ele>
        <time>2020-05-01T15:12:18Z</time>
      </trkpt>
      <trkpt lat="44.52325" lon="4.53147">
        <ele>319.20001220703</ele>
        <time>2020-05-01T15:12:19Z</time>
      </trkpt>
      <trkpt lat="44.52329" lon="4.53152">
        <ele>319.20001220703</ele>
        <time>2020-05-01T15:12:20Z</time>
      </trkpt>
      <trkpt lat="44.52332" lon="4.53157">
        <ele>318.79998779297</ele>
        <time>2020-05-01T15:12:21Z</time>
      </trkpt>
      <trkpt lat="44.52334" lon="4.53161">
        <ele>318</ele>
        <time>2020-05-01T15:12:22Z</time>
      </trkpt>
      <trkpt lat="44.52335" lon="4.53166">
        <ele>317.60000610352</ele>
        <time>2020-05-01T15:12:23Z</time>
      </trkpt>
      <trkpt lat="44.52336" lon="4.53171">
        <ele>317</ele>
        <time>2020-05-01T15:12:24Z</time>
      </trkpt>
      <trkpt lat="44.52335" lon="4.53193">
        <ele>313.20001220703</ele>
        <time>2020-05-01T15:12:28Z</time>
      </trkpt>
      <trkpt lat="44.52334" lon="4.53199">
        <ele>312.60000610352</ele>
        <time>2020-05-01T15:12:29Z</time>
      </trkpt>
      <trkpt lat="44.52334" lon="4.53204">
        <ele>312.20001220703</ele>
        <time>2020-05-01T15:12:30Z</time>
      </trkpt>
      <trkpt lat="44.52333" lon="4.53209">
        <ele>312</ele>
        <time>2020-05-01T15:12:31Z</time>
      </trkpt>
      <trkpt lat="44.52331" lon="4.53214">
        <ele>311.79998779297</ele>
        <time>2020-05-01T15:12:32Z</time>
      </trkpt>
      <trkpt lat="44.5233" lon="4.53219">
        <ele>311.79998779297</ele>
        <time>2020-05-01T15:12:33Z</time>
      </trkpt>
      <trkpt lat="44.52328" lon="4.53224">
        <ele>311.60000610352</ele>
        <time>2020-05-01T15:12:34Z</time>
      </trkpt>
      <trkpt lat="44.52327" lon="4.53229">
        <ele>311.60000610352</ele>
        <time>2020-05-01T15:12:35Z</time>
      </trkpt>
      <trkpt lat="44.52327" lon="4.53234">
        <ele>311.60000610352</ele>
        <time>2020-05-01T15:12:36Z</time>
      </trkpt>
      <trkpt lat="44.52327" lon="4.53239">
        <ele>311.60000610352</ele>
        <time>2020-05-01T15:12:37Z</time>
      </trkpt>
      <trkpt lat="44.52328" lon="4.53243">
        <ele>311.39999389648</ele>
        <time>2020-05-01T15:12:38Z</time>
      </trkpt>
      <trkpt lat="44.52329" lon="4.53245">
        <ele>311.39999389648</ele>
        <time>2020-05-01T15:12:39Z</time>
      </trkpt>
      <trkpt lat="44.52332" lon="4.53246">
        <ele>311.60000610352</ele>
        <time>2020-05-01T15:12:40Z</time>
      </trkpt>
      <trkpt lat="44.52334" lon="4.53247">
        <ele>311.60000610352</ele>
        <time>2020-05-01T15:12:41Z</time>
      </trkpt>
      <trkpt lat="44.52337" lon="4.53247">
        <ele>311.60000610352</ele>
        <time>2020-05-01T15:12:42Z</time>
      </trkpt>
      <trkpt lat="44.5234" lon="4.53247">
        <ele>311.39999389648</ele>
        <time>2020-05-01T15:12:43Z</time>
      </trkpt>
      <trkpt lat="44.52343" lon="4.53248">
        <ele>311.60000610352</ele>
        <time>2020-05-01T15:12:44Z</time>
      </trkpt>
      <trkpt lat="44.52346" lon="4.5325">
        <ele>311.39999389648</ele>
        <time>2020-05-01T15:12:45Z</time>
      </trkpt>
      <trkpt lat="44.52348" lon="4.53253">
        <ele>311.60000610352</ele>
        <time>2020-05-01T15:12:46Z</time>
      </trkpt>
      <trkpt lat="44.52348" lon="4.53257">
        <ele>311.60000610352</ele>
        <time>2020-05-01T15:12:47Z</time>
      </trkpt>
      <trkpt lat="44.52349" lon="4.53262">
        <ele>312</ele>
        <time>2020-05-01T15:12:48Z</time>
      </trkpt>
      <trkpt lat="44.52351" lon="4.53267">
        <ele>312</ele>
        <time>2020-05-01T15:12:49Z</time>
      </trkpt>
      <trkpt lat="44.52352" lon="4.53272">
        <ele>312.20001220703</ele>
        <time>2020-05-01T15:12:50Z</time>
      </trkpt>
      <trkpt lat="44.52358" lon="4.53287">
        <ele>312.39999389648</ele>
        <time>2020-05-01T15:12:53Z</time>
      </trkpt>
      <trkpt lat="44.5236" lon="4.53292">
        <ele>312.39999389648</ele>
        <time>2020-05-01T15:12:54Z</time>
      </trkpt>
      <trkpt lat="44.52361" lon="4.53297">
        <ele>312.39999389648</ele>
        <time>2020-05-01T15:12:55Z</time>
      </trkpt>
      <trkpt lat="44.52362" lon="4.53302">
        <ele>312.60000610352</ele>
        <time>2020-05-01T15:12:56Z</time>
      </trkpt>
      <trkpt lat="44.52362" lon="4.53307">
        <ele>312.60000610352</ele>
        <time>2020-05-01T15:12:57Z</time>
      </trkpt>
      <trkpt lat="44.52362" lon="4.53313">
        <ele>312.39999389648</ele>
        <time>2020-05-01T15:12:58Z</time>
      </trkpt>
      <trkpt lat="44.52362" lon="4.53318">
        <ele>312.60000610352</ele>
        <time>2020-05-01T15:12:59Z</time>
      </trkpt>
      <trkpt lat="44.52361" lon="4.53323">
        <ele>312.60000610352</ele>
        <time>2020-05-01T15:13:00Z</time>
      </trkpt>
      <trkpt lat="44.5236" lon="4.53328">
        <ele>312.60000610352</ele>
        <time>2020-05-01T15:13:01Z</time>
      </trkpt>
      <trkpt lat="44.52359" lon="4.53338">
        <ele>312.60000610352</ele>
        <time>2020-05-01T15:13:03Z</time>
      </trkpt>
      <trkpt lat="44.52355" lon="4.5337">
        <ele>313</ele>
        <time>2020-05-01T15:13:09Z</time>
      </trkpt>
      <trkpt lat="44.52354" lon="4.53376">
        <ele>313.20001220703</ele>
        <time>2020-05-01T15:13:10Z</time>
      </trkpt>
      <trkpt lat="44.52353" lon="4.53381">
        <ele>313.20001220703</ele>
        <time>2020-05-01T15:13:11Z</time>
      </trkpt>
      <trkpt lat="44.52353" lon="4.53386">
        <ele>313.39999389648</ele>
        <time>2020-05-01T15:13:12Z</time>
      </trkpt>
      <trkpt lat="44.52352" lon="4.53402">
        <ele>313.39999389648</ele>
        <time>2020-05-01T15:13:15Z</time>
      </trkpt>
      <trkpt lat="44.52352" lon="4.53407">
        <ele>313.39999389648</ele>
        <time>2020-05-01T15:13:16Z</time>
      </trkpt>
      <trkpt lat="44.52352" lon="4.53429">
        <ele>313.79998779297</ele>
        <time>2020-05-01T15:13:20Z</time>
      </trkpt>
      <trkpt lat="44.52352" lon="4.53434">
        <ele>314</ele>
        <time>2020-05-01T15:13:21Z</time>
      </trkpt>
      <trkpt lat="44.52352" lon="4.5344">
        <ele>314</ele>
        <time>2020-05-01T15:13:22Z</time>
      </trkpt>
      <trkpt lat="44.52352" lon="4.53451">
        <ele>314.20001220703</ele>
        <time>2020-05-01T15:13:24Z</time>
      </trkpt>
      <trkpt lat="44.52351" lon="4.53462">
        <ele>314.39999389648</ele>
        <time>2020-05-01T15:13:26Z</time>
      </trkpt>
      <trkpt lat="44.5235" lon="4.53473">
        <ele>314.39999389648</ele>
        <time>2020-05-01T15:13:28Z</time>
      </trkpt>
      <trkpt lat="44.5235" lon="4.53479">
        <ele>314.60000610352</ele>
        <time>2020-05-01T15:13:29Z</time>
      </trkpt>
      <trkpt lat="44.52348" lon="4.53496">
        <ele>314.79998779297</ele>
        <time>2020-05-01T15:13:32Z</time>
      </trkpt>
      <trkpt lat="44.52348" lon="4.53502">
        <ele>314.79998779297</ele>
        <time>2020-05-01T15:13:33Z</time>
      </trkpt>
      <trkpt lat="44.52348" lon="4.53507">
        <ele>315</ele>
        <time>2020-05-01T15:13:34Z</time>
      </trkpt>
      <trkpt lat="44.52348" lon="4.53512">
        <ele>315.20001220703</ele>
        <time>2020-05-01T15:13:35Z</time>
      </trkpt>
      <trkpt lat="44.52349" lon="4.53523">
        <ele>315.39999389648</ele>
        <time>2020-05-01T15:13:37Z</time>
      </trkpt>
      <trkpt lat="44.5235" lon="4.5353">
        <ele>315.39999389648</ele>
        <time>2020-05-01T15:13:38Z</time>
      </trkpt>
      <trkpt lat="44.5235" lon="4.53536">
        <ele>315.39999389648</ele>
        <time>2020-05-01T15:13:39Z</time>
      </trkpt>
      <trkpt lat="44.52349" lon="4.53542">
        <ele>315.60000610352</ele>
        <time>2020-05-01T15:13:40Z</time>
      </trkpt>
      <trkpt lat="44.52347" lon="4.53547">
        <ele>315.60000610352</ele>
        <time>2020-05-01T15:13:41Z</time>
      </trkpt>
      <trkpt lat="44.52345" lon="4.53552">
        <ele>315.60000610352</ele>
        <time>2020-05-01T15:13:42Z</time>
      </trkpt>
      <trkpt lat="44.52338" lon="4.5356">
        <ele>315.60000610352</ele>
        <time>2020-05-01T15:13:44Z</time>
      </trkpt>
      <trkpt lat="44.52332" lon="4.53569">
        <ele>315.60000610352</ele>
        <time>2020-05-01T15:13:46Z</time>
      </trkpt>
      <trkpt lat="44.52329" lon="4.53574">
        <ele>315.79998779297</ele>
        <time>2020-05-01T15:13:47Z</time>
      </trkpt>
      <trkpt lat="44.52327" lon="4.53579">
        <ele>315.79998779297</ele>
        <time>2020-05-01T15:13:48Z</time>
      </trkpt>
      <trkpt lat="44.52324" lon="4.53583">
        <ele>315.79998779297</ele>
        <time>2020-05-01T15:13:49Z</time>
      </trkpt>
      <trkpt lat="44.52322" lon="4.53587">
        <ele>316</ele>
        <time>2020-05-01T15:13:50Z</time>
      </trkpt>
      <trkpt lat="44.52321" lon="4.53592">
        <ele>315.79998779297</ele>
        <time>2020-05-01T15:13:51Z</time>
      </trkpt>
      <trkpt lat="44.52319" lon="4.53596">
        <ele>316</ele>
        <time>2020-05-01T15:13:52Z</time>
      </trkpt>
      <trkpt lat="44.52318" lon="4.536">
        <ele>316.20001220703</ele>
        <time>2020-05-01T15:13:53Z</time>
      </trkpt>
      <trkpt lat="44.52317" lon="4.53602">
        <ele>316.20001220703</ele>
        <time>2020-05-01T15:13:54Z</time>
      </trkpt>
      <trkpt lat="44.52316" lon="4.53604">
        <ele>316.20001220703</ele>
        <time>2020-05-01T15:13:55Z</time>
      </trkpt>
      <trkpt lat="44.52316" lon="4.53606">
        <ele>316.39999389648</ele>
        <time>2020-05-01T15:13:56Z</time>
      </trkpt>
      <trkpt lat="44.52315" lon="4.53608">
        <ele>316.39999389648</ele>
        <time>2020-05-01T15:13:57Z</time>
      </trkpt>
      <trkpt lat="44.52314" lon="4.53614">
        <ele>316.60000610352</ele>
        <time>2020-05-01T15:13:59Z</time>
      </trkpt>
      <trkpt lat="44.52314" lon="4.53619">
        <ele>316.79998779297</ele>
        <time>2020-05-01T15:14:01Z</time>
      </trkpt>
      <trkpt lat="44.52313" lon="4.53622">
        <ele>317</ele>
        <time>2020-05-01T15:14:02Z</time>
      </trkpt>
      <trkpt lat="44.52313" lon="4.53624">
        <ele>317</ele>
        <time>2020-05-01T15:14:03Z</time>
      </trkpt>
      <trkpt lat="44.52313" lon="4.53625">
        <ele>316.79998779297</ele>
        <time>2020-05-01T15:14:04Z</time>
      </trkpt>
      <trkpt lat="44.52313" lon="4.53627">
        <ele>316.79998779297</ele>
        <time>2020-05-01T15:14:05Z</time>
      </trkpt>
      <trkpt lat="44.52313" lon="4.53629">
        <ele>316.79998779297</ele>
        <time>2020-05-01T15:14:06Z</time>
      </trkpt>
      <trkpt lat="44.52312" lon="4.53631">
        <ele>316.79998779297</ele>
        <time>2020-05-01T15:14:07Z</time>
      </trkpt>
      <trkpt lat="44.52311" lon="4.53633">
        <ele>316.79998779297</ele>
        <time>2020-05-01T15:14:08Z</time>
      </trkpt>
      <trkpt lat="44.52309" lon="4.53638">
        <ele>316.79998779297</ele>
        <time>2020-05-01T15:14:10Z</time>
      </trkpt>
      <trkpt lat="44.52308" lon="4.53641">
        <ele>316.79998779297</ele>
        <time>2020-05-01T15:14:11Z</time>
      </trkpt>
      <trkpt lat="44.52306" lon="4.53645">
        <ele>316.79998779297</ele>
        <time>2020-05-01T15:14:13Z</time>
      </trkpt>
      <trkpt lat="44.52305" lon="4.53648">
        <ele>316.79998779297</ele>
        <time>2020-05-01T15:14:14Z</time>
      </trkpt>
      <trkpt lat="44.52304" lon="4.53651">
        <ele>316.79998779297</ele>
        <time>2020-05-01T15:14:15Z</time>
      </trkpt>
      <trkpt lat="44.52303" lon="4.53654">
        <ele>316.79998779297</ele>
        <time>2020-05-01T15:14:16Z</time>
      </trkpt>
      <trkpt lat="44.52302" lon="4.53657">
        <ele>316.60000610352</ele>
        <time>2020-05-01T15:14:17Z</time>
      </trkpt>
      <trkpt lat="44.52301" lon="4.53661">
        <ele>316.60000610352</ele>
        <time>2020-05-01T15:14:18Z</time>
      </trkpt>
      <trkpt lat="44.52301" lon="4.53665">
        <ele>316.79998779297</ele>
        <time>2020-05-01T15:14:19Z</time>
      </trkpt>
      <trkpt lat="44.52302" lon="4.53669">
        <ele>316.79998779297</ele>
        <time>2020-05-01T15:14:20Z</time>
      </trkpt>
      <trkpt lat="44.52303" lon="4.53674">
        <ele>317</ele>
        <time>2020-05-01T15:14:21Z</time>
      </trkpt>
      <trkpt lat="44.52304" lon="4.53678">
        <ele>317.20001220703</ele>
        <time>2020-05-01T15:14:22Z</time>
      </trkpt>
      <trkpt lat="44.52307" lon="4.53691">
        <ele>317.79998779297</ele>
        <time>2020-05-01T15:14:25Z</time>
      </trkpt>
      <trkpt lat="44.52308" lon="4.53693">
        <ele>317.79998779297</ele>
        <time>2020-05-01T15:14:26Z</time>
      </trkpt>
      <trkpt lat="44.52307" lon="4.53693">
        <ele>318.20001220703</ele>
        <time>2020-05-01T15:14:27Z</time>
      </trkpt>
      <trkpt lat="44.52307" lon="4.53693">
        <ele>319</ele>
        <time>2020-05-01T15:14:39Z</time>
      </trkpt>
      <trkpt lat="44.52307" lon="4.53693">
        <ele>319</ele>
        <time>2020-05-01T15:15:00Z</time>
      </trkpt>
      <trkpt lat="44.52308" lon="4.53695">
        <ele>319</ele>
        <time>2020-05-01T15:15:07Z</time>
      </trkpt>
      <trkpt lat="44.52309" lon="4.537">
        <ele>318.79998779297</ele>
        <time>2020-05-01T15:15:09Z</time>
      </trkpt>
      <trkpt lat="44.52309" lon="4.53703">
        <ele>319</ele>
        <time>2020-05-01T15:15:10Z</time>
      </trkpt>
      <trkpt lat="44.52311" lon="4.53717">
        <ele>319</ele>
        <time>2020-05-01T15:15:13Z</time>
      </trkpt>
      <trkpt lat="44.52313" lon="4.53723">
        <ele>319</ele>
        <time>2020-05-01T15:15:14Z</time>
      </trkpt>
      <trkpt lat="44.52316" lon="4.53728">
        <ele>319</ele>
        <time>2020-05-01T15:15:15Z</time>
      </trkpt>
      <trkpt lat="44.52322" lon="4.53739">
        <ele>319</ele>
        <time>2020-05-01T15:15:17Z</time>
      </trkpt>
      <trkpt lat="44.52326" lon="4.53751">
        <ele>319</ele>
        <time>2020-05-01T15:15:19Z</time>
      </trkpt>
      <trkpt lat="44.52329" lon="4.53757">
        <ele>319</ele>
        <time>2020-05-01T15:15:20Z</time>
      </trkpt>
      <trkpt lat="44.52332" lon="4.53763">
        <ele>319</ele>
        <time>2020-05-01T15:15:21Z</time>
      </trkpt>
      <trkpt lat="44.52335" lon="4.53769">
        <ele>319</ele>
        <time>2020-05-01T15:15:22Z</time>
      </trkpt>
      <trkpt lat="44.52339" lon="4.53774">
        <ele>319</ele>
        <time>2020-05-01T15:15:23Z</time>
      </trkpt>
      <trkpt lat="44.52342" lon="4.5378">
        <ele>319</ele>
        <time>2020-05-01T15:15:24Z</time>
      </trkpt>
      <trkpt lat="44.52344" lon="4.53785">
        <ele>319.20001220703</ele>
        <time>2020-05-01T15:15:25Z</time>
      </trkpt>
      <trkpt lat="44.52347" lon="4.53791">
        <ele>319.39999389648</ele>
        <time>2020-05-01T15:15:26Z</time>
      </trkpt>
      <trkpt lat="44.52354" lon="4.53804">
        <ele>319.39999389648</ele>
        <time>2020-05-01T15:15:28Z</time>
      </trkpt>
      <trkpt lat="44.52357" lon="4.5381">
        <ele>319.60000610352</ele>
        <time>2020-05-01T15:15:29Z</time>
      </trkpt>
      <trkpt lat="44.52359" lon="4.53817">
        <ele>319.79998779297</ele>
        <time>2020-05-01T15:15:30Z</time>
      </trkpt>
      <trkpt lat="44.52361" lon="4.53825">
        <ele>319.79998779297</ele>
        <time>2020-05-01T15:15:31Z</time>
      </trkpt>
      <trkpt lat="44.52363" lon="4.53832">
        <ele>319.79998779297</ele>
        <time>2020-05-01T15:15:32Z</time>
      </trkpt>
      <trkpt lat="44.52364" lon="4.53839">
        <ele>320</ele>
        <time>2020-05-01T15:15:33Z</time>
      </trkpt>
      <trkpt lat="44.52366" lon="4.53846">
        <ele>320</ele>
        <time>2020-05-01T15:15:34Z</time>
      </trkpt>
      <trkpt lat="44.52368" lon="4.53854">
        <ele>320.20001220703</ele>
        <time>2020-05-01T15:15:35Z</time>
      </trkpt>
      <trkpt lat="44.52369" lon="4.5386">
        <ele>320.20001220703</ele>
        <time>2020-05-01T15:15:36Z</time>
      </trkpt>
      <trkpt lat="44.52371" lon="4.53867">
        <ele>320.39999389648</ele>
        <time>2020-05-01T15:15:37Z</time>
      </trkpt>
      <trkpt lat="44.52371" lon="4.53874">
        <ele>320.39999389648</ele>
        <time>2020-05-01T15:15:38Z</time>
      </trkpt>
      <trkpt lat="44.52371" lon="4.53881">
        <ele>320.79998779297</ele>
        <time>2020-05-01T15:15:39Z</time>
      </trkpt>
      <trkpt lat="44.52371" lon="4.53888">
        <ele>321.20001220703</ele>
        <time>2020-05-01T15:15:40Z</time>
      </trkpt>
      <trkpt lat="44.52372" lon="4.53895">
        <ele>321.39999389648</ele>
        <time>2020-05-01T15:15:41Z</time>
      </trkpt>
      <trkpt lat="44.52372" lon="4.539">
        <ele>321.60000610352</ele>
        <time>2020-05-01T15:15:42Z</time>
      </trkpt>
      <trkpt lat="44.52373" lon="4.53905">
        <ele>321.39999389648</ele>
        <time>2020-05-01T15:15:43Z</time>
      </trkpt>
      <trkpt lat="44.52375" lon="4.5391">
        <ele>321.79998779297</ele>
        <time>2020-05-01T15:15:44Z</time>
      </trkpt>
      <trkpt lat="44.52377" lon="4.53914">
        <ele>321.79998779297</ele>
        <time>2020-05-01T15:15:45Z</time>
      </trkpt>
      <trkpt lat="44.52378" lon="4.53918">
        <ele>322.39999389648</ele>
        <time>2020-05-01T15:15:46Z</time>
      </trkpt>
      <trkpt lat="44.5238" lon="4.53922">
        <ele>322.39999389648</ele>
        <time>2020-05-01T15:15:47Z</time>
      </trkpt>
      <trkpt lat="44.52382" lon="4.53924">
        <ele>322.60000610352</ele>
        <time>2020-05-01T15:15:48Z</time>
      </trkpt>
      <trkpt lat="44.52384" lon="4.53927">
        <ele>322.60000610352</ele>
        <time>2020-05-01T15:15:49Z</time>
      </trkpt>
      <trkpt lat="44.52385" lon="4.5393">
        <ele>322.79998779297</ele>
        <time>2020-05-01T15:15:50Z</time>
      </trkpt>
      <trkpt lat="44.52387" lon="4.53932">
        <ele>323</ele>
        <time>2020-05-01T15:15:51Z</time>
      </trkpt>
      <trkpt lat="44.52388" lon="4.53936">
        <ele>322.79998779297</ele>
        <time>2020-05-01T15:15:52Z</time>
      </trkpt>
      <trkpt lat="44.52389" lon="4.53939">
        <ele>322.79998779297</ele>
        <time>2020-05-01T15:15:53Z</time>
      </trkpt>
      <trkpt lat="44.52389" lon="4.53943">
        <ele>322.79998779297</ele>
        <time>2020-05-01T15:15:54Z</time>
      </trkpt>
      <trkpt lat="44.52389" lon="4.53947">
        <ele>322.79998779297</ele>
        <time>2020-05-01T15:15:55Z</time>
      </trkpt>
      <trkpt lat="44.5239" lon="4.53951">
        <ele>323</ele>
        <time>2020-05-01T15:15:56Z</time>
      </trkpt>
      <trkpt lat="44.52391" lon="4.53954">
        <ele>323.20001220703</ele>
        <time>2020-05-01T15:15:57Z</time>
      </trkpt>
      <trkpt lat="44.52393" lon="4.53957">
        <ele>323.20001220703</ele>
        <time>2020-05-01T15:15:58Z</time>
      </trkpt>
      <trkpt lat="44.52394" lon="4.5396">
        <ele>323.20001220703</ele>
        <time>2020-05-01T15:15:59Z</time>
      </trkpt>
      <trkpt lat="44.52395" lon="4.53963">
        <ele>323.20001220703</ele>
        <time>2020-05-01T15:16:00Z</time>
      </trkpt>
      <trkpt lat="44.52397" lon="4.53966">
        <ele>323.20001220703</ele>
        <time>2020-05-01T15:16:01Z</time>
      </trkpt>
      <trkpt lat="44.52399" lon="4.53969">
        <ele>323.39999389648</ele>
        <time>2020-05-01T15:16:02Z</time>
      </trkpt>
      <trkpt lat="44.524" lon="4.53973">
        <ele>323.60000610352</ele>
        <time>2020-05-01T15:16:03Z</time>
      </trkpt>
      <trkpt lat="44.52402" lon="4.53976">
        <ele>323.39999389648</ele>
        <time>2020-05-01T15:16:04Z</time>
      </trkpt>
      <trkpt lat="44.52403" lon="4.53979">
        <ele>323.60000610352</ele>
        <time>2020-05-01T15:16:05Z</time>
      </trkpt>
      <trkpt lat="44.52404" lon="4.53982">
        <ele>323.60000610352</ele>
        <time>2020-05-01T15:16:06Z</time>
      </trkpt>
      <trkpt lat="44.52405" lon="4.53986">
        <ele>323.79998779297</ele>
        <time>2020-05-01T15:16:07Z</time>
      </trkpt>
      <trkpt lat="44.52405" lon="4.53989">
        <ele>323.79998779297</ele>
        <time>2020-05-01T15:16:08Z</time>
      </trkpt>
      <trkpt lat="44.52405" lon="4.53992">
        <ele>324.20001220703</ele>
        <time>2020-05-01T15:16:09Z</time>
      </trkpt>
      <trkpt lat="44.52406" lon="4.53995">
        <ele>324.20001220703</ele>
        <time>2020-05-01T15:16:10Z</time>
      </trkpt>
      <trkpt lat="44.52405" lon="4.53999">
        <ele>324.20001220703</ele>
        <time>2020-05-01T15:16:11Z</time>
      </trkpt>
      <trkpt lat="44.52405" lon="4.54002">
        <ele>324.20001220703</ele>
        <time>2020-05-01T15:16:12Z</time>
      </trkpt>
      <trkpt lat="44.52405" lon="4.54005">
        <ele>324.39999389648</ele>
        <time>2020-05-01T15:16:13Z</time>
      </trkpt>
      <trkpt lat="44.52404" lon="4.54008">
        <ele>324.39999389648</ele>
        <time>2020-05-01T15:16:14Z</time>
      </trkpt>
      <trkpt lat="44.52403" lon="4.54011">
        <ele>324.60000610352</ele>
        <time>2020-05-01T15:16:15Z</time>
      </trkpt>
      <trkpt lat="44.52402" lon="4.54014">
        <ele>324.60000610352</ele>
        <time>2020-05-01T15:16:16Z</time>
      </trkpt>
      <trkpt lat="44.52401" lon="4.5402">
        <ele>324.79998779297</ele>
        <time>2020-05-01T15:16:18Z</time>
      </trkpt>
      <trkpt lat="44.52401" lon="4.54023">
        <ele>325</ele>
        <time>2020-05-01T15:16:19Z</time>
      </trkpt>
      <trkpt lat="44.52401" lon="4.54027">
        <ele>325</ele>
        <time>2020-05-01T15:16:20Z</time>
      </trkpt>
      <trkpt lat="44.52401" lon="4.5403">
        <ele>325.20001220703</ele>
        <time>2020-05-01T15:16:21Z</time>
      </trkpt>
      <trkpt lat="44.52401" lon="4.54033">
        <ele>325</ele>
        <time>2020-05-01T15:16:22Z</time>
      </trkpt>
      <trkpt lat="44.52401" lon="4.54036">
        <ele>325.20001220703</ele>
        <time>2020-05-01T15:16:23Z</time>
      </trkpt>
      <trkpt lat="44.52401" lon="4.54044">
        <ele>325.20001220703</ele>
        <time>2020-05-01T15:16:25Z</time>
      </trkpt>
      <trkpt lat="44.52401" lon="4.54047">
        <ele>325.39999389648</ele>
        <time>2020-05-01T15:16:26Z</time>
      </trkpt>
      <trkpt lat="44.524" lon="4.54051">
        <ele>325.39999389648</ele>
        <time>2020-05-01T15:16:27Z</time>
      </trkpt>
      <trkpt lat="44.52399" lon="4.54055">
        <ele>325.39999389648</ele>
        <time>2020-05-01T15:16:28Z</time>
      </trkpt>
      <trkpt lat="44.52398" lon="4.54058">
        <ele>325.39999389648</ele>
        <time>2020-05-01T15:16:29Z</time>
      </trkpt>
      <trkpt lat="44.52397" lon="4.54062">
        <ele>325.39999389648</ele>
        <time>2020-05-01T15:16:30Z</time>
      </trkpt>
      <trkpt lat="44.52396" lon="4.54066">
        <ele>325.60000610352</ele>
        <time>2020-05-01T15:16:31Z</time>
      </trkpt>
      <trkpt lat="44.52396" lon="4.54069">
        <ele>325.60000610352</ele>
        <time>2020-05-01T15:16:32Z</time>
      </trkpt>
      <trkpt lat="44.52395" lon="4.54072">
        <ele>325.60000610352</ele>
        <time>2020-05-01T15:16:33Z</time>
      </trkpt>
      <trkpt lat="44.52394" lon="4.54075">
        <ele>325.60000610352</ele>
        <time>2020-05-01T15:16:34Z</time>
      </trkpt>
      <trkpt lat="44.52394" lon="4.54077">
        <ele>325.79998779297</ele>
        <time>2020-05-01T15:16:35Z</time>
      </trkpt>
      <trkpt lat="44.52394" lon="4.5408">
        <ele>326</ele>
        <time>2020-05-01T15:16:36Z</time>
      </trkpt>
      <trkpt lat="44.52393" lon="4.54086">
        <ele>326</ele>
        <time>2020-05-01T15:16:38Z</time>
      </trkpt>
      <trkpt lat="44.52393" lon="4.54089">
        <ele>326.20001220703</ele>
        <time>2020-05-01T15:16:39Z</time>
      </trkpt>
      <trkpt lat="44.52393" lon="4.54092">
        <ele>326.20001220703</ele>
        <time>2020-05-01T15:16:40Z</time>
      </trkpt>
      <trkpt lat="44.52393" lon="4.54094">
        <ele>326.60000610352</ele>
        <time>2020-05-01T15:16:41Z</time>
      </trkpt>
      <trkpt lat="44.52393" lon="4.541">
        <ele>326.39999389648</ele>
        <time>2020-05-01T15:16:43Z</time>
      </trkpt>
      <trkpt lat="44.52393" lon="4.54103">
        <ele>326.60000610352</ele>
        <time>2020-05-01T15:16:44Z</time>
      </trkpt>
      <trkpt lat="44.52393" lon="4.54106">
        <ele>326.60000610352</ele>
        <time>2020-05-01T15:16:45Z</time>
      </trkpt>
      <trkpt lat="44.52393" lon="4.54109">
        <ele>326.60000610352</ele>
        <time>2020-05-01T15:16:46Z</time>
      </trkpt>
      <trkpt lat="44.52393" lon="4.54112">
        <ele>326.60000610352</ele>
        <time>2020-05-01T15:16:47Z</time>
      </trkpt>
      <trkpt lat="44.52393" lon="4.54114">
        <ele>326.60000610352</ele>
        <time>2020-05-01T15:16:48Z</time>
      </trkpt>
      <trkpt lat="44.52393" lon="4.54117">
        <ele>326.79998779297</ele>
        <time>2020-05-01T15:16:49Z</time>
      </trkpt>
      <trkpt lat="44.52393" lon="4.54119">
        <ele>327</ele>
        <time>2020-05-01T15:16:50Z</time>
      </trkpt>
      <trkpt lat="44.52393" lon="4.54121">
        <ele>326.79998779297</ele>
        <time>2020-05-01T15:16:51Z</time>
      </trkpt>
      <trkpt lat="44.52393" lon="4.54124">
        <ele>327</ele>
        <time>2020-05-01T15:16:52Z</time>
      </trkpt>
      <trkpt lat="44.52393" lon="4.54126">
        <ele>327</ele>
        <time>2020-05-01T15:16:53Z</time>
      </trkpt>
      <trkpt lat="44.52394" lon="4.54128">
        <ele>327.39999389648</ele>
        <time>2020-05-01T15:16:54Z</time>
      </trkpt>
      <trkpt lat="44.52395" lon="4.5413">
        <ele>327.60000610352</ele>
        <time>2020-05-01T15:16:55Z</time>
      </trkpt>
      <trkpt lat="44.52396" lon="4.54131">
        <ele>327.79998779297</ele>
        <time>2020-05-01T15:16:56Z</time>
      </trkpt>
      <trkpt lat="44.52397" lon="4.54131">
        <ele>328.20001220703</ele>
        <time>2020-05-01T15:16:57Z</time>
      </trkpt>
      <trkpt lat="44.52398" lon="4.5413">
        <ele>328.20001220703</ele>
        <time>2020-05-01T15:16:58Z</time>
      </trkpt>
      <trkpt lat="44.52398" lon="4.54128">
        <ele>328.60000610352</ele>
        <time>2020-05-01T15:16:59Z</time>
      </trkpt>
      <trkpt lat="44.52399" lon="4.54126">
        <ele>328.60000610352</ele>
        <time>2020-05-01T15:17:00Z</time>
      </trkpt>
      <trkpt lat="44.524" lon="4.54123">
        <ele>329.20001220703</ele>
        <time>2020-05-01T15:17:01Z</time>
      </trkpt>
      <trkpt lat="44.524" lon="4.54121">
        <ele>329.39999389648</ele>
        <time>2020-05-01T15:17:02Z</time>
      </trkpt>
      <trkpt lat="44.52401" lon="4.54119">
        <ele>329.60000610352</ele>
        <time>2020-05-01T15:17:03Z</time>
      </trkpt>
      <trkpt lat="44.52402" lon="4.54116">
        <ele>330</ele>
        <time>2020-05-01T15:17:04Z</time>
      </trkpt>
      <trkpt lat="44.52403" lon="4.54115">
        <ele>330.20001220703</ele>
        <time>2020-05-01T15:17:05Z</time>
      </trkpt>
      <trkpt lat="44.52404" lon="4.54113">
        <ele>330.39999389648</ele>
        <time>2020-05-01T15:17:06Z</time>
      </trkpt>
      <trkpt lat="44.52405" lon="4.54111">
        <ele>330.60000610352</ele>
        <time>2020-05-01T15:17:07Z</time>
      </trkpt>
      <trkpt lat="44.52406" lon="4.54109">
        <ele>330.79998779297</ele>
        <time>2020-05-01T15:17:08Z</time>
      </trkpt>
      <trkpt lat="44.52407" lon="4.54107">
        <ele>331</ele>
        <time>2020-05-01T15:17:09Z</time>
      </trkpt>
      <trkpt lat="44.52408" lon="4.54106">
        <ele>331</ele>
        <time>2020-05-01T15:17:10Z</time>
      </trkpt>
      <trkpt lat="44.52408" lon="4.54104">
        <ele>331.20001220703</ele>
        <time>2020-05-01T15:17:11Z</time>
      </trkpt>
      <trkpt lat="44.52409" lon="4.54103">
        <ele>331.20001220703</ele>
        <time>2020-05-01T15:17:12Z</time>
      </trkpt>
      <trkpt lat="44.52409" lon="4.54102">
        <ele>331.39999389648</ele>
        <time>2020-05-01T15:17:13Z</time>
      </trkpt>
      <trkpt lat="44.52409" lon="4.54101">
        <ele>331.79998779297</ele>
        <time>2020-05-01T15:17:14Z</time>
      </trkpt>
      <trkpt lat="44.5241" lon="4.54099">
        <ele>332</ele>
        <time>2020-05-01T15:17:15Z</time>
      </trkpt>
      <trkpt lat="44.52411" lon="4.54097">
        <ele>332</ele>
        <time>2020-05-01T15:17:16Z</time>
      </trkpt>
      <trkpt lat="44.52412" lon="4.54094">
        <ele>332.60000610352</ele>
        <time>2020-05-01T15:17:17Z</time>
      </trkpt>
      <trkpt lat="44.52413" lon="4.54092">
        <ele>332.60000610352</ele>
        <time>2020-05-01T15:17:18Z</time>
      </trkpt>
      <trkpt lat="44.52414" lon="4.54089">
        <ele>332.79998779297</ele>
        <time>2020-05-01T15:17:19Z</time>
      </trkpt>
      <trkpt lat="44.52415" lon="4.54087">
        <ele>333</ele>
        <time>2020-05-01T15:17:20Z</time>
      </trkpt>
      <trkpt lat="44.52416" lon="4.54085">
        <ele>333</ele>
        <time>2020-05-01T15:17:21Z</time>
      </trkpt>
      <trkpt lat="44.52417" lon="4.54082">
        <ele>333.20001220703</ele>
        <time>2020-05-01T15:17:22Z</time>
      </trkpt>
      <trkpt lat="44.52418" lon="4.5408">
        <ele>333.39999389648</ele>
        <time>2020-05-01T15:17:23Z</time>
      </trkpt>
      <trkpt lat="44.52418" lon="4.54078">
        <ele>333.60000610352</ele>
        <time>2020-05-01T15:17:24Z</time>
      </trkpt>
      <trkpt lat="44.52419" lon="4.54076">
        <ele>333.60000610352</ele>
        <time>2020-05-01T15:17:25Z</time>
      </trkpt>
      <trkpt lat="44.5242" lon="4.54075">
        <ele>334</ele>
        <time>2020-05-01T15:17:26Z</time>
      </trkpt>
      <trkpt lat="44.52421" lon="4.54072">
        <ele>334</ele>
        <time>2020-05-01T15:17:27Z</time>
      </trkpt>
      <trkpt lat="44.52422" lon="4.5407">
        <ele>334.20001220703</ele>
        <time>2020-05-01T15:17:28Z</time>
      </trkpt>
      <trkpt lat="44.52423" lon="4.54068">
        <ele>334.39999389648</ele>
        <time>2020-05-01T15:17:29Z</time>
      </trkpt>
      <trkpt lat="44.52424" lon="4.54065">
        <ele>334.60000610352</ele>
        <time>2020-05-01T15:17:30Z</time>
      </trkpt>
      <trkpt lat="44.52425" lon="4.54063">
        <ele>334.79998779297</ele>
        <time>2020-05-01T15:17:31Z</time>
      </trkpt>
      <trkpt lat="44.52426" lon="4.54061">
        <ele>335</ele>
        <time>2020-05-01T15:17:32Z</time>
      </trkpt>
      <trkpt lat="44.52427" lon="4.54059">
        <ele>335.20001220703</ele>
        <time>2020-05-01T15:17:33Z</time>
      </trkpt>
      <trkpt lat="44.52428" lon="4.54057">
        <ele>335.79998779297</ele>
        <time>2020-05-01T15:17:34Z</time>
      </trkpt>
      <trkpt lat="44.52429" lon="4.54055">
        <ele>335.79998779297</ele>
        <time>2020-05-01T15:17:35Z</time>
      </trkpt>
      <trkpt lat="44.5243" lon="4.54053">
        <ele>336</ele>
        <time>2020-05-01T15:17:36Z</time>
      </trkpt>
      <trkpt lat="44.52431" lon="4.54051">
        <ele>336.20001220703</ele>
        <time>2020-05-01T15:17:37Z</time>
      </trkpt>
      <trkpt lat="44.52432" lon="4.54049">
        <ele>336.20001220703</ele>
        <time>2020-05-01T15:17:38Z</time>
      </trkpt>
      <trkpt lat="44.52433" lon="4.54047">
        <ele>336.39999389648</ele>
        <time>2020-05-01T15:17:39Z</time>
      </trkpt>
      <trkpt lat="44.52434" lon="4.54045">
        <ele>336.60000610352</ele>
        <time>2020-05-01T15:17:40Z</time>
      </trkpt>
      <trkpt lat="44.52434" lon="4.54043">
        <ele>336.79998779297</ele>
        <time>2020-05-01T15:17:41Z</time>
      </trkpt>
      <trkpt lat="44.52435" lon="4.54041">
        <ele>336.79998779297</ele>
        <time>2020-05-01T15:17:42Z</time>
      </trkpt>
      <trkpt lat="44.52436" lon="4.54039">
        <ele>337</ele>
        <time>2020-05-01T15:17:43Z</time>
      </trkpt>
      <trkpt lat="44.52437" lon="4.54036">
        <ele>337.20001220703</ele>
        <time>2020-05-01T15:17:44Z</time>
      </trkpt>
      <trkpt lat="44.52438" lon="4.54034">
        <ele>337.39999389648</ele>
        <time>2020-05-01T15:17:45Z</time>
      </trkpt>
      <trkpt lat="44.52439" lon="4.54032">
        <ele>337.79998779297</ele>
        <time>2020-05-01T15:17:46Z</time>
      </trkpt>
      <trkpt lat="44.5244" lon="4.54029">
        <ele>337.79998779297</ele>
        <time>2020-05-01T15:17:47Z</time>
      </trkpt>
      <trkpt lat="44.52441" lon="4.54027">
        <ele>338.20001220703</ele>
        <time>2020-05-01T15:17:48Z</time>
      </trkpt>
      <trkpt lat="44.52442" lon="4.54025">
        <ele>338.39999389648</ele>
        <time>2020-05-01T15:17:49Z</time>
      </trkpt>
      <trkpt lat="44.52443" lon="4.54023">
        <ele>338.39999389648</ele>
        <time>2020-05-01T15:17:50Z</time>
      </trkpt>
      <trkpt lat="44.52444" lon="4.54021">
        <ele>338.79998779297</ele>
        <time>2020-05-01T15:17:51Z</time>
      </trkpt>
      <trkpt lat="44.52445" lon="4.54018">
        <ele>339</ele>
        <time>2020-05-01T15:17:52Z</time>
      </trkpt>
      <trkpt lat="44.52446" lon="4.54016">
        <ele>339.20001220703</ele>
        <time>2020-05-01T15:17:53Z</time>
      </trkpt>
      <trkpt lat="44.52447" lon="4.54014">
        <ele>339.39999389648</ele>
        <time>2020-05-01T15:17:54Z</time>
      </trkpt>
      <trkpt lat="44.52448" lon="4.54012">
        <ele>339.60000610352</ele>
        <time>2020-05-01T15:17:55Z</time>
      </trkpt>
      <trkpt lat="44.52449" lon="4.5401">
        <ele>339.79998779297</ele>
        <time>2020-05-01T15:17:56Z</time>
      </trkpt>
      <trkpt lat="44.5245" lon="4.54008">
        <ele>340</ele>
        <time>2020-05-01T15:17:57Z</time>
      </trkpt>
      <trkpt lat="44.52451" lon="4.54006">
        <ele>340</ele>
        <time>2020-05-01T15:17:58Z</time>
      </trkpt>
      <trkpt lat="44.52452" lon="4.54005">
        <ele>340.20001220703</ele>
        <time>2020-05-01T15:17:59Z</time>
      </trkpt>
      <trkpt lat="44.52453" lon="4.54003">
        <ele>340.20001220703</ele>
        <time>2020-05-01T15:18:00Z</time>
      </trkpt>
      <trkpt lat="44.52454" lon="4.54001">
        <ele>340.60000610352</ele>
        <time>2020-05-01T15:18:01Z</time>
      </trkpt>
      <trkpt lat="44.52456" lon="4.54">
        <ele>340.60000610352</ele>
        <time>2020-05-01T15:18:02Z</time>
      </trkpt>
      <trkpt lat="44.52457" lon="4.53998">
        <ele>340.60000610352</ele>
        <time>2020-05-01T15:18:03Z</time>
      </trkpt>
      <trkpt lat="44.52459" lon="4.53997">
        <ele>340.79998779297</ele>
        <time>2020-05-01T15:18:04Z</time>
      </trkpt>
      <trkpt lat="44.5246" lon="4.53997">
        <ele>340.79998779297</ele>
        <time>2020-05-01T15:18:05Z</time>
      </trkpt>
      <trkpt lat="44.52462" lon="4.53996">
        <ele>341.20001220703</ele>
        <time>2020-05-01T15:18:06Z</time>
      </trkpt>
      <trkpt lat="44.52463" lon="4.53996">
        <ele>341.20001220703</ele>
        <time>2020-05-01T15:18:07Z</time>
      </trkpt>
      <trkpt lat="44.52465" lon="4.53996">
        <ele>341.39999389648</ele>
        <time>2020-05-01T15:18:08Z</time>
      </trkpt>
      <trkpt lat="44.52467" lon="4.53996">
        <ele>341.39999389648</ele>
        <time>2020-05-01T15:18:09Z</time>
      </trkpt>
      <trkpt lat="44.52468" lon="4.53996">
        <ele>341.79998779297</ele>
        <time>2020-05-01T15:18:10Z</time>
      </trkpt>
      <trkpt lat="44.5247" lon="4.53997">
        <ele>341.79998779297</ele>
        <time>2020-05-01T15:18:11Z</time>
      </trkpt>
      <trkpt lat="44.52472" lon="4.53998">
        <ele>342</ele>
        <time>2020-05-01T15:18:12Z</time>
      </trkpt>
      <trkpt lat="44.52474" lon="4.53999">
        <ele>342.20001220703</ele>
        <time>2020-05-01T15:18:13Z</time>
      </trkpt>
      <trkpt lat="44.52475" lon="4.54001">
        <ele>342.60000610352</ele>
        <time>2020-05-01T15:18:14Z</time>
      </trkpt>
      <trkpt lat="44.52477" lon="4.54002">
        <ele>342.60000610352</ele>
        <time>2020-05-01T15:18:15Z</time>
      </trkpt>
      <trkpt lat="44.52479" lon="4.54004">
        <ele>342.79998779297</ele>
        <time>2020-05-01T15:18:16Z</time>
      </trkpt>
      <trkpt lat="44.5248" lon="4.54005">
        <ele>343.20001220703</ele>
        <time>2020-05-01T15:18:17Z</time>
      </trkpt>
      <trkpt lat="44.52482" lon="4.54007">
        <ele>343.39999389648</ele>
        <time>2020-05-01T15:18:18Z</time>
      </trkpt>
      <trkpt lat="44.52483" lon="4.54008">
        <ele>343.79998779297</ele>
        <time>2020-05-01T15:18:19Z</time>
      </trkpt>
      <trkpt lat="44.52485" lon="4.5401">
        <ele>344</ele>
        <time>2020-05-01T15:18:20Z</time>
      </trkpt>
      <trkpt lat="44.52486" lon="4.54011">
        <ele>344</ele>
        <time>2020-05-01T15:18:21Z</time>
      </trkpt>
      <trkpt lat="44.52487" lon="4.54013">
        <ele>344.39999389648</ele>
        <time>2020-05-01T15:18:22Z</time>
      </trkpt>
      <trkpt lat="44.52488" lon="4.54014">
        <ele>344.79998779297</ele>
        <time>2020-05-01T15:18:23Z</time>
      </trkpt>
      <trkpt lat="44.5249" lon="4.54015">
        <ele>344.79998779297</ele>
        <time>2020-05-01T15:18:24Z</time>
      </trkpt>
      <trkpt lat="44.52492" lon="4.54016">
        <ele>345</ele>
        <time>2020-05-01T15:18:25Z</time>
      </trkpt>
      <trkpt lat="44.52493" lon="4.54018">
        <ele>345.39999389648</ele>
        <time>2020-05-01T15:18:26Z</time>
      </trkpt>
      <trkpt lat="44.52495" lon="4.54019">
        <ele>345.60000610352</ele>
        <time>2020-05-01T15:18:27Z</time>
      </trkpt>
      <trkpt lat="44.52496" lon="4.54021">
        <ele>345.79998779297</ele>
        <time>2020-05-01T15:18:28Z</time>
      </trkpt>
      <trkpt lat="44.52497" lon="4.54022">
        <ele>346.20001220703</ele>
        <time>2020-05-01T15:18:29Z</time>
      </trkpt>
      <trkpt lat="44.52499" lon="4.54024">
        <ele>346.39999389648</ele>
        <time>2020-05-01T15:18:30Z</time>
      </trkpt>
      <trkpt lat="44.52501" lon="4.54025">
        <ele>346.60000610352</ele>
        <time>2020-05-01T15:18:31Z</time>
      </trkpt>
      <trkpt lat="44.52502" lon="4.54026">
        <ele>346.79998779297</ele>
        <time>2020-05-01T15:18:32Z</time>
      </trkpt>
      <trkpt lat="44.52503" lon="4.54028">
        <ele>346.79998779297</ele>
        <time>2020-05-01T15:18:33Z</time>
      </trkpt>
      <trkpt lat="44.52505" lon="4.54029">
        <ele>347</ele>
        <time>2020-05-01T15:18:34Z</time>
      </trkpt>
      <trkpt lat="44.52506" lon="4.54031">
        <ele>347.20001220703</ele>
        <time>2020-05-01T15:18:35Z</time>
      </trkpt>
      <trkpt lat="44.52508" lon="4.54033">
        <ele>347.60000610352</ele>
        <time>2020-05-01T15:18:36Z</time>
      </trkpt>
      <trkpt lat="44.52509" lon="4.54034">
        <ele>347.79998779297</ele>
        <time>2020-05-01T15:18:37Z</time>
      </trkpt>
      <trkpt lat="44.5251" lon="4.54036">
        <ele>347.79998779297</ele>
        <time>2020-05-01T15:18:38Z</time>
      </trkpt>
      <trkpt lat="44.52512" lon="4.54037">
        <ele>348</ele>
        <time>2020-05-01T15:18:39Z</time>
      </trkpt>
      <trkpt lat="44.52513" lon="4.54039">
        <ele>348.20001220703</ele>
        <time>2020-05-01T15:18:40Z</time>
      </trkpt>
      <trkpt lat="44.52515" lon="4.5404">
        <ele>348.39999389648</ele>
        <time>2020-05-01T15:18:41Z</time>
      </trkpt>
      <trkpt lat="44.52517" lon="4.54042">
        <ele>348.60000610352</ele>
        <time>2020-05-01T15:18:42Z</time>
      </trkpt>
      <trkpt lat="44.52518" lon="4.54044">
        <ele>348.79998779297</ele>
        <time>2020-05-01T15:18:43Z</time>
      </trkpt>
      <trkpt lat="44.52519" lon="4.54045">
        <ele>349</ele>
        <time>2020-05-01T15:18:44Z</time>
      </trkpt>
      <trkpt lat="44.52521" lon="4.54047">
        <ele>349</ele>
        <time>2020-05-01T15:18:45Z</time>
      </trkpt>
      <trkpt lat="44.52522" lon="4.54049">
        <ele>349.20001220703</ele>
        <time>2020-05-01T15:18:46Z</time>
      </trkpt>
      <trkpt lat="44.52524" lon="4.5405">
        <ele>349.39999389648</ele>
        <time>2020-05-01T15:18:47Z</time>
      </trkpt>
      <trkpt lat="44.52525" lon="4.54052">
        <ele>349.60000610352</ele>
        <time>2020-05-01T15:18:48Z</time>
      </trkpt>
      <trkpt lat="44.52526" lon="4.54054">
        <ele>349.60000610352</ele>
        <time>2020-05-01T15:18:49Z</time>
      </trkpt>
      <trkpt lat="44.52528" lon="4.54055">
        <ele>349.79998779297</ele>
        <time>2020-05-01T15:18:50Z</time>
      </trkpt>
      <trkpt lat="44.52529" lon="4.54056">
        <ele>350</ele>
        <time>2020-05-01T15:18:51Z</time>
      </trkpt>
      <trkpt lat="44.52531" lon="4.54058">
        <ele>350.20001220703</ele>
        <time>2020-05-01T15:18:52Z</time>
      </trkpt>
      <trkpt lat="44.52532" lon="4.54059">
        <ele>350.39999389648</ele>
        <time>2020-05-01T15:18:53Z</time>
      </trkpt>
      <trkpt lat="44.52533" lon="4.5406">
        <ele>350.39999389648</ele>
        <time>2020-05-01T15:18:54Z</time>
      </trkpt>
      <trkpt lat="44.52535" lon="4.54062">
        <ele>350.60000610352</ele>
        <time>2020-05-01T15:18:55Z</time>
      </trkpt>
      <trkpt lat="44.52536" lon="4.54063">
        <ele>351</ele>
        <time>2020-05-01T15:18:56Z</time>
      </trkpt>
      <trkpt lat="44.52537" lon="4.54064">
        <ele>351.20001220703</ele>
        <time>2020-05-01T15:18:57Z</time>
      </trkpt>
      <trkpt lat="44.52538" lon="4.54066">
        <ele>351.60000610352</ele>
        <time>2020-05-01T15:18:58Z</time>
      </trkpt>
      <trkpt lat="44.5254" lon="4.54067">
        <ele>351.79998779297</ele>
        <time>2020-05-01T15:18:59Z</time>
      </trkpt>
      <trkpt lat="44.52541" lon="4.54068">
        <ele>352.20001220703</ele>
        <time>2020-05-01T15:19:00Z</time>
      </trkpt>
      <trkpt lat="44.52542" lon="4.5407">
        <ele>352.39999389648</ele>
        <time>2020-05-01T15:19:01Z</time>
      </trkpt>
      <trkpt lat="44.52543" lon="4.54072">
        <ele>352.60000610352</ele>
        <time>2020-05-01T15:19:02Z</time>
      </trkpt>
      <trkpt lat="44.52545" lon="4.54073">
        <ele>352.79998779297</ele>
        <time>2020-05-01T15:19:03Z</time>
      </trkpt>
      <trkpt lat="44.52546" lon="4.54075">
        <ele>353</ele>
        <time>2020-05-01T15:19:04Z</time>
      </trkpt>
      <trkpt lat="44.52547" lon="4.54076">
        <ele>353.20001220703</ele>
        <time>2020-05-01T15:19:05Z</time>
      </trkpt>
      <trkpt lat="44.52549" lon="4.54078">
        <ele>353.20001220703</ele>
        <time>2020-05-01T15:19:06Z</time>
      </trkpt>
      <trkpt lat="44.5255" lon="4.54079">
        <ele>353.20001220703</ele>
        <time>2020-05-01T15:19:07Z</time>
      </trkpt>
      <trkpt lat="44.52551" lon="4.54081">
        <ele>353.39999389648</ele>
        <time>2020-05-01T15:19:08Z</time>
      </trkpt>
      <trkpt lat="44.52552" lon="4.54083">
        <ele>353.39999389648</ele>
        <time>2020-05-01T15:19:09Z</time>
      </trkpt>
      <trkpt lat="44.52553" lon="4.54084">
        <ele>353.60000610352</ele>
        <time>2020-05-01T15:19:10Z</time>
      </trkpt>
      <trkpt lat="44.52555" lon="4.54086">
        <ele>354</ele>
        <time>2020-05-01T15:19:11Z</time>
      </trkpt>
      <trkpt lat="44.52556" lon="4.54088">
        <ele>354</ele>
        <time>2020-05-01T15:19:12Z</time>
      </trkpt>
      <trkpt lat="44.52557" lon="4.54089">
        <ele>354.20001220703</ele>
        <time>2020-05-01T15:19:13Z</time>
      </trkpt>
      <trkpt lat="44.52558" lon="4.54091">
        <ele>354.60000610352</ele>
        <time>2020-05-01T15:19:14Z</time>
      </trkpt>
      <trkpt lat="44.52559" lon="4.54092">
        <ele>354.79998779297</ele>
        <time>2020-05-01T15:19:15Z</time>
      </trkpt>
      <trkpt lat="44.52561" lon="4.54094">
        <ele>355.20001220703</ele>
        <time>2020-05-01T15:19:16Z</time>
      </trkpt>
      <trkpt lat="44.52562" lon="4.54096">
        <ele>355.39999389648</ele>
        <time>2020-05-01T15:19:17Z</time>
      </trkpt>
      <trkpt lat="44.52563" lon="4.54097">
        <ele>355.60000610352</ele>
        <time>2020-05-01T15:19:18Z</time>
      </trkpt>
      <trkpt lat="44.52564" lon="4.54099">
        <ele>355.79998779297</ele>
        <time>2020-05-01T15:19:19Z</time>
      </trkpt>
      <trkpt lat="44.52565" lon="4.54101">
        <ele>355.79998779297</ele>
        <time>2020-05-01T15:19:20Z</time>
      </trkpt>
      <trkpt lat="44.52566" lon="4.54103">
        <ele>356</ele>
        <time>2020-05-01T15:19:21Z</time>
      </trkpt>
      <trkpt lat="44.52567" lon="4.54104">
        <ele>356.39999389648</ele>
        <time>2020-05-01T15:19:22Z</time>
      </trkpt>
      <trkpt lat="44.52568" lon="4.54106">
        <ele>356.60000610352</ele>
        <time>2020-05-01T15:19:23Z</time>
      </trkpt>
      <trkpt lat="44.52569" lon="4.54107">
        <ele>356.79998779297</ele>
        <time>2020-05-01T15:19:24Z</time>
      </trkpt>
      <trkpt lat="44.52569" lon="4.54109">
        <ele>356.79998779297</ele>
        <time>2020-05-01T15:19:25Z</time>
      </trkpt>
      <trkpt lat="44.5257" lon="4.54111">
        <ele>357.20001220703</ele>
        <time>2020-05-01T15:19:26Z</time>
      </trkpt>
      <trkpt lat="44.52571" lon="4.54112">
        <ele>357.20001220703</ele>
        <time>2020-05-01T15:19:27Z</time>
      </trkpt>
      <trkpt lat="44.52572" lon="4.54114">
        <ele>357.20001220703</ele>
        <time>2020-05-01T15:19:28Z</time>
      </trkpt>
      <trkpt lat="44.52573" lon="4.54115">
        <ele>357.60000610352</ele>
        <time>2020-05-01T15:19:29Z</time>
      </trkpt>
      <trkpt lat="44.52574" lon="4.54117">
        <ele>358</ele>
        <time>2020-05-01T15:19:30Z</time>
      </trkpt>
      <trkpt lat="44.52574" lon="4.54119">
        <ele>358.20001220703</ele>
        <time>2020-05-01T15:19:31Z</time>
      </trkpt>
      <trkpt lat="44.52575" lon="4.54121">
        <ele>358.60000610352</ele>
        <time>2020-05-01T15:19:32Z</time>
      </trkpt>
      <trkpt lat="44.52576" lon="4.54123">
        <ele>358.79998779297</ele>
        <time>2020-05-01T15:19:33Z</time>
      </trkpt>
      <trkpt lat="44.52577" lon="4.54125">
        <ele>359</ele>
        <time>2020-05-01T15:19:34Z</time>
      </trkpt>
      <trkpt lat="44.52578" lon="4.54127">
        <ele>359.39999389648</ele>
        <time>2020-05-01T15:19:35Z</time>
      </trkpt>
      <trkpt lat="44.52578" lon="4.54129">
        <ele>359.79998779297</ele>
        <time>2020-05-01T15:19:36Z</time>
      </trkpt>
      <trkpt lat="44.52579" lon="4.54131">
        <ele>360</ele>
        <time>2020-05-01T15:19:37Z</time>
      </trkpt>
      <trkpt lat="44.5258" lon="4.54133">
        <ele>360.39999389648</ele>
        <time>2020-05-01T15:19:38Z</time>
      </trkpt>
      <trkpt lat="44.52581" lon="4.54135">
        <ele>360.60000610352</ele>
        <time>2020-05-01T15:19:39Z</time>
      </trkpt>
      <trkpt lat="44.52581" lon="4.54137">
        <ele>360.79998779297</ele>
        <time>2020-05-01T15:19:40Z</time>
      </trkpt>
      <trkpt lat="44.52582" lon="4.5414">
        <ele>361</ele>
        <time>2020-05-01T15:19:41Z</time>
      </trkpt>
      <trkpt lat="44.52582" lon="4.54142">
        <ele>361.39999389648</ele>
        <time>2020-05-01T15:19:42Z</time>
      </trkpt>
      <trkpt lat="44.52583" lon="4.54144">
        <ele>361.60000610352</ele>
        <time>2020-05-01T15:19:43Z</time>
      </trkpt>
      <trkpt lat="44.52584" lon="4.54146">
        <ele>362</ele>
        <time>2020-05-01T15:19:44Z</time>
      </trkpt>
      <trkpt lat="44.52584" lon="4.54148">
        <ele>362.20001220703</ele>
        <time>2020-05-01T15:19:45Z</time>
      </trkpt>
      <trkpt lat="44.52585" lon="4.5415">
        <ele>362.20001220703</ele>
        <time>2020-05-01T15:19:46Z</time>
      </trkpt>
      <trkpt lat="44.52586" lon="4.54152">
        <ele>362.39999389648</ele>
        <time>2020-05-01T15:19:47Z</time>
      </trkpt>
      <trkpt lat="44.52586" lon="4.54154">
        <ele>362.79998779297</ele>
        <time>2020-05-01T15:19:48Z</time>
      </trkpt>
      <trkpt lat="44.52587" lon="4.54156">
        <ele>362.79998779297</ele>
        <time>2020-05-01T15:19:49Z</time>
      </trkpt>
      <trkpt lat="44.52587" lon="4.54158">
        <ele>362.79998779297</ele>
        <time>2020-05-01T15:19:50Z</time>
      </trkpt>
      <trkpt lat="44.52588" lon="4.5416">
        <ele>363</ele>
        <time>2020-05-01T15:19:51Z</time>
      </trkpt>
      <trkpt lat="44.52589" lon="4.54161">
        <ele>363</ele>
        <time>2020-05-01T15:19:52Z</time>
      </trkpt>
      <trkpt lat="44.52589" lon="4.54163">
        <ele>363.20001220703</ele>
        <time>2020-05-01T15:19:53Z</time>
      </trkpt>
      <trkpt lat="44.5259" lon="4.54164">
        <ele>363.60000610352</ele>
        <time>2020-05-01T15:19:54Z</time>
      </trkpt>
      <trkpt lat="44.5259" lon="4.54166">
        <ele>363.79998779297</ele>
        <time>2020-05-01T15:19:55Z</time>
      </trkpt>
      <trkpt lat="44.52591" lon="4.54167">
        <ele>364</ele>
        <time>2020-05-01T15:19:56Z</time>
      </trkpt>
      <trkpt lat="44.52591" lon="4.54169">
        <ele>364.20001220703</ele>
        <time>2020-05-01T15:19:57Z</time>
      </trkpt>
      <trkpt lat="44.52591" lon="4.54171">
        <ele>364.39999389648</ele>
        <time>2020-05-01T15:19:58Z</time>
      </trkpt>
      <trkpt lat="44.5259" lon="4.54172">
        <ele>364.60000610352</ele>
        <time>2020-05-01T15:19:59Z</time>
      </trkpt>
      <trkpt lat="44.52588" lon="4.54172">
        <ele>364.60000610352</ele>
        <time>2020-05-01T15:20:00Z</time>
      </trkpt>
      <trkpt lat="44.52587" lon="4.54171">
        <ele>364.60000610352</ele>
        <time>2020-05-01T15:20:01Z</time>
      </trkpt>
      <trkpt lat="44.52586" lon="4.54169">
        <ele>364.79998779297</ele>
        <time>2020-05-01T15:20:02Z</time>
      </trkpt>
      <trkpt lat="44.52585" lon="4.54166">
        <ele>364.79998779297</ele>
        <time>2020-05-01T15:20:03Z</time>
      </trkpt>
      <trkpt lat="44.52584" lon="4.54164">
        <ele>365</ele>
        <time>2020-05-01T15:20:04Z</time>
      </trkpt>
      <trkpt lat="44.52584" lon="4.54162">
        <ele>365.20001220703</ele>
        <time>2020-05-01T15:20:05Z</time>
      </trkpt>
      <trkpt lat="44.52583" lon="4.54161">
        <ele>365.39999389648</ele>
        <time>2020-05-01T15:20:06Z</time>
      </trkpt>
      <trkpt lat="44.52581" lon="4.54159">
        <ele>365.60000610352</ele>
        <time>2020-05-01T15:20:07Z</time>
      </trkpt>
      <trkpt lat="44.5258" lon="4.54158">
        <ele>365.60000610352</ele>
        <time>2020-05-01T15:20:08Z</time>
      </trkpt>
      <trkpt lat="44.52579" lon="4.54156">
        <ele>366</ele>
        <time>2020-05-01T15:20:09Z</time>
      </trkpt>
      <trkpt lat="44.52578" lon="4.54155">
        <ele>366</ele>
        <time>2020-05-01T15:20:10Z</time>
      </trkpt>
      <trkpt lat="44.52577" lon="4.54154">
        <ele>366.20001220703</ele>
        <time>2020-05-01T15:20:11Z</time>
      </trkpt>
      <trkpt lat="44.52575" lon="4.54152">
        <ele>366.39999389648</ele>
        <time>2020-05-01T15:20:12Z</time>
      </trkpt>
      <trkpt lat="44.52574" lon="4.54151">
        <ele>366.39999389648</ele>
        <time>2020-05-01T15:20:13Z</time>
      </trkpt>
      <trkpt lat="44.52573" lon="4.5415">
        <ele>366.60000610352</ele>
        <time>2020-05-01T15:20:14Z</time>
      </trkpt>
      <trkpt lat="44.52572" lon="4.54149">
        <ele>367</ele>
        <time>2020-05-01T15:20:15Z</time>
      </trkpt>
      <trkpt lat="44.52571" lon="4.54148">
        <ele>367</ele>
        <time>2020-05-01T15:20:16Z</time>
      </trkpt>
      <trkpt lat="44.52569" lon="4.54146">
        <ele>367.20001220703</ele>
        <time>2020-05-01T15:20:17Z</time>
      </trkpt>
      <trkpt lat="44.52568" lon="4.54145">
        <ele>367.39999389648</ele>
        <time>2020-05-01T15:20:18Z</time>
      </trkpt>
      <trkpt lat="44.52567" lon="4.54144">
        <ele>367.39999389648</ele>
        <time>2020-05-01T15:20:19Z</time>
      </trkpt>
      <trkpt lat="44.52566" lon="4.54142">
        <ele>367.60000610352</ele>
        <time>2020-05-01T15:20:20Z</time>
      </trkpt>
      <trkpt lat="44.52564" lon="4.54141">
        <ele>368</ele>
        <time>2020-05-01T15:20:21Z</time>
      </trkpt>
      <trkpt lat="44.52563" lon="4.5414">
        <ele>368.20001220703</ele>
        <time>2020-05-01T15:20:22Z</time>
      </trkpt>
      <trkpt lat="44.52562" lon="4.54139">
        <ele>368.39999389648</ele>
        <time>2020-05-01T15:20:23Z</time>
      </trkpt>
      <trkpt lat="44.5256" lon="4.54137">
        <ele>368.60000610352</ele>
        <time>2020-05-01T15:20:24Z</time>
      </trkpt>
      <trkpt lat="44.52559" lon="4.54136">
        <ele>368.60000610352</ele>
        <time>2020-05-01T15:20:25Z</time>
      </trkpt>
      <trkpt lat="44.52557" lon="4.54135">
        <ele>368.79998779297</ele>
        <time>2020-05-01T15:20:26Z</time>
      </trkpt>
      <trkpt lat="44.52556" lon="4.54134">
        <ele>369</ele>
        <time>2020-05-01T15:20:27Z</time>
      </trkpt>
      <trkpt lat="44.52554" lon="4.54132">
        <ele>369</ele>
        <time>2020-05-01T15:20:28Z</time>
      </trkpt>
      <trkpt lat="44.52553" lon="4.54131">
        <ele>369.20001220703</ele>
        <time>2020-05-01T15:20:29Z</time>
      </trkpt>
      <trkpt lat="44.52551" lon="4.5413">
        <ele>369.39999389648</ele>
        <time>2020-05-01T15:20:30Z</time>
      </trkpt>
      <trkpt lat="44.52549" lon="4.54129">
        <ele>369.60000610352</ele>
        <time>2020-05-01T15:20:31Z</time>
      </trkpt>
      <trkpt lat="44.52548" lon="4.54128">
        <ele>369.60000610352</ele>
        <time>2020-05-01T15:20:32Z</time>
      </trkpt>
      <trkpt lat="44.52546" lon="4.54127">
        <ele>369.60000610352</ele>
        <time>2020-05-01T15:20:33Z</time>
      </trkpt>
      <trkpt lat="44.52544" lon="4.54127">
        <ele>369.79998779297</ele>
        <time>2020-05-01T15:20:34Z</time>
      </trkpt>
      <trkpt lat="44.52543" lon="4.54126">
        <ele>370</ele>
        <time>2020-05-01T15:20:35Z</time>
      </trkpt>
      <trkpt lat="44.52541" lon="4.54125">
        <ele>370.20001220703</ele>
        <time>2020-05-01T15:20:36Z</time>
      </trkpt>
      <trkpt lat="44.5254" lon="4.54124">
        <ele>370.20001220703</ele>
        <time>2020-05-01T15:20:37Z</time>
      </trkpt>
      <trkpt lat="44.52538" lon="4.54123">
        <ele>370.39999389648</ele>
        <time>2020-05-01T15:20:38Z</time>
      </trkpt>
      <trkpt lat="44.52537" lon="4.54123">
        <ele>370.60000610352</ele>
        <time>2020-05-01T15:20:39Z</time>
      </trkpt>
      <trkpt lat="44.52535" lon="4.54122">
        <ele>370.60000610352</ele>
        <time>2020-05-01T15:20:40Z</time>
      </trkpt>
      <trkpt lat="44.52533" lon="4.54121">
        <ele>370.79998779297</ele>
        <time>2020-05-01T15:20:41Z</time>
      </trkpt>
      <trkpt lat="44.52532" lon="4.5412">
        <ele>371.20001220703</ele>
        <time>2020-05-01T15:20:42Z</time>
      </trkpt>
      <trkpt lat="44.5253" lon="4.54119">
        <ele>371.39999389648</ele>
        <time>2020-05-01T15:20:43Z</time>
      </trkpt>
      <trkpt lat="44.52528" lon="4.54119">
        <ele>371.39999389648</ele>
        <time>2020-05-01T15:20:44Z</time>
      </trkpt>
      <trkpt lat="44.52527" lon="4.54118">
        <ele>371.39999389648</ele>
        <time>2020-05-01T15:20:45Z</time>
      </trkpt>
      <trkpt lat="44.52525" lon="4.54117">
        <ele>371.39999389648</ele>
        <time>2020-05-01T15:20:46Z</time>
      </trkpt>
      <trkpt lat="44.52523" lon="4.54117">
        <ele>371.79998779297</ele>
        <time>2020-05-01T15:20:47Z</time>
      </trkpt>
      <trkpt lat="44.52522" lon="4.54116">
        <ele>372</ele>
        <time>2020-05-01T15:20:48Z</time>
      </trkpt>
      <trkpt lat="44.5252" lon="4.54116">
        <ele>372.20001220703</ele>
        <time>2020-05-01T15:20:49Z</time>
      </trkpt>
      <trkpt lat="44.52518" lon="4.54115">
        <ele>372.39999389648</ele>
        <time>2020-05-01T15:20:50Z</time>
      </trkpt>
      <trkpt lat="44.52516" lon="4.54115">
        <ele>372.60000610352</ele>
        <time>2020-05-01T15:20:51Z</time>
      </trkpt>
      <trkpt lat="44.52515" lon="4.54115">
        <ele>373</ele>
        <time>2020-05-01T15:20:52Z</time>
      </trkpt>
      <trkpt lat="44.52511" lon="4.54115">
        <ele>373</ele>
        <time>2020-05-01T15:20:54Z</time>
      </trkpt>
      <trkpt lat="44.5251" lon="4.54114">
        <ele>373.39999389648</ele>
        <time>2020-05-01T15:20:55Z</time>
      </trkpt>
      <trkpt lat="44.52508" lon="4.54114">
        <ele>373.39999389648</ele>
        <time>2020-05-01T15:20:56Z</time>
      </trkpt>
      <trkpt lat="44.52506" lon="4.54114">
        <ele>373.60000610352</ele>
        <time>2020-05-01T15:20:57Z</time>
      </trkpt>
      <trkpt lat="44.52502" lon="4.54116">
        <ele>373.79998779297</ele>
        <time>2020-05-01T15:20:59Z</time>
      </trkpt>
      <trkpt lat="44.525" lon="4.54117">
        <ele>373.79998779297</ele>
        <time>2020-05-01T15:21:00Z</time>
      </trkpt>
      <trkpt lat="44.52495" lon="4.54122">
        <ele>374</ele>
        <time>2020-05-01T15:21:03Z</time>
      </trkpt>
      <trkpt lat="44.52493" lon="4.54124">
        <ele>374</ele>
        <time>2020-05-01T15:21:04Z</time>
      </trkpt>
      <trkpt lat="44.52492" lon="4.54126">
        <ele>374</ele>
        <time>2020-05-01T15:21:05Z</time>
      </trkpt>
      <trkpt lat="44.52491" lon="4.54129">
        <ele>374</ele>
        <time>2020-05-01T15:21:06Z</time>
      </trkpt>
      <trkpt lat="44.5249" lon="4.54132">
        <ele>374</ele>
        <time>2020-05-01T15:21:07Z</time>
      </trkpt>
      <trkpt lat="44.5249" lon="4.54135">
        <ele>374.20001220703</ele>
        <time>2020-05-01T15:21:08Z</time>
      </trkpt>
      <trkpt lat="44.5249" lon="4.54137">
        <ele>374.20001220703</ele>
        <time>2020-05-01T15:21:09Z</time>
      </trkpt>
      <trkpt lat="44.5249" lon="4.5414">
        <ele>374.20001220703</ele>
        <time>2020-05-01T15:21:10Z</time>
      </trkpt>
      <trkpt lat="44.5249" lon="4.54141">
        <ele>374.20001220703</ele>
        <time>2020-05-01T15:21:11Z</time>
      </trkpt>
      <trkpt lat="44.5249" lon="4.54143">
        <ele>374.20001220703</ele>
        <time>2020-05-01T15:21:12Z</time>
      </trkpt>
      <trkpt lat="44.5249" lon="4.54145">
        <ele>374.20001220703</ele>
        <time>2020-05-01T15:21:13Z</time>
      </trkpt>
      <trkpt lat="44.52492" lon="4.54148">
        <ele>374.20001220703</ele>
        <time>2020-05-01T15:21:15Z</time>
      </trkpt>
      <trkpt lat="44.52492" lon="4.5415">
        <ele>374.39999389648</ele>
        <time>2020-05-01T15:21:16Z</time>
      </trkpt>
      <trkpt lat="44.52494" lon="4.54152">
        <ele>374.39999389648</ele>
        <time>2020-05-01T15:21:17Z</time>
      </trkpt>
      <trkpt lat="44.52495" lon="4.54154">
        <ele>374.60000610352</ele>
        <time>2020-05-01T15:21:18Z</time>
      </trkpt>
      <trkpt lat="44.52495" lon="4.54156">
        <ele>374.60000610352</ele>
        <time>2020-05-01T15:21:19Z</time>
      </trkpt>
      <trkpt lat="44.52496" lon="4.54159">
        <ele>374.79998779297</ele>
        <time>2020-05-01T15:21:20Z</time>
      </trkpt>
      <trkpt lat="44.52497" lon="4.54161">
        <ele>375</ele>
        <time>2020-05-01T15:21:21Z</time>
      </trkpt>
      <trkpt lat="44.52498" lon="4.54163">
        <ele>374.79998779297</ele>
        <time>2020-05-01T15:21:22Z</time>
      </trkpt>
      <trkpt lat="44.52499" lon="4.54166">
        <ele>375.20001220703</ele>
        <time>2020-05-01T15:21:23Z</time>
      </trkpt>
      <trkpt lat="44.525" lon="4.54168">
        <ele>375.39999389648</ele>
        <time>2020-05-01T15:21:24Z</time>
      </trkpt>
      <trkpt lat="44.525" lon="4.5417">
        <ele>375.60000610352</ele>
        <time>2020-05-01T15:21:25Z</time>
      </trkpt>
      <trkpt lat="44.52501" lon="4.54172">
        <ele>376</ele>
        <time>2020-05-01T15:21:26Z</time>
      </trkpt>
      <trkpt lat="44.52501" lon="4.54174">
        <ele>376.20001220703</ele>
        <time>2020-05-01T15:21:27Z</time>
      </trkpt>
      <trkpt lat="44.52502" lon="4.54177">
        <ele>376.79998779297</ele>
        <time>2020-05-01T15:21:28Z</time>
      </trkpt>
      <trkpt lat="44.52503" lon="4.54179">
        <ele>377.60000610352</ele>
        <time>2020-05-01T15:21:29Z</time>
      </trkpt>
      <trkpt lat="44.52503" lon="4.54181">
        <ele>378</ele>
        <time>2020-05-01T15:21:30Z</time>
      </trkpt>
      <trkpt lat="44.52504" lon="4.54183">
        <ele>378.39999389648</ele>
        <time>2020-05-01T15:21:31Z</time>
      </trkpt>
      <trkpt lat="44.52504" lon="4.54185">
        <ele>379</ele>
        <time>2020-05-01T15:21:32Z</time>
      </trkpt>
      <trkpt lat="44.52505" lon="4.54187">
        <ele>379.79998779297</ele>
        <time>2020-05-01T15:21:33Z</time>
      </trkpt>
      <trkpt lat="44.52505" lon="4.54188">
        <ele>380</ele>
        <time>2020-05-01T15:21:34Z</time>
      </trkpt>
      <trkpt lat="44.52505" lon="4.54189">
        <ele>380</ele>
        <time>2020-05-01T15:21:35Z</time>
      </trkpt>
      <trkpt lat="44.52506" lon="4.54191">
        <ele>380.39999389648</ele>
        <time>2020-05-01T15:21:36Z</time>
      </trkpt>
      <trkpt lat="44.52506" lon="4.54193">
        <ele>381</ele>
        <time>2020-05-01T15:21:37Z</time>
      </trkpt>
      <trkpt lat="44.52507" lon="4.54195">
        <ele>381.39999389648</ele>
        <time>2020-05-01T15:21:38Z</time>
      </trkpt>
      <trkpt lat="44.52508" lon="4.54197">
        <ele>381.79998779297</ele>
        <time>2020-05-01T15:21:39Z</time>
      </trkpt>
      <trkpt lat="44.52509" lon="4.54199">
        <ele>382.39999389648</ele>
        <time>2020-05-01T15:21:40Z</time>
      </trkpt>
      <trkpt lat="44.52509" lon="4.54202">
        <ele>382.79998779297</ele>
        <time>2020-05-01T15:21:41Z</time>
      </trkpt>
      <trkpt lat="44.5251" lon="4.54204">
        <ele>383</ele>
        <time>2020-05-01T15:21:42Z</time>
      </trkpt>
      <trkpt lat="44.52511" lon="4.54207">
        <ele>383.39999389648</ele>
        <time>2020-05-01T15:21:43Z</time>
      </trkpt>
      <trkpt lat="44.52511" lon="4.5421">
        <ele>383.79998779297</ele>
        <time>2020-05-01T15:21:44Z</time>
      </trkpt>
      <trkpt lat="44.52512" lon="4.54212">
        <ele>384</ele>
        <time>2020-05-01T15:21:45Z</time>
      </trkpt>
      <trkpt lat="44.52513" lon="4.54215">
        <ele>384.20001220703</ele>
        <time>2020-05-01T15:21:46Z</time>
      </trkpt>
      <trkpt lat="44.52513" lon="4.54218">
        <ele>384.39999389648</ele>
        <time>2020-05-01T15:21:47Z</time>
      </trkpt>
      <trkpt lat="44.52514" lon="4.54221">
        <ele>385</ele>
        <time>2020-05-01T15:21:48Z</time>
      </trkpt>
      <trkpt lat="44.52514" lon="4.54224">
        <ele>385</ele>
        <time>2020-05-01T15:21:49Z</time>
      </trkpt>
      <trkpt lat="44.52514" lon="4.54227">
        <ele>385.60000610352</ele>
        <time>2020-05-01T15:21:50Z</time>
      </trkpt>
      <trkpt lat="44.52514" lon="4.54229">
        <ele>385.79998779297</ele>
        <time>2020-05-01T15:21:51Z</time>
      </trkpt>
      <trkpt lat="44.52514" lon="4.54232">
        <ele>386.39999389648</ele>
        <time>2020-05-01T15:21:52Z</time>
      </trkpt>
      <trkpt lat="44.52513" lon="4.54234">
        <ele>386.39999389648</ele>
        <time>2020-05-01T15:21:53Z</time>
      </trkpt>
      <trkpt lat="44.52512" lon="4.54237">
        <ele>387</ele>
        <time>2020-05-01T15:21:54Z</time>
      </trkpt>
      <trkpt lat="44.52511" lon="4.54238">
        <ele>387.20001220703</ele>
        <time>2020-05-01T15:21:55Z</time>
      </trkpt>
      <trkpt lat="44.5251" lon="4.5424">
        <ele>387.20001220703</ele>
        <time>2020-05-01T15:21:56Z</time>
      </trkpt>
      <trkpt lat="44.5251" lon="4.54243">
        <ele>387.60000610352</ele>
        <time>2020-05-01T15:21:57Z</time>
      </trkpt>
      <trkpt lat="44.52509" lon="4.54245">
        <ele>387.79998779297</ele>
        <time>2020-05-01T15:21:58Z</time>
      </trkpt>
      <trkpt lat="44.5251" lon="4.54247">
        <ele>388.20001220703</ele>
        <time>2020-05-01T15:21:59Z</time>
      </trkpt>
      <trkpt lat="44.5251" lon="4.54249">
        <ele>388.60000610352</ele>
        <time>2020-05-01T15:22:00Z</time>
      </trkpt>
      <trkpt lat="44.52511" lon="4.54251">
        <ele>388.60000610352</ele>
        <time>2020-05-01T15:22:01Z</time>
      </trkpt>
      <trkpt lat="44.52512" lon="4.54253">
        <ele>388.79998779297</ele>
        <time>2020-05-01T15:22:02Z</time>
      </trkpt>
      <trkpt lat="44.52513" lon="4.54254">
        <ele>389.20001220703</ele>
        <time>2020-05-01T15:22:03Z</time>
      </trkpt>
      <trkpt lat="44.52514" lon="4.54254">
        <ele>389</ele>
        <time>2020-05-01T15:22:04Z</time>
      </trkpt>
      <trkpt lat="44.52515" lon="4.54255">
        <ele>389.20001220703</ele>
        <time>2020-05-01T15:22:05Z</time>
      </trkpt>
      <trkpt lat="44.52517" lon="4.54255">
        <ele>389.20001220703</ele>
        <time>2020-05-01T15:22:06Z</time>
      </trkpt>
      <trkpt lat="44.52518" lon="4.54256">
        <ele>389.20001220703</ele>
        <time>2020-05-01T15:22:07Z</time>
      </trkpt>
      <trkpt lat="44.5252" lon="4.54256">
        <ele>389.39999389648</ele>
        <time>2020-05-01T15:22:08Z</time>
      </trkpt>
      <trkpt lat="44.52521" lon="4.54257">
        <ele>389.39999389648</ele>
        <time>2020-05-01T15:22:09Z</time>
      </trkpt>
      <trkpt lat="44.52522" lon="4.54258">
        <ele>389.39999389648</ele>
        <time>2020-05-01T15:22:10Z</time>
      </trkpt>
      <trkpt lat="44.52524" lon="4.5426">
        <ele>389.60000610352</ele>
        <time>2020-05-01T15:22:11Z</time>
      </trkpt>
      <trkpt lat="44.52525" lon="4.54261">
        <ele>389.60000610352</ele>
        <time>2020-05-01T15:22:12Z</time>
      </trkpt>
      <trkpt lat="44.52526" lon="4.54263">
        <ele>389.79998779297</ele>
        <time>2020-05-01T15:22:13Z</time>
      </trkpt>
      <trkpt lat="44.52527" lon="4.54265">
        <ele>390.20001220703</ele>
        <time>2020-05-01T15:22:14Z</time>
      </trkpt>
      <trkpt lat="44.52528" lon="4.54266">
        <ele>390.60000610352</ele>
        <time>2020-05-01T15:22:15Z</time>
      </trkpt>
      <trkpt lat="44.5253" lon="4.54268">
        <ele>390.79998779297</ele>
        <time>2020-05-01T15:22:16Z</time>
      </trkpt>
      <trkpt lat="44.52531" lon="4.54269">
        <ele>391</ele>
        <time>2020-05-01T15:22:17Z</time>
      </trkpt>
      <trkpt lat="44.52532" lon="4.54271">
        <ele>391</ele>
        <time>2020-05-01T15:22:18Z</time>
      </trkpt>
      <trkpt lat="44.52533" lon="4.54273">
        <ele>391.20001220703</ele>
        <time>2020-05-01T15:22:19Z</time>
      </trkpt>
      <trkpt lat="44.52534" lon="4.54275">
        <ele>391.39999389648</ele>
        <time>2020-05-01T15:22:20Z</time>
      </trkpt>
      <trkpt lat="44.52535" lon="4.54277">
        <ele>391.60000610352</ele>
        <time>2020-05-01T15:22:21Z</time>
      </trkpt>
      <trkpt lat="44.52537" lon="4.54279">
        <ele>391.79998779297</ele>
        <time>2020-05-01T15:22:22Z</time>
      </trkpt>
      <trkpt lat="44.52538" lon="4.54281">
        <ele>392</ele>
        <time>2020-05-01T15:22:23Z</time>
      </trkpt>
      <trkpt lat="44.52539" lon="4.54283">
        <ele>392.20001220703</ele>
        <time>2020-05-01T15:22:24Z</time>
      </trkpt>
      <trkpt lat="44.5254" lon="4.54285">
        <ele>392.39999389648</ele>
        <time>2020-05-01T15:22:25Z</time>
      </trkpt>
      <trkpt lat="44.5254" lon="4.54287">
        <ele>392.60000610352</ele>
        <time>2020-05-01T15:22:26Z</time>
      </trkpt>
      <trkpt lat="44.52541" lon="4.5429">
        <ele>392.60000610352</ele>
        <time>2020-05-01T15:22:27Z</time>
      </trkpt>
      <trkpt lat="44.52542" lon="4.54295">
        <ele>393.20001220703</ele>
        <time>2020-05-01T15:22:29Z</time>
      </trkpt>
      <trkpt lat="44.52543" lon="4.54297">
        <ele>393</ele>
        <time>2020-05-01T15:22:30Z</time>
      </trkpt>
      <trkpt lat="44.52545" lon="4.54298">
        <ele>393.20001220703</ele>
        <time>2020-05-01T15:22:31Z</time>
      </trkpt>
      <trkpt lat="44.52546" lon="4.543">
        <ele>393.39999389648</ele>
        <time>2020-05-01T15:22:32Z</time>
      </trkpt>
      <trkpt lat="44.52548" lon="4.54301">
        <ele>393.39999389648</ele>
        <time>2020-05-01T15:22:33Z</time>
      </trkpt>
      <trkpt lat="44.5255" lon="4.54301">
        <ele>393.39999389648</ele>
        <time>2020-05-01T15:22:34Z</time>
      </trkpt>
      <trkpt lat="44.52552" lon="4.54301">
        <ele>393.39999389648</ele>
        <time>2020-05-01T15:22:35Z</time>
      </trkpt>
      <trkpt lat="44.52553" lon="4.54301">
        <ele>393.39999389648</ele>
        <time>2020-05-01T15:22:36Z</time>
      </trkpt>
      <trkpt lat="44.52555" lon="4.54301">
        <ele>393.39999389648</ele>
        <time>2020-05-01T15:22:37Z</time>
      </trkpt>
      <trkpt lat="44.52556" lon="4.543">
        <ele>393.60000610352</ele>
        <time>2020-05-01T15:22:38Z</time>
      </trkpt>
      <trkpt lat="44.52558" lon="4.54298">
        <ele>393.60000610352</ele>
        <time>2020-05-01T15:22:39Z</time>
      </trkpt>
      <trkpt lat="44.5256" lon="4.54298">
        <ele>393.60000610352</ele>
        <time>2020-05-01T15:22:40Z</time>
      </trkpt>
      <trkpt lat="44.52562" lon="4.54299">
        <ele>394</ele>
        <time>2020-05-01T15:22:41Z</time>
      </trkpt>
      <trkpt lat="44.52564" lon="4.54301">
        <ele>394.20001220703</ele>
        <time>2020-05-01T15:22:42Z</time>
      </trkpt>
      <trkpt lat="44.52568" lon="4.54306">
        <ele>394.20001220703</ele>
        <time>2020-05-01T15:22:44Z</time>
      </trkpt>
      <trkpt lat="44.5257" lon="4.54309">
        <ele>394.39999389648</ele>
        <time>2020-05-01T15:22:45Z</time>
      </trkpt>
      <trkpt lat="44.52572" lon="4.54311">
        <ele>394.20001220703</ele>
        <time>2020-05-01T15:22:46Z</time>
      </trkpt>
      <trkpt lat="44.5258" lon="4.54326">
        <ele>394.39999389648</ele>
        <time>2020-05-01T15:22:51Z</time>
      </trkpt>
      <trkpt lat="44.52582" lon="4.54329">
        <ele>394.39999389648</ele>
        <time>2020-05-01T15:22:52Z</time>
      </trkpt>
      <trkpt lat="44.52584" lon="4.54332">
        <ele>394.60000610352</ele>
        <time>2020-05-01T15:22:53Z</time>
      </trkpt>
      <trkpt lat="44.52586" lon="4.54335">
        <ele>394.39999389648</ele>
        <time>2020-05-01T15:22:54Z</time>
      </trkpt>
      <trkpt lat="44.52588" lon="4.54338">
        <ele>394.60000610352</ele>
        <time>2020-05-01T15:22:55Z</time>
      </trkpt>
      <trkpt lat="44.52591" lon="4.54343">
        <ele>394.79998779297</ele>
        <time>2020-05-01T15:22:57Z</time>
      </trkpt>
      <trkpt lat="44.52593" lon="4.54346">
        <ele>394.60000610352</ele>
        <time>2020-05-01T15:22:58Z</time>
      </trkpt>
      <trkpt lat="44.52595" lon="4.54349">
        <ele>394.79998779297</ele>
        <time>2020-05-01T15:22:59Z</time>
      </trkpt>
      <trkpt lat="44.52597" lon="4.54352">
        <ele>394.79998779297</ele>
        <time>2020-05-01T15:23:00Z</time>
      </trkpt>
      <trkpt lat="44.526" lon="4.54358">
        <ele>395.20001220703</ele>
        <time>2020-05-01T15:23:02Z</time>
      </trkpt>
      <trkpt lat="44.52601" lon="4.54361">
        <ele>395.39999389648</ele>
        <time>2020-05-01T15:23:03Z</time>
      </trkpt>
      <trkpt lat="44.52603" lon="4.54364">
        <ele>395.39999389648</ele>
        <time>2020-05-01T15:23:04Z</time>
      </trkpt>
      <trkpt lat="44.52604" lon="4.54367">
        <ele>395.39999389648</ele>
        <time>2020-05-01T15:23:05Z</time>
      </trkpt>
      <trkpt lat="44.52606" lon="4.5437">
        <ele>395.39999389648</ele>
        <time>2020-05-01T15:23:06Z</time>
      </trkpt>
      <trkpt lat="44.52607" lon="4.54373">
        <ele>395.60000610352</ele>
        <time>2020-05-01T15:23:07Z</time>
      </trkpt>
      <trkpt lat="44.52609" lon="4.54375">
        <ele>395.60000610352</ele>
        <time>2020-05-01T15:23:08Z</time>
      </trkpt>
      <trkpt lat="44.52611" lon="4.54378">
        <ele>395.79998779297</ele>
        <time>2020-05-01T15:23:09Z</time>
      </trkpt>
      <trkpt lat="44.52612" lon="4.54381">
        <ele>396</ele>
        <time>2020-05-01T15:23:10Z</time>
      </trkpt>
      <trkpt lat="44.52613" lon="4.54383">
        <ele>396.20001220703</ele>
        <time>2020-05-01T15:23:11Z</time>
      </trkpt>
      <trkpt lat="44.52614" lon="4.54386">
        <ele>396.39999389648</ele>
        <time>2020-05-01T15:23:12Z</time>
      </trkpt>
      <trkpt lat="44.52615" lon="4.54389">
        <ele>396.79998779297</ele>
        <time>2020-05-01T15:23:13Z</time>
      </trkpt>
      <trkpt lat="44.52616" lon="4.54392">
        <ele>396.79998779297</ele>
        <time>2020-05-01T15:23:14Z</time>
      </trkpt>
      <trkpt lat="44.52616" lon="4.54395">
        <ele>397</ele>
        <time>2020-05-01T15:23:15Z</time>
      </trkpt>
      <trkpt lat="44.52617" lon="4.54397">
        <ele>397.39999389648</ele>
        <time>2020-05-01T15:23:16Z</time>
      </trkpt>
      <trkpt lat="44.52619" lon="4.54399">
        <ele>397.60000610352</ele>
        <time>2020-05-01T15:23:17Z</time>
      </trkpt>
      <trkpt lat="44.5262" lon="4.54401">
        <ele>397.60000610352</ele>
        <time>2020-05-01T15:23:18Z</time>
      </trkpt>
      <trkpt lat="44.52622" lon="4.54403">
        <ele>397.79998779297</ele>
        <time>2020-05-01T15:23:19Z</time>
      </trkpt>
      <trkpt lat="44.52623" lon="4.54405">
        <ele>398.20001220703</ele>
        <time>2020-05-01T15:23:20Z</time>
      </trkpt>
      <trkpt lat="44.52625" lon="4.54407">
        <ele>398.39999389648</ele>
        <time>2020-05-01T15:23:21Z</time>
      </trkpt>
      <trkpt lat="44.52626" lon="4.5441">
        <ele>398.39999389648</ele>
        <time>2020-05-01T15:23:22Z</time>
      </trkpt>
      <trkpt lat="44.52627" lon="4.54412">
        <ele>398.39999389648</ele>
        <time>2020-05-01T15:23:23Z</time>
      </trkpt>
      <trkpt lat="44.52628" lon="4.54415">
        <ele>398.79998779297</ele>
        <time>2020-05-01T15:23:24Z</time>
      </trkpt>
      <trkpt lat="44.52629" lon="4.54417">
        <ele>399.20001220703</ele>
        <time>2020-05-01T15:23:25Z</time>
      </trkpt>
      <trkpt lat="44.5263" lon="4.54419">
        <ele>399.20001220703</ele>
        <time>2020-05-01T15:23:26Z</time>
      </trkpt>
      <trkpt lat="44.52631" lon="4.54422">
        <ele>399.39999389648</ele>
        <time>2020-05-01T15:23:27Z</time>
      </trkpt>
      <trkpt lat="44.52632" lon="4.54424">
        <ele>399.60000610352</ele>
        <time>2020-05-01T15:23:28Z</time>
      </trkpt>
      <trkpt lat="44.52633" lon="4.54426">
        <ele>399.60000610352</ele>
        <time>2020-05-01T15:23:29Z</time>
      </trkpt>
      <trkpt lat="44.52634" lon="4.54429">
        <ele>399.79998779297</ele>
        <time>2020-05-01T15:23:30Z</time>
      </trkpt>
      <trkpt lat="44.52634" lon="4.54432">
        <ele>400</ele>
        <time>2020-05-01T15:23:31Z</time>
      </trkpt>
      <trkpt lat="44.52635" lon="4.54434">
        <ele>400.20001220703</ele>
        <time>2020-05-01T15:23:32Z</time>
      </trkpt>
      <trkpt lat="44.52636" lon="4.54437">
        <ele>400.39999389648</ele>
        <time>2020-05-01T15:23:33Z</time>
      </trkpt>
      <trkpt lat="44.52637" lon="4.5444">
        <ele>400.79998779297</ele>
        <time>2020-05-01T15:23:34Z</time>
      </trkpt>
      <trkpt lat="44.52638" lon="4.54442">
        <ele>401</ele>
        <time>2020-05-01T15:23:35Z</time>
      </trkpt>
      <trkpt lat="44.52639" lon="4.54445">
        <ele>401.20001220703</ele>
        <time>2020-05-01T15:23:36Z</time>
      </trkpt>
      <trkpt lat="44.52641" lon="4.54447">
        <ele>401.20001220703</ele>
        <time>2020-05-01T15:23:37Z</time>
      </trkpt>
      <trkpt lat="44.52642" lon="4.5445">
        <ele>401.60000610352</ele>
        <time>2020-05-01T15:23:38Z</time>
      </trkpt>
      <trkpt lat="44.52643" lon="4.54452">
        <ele>401.60000610352</ele>
        <time>2020-05-01T15:23:39Z</time>
      </trkpt>
      <trkpt lat="44.52644" lon="4.54454">
        <ele>402</ele>
        <time>2020-05-01T15:23:40Z</time>
      </trkpt>
      <trkpt lat="44.52645" lon="4.54457">
        <ele>402.20001220703</ele>
        <time>2020-05-01T15:23:41Z</time>
      </trkpt>
      <trkpt lat="44.52646" lon="4.54459">
        <ele>402.39999389648</ele>
        <time>2020-05-01T15:23:42Z</time>
      </trkpt>
      <trkpt lat="44.52647" lon="4.54462">
        <ele>402.39999389648</ele>
        <time>2020-05-01T15:23:43Z</time>
      </trkpt>
      <trkpt lat="44.52647" lon="4.54464">
        <ele>402.39999389648</ele>
        <time>2020-05-01T15:23:44Z</time>
      </trkpt>
      <trkpt lat="44.52648" lon="4.54467">
        <ele>402.79998779297</ele>
        <time>2020-05-01T15:23:45Z</time>
      </trkpt>
      <trkpt lat="44.52648" lon="4.5447">
        <ele>403</ele>
        <time>2020-05-01T15:23:46Z</time>
      </trkpt>
      <trkpt lat="44.52649" lon="4.54472">
        <ele>403.39999389648</ele>
        <time>2020-05-01T15:23:47Z</time>
      </trkpt>
      <trkpt lat="44.5265" lon="4.54474">
        <ele>403.79998779297</ele>
        <time>2020-05-01T15:23:48Z</time>
      </trkpt>
      <trkpt lat="44.52652" lon="4.54476">
        <ele>404</ele>
        <time>2020-05-01T15:23:49Z</time>
      </trkpt>
      <trkpt lat="44.52653" lon="4.54478">
        <ele>404.20001220703</ele>
        <time>2020-05-01T15:23:50Z</time>
      </trkpt>
      <trkpt lat="44.52655" lon="4.5448">
        <ele>404.60000610352</ele>
        <time>2020-05-01T15:23:51Z</time>
      </trkpt>
      <trkpt lat="44.52656" lon="4.54483">
        <ele>404.79998779297</ele>
        <time>2020-05-01T15:23:52Z</time>
      </trkpt>
      <trkpt lat="44.52658" lon="4.54486">
        <ele>405</ele>
        <time>2020-05-01T15:23:53Z</time>
      </trkpt>
      <trkpt lat="44.52659" lon="4.54488">
        <ele>405.20001220703</ele>
        <time>2020-05-01T15:23:54Z</time>
      </trkpt>
      <trkpt lat="44.5266" lon="4.54491">
        <ele>405.39999389648</ele>
        <time>2020-05-01T15:23:55Z</time>
      </trkpt>
      <trkpt lat="44.52661" lon="4.54493">
        <ele>405.60000610352</ele>
        <time>2020-05-01T15:23:56Z</time>
      </trkpt>
      <trkpt lat="44.52662" lon="4.54496">
        <ele>405.79998779297</ele>
        <time>2020-05-01T15:23:57Z</time>
      </trkpt>
      <trkpt lat="44.52663" lon="4.54498">
        <ele>405.79998779297</ele>
        <time>2020-05-01T15:23:58Z</time>
      </trkpt>
      <trkpt lat="44.52664" lon="4.545">
        <ele>406</ele>
        <time>2020-05-01T15:23:59Z</time>
      </trkpt>
      <trkpt lat="44.52666" lon="4.54502">
        <ele>406.20001220703</ele>
        <time>2020-05-01T15:24:00Z</time>
      </trkpt>
      <trkpt lat="44.52667" lon="4.54503">
        <ele>406.20001220703</ele>
        <time>2020-05-01T15:24:01Z</time>
      </trkpt>
      <trkpt lat="44.52669" lon="4.54505">
        <ele>406.60000610352</ele>
        <time>2020-05-01T15:24:02Z</time>
      </trkpt>
      <trkpt lat="44.52671" lon="4.54507">
        <ele>406.79998779297</ele>
        <time>2020-05-01T15:24:03Z</time>
      </trkpt>
      <trkpt lat="44.52672" lon="4.54509">
        <ele>406.79998779297</ele>
        <time>2020-05-01T15:24:04Z</time>
      </trkpt>
      <trkpt lat="44.52673" lon="4.54512">
        <ele>407</ele>
        <time>2020-05-01T15:24:05Z</time>
      </trkpt>
      <trkpt lat="44.52675" lon="4.54514">
        <ele>407</ele>
        <time>2020-05-01T15:24:06Z</time>
      </trkpt>
      <trkpt lat="44.52676" lon="4.54517">
        <ele>407.20001220703</ele>
        <time>2020-05-01T15:24:07Z</time>
      </trkpt>
      <trkpt lat="44.52677" lon="4.54519">
        <ele>407.39999389648</ele>
        <time>2020-05-01T15:24:08Z</time>
      </trkpt>
      <trkpt lat="44.52678" lon="4.54521">
        <ele>407.39999389648</ele>
        <time>2020-05-01T15:24:09Z</time>
      </trkpt>
      <trkpt lat="44.52679" lon="4.54524">
        <ele>407.60000610352</ele>
        <time>2020-05-01T15:24:10Z</time>
      </trkpt>
      <trkpt lat="44.52679" lon="4.54526">
        <ele>407.79998779297</ele>
        <time>2020-05-01T15:24:11Z</time>
      </trkpt>
      <trkpt lat="44.52679" lon="4.54528">
        <ele>407.79998779297</ele>
        <time>2020-05-01T15:24:12Z</time>
      </trkpt>
      <trkpt lat="44.52679" lon="4.5453">
        <ele>407.79998779297</ele>
        <time>2020-05-01T15:24:13Z</time>
      </trkpt>
      <trkpt lat="44.5268" lon="4.54532">
        <ele>408</ele>
        <time>2020-05-01T15:24:14Z</time>
      </trkpt>
      <trkpt lat="44.5268" lon="4.54535">
        <ele>408.20001220703</ele>
        <time>2020-05-01T15:24:15Z</time>
      </trkpt>
      <trkpt lat="44.5268" lon="4.54538">
        <ele>408.20001220703</ele>
        <time>2020-05-01T15:24:16Z</time>
      </trkpt>
      <trkpt lat="44.5268" lon="4.5454">
        <ele>408.20001220703</ele>
        <time>2020-05-01T15:24:17Z</time>
      </trkpt>
      <trkpt lat="44.52681" lon="4.54542">
        <ele>408.39999389648</ele>
        <time>2020-05-01T15:24:18Z</time>
      </trkpt>
      <trkpt lat="44.52681" lon="4.54544">
        <ele>408.60000610352</ele>
        <time>2020-05-01T15:24:19Z</time>
      </trkpt>
      <trkpt lat="44.52681" lon="4.54546">
        <ele>408.60000610352</ele>
        <time>2020-05-01T15:24:20Z</time>
      </trkpt>
      <trkpt lat="44.5268" lon="4.54549">
        <ele>408.79998779297</ele>
        <time>2020-05-01T15:24:21Z</time>
      </trkpt>
      <trkpt lat="44.52681" lon="4.54553">
        <ele>409</ele>
        <time>2020-05-01T15:24:22Z</time>
      </trkpt>
      <trkpt lat="44.52681" lon="4.54556">
        <ele>409.20001220703</ele>
        <time>2020-05-01T15:24:23Z</time>
      </trkpt>
      <trkpt lat="44.52682" lon="4.54559">
        <ele>409.39999389648</ele>
        <time>2020-05-01T15:24:24Z</time>
      </trkpt>
      <trkpt lat="44.52684" lon="4.54561">
        <ele>409.39999389648</ele>
        <time>2020-05-01T15:24:25Z</time>
      </trkpt>
      <trkpt lat="44.52686" lon="4.54563">
        <ele>409.39999389648</ele>
        <time>2020-05-01T15:24:26Z</time>
      </trkpt>
      <trkpt lat="44.52688" lon="4.54564">
        <ele>409.60000610352</ele>
        <time>2020-05-01T15:24:27Z</time>
      </trkpt>
      <trkpt lat="44.52691" lon="4.54564">
        <ele>409.60000610352</ele>
        <time>2020-05-01T15:24:28Z</time>
      </trkpt>
      <trkpt lat="44.52697" lon="4.54566">
        <ele>409.60000610352</ele>
        <time>2020-05-01T15:24:30Z</time>
      </trkpt>
      <trkpt lat="44.527" lon="4.54568">
        <ele>409.60000610352</ele>
        <time>2020-05-01T15:24:31Z</time>
      </trkpt>
      <trkpt lat="44.52703" lon="4.54569">
        <ele>409.60000610352</ele>
        <time>2020-05-01T15:24:32Z</time>
      </trkpt>
      <trkpt lat="44.52705" lon="4.54571">
        <ele>409.79998779297</ele>
        <time>2020-05-01T15:24:33Z</time>
      </trkpt>
      <trkpt lat="44.52708" lon="4.54574">
        <ele>409.79998779297</ele>
        <time>2020-05-01T15:24:34Z</time>
      </trkpt>
      <trkpt lat="44.52714" lon="4.54579">
        <ele>409.60000610352</ele>
        <time>2020-05-01T15:24:36Z</time>
      </trkpt>
      <trkpt lat="44.52724" lon="4.54585">
        <ele>409.60000610352</ele>
        <time>2020-05-01T15:24:39Z</time>
      </trkpt>
      <trkpt lat="44.52728" lon="4.54587">
        <ele>409.60000610352</ele>
        <time>2020-05-01T15:24:40Z</time>
      </trkpt>
      <trkpt lat="44.52731" lon="4.54588">
        <ele>409.60000610352</ele>
        <time>2020-05-01T15:24:41Z</time>
      </trkpt>
      <trkpt lat="44.52734" lon="4.5459">
        <ele>409.39999389648</ele>
        <time>2020-05-01T15:24:42Z</time>
      </trkpt>
      <trkpt lat="44.52737" lon="4.54592">
        <ele>409.39999389648</ele>
        <time>2020-05-01T15:24:43Z</time>
      </trkpt>
      <trkpt lat="44.52741" lon="4.54593">
        <ele>409.60000610352</ele>
        <time>2020-05-01T15:24:44Z</time>
      </trkpt>
      <trkpt lat="44.52747" lon="4.54597">
        <ele>409.39999389648</ele>
        <time>2020-05-01T15:24:46Z</time>
      </trkpt>
      <trkpt lat="44.52754" lon="4.54601">
        <ele>409.39999389648</ele>
        <time>2020-05-01T15:24:48Z</time>
      </trkpt>
      <trkpt lat="44.52772" lon="4.54611">
        <ele>409</ele>
        <time>2020-05-01T15:24:53Z</time>
      </trkpt>
      <trkpt lat="44.52784" lon="4.54618">
        <ele>408.60000610352</ele>
        <time>2020-05-01T15:24:56Z</time>
      </trkpt>
      <trkpt lat="44.52788" lon="4.54621">
        <ele>408.60000610352</ele>
        <time>2020-05-01T15:24:57Z</time>
      </trkpt>
      <trkpt lat="44.52797" lon="4.54626">
        <ele>408.39999389648</ele>
        <time>2020-05-01T15:24:59Z</time>
      </trkpt>
      <trkpt lat="44.52806" lon="4.54632">
        <ele>408.39999389648</ele>
        <time>2020-05-01T15:25:01Z</time>
      </trkpt>
      <trkpt lat="44.5281" lon="4.54633">
        <ele>408</ele>
        <time>2020-05-01T15:25:02Z</time>
      </trkpt>
      <trkpt lat="44.52813" lon="4.54634">
        <ele>407.79998779297</ele>
        <time>2020-05-01T15:25:03Z</time>
      </trkpt>
      <trkpt lat="44.52816" lon="4.54635">
        <ele>407.39999389648</ele>
        <time>2020-05-01T15:25:04Z</time>
      </trkpt>
      <trkpt lat="44.5282" lon="4.54635">
        <ele>407</ele>
        <time>2020-05-01T15:25:05Z</time>
      </trkpt>
      <trkpt lat="44.52823" lon="4.54635">
        <ele>406.60000610352</ele>
        <time>2020-05-01T15:25:06Z</time>
      </trkpt>
      <trkpt lat="44.52826" lon="4.54636">
        <ele>406.79998779297</ele>
        <time>2020-05-01T15:25:07Z</time>
      </trkpt>
      <trkpt lat="44.5283" lon="4.54637">
        <ele>406.79998779297</ele>
        <time>2020-05-01T15:25:08Z</time>
      </trkpt>
      <trkpt lat="44.5284" lon="4.54643">
        <ele>406.39999389648</ele>
        <time>2020-05-01T15:25:11Z</time>
      </trkpt>
      <trkpt lat="44.52844" lon="4.54645">
        <ele>406.20001220703</ele>
        <time>2020-05-01T15:25:12Z</time>
      </trkpt>
      <trkpt lat="44.52847" lon="4.54647">
        <ele>406.20001220703</ele>
        <time>2020-05-01T15:25:13Z</time>
      </trkpt>
      <trkpt lat="44.52851" lon="4.54649">
        <ele>406.20001220703</ele>
        <time>2020-05-01T15:25:14Z</time>
      </trkpt>
      <trkpt lat="44.52862" lon="4.54653">
        <ele>406.20001220703</ele>
        <time>2020-05-01T15:25:17Z</time>
      </trkpt>
      <trkpt lat="44.52865" lon="4.54655">
        <ele>406.20001220703</ele>
        <time>2020-05-01T15:25:18Z</time>
      </trkpt>
      <trkpt lat="44.52868" lon="4.54657">
        <ele>406.39999389648</ele>
        <time>2020-05-01T15:25:19Z</time>
      </trkpt>
      <trkpt lat="44.52871" lon="4.54659">
        <ele>406.20001220703</ele>
        <time>2020-05-01T15:25:20Z</time>
      </trkpt>
      <trkpt lat="44.52874" lon="4.5466">
        <ele>406.39999389648</ele>
        <time>2020-05-01T15:25:21Z</time>
      </trkpt>
      <trkpt lat="44.52876" lon="4.54662">
        <ele>406.39999389648</ele>
        <time>2020-05-01T15:25:22Z</time>
      </trkpt>
      <trkpt lat="44.52879" lon="4.54664">
        <ele>406.39999389648</ele>
        <time>2020-05-01T15:25:23Z</time>
      </trkpt>
      <trkpt lat="44.52882" lon="4.54665">
        <ele>406.39999389648</ele>
        <time>2020-05-01T15:25:24Z</time>
      </trkpt>
      <trkpt lat="44.52885" lon="4.54666">
        <ele>406.39999389648</ele>
        <time>2020-05-01T15:25:25Z</time>
      </trkpt>
      <trkpt lat="44.52888" lon="4.54667">
        <ele>406.39999389648</ele>
        <time>2020-05-01T15:25:26Z</time>
      </trkpt>
      <trkpt lat="44.52891" lon="4.54667">
        <ele>406.39999389648</ele>
        <time>2020-05-01T15:25:27Z</time>
      </trkpt>
      <trkpt lat="44.52893" lon="4.54668">
        <ele>406.39999389648</ele>
        <time>2020-05-01T15:25:28Z</time>
      </trkpt>
      <trkpt lat="44.52896" lon="4.54669">
        <ele>406.39999389648</ele>
        <time>2020-05-01T15:25:29Z</time>
      </trkpt>
      <trkpt lat="44.52899" lon="4.5467">
        <ele>406.39999389648</ele>
        <time>2020-05-01T15:25:30Z</time>
      </trkpt>
      <trkpt lat="44.52902" lon="4.54671">
        <ele>406.39999389648</ele>
        <time>2020-05-01T15:25:31Z</time>
      </trkpt>
      <trkpt lat="44.52905" lon="4.54672">
        <ele>406.60000610352</ele>
        <time>2020-05-01T15:25:32Z</time>
      </trkpt>
      <trkpt lat="44.52908" lon="4.54673">
        <ele>406.79998779297</ele>
        <time>2020-05-01T15:25:33Z</time>
      </trkpt>
      <trkpt lat="44.5291" lon="4.54674">
        <ele>407</ele>
        <time>2020-05-01T15:25:34Z</time>
      </trkpt>
      <trkpt lat="44.52913" lon="4.54675">
        <ele>406.79998779297</ele>
        <time>2020-05-01T15:25:35Z</time>
      </trkpt>
      <trkpt lat="44.52915" lon="4.54676">
        <ele>407</ele>
        <time>2020-05-01T15:25:36Z</time>
      </trkpt>
      <trkpt lat="44.52918" lon="4.54677">
        <ele>407.20001220703</ele>
        <time>2020-05-01T15:25:37Z</time>
      </trkpt>
      <trkpt lat="44.52921" lon="4.54678">
        <ele>407.39999389648</ele>
        <time>2020-05-01T15:25:38Z</time>
      </trkpt>
      <trkpt lat="44.52924" lon="4.54679">
        <ele>407.39999389648</ele>
        <time>2020-05-01T15:25:39Z</time>
      </trkpt>
      <trkpt lat="44.52927" lon="4.5468">
        <ele>407.79998779297</ele>
        <time>2020-05-01T15:25:40Z</time>
      </trkpt>
      <trkpt lat="44.52929" lon="4.54681">
        <ele>408</ele>
        <time>2020-05-01T15:25:41Z</time>
      </trkpt>
      <trkpt lat="44.52932" lon="4.54682">
        <ele>408</ele>
        <time>2020-05-01T15:25:42Z</time>
      </trkpt>
      <trkpt lat="44.52935" lon="4.54683">
        <ele>408.20001220703</ele>
        <time>2020-05-01T15:25:43Z</time>
      </trkpt>
      <trkpt lat="44.52938" lon="4.54683">
        <ele>408.60000610352</ele>
        <time>2020-05-01T15:25:44Z</time>
      </trkpt>
      <trkpt lat="44.5294" lon="4.54683">
        <ele>408.79998779297</ele>
        <time>2020-05-01T15:25:45Z</time>
      </trkpt>
      <trkpt lat="44.52943" lon="4.54683">
        <ele>409</ele>
        <time>2020-05-01T15:25:46Z</time>
      </trkpt>
      <trkpt lat="44.52946" lon="4.54683">
        <ele>409.20001220703</ele>
        <time>2020-05-01T15:25:47Z</time>
      </trkpt>
      <trkpt lat="44.52948" lon="4.54682">
        <ele>409.39999389648</ele>
        <time>2020-05-01T15:25:48Z</time>
      </trkpt>
      <trkpt lat="44.52951" lon="4.54681">
        <ele>409.60000610352</ele>
        <time>2020-05-01T15:25:49Z</time>
      </trkpt>
      <trkpt lat="44.52954" lon="4.5468">
        <ele>409.60000610352</ele>
        <time>2020-05-01T15:25:50Z</time>
      </trkpt>
      <trkpt lat="44.52956" lon="4.54679">
        <ele>409.60000610352</ele>
        <time>2020-05-01T15:25:51Z</time>
      </trkpt>
      <trkpt lat="44.52958" lon="4.54679">
        <ele>410</ele>
        <time>2020-05-01T15:25:52Z</time>
      </trkpt>
      <trkpt lat="44.52961" lon="4.54678">
        <ele>410.20001220703</ele>
        <time>2020-05-01T15:25:53Z</time>
      </trkpt>
      <trkpt lat="44.52963" lon="4.54678">
        <ele>410.20001220703</ele>
        <time>2020-05-01T15:25:54Z</time>
      </trkpt>
      <trkpt lat="44.52966" lon="4.54678">
        <ele>410.60000610352</ele>
        <time>2020-05-01T15:25:55Z</time>
      </trkpt>
      <trkpt lat="44.52968" lon="4.54679">
        <ele>410.79998779297</ele>
        <time>2020-05-01T15:25:56Z</time>
      </trkpt>
      <trkpt lat="44.52971" lon="4.5468">
        <ele>411</ele>
        <time>2020-05-01T15:25:57Z</time>
      </trkpt>
      <trkpt lat="44.52974" lon="4.54681">
        <ele>411.39999389648</ele>
        <time>2020-05-01T15:25:58Z</time>
      </trkpt>
      <trkpt lat="44.52977" lon="4.54681">
        <ele>411.79998779297</ele>
        <time>2020-05-01T15:25:59Z</time>
      </trkpt>
      <trkpt lat="44.52979" lon="4.54682">
        <ele>412</ele>
        <time>2020-05-01T15:26:00Z</time>
      </trkpt>
      <trkpt lat="44.52982" lon="4.54683">
        <ele>412.60000610352</ele>
        <time>2020-05-01T15:26:01Z</time>
      </trkpt>
      <trkpt lat="44.52984" lon="4.54684">
        <ele>413</ele>
        <time>2020-05-01T15:26:02Z</time>
      </trkpt>
      <trkpt lat="44.52987" lon="4.54684">
        <ele>413.39999389648</ele>
        <time>2020-05-01T15:26:03Z</time>
      </trkpt>
      <trkpt lat="44.52989" lon="4.54684">
        <ele>413.60000610352</ele>
        <time>2020-05-01T15:26:04Z</time>
      </trkpt>
      <trkpt lat="44.52992" lon="4.54684">
        <ele>413.79998779297</ele>
        <time>2020-05-01T15:26:05Z</time>
      </trkpt>
      <trkpt lat="44.52994" lon="4.54683">
        <ele>413.79998779297</ele>
        <time>2020-05-01T15:26:06Z</time>
      </trkpt>
      <trkpt lat="44.52997" lon="4.54682">
        <ele>414</ele>
        <time>2020-05-01T15:26:07Z</time>
      </trkpt>
      <trkpt lat="44.53" lon="4.54681">
        <ele>414.60000610352</ele>
        <time>2020-05-01T15:26:08Z</time>
      </trkpt>
      <trkpt lat="44.53002" lon="4.54679">
        <ele>414.79998779297</ele>
        <time>2020-05-01T15:26:09Z</time>
      </trkpt>
      <trkpt lat="44.53005" lon="4.54677">
        <ele>415.20001220703</ele>
        <time>2020-05-01T15:26:10Z</time>
      </trkpt>
      <trkpt lat="44.53007" lon="4.54676">
        <ele>415.39999389648</ele>
        <time>2020-05-01T15:26:11Z</time>
      </trkpt>
      <trkpt lat="44.5301" lon="4.54676">
        <ele>415.39999389648</ele>
        <time>2020-05-01T15:26:12Z</time>
      </trkpt>
      <trkpt lat="44.53012" lon="4.54675">
        <ele>415.60000610352</ele>
        <time>2020-05-01T15:26:13Z</time>
      </trkpt>
      <trkpt lat="44.53014" lon="4.54675">
        <ele>415.79998779297</ele>
        <time>2020-05-01T15:26:14Z</time>
      </trkpt>
      <trkpt lat="44.53017" lon="4.54675">
        <ele>416.39999389648</ele>
        <time>2020-05-01T15:26:15Z</time>
      </trkpt>
      <trkpt lat="44.53019" lon="4.54675">
        <ele>417</ele>
        <time>2020-05-01T15:26:16Z</time>
      </trkpt>
      <trkpt lat="44.53022" lon="4.54676">
        <ele>417</ele>
        <time>2020-05-01T15:26:17Z</time>
      </trkpt>
      <trkpt lat="44.53025" lon="4.54677">
        <ele>417.39999389648</ele>
        <time>2020-05-01T15:26:18Z</time>
      </trkpt>
      <trkpt lat="44.53027" lon="4.54677">
        <ele>417.60000610352</ele>
        <time>2020-05-01T15:26:19Z</time>
      </trkpt>
      <trkpt lat="44.53029" lon="4.54677">
        <ele>417.79998779297</ele>
        <time>2020-05-01T15:26:20Z</time>
      </trkpt>
      <trkpt lat="44.53032" lon="4.54678">
        <ele>418</ele>
        <time>2020-05-01T15:26:21Z</time>
      </trkpt>
      <trkpt lat="44.53034" lon="4.54678">
        <ele>418</ele>
        <time>2020-05-01T15:26:22Z</time>
      </trkpt>
      <trkpt lat="44.53036" lon="4.54679">
        <ele>418.20001220703</ele>
        <time>2020-05-01T15:26:23Z</time>
      </trkpt>
      <trkpt lat="44.53038" lon="4.54679">
        <ele>418.39999389648</ele>
        <time>2020-05-01T15:26:24Z</time>
      </trkpt>
      <trkpt lat="44.5304" lon="4.5468">
        <ele>418.60000610352</ele>
        <time>2020-05-01T15:26:25Z</time>
      </trkpt>
      <trkpt lat="44.53042" lon="4.54681">
        <ele>419</ele>
        <time>2020-05-01T15:26:26Z</time>
      </trkpt>
      <trkpt lat="44.53045" lon="4.54682">
        <ele>419</ele>
        <time>2020-05-01T15:26:27Z</time>
      </trkpt>
      <trkpt lat="44.53047" lon="4.54682">
        <ele>419.20001220703</ele>
        <time>2020-05-01T15:26:28Z</time>
      </trkpt>
      <trkpt lat="44.53049" lon="4.54683">
        <ele>419.39999389648</ele>
        <time>2020-05-01T15:26:29Z</time>
      </trkpt>
      <trkpt lat="44.53051" lon="4.54683">
        <ele>419.79998779297</ele>
        <time>2020-05-01T15:26:30Z</time>
      </trkpt>
      <trkpt lat="44.53052" lon="4.54684">
        <ele>420.20001220703</ele>
        <time>2020-05-01T15:26:31Z</time>
      </trkpt>
      <trkpt lat="44.53054" lon="4.54684">
        <ele>420.60000610352</ele>
        <time>2020-05-01T15:26:32Z</time>
      </trkpt>
      <trkpt lat="44.53056" lon="4.54684">
        <ele>421</ele>
        <time>2020-05-01T15:26:33Z</time>
      </trkpt>
      <trkpt lat="44.53059" lon="4.54685">
        <ele>421</ele>
        <time>2020-05-01T15:26:34Z</time>
      </trkpt>
      <trkpt lat="44.53061" lon="4.54685">
        <ele>421.39999389648</ele>
        <time>2020-05-01T15:26:35Z</time>
      </trkpt>
      <trkpt lat="44.53063" lon="4.54686">
        <ele>421.60000610352</ele>
        <time>2020-05-01T15:26:36Z</time>
      </trkpt>
      <trkpt lat="44.53065" lon="4.54686">
        <ele>421.79998779297</ele>
        <time>2020-05-01T15:26:37Z</time>
      </trkpt>
      <trkpt lat="44.53067" lon="4.54687">
        <ele>422.20001220703</ele>
        <time>2020-05-01T15:26:38Z</time>
      </trkpt>
      <trkpt lat="44.53069" lon="4.54687">
        <ele>422.39999389648</ele>
        <time>2020-05-01T15:26:39Z</time>
      </trkpt>
      <trkpt lat="44.53072" lon="4.54688">
        <ele>422.60000610352</ele>
        <time>2020-05-01T15:26:40Z</time>
      </trkpt>
      <trkpt lat="44.53074" lon="4.54688">
        <ele>423</ele>
        <time>2020-05-01T15:26:41Z</time>
      </trkpt>
      <trkpt lat="44.53076" lon="4.54688">
        <ele>423</ele>
        <time>2020-05-01T15:26:42Z</time>
      </trkpt>
      <trkpt lat="44.53079" lon="4.54688">
        <ele>423.39999389648</ele>
        <time>2020-05-01T15:26:43Z</time>
      </trkpt>
      <trkpt lat="44.53081" lon="4.54688">
        <ele>423.39999389648</ele>
        <time>2020-05-01T15:26:44Z</time>
      </trkpt>
      <trkpt lat="44.53083" lon="4.54688">
        <ele>423.60000610352</ele>
        <time>2020-05-01T15:26:45Z</time>
      </trkpt>
      <trkpt lat="44.53085" lon="4.54688">
        <ele>424</ele>
        <time>2020-05-01T15:26:46Z</time>
      </trkpt>
      <trkpt lat="44.53087" lon="4.54688">
        <ele>424</ele>
        <time>2020-05-01T15:26:47Z</time>
      </trkpt>
      <trkpt lat="44.53089" lon="4.54688">
        <ele>424.39999389648</ele>
        <time>2020-05-01T15:26:48Z</time>
      </trkpt>
      <trkpt lat="44.53092" lon="4.54688">
        <ele>424.60000610352</ele>
        <time>2020-05-01T15:26:49Z</time>
      </trkpt>
      <trkpt lat="44.53094" lon="4.54688">
        <ele>424.79998779297</ele>
        <time>2020-05-01T15:26:50Z</time>
      </trkpt>
      <trkpt lat="44.53096" lon="4.54688">
        <ele>425.20001220703</ele>
        <time>2020-05-01T15:26:51Z</time>
      </trkpt>
      <trkpt lat="44.53098" lon="4.54688">
        <ele>425.60000610352</ele>
        <time>2020-05-01T15:26:52Z</time>
      </trkpt>
      <trkpt lat="44.53101" lon="4.54688">
        <ele>425.60000610352</ele>
        <time>2020-05-01T15:26:53Z</time>
      </trkpt>
      <trkpt lat="44.53103" lon="4.54688">
        <ele>425.79998779297</ele>
        <time>2020-05-01T15:26:54Z</time>
      </trkpt>
      <trkpt lat="44.53106" lon="4.54688">
        <ele>425.79998779297</ele>
        <time>2020-05-01T15:26:55Z</time>
      </trkpt>
      <trkpt lat="44.53108" lon="4.54688">
        <ele>426</ele>
        <time>2020-05-01T15:26:56Z</time>
      </trkpt>
      <trkpt lat="44.5311" lon="4.54688">
        <ele>426.20001220703</ele>
        <time>2020-05-01T15:26:57Z</time>
      </trkpt>
      <trkpt lat="44.53113" lon="4.54688">
        <ele>426.20001220703</ele>
        <time>2020-05-01T15:26:58Z</time>
      </trkpt>
      <trkpt lat="44.53115" lon="4.54689">
        <ele>426.20001220703</ele>
        <time>2020-05-01T15:26:59Z</time>
      </trkpt>
      <trkpt lat="44.53117" lon="4.54691">
        <ele>426.39999389648</ele>
        <time>2020-05-01T15:27:00Z</time>
      </trkpt>
      <trkpt lat="44.5312" lon="4.54692">
        <ele>426.79998779297</ele>
        <time>2020-05-01T15:27:01Z</time>
      </trkpt>
      <trkpt lat="44.53122" lon="4.54693">
        <ele>427</ele>
        <time>2020-05-01T15:27:02Z</time>
      </trkpt>
      <trkpt lat="44.53124" lon="4.54693">
        <ele>427</ele>
        <time>2020-05-01T15:27:03Z</time>
      </trkpt>
      <trkpt lat="44.53127" lon="4.54694">
        <ele>427.39999389648</ele>
        <time>2020-05-01T15:27:04Z</time>
      </trkpt>
      <trkpt lat="44.53129" lon="4.54695">
        <ele>427.60000610352</ele>
        <time>2020-05-01T15:27:05Z</time>
      </trkpt>
      <trkpt lat="44.53131" lon="4.54695">
        <ele>427.79998779297</ele>
        <time>2020-05-01T15:27:06Z</time>
      </trkpt>
      <trkpt lat="44.53134" lon="4.54696">
        <ele>427.79998779297</ele>
        <time>2020-05-01T15:27:07Z</time>
      </trkpt>
      <trkpt lat="44.53136" lon="4.54696">
        <ele>428</ele>
        <time>2020-05-01T15:27:08Z</time>
      </trkpt>
      <trkpt lat="44.53138" lon="4.54697">
        <ele>428.20001220703</ele>
        <time>2020-05-01T15:27:09Z</time>
      </trkpt>
      <trkpt lat="44.5314" lon="4.54697">
        <ele>428.39999389648</ele>
        <time>2020-05-01T15:27:10Z</time>
      </trkpt>
      <trkpt lat="44.53142" lon="4.54698">
        <ele>428.60000610352</ele>
        <time>2020-05-01T15:27:11Z</time>
      </trkpt>
      <trkpt lat="44.53144" lon="4.54698">
        <ele>428.79998779297</ele>
        <time>2020-05-01T15:27:12Z</time>
      </trkpt>
      <trkpt lat="44.53147" lon="4.54699">
        <ele>429</ele>
        <time>2020-05-01T15:27:13Z</time>
      </trkpt>
      <trkpt lat="44.53149" lon="4.547">
        <ele>429.20001220703</ele>
        <time>2020-05-01T15:27:14Z</time>
      </trkpt>
      <trkpt lat="44.53151" lon="4.547">
        <ele>429.39999389648</ele>
        <time>2020-05-01T15:27:15Z</time>
      </trkpt>
      <trkpt lat="44.53154" lon="4.54701">
        <ele>429.79998779297</ele>
        <time>2020-05-01T15:27:16Z</time>
      </trkpt>
      <trkpt lat="44.53156" lon="4.54702">
        <ele>429.79998779297</ele>
        <time>2020-05-01T15:27:17Z</time>
      </trkpt>
      <trkpt lat="44.53159" lon="4.54702">
        <ele>429.79998779297</ele>
        <time>2020-05-01T15:27:18Z</time>
      </trkpt>
      <trkpt lat="44.53161" lon="4.54703">
        <ele>430</ele>
        <time>2020-05-01T15:27:19Z</time>
      </trkpt>
      <trkpt lat="44.53164" lon="4.54703">
        <ele>430</ele>
        <time>2020-05-01T15:27:20Z</time>
      </trkpt>
      <trkpt lat="44.53166" lon="4.54704">
        <ele>430.20001220703</ele>
        <time>2020-05-01T15:27:21Z</time>
      </trkpt>
      <trkpt lat="44.53169" lon="4.54704">
        <ele>430.60000610352</ele>
        <time>2020-05-01T15:27:22Z</time>
      </trkpt>
      <trkpt lat="44.53172" lon="4.54704">
        <ele>430.79998779297</ele>
        <time>2020-05-01T15:27:23Z</time>
      </trkpt>
      <trkpt lat="44.53174" lon="4.54704">
        <ele>430.79998779297</ele>
        <time>2020-05-01T15:27:24Z</time>
      </trkpt>
      <trkpt lat="44.53177" lon="4.54704">
        <ele>431</ele>
        <time>2020-05-01T15:27:25Z</time>
      </trkpt>
      <trkpt lat="44.5318" lon="4.54704">
        <ele>431.20001220703</ele>
        <time>2020-05-01T15:27:26Z</time>
      </trkpt>
      <trkpt lat="44.53182" lon="4.54704">
        <ele>431.60000610352</ele>
        <time>2020-05-01T15:27:27Z</time>
      </trkpt>
      <trkpt lat="44.53185" lon="4.54704">
        <ele>431.60000610352</ele>
        <time>2020-05-01T15:27:28Z</time>
      </trkpt>
      <trkpt lat="44.53187" lon="4.54705">
        <ele>431.79998779297</ele>
        <time>2020-05-01T15:27:29Z</time>
      </trkpt>
      <trkpt lat="44.5319" lon="4.54705">
        <ele>432</ele>
        <time>2020-05-01T15:27:30Z</time>
      </trkpt>
      <trkpt lat="44.53193" lon="4.54705">
        <ele>432.20001220703</ele>
        <time>2020-05-01T15:27:31Z</time>
      </trkpt>
      <trkpt lat="44.53195" lon="4.54705">
        <ele>432.39999389648</ele>
        <time>2020-05-01T15:27:32Z</time>
      </trkpt>
      <trkpt lat="44.53197" lon="4.54705">
        <ele>432.60000610352</ele>
        <time>2020-05-01T15:27:33Z</time>
      </trkpt>
      <trkpt lat="44.532" lon="4.54705">
        <ele>432.60000610352</ele>
        <time>2020-05-01T15:27:34Z</time>
      </trkpt>
      <trkpt lat="44.53202" lon="4.54705">
        <ele>432.79998779297</ele>
        <time>2020-05-01T15:27:35Z</time>
      </trkpt>
      <trkpt lat="44.53205" lon="4.54706">
        <ele>433</ele>
        <time>2020-05-01T15:27:36Z</time>
      </trkpt>
      <trkpt lat="44.53207" lon="4.54706">
        <ele>433</ele>
        <time>2020-05-01T15:27:37Z</time>
      </trkpt>
      <trkpt lat="44.5321" lon="4.54706">
        <ele>433</ele>
        <time>2020-05-01T15:27:38Z</time>
      </trkpt>
      <trkpt lat="44.53213" lon="4.54706">
        <ele>433.20001220703</ele>
        <time>2020-05-01T15:27:39Z</time>
      </trkpt>
      <trkpt lat="44.53215" lon="4.54706">
        <ele>433.39999389648</ele>
        <time>2020-05-01T15:27:40Z</time>
      </trkpt>
      <trkpt lat="44.53218" lon="4.54706">
        <ele>433.39999389648</ele>
        <time>2020-05-01T15:27:41Z</time>
      </trkpt>
      <trkpt lat="44.5322" lon="4.54707">
        <ele>433.60000610352</ele>
        <time>2020-05-01T15:27:42Z</time>
      </trkpt>
      <trkpt lat="44.53223" lon="4.54707">
        <ele>433.79998779297</ele>
        <time>2020-05-01T15:27:43Z</time>
      </trkpt>
      <trkpt lat="44.53225" lon="4.54708">
        <ele>434</ele>
        <time>2020-05-01T15:27:44Z</time>
      </trkpt>
      <trkpt lat="44.53228" lon="4.54709">
        <ele>434.20001220703</ele>
        <time>2020-05-01T15:27:45Z</time>
      </trkpt>
      <trkpt lat="44.53231" lon="4.5471">
        <ele>434.39999389648</ele>
        <time>2020-05-01T15:27:46Z</time>
      </trkpt>
      <trkpt lat="44.53242" lon="4.54714">
        <ele>435</ele>
        <time>2020-05-01T15:27:50Z</time>
      </trkpt>
      <trkpt lat="44.53245" lon="4.54715">
        <ele>435.20001220703</ele>
        <time>2020-05-01T15:27:51Z</time>
      </trkpt>
      <trkpt lat="44.53248" lon="4.54715">
        <ele>435.20001220703</ele>
        <time>2020-05-01T15:27:52Z</time>
      </trkpt>
      <trkpt lat="44.53252" lon="4.54716">
        <ele>435.20001220703</ele>
        <time>2020-05-01T15:27:53Z</time>
      </trkpt>
      <trkpt lat="44.53255" lon="4.54717">
        <ele>435.20001220703</ele>
        <time>2020-05-01T15:27:54Z</time>
      </trkpt>
      <trkpt lat="44.53257" lon="4.54718">
        <ele>435.39999389648</ele>
        <time>2020-05-01T15:27:55Z</time>
      </trkpt>
      <trkpt lat="44.5326" lon="4.54718">
        <ele>435.39999389648</ele>
        <time>2020-05-01T15:27:56Z</time>
      </trkpt>
      <trkpt lat="44.53263" lon="4.54719">
        <ele>435.60000610352</ele>
        <time>2020-05-01T15:27:57Z</time>
      </trkpt>
      <trkpt lat="44.53266" lon="4.54719">
        <ele>435.60000610352</ele>
        <time>2020-05-01T15:27:58Z</time>
      </trkpt>
      <trkpt lat="44.53269" lon="4.54719">
        <ele>436</ele>
        <time>2020-05-01T15:27:59Z</time>
      </trkpt>
      <trkpt lat="44.53272" lon="4.54719">
        <ele>436</ele>
        <time>2020-05-01T15:28:00Z</time>
      </trkpt>
      <trkpt lat="44.53275" lon="4.54719">
        <ele>436.20001220703</ele>
        <time>2020-05-01T15:28:01Z</time>
      </trkpt>
      <trkpt lat="44.53278" lon="4.54719">
        <ele>436.20001220703</ele>
        <time>2020-05-01T15:28:02Z</time>
      </trkpt>
      <trkpt lat="44.5328" lon="4.54719">
        <ele>436.39999389648</ele>
        <time>2020-05-01T15:28:03Z</time>
      </trkpt>
      <trkpt lat="44.53283" lon="4.5472">
        <ele>436.60000610352</ele>
        <time>2020-05-01T15:28:04Z</time>
      </trkpt>
      <trkpt lat="44.53284" lon="4.54721">
        <ele>436.79998779297</ele>
        <time>2020-05-01T15:28:05Z</time>
      </trkpt>
      <trkpt lat="44.53286" lon="4.54721">
        <ele>436.79998779297</ele>
        <time>2020-05-01T15:28:06Z</time>
      </trkpt>
      <trkpt lat="44.53288" lon="4.54722">
        <ele>436.79998779297</ele>
        <time>2020-05-01T15:28:07Z</time>
      </trkpt>
      <trkpt lat="44.5329" lon="4.54724">
        <ele>437.39999389648</ele>
        <time>2020-05-01T15:28:08Z</time>
      </trkpt>
      <trkpt lat="44.53293" lon="4.54725">
        <ele>437.60000610352</ele>
        <time>2020-05-01T15:28:09Z</time>
      </trkpt>
      <trkpt lat="44.53295" lon="4.54725">
        <ele>437.79998779297</ele>
        <time>2020-05-01T15:28:10Z</time>
      </trkpt>
      <trkpt lat="44.53297" lon="4.54726">
        <ele>438</ele>
        <time>2020-05-01T15:28:11Z</time>
      </trkpt>
      <trkpt lat="44.53299" lon="4.54727">
        <ele>438.20001220703</ele>
        <time>2020-05-01T15:28:12Z</time>
      </trkpt>
      <trkpt lat="44.53301" lon="4.54727">
        <ele>438.20001220703</ele>
        <time>2020-05-01T15:28:13Z</time>
      </trkpt>
      <trkpt lat="44.53303" lon="4.54727">
        <ele>438.20001220703</ele>
        <time>2020-05-01T15:28:14Z</time>
      </trkpt>
      <trkpt lat="44.53306" lon="4.54727">
        <ele>438.39999389648</ele>
        <time>2020-05-01T15:28:15Z</time>
      </trkpt>
      <trkpt lat="44.53308" lon="4.54728">
        <ele>438.39999389648</ele>
        <time>2020-05-01T15:28:16Z</time>
      </trkpt>
      <trkpt lat="44.53311" lon="4.54728">
        <ele>438.39999389648</ele>
        <time>2020-05-01T15:28:17Z</time>
      </trkpt>
      <trkpt lat="44.53315" lon="4.54729">
        <ele>438.60000610352</ele>
        <time>2020-05-01T15:28:18Z</time>
      </trkpt>
      <trkpt lat="44.53317" lon="4.5473">
        <ele>438.79998779297</ele>
        <time>2020-05-01T15:28:19Z</time>
      </trkpt>
      <trkpt lat="44.53321" lon="4.5473">
        <ele>438.79998779297</ele>
        <time>2020-05-01T15:28:20Z</time>
      </trkpt>
      <trkpt lat="44.53323" lon="4.5473">
        <ele>438.79998779297</ele>
        <time>2020-05-01T15:28:21Z</time>
      </trkpt>
      <trkpt lat="44.53327" lon="4.54731">
        <ele>438.79998779297</ele>
        <time>2020-05-01T15:28:22Z</time>
      </trkpt>
      <trkpt lat="44.5333" lon="4.54732">
        <ele>439.20001220703</ele>
        <time>2020-05-01T15:28:23Z</time>
      </trkpt>
      <trkpt lat="44.53333" lon="4.54733">
        <ele>439.60000610352</ele>
        <time>2020-05-01T15:28:24Z</time>
      </trkpt>
      <trkpt lat="44.53336" lon="4.54733">
        <ele>439.79998779297</ele>
        <time>2020-05-01T15:28:25Z</time>
      </trkpt>
      <trkpt lat="44.53339" lon="4.54733">
        <ele>440.20001220703</ele>
        <time>2020-05-01T15:28:26Z</time>
      </trkpt>
      <trkpt lat="44.53342" lon="4.54733">
        <ele>440.20001220703</ele>
        <time>2020-05-01T15:28:27Z</time>
      </trkpt>
      <trkpt lat="44.53346" lon="4.54733">
        <ele>440.60000610352</ele>
        <time>2020-05-01T15:28:28Z</time>
      </trkpt>
      <trkpt lat="44.53348" lon="4.54732">
        <ele>440.60000610352</ele>
        <time>2020-05-01T15:28:29Z</time>
      </trkpt>
      <trkpt lat="44.53351" lon="4.54732">
        <ele>441</ele>
        <time>2020-05-01T15:28:30Z</time>
      </trkpt>
      <trkpt lat="44.53354" lon="4.54731">
        <ele>441.20001220703</ele>
        <time>2020-05-01T15:28:31Z</time>
      </trkpt>
      <trkpt lat="44.53356" lon="4.54731">
        <ele>441.39999389648</ele>
        <time>2020-05-01T15:28:32Z</time>
      </trkpt>
      <trkpt lat="44.53359" lon="4.54731">
        <ele>441.79998779297</ele>
        <time>2020-05-01T15:28:33Z</time>
      </trkpt>
      <trkpt lat="44.53362" lon="4.5473">
        <ele>442.20001220703</ele>
        <time>2020-05-01T15:28:34Z</time>
      </trkpt>
      <trkpt lat="44.53364" lon="4.54729">
        <ele>442.60000610352</ele>
        <time>2020-05-01T15:28:35Z</time>
      </trkpt>
      <trkpt lat="44.53367" lon="4.54729">
        <ele>442.79998779297</ele>
        <time>2020-05-01T15:28:36Z</time>
      </trkpt>
      <trkpt lat="44.5337" lon="4.54729">
        <ele>443</ele>
        <time>2020-05-01T15:28:37Z</time>
      </trkpt>
      <trkpt lat="44.53373" lon="4.54729">
        <ele>443.39999389648</ele>
        <time>2020-05-01T15:28:38Z</time>
      </trkpt>
      <trkpt lat="44.53376" lon="4.54729">
        <ele>443.39999389648</ele>
        <time>2020-05-01T15:28:39Z</time>
      </trkpt>
      <trkpt lat="44.53378" lon="4.54729">
        <ele>443.79998779297</ele>
        <time>2020-05-01T15:28:40Z</time>
      </trkpt>
      <trkpt lat="44.53381" lon="4.54729">
        <ele>444.39999389648</ele>
        <time>2020-05-01T15:28:41Z</time>
      </trkpt>
      <trkpt lat="44.53384" lon="4.54729">
        <ele>444.39999389648</ele>
        <time>2020-05-01T15:28:42Z</time>
      </trkpt>
      <trkpt lat="44.53386" lon="4.54729">
        <ele>444.79998779297</ele>
        <time>2020-05-01T15:28:43Z</time>
      </trkpt>
      <trkpt lat="44.53388" lon="4.54729">
        <ele>445.20001220703</ele>
        <time>2020-05-01T15:28:44Z</time>
      </trkpt>
      <trkpt lat="44.53391" lon="4.54729">
        <ele>445.60000610352</ele>
        <time>2020-05-01T15:28:45Z</time>
      </trkpt>
      <trkpt lat="44.53394" lon="4.5473">
        <ele>445.79998779297</ele>
        <time>2020-05-01T15:28:46Z</time>
      </trkpt>
      <trkpt lat="44.53397" lon="4.5473">
        <ele>446</ele>
        <time>2020-05-01T15:28:47Z</time>
      </trkpt>
      <trkpt lat="44.534" lon="4.54731">
        <ele>446.20001220703</ele>
        <time>2020-05-01T15:28:48Z</time>
      </trkpt>
      <trkpt lat="44.53403" lon="4.54731">
        <ele>446.60000610352</ele>
        <time>2020-05-01T15:28:49Z</time>
      </trkpt>
      <trkpt lat="44.53406" lon="4.54731">
        <ele>446.60000610352</ele>
        <time>2020-05-01T15:28:50Z</time>
      </trkpt>
      <trkpt lat="44.53409" lon="4.54731">
        <ele>447</ele>
        <time>2020-05-01T15:28:51Z</time>
      </trkpt>
      <trkpt lat="44.53412" lon="4.54731">
        <ele>447.39999389648</ele>
        <time>2020-05-01T15:28:52Z</time>
      </trkpt>
      <trkpt lat="44.53415" lon="4.54731">
        <ele>447.60000610352</ele>
        <time>2020-05-01T15:28:53Z</time>
      </trkpt>
      <trkpt lat="44.53417" lon="4.5473">
        <ele>448</ele>
        <time>2020-05-01T15:28:54Z</time>
      </trkpt>
      <trkpt lat="44.5342" lon="4.5473">
        <ele>448.39999389648</ele>
        <time>2020-05-01T15:28:55Z</time>
      </trkpt>
      <trkpt lat="44.53423" lon="4.5473">
        <ele>448.60000610352</ele>
        <time>2020-05-01T15:28:56Z</time>
      </trkpt>
      <trkpt lat="44.53426" lon="4.5473">
        <ele>449</ele>
        <time>2020-05-01T15:28:57Z</time>
      </trkpt>
      <trkpt lat="44.53428" lon="4.54729">
        <ele>449.20001220703</ele>
        <time>2020-05-01T15:28:58Z</time>
      </trkpt>
      <trkpt lat="44.53431" lon="4.54729">
        <ele>449.39999389648</ele>
        <time>2020-05-01T15:28:59Z</time>
      </trkpt>
      <trkpt lat="44.53433" lon="4.54729">
        <ele>449.60000610352</ele>
        <time>2020-05-01T15:29:00Z</time>
      </trkpt>
      <trkpt lat="44.53435" lon="4.54728">
        <ele>449.79998779297</ele>
        <time>2020-05-01T15:29:01Z</time>
      </trkpt>
      <trkpt lat="44.53438" lon="4.54728">
        <ele>450.20001220703</ele>
        <time>2020-05-01T15:29:02Z</time>
      </trkpt>
      <trkpt lat="44.53441" lon="4.54728">
        <ele>450.20001220703</ele>
        <time>2020-05-01T15:29:03Z</time>
      </trkpt>
      <trkpt lat="44.53443" lon="4.54728">
        <ele>450.60000610352</ele>
        <time>2020-05-01T15:29:04Z</time>
      </trkpt>
      <trkpt lat="44.53446" lon="4.54728">
        <ele>451</ele>
        <time>2020-05-01T15:29:05Z</time>
      </trkpt>
      <trkpt lat="44.53449" lon="4.54728">
        <ele>451.20001220703</ele>
        <time>2020-05-01T15:29:06Z</time>
      </trkpt>
      <trkpt lat="44.53452" lon="4.54728">
        <ele>451.39999389648</ele>
        <time>2020-05-01T15:29:07Z</time>
      </trkpt>
      <trkpt lat="44.53455" lon="4.54728">
        <ele>451.79998779297</ele>
        <time>2020-05-01T15:29:08Z</time>
      </trkpt>
      <trkpt lat="44.53457" lon="4.54727">
        <ele>452</ele>
        <time>2020-05-01T15:29:09Z</time>
      </trkpt>
      <trkpt lat="44.5346" lon="4.54727">
        <ele>452.20001220703</ele>
        <time>2020-05-01T15:29:10Z</time>
      </trkpt>
      <trkpt lat="44.53463" lon="4.54727">
        <ele>452.60000610352</ele>
        <time>2020-05-01T15:29:11Z</time>
      </trkpt>
      <trkpt lat="44.53466" lon="4.54727">
        <ele>452.79998779297</ele>
        <time>2020-05-01T15:29:12Z</time>
      </trkpt>
      <trkpt lat="44.53468" lon="4.54727">
        <ele>453</ele>
        <time>2020-05-01T15:29:13Z</time>
      </trkpt>
      <trkpt lat="44.53471" lon="4.54726">
        <ele>453.39999389648</ele>
        <time>2020-05-01T15:29:14Z</time>
      </trkpt>
      <trkpt lat="44.53474" lon="4.54725">
        <ele>453.60000610352</ele>
        <time>2020-05-01T15:29:15Z</time>
      </trkpt>
      <trkpt lat="44.53476" lon="4.54725">
        <ele>453.60000610352</ele>
        <time>2020-05-01T15:29:16Z</time>
      </trkpt>
      <trkpt lat="44.53479" lon="4.54724">
        <ele>454.20001220703</ele>
        <time>2020-05-01T15:29:17Z</time>
      </trkpt>
      <trkpt lat="44.53482" lon="4.54722">
        <ele>454.39999389648</ele>
        <time>2020-05-01T15:29:18Z</time>
      </trkpt>
      <trkpt lat="44.53485" lon="4.54719">
        <ele>454.39999389648</ele>
        <time>2020-05-01T15:29:19Z</time>
      </trkpt>
      <trkpt lat="44.53487" lon="4.54716">
        <ele>454.60000610352</ele>
        <time>2020-05-01T15:29:20Z</time>
      </trkpt>
      <trkpt lat="44.53488" lon="4.54712">
        <ele>455</ele>
        <time>2020-05-01T15:29:21Z</time>
      </trkpt>
      <trkpt lat="44.53489" lon="4.54709">
        <ele>455</ele>
        <time>2020-05-01T15:29:22Z</time>
      </trkpt>
      <trkpt lat="44.5349" lon="4.54705">
        <ele>455.39999389648</ele>
        <time>2020-05-01T15:29:23Z</time>
      </trkpt>
      <trkpt lat="44.5349" lon="4.54701">
        <ele>455.39999389648</ele>
        <time>2020-05-01T15:29:24Z</time>
      </trkpt>
      <trkpt lat="44.5349" lon="4.54696">
        <ele>455.60000610352</ele>
        <time>2020-05-01T15:29:25Z</time>
      </trkpt>
      <trkpt lat="44.5349" lon="4.54692">
        <ele>455.60000610352</ele>
        <time>2020-05-01T15:29:26Z</time>
      </trkpt>
      <trkpt lat="44.53491" lon="4.54687">
        <ele>455.79998779297</ele>
        <time>2020-05-01T15:29:27Z</time>
      </trkpt>
      <trkpt lat="44.53491" lon="4.54682">
        <ele>456.20001220703</ele>
        <time>2020-05-01T15:29:28Z</time>
      </trkpt>
      <trkpt lat="44.53492" lon="4.54677">
        <ele>456.79998779297</ele>
        <time>2020-05-01T15:29:29Z</time>
      </trkpt>
      <trkpt lat="44.53492" lon="4.54672">
        <ele>457.20001220703</ele>
        <time>2020-05-01T15:29:30Z</time>
      </trkpt>
      <trkpt lat="44.53492" lon="4.54667">
        <ele>457.39999389648</ele>
        <time>2020-05-01T15:29:31Z</time>
      </trkpt>
      <trkpt lat="44.53492" lon="4.54661">
        <ele>457.79998779297</ele>
        <time>2020-05-01T15:29:32Z</time>
      </trkpt>
      <trkpt lat="44.53492" lon="4.54651">
        <ele>458.60000610352</ele>
        <time>2020-05-01T15:29:34Z</time>
      </trkpt>
      <trkpt lat="44.53492" lon="4.54645">
        <ele>458.60000610352</ele>
        <time>2020-05-01T15:29:35Z</time>
      </trkpt>
      <trkpt lat="44.53492" lon="4.54641">
        <ele>459</ele>
        <time>2020-05-01T15:29:36Z</time>
      </trkpt>
      <trkpt lat="44.53491" lon="4.5463">
        <ele>459</ele>
        <time>2020-05-01T15:29:38Z</time>
      </trkpt>
      <trkpt lat="44.53491" lon="4.5462">
        <ele>459.20001220703</ele>
        <time>2020-05-01T15:29:40Z</time>
      </trkpt>
      <trkpt lat="44.5349" lon="4.54602">
        <ele>459.20001220703</ele>
        <time>2020-05-01T15:29:43Z</time>
      </trkpt>
      <trkpt lat="44.5349" lon="4.54597">
        <ele>459.20001220703</ele>
        <time>2020-05-01T15:29:44Z</time>
      </trkpt>
      <trkpt lat="44.5349" lon="4.54591">
        <ele>459.20001220703</ele>
        <time>2020-05-01T15:29:45Z</time>
      </trkpt>
      <trkpt lat="44.5349" lon="4.5458">
        <ele>459.20001220703</ele>
        <time>2020-05-01T15:29:47Z</time>
      </trkpt>
      <trkpt lat="44.53489" lon="4.54554">
        <ele>459.39999389648</ele>
        <time>2020-05-01T15:29:51Z</time>
      </trkpt>
      <trkpt lat="44.53488" lon="4.54548">
        <ele>459.39999389648</ele>
        <time>2020-05-01T15:29:52Z</time>
      </trkpt>
      <trkpt lat="44.53488" lon="4.54541">
        <ele>459.39999389648</ele>
        <time>2020-05-01T15:29:53Z</time>
      </trkpt>
      <trkpt lat="44.53487" lon="4.54536">
        <ele>459.20001220703</ele>
        <time>2020-05-01T15:29:54Z</time>
      </trkpt>
      <trkpt lat="44.53486" lon="4.54531">
        <ele>459.20001220703</ele>
        <time>2020-05-01T15:29:55Z</time>
      </trkpt>
      <trkpt lat="44.53486" lon="4.54526">
        <ele>459.20001220703</ele>
        <time>2020-05-01T15:29:56Z</time>
      </trkpt>
      <trkpt lat="44.53485" lon="4.54522">
        <ele>459.20001220703</ele>
        <time>2020-05-01T15:29:57Z</time>
      </trkpt>
      <trkpt lat="44.53485" lon="4.54517">
        <ele>459.20001220703</ele>
        <time>2020-05-01T15:29:58Z</time>
      </trkpt>
      <trkpt lat="44.53484" lon="4.54513">
        <ele>459.20001220703</ele>
        <time>2020-05-01T15:29:59Z</time>
      </trkpt>
      <trkpt lat="44.53483" lon="4.54509">
        <ele>459.20001220703</ele>
        <time>2020-05-01T15:30:00Z</time>
      </trkpt>
      <trkpt lat="44.53483" lon="4.54505">
        <ele>459.20001220703</ele>
        <time>2020-05-01T15:30:01Z</time>
      </trkpt>
      <trkpt lat="44.53482" lon="4.54501">
        <ele>459.39999389648</ele>
        <time>2020-05-01T15:30:02Z</time>
      </trkpt>
      <trkpt lat="44.53482" lon="4.54498">
        <ele>459.39999389648</ele>
        <time>2020-05-01T15:30:03Z</time>
      </trkpt>
      <trkpt lat="44.53481" lon="4.54494">
        <ele>459.60000610352</ele>
        <time>2020-05-01T15:30:04Z</time>
      </trkpt>
      <trkpt lat="44.5348" lon="4.5449">
        <ele>459.79998779297</ele>
        <time>2020-05-01T15:30:05Z</time>
      </trkpt>
      <trkpt lat="44.5348" lon="4.54486">
        <ele>460.20001220703</ele>
        <time>2020-05-01T15:30:06Z</time>
      </trkpt>
      <trkpt lat="44.53479" lon="4.54483">
        <ele>460.20001220703</ele>
        <time>2020-05-01T15:30:07Z</time>
      </trkpt>
      <trkpt lat="44.53478" lon="4.54479">
        <ele>460.39999389648</ele>
        <time>2020-05-01T15:30:08Z</time>
      </trkpt>
      <trkpt lat="44.53478" lon="4.54475">
        <ele>460.60000610352</ele>
        <time>2020-05-01T15:30:09Z</time>
      </trkpt>
      <trkpt lat="44.53477" lon="4.54471">
        <ele>461</ele>
        <time>2020-05-01T15:30:10Z</time>
      </trkpt>
      <trkpt lat="44.53476" lon="4.54467">
        <ele>461.20001220703</ele>
        <time>2020-05-01T15:30:11Z</time>
      </trkpt>
      <trkpt lat="44.53476" lon="4.54462">
        <ele>461.39999389648</ele>
        <time>2020-05-01T15:30:12Z</time>
      </trkpt>
      <trkpt lat="44.53475" lon="4.54458">
        <ele>461.79998779297</ele>
        <time>2020-05-01T15:30:13Z</time>
      </trkpt>
      <trkpt lat="44.53475" lon="4.54453">
        <ele>462</ele>
        <time>2020-05-01T15:30:14Z</time>
      </trkpt>
      <trkpt lat="44.53474" lon="4.54449">
        <ele>462</ele>
        <time>2020-05-01T15:30:15Z</time>
      </trkpt>
      <trkpt lat="44.53475" lon="4.54444">
        <ele>462.39999389648</ele>
        <time>2020-05-01T15:30:16Z</time>
      </trkpt>
      <trkpt lat="44.53475" lon="4.5444">
        <ele>462.60000610352</ele>
        <time>2020-05-01T15:30:17Z</time>
      </trkpt>
      <trkpt lat="44.53477" lon="4.54435">
        <ele>462.79998779297</ele>
        <time>2020-05-01T15:30:18Z</time>
      </trkpt>
      <trkpt lat="44.53478" lon="4.54432">
        <ele>463</ele>
        <time>2020-05-01T15:30:19Z</time>
      </trkpt>
      <trkpt lat="44.53481" lon="4.5443">
        <ele>463</ele>
        <time>2020-05-01T15:30:20Z</time>
      </trkpt>
      <trkpt lat="44.53483" lon="4.54429">
        <ele>463.20001220703</ele>
        <time>2020-05-01T15:30:21Z</time>
      </trkpt>
      <trkpt lat="44.53486" lon="4.54429">
        <ele>463.20001220703</ele>
        <time>2020-05-01T15:30:22Z</time>
      </trkpt>
      <trkpt lat="44.53489" lon="4.5443">
        <ele>463.39999389648</ele>
        <time>2020-05-01T15:30:23Z</time>
      </trkpt>
      <trkpt lat="44.53492" lon="4.54431">
        <ele>463.39999389648</ele>
        <time>2020-05-01T15:30:24Z</time>
      </trkpt>
      <trkpt lat="44.53495" lon="4.54432">
        <ele>463.60000610352</ele>
        <time>2020-05-01T15:30:25Z</time>
      </trkpt>
      <trkpt lat="44.53497" lon="4.54434">
        <ele>463.79998779297</ele>
        <time>2020-05-01T15:30:26Z</time>
      </trkpt>
      <trkpt lat="44.53499" lon="4.54436">
        <ele>463.79998779297</ele>
        <time>2020-05-01T15:30:27Z</time>
      </trkpt>
      <trkpt lat="44.53502" lon="4.54438">
        <ele>463.79998779297</ele>
        <time>2020-05-01T15:30:28Z</time>
      </trkpt>
      <trkpt lat="44.53504" lon="4.5444">
        <ele>464</ele>
        <time>2020-05-01T15:30:29Z</time>
      </trkpt>
      <trkpt lat="44.53507" lon="4.54441">
        <ele>463.79998779297</ele>
        <time>2020-05-01T15:30:30Z</time>
      </trkpt>
      <trkpt lat="44.53509" lon="4.54442">
        <ele>464</ele>
        <time>2020-05-01T15:30:31Z</time>
      </trkpt>
      <trkpt lat="44.53512" lon="4.54444">
        <ele>464.20001220703</ele>
        <time>2020-05-01T15:30:32Z</time>
      </trkpt>
      <trkpt lat="44.53515" lon="4.54445">
        <ele>464.60000610352</ele>
        <time>2020-05-01T15:30:33Z</time>
      </trkpt>
      <trkpt lat="44.53518" lon="4.54446">
        <ele>464.60000610352</ele>
        <time>2020-05-01T15:30:34Z</time>
      </trkpt>
      <trkpt lat="44.5352" lon="4.54448">
        <ele>465</ele>
        <time>2020-05-01T15:30:35Z</time>
      </trkpt>
      <trkpt lat="44.53523" lon="4.54449">
        <ele>465.60000610352</ele>
        <time>2020-05-01T15:30:36Z</time>
      </trkpt>
      <trkpt lat="44.53525" lon="4.5445">
        <ele>466</ele>
        <time>2020-05-01T15:30:37Z</time>
      </trkpt>
      <trkpt lat="44.53528" lon="4.54451">
        <ele>466.20001220703</ele>
        <time>2020-05-01T15:30:38Z</time>
      </trkpt>
      <trkpt lat="44.53531" lon="4.54452">
        <ele>466.60000610352</ele>
        <time>2020-05-01T15:30:39Z</time>
      </trkpt>
      <trkpt lat="44.53533" lon="4.54453">
        <ele>466.79998779297</ele>
        <time>2020-05-01T15:30:40Z</time>
      </trkpt>
      <trkpt lat="44.53536" lon="4.54454">
        <ele>467.20001220703</ele>
        <time>2020-05-01T15:30:41Z</time>
      </trkpt>
      <trkpt lat="44.53539" lon="4.54455">
        <ele>467.60000610352</ele>
        <time>2020-05-01T15:30:42Z</time>
      </trkpt>
      <trkpt lat="44.53541" lon="4.54456">
        <ele>468</ele>
        <time>2020-05-01T15:30:43Z</time>
      </trkpt>
      <trkpt lat="44.53544" lon="4.54457">
        <ele>468.20001220703</ele>
        <time>2020-05-01T15:30:44Z</time>
      </trkpt>
      <trkpt lat="44.53547" lon="4.54457">
        <ele>468.39999389648</ele>
        <time>2020-05-01T15:30:45Z</time>
      </trkpt>
      <trkpt lat="44.5355" lon="4.54457">
        <ele>468.79998779297</ele>
        <time>2020-05-01T15:30:46Z</time>
      </trkpt>
      <trkpt lat="44.53553" lon="4.54458">
        <ele>469</ele>
        <time>2020-05-01T15:30:47Z</time>
      </trkpt>
      <trkpt lat="44.53556" lon="4.54458">
        <ele>469.39999389648</ele>
        <time>2020-05-01T15:30:48Z</time>
      </trkpt>
      <trkpt lat="44.53558" lon="4.54458">
        <ele>469.39999389648</ele>
        <time>2020-05-01T15:30:49Z</time>
      </trkpt>
      <trkpt lat="44.53561" lon="4.54458">
        <ele>469.79998779297</ele>
        <time>2020-05-01T15:30:50Z</time>
      </trkpt>
      <trkpt lat="44.53563" lon="4.54459">
        <ele>470.20001220703</ele>
        <time>2020-05-01T15:30:51Z</time>
      </trkpt>
      <trkpt lat="44.53566" lon="4.54459">
        <ele>470.60000610352</ele>
        <time>2020-05-01T15:30:52Z</time>
      </trkpt>
      <trkpt lat="44.53569" lon="4.5446">
        <ele>470.60000610352</ele>
        <time>2020-05-01T15:30:53Z</time>
      </trkpt>
      <trkpt lat="44.53572" lon="4.5446">
        <ele>471</ele>
        <time>2020-05-01T15:30:54Z</time>
      </trkpt>
      <trkpt lat="44.53575" lon="4.54461">
        <ele>471.20001220703</ele>
        <time>2020-05-01T15:30:55Z</time>
      </trkpt>
      <trkpt lat="44.53578" lon="4.54461">
        <ele>471.39999389648</ele>
        <time>2020-05-01T15:30:56Z</time>
      </trkpt>
      <trkpt lat="44.53581" lon="4.54461">
        <ele>471.60000610352</ele>
        <time>2020-05-01T15:30:57Z</time>
      </trkpt>
      <trkpt lat="44.53584" lon="4.54462">
        <ele>472</ele>
        <time>2020-05-01T15:30:58Z</time>
      </trkpt>
      <trkpt lat="44.53587" lon="4.54462">
        <ele>472.20001220703</ele>
        <time>2020-05-01T15:30:59Z</time>
      </trkpt>
      <trkpt lat="44.5359" lon="4.54462">
        <ele>472.60000610352</ele>
        <time>2020-05-01T15:31:00Z</time>
      </trkpt>
      <trkpt lat="44.53592" lon="4.54462">
        <ele>473</ele>
        <time>2020-05-01T15:31:01Z</time>
      </trkpt>
      <trkpt lat="44.53595" lon="4.54462">
        <ele>473.39999389648</ele>
        <time>2020-05-01T15:31:02Z</time>
      </trkpt>
      <trkpt lat="44.53598" lon="4.54462">
        <ele>474</ele>
        <time>2020-05-01T15:31:03Z</time>
      </trkpt>
      <trkpt lat="44.536" lon="4.54462">
        <ele>474.39999389648</ele>
        <time>2020-05-01T15:31:04Z</time>
      </trkpt>
      <trkpt lat="44.53603" lon="4.54463">
        <ele>474.79998779297</ele>
        <time>2020-05-01T15:31:05Z</time>
      </trkpt>
      <trkpt lat="44.53606" lon="4.54463">
        <ele>475</ele>
        <time>2020-05-01T15:31:06Z</time>
      </trkpt>
      <trkpt lat="44.53608" lon="4.54463">
        <ele>475</ele>
        <time>2020-05-01T15:31:07Z</time>
      </trkpt>
      <trkpt lat="44.53611" lon="4.54464">
        <ele>475.39999389648</ele>
        <time>2020-05-01T15:31:08Z</time>
      </trkpt>
      <trkpt lat="44.53613" lon="4.54466">
        <ele>475.60000610352</ele>
        <time>2020-05-01T15:31:09Z</time>
      </trkpt>
      <trkpt lat="44.53615" lon="4.54467">
        <ele>475.60000610352</ele>
        <time>2020-05-01T15:31:10Z</time>
      </trkpt>
      <trkpt lat="44.53617" lon="4.54468">
        <ele>475.60000610352</ele>
        <time>2020-05-01T15:31:11Z</time>
      </trkpt>
      <trkpt lat="44.53619" lon="4.54469">
        <ele>476</ele>
        <time>2020-05-01T15:31:12Z</time>
      </trkpt>
      <trkpt lat="44.53621" lon="4.54471">
        <ele>476.20001220703</ele>
        <time>2020-05-01T15:31:13Z</time>
      </trkpt>
      <trkpt lat="44.53623" lon="4.54473">
        <ele>476.39999389648</ele>
        <time>2020-05-01T15:31:14Z</time>
      </trkpt>
      <trkpt lat="44.53625" lon="4.54475">
        <ele>476.60000610352</ele>
        <time>2020-05-01T15:31:15Z</time>
      </trkpt>
      <trkpt lat="44.53627" lon="4.54476">
        <ele>476.79998779297</ele>
        <time>2020-05-01T15:31:16Z</time>
      </trkpt>
      <trkpt lat="44.53629" lon="4.54476">
        <ele>477</ele>
        <time>2020-05-01T15:31:17Z</time>
      </trkpt>
      <trkpt lat="44.5363" lon="4.54477">
        <ele>477</ele>
        <time>2020-05-01T15:31:18Z</time>
      </trkpt>
      <trkpt lat="44.53632" lon="4.54478">
        <ele>477.20001220703</ele>
        <time>2020-05-01T15:31:19Z</time>
      </trkpt>
      <trkpt lat="44.53632" lon="4.54478">
        <ele>477.39999389648</ele>
        <time>2020-05-01T15:31:20Z</time>
      </trkpt>
      <trkpt lat="44.53633" lon="4.54478">
        <ele>477.79998779297</ele>
        <time>2020-05-01T15:31:22Z</time>
      </trkpt>
      <trkpt lat="44.53633" lon="4.54478">
        <ele>478</ele>
        <time>2020-05-01T15:31:24Z</time>
      </trkpt>
      <trkpt lat="44.53633" lon="4.54478">
        <ele>478.20001220703</ele>
        <time>2020-05-01T15:31:31Z</time>
      </trkpt>
      <trkpt lat="44.53633" lon="4.54478">
        <ele>478.39999389648</ele>
        <time>2020-05-01T15:31:45Z</time>
      </trkpt>
      <trkpt lat="44.53633" lon="4.54478">
        <ele>478.39999389648</ele>
        <time>2020-05-01T15:31:57Z</time>
      </trkpt>
      <trkpt lat="44.53633" lon="4.54478">
        <ele>478.39999389648</ele>
        <time>2020-05-01T15:32:10Z</time>
      </trkpt>
      <trkpt lat="44.53633" lon="4.54478">
        <ele>478.60000610352</ele>
        <time>2020-05-01T15:32:24Z</time>
      </trkpt>
      <trkpt lat="44.53633" lon="4.54478">
        <ele>478.60000610352</ele>
        <time>2020-05-01T15:32:39Z</time>
      </trkpt>
      <trkpt lat="44.53633" lon="4.54478">
        <ele>478.60000610352</ele>
        <time>2020-05-01T15:32:54Z</time>
      </trkpt>
      <trkpt lat="44.53633" lon="4.54478">
        <ele>478.79998779297</ele>
        <time>2020-05-01T15:33:21Z</time>
      </trkpt>
      <trkpt lat="44.53633" lon="4.54478">
        <ele>478.79998779297</ele>
        <time>2020-05-01T15:33:25Z</time>
      </trkpt>
      <trkpt lat="44.53633" lon="4.54478">
        <ele>479.20001220703</ele>
        <time>2020-05-01T15:33:54Z</time>
      </trkpt>
      <trkpt lat="44.53633" lon="4.54478">
        <ele>479.39999389648</ele>
        <time>2020-05-01T15:34:20Z</time>
      </trkpt>
      <trkpt lat="44.53633" lon="4.54478">
        <ele>479.60000610352</ele>
        <time>2020-05-01T15:34:48Z</time>
      </trkpt>
      <trkpt lat="44.53633" lon="4.54478">
        <ele>479.79998779297</ele>
        <time>2020-05-01T15:35:06Z</time>
      </trkpt>
      <trkpt lat="44.53634" lon="4.54478">
        <ele>479.79998779297</ele>
        <time>2020-05-01T15:35:11Z</time>
      </trkpt>
      <trkpt lat="44.53635" lon="4.54478">
        <ele>479.79998779297</ele>
        <time>2020-05-01T15:35:12Z</time>
      </trkpt>
      <trkpt lat="44.53637" lon="4.54477">
        <ele>479.79998779297</ele>
        <time>2020-05-01T15:35:13Z</time>
      </trkpt>
      <trkpt lat="44.53638" lon="4.54476">
        <ele>479.79998779297</ele>
        <time>2020-05-01T15:35:14Z</time>
      </trkpt>
      <trkpt lat="44.5364" lon="4.54476">
        <ele>479.60000610352</ele>
        <time>2020-05-01T15:35:15Z</time>
      </trkpt>
      <trkpt lat="44.53646" lon="4.54473">
        <ele>479.79998779297</ele>
        <time>2020-05-01T15:35:18Z</time>
      </trkpt>
      <trkpt lat="44.53648" lon="4.54472">
        <ele>479.79998779297</ele>
        <time>2020-05-01T15:35:19Z</time>
      </trkpt>
      <trkpt lat="44.53649" lon="4.54472">
        <ele>479.79998779297</ele>
        <time>2020-05-01T15:35:20Z</time>
      </trkpt>
      <trkpt lat="44.53656" lon="4.54468">
        <ele>479.79998779297</ele>
        <time>2020-05-01T15:35:24Z</time>
      </trkpt>
      <trkpt lat="44.53665" lon="4.54462">
        <ele>479.60000610352</ele>
        <time>2020-05-01T15:35:28Z</time>
      </trkpt>
      <trkpt lat="44.5367" lon="4.54459">
        <ele>479.79998779297</ele>
        <time>2020-05-01T15:35:30Z</time>
      </trkpt>
      <trkpt lat="44.53675" lon="4.54456">
        <ele>479.60000610352</ele>
        <time>2020-05-01T15:35:32Z</time>
      </trkpt>
      <trkpt lat="44.53677" lon="4.54454">
        <ele>479.60000610352</ele>
        <time>2020-05-01T15:35:33Z</time>
      </trkpt>
      <trkpt lat="44.53681" lon="4.54451">
        <ele>479.60000610352</ele>
        <time>2020-05-01T15:35:35Z</time>
      </trkpt>
      <trkpt lat="44.53688" lon="4.54444">
        <ele>479.60000610352</ele>
        <time>2020-05-01T15:35:38Z</time>
      </trkpt>
      <trkpt lat="44.53691" lon="4.54442">
        <ele>479.60000610352</ele>
        <time>2020-05-01T15:35:39Z</time>
      </trkpt>
      <trkpt lat="44.53693" lon="4.5444">
        <ele>479.60000610352</ele>
        <time>2020-05-01T15:35:40Z</time>
      </trkpt>
      <trkpt lat="44.53695" lon="4.54438">
        <ele>479.60000610352</ele>
        <time>2020-05-01T15:35:41Z</time>
      </trkpt>
      <trkpt lat="44.53697" lon="4.54435">
        <ele>479.79998779297</ele>
        <time>2020-05-01T15:35:42Z</time>
      </trkpt>
      <trkpt lat="44.53699" lon="4.54432">
        <ele>479.79998779297</ele>
        <time>2020-05-01T15:35:43Z</time>
      </trkpt>
      <trkpt lat="44.53702" lon="4.5443">
        <ele>480</ele>
        <time>2020-05-01T15:35:44Z</time>
      </trkpt>
      <trkpt lat="44.53704" lon="4.54428">
        <ele>479.79998779297</ele>
        <time>2020-05-01T15:35:45Z</time>
      </trkpt>
      <trkpt lat="44.53707" lon="4.54425">
        <ele>479.79998779297</ele>
        <time>2020-05-01T15:35:46Z</time>
      </trkpt>
      <trkpt lat="44.53712" lon="4.54421">
        <ele>480</ele>
        <time>2020-05-01T15:35:48Z</time>
      </trkpt>
      <trkpt lat="44.53714" lon="4.54419">
        <ele>479.79998779297</ele>
        <time>2020-05-01T15:35:49Z</time>
      </trkpt>
      <trkpt lat="44.53716" lon="4.54417">
        <ele>480</ele>
        <time>2020-05-01T15:35:50Z</time>
      </trkpt>
      <trkpt lat="44.53718" lon="4.54415">
        <ele>480</ele>
        <time>2020-05-01T15:35:51Z</time>
      </trkpt>
      <trkpt lat="44.53721" lon="4.54414">
        <ele>480.20001220703</ele>
        <time>2020-05-01T15:35:52Z</time>
      </trkpt>
      <trkpt lat="44.53723" lon="4.54413">
        <ele>480.20001220703</ele>
        <time>2020-05-01T15:35:53Z</time>
      </trkpt>
      <trkpt lat="44.53725" lon="4.54412">
        <ele>480.20001220703</ele>
        <time>2020-05-01T15:35:54Z</time>
      </trkpt>
      <trkpt lat="44.53727" lon="4.54411">
        <ele>480.20001220703</ele>
        <time>2020-05-01T15:35:55Z</time>
      </trkpt>
      <trkpt lat="44.53729" lon="4.54411">
        <ele>480.20001220703</ele>
        <time>2020-05-01T15:35:56Z</time>
      </trkpt>
      <trkpt lat="44.53731" lon="4.54411">
        <ele>480.60000610352</ele>
        <time>2020-05-01T15:35:57Z</time>
      </trkpt>
      <trkpt lat="44.53733" lon="4.54411">
        <ele>480.60000610352</ele>
        <time>2020-05-01T15:35:58Z</time>
      </trkpt>
      <trkpt lat="44.53736" lon="4.54412">
        <ele>480.60000610352</ele>
        <time>2020-05-01T15:35:59Z</time>
      </trkpt>
      <trkpt lat="44.53737" lon="4.54412">
        <ele>480.60000610352</ele>
        <time>2020-05-01T15:36:00Z</time>
      </trkpt>
      <trkpt lat="44.5374" lon="4.54412">
        <ele>480.79998779297</ele>
        <time>2020-05-01T15:36:01Z</time>
      </trkpt>
      <trkpt lat="44.53742" lon="4.54413">
        <ele>481</ele>
        <time>2020-05-01T15:36:02Z</time>
      </trkpt>
      <trkpt lat="44.53744" lon="4.54413">
        <ele>481</ele>
        <time>2020-05-01T15:36:03Z</time>
      </trkpt>
      <trkpt lat="44.53746" lon="4.54412">
        <ele>481</ele>
        <time>2020-05-01T15:36:04Z</time>
      </trkpt>
      <trkpt lat="44.53748" lon="4.54412">
        <ele>481.20001220703</ele>
        <time>2020-05-01T15:36:05Z</time>
      </trkpt>
      <trkpt lat="44.5375" lon="4.54411">
        <ele>481.20001220703</ele>
        <time>2020-05-01T15:36:06Z</time>
      </trkpt>
      <trkpt lat="44.53752" lon="4.5441">
        <ele>481.20001220703</ele>
        <time>2020-05-01T15:36:07Z</time>
      </trkpt>
      <trkpt lat="44.53754" lon="4.5441">
        <ele>481.39999389648</ele>
        <time>2020-05-01T15:36:08Z</time>
      </trkpt>
      <trkpt lat="44.53756" lon="4.54409">
        <ele>481.39999389648</ele>
        <time>2020-05-01T15:36:09Z</time>
      </trkpt>
      <trkpt lat="44.53757" lon="4.54409">
        <ele>481.60000610352</ele>
        <time>2020-05-01T15:36:10Z</time>
      </trkpt>
      <trkpt lat="44.53759" lon="4.54408">
        <ele>481.79998779297</ele>
        <time>2020-05-01T15:36:11Z</time>
      </trkpt>
      <trkpt lat="44.53762" lon="4.54408">
        <ele>482</ele>
        <time>2020-05-01T15:36:12Z</time>
      </trkpt>
      <trkpt lat="44.53764" lon="4.54407">
        <ele>482.20001220703</ele>
        <time>2020-05-01T15:36:13Z</time>
      </trkpt>
      <trkpt lat="44.53765" lon="4.54407">
        <ele>482.20001220703</ele>
        <time>2020-05-01T15:36:14Z</time>
      </trkpt>
      <trkpt lat="44.53768" lon="4.54407">
        <ele>482.39999389648</ele>
        <time>2020-05-01T15:36:15Z</time>
      </trkpt>
      <trkpt lat="44.5377" lon="4.54407">
        <ele>482.60000610352</ele>
        <time>2020-05-01T15:36:16Z</time>
      </trkpt>
      <trkpt lat="44.53772" lon="4.54408">
        <ele>482.79998779297</ele>
        <time>2020-05-01T15:36:17Z</time>
      </trkpt>
      <trkpt lat="44.53774" lon="4.54409">
        <ele>483.20001220703</ele>
        <time>2020-05-01T15:36:18Z</time>
      </trkpt>
      <trkpt lat="44.53775" lon="4.54409">
        <ele>483.39999389648</ele>
        <time>2020-05-01T15:36:19Z</time>
      </trkpt>
      <trkpt lat="44.53777" lon="4.5441">
        <ele>483.39999389648</ele>
        <time>2020-05-01T15:36:20Z</time>
      </trkpt>
      <trkpt lat="44.5378" lon="4.54411">
        <ele>483.60000610352</ele>
        <time>2020-05-01T15:36:21Z</time>
      </trkpt>
      <trkpt lat="44.53782" lon="4.54413">
        <ele>483.79998779297</ele>
        <time>2020-05-01T15:36:22Z</time>
      </trkpt>
      <trkpt lat="44.53784" lon="4.54414">
        <ele>484</ele>
        <time>2020-05-01T15:36:23Z</time>
      </trkpt>
      <trkpt lat="44.53786" lon="4.54416">
        <ele>484.20001220703</ele>
        <time>2020-05-01T15:36:24Z</time>
      </trkpt>
      <trkpt lat="44.53787" lon="4.54417">
        <ele>484</ele>
        <time>2020-05-01T15:36:25Z</time>
      </trkpt>
      <trkpt lat="44.53789" lon="4.54419">
        <ele>484</ele>
        <time>2020-05-01T15:36:26Z</time>
      </trkpt>
      <trkpt lat="44.53791" lon="4.5442">
        <ele>484.20001220703</ele>
        <time>2020-05-01T15:36:27Z</time>
      </trkpt>
      <trkpt lat="44.53795" lon="4.54423">
        <ele>484.60000610352</ele>
        <time>2020-05-01T15:36:29Z</time>
      </trkpt>
      <trkpt lat="44.53796" lon="4.54425">
        <ele>484.60000610352</ele>
        <time>2020-05-01T15:36:30Z</time>
      </trkpt>
      <trkpt lat="44.53798" lon="4.54426">
        <ele>484.79998779297</ele>
        <time>2020-05-01T15:36:31Z</time>
      </trkpt>
      <trkpt lat="44.53802" lon="4.54429">
        <ele>485</ele>
        <time>2020-05-01T15:36:33Z</time>
      </trkpt>
      <trkpt lat="44.53805" lon="4.54431">
        <ele>485.20001220703</ele>
        <time>2020-05-01T15:36:34Z</time>
      </trkpt>
      <trkpt lat="44.53806" lon="4.54433">
        <ele>485</ele>
        <time>2020-05-01T15:36:35Z</time>
      </trkpt>
      <trkpt lat="44.53808" lon="4.54435">
        <ele>485.20001220703</ele>
        <time>2020-05-01T15:36:36Z</time>
      </trkpt>
      <trkpt lat="44.5381" lon="4.54436">
        <ele>485</ele>
        <time>2020-05-01T15:36:37Z</time>
      </trkpt>
      <trkpt lat="44.53812" lon="4.54438">
        <ele>485.20001220703</ele>
        <time>2020-05-01T15:36:38Z</time>
      </trkpt>
      <trkpt lat="44.53814" lon="4.5444">
        <ele>485.20001220703</ele>
        <time>2020-05-01T15:36:39Z</time>
      </trkpt>
      <trkpt lat="44.53816" lon="4.54441">
        <ele>485</ele>
        <time>2020-05-01T15:36:40Z</time>
      </trkpt>
      <trkpt lat="44.53818" lon="4.54443">
        <ele>485.20001220703</ele>
        <time>2020-05-01T15:36:41Z</time>
      </trkpt>
      <trkpt lat="44.5382" lon="4.54444">
        <ele>485.20001220703</ele>
        <time>2020-05-01T15:36:42Z</time>
      </trkpt>
      <trkpt lat="44.53823" lon="4.54446">
        <ele>485.20001220703</ele>
        <time>2020-05-01T15:36:43Z</time>
      </trkpt>
      <trkpt lat="44.53828" lon="4.5445">
        <ele>485</ele>
        <time>2020-05-01T15:36:45Z</time>
      </trkpt>
      <trkpt lat="44.5383" lon="4.54453">
        <ele>484.79998779297</ele>
        <time>2020-05-01T15:36:46Z</time>
      </trkpt>
      <trkpt lat="44.53833" lon="4.54455">
        <ele>484.60000610352</ele>
        <time>2020-05-01T15:36:47Z</time>
      </trkpt>
      <trkpt lat="44.53838" lon="4.54459">
        <ele>484.60000610352</ele>
        <time>2020-05-01T15:36:49Z</time>
      </trkpt>
      <trkpt lat="44.53841" lon="4.54461">
        <ele>484.20001220703</ele>
        <time>2020-05-01T15:36:50Z</time>
      </trkpt>
      <trkpt lat="44.53846" lon="4.54466">
        <ele>484.20001220703</ele>
        <time>2020-05-01T15:36:52Z</time>
      </trkpt>
      <trkpt lat="44.53853" lon="4.54473">
        <ele>484.20001220703</ele>
        <time>2020-05-01T15:36:55Z</time>
      </trkpt>
      <trkpt lat="44.53856" lon="4.54475">
        <ele>484.20001220703</ele>
        <time>2020-05-01T15:36:56Z</time>
      </trkpt>
      <trkpt lat="44.53858" lon="4.54478">
        <ele>484.20001220703</ele>
        <time>2020-05-01T15:36:57Z</time>
      </trkpt>
      <trkpt lat="44.53863" lon="4.54483">
        <ele>484.20001220703</ele>
        <time>2020-05-01T15:36:59Z</time>
      </trkpt>
      <trkpt lat="44.53865" lon="4.54484">
        <ele>484.20001220703</ele>
        <time>2020-05-01T15:37:00Z</time>
      </trkpt>
      <trkpt lat="44.53867" lon="4.54486">
        <ele>484.20001220703</ele>
        <time>2020-05-01T15:37:01Z</time>
      </trkpt>
      <trkpt lat="44.53869" lon="4.54488">
        <ele>484.20001220703</ele>
        <time>2020-05-01T15:37:02Z</time>
      </trkpt>
      <trkpt lat="44.5387" lon="4.5449">
        <ele>484.20001220703</ele>
        <time>2020-05-01T15:37:03Z</time>
      </trkpt>
      <trkpt lat="44.53871" lon="4.54492">
        <ele>484.20001220703</ele>
        <time>2020-05-01T15:37:04Z</time>
      </trkpt>
      <trkpt lat="44.53873" lon="4.54495">
        <ele>484.20001220703</ele>
        <time>2020-05-01T15:37:05Z</time>
      </trkpt>
      <trkpt lat="44.53876" lon="4.54502">
        <ele>484.20001220703</ele>
        <time>2020-05-01T15:37:07Z</time>
      </trkpt>
      <trkpt lat="44.53878" lon="4.54505">
        <ele>484.20001220703</ele>
        <time>2020-05-01T15:37:08Z</time>
      </trkpt>
      <trkpt lat="44.53879" lon="4.54508">
        <ele>484.39999389648</ele>
        <time>2020-05-01T15:37:09Z</time>
      </trkpt>
      <trkpt lat="44.53879" lon="4.54512">
        <ele>484.39999389648</ele>
        <time>2020-05-01T15:37:10Z</time>
      </trkpt>
      <trkpt lat="44.5388" lon="4.54515">
        <ele>484.39999389648</ele>
        <time>2020-05-01T15:37:11Z</time>
      </trkpt>
      <trkpt lat="44.53881" lon="4.54518">
        <ele>484.39999389648</ele>
        <time>2020-05-01T15:37:12Z</time>
      </trkpt>
      <trkpt lat="44.53881" lon="4.54521">
        <ele>484.39999389648</ele>
        <time>2020-05-01T15:37:13Z</time>
      </trkpt>
      <trkpt lat="44.53882" lon="4.54525">
        <ele>484.60000610352</ele>
        <time>2020-05-01T15:37:14Z</time>
      </trkpt>
      <trkpt lat="44.53882" lon="4.54528">
        <ele>484.60000610352</ele>
        <time>2020-05-01T15:37:15Z</time>
      </trkpt>
      <trkpt lat="44.53882" lon="4.54531">
        <ele>484.79998779297</ele>
        <time>2020-05-01T15:37:16Z</time>
      </trkpt>
      <trkpt lat="44.53882" lon="4.54535">
        <ele>484.79998779297</ele>
        <time>2020-05-01T15:37:17Z</time>
      </trkpt>
      <trkpt lat="44.53883" lon="4.54541">
        <ele>485</ele>
        <time>2020-05-01T15:37:19Z</time>
      </trkpt>
      <trkpt lat="44.53884" lon="4.54544">
        <ele>485.20001220703</ele>
        <time>2020-05-01T15:37:20Z</time>
      </trkpt>
      <trkpt lat="44.53884" lon="4.54547">
        <ele>485.39999389648</ele>
        <time>2020-05-01T15:37:21Z</time>
      </trkpt>
      <trkpt lat="44.53885" lon="4.54551">
        <ele>485.60000610352</ele>
        <time>2020-05-01T15:37:22Z</time>
      </trkpt>
      <trkpt lat="44.53885" lon="4.54554">
        <ele>485.79998779297</ele>
        <time>2020-05-01T15:37:23Z</time>
      </trkpt>
      <trkpt lat="44.53886" lon="4.54561">
        <ele>486</ele>
        <time>2020-05-01T15:37:25Z</time>
      </trkpt>
      <trkpt lat="44.53886" lon="4.54564">
        <ele>486</ele>
        <time>2020-05-01T15:37:26Z</time>
      </trkpt>
      <trkpt lat="44.53887" lon="4.54566">
        <ele>486</ele>
        <time>2020-05-01T15:37:27Z</time>
      </trkpt>
      <trkpt lat="44.53888" lon="4.5457">
        <ele>486.20001220703</ele>
        <time>2020-05-01T15:37:28Z</time>
      </trkpt>
      <trkpt lat="44.5389" lon="4.54573">
        <ele>486</ele>
        <time>2020-05-01T15:37:29Z</time>
      </trkpt>
      <trkpt lat="44.53891" lon="4.54576">
        <ele>486.20001220703</ele>
        <time>2020-05-01T15:37:30Z</time>
      </trkpt>
      <trkpt lat="44.53892" lon="4.54578">
        <ele>486.39999389648</ele>
        <time>2020-05-01T15:37:31Z</time>
      </trkpt>
      <trkpt lat="44.53893" lon="4.54581">
        <ele>486.60000610352</ele>
        <time>2020-05-01T15:37:32Z</time>
      </trkpt>
      <trkpt lat="44.53895" lon="4.54584">
        <ele>486.60000610352</ele>
        <time>2020-05-01T15:37:33Z</time>
      </trkpt>
      <trkpt lat="44.53899" lon="4.5459">
        <ele>486.79998779297</ele>
        <time>2020-05-01T15:37:35Z</time>
      </trkpt>
      <trkpt lat="44.53901" lon="4.54593">
        <ele>486.79998779297</ele>
        <time>2020-05-01T15:37:36Z</time>
      </trkpt>
      <trkpt lat="44.53903" lon="4.54596">
        <ele>487</ele>
        <time>2020-05-01T15:37:37Z</time>
      </trkpt>
      <trkpt lat="44.53905" lon="4.54598">
        <ele>487.20001220703</ele>
        <time>2020-05-01T15:37:38Z</time>
      </trkpt>
      <trkpt lat="44.53907" lon="4.54601">
        <ele>487.20001220703</ele>
        <time>2020-05-01T15:37:39Z</time>
      </trkpt>
      <trkpt lat="44.53909" lon="4.54603">
        <ele>487.20001220703</ele>
        <time>2020-05-01T15:37:40Z</time>
      </trkpt>
      <trkpt lat="44.53911" lon="4.54605">
        <ele>487.60000610352</ele>
        <time>2020-05-01T15:37:41Z</time>
      </trkpt>
      <trkpt lat="44.53913" lon="4.54607">
        <ele>487.60000610352</ele>
        <time>2020-05-01T15:37:42Z</time>
      </trkpt>
      <trkpt lat="44.53914" lon="4.54609">
        <ele>487.60000610352</ele>
        <time>2020-05-01T15:37:43Z</time>
      </trkpt>
      <trkpt lat="44.53916" lon="4.54611">
        <ele>487.79998779297</ele>
        <time>2020-05-01T15:37:44Z</time>
      </trkpt>
      <trkpt lat="44.53919" lon="4.54613">
        <ele>488</ele>
        <time>2020-05-01T15:37:45Z</time>
      </trkpt>
      <trkpt lat="44.5392" lon="4.54615">
        <ele>488.39999389648</ele>
        <time>2020-05-01T15:37:46Z</time>
      </trkpt>
      <trkpt lat="44.53924" lon="4.54621">
        <ele>488.60000610352</ele>
        <time>2020-05-01T15:37:48Z</time>
      </trkpt>
      <trkpt lat="44.53926" lon="4.54625">
        <ele>488.60000610352</ele>
        <time>2020-05-01T15:37:49Z</time>
      </trkpt>
      <trkpt lat="44.5393" lon="4.54632">
        <ele>489</ele>
        <time>2020-05-01T15:37:51Z</time>
      </trkpt>
      <trkpt lat="44.53932" lon="4.54635">
        <ele>489.20001220703</ele>
        <time>2020-05-01T15:37:52Z</time>
      </trkpt>
      <trkpt lat="44.53936" lon="4.54642">
        <ele>489.20001220703</ele>
        <time>2020-05-01T15:37:54Z</time>
      </trkpt>
      <trkpt lat="44.53941" lon="4.54649">
        <ele>489</ele>
        <time>2020-05-01T15:37:56Z</time>
      </trkpt>
      <trkpt lat="44.53944" lon="4.54652">
        <ele>489</ele>
        <time>2020-05-01T15:37:57Z</time>
      </trkpt>
      <trkpt lat="44.53945" lon="4.54657">
        <ele>489</ele>
        <time>2020-05-01T15:37:58Z</time>
      </trkpt>
      <trkpt lat="44.53948" lon="4.54661">
        <ele>489.20001220703</ele>
        <time>2020-05-01T15:37:59Z</time>
      </trkpt>
      <trkpt lat="44.5395" lon="4.54666">
        <ele>489.20001220703</ele>
        <time>2020-05-01T15:38:00Z</time>
      </trkpt>
      <trkpt lat="44.53955" lon="4.54676">
        <ele>489.20001220703</ele>
        <time>2020-05-01T15:38:02Z</time>
      </trkpt>
      <trkpt lat="44.53957" lon="4.54681">
        <ele>488.79998779297</ele>
        <time>2020-05-01T15:38:03Z</time>
      </trkpt>
      <trkpt lat="44.53958" lon="4.54687">
        <ele>488.79998779297</ele>
        <time>2020-05-01T15:38:04Z</time>
      </trkpt>
      <trkpt lat="44.5396" lon="4.54694">
        <ele>488.60000610352</ele>
        <time>2020-05-01T15:38:05Z</time>
      </trkpt>
      <trkpt lat="44.53961" lon="4.54699">
        <ele>488</ele>
        <time>2020-05-01T15:38:06Z</time>
      </trkpt>
      <trkpt lat="44.53963" lon="4.54704">
        <ele>487.79998779297</ele>
        <time>2020-05-01T15:38:07Z</time>
      </trkpt>
      <trkpt lat="44.53965" lon="4.5471">
        <ele>487.79998779297</ele>
        <time>2020-05-01T15:38:08Z</time>
      </trkpt>
      <trkpt lat="44.53966" lon="4.54715">
        <ele>487.60000610352</ele>
        <time>2020-05-01T15:38:09Z</time>
      </trkpt>
      <trkpt lat="44.53967" lon="4.5472">
        <ele>487.60000610352</ele>
        <time>2020-05-01T15:38:10Z</time>
      </trkpt>
      <trkpt lat="44.53968" lon="4.54725">
        <ele>487.39999389648</ele>
        <time>2020-05-01T15:38:11Z</time>
      </trkpt>
      <trkpt lat="44.53968" lon="4.54729">
        <ele>487.20001220703</ele>
        <time>2020-05-01T15:38:12Z</time>
      </trkpt>
      <trkpt lat="44.53968" lon="4.54734">
        <ele>486.79998779297</ele>
        <time>2020-05-01T15:38:13Z</time>
      </trkpt>
      <trkpt lat="44.53968" lon="4.54738">
        <ele>486.39999389648</ele>
        <time>2020-05-01T15:38:14Z</time>
      </trkpt>
      <trkpt lat="44.53968" lon="4.54743">
        <ele>486.20001220703</ele>
        <time>2020-05-01T15:38:15Z</time>
      </trkpt>
      <trkpt lat="44.53967" lon="4.54749">
        <ele>486.20001220703</ele>
        <time>2020-05-01T15:38:16Z</time>
      </trkpt>
      <trkpt lat="44.53966" lon="4.54754">
        <ele>486</ele>
        <time>2020-05-01T15:38:17Z</time>
      </trkpt>
      <trkpt lat="44.53964" lon="4.54766">
        <ele>486</ele>
        <time>2020-05-01T15:38:19Z</time>
      </trkpt>
      <trkpt lat="44.53962" lon="4.54771">
        <ele>486</ele>
        <time>2020-05-01T15:38:20Z</time>
      </trkpt>
      <trkpt lat="44.5396" lon="4.54777">
        <ele>486</ele>
        <time>2020-05-01T15:38:21Z</time>
      </trkpt>
      <trkpt lat="44.53959" lon="4.54781">
        <ele>486</ele>
        <time>2020-05-01T15:38:22Z</time>
      </trkpt>
      <trkpt lat="44.53956" lon="4.54786">
        <ele>486</ele>
        <time>2020-05-01T15:38:23Z</time>
      </trkpt>
      <trkpt lat="44.53954" lon="4.5479">
        <ele>486.20001220703</ele>
        <time>2020-05-01T15:38:24Z</time>
      </trkpt>
      <trkpt lat="44.53951" lon="4.54795">
        <ele>486</ele>
        <time>2020-05-01T15:38:25Z</time>
      </trkpt>
      <trkpt lat="44.53949" lon="4.548">
        <ele>486</ele>
        <time>2020-05-01T15:38:26Z</time>
      </trkpt>
      <trkpt lat="44.53945" lon="4.54804">
        <ele>486</ele>
        <time>2020-05-01T15:38:27Z</time>
      </trkpt>
      <trkpt lat="44.53941" lon="4.54809">
        <ele>486.39999389648</ele>
        <time>2020-05-01T15:38:28Z</time>
      </trkpt>
      <trkpt lat="44.53938" lon="4.54813">
        <ele>486.79998779297</ele>
        <time>2020-05-01T15:38:29Z</time>
      </trkpt>
      <trkpt lat="44.53934" lon="4.54818">
        <ele>487</ele>
        <time>2020-05-01T15:38:30Z</time>
      </trkpt>
      <trkpt lat="44.5393" lon="4.54824">
        <ele>487.20001220703</ele>
        <time>2020-05-01T15:38:31Z</time>
      </trkpt>
      <trkpt lat="44.53926" lon="4.54828">
        <ele>487.20001220703</ele>
        <time>2020-05-01T15:38:32Z</time>
      </trkpt>
      <trkpt lat="44.53923" lon="4.54833">
        <ele>487.39999389648</ele>
        <time>2020-05-01T15:38:33Z</time>
      </trkpt>
      <trkpt lat="44.53921" lon="4.54837">
        <ele>487.60000610352</ele>
        <time>2020-05-01T15:38:34Z</time>
      </trkpt>
      <trkpt lat="44.53918" lon="4.54841">
        <ele>487.79998779297</ele>
        <time>2020-05-01T15:38:35Z</time>
      </trkpt>
      <trkpt lat="44.53915" lon="4.54845">
        <ele>487.79998779297</ele>
        <time>2020-05-01T15:38:36Z</time>
      </trkpt>
      <trkpt lat="44.53912" lon="4.5485">
        <ele>488</ele>
        <time>2020-05-01T15:38:37Z</time>
      </trkpt>
      <trkpt lat="44.5391" lon="4.54855">
        <ele>488</ele>
        <time>2020-05-01T15:38:38Z</time>
      </trkpt>
      <trkpt lat="44.53909" lon="4.5486">
        <ele>488</ele>
        <time>2020-05-01T15:38:39Z</time>
      </trkpt>
      <trkpt lat="44.53908" lon="4.54865">
        <ele>488</ele>
        <time>2020-05-01T15:38:40Z</time>
      </trkpt>
      <trkpt lat="44.53907" lon="4.5487">
        <ele>488</ele>
        <time>2020-05-01T15:38:41Z</time>
      </trkpt>
      <trkpt lat="44.53907" lon="4.54874">
        <ele>488.20001220703</ele>
        <time>2020-05-01T15:38:42Z</time>
      </trkpt>
      <trkpt lat="44.53907" lon="4.54879">
        <ele>488.39999389648</ele>
        <time>2020-05-01T15:38:43Z</time>
      </trkpt>
      <trkpt lat="44.53908" lon="4.54883">
        <ele>488.60000610352</ele>
        <time>2020-05-01T15:38:44Z</time>
      </trkpt>
      <trkpt lat="44.53909" lon="4.54888">
        <ele>488.60000610352</ele>
        <time>2020-05-01T15:38:45Z</time>
      </trkpt>
      <trkpt lat="44.5391" lon="4.54892">
        <ele>488.79998779297</ele>
        <time>2020-05-01T15:38:46Z</time>
      </trkpt>
      <trkpt lat="44.53912" lon="4.54895">
        <ele>489.20001220703</ele>
        <time>2020-05-01T15:38:47Z</time>
      </trkpt>
      <trkpt lat="44.53914" lon="4.54898">
        <ele>489.60000610352</ele>
        <time>2020-05-01T15:38:48Z</time>
      </trkpt>
      <trkpt lat="44.53917" lon="4.54901">
        <ele>489.79998779297</ele>
        <time>2020-05-01T15:38:49Z</time>
      </trkpt>
      <trkpt lat="44.53919" lon="4.54903">
        <ele>490.20001220703</ele>
        <time>2020-05-01T15:38:50Z</time>
      </trkpt>
      <trkpt lat="44.53922" lon="4.54904">
        <ele>490.60000610352</ele>
        <time>2020-05-01T15:38:51Z</time>
      </trkpt>
      <trkpt lat="44.53925" lon="4.54904">
        <ele>490.79998779297</ele>
        <time>2020-05-01T15:38:52Z</time>
      </trkpt>
      <trkpt lat="44.53928" lon="4.54904">
        <ele>491</ele>
        <time>2020-05-01T15:38:53Z</time>
      </trkpt>
      <trkpt lat="44.5393" lon="4.54904">
        <ele>491.20001220703</ele>
        <time>2020-05-01T15:38:54Z</time>
      </trkpt>
      <trkpt lat="44.53932" lon="4.54904">
        <ele>491.60000610352</ele>
        <time>2020-05-01T15:38:55Z</time>
      </trkpt>
      <trkpt lat="44.53935" lon="4.54904">
        <ele>491.79998779297</ele>
        <time>2020-05-01T15:38:56Z</time>
      </trkpt>
      <trkpt lat="44.53937" lon="4.54904">
        <ele>492.20001220703</ele>
        <time>2020-05-01T15:38:57Z</time>
      </trkpt>
      <trkpt lat="44.53939" lon="4.54905">
        <ele>492.20001220703</ele>
        <time>2020-05-01T15:38:58Z</time>
      </trkpt>
      <trkpt lat="44.53942" lon="4.54905">
        <ele>492.60000610352</ele>
        <time>2020-05-01T15:38:59Z</time>
      </trkpt>
      <trkpt lat="44.53944" lon="4.54906">
        <ele>493</ele>
        <time>2020-05-01T15:39:00Z</time>
      </trkpt>
      <trkpt lat="44.53946" lon="4.54906">
        <ele>493</ele>
        <time>2020-05-01T15:39:01Z</time>
      </trkpt>
      <trkpt lat="44.53949" lon="4.54906">
        <ele>493.39999389648</ele>
        <time>2020-05-01T15:39:02Z</time>
      </trkpt>
      <trkpt lat="44.53951" lon="4.54907">
        <ele>493.60000610352</ele>
        <time>2020-05-01T15:39:03Z</time>
      </trkpt>
      <trkpt lat="44.53954" lon="4.54907">
        <ele>494.20001220703</ele>
        <time>2020-05-01T15:39:04Z</time>
      </trkpt>
      <trkpt lat="44.53956" lon="4.54907">
        <ele>494.39999389648</ele>
        <time>2020-05-01T15:39:05Z</time>
      </trkpt>
      <trkpt lat="44.53959" lon="4.54907">
        <ele>494.79998779297</ele>
        <time>2020-05-01T15:39:06Z</time>
      </trkpt>
      <trkpt lat="44.53961" lon="4.54908">
        <ele>495</ele>
        <time>2020-05-01T15:39:07Z</time>
      </trkpt>
      <trkpt lat="44.53964" lon="4.54908">
        <ele>495.39999389648</ele>
        <time>2020-05-01T15:39:08Z</time>
      </trkpt>
      <trkpt lat="44.53966" lon="4.54908">
        <ele>495.79998779297</ele>
        <time>2020-05-01T15:39:09Z</time>
      </trkpt>
      <trkpt lat="44.53969" lon="4.54908">
        <ele>496</ele>
        <time>2020-05-01T15:39:10Z</time>
      </trkpt>
      <trkpt lat="44.53972" lon="4.54909">
        <ele>496.39999389648</ele>
        <time>2020-05-01T15:39:11Z</time>
      </trkpt>
      <trkpt lat="44.53974" lon="4.54909">
        <ele>496.60000610352</ele>
        <time>2020-05-01T15:39:12Z</time>
      </trkpt>
      <trkpt lat="44.53977" lon="4.54909">
        <ele>497</ele>
        <time>2020-05-01T15:39:13Z</time>
      </trkpt>
      <trkpt lat="44.5398" lon="4.5491">
        <ele>497.20001220703</ele>
        <time>2020-05-01T15:39:14Z</time>
      </trkpt>
      <trkpt lat="44.53982" lon="4.5491">
        <ele>497.39999389648</ele>
        <time>2020-05-01T15:39:15Z</time>
      </trkpt>
      <trkpt lat="44.53985" lon="4.54911">
        <ele>497.79998779297</ele>
        <time>2020-05-01T15:39:16Z</time>
      </trkpt>
      <trkpt lat="44.53987" lon="4.54911">
        <ele>498</ele>
        <time>2020-05-01T15:39:17Z</time>
      </trkpt>
      <trkpt lat="44.5399" lon="4.54911">
        <ele>498.20001220703</ele>
        <time>2020-05-01T15:39:18Z</time>
      </trkpt>
      <trkpt lat="44.53992" lon="4.54912">
        <ele>498.39999389648</ele>
        <time>2020-05-01T15:39:19Z</time>
      </trkpt>
      <trkpt lat="44.53995" lon="4.54913">
        <ele>498.60000610352</ele>
        <time>2020-05-01T15:39:20Z</time>
      </trkpt>
      <trkpt lat="44.53998" lon="4.54913">
        <ele>499</ele>
        <time>2020-05-01T15:39:21Z</time>
      </trkpt>
      <trkpt lat="44.54" lon="4.54914">
        <ele>499</ele>
        <time>2020-05-01T15:39:22Z</time>
      </trkpt>
      <trkpt lat="44.54002" lon="4.54914">
        <ele>499.20001220703</ele>
        <time>2020-05-01T15:39:23Z</time>
      </trkpt>
      <trkpt lat="44.54005" lon="4.54913">
        <ele>499.39999389648</ele>
        <time>2020-05-01T15:39:24Z</time>
      </trkpt>
      <trkpt lat="44.54007" lon="4.54912">
        <ele>499.60000610352</ele>
        <time>2020-05-01T15:39:25Z</time>
      </trkpt>
      <trkpt lat="44.54008" lon="4.54909">
        <ele>499.79998779297</ele>
        <time>2020-05-01T15:39:26Z</time>
      </trkpt>
      <trkpt lat="44.54009" lon="4.54907">
        <ele>500.20001220703</ele>
        <time>2020-05-01T15:39:27Z</time>
      </trkpt>
      <trkpt lat="44.5401" lon="4.54904">
        <ele>500.60000610352</ele>
        <time>2020-05-01T15:39:28Z</time>
      </trkpt>
      <trkpt lat="44.54011" lon="4.54902">
        <ele>500.79998779297</ele>
        <time>2020-05-01T15:39:29Z</time>
      </trkpt>
      <trkpt lat="44.54011" lon="4.54899">
        <ele>501</ele>
        <time>2020-05-01T15:39:30Z</time>
      </trkpt>
      <trkpt lat="44.54012" lon="4.54897">
        <ele>501.20001220703</ele>
        <time>2020-05-01T15:39:31Z</time>
      </trkpt>
      <trkpt lat="44.54013" lon="4.54895">
        <ele>501.60000610352</ele>
        <time>2020-05-01T15:39:32Z</time>
      </trkpt>
      <trkpt lat="44.54014" lon="4.54894">
        <ele>502</ele>
        <time>2020-05-01T15:39:33Z</time>
      </trkpt>
      <trkpt lat="44.54015" lon="4.54892">
        <ele>502.20001220703</ele>
        <time>2020-05-01T15:39:34Z</time>
      </trkpt>
      <trkpt lat="44.54016" lon="4.5489">
        <ele>502.60000610352</ele>
        <time>2020-05-01T15:39:35Z</time>
      </trkpt>
      <trkpt lat="44.54017" lon="4.54888">
        <ele>502.79998779297</ele>
        <time>2020-05-01T15:39:36Z</time>
      </trkpt>
      <trkpt lat="44.54018" lon="4.54886">
        <ele>503.20001220703</ele>
        <time>2020-05-01T15:39:37Z</time>
      </trkpt>
      <trkpt lat="44.54019" lon="4.54884">
        <ele>503.60000610352</ele>
        <time>2020-05-01T15:39:38Z</time>
      </trkpt>
      <trkpt lat="44.5402" lon="4.54882">
        <ele>504</ele>
        <time>2020-05-01T15:39:39Z</time>
      </trkpt>
      <trkpt lat="44.54022" lon="4.54881">
        <ele>504.39999389648</ele>
        <time>2020-05-01T15:39:40Z</time>
      </trkpt>
      <trkpt lat="44.54023" lon="4.54879">
        <ele>505</ele>
        <time>2020-05-01T15:39:41Z</time>
      </trkpt>
      <trkpt lat="44.54025" lon="4.54877">
        <ele>505.39999389648</ele>
        <time>2020-05-01T15:39:42Z</time>
      </trkpt>
      <trkpt lat="44.54027" lon="4.54875">
        <ele>505.39999389648</ele>
        <time>2020-05-01T15:39:43Z</time>
      </trkpt>
      <trkpt lat="44.54029" lon="4.54873">
        <ele>506</ele>
        <time>2020-05-01T15:39:44Z</time>
      </trkpt>
      <trkpt lat="44.5403" lon="4.54872">
        <ele>506.39999389648</ele>
        <time>2020-05-01T15:39:45Z</time>
      </trkpt>
      <trkpt lat="44.54032" lon="4.54871">
        <ele>506.79998779297</ele>
        <time>2020-05-01T15:39:46Z</time>
      </trkpt>
      <trkpt lat="44.54034" lon="4.5487">
        <ele>507.20001220703</ele>
        <time>2020-05-01T15:39:47Z</time>
      </trkpt>
      <trkpt lat="44.54036" lon="4.54869">
        <ele>507.60000610352</ele>
        <time>2020-05-01T15:39:48Z</time>
      </trkpt>
      <trkpt lat="44.54038" lon="4.54867">
        <ele>507.79998779297</ele>
        <time>2020-05-01T15:39:49Z</time>
      </trkpt>
      <trkpt lat="44.5404" lon="4.54866">
        <ele>508.39999389648</ele>
        <time>2020-05-01T15:39:50Z</time>
      </trkpt>
      <trkpt lat="44.54042" lon="4.54865">
        <ele>508.79998779297</ele>
        <time>2020-05-01T15:39:51Z</time>
      </trkpt>
      <trkpt lat="44.54045" lon="4.54863">
        <ele>509</ele>
        <time>2020-05-01T15:39:52Z</time>
      </trkpt>
      <trkpt lat="44.54047" lon="4.54862">
        <ele>509.60000610352</ele>
        <time>2020-05-01T15:39:53Z</time>
      </trkpt>
      <trkpt lat="44.54049" lon="4.54861">
        <ele>509.79998779297</ele>
        <time>2020-05-01T15:39:54Z</time>
      </trkpt>
      <trkpt lat="44.54051" lon="4.5486">
        <ele>510.20001220703</ele>
        <time>2020-05-01T15:39:55Z</time>
      </trkpt>
      <trkpt lat="44.54053" lon="4.54859">
        <ele>510.39999389648</ele>
        <time>2020-05-01T15:39:56Z</time>
      </trkpt>
      <trkpt lat="44.54055" lon="4.54857">
        <ele>510.79998779297</ele>
        <time>2020-05-01T15:39:57Z</time>
      </trkpt>
      <trkpt lat="44.54057" lon="4.54855">
        <ele>511</ele>
        <time>2020-05-01T15:39:58Z</time>
      </trkpt>
      <trkpt lat="44.54059" lon="4.54852">
        <ele>511.20001220703</ele>
        <time>2020-05-01T15:39:59Z</time>
      </trkpt>
      <trkpt lat="44.54061" lon="4.5485">
        <ele>511.60000610352</ele>
        <time>2020-05-01T15:40:00Z</time>
      </trkpt>
      <trkpt lat="44.54062" lon="4.54847">
        <ele>512</ele>
        <time>2020-05-01T15:40:01Z</time>
      </trkpt>
      <trkpt lat="44.54063" lon="4.54846">
        <ele>512.20001220703</ele>
        <time>2020-05-01T15:40:02Z</time>
      </trkpt>
      <trkpt lat="44.54064" lon="4.54844">
        <ele>512.40002441406</ele>
        <time>2020-05-01T15:40:03Z</time>
      </trkpt>
      <trkpt lat="44.54067" lon="4.54843">
        <ele>512.40002441406</ele>
        <time>2020-05-01T15:40:04Z</time>
      </trkpt>
      <trkpt lat="44.5407" lon="4.54842">
        <ele>512.59997558594</ele>
        <time>2020-05-01T15:40:05Z</time>
      </trkpt>
      <trkpt lat="44.54072" lon="4.54843">
        <ele>512.79998779297</ele>
        <time>2020-05-01T15:40:06Z</time>
      </trkpt>
      <trkpt lat="44.54074" lon="4.54845">
        <ele>513.20001220703</ele>
        <time>2020-05-01T15:40:07Z</time>
      </trkpt>
      <trkpt lat="44.54076" lon="4.54845">
        <ele>513.20001220703</ele>
        <time>2020-05-01T15:40:08Z</time>
      </trkpt>
      <trkpt lat="44.54079" lon="4.54846">
        <ele>513.20001220703</ele>
        <time>2020-05-01T15:40:09Z</time>
      </trkpt>
      <trkpt lat="44.54081" lon="4.54847">
        <ele>513.20001220703</ele>
        <time>2020-05-01T15:40:10Z</time>
      </trkpt>
      <trkpt lat="44.54084" lon="4.54848">
        <ele>513.40002441406</ele>
        <time>2020-05-01T15:40:11Z</time>
      </trkpt>
      <trkpt lat="44.54086" lon="4.5485">
        <ele>513.40002441406</ele>
        <time>2020-05-01T15:40:12Z</time>
      </trkpt>
      <trkpt lat="44.54087" lon="4.54853">
        <ele>513.20001220703</ele>
        <time>2020-05-01T15:40:13Z</time>
      </trkpt>
      <trkpt lat="44.54088" lon="4.54855">
        <ele>513.20001220703</ele>
        <time>2020-05-01T15:40:14Z</time>
      </trkpt>
      <trkpt lat="44.5409" lon="4.54856">
        <ele>513.40002441406</ele>
        <time>2020-05-01T15:40:15Z</time>
      </trkpt>
      <trkpt lat="44.54091" lon="4.54857">
        <ele>513.40002441406</ele>
        <time>2020-05-01T15:40:16Z</time>
      </trkpt>
      <trkpt lat="44.54091" lon="4.54852">
        <ele>513.40002441406</ele>
        <time>2020-05-01T15:40:18Z</time>
      </trkpt>
      <trkpt lat="44.5409" lon="4.5485">
        <ele>513.40002441406</ele>
        <time>2020-05-01T15:40:19Z</time>
      </trkpt>
      <trkpt lat="44.54088" lon="4.54848">
        <ele>513.20001220703</ele>
        <time>2020-05-01T15:40:20Z</time>
      </trkpt>
      <trkpt lat="44.54086" lon="4.54846">
        <ele>513.20001220703</ele>
        <time>2020-05-01T15:40:21Z</time>
      </trkpt>
      <trkpt lat="44.54084" lon="4.54846">
        <ele>513.20001220703</ele>
        <time>2020-05-01T15:40:22Z</time>
      </trkpt>
      <trkpt lat="44.54081" lon="4.54845">
        <ele>513.20001220703</ele>
        <time>2020-05-01T15:40:23Z</time>
      </trkpt>
      <trkpt lat="44.5408" lon="4.54845">
        <ele>513.20001220703</ele>
        <time>2020-05-01T15:40:24Z</time>
      </trkpt>
      <trkpt lat="44.54078" lon="4.54844">
        <ele>513.20001220703</ele>
        <time>2020-05-01T15:40:25Z</time>
      </trkpt>
      <trkpt lat="44.54076" lon="4.54844">
        <ele>513.20001220703</ele>
        <time>2020-05-01T15:40:26Z</time>
      </trkpt>
      <trkpt lat="44.54074" lon="4.54844">
        <ele>513.20001220703</ele>
        <time>2020-05-01T15:40:27Z</time>
      </trkpt>
      <trkpt lat="44.54072" lon="4.54844">
        <ele>513.20001220703</ele>
        <time>2020-05-01T15:40:28Z</time>
      </trkpt>
      <trkpt lat="44.5407" lon="4.54845">
        <ele>513</ele>
        <time>2020-05-01T15:40:29Z</time>
      </trkpt>
      <trkpt lat="44.54069" lon="4.54846">
        <ele>513.20001220703</ele>
        <time>2020-05-01T15:40:30Z</time>
      </trkpt>
      <trkpt lat="44.54067" lon="4.54847">
        <ele>513.40002441406</ele>
        <time>2020-05-01T15:40:31Z</time>
      </trkpt>
      <trkpt lat="44.54066" lon="4.54849">
        <ele>513.20001220703</ele>
        <time>2020-05-01T15:40:32Z</time>
      </trkpt>
      <trkpt lat="44.54065" lon="4.5485">
        <ele>513.20001220703</ele>
        <time>2020-05-01T15:40:33Z</time>
      </trkpt>
      <trkpt lat="44.54064" lon="4.54851">
        <ele>513.20001220703</ele>
        <time>2020-05-01T15:40:34Z</time>
      </trkpt>
      <trkpt lat="44.54064" lon="4.54853">
        <ele>513.20001220703</ele>
        <time>2020-05-01T15:40:35Z</time>
      </trkpt>
      <trkpt lat="44.54063" lon="4.54855">
        <ele>513.40002441406</ele>
        <time>2020-05-01T15:40:36Z</time>
      </trkpt>
      <trkpt lat="44.54062" lon="4.54856">
        <ele>513.40002441406</ele>
        <time>2020-05-01T15:40:37Z</time>
      </trkpt>
      <trkpt lat="44.54061" lon="4.54857">
        <ele>513.20001220703</ele>
        <time>2020-05-01T15:40:38Z</time>
      </trkpt>
      <trkpt lat="44.54058" lon="4.54858">
        <ele>513.40002441406</ele>
        <time>2020-05-01T15:40:40Z</time>
      </trkpt>
      <trkpt lat="44.54057" lon="4.54858">
        <ele>513.59997558594</ele>
        <time>2020-05-01T15:40:41Z</time>
      </trkpt>
      <trkpt lat="44.54056" lon="4.54858">
        <ele>513.40002441406</ele>
        <time>2020-05-01T15:40:42Z</time>
      </trkpt>
      <trkpt lat="44.54055" lon="4.54859">
        <ele>513.40002441406</ele>
        <time>2020-05-01T15:40:43Z</time>
      </trkpt>
      <trkpt lat="44.54055" lon="4.54859">
        <ele>513.40002441406</ele>
        <time>2020-05-01T15:40:44Z</time>
      </trkpt>
      <trkpt lat="44.54055" lon="4.5486">
        <ele>513.59997558594</ele>
        <time>2020-05-01T15:40:45Z</time>
      </trkpt>
      <trkpt lat="44.54056" lon="4.5486">
        <ele>513.59997558594</ele>
        <time>2020-05-01T15:40:46Z</time>
      </trkpt>
      <trkpt lat="44.54057" lon="4.54859">
        <ele>513.59997558594</ele>
        <time>2020-05-01T15:40:47Z</time>
      </trkpt>
      <trkpt lat="44.54061" lon="4.54853">
        <ele>513.40002441406</ele>
        <time>2020-05-01T15:40:50Z</time>
      </trkpt>
      <trkpt lat="44.54062" lon="4.5485">
        <ele>513.59997558594</ele>
        <time>2020-05-01T15:40:51Z</time>
      </trkpt>
      <trkpt lat="44.54064" lon="4.54848">
        <ele>513.59997558594</ele>
        <time>2020-05-01T15:40:52Z</time>
      </trkpt>
      <trkpt lat="44.54065" lon="4.54846">
        <ele>513.40002441406</ele>
        <time>2020-05-01T15:40:53Z</time>
      </trkpt>
      <trkpt lat="44.54067" lon="4.54845">
        <ele>513.59997558594</ele>
        <time>2020-05-01T15:40:54Z</time>
      </trkpt>
      <trkpt lat="44.5407" lon="4.54844">
        <ele>513.40002441406</ele>
        <time>2020-05-01T15:40:55Z</time>
      </trkpt>
      <trkpt lat="44.54073" lon="4.54845">
        <ele>513.59997558594</ele>
        <time>2020-05-01T15:40:56Z</time>
      </trkpt>
      <trkpt lat="44.54078" lon="4.54846">
        <ele>513.59997558594</ele>
        <time>2020-05-01T15:40:58Z</time>
      </trkpt>
      <trkpt lat="44.54081" lon="4.54848">
        <ele>513.59997558594</ele>
        <time>2020-05-01T15:40:59Z</time>
      </trkpt>
      <trkpt lat="44.54084" lon="4.5485">
        <ele>513.59997558594</ele>
        <time>2020-05-01T15:41:00Z</time>
      </trkpt>
      <trkpt lat="44.54086" lon="4.54852">
        <ele>513.59997558594</ele>
        <time>2020-05-01T15:41:01Z</time>
      </trkpt>
      <trkpt lat="44.54088" lon="4.54854">
        <ele>513.59997558594</ele>
        <time>2020-05-01T15:41:02Z</time>
      </trkpt>
      <trkpt lat="44.54092" lon="4.54859">
        <ele>513.59997558594</ele>
        <time>2020-05-01T15:41:04Z</time>
      </trkpt>
      <trkpt lat="44.54093" lon="4.54863">
        <ele>513.79998779297</ele>
        <time>2020-05-01T15:41:05Z</time>
      </trkpt>
      <trkpt lat="44.54102" lon="4.54883">
        <ele>514</ele>
        <time>2020-05-01T15:41:10Z</time>
      </trkpt>
      <trkpt lat="44.54104" lon="4.54887">
        <ele>514</ele>
        <time>2020-05-01T15:41:11Z</time>
      </trkpt>
      <trkpt lat="44.54106" lon="4.54891">
        <ele>514</ele>
        <time>2020-05-01T15:41:12Z</time>
      </trkpt>
      <trkpt lat="44.54114" lon="4.54903">
        <ele>513.79998779297</ele>
        <time>2020-05-01T15:41:15Z</time>
      </trkpt>
      <trkpt lat="44.5412" lon="4.5491">
        <ele>514.20001220703</ele>
        <time>2020-05-01T15:41:17Z</time>
      </trkpt>
      <trkpt lat="44.54129" lon="4.54921">
        <ele>514.40002441406</ele>
        <time>2020-05-01T15:41:20Z</time>
      </trkpt>
      <trkpt lat="44.54132" lon="4.54924">
        <ele>514.40002441406</ele>
        <time>2020-05-01T15:41:21Z</time>
      </trkpt>
      <trkpt lat="44.54135" lon="4.54928">
        <ele>514.40002441406</ele>
        <time>2020-05-01T15:41:22Z</time>
      </trkpt>
      <trkpt lat="44.54138" lon="4.54932">
        <ele>514.40002441406</ele>
        <time>2020-05-01T15:41:23Z</time>
      </trkpt>
      <trkpt lat="44.5414" lon="4.54935">
        <ele>514.40002441406</ele>
        <time>2020-05-01T15:41:24Z</time>
      </trkpt>
      <trkpt lat="44.54143" lon="4.54939">
        <ele>514.40002441406</ele>
        <time>2020-05-01T15:41:25Z</time>
      </trkpt>
      <trkpt lat="44.54145" lon="4.54942">
        <ele>514.40002441406</ele>
        <time>2020-05-01T15:41:26Z</time>
      </trkpt>
      <trkpt lat="44.54148" lon="4.54945">
        <ele>514.20001220703</ele>
        <time>2020-05-01T15:41:27Z</time>
      </trkpt>
      <trkpt lat="44.5415" lon="4.54949">
        <ele>514.20001220703</ele>
        <time>2020-05-01T15:41:28Z</time>
      </trkpt>
      <trkpt lat="44.54152" lon="4.54951">
        <ele>514.20001220703</ele>
        <time>2020-05-01T15:41:29Z</time>
      </trkpt>
      <trkpt lat="44.54155" lon="4.54954">
        <ele>514.20001220703</ele>
        <time>2020-05-01T15:41:30Z</time>
      </trkpt>
      <trkpt lat="44.54157" lon="4.54957">
        <ele>514</ele>
        <time>2020-05-01T15:41:31Z</time>
      </trkpt>
      <trkpt lat="44.5416" lon="4.5496">
        <ele>514</ele>
        <time>2020-05-01T15:41:32Z</time>
      </trkpt>
      <trkpt lat="44.54162" lon="4.54963">
        <ele>514</ele>
        <time>2020-05-01T15:41:33Z</time>
      </trkpt>
      <trkpt lat="44.5417" lon="4.54973">
        <ele>513.79998779297</ele>
        <time>2020-05-01T15:41:36Z</time>
      </trkpt>
      <trkpt lat="44.54181" lon="4.54988">
        <ele>513.79998779297</ele>
        <time>2020-05-01T15:41:40Z</time>
      </trkpt>
      <trkpt lat="44.54186" lon="4.54997">
        <ele>513.40002441406</ele>
        <time>2020-05-01T15:41:42Z</time>
      </trkpt>
      <trkpt lat="44.54188" lon="4.55002">
        <ele>513.20001220703</ele>
        <time>2020-05-01T15:41:43Z</time>
      </trkpt>
      <trkpt lat="44.54191" lon="4.55007">
        <ele>513.20001220703</ele>
        <time>2020-05-01T15:41:44Z</time>
      </trkpt>
      <trkpt lat="44.54197" lon="4.55023">
        <ele>513</ele>
        <time>2020-05-01T15:41:47Z</time>
      </trkpt>
      <trkpt lat="44.54201" lon="4.55035">
        <ele>513</ele>
        <time>2020-05-01T15:41:49Z</time>
      </trkpt>
      <trkpt lat="44.54205" lon="4.55047">
        <ele>512.79998779297</ele>
        <time>2020-05-01T15:41:51Z</time>
      </trkpt>
      <trkpt lat="44.5421" lon="4.55059">
        <ele>512.20001220703</ele>
        <time>2020-05-01T15:41:53Z</time>
      </trkpt>
      <trkpt lat="44.54212" lon="4.55065">
        <ele>512</ele>
        <time>2020-05-01T15:41:54Z</time>
      </trkpt>
      <trkpt lat="44.54217" lon="4.55079">
        <ele>511.39999389648</ele>
        <time>2020-05-01T15:41:56Z</time>
      </trkpt>
      <trkpt lat="44.54222" lon="4.55093">
        <ele>510.60000610352</ele>
        <time>2020-05-01T15:41:58Z</time>
      </trkpt>
      <trkpt lat="44.54224" lon="4.551">
        <ele>510.39999389648</ele>
        <time>2020-05-01T15:41:59Z</time>
      </trkpt>
      <trkpt lat="44.54226" lon="4.55107">
        <ele>509.79998779297</ele>
        <time>2020-05-01T15:42:00Z</time>
      </trkpt>
      <trkpt lat="44.54228" lon="4.55114">
        <ele>509.39999389648</ele>
        <time>2020-05-01T15:42:01Z</time>
      </trkpt>
      <trkpt lat="44.54229" lon="4.5512">
        <ele>509.20001220703</ele>
        <time>2020-05-01T15:42:02Z</time>
      </trkpt>
      <trkpt lat="44.5423" lon="4.55127">
        <ele>508.60000610352</ele>
        <time>2020-05-01T15:42:03Z</time>
      </trkpt>
      <trkpt lat="44.54232" lon="4.55132">
        <ele>508.20001220703</ele>
        <time>2020-05-01T15:42:04Z</time>
      </trkpt>
      <trkpt lat="44.54234" lon="4.55137">
        <ele>508</ele>
        <time>2020-05-01T15:42:05Z</time>
      </trkpt>
      <trkpt lat="44.54236" lon="4.55142">
        <ele>507.79998779297</ele>
        <time>2020-05-01T15:42:06Z</time>
      </trkpt>
      <trkpt lat="44.54238" lon="4.55146">
        <ele>507.60000610352</ele>
        <time>2020-05-01T15:42:07Z</time>
      </trkpt>
      <trkpt lat="44.5424" lon="4.55151">
        <ele>507.60000610352</ele>
        <time>2020-05-01T15:42:08Z</time>
      </trkpt>
      <trkpt lat="44.54242" lon="4.55155">
        <ele>507.79998779297</ele>
        <time>2020-05-01T15:42:09Z</time>
      </trkpt>
      <trkpt lat="44.54245" lon="4.55159">
        <ele>507.60000610352</ele>
        <time>2020-05-01T15:42:10Z</time>
      </trkpt>
      <trkpt lat="44.54248" lon="4.55162">
        <ele>507.60000610352</ele>
        <time>2020-05-01T15:42:11Z</time>
      </trkpt>
      <trkpt lat="44.5425" lon="4.55166">
        <ele>507.60000610352</ele>
        <time>2020-05-01T15:42:12Z</time>
      </trkpt>
      <trkpt lat="44.54253" lon="4.5517">
        <ele>507.39999389648</ele>
        <time>2020-05-01T15:42:13Z</time>
      </trkpt>
      <trkpt lat="44.54255" lon="4.55174">
        <ele>507.60000610352</ele>
        <time>2020-05-01T15:42:14Z</time>
      </trkpt>
      <trkpt lat="44.54257" lon="4.55179">
        <ele>507.60000610352</ele>
        <time>2020-05-01T15:42:15Z</time>
      </trkpt>
      <trkpt lat="44.54259" lon="4.55183">
        <ele>507.20001220703</ele>
        <time>2020-05-01T15:42:16Z</time>
      </trkpt>
      <trkpt lat="44.5426" lon="4.55188">
        <ele>507.39999389648</ele>
        <time>2020-05-01T15:42:17Z</time>
      </trkpt>
      <trkpt lat="44.54262" lon="4.55193">
        <ele>507.39999389648</ele>
        <time>2020-05-01T15:42:18Z</time>
      </trkpt>
      <trkpt lat="44.54268" lon="4.55206">
        <ele>507.39999389648</ele>
        <time>2020-05-01T15:42:21Z</time>
      </trkpt>
      <trkpt lat="44.54269" lon="4.5521">
        <ele>507.39999389648</ele>
        <time>2020-05-01T15:42:22Z</time>
      </trkpt>
      <trkpt lat="44.5427" lon="4.55215">
        <ele>507.60000610352</ele>
        <time>2020-05-01T15:42:23Z</time>
      </trkpt>
      <trkpt lat="44.54272" lon="4.55219">
        <ele>507.39999389648</ele>
        <time>2020-05-01T15:42:24Z</time>
      </trkpt>
      <trkpt lat="44.54273" lon="4.55223">
        <ele>507.39999389648</ele>
        <time>2020-05-01T15:42:25Z</time>
      </trkpt>
      <trkpt lat="44.54275" lon="4.55227">
        <ele>507.60000610352</ele>
        <time>2020-05-01T15:42:26Z</time>
      </trkpt>
      <trkpt lat="44.54276" lon="4.55232">
        <ele>507.60000610352</ele>
        <time>2020-05-01T15:42:27Z</time>
      </trkpt>
      <trkpt lat="44.54278" lon="4.55236">
        <ele>507.60000610352</ele>
        <time>2020-05-01T15:42:28Z</time>
      </trkpt>
      <trkpt lat="44.54279" lon="4.55241">
        <ele>507.60000610352</ele>
        <time>2020-05-01T15:42:29Z</time>
      </trkpt>
      <trkpt lat="44.5428" lon="4.55245">
        <ele>507.60000610352</ele>
        <time>2020-05-01T15:42:30Z</time>
      </trkpt>
      <trkpt lat="44.54281" lon="4.55249">
        <ele>507.60000610352</ele>
        <time>2020-05-01T15:42:31Z</time>
      </trkpt>
      <trkpt lat="44.54282" lon="4.55254">
        <ele>508</ele>
        <time>2020-05-01T15:42:32Z</time>
      </trkpt>
      <trkpt lat="44.54283" lon="4.55258">
        <ele>508</ele>
        <time>2020-05-01T15:42:33Z</time>
      </trkpt>
      <trkpt lat="44.54283" lon="4.55262">
        <ele>508</ele>
        <time>2020-05-01T15:42:34Z</time>
      </trkpt>
      <trkpt lat="44.54284" lon="4.55266">
        <ele>508.20001220703</ele>
        <time>2020-05-01T15:42:35Z</time>
      </trkpt>
      <trkpt lat="44.54285" lon="4.5527">
        <ele>508.60000610352</ele>
        <time>2020-05-01T15:42:36Z</time>
      </trkpt>
      <trkpt lat="44.54286" lon="4.55275">
        <ele>508.79998779297</ele>
        <time>2020-05-01T15:42:37Z</time>
      </trkpt>
      <trkpt lat="44.54287" lon="4.55279">
        <ele>508.60000610352</ele>
        <time>2020-05-01T15:42:38Z</time>
      </trkpt>
      <trkpt lat="44.54289" lon="4.55283">
        <ele>509</ele>
        <time>2020-05-01T15:42:39Z</time>
      </trkpt>
      <trkpt lat="44.5429" lon="4.55287">
        <ele>509.20001220703</ele>
        <time>2020-05-01T15:42:40Z</time>
      </trkpt>
      <trkpt lat="44.54291" lon="4.55291">
        <ele>509.39999389648</ele>
        <time>2020-05-01T15:42:41Z</time>
      </trkpt>
      <trkpt lat="44.54292" lon="4.55296">
        <ele>509.60000610352</ele>
        <time>2020-05-01T15:42:42Z</time>
      </trkpt>
      <trkpt lat="44.54293" lon="4.553">
        <ele>509.79998779297</ele>
        <time>2020-05-01T15:42:43Z</time>
      </trkpt>
      <trkpt lat="44.54294" lon="4.55304">
        <ele>510</ele>
        <time>2020-05-01T15:42:44Z</time>
      </trkpt>
      <trkpt lat="44.54295" lon="4.55308">
        <ele>510.39999389648</ele>
        <time>2020-05-01T15:42:45Z</time>
      </trkpt>
      <trkpt lat="44.54296" lon="4.55312">
        <ele>510.39999389648</ele>
        <time>2020-05-01T15:42:46Z</time>
      </trkpt>
      <trkpt lat="44.54297" lon="4.55316">
        <ele>510.79998779297</ele>
        <time>2020-05-01T15:42:47Z</time>
      </trkpt>
      <trkpt lat="44.54298" lon="4.5532">
        <ele>511.20001220703</ele>
        <time>2020-05-01T15:42:48Z</time>
      </trkpt>
      <trkpt lat="44.54299" lon="4.55324">
        <ele>511.39999389648</ele>
        <time>2020-05-01T15:42:49Z</time>
      </trkpt>
      <trkpt lat="44.54301" lon="4.55328">
        <ele>512</ele>
        <time>2020-05-01T15:42:50Z</time>
      </trkpt>
      <trkpt lat="44.54301" lon="4.55331">
        <ele>512.20001220703</ele>
        <time>2020-05-01T15:42:51Z</time>
      </trkpt>
      <trkpt lat="44.54302" lon="4.55335">
        <ele>512.59997558594</ele>
        <time>2020-05-01T15:42:52Z</time>
      </trkpt>
      <trkpt lat="44.54303" lon="4.55338">
        <ele>512.79998779297</ele>
        <time>2020-05-01T15:42:53Z</time>
      </trkpt>
      <trkpt lat="44.54304" lon="4.55341">
        <ele>513.20001220703</ele>
        <time>2020-05-01T15:42:54Z</time>
      </trkpt>
      <trkpt lat="44.54305" lon="4.55345">
        <ele>513.20001220703</ele>
        <time>2020-05-01T15:42:55Z</time>
      </trkpt>
      <trkpt lat="44.54306" lon="4.55348">
        <ele>513.40002441406</ele>
        <time>2020-05-01T15:42:56Z</time>
      </trkpt>
      <trkpt lat="44.54306" lon="4.55351">
        <ele>514</ele>
        <time>2020-05-01T15:42:57Z</time>
      </trkpt>
      <trkpt lat="44.54307" lon="4.55355">
        <ele>514.20001220703</ele>
        <time>2020-05-01T15:42:58Z</time>
      </trkpt>
      <trkpt lat="44.54308" lon="4.55358">
        <ele>514.20001220703</ele>
        <time>2020-05-01T15:42:59Z</time>
      </trkpt>
      <trkpt lat="44.54308" lon="4.55361">
        <ele>514.59997558594</ele>
        <time>2020-05-01T15:43:00Z</time>
      </trkpt>
      <trkpt lat="44.5431" lon="4.55364">
        <ele>514.79998779297</ele>
        <time>2020-05-01T15:43:01Z</time>
      </trkpt>
      <trkpt lat="44.54311" lon="4.55368">
        <ele>515</ele>
        <time>2020-05-01T15:43:02Z</time>
      </trkpt>
      <trkpt lat="44.54312" lon="4.55371">
        <ele>515.20001220703</ele>
        <time>2020-05-01T15:43:03Z</time>
      </trkpt>
      <trkpt lat="44.54313" lon="4.55375">
        <ele>515.59997558594</ele>
        <time>2020-05-01T15:43:04Z</time>
      </trkpt>
      <trkpt lat="44.54314" lon="4.55379">
        <ele>516</ele>
        <time>2020-05-01T15:43:05Z</time>
      </trkpt>
      <trkpt lat="44.54315" lon="4.55383">
        <ele>516.40002441406</ele>
        <time>2020-05-01T15:43:06Z</time>
      </trkpt>
      <trkpt lat="44.54317" lon="4.55386">
        <ele>516.59997558594</ele>
        <time>2020-05-01T15:43:07Z</time>
      </trkpt>
      <trkpt lat="44.54319" lon="4.5539">
        <ele>517</ele>
        <time>2020-05-01T15:43:08Z</time>
      </trkpt>
      <trkpt lat="44.54321" lon="4.55394">
        <ele>517.40002441406</ele>
        <time>2020-05-01T15:43:09Z</time>
      </trkpt>
      <trkpt lat="44.54323" lon="4.55397">
        <ele>517.59997558594</ele>
        <time>2020-05-01T15:43:10Z</time>
      </trkpt>
      <trkpt lat="44.54325" lon="4.554">
        <ele>517.79998779297</ele>
        <time>2020-05-01T15:43:11Z</time>
      </trkpt>
      <trkpt lat="44.54327" lon="4.55402">
        <ele>518.20001220703</ele>
        <time>2020-05-01T15:43:12Z</time>
      </trkpt>
      <trkpt lat="44.5433" lon="4.55404">
        <ele>518.20001220703</ele>
        <time>2020-05-01T15:43:13Z</time>
      </trkpt>
      <trkpt lat="44.54332" lon="4.55407">
        <ele>518.40002441406</ele>
        <time>2020-05-01T15:43:14Z</time>
      </trkpt>
      <trkpt lat="44.54334" lon="4.55409">
        <ele>518.59997558594</ele>
        <time>2020-05-01T15:43:15Z</time>
      </trkpt>
      <trkpt lat="44.54336" lon="4.55411">
        <ele>518.59997558594</ele>
        <time>2020-05-01T15:43:16Z</time>
      </trkpt>
      <trkpt lat="44.54339" lon="4.55412">
        <ele>518.79998779297</ele>
        <time>2020-05-01T15:43:17Z</time>
      </trkpt>
      <trkpt lat="44.54341" lon="4.55415">
        <ele>519</ele>
        <time>2020-05-01T15:43:18Z</time>
      </trkpt>
      <trkpt lat="44.54342" lon="4.55418">
        <ele>519</ele>
        <time>2020-05-01T15:43:19Z</time>
      </trkpt>
      <trkpt lat="44.54344" lon="4.55422">
        <ele>519.40002441406</ele>
        <time>2020-05-01T15:43:20Z</time>
      </trkpt>
      <trkpt lat="44.54345" lon="4.55425">
        <ele>519.79998779297</ele>
        <time>2020-05-01T15:43:21Z</time>
      </trkpt>
      <trkpt lat="44.54346" lon="4.55428">
        <ele>519.79998779297</ele>
        <time>2020-05-01T15:43:22Z</time>
      </trkpt>
      <trkpt lat="44.54347" lon="4.55431">
        <ele>520.20001220703</ele>
        <time>2020-05-01T15:43:23Z</time>
      </trkpt>
      <trkpt lat="44.54349" lon="4.55434">
        <ele>520.40002441406</ele>
        <time>2020-05-01T15:43:24Z</time>
      </trkpt>
      <trkpt lat="44.5435" lon="4.55435">
        <ele>520.79998779297</ele>
        <time>2020-05-01T15:43:25Z</time>
      </trkpt>
      <trkpt lat="44.54351" lon="4.55436">
        <ele>521</ele>
        <time>2020-05-01T15:43:26Z</time>
      </trkpt>
      <trkpt lat="44.54353" lon="4.55437">
        <ele>521.20001220703</ele>
        <time>2020-05-01T15:43:27Z</time>
      </trkpt>
      <trkpt lat="44.54354" lon="4.55438">
        <ele>521.40002441406</ele>
        <time>2020-05-01T15:43:28Z</time>
      </trkpt>
      <trkpt lat="44.54355" lon="4.55438">
        <ele>521.79998779297</ele>
        <time>2020-05-01T15:43:29Z</time>
      </trkpt>
      <trkpt lat="44.54356" lon="4.55439">
        <ele>522.20001220703</ele>
        <time>2020-05-01T15:43:30Z</time>
      </trkpt>
      <trkpt lat="44.54357" lon="4.55439">
        <ele>522.40002441406</ele>
        <time>2020-05-01T15:43:31Z</time>
      </trkpt>
      <trkpt lat="44.54357" lon="4.55441">
        <ele>523.40002441406</ele>
        <time>2020-05-01T15:43:35Z</time>
      </trkpt>
      <trkpt lat="44.54357" lon="4.55441">
        <ele>524.40002441406</ele>
        <time>2020-05-01T15:43:43Z</time>
      </trkpt>
      <trkpt lat="44.54357" lon="4.55441">
        <ele>524.40002441406</ele>
        <time>2020-05-01T15:43:56Z</time>
      </trkpt>
      <trkpt lat="44.54358" lon="4.55441">
        <ele>524.40002441406</ele>
        <time>2020-05-01T15:44:01Z</time>
      </trkpt>
      <trkpt lat="44.54359" lon="4.55442">
        <ele>524.40002441406</ele>
        <time>2020-05-01T15:44:02Z</time>
      </trkpt>
      <trkpt lat="44.5436" lon="4.55442">
        <ele>524.40002441406</ele>
        <time>2020-05-01T15:44:03Z</time>
      </trkpt>
      <trkpt lat="44.54362" lon="4.55441">
        <ele>524.20001220703</ele>
        <time>2020-05-01T15:44:04Z</time>
      </trkpt>
      <trkpt lat="44.54363" lon="4.5544">
        <ele>524.20001220703</ele>
        <time>2020-05-01T15:44:05Z</time>
      </trkpt>
      <trkpt lat="44.54365" lon="4.55438">
        <ele>524.40002441406</ele>
        <time>2020-05-01T15:44:06Z</time>
      </trkpt>
      <trkpt lat="44.54369" lon="4.55434">
        <ele>524.40002441406</ele>
        <time>2020-05-01T15:44:08Z</time>
      </trkpt>
      <trkpt lat="44.54371" lon="4.55432">
        <ele>524.40002441406</ele>
        <time>2020-05-01T15:44:09Z</time>
      </trkpt>
      <trkpt lat="44.54373" lon="4.55431">
        <ele>524.40002441406</ele>
        <time>2020-05-01T15:44:10Z</time>
      </trkpt>
      <trkpt lat="44.54374" lon="4.5543">
        <ele>524.40002441406</ele>
        <time>2020-05-01T15:44:11Z</time>
      </trkpt>
      <trkpt lat="44.54376" lon="4.5543">
        <ele>524.40002441406</ele>
        <time>2020-05-01T15:44:12Z</time>
      </trkpt>
      <trkpt lat="44.54379" lon="4.55428">
        <ele>524.59997558594</ele>
        <time>2020-05-01T15:44:14Z</time>
      </trkpt>
      <trkpt lat="44.54385" lon="4.55426">
        <ele>524.79998779297</ele>
        <time>2020-05-01T15:44:17Z</time>
      </trkpt>
      <trkpt lat="44.54387" lon="4.55425">
        <ele>524.79998779297</ele>
        <time>2020-05-01T15:44:18Z</time>
      </trkpt>
      <trkpt lat="44.54389" lon="4.55423">
        <ele>524.79998779297</ele>
        <time>2020-05-01T15:44:19Z</time>
      </trkpt>
      <trkpt lat="44.54392" lon="4.55421">
        <ele>524.79998779297</ele>
        <time>2020-05-01T15:44:20Z</time>
      </trkpt>
      <trkpt lat="44.54394" lon="4.5542">
        <ele>524.79998779297</ele>
        <time>2020-05-01T15:44:21Z</time>
      </trkpt>
      <trkpt lat="44.54397" lon="4.55419">
        <ele>524.79998779297</ele>
        <time>2020-05-01T15:44:22Z</time>
      </trkpt>
      <trkpt lat="44.54399" lon="4.55417">
        <ele>524.79998779297</ele>
        <time>2020-05-01T15:44:23Z</time>
      </trkpt>
      <trkpt lat="44.544" lon="4.55415">
        <ele>524.79998779297</ele>
        <time>2020-05-01T15:44:24Z</time>
      </trkpt>
      <trkpt lat="44.54403" lon="4.55413">
        <ele>524.79998779297</ele>
        <time>2020-05-01T15:44:25Z</time>
      </trkpt>
      <trkpt lat="44.54405" lon="4.55411">
        <ele>524.79998779297</ele>
        <time>2020-05-01T15:44:26Z</time>
      </trkpt>
      <trkpt lat="44.54411" lon="4.55408">
        <ele>524.59997558594</ele>
        <time>2020-05-01T15:44:28Z</time>
      </trkpt>
      <trkpt lat="44.54418" lon="4.55404">
        <ele>524.40002441406</ele>
        <time>2020-05-01T15:44:30Z</time>
      </trkpt>
      <trkpt lat="44.54421" lon="4.55403">
        <ele>524.40002441406</ele>
        <time>2020-05-01T15:44:31Z</time>
      </trkpt>
      <trkpt lat="44.54425" lon="4.55401">
        <ele>524</ele>
        <time>2020-05-01T15:44:32Z</time>
      </trkpt>
      <trkpt lat="44.54437" lon="4.55396">
        <ele>523.40002441406</ele>
        <time>2020-05-01T15:44:35Z</time>
      </trkpt>
      <trkpt lat="44.54441" lon="4.55395">
        <ele>523.40002441406</ele>
        <time>2020-05-01T15:44:36Z</time>
      </trkpt>
      <trkpt lat="44.54444" lon="4.55394">
        <ele>523.40002441406</ele>
        <time>2020-05-01T15:44:37Z</time>
      </trkpt>
      <trkpt lat="44.54448" lon="4.55392">
        <ele>523.20001220703</ele>
        <time>2020-05-01T15:44:38Z</time>
      </trkpt>
      <trkpt lat="44.54451" lon="4.5539">
        <ele>523.20001220703</ele>
        <time>2020-05-01T15:44:39Z</time>
      </trkpt>
      <trkpt lat="44.54454" lon="4.55388">
        <ele>523</ele>
        <time>2020-05-01T15:44:40Z</time>
      </trkpt>
      <trkpt lat="44.54458" lon="4.55386">
        <ele>523</ele>
        <time>2020-05-01T15:44:41Z</time>
      </trkpt>
      <trkpt lat="44.54462" lon="4.55385">
        <ele>523</ele>
        <time>2020-05-01T15:44:42Z</time>
      </trkpt>
      <trkpt lat="44.54466" lon="4.55384">
        <ele>523</ele>
        <time>2020-05-01T15:44:43Z</time>
      </trkpt>
      <trkpt lat="44.5447" lon="4.55383">
        <ele>523</ele>
        <time>2020-05-01T15:44:44Z</time>
      </trkpt>
      <trkpt lat="44.54474" lon="4.55383">
        <ele>522.79998779297</ele>
        <time>2020-05-01T15:44:45Z</time>
      </trkpt>
      <trkpt lat="44.54478" lon="4.55383">
        <ele>522.59997558594</ele>
        <time>2020-05-01T15:44:46Z</time>
      </trkpt>
      <trkpt lat="44.54483" lon="4.55384">
        <ele>522.59997558594</ele>
        <time>2020-05-01T15:44:47Z</time>
      </trkpt>
      <trkpt lat="44.54488" lon="4.55386">
        <ele>522.59997558594</ele>
        <time>2020-05-01T15:44:48Z</time>
      </trkpt>
      <trkpt lat="44.54492" lon="4.55388">
        <ele>522.20001220703</ele>
        <time>2020-05-01T15:44:49Z</time>
      </trkpt>
      <trkpt lat="44.54496" lon="4.55389">
        <ele>522.20001220703</ele>
        <time>2020-05-01T15:44:50Z</time>
      </trkpt>
      <trkpt lat="44.545" lon="4.55391">
        <ele>522</ele>
        <time>2020-05-01T15:44:51Z</time>
      </trkpt>
      <trkpt lat="44.54504" lon="4.55392">
        <ele>521.79998779297</ele>
        <time>2020-05-01T15:44:52Z</time>
      </trkpt>
      <trkpt lat="44.54508" lon="4.55394">
        <ele>521.59997558594</ele>
        <time>2020-05-01T15:44:53Z</time>
      </trkpt>
      <trkpt lat="44.54516" lon="4.55397">
        <ele>521.20001220703</ele>
        <time>2020-05-01T15:44:55Z</time>
      </trkpt>
      <trkpt lat="44.54519" lon="4.55399">
        <ele>520.59997558594</ele>
        <time>2020-05-01T15:44:56Z</time>
      </trkpt>
      <trkpt lat="44.54523" lon="4.554">
        <ele>520.40002441406</ele>
        <time>2020-05-01T15:44:57Z</time>
      </trkpt>
      <trkpt lat="44.54526" lon="4.554">
        <ele>520.20001220703</ele>
        <time>2020-05-01T15:44:58Z</time>
      </trkpt>
      <trkpt lat="44.54528" lon="4.55401">
        <ele>520.20001220703</ele>
        <time>2020-05-01T15:44:59Z</time>
      </trkpt>
      <trkpt lat="44.54531" lon="4.55402">
        <ele>519.79998779297</ele>
        <time>2020-05-01T15:45:00Z</time>
      </trkpt>
      <trkpt lat="44.54533" lon="4.55404">
        <ele>519.79998779297</ele>
        <time>2020-05-01T15:45:01Z</time>
      </trkpt>
      <trkpt lat="44.54536" lon="4.55406">
        <ele>519.59997558594</ele>
        <time>2020-05-01T15:45:02Z</time>
      </trkpt>
      <trkpt lat="44.54539" lon="4.55409">
        <ele>519.59997558594</ele>
        <time>2020-05-01T15:45:03Z</time>
      </trkpt>
      <trkpt lat="44.5455" lon="4.55416">
        <ele>518.59997558594</ele>
        <time>2020-05-01T15:45:06Z</time>
      </trkpt>
      <trkpt lat="44.54555" lon="4.55417">
        <ele>518.20001220703</ele>
        <time>2020-05-01T15:45:07Z</time>
      </trkpt>
      <trkpt lat="44.54565" lon="4.5542">
        <ele>517.79998779297</ele>
        <time>2020-05-01T15:45:09Z</time>
      </trkpt>
      <trkpt lat="44.54575" lon="4.55423">
        <ele>517.40002441406</ele>
        <time>2020-05-01T15:45:11Z</time>
      </trkpt>
      <trkpt lat="44.5458" lon="4.55425">
        <ele>517.40002441406</ele>
        <time>2020-05-01T15:45:12Z</time>
      </trkpt>
      <trkpt lat="44.54585" lon="4.55425">
        <ele>516.79998779297</ele>
        <time>2020-05-01T15:45:13Z</time>
      </trkpt>
      <trkpt lat="44.54589" lon="4.55426">
        <ele>516.79998779297</ele>
        <time>2020-05-01T15:45:14Z</time>
      </trkpt>
      <trkpt lat="44.54593" lon="4.55428">
        <ele>516.20001220703</ele>
        <time>2020-05-01T15:45:15Z</time>
      </trkpt>
      <trkpt lat="44.54597" lon="4.5543">
        <ele>515.59997558594</ele>
        <time>2020-05-01T15:45:16Z</time>
      </trkpt>
      <trkpt lat="44.54602" lon="4.55431">
        <ele>515.40002441406</ele>
        <time>2020-05-01T15:45:17Z</time>
      </trkpt>
      <trkpt lat="44.54606" lon="4.55432">
        <ele>515</ele>
        <time>2020-05-01T15:45:18Z</time>
      </trkpt>
      <trkpt lat="44.54611" lon="4.55432">
        <ele>514.79998779297</ele>
        <time>2020-05-01T15:45:19Z</time>
      </trkpt>
      <trkpt lat="44.54615" lon="4.55433">
        <ele>514.20001220703</ele>
        <time>2020-05-01T15:45:20Z</time>
      </trkpt>
      <trkpt lat="44.54618" lon="4.55434">
        <ele>514.20001220703</ele>
        <time>2020-05-01T15:45:21Z</time>
      </trkpt>
      <trkpt lat="44.54621" lon="4.55436">
        <ele>514</ele>
        <time>2020-05-01T15:45:22Z</time>
      </trkpt>
      <trkpt lat="44.54625" lon="4.55438">
        <ele>513.79998779297</ele>
        <time>2020-05-01T15:45:23Z</time>
      </trkpt>
      <trkpt lat="44.54628" lon="4.55441">
        <ele>513.79998779297</ele>
        <time>2020-05-01T15:45:24Z</time>
      </trkpt>
      <trkpt lat="44.54631" lon="4.55443">
        <ele>513.79998779297</ele>
        <time>2020-05-01T15:45:25Z</time>
      </trkpt>
      <trkpt lat="44.54634" lon="4.55446">
        <ele>513.20001220703</ele>
        <time>2020-05-01T15:45:26Z</time>
      </trkpt>
      <trkpt lat="44.54637" lon="4.55449">
        <ele>512.59997558594</ele>
        <time>2020-05-01T15:45:27Z</time>
      </trkpt>
      <trkpt lat="44.54639" lon="4.55451">
        <ele>512.40002441406</ele>
        <time>2020-05-01T15:45:28Z</time>
      </trkpt>
      <trkpt lat="44.54642" lon="4.55453">
        <ele>512.20001220703</ele>
        <time>2020-05-01T15:45:29Z</time>
      </trkpt>
      <trkpt lat="44.54648" lon="4.55457">
        <ele>511.60000610352</ele>
        <time>2020-05-01T15:45:31Z</time>
      </trkpt>
      <trkpt lat="44.54651" lon="4.55457">
        <ele>511.20001220703</ele>
        <time>2020-05-01T15:45:32Z</time>
      </trkpt>
      <trkpt lat="44.54653" lon="4.55459">
        <ele>510.79998779297</ele>
        <time>2020-05-01T15:45:33Z</time>
      </trkpt>
      <trkpt lat="44.54655" lon="4.5546">
        <ele>510.39999389648</ele>
        <time>2020-05-01T15:45:34Z</time>
      </trkpt>
      <trkpt lat="44.54657" lon="4.55463">
        <ele>509.79998779297</ele>
        <time>2020-05-01T15:45:35Z</time>
      </trkpt>
      <trkpt lat="44.54659" lon="4.55465">
        <ele>508.79998779297</ele>
        <time>2020-05-01T15:45:36Z</time>
      </trkpt>
      <trkpt lat="44.54661" lon="4.55467">
        <ele>507.79998779297</ele>
        <time>2020-05-01T15:45:37Z</time>
      </trkpt>
      <trkpt lat="44.54662" lon="4.5547">
        <ele>506.60000610352</ele>
        <time>2020-05-01T15:45:38Z</time>
      </trkpt>
      <trkpt lat="44.54664" lon="4.55472">
        <ele>505.60000610352</ele>
        <time>2020-05-01T15:45:39Z</time>
      </trkpt>
      <trkpt lat="44.54666" lon="4.55474">
        <ele>505.20001220703</ele>
        <time>2020-05-01T15:45:40Z</time>
      </trkpt>
      <trkpt lat="44.54668" lon="4.55474">
        <ele>504.39999389648</ele>
        <time>2020-05-01T15:45:41Z</time>
      </trkpt>
      <trkpt lat="44.5467" lon="4.55475">
        <ele>503.60000610352</ele>
        <time>2020-05-01T15:45:42Z</time>
      </trkpt>
      <trkpt lat="44.54672" lon="4.55477">
        <ele>503.20001220703</ele>
        <time>2020-05-01T15:45:43Z</time>
      </trkpt>
      <trkpt lat="44.54673" lon="4.55479">
        <ele>502.39999389648</ele>
        <time>2020-05-01T15:45:44Z</time>
      </trkpt>
      <trkpt lat="44.54675" lon="4.55481">
        <ele>502.39999389648</ele>
        <time>2020-05-01T15:45:45Z</time>
      </trkpt>
      <trkpt lat="44.54678" lon="4.55484">
        <ele>501.79998779297</ele>
        <time>2020-05-01T15:45:46Z</time>
      </trkpt>
      <trkpt lat="44.54681" lon="4.55486">
        <ele>501</ele>
        <time>2020-05-01T15:45:47Z</time>
      </trkpt>
      <trkpt lat="44.54683" lon="4.55488">
        <ele>500.39999389648</ele>
        <time>2020-05-01T15:45:48Z</time>
      </trkpt>
      <trkpt lat="44.54686" lon="4.5549">
        <ele>499.79998779297</ele>
        <time>2020-05-01T15:45:49Z</time>
      </trkpt>
      <trkpt lat="44.54692" lon="4.55494">
        <ele>498.79998779297</ele>
        <time>2020-05-01T15:45:51Z</time>
      </trkpt>
      <trkpt lat="44.54695" lon="4.55496">
        <ele>498.39999389648</ele>
        <time>2020-05-01T15:45:52Z</time>
      </trkpt>
      <trkpt lat="44.54698" lon="4.555">
        <ele>498</ele>
        <time>2020-05-01T15:45:53Z</time>
      </trkpt>
      <trkpt lat="44.54701" lon="4.55504">
        <ele>497.60000610352</ele>
        <time>2020-05-01T15:45:54Z</time>
      </trkpt>
      <trkpt lat="44.54708" lon="4.55512">
        <ele>496.20001220703</ele>
        <time>2020-05-01T15:45:56Z</time>
      </trkpt>
      <trkpt lat="44.5471" lon="4.55515">
        <ele>495.60000610352</ele>
        <time>2020-05-01T15:45:57Z</time>
      </trkpt>
      <trkpt lat="44.54712" lon="4.55518">
        <ele>494.60000610352</ele>
        <time>2020-05-01T15:45:58Z</time>
      </trkpt>
      <trkpt lat="44.54714" lon="4.55519">
        <ele>494</ele>
        <time>2020-05-01T15:45:59Z</time>
      </trkpt>
      <trkpt lat="44.54717" lon="4.55523">
        <ele>492.60000610352</ele>
        <time>2020-05-01T15:46:01Z</time>
      </trkpt>
      <trkpt lat="44.54719" lon="4.55526">
        <ele>491.79998779297</ele>
        <time>2020-05-01T15:46:02Z</time>
      </trkpt>
      <trkpt lat="44.54719" lon="4.55528">
        <ele>491.20001220703</ele>
        <time>2020-05-01T15:46:03Z</time>
      </trkpt>
      <trkpt lat="44.54719" lon="4.5553">
        <ele>489.39999389648</ele>
        <time>2020-05-01T15:46:07Z</time>
      </trkpt>
      <trkpt lat="44.54719" lon="4.5553">
        <ele>486.60000610352</ele>
        <time>2020-05-01T15:46:20Z</time>
      </trkpt>
      <trkpt lat="44.54719" lon="4.5553">
        <ele>486.79998779297</ele>
        <time>2020-05-01T15:46:29Z</time>
      </trkpt>
      <trkpt lat="44.54719" lon="4.5553">
        <ele>486.79998779297</ele>
        <time>2020-05-01T15:46:49Z</time>
      </trkpt>
      <trkpt lat="44.54719" lon="4.5553">
        <ele>486.79998779297</ele>
        <time>2020-05-01T15:47:00Z</time>
      </trkpt>
      <trkpt lat="44.54719" lon="4.5553">
        <ele>486.79998779297</ele>
        <time>2020-05-01T15:47:14Z</time>
      </trkpt>
      <trkpt lat="44.54719" lon="4.5553">
        <ele>486.60000610352</ele>
        <time>2020-05-01T15:47:33Z</time>
      </trkpt>
      <trkpt lat="44.54719" lon="4.5553">
        <ele>486.39999389648</ele>
        <time>2020-05-01T15:48:14Z</time>
      </trkpt>
      <trkpt lat="44.54719" lon="4.5553">
        <ele>486.20001220703</ele>
        <time>2020-05-01T15:48:49Z</time>
      </trkpt>
      <trkpt lat="44.54718" lon="4.55529">
        <ele>486</ele>
        <time>2020-05-01T15:49:01Z</time>
      </trkpt>
      <trkpt lat="44.54717" lon="4.5553">
        <ele>486</ele>
        <time>2020-05-01T15:49:02Z</time>
      </trkpt>
      <trkpt lat="44.54712" lon="4.55532">
        <ele>486.20001220703</ele>
        <time>2020-05-01T15:49:04Z</time>
      </trkpt>
      <trkpt lat="44.54709" lon="4.55532">
        <ele>486.20001220703</ele>
        <time>2020-05-01T15:49:05Z</time>
      </trkpt>
      <trkpt lat="44.54706" lon="4.55532">
        <ele>486</ele>
        <time>2020-05-01T15:49:06Z</time>
      </trkpt>
      <trkpt lat="44.54698" lon="4.55532">
        <ele>486</ele>
        <time>2020-05-01T15:49:08Z</time>
      </trkpt>
      <trkpt lat="44.54694" lon="4.55531">
        <ele>485.79998779297</ele>
        <time>2020-05-01T15:49:09Z</time>
      </trkpt>
      <trkpt lat="44.54689" lon="4.5553">
        <ele>485.79998779297</ele>
        <time>2020-05-01T15:49:10Z</time>
      </trkpt>
      <trkpt lat="44.54685" lon="4.55529">
        <ele>485.79998779297</ele>
        <time>2020-05-01T15:49:11Z</time>
      </trkpt>
      <trkpt lat="44.54675" lon="4.55527">
        <ele>485.20001220703</ele>
        <time>2020-05-01T15:49:13Z</time>
      </trkpt>
      <trkpt lat="44.54664" lon="4.55526">
        <ele>484.60000610352</ele>
        <time>2020-05-01T15:49:15Z</time>
      </trkpt>
      <trkpt lat="44.54668" lon="4.55526">
        <ele>470.39999389648</ele>
        <time>2021-10-10T08:40:33Z</time>
      </trkpt>
      <trkpt lat="44.54671" lon="4.5553">
        <ele>469</ele>
        <time>2021-10-10T08:40:35Z</time>
      </trkpt>
      <trkpt lat="44.54673" lon="4.55532">
        <ele>468</ele>
        <time>2021-10-10T08:40:36Z</time>
      </trkpt>
      <trkpt lat="44.54675" lon="4.55534">
        <ele>467.39999389648</ele>
        <time>2021-10-10T08:40:37Z</time>
      </trkpt>
      <trkpt lat="44.54677" lon="4.55537">
        <ele>466.79998779297</ele>
        <time>2021-10-10T08:40:38Z</time>
      </trkpt>
      <trkpt lat="44.5468" lon="4.5554">
        <ele>466</ele>
        <time>2021-10-10T08:40:39Z</time>
      </trkpt>
      <trkpt lat="44.54682" lon="4.55544">
        <ele>465.60000610352</ele>
        <time>2021-10-10T08:40:40Z</time>
      </trkpt>
      <trkpt lat="44.54687" lon="4.55551">
        <ele>465</ele>
        <time>2021-10-10T08:40:42Z</time>
      </trkpt>
      <trkpt lat="44.5469" lon="4.55555">
        <ele>464.79998779297</ele>
        <time>2021-10-10T08:40:43Z</time>
      </trkpt>
      <trkpt lat="44.54694" lon="4.55564">
        <ele>464.60000610352</ele>
        <time>2021-10-10T08:40:45Z</time>
      </trkpt>
      <trkpt lat="44.54696" lon="4.55569">
        <ele>464</ele>
        <time>2021-10-10T08:40:46Z</time>
      </trkpt>
      <trkpt lat="44.54698" lon="4.55575">
        <ele>463.39999389648</ele>
        <time>2021-10-10T08:40:47Z</time>
      </trkpt>
      <trkpt lat="44.54703" lon="4.55587">
        <ele>462.60000610352</ele>
        <time>2021-10-10T08:40:49Z</time>
      </trkpt>
      <trkpt lat="44.54707" lon="4.55601">
        <ele>461</ele>
        <time>2021-10-10T08:40:51Z</time>
      </trkpt>
      <trkpt lat="44.54709" lon="4.55608">
        <ele>460.39999389648</ele>
        <time>2021-10-10T08:40:52Z</time>
      </trkpt>
      <trkpt lat="44.5471" lon="4.55615">
        <ele>459.79998779297</ele>
        <time>2021-10-10T08:40:53Z</time>
      </trkpt>
      <trkpt lat="44.54712" lon="4.55623">
        <ele>458.79998779297</ele>
        <time>2021-10-10T08:40:54Z</time>
      </trkpt>
      <trkpt lat="44.54716" lon="4.55638">
        <ele>457.20001220703</ele>
        <time>2021-10-10T08:40:56Z</time>
      </trkpt>
      <trkpt lat="44.54718" lon="4.55645">
        <ele>456.79998779297</ele>
        <time>2021-10-10T08:40:57Z</time>
      </trkpt>
      <trkpt lat="44.54722" lon="4.55661">
        <ele>454.39999389648</ele>
        <time>2021-10-10T08:40:59Z</time>
      </trkpt>
      <trkpt lat="44.54726" lon="4.55677">
        <ele>452.60000610352</ele>
        <time>2021-10-10T08:41:01Z</time>
      </trkpt>
      <trkpt lat="44.54728" lon="4.55685">
        <ele>452</ele>
        <time>2021-10-10T08:41:02Z</time>
      </trkpt>
      <trkpt lat="44.5473" lon="4.55694">
        <ele>451</ele>
        <time>2021-10-10T08:41:03Z</time>
      </trkpt>
      <trkpt lat="44.54732" lon="4.55702">
        <ele>450.39999389648</ele>
        <time>2021-10-10T08:41:04Z</time>
      </trkpt>
      <trkpt lat="44.54735" lon="4.55718">
        <ele>449.60000610352</ele>
        <time>2021-10-10T08:41:06Z</time>
      </trkpt>
      <trkpt lat="44.54737" lon="4.55726">
        <ele>448.39999389648</ele>
        <time>2021-10-10T08:41:07Z</time>
      </trkpt>
      <trkpt lat="44.54738" lon="4.55733">
        <ele>447.60000610352</ele>
        <time>2021-10-10T08:41:08Z</time>
      </trkpt>
      <trkpt lat="44.54739" lon="4.55741">
        <ele>446.60000610352</ele>
        <time>2021-10-10T08:41:09Z</time>
      </trkpt>
      <trkpt lat="44.54741" lon="4.55748">
        <ele>446</ele>
        <time>2021-10-10T08:41:10Z</time>
      </trkpt>
      <trkpt lat="44.54742" lon="4.55755">
        <ele>445</ele>
        <time>2021-10-10T08:41:11Z</time>
      </trkpt>
      <trkpt lat="44.54743" lon="4.55762">
        <ele>443.60000610352</ele>
        <time>2021-10-10T08:41:12Z</time>
      </trkpt>
      <trkpt lat="44.54745" lon="4.55768">
        <ele>442.39999389648</ele>
        <time>2021-10-10T08:41:13Z</time>
      </trkpt>
      <trkpt lat="44.54751" lon="4.55781">
        <ele>441</ele>
        <time>2021-10-10T08:41:15Z</time>
      </trkpt>
      <trkpt lat="44.54754" lon="4.55787">
        <ele>440.60000610352</ele>
        <time>2021-10-10T08:41:16Z</time>
      </trkpt>
      <trkpt lat="44.54757" lon="4.55792">
        <ele>440</ele>
        <time>2021-10-10T08:41:17Z</time>
      </trkpt>
      <trkpt lat="44.5476" lon="4.55796">
        <ele>440</ele>
        <time>2021-10-10T08:41:18Z</time>
      </trkpt>
      <trkpt lat="44.54763" lon="4.55801">
        <ele>439.39999389648</ele>
        <time>2021-10-10T08:41:19Z</time>
      </trkpt>
      <trkpt lat="44.54766" lon="4.55805">
        <ele>438.60000610352</ele>
        <time>2021-10-10T08:41:20Z</time>
      </trkpt>
      <trkpt lat="44.54775" lon="4.55821">
        <ele>436.79998779297</ele>
        <time>2021-10-10T08:41:23Z</time>
      </trkpt>
      <trkpt lat="44.54778" lon="4.55826">
        <ele>435.79998779297</ele>
        <time>2021-10-10T08:41:24Z</time>
      </trkpt>
      <trkpt lat="44.5478" lon="4.55831">
        <ele>435.20001220703</ele>
        <time>2021-10-10T08:41:25Z</time>
      </trkpt>
      <trkpt lat="44.54783" lon="4.55836">
        <ele>434.60000610352</ele>
        <time>2021-10-10T08:41:26Z</time>
      </trkpt>
      <trkpt lat="44.54785" lon="4.55842">
        <ele>434.20001220703</ele>
        <time>2021-10-10T08:41:27Z</time>
      </trkpt>
      <trkpt lat="44.54789" lon="4.55854">
        <ele>433.79998779297</ele>
        <time>2021-10-10T08:41:29Z</time>
      </trkpt>
      <trkpt lat="44.54792" lon="4.5586">
        <ele>432.79998779297</ele>
        <time>2021-10-10T08:41:30Z</time>
      </trkpt>
      <trkpt lat="44.54798" lon="4.55878">
        <ele>431</ele>
        <time>2021-10-10T08:41:33Z</time>
      </trkpt>
      <trkpt lat="44.548" lon="4.55885">
        <ele>430.39999389648</ele>
        <time>2021-10-10T08:41:34Z</time>
      </trkpt>
      <trkpt lat="44.54803" lon="4.55899">
        <ele>429</ele>
        <time>2021-10-10T08:41:36Z</time>
      </trkpt>
      <trkpt lat="44.54804" lon="4.55906">
        <ele>428</ele>
        <time>2021-10-10T08:41:37Z</time>
      </trkpt>
      <trkpt lat="44.54806" lon="4.55912">
        <ele>427.20001220703</ele>
        <time>2021-10-10T08:41:38Z</time>
      </trkpt>
      <trkpt lat="44.54807" lon="4.55918">
        <ele>426.60000610352</ele>
        <time>2021-10-10T08:41:39Z</time>
      </trkpt>
      <trkpt lat="44.54809" lon="4.55922">
        <ele>426</ele>
        <time>2021-10-10T08:41:40Z</time>
      </trkpt>
      <trkpt lat="44.5481" lon="4.55926">
        <ele>425.39999389648</ele>
        <time>2021-10-10T08:41:41Z</time>
      </trkpt>
      <trkpt lat="44.54811" lon="4.5593">
        <ele>424.39999389648</ele>
        <time>2021-10-10T08:41:42Z</time>
      </trkpt>
      <trkpt lat="44.54812" lon="4.55934">
        <ele>423.20001220703</ele>
        <time>2021-10-10T08:41:43Z</time>
      </trkpt>
      <trkpt lat="44.54812" lon="4.55936">
        <ele>422.79998779297</ele>
        <time>2021-10-10T08:41:44Z</time>
      </trkpt>
      <trkpt lat="44.54813" lon="4.55939">
        <ele>422</ele>
        <time>2021-10-10T08:41:45Z</time>
      </trkpt>
      <trkpt lat="44.54813" lon="4.55941">
        <ele>420.20001220703</ele>
        <time>2021-10-10T08:41:47Z</time>
      </trkpt>
      <trkpt lat="44.54813" lon="4.55941">
        <ele>419.39999389648</ele>
        <time>2021-10-10T08:41:48Z</time>
      </trkpt>
      <trkpt lat="44.54813" lon="4.55942">
        <ele>416.79998779297</ele>
        <time>2021-10-10T08:41:58Z</time>
      </trkpt>
      <trkpt lat="44.54814" lon="4.55958">
        <ele>416.79998779297</ele>
        <time>2021-10-10T08:42:02Z</time>
      </trkpt>
      <trkpt lat="44.54814" lon="4.55969">
        <ele>416.79998779297</ele>
        <time>2021-10-10T08:42:04Z</time>
      </trkpt>
      <trkpt lat="44.54814" lon="4.55992">
        <ele>416.60000610352</ele>
        <time>2021-10-10T08:42:08Z</time>
      </trkpt>
      <trkpt lat="44.54814" lon="4.55998">
        <ele>416.39999389648</ele>
        <time>2021-10-10T08:42:09Z</time>
      </trkpt>
      <trkpt lat="44.54815" lon="4.56017">
        <ele>415.79998779297</ele>
        <time>2021-10-10T08:42:12Z</time>
      </trkpt>
      <trkpt lat="44.54817" lon="4.56037">
        <ele>415.20001220703</ele>
        <time>2021-10-10T08:42:15Z</time>
      </trkpt>
      <trkpt lat="44.54821" lon="4.56051">
        <ele>414.60000610352</ele>
        <time>2021-10-10T08:42:17Z</time>
      </trkpt>
      <trkpt lat="44.54826" lon="4.56065">
        <ele>414</ele>
        <time>2021-10-10T08:42:19Z</time>
      </trkpt>
      <trkpt lat="44.54829" lon="4.56072">
        <ele>413.60000610352</ele>
        <time>2021-10-10T08:42:20Z</time>
      </trkpt>
      <trkpt lat="44.54832" lon="4.56078">
        <ele>413.39999389648</ele>
        <time>2021-10-10T08:42:21Z</time>
      </trkpt>
      <trkpt lat="44.54835" lon="4.56084">
        <ele>413</ele>
        <time>2021-10-10T08:42:22Z</time>
      </trkpt>
      <trkpt lat="44.54837" lon="4.5609">
        <ele>412.39999389648</ele>
        <time>2021-10-10T08:42:23Z</time>
      </trkpt>
      <trkpt lat="44.54842" lon="4.56101">
        <ele>411</ele>
        <time>2021-10-10T08:42:25Z</time>
      </trkpt>
      <trkpt lat="44.54852" lon="4.56119">
        <ele>409.39999389648</ele>
        <time>2021-10-10T08:42:28Z</time>
      </trkpt>
      <trkpt lat="44.54855" lon="4.56124">
        <ele>409</ele>
        <time>2021-10-10T08:42:29Z</time>
      </trkpt>
      <trkpt lat="44.54857" lon="4.5613">
        <ele>408.60000610352</ele>
        <time>2021-10-10T08:42:30Z</time>
      </trkpt>
      <trkpt lat="44.54859" lon="4.56135">
        <ele>408.39999389648</ele>
        <time>2021-10-10T08:42:31Z</time>
      </trkpt>
      <trkpt lat="44.5486" lon="4.5614">
        <ele>408.20001220703</ele>
        <time>2021-10-10T08:42:32Z</time>
      </trkpt>
      <trkpt lat="44.54861" lon="4.56145">
        <ele>408.20001220703</ele>
        <time>2021-10-10T08:42:33Z</time>
      </trkpt>
      <trkpt lat="44.54862" lon="4.5615">
        <ele>408.20001220703</ele>
        <time>2021-10-10T08:42:34Z</time>
      </trkpt>
      <trkpt lat="44.54862" lon="4.56161">
        <ele>408.20001220703</ele>
        <time>2021-10-10T08:42:36Z</time>
      </trkpt>
      <trkpt lat="44.54863" lon="4.56166">
        <ele>408</ele>
        <time>2021-10-10T08:42:37Z</time>
      </trkpt>
      <trkpt lat="44.54862" lon="4.56171">
        <ele>408</ele>
        <time>2021-10-10T08:42:38Z</time>
      </trkpt>
      <trkpt lat="44.54863" lon="4.56176">
        <ele>408</ele>
        <time>2021-10-10T08:42:39Z</time>
      </trkpt>
      <trkpt lat="44.54864" lon="4.56198">
        <ele>408.39999389648</ele>
        <time>2021-10-10T08:42:43Z</time>
      </trkpt>
      <trkpt lat="44.54864" lon="4.56202">
        <ele>408.39999389648</ele>
        <time>2021-10-10T08:42:44Z</time>
      </trkpt>
      <trkpt lat="44.54865" lon="4.56205">
        <ele>408.60000610352</ele>
        <time>2021-10-10T08:42:45Z</time>
      </trkpt>
      <trkpt lat="44.54865" lon="4.56208">
        <ele>408.79998779297</ele>
        <time>2021-10-10T08:42:46Z</time>
      </trkpt>
      <trkpt lat="44.54865" lon="4.56209">
        <ele>409</ele>
        <time>2021-10-10T08:42:47Z</time>
      </trkpt>
      <trkpt lat="44.54865" lon="4.5621">
        <ele>409.39999389648</ele>
        <time>2021-10-10T08:42:57Z</time>
      </trkpt>
      <trkpt lat="44.54865" lon="4.5621">
        <ele>409.20001220703</ele>
        <time>2021-10-10T08:43:15Z</time>
      </trkpt>
      <trkpt lat="44.54865" lon="4.56216">
        <ele>409.20001220703</ele>
        <time>2021-10-10T08:43:21Z</time>
      </trkpt>
      <trkpt lat="44.54865" lon="4.56219">
        <ele>409</ele>
        <time>2021-10-10T08:43:22Z</time>
      </trkpt>
      <trkpt lat="44.54863" lon="4.5624">
        <ele>409.20001220703</ele>
        <time>2021-10-10T08:43:26Z</time>
      </trkpt>
      <trkpt lat="44.54864" lon="4.56246">
        <ele>409</ele>
        <time>2021-10-10T08:43:27Z</time>
      </trkpt>
      <trkpt lat="44.54866" lon="4.56251">
        <ele>409</ele>
        <time>2021-10-10T08:43:28Z</time>
      </trkpt>
      <trkpt lat="44.54867" lon="4.56256">
        <ele>409.20001220703</ele>
        <time>2021-10-10T08:43:29Z</time>
      </trkpt>
      <trkpt lat="44.54868" lon="4.56268">
        <ele>409</ele>
        <time>2021-10-10T08:43:31Z</time>
      </trkpt>
      <trkpt lat="44.54869" lon="4.56273">
        <ele>409</ele>
        <time>2021-10-10T08:43:32Z</time>
      </trkpt>
      <trkpt lat="44.54868" lon="4.56278">
        <ele>409.20001220703</ele>
        <time>2021-10-10T08:43:33Z</time>
      </trkpt>
      <trkpt lat="44.54868" lon="4.56283">
        <ele>409</ele>
        <time>2021-10-10T08:43:34Z</time>
      </trkpt>
      <trkpt lat="44.54867" lon="4.56289">
        <ele>409.20001220703</ele>
        <time>2021-10-10T08:43:35Z</time>
      </trkpt>
      <trkpt lat="44.54867" lon="4.56293">
        <ele>409.20001220703</ele>
        <time>2021-10-10T08:43:36Z</time>
      </trkpt>
      <trkpt lat="44.54866" lon="4.56297">
        <ele>409.39999389648</ele>
        <time>2021-10-10T08:43:37Z</time>
      </trkpt>
      <trkpt lat="44.54865" lon="4.563">
        <ele>409.60000610352</ele>
        <time>2021-10-10T08:43:38Z</time>
      </trkpt>
      <trkpt lat="44.54862" lon="4.56301">
        <ele>409.60000610352</ele>
        <time>2021-10-10T08:43:39Z</time>
      </trkpt>
      <trkpt lat="44.54853" lon="4.56303">
        <ele>410</ele>
        <time>2021-10-10T08:43:42Z</time>
      </trkpt>
      <trkpt lat="44.5485" lon="4.56303">
        <ele>410.20001220703</ele>
        <time>2021-10-10T08:43:43Z</time>
      </trkpt>
      <trkpt lat="44.54848" lon="4.56303">
        <ele>410.20001220703</ele>
        <time>2021-10-10T08:43:44Z</time>
      </trkpt>
      <trkpt lat="44.54847" lon="4.56304">
        <ele>410.79998779297</ele>
        <time>2021-10-10T08:43:48Z</time>
      </trkpt>
      <trkpt lat="44.54843" lon="4.56302">
        <ele>410.79998779297</ele>
        <time>2021-10-10T08:43:58Z</time>
      </trkpt>
      <trkpt lat="44.54838" lon="4.56297">
        <ele>410.79998779297</ele>
        <time>2021-10-10T08:44:00Z</time>
      </trkpt>
      <trkpt lat="44.54834" lon="4.56294">
        <ele>410.79998779297</ele>
        <time>2021-10-10T08:44:01Z</time>
      </trkpt>
      <trkpt lat="44.54829" lon="4.5629">
        <ele>410.79998779297</ele>
        <time>2021-10-10T08:44:02Z</time>
      </trkpt>
      <trkpt lat="44.54824" lon="4.56287">
        <ele>411</ele>
        <time>2021-10-10T08:44:03Z</time>
      </trkpt>
      <trkpt lat="44.54812" lon="4.5628">
        <ele>410.79998779297</ele>
        <time>2021-10-10T08:44:05Z</time>
      </trkpt>
      <trkpt lat="44.54808" lon="4.56277">
        <ele>411</ele>
        <time>2021-10-10T08:44:06Z</time>
      </trkpt>
      <trkpt lat="44.54804" lon="4.56275">
        <ele>410.79998779297</ele>
        <time>2021-10-10T08:44:07Z</time>
      </trkpt>
      <trkpt lat="44.54801" lon="4.56273">
        <ele>410.79998779297</ele>
        <time>2021-10-10T08:44:08Z</time>
      </trkpt>
      <trkpt lat="44.54798" lon="4.56271">
        <ele>410.79998779297</ele>
        <time>2021-10-10T08:44:09Z</time>
      </trkpt>
      <trkpt lat="44.54794" lon="4.5627">
        <ele>410.20001220703</ele>
        <time>2021-10-10T08:44:10Z</time>
      </trkpt>
      <trkpt lat="44.5479" lon="4.56271">
        <ele>409.60000610352</ele>
        <time>2021-10-10T08:44:11Z</time>
      </trkpt>
      <trkpt lat="44.54786" lon="4.56273">
        <ele>409.39999389648</ele>
        <time>2021-10-10T08:44:12Z</time>
      </trkpt>
      <trkpt lat="44.54782" lon="4.56275">
        <ele>408.39999389648</ele>
        <time>2021-10-10T08:44:13Z</time>
      </trkpt>
      <trkpt lat="44.54777" lon="4.56276">
        <ele>407.79998779297</ele>
        <time>2021-10-10T08:44:14Z</time>
      </trkpt>
      <trkpt lat="44.54772" lon="4.56277">
        <ele>406.79998779297</ele>
        <time>2021-10-10T08:44:15Z</time>
      </trkpt>
      <trkpt lat="44.54767" lon="4.56279">
        <ele>406.20001220703</ele>
        <time>2021-10-10T08:44:16Z</time>
      </trkpt>
      <trkpt lat="44.54762" lon="4.56281">
        <ele>405.20001220703</ele>
        <time>2021-10-10T08:44:17Z</time>
      </trkpt>
      <trkpt lat="44.54757" lon="4.56283">
        <ele>404</ele>
        <time>2021-10-10T08:44:18Z</time>
      </trkpt>
      <trkpt lat="44.54753" lon="4.56286">
        <ele>403.39999389648</ele>
        <time>2021-10-10T08:44:19Z</time>
      </trkpt>
      <trkpt lat="44.54748" lon="4.5629">
        <ele>402.39999389648</ele>
        <time>2021-10-10T08:44:20Z</time>
      </trkpt>
      <trkpt lat="44.5474" lon="4.563">
        <ele>401</ele>
        <time>2021-10-10T08:44:22Z</time>
      </trkpt>
      <trkpt lat="44.54736" lon="4.56306">
        <ele>400</ele>
        <time>2021-10-10T08:44:23Z</time>
      </trkpt>
      <trkpt lat="44.54733" lon="4.56312">
        <ele>399.20001220703</ele>
        <time>2021-10-10T08:44:24Z</time>
      </trkpt>
      <trkpt lat="44.5473" lon="4.56318">
        <ele>398.60000610352</ele>
        <time>2021-10-10T08:44:25Z</time>
      </trkpt>
      <trkpt lat="44.54728" lon="4.56325">
        <ele>398.60000610352</ele>
        <time>2021-10-10T08:44:26Z</time>
      </trkpt>
      <trkpt lat="44.54727" lon="4.56333">
        <ele>397.79998779297</ele>
        <time>2021-10-10T08:44:27Z</time>
      </trkpt>
      <trkpt lat="44.54725" lon="4.5634">
        <ele>396.60000610352</ele>
        <time>2021-10-10T08:44:28Z</time>
      </trkpt>
      <trkpt lat="44.54722" lon="4.56355">
        <ele>394.79998779297</ele>
        <time>2021-10-10T08:44:30Z</time>
      </trkpt>
      <trkpt lat="44.5472" lon="4.5636">
        <ele>393.60000610352</ele>
        <time>2021-10-10T08:44:31Z</time>
      </trkpt>
      <trkpt lat="44.54717" lon="4.56364">
        <ele>392.79998779297</ele>
        <time>2021-10-10T08:44:32Z</time>
      </trkpt>
      <trkpt lat="44.54714" lon="4.56366">
        <ele>391.79998779297</ele>
        <time>2021-10-10T08:44:33Z</time>
      </trkpt>
      <trkpt lat="44.54712" lon="4.56366">
        <ele>391</ele>
        <time>2021-10-10T08:44:34Z</time>
      </trkpt>
      <trkpt lat="44.54708" lon="4.56366">
        <ele>390.20001220703</ele>
        <time>2021-10-10T08:44:35Z</time>
      </trkpt>
      <trkpt lat="44.54705" lon="4.56365">
        <ele>389.60000610352</ele>
        <time>2021-10-10T08:44:36Z</time>
      </trkpt>
      <trkpt lat="44.54702" lon="4.56364">
        <ele>389.20001220703</ele>
        <time>2021-10-10T08:44:37Z</time>
      </trkpt>
      <trkpt lat="44.54698" lon="4.56362">
        <ele>389</ele>
        <time>2021-10-10T08:44:38Z</time>
      </trkpt>
      <trkpt lat="44.54691" lon="4.56359">
        <ele>388.39999389648</ele>
        <time>2021-10-10T08:44:40Z</time>
      </trkpt>
      <trkpt lat="44.54682" lon="4.56355">
        <ele>388</ele>
        <time>2021-10-10T08:44:42Z</time>
      </trkpt>
      <trkpt lat="44.54678" lon="4.56354">
        <ele>387.79998779297</ele>
        <time>2021-10-10T08:44:43Z</time>
      </trkpt>
      <trkpt lat="44.5467" lon="4.56351">
        <ele>386.39999389648</ele>
        <time>2021-10-10T08:44:45Z</time>
      </trkpt>
      <trkpt lat="44.54668" lon="4.56351">
        <ele>385.60000610352</ele>
        <time>2021-10-10T08:44:46Z</time>
      </trkpt>
      <trkpt lat="44.54667" lon="4.56351">
        <ele>385.20001220703</ele>
        <time>2021-10-10T08:44:48Z</time>
      </trkpt>
      <trkpt lat="44.54666" lon="4.56351">
        <ele>378.79998779297</ele>
        <time>2021-10-10T08:45:00Z</time>
      </trkpt>
      <trkpt lat="44.54666" lon="4.56351">
        <ele>378.60000610352</ele>
        <time>2021-10-10T08:45:10Z</time>
      </trkpt>
      <trkpt lat="44.54666" lon="4.56351">
        <ele>378.39999389648</ele>
        <time>2021-10-10T08:45:13Z</time>
      </trkpt>
      <trkpt lat="44.54663" lon="4.56351">
        <ele>378.20001220703</ele>
        <time>2021-10-10T08:45:24Z</time>
      </trkpt>
      <trkpt lat="44.5466" lon="4.56352">
        <ele>378.20001220703</ele>
        <time>2021-10-10T08:45:25Z</time>
      </trkpt>
      <trkpt lat="44.54646" lon="4.56356">
        <ele>378.39999389648</ele>
        <time>2021-10-10T08:45:28Z</time>
      </trkpt>
      <trkpt lat="44.54635" lon="4.56361">
        <ele>378</ele>
        <time>2021-10-10T08:45:30Z</time>
      </trkpt>
      <trkpt lat="44.5463" lon="4.56364">
        <ele>378</ele>
        <time>2021-10-10T08:45:31Z</time>
      </trkpt>
      <trkpt lat="44.54626" lon="4.56369">
        <ele>378</ele>
        <time>2021-10-10T08:45:32Z</time>
      </trkpt>
      <trkpt lat="44.54621" lon="4.56374">
        <ele>377.79998779297</ele>
        <time>2021-10-10T08:45:33Z</time>
      </trkpt>
      <trkpt lat="44.54612" lon="4.56383">
        <ele>377.39999389648</ele>
        <time>2021-10-10T08:45:35Z</time>
      </trkpt>
      <trkpt lat="44.54608" lon="4.56388">
        <ele>377</ele>
        <time>2021-10-10T08:45:36Z</time>
      </trkpt>
      <trkpt lat="44.54604" lon="4.56393">
        <ele>376.79998779297</ele>
        <time>2021-10-10T08:45:37Z</time>
      </trkpt>
      <trkpt lat="44.54601" lon="4.56397">
        <ele>375.79998779297</ele>
        <time>2021-10-10T08:45:38Z</time>
      </trkpt>
      <trkpt lat="44.54597" lon="4.56401">
        <ele>375.20001220703</ele>
        <time>2021-10-10T08:45:39Z</time>
      </trkpt>
      <trkpt lat="44.54594" lon="4.56405">
        <ele>374.79998779297</ele>
        <time>2021-10-10T08:45:40Z</time>
      </trkpt>
      <trkpt lat="44.54579" lon="4.56429">
        <ele>373.20001220703</ele>
        <time>2021-10-10T08:45:45Z</time>
      </trkpt>
      <trkpt lat="44.54575" lon="4.56433">
        <ele>373.20001220703</ele>
        <time>2021-10-10T08:45:46Z</time>
      </trkpt>
      <trkpt lat="44.54565" lon="4.56449">
        <ele>372.79998779297</ele>
        <time>2021-10-10T08:45:49Z</time>
      </trkpt>
      <trkpt lat="44.54562" lon="4.56454">
        <ele>372.79998779297</ele>
        <time>2021-10-10T08:45:50Z</time>
      </trkpt>
      <trkpt lat="44.54561" lon="4.56459">
        <ele>372.39999389648</ele>
        <time>2021-10-10T08:45:51Z</time>
      </trkpt>
      <trkpt lat="44.54559" lon="4.56461">
        <ele>372.39999389648</ele>
        <time>2021-10-10T08:45:52Z</time>
      </trkpt>
      <trkpt lat="44.54557" lon="4.56463">
        <ele>372</ele>
        <time>2021-10-10T08:45:53Z</time>
      </trkpt>
      <trkpt lat="44.54555" lon="4.56464">
        <ele>372</ele>
        <time>2021-10-10T08:45:54Z</time>
      </trkpt>
      <trkpt lat="44.54552" lon="4.56468">
        <ele>371.60000610352</ele>
        <time>2021-10-10T08:45:56Z</time>
      </trkpt>
      <trkpt lat="44.5455" lon="4.56469">
        <ele>371.20001220703</ele>
        <time>2021-10-10T08:45:57Z</time>
      </trkpt>
      <trkpt lat="44.54548" lon="4.5647">
        <ele>370.79998779297</ele>
        <time>2021-10-10T08:45:58Z</time>
      </trkpt>
      <trkpt lat="44.54547" lon="4.56471">
        <ele>370.60000610352</ele>
        <time>2021-10-10T08:45:59Z</time>
      </trkpt>
      <trkpt lat="44.54546" lon="4.56472">
        <ele>370.60000610352</ele>
        <time>2021-10-10T08:46:00Z</time>
      </trkpt>
      <trkpt lat="44.54543" lon="4.56474">
        <ele>370.39999389648</ele>
        <time>2021-10-10T08:46:02Z</time>
      </trkpt>
      <trkpt lat="44.5454" lon="4.56476">
        <ele>370.20001220703</ele>
        <time>2021-10-10T08:46:03Z</time>
      </trkpt>
      <trkpt lat="44.54537" lon="4.56477">
        <ele>370.20001220703</ele>
        <time>2021-10-10T08:46:04Z</time>
      </trkpt>
      <trkpt lat="44.54532" lon="4.56478">
        <ele>370</ele>
        <time>2021-10-10T08:46:05Z</time>
      </trkpt>
      <trkpt lat="44.54528" lon="4.56482">
        <ele>369.60000610352</ele>
        <time>2021-10-10T08:46:06Z</time>
      </trkpt>
      <trkpt lat="44.54517" lon="4.56494">
        <ele>369</ele>
        <time>2021-10-10T08:46:08Z</time>
      </trkpt>
      <trkpt lat="44.54512" lon="4.565">
        <ele>368.79998779297</ele>
        <time>2021-10-10T08:46:09Z</time>
      </trkpt>
      <trkpt lat="44.54508" lon="4.56508">
        <ele>368.60000610352</ele>
        <time>2021-10-10T08:46:10Z</time>
      </trkpt>
      <trkpt lat="44.54498" lon="4.56524">
        <ele>367.60000610352</ele>
        <time>2021-10-10T08:46:12Z</time>
      </trkpt>
      <trkpt lat="44.54484" lon="4.5655">
        <ele>364.20001220703</ele>
        <time>2021-10-10T08:46:15Z</time>
      </trkpt>
      <trkpt lat="44.5448" lon="4.56558">
        <ele>364.20001220703</ele>
        <time>2021-10-10T08:46:16Z</time>
      </trkpt>
      <trkpt lat="44.54476" lon="4.56565">
        <ele>363.39999389648</ele>
        <time>2021-10-10T08:46:17Z</time>
      </trkpt>
      <trkpt lat="44.54457" lon="4.56602">
        <ele>360.20001220703</ele>
        <time>2021-10-10T08:46:22Z</time>
      </trkpt>
      <trkpt lat="44.54453" lon="4.56609">
        <ele>359.60000610352</ele>
        <time>2021-10-10T08:46:23Z</time>
      </trkpt>
      <trkpt lat="44.54449" lon="4.56617">
        <ele>359.20001220703</ele>
        <time>2021-10-10T08:46:24Z</time>
      </trkpt>
      <trkpt lat="44.54446" lon="4.56624">
        <ele>358.60000610352</ele>
        <time>2021-10-10T08:46:25Z</time>
      </trkpt>
      <trkpt lat="44.54443" lon="4.56631">
        <ele>358</ele>
        <time>2021-10-10T08:46:26Z</time>
      </trkpt>
      <trkpt lat="44.54441" lon="4.56638">
        <ele>357.60000610352</ele>
        <time>2021-10-10T08:46:27Z</time>
      </trkpt>
      <trkpt lat="44.5444" lon="4.56643">
        <ele>357.39999389648</ele>
        <time>2021-10-10T08:46:28Z</time>
      </trkpt>
      <trkpt lat="44.5444" lon="4.56647">
        <ele>357.20001220703</ele>
        <time>2021-10-10T08:46:29Z</time>
      </trkpt>
      <trkpt lat="44.54439" lon="4.56649">
        <ele>357</ele>
        <time>2021-10-10T08:46:31Z</time>
      </trkpt>
      <trkpt lat="44.54439" lon="4.56648">
        <ele>356.39999389648</ele>
        <time>2021-10-10T08:46:38Z</time>
      </trkpt>
      <trkpt lat="44.54438" lon="4.56654">
        <ele>356.20001220703</ele>
        <time>2021-10-10T08:46:44Z</time>
      </trkpt>
      <trkpt lat="44.54437" lon="4.56655">
        <ele>356.20001220703</ele>
        <time>2021-10-10T08:46:45Z</time>
      </trkpt>
      <trkpt lat="44.54437" lon="4.56655">
        <ele>356.39999389648</ele>
        <time>2021-10-10T08:46:50Z</time>
      </trkpt>
      <trkpt lat="44.54437" lon="4.56656">
        <ele>356.20001220703</ele>
        <time>2021-10-10T08:47:02Z</time>
      </trkpt>
      <trkpt lat="44.54437" lon="4.56655">
        <ele>356.39999389648</ele>
        <time>2021-10-10T08:47:15Z</time>
      </trkpt>
      <trkpt lat="44.54437" lon="4.56655">
        <ele>356.79998779297</ele>
        <time>2021-10-10T08:47:29Z</time>
      </trkpt>
      <trkpt lat="44.54436" lon="4.56661">
        <ele>356.79998779297</ele>
        <time>2021-10-10T08:47:38Z</time>
      </trkpt>
      <trkpt lat="44.54435" lon="4.56667">
        <ele>356.60000610352</ele>
        <time>2021-10-10T08:47:40Z</time>
      </trkpt>
      <trkpt lat="44.54433" lon="4.56681">
        <ele>356.60000610352</ele>
        <time>2021-10-10T08:47:43Z</time>
      </trkpt>
      <trkpt lat="44.54432" lon="4.56693">
        <ele>356.79998779297</ele>
        <time>2021-10-10T08:47:45Z</time>
      </trkpt>
      <trkpt lat="44.54431" lon="4.56698">
        <ele>356.60000610352</ele>
        <time>2021-10-10T08:47:46Z</time>
      </trkpt>
      <trkpt lat="44.54429" lon="4.56703">
        <ele>356.39999389648</ele>
        <time>2021-10-10T08:47:47Z</time>
      </trkpt>
      <trkpt lat="44.54427" lon="4.56707">
        <ele>356.20001220703</ele>
        <time>2021-10-10T08:47:48Z</time>
      </trkpt>
      <trkpt lat="44.54426" lon="4.5671">
        <ele>356</ele>
        <time>2021-10-10T08:47:49Z</time>
      </trkpt>
      <trkpt lat="44.54426" lon="4.56713">
        <ele>355.79998779297</ele>
        <time>2021-10-10T08:47:50Z</time>
      </trkpt>
      <trkpt lat="44.54427" lon="4.56715">
        <ele>355.60000610352</ele>
        <time>2021-10-10T08:47:51Z</time>
      </trkpt>
      <trkpt lat="44.54418" lon="4.56733">
        <ele>349.20001220703</ele>
        <time>2022-02-20T08:51:00Z</time>
      </trkpt>
      <trkpt lat="44.54417" lon="4.56734">
        <ele>349.20001220703</ele>
        <time>2022-02-20T08:50:59Z</time>
      </trkpt>
      <trkpt lat="44.54416" lon="4.56736">
        <ele>348.79998779297</ele>
        <time>2022-02-20T08:50:58Z</time>
      </trkpt>
      <trkpt lat="44.54414" lon="4.56737">
        <ele>348.39999389648</ele>
        <time>2022-02-20T08:50:57Z</time>
      </trkpt>
      <trkpt lat="44.54413" lon="4.56739">
        <ele>348</ele>
        <time>2022-02-20T08:50:56Z</time>
      </trkpt>
      <trkpt lat="44.54412" lon="4.56742">
        <ele>347.60000610352</ele>
        <time>2022-02-20T08:50:55Z</time>
      </trkpt>
      <trkpt lat="44.54411" lon="4.56743">
        <ele>347.20001220703</ele>
        <time>2022-02-20T08:50:54Z</time>
      </trkpt>
      <trkpt lat="44.5441" lon="4.56745">
        <ele>347</ele>
        <time>2022-02-20T08:50:53Z</time>
      </trkpt>
      <trkpt lat="44.54408" lon="4.56746">
        <ele>346.79998779297</ele>
        <time>2022-02-20T08:50:52Z</time>
      </trkpt>
      <trkpt lat="44.54407" lon="4.56748">
        <ele>346.39999389648</ele>
        <time>2022-02-20T08:50:51Z</time>
      </trkpt>
      <trkpt lat="44.54405" lon="4.5675">
        <ele>345.79998779297</ele>
        <time>2022-02-20T08:50:50Z</time>
      </trkpt>
      <trkpt lat="44.54404" lon="4.56752">
        <ele>345.60000610352</ele>
        <time>2022-02-20T08:50:49Z</time>
      </trkpt>
      <trkpt lat="44.54403" lon="4.56754">
        <ele>345</ele>
        <time>2022-02-20T08:50:48Z</time>
      </trkpt>
      <trkpt lat="44.54402" lon="4.56756">
        <ele>345</ele>
        <time>2022-02-20T08:50:47Z</time>
      </trkpt>
      <trkpt lat="44.54401" lon="4.56758">
        <ele>344.79998779297</ele>
        <time>2022-02-20T08:50:46Z</time>
      </trkpt>
      <trkpt lat="44.54399" lon="4.5676">
        <ele>344.79998779297</ele>
        <time>2022-02-20T08:50:45Z</time>
      </trkpt>
      <trkpt lat="44.54398" lon="4.56762">
        <ele>344.39999389648</ele>
        <time>2022-02-20T08:50:44Z</time>
      </trkpt>
      <trkpt lat="44.54397" lon="4.56763">
        <ele>344.39999389648</ele>
        <time>2022-02-20T08:50:43Z</time>
      </trkpt>
      <trkpt lat="44.54396" lon="4.56765">
        <ele>344.20001220703</ele>
        <time>2022-02-20T08:50:42Z</time>
      </trkpt>
      <trkpt lat="44.54395" lon="4.56767">
        <ele>344</ele>
        <time>2022-02-20T08:50:41Z</time>
      </trkpt>
      <trkpt lat="44.54394" lon="4.56769">
        <ele>343.79998779297</ele>
        <time>2022-02-20T08:50:40Z</time>
      </trkpt>
      <trkpt lat="44.54393" lon="4.56771">
        <ele>343.79998779297</ele>
        <time>2022-02-20T08:50:39Z</time>
      </trkpt>
      <trkpt lat="44.54391" lon="4.56773">
        <ele>343.39999389648</ele>
        <time>2022-02-20T08:50:38Z</time>
      </trkpt>
      <trkpt lat="44.5439" lon="4.56775">
        <ele>343.39999389648</ele>
        <time>2022-02-20T08:50:37Z</time>
      </trkpt>
      <trkpt lat="44.54389" lon="4.56777">
        <ele>343.20001220703</ele>
        <time>2022-02-20T08:50:36Z</time>
      </trkpt>
      <trkpt lat="44.54388" lon="4.56778">
        <ele>342.60000610352</ele>
        <time>2022-02-20T08:50:35Z</time>
      </trkpt>
      <trkpt lat="44.54386" lon="4.5678">
        <ele>342.39999389648</ele>
        <time>2022-02-20T08:50:34Z</time>
      </trkpt>
      <trkpt lat="44.54385" lon="4.56781">
        <ele>342</ele>
        <time>2022-02-20T08:50:33Z</time>
      </trkpt>
      <trkpt lat="44.54384" lon="4.56783">
        <ele>341.79998779297</ele>
        <time>2022-02-20T08:50:32Z</time>
      </trkpt>
      <trkpt lat="44.54383" lon="4.56785">
        <ele>341.39999389648</ele>
        <time>2022-02-20T08:50:31Z</time>
      </trkpt>
      <trkpt lat="44.54382" lon="4.56787">
        <ele>341.20001220703</ele>
        <time>2022-02-20T08:50:30Z</time>
      </trkpt>
      <trkpt lat="44.54381" lon="4.56789">
        <ele>340.60000610352</ele>
        <time>2022-02-20T08:50:29Z</time>
      </trkpt>
      <trkpt lat="44.54379" lon="4.56791">
        <ele>340.20001220703</ele>
        <time>2022-02-20T08:50:28Z</time>
      </trkpt>
      <trkpt lat="44.54378" lon="4.56793">
        <ele>339.60000610352</ele>
        <time>2022-02-20T08:50:27Z</time>
      </trkpt>
      <trkpt lat="44.54377" lon="4.56794">
        <ele>339.39999389648</ele>
        <time>2022-02-20T08:50:26Z</time>
      </trkpt>
      <trkpt lat="44.54376" lon="4.56796">
        <ele>339</ele>
        <time>2022-02-20T08:50:25Z</time>
      </trkpt>
      <trkpt lat="44.54375" lon="4.56798">
        <ele>338.60000610352</ele>
        <time>2022-02-20T08:50:24Z</time>
      </trkpt>
      <trkpt lat="44.54373" lon="4.568">
        <ele>338.60000610352</ele>
        <time>2022-02-20T08:50:23Z</time>
      </trkpt>
      <trkpt lat="44.54372" lon="4.56802">
        <ele>338.20001220703</ele>
        <time>2022-02-20T08:50:22Z</time>
      </trkpt>
      <trkpt lat="44.54371" lon="4.56804">
        <ele>338</ele>
        <time>2022-02-20T08:50:21Z</time>
      </trkpt>
      <trkpt lat="44.5437" lon="4.56805">
        <ele>337.79998779297</ele>
        <time>2022-02-20T08:50:20Z</time>
      </trkpt>
      <trkpt lat="44.54369" lon="4.56807">
        <ele>337.39999389648</ele>
        <time>2022-02-20T08:50:19Z</time>
      </trkpt>
      <trkpt lat="44.54367" lon="4.56809">
        <ele>337</ele>
        <time>2022-02-20T08:50:18Z</time>
      </trkpt>
      <trkpt lat="44.54366" lon="4.56811">
        <ele>337</ele>
        <time>2022-02-20T08:50:17Z</time>
      </trkpt>
      <trkpt lat="44.54365" lon="4.56813">
        <ele>336.60000610352</ele>
        <time>2022-02-20T08:50:16Z</time>
      </trkpt>
      <trkpt lat="44.54364" lon="4.56815">
        <ele>336.60000610352</ele>
        <time>2022-02-20T08:50:15Z</time>
      </trkpt>
      <trkpt lat="44.54362" lon="4.56817">
        <ele>336.20001220703</ele>
        <time>2022-02-20T08:50:14Z</time>
      </trkpt>
      <trkpt lat="44.54361" lon="4.56819">
        <ele>336</ele>
        <time>2022-02-20T08:50:13Z</time>
      </trkpt>
      <trkpt lat="44.5436" lon="4.56821">
        <ele>335.60000610352</ele>
        <time>2022-02-20T08:50:12Z</time>
      </trkpt>
      <trkpt lat="44.54359" lon="4.56823">
        <ele>335.60000610352</ele>
        <time>2022-02-20T08:50:11Z</time>
      </trkpt>
      <trkpt lat="44.54358" lon="4.56825">
        <ele>335.20001220703</ele>
        <time>2022-02-20T08:50:10Z</time>
      </trkpt>
      <trkpt lat="44.54356" lon="4.56827">
        <ele>334.79998779297</ele>
        <time>2022-02-20T08:50:09Z</time>
      </trkpt>
      <trkpt lat="44.54355" lon="4.56829">
        <ele>334.39999389648</ele>
        <time>2022-02-20T08:50:08Z</time>
      </trkpt>
      <trkpt lat="44.54354" lon="4.56831">
        <ele>333.79998779297</ele>
        <time>2022-02-20T08:50:07Z</time>
      </trkpt>
      <trkpt lat="44.54353" lon="4.56832">
        <ele>333.60000610352</ele>
        <time>2022-02-20T08:50:06Z</time>
      </trkpt>
      <trkpt lat="44.54352" lon="4.56834">
        <ele>333.39999389648</ele>
        <time>2022-02-20T08:50:05Z</time>
      </trkpt>
      <trkpt lat="44.5435" lon="4.56836">
        <ele>333.20001220703</ele>
        <time>2022-02-20T08:50:04Z</time>
      </trkpt>
      <trkpt lat="44.54349" lon="4.56838">
        <ele>333</ele>
        <time>2022-02-20T08:50:03Z</time>
      </trkpt>
      <trkpt lat="44.54348" lon="4.5684">
        <ele>332.79998779297</ele>
        <time>2022-02-20T08:50:02Z</time>
      </trkpt>
      <trkpt lat="44.54347" lon="4.56842">
        <ele>332.79998779297</ele>
        <time>2022-02-20T08:50:01Z</time>
      </trkpt>
      <trkpt lat="44.54346" lon="4.56844">
        <ele>332.39999389648</ele>
        <time>2022-02-20T08:50:00Z</time>
      </trkpt>
      <trkpt lat="44.54345" lon="4.56846">
        <ele>332</ele>
        <time>2022-02-20T08:49:59Z</time>
      </trkpt>
      <trkpt lat="44.54343" lon="4.56848">
        <ele>331.79998779297</ele>
        <time>2022-02-20T08:49:58Z</time>
      </trkpt>
      <trkpt lat="44.54342" lon="4.5685">
        <ele>331.60000610352</ele>
        <time>2022-02-20T08:49:57Z</time>
      </trkpt>
      <trkpt lat="44.54341" lon="4.56852">
        <ele>331</ele>
        <time>2022-02-20T08:49:56Z</time>
      </trkpt>
      <trkpt lat="44.5434" lon="4.56854">
        <ele>330.60000610352</ele>
        <time>2022-02-20T08:49:55Z</time>
      </trkpt>
      <trkpt lat="44.54338" lon="4.56856">
        <ele>330.20001220703</ele>
        <time>2022-02-20T08:49:54Z</time>
      </trkpt>
      <trkpt lat="44.54337" lon="4.56857">
        <ele>330.20001220703</ele>
        <time>2022-02-20T08:49:53Z</time>
      </trkpt>
      <trkpt lat="44.54336" lon="4.56859">
        <ele>329.79998779297</ele>
        <time>2022-02-20T08:49:52Z</time>
      </trkpt>
      <trkpt lat="44.54335" lon="4.56861">
        <ele>329.39999389648</ele>
        <time>2022-02-20T08:49:51Z</time>
      </trkpt>
      <trkpt lat="44.54334" lon="4.56863">
        <ele>329.20001220703</ele>
        <time>2022-02-20T08:49:50Z</time>
      </trkpt>
      <trkpt lat="44.54332" lon="4.56864">
        <ele>328.79998779297</ele>
        <time>2022-02-20T08:49:49Z</time>
      </trkpt>
      <trkpt lat="44.54331" lon="4.56866">
        <ele>328.60000610352</ele>
        <time>2022-02-20T08:49:48Z</time>
      </trkpt>
      <trkpt lat="44.54329" lon="4.56868">
        <ele>328.39999389648</ele>
        <time>2022-02-20T08:49:47Z</time>
      </trkpt>
      <trkpt lat="44.54328" lon="4.5687">
        <ele>328</ele>
        <time>2022-02-20T08:49:46Z</time>
      </trkpt>
      <trkpt lat="44.54327" lon="4.56873">
        <ele>327.79998779297</ele>
        <time>2022-02-20T08:49:45Z</time>
      </trkpt>
      <trkpt lat="44.54326" lon="4.56875">
        <ele>327.60000610352</ele>
        <time>2022-02-20T08:49:44Z</time>
      </trkpt>
      <trkpt lat="44.54326" lon="4.56877">
        <ele>327.20001220703</ele>
        <time>2022-02-20T08:49:43Z</time>
      </trkpt>
      <trkpt lat="44.54325" lon="4.56879">
        <ele>327</ele>
        <time>2022-02-20T08:49:42Z</time>
      </trkpt>
      <trkpt lat="44.54323" lon="4.56881">
        <ele>326.79998779297</ele>
        <time>2022-02-20T08:49:41Z</time>
      </trkpt>
      <trkpt lat="44.54322" lon="4.56883">
        <ele>326.60000610352</ele>
        <time>2022-02-20T08:49:40Z</time>
      </trkpt>
      <trkpt lat="44.54321" lon="4.56885">
        <ele>326.60000610352</ele>
        <time>2022-02-20T08:49:39Z</time>
      </trkpt>
      <trkpt lat="44.5432" lon="4.56887">
        <ele>326.20001220703</ele>
        <time>2022-02-20T08:49:38Z</time>
      </trkpt>
      <trkpt lat="44.54318" lon="4.56889">
        <ele>325.79998779297</ele>
        <time>2022-02-20T08:49:37Z</time>
      </trkpt>
      <trkpt lat="44.54317" lon="4.56891">
        <ele>325.39999389648</ele>
        <time>2022-02-20T08:49:36Z</time>
      </trkpt>
      <trkpt lat="44.54316" lon="4.56893">
        <ele>325</ele>
        <time>2022-02-20T08:49:35Z</time>
      </trkpt>
      <trkpt lat="44.54315" lon="4.56895">
        <ele>324.60000610352</ele>
        <time>2022-02-20T08:49:34Z</time>
      </trkpt>
      <trkpt lat="44.54314" lon="4.56897">
        <ele>324.60000610352</ele>
        <time>2022-02-20T08:49:33Z</time>
      </trkpt>
      <trkpt lat="44.54313" lon="4.569">
        <ele>324.20001220703</ele>
        <time>2022-02-20T08:49:32Z</time>
      </trkpt>
      <trkpt lat="44.54312" lon="4.56902">
        <ele>323.60000610352</ele>
        <time>2022-02-20T08:49:31Z</time>
      </trkpt>
      <trkpt lat="44.54311" lon="4.56904">
        <ele>323.20001220703</ele>
        <time>2022-02-20T08:49:30Z</time>
      </trkpt>
      <trkpt lat="44.5431" lon="4.56906">
        <ele>323</ele>
        <time>2022-02-20T08:49:29Z</time>
      </trkpt>
      <trkpt lat="44.54309" lon="4.56908">
        <ele>322.60000610352</ele>
        <time>2022-02-20T08:49:28Z</time>
      </trkpt>
      <trkpt lat="44.54309" lon="4.56911">
        <ele>322.20001220703</ele>
        <time>2022-02-20T08:49:27Z</time>
      </trkpt>
      <trkpt lat="44.54308" lon="4.56913">
        <ele>321.79998779297</ele>
        <time>2022-02-20T08:49:26Z</time>
      </trkpt>
      <trkpt lat="44.54307" lon="4.56915">
        <ele>321.39999389648</ele>
        <time>2022-02-20T08:49:25Z</time>
      </trkpt>
      <trkpt lat="44.54306" lon="4.56917">
        <ele>320.79998779297</ele>
        <time>2022-02-20T08:49:24Z</time>
      </trkpt>
      <trkpt lat="44.54305" lon="4.56919">
        <ele>320.39999389648</ele>
        <time>2022-02-20T08:49:23Z</time>
      </trkpt>
      <trkpt lat="44.54304" lon="4.56922">
        <ele>320</ele>
        <time>2022-02-20T08:49:22Z</time>
      </trkpt>
      <trkpt lat="44.54303" lon="4.56924">
        <ele>319.60000610352</ele>
        <time>2022-02-20T08:49:21Z</time>
      </trkpt>
      <trkpt lat="44.54302" lon="4.56925">
        <ele>319.39999389648</ele>
        <time>2022-02-20T08:49:20Z</time>
      </trkpt>
      <trkpt lat="44.54301" lon="4.56927">
        <ele>318.79998779297</ele>
        <time>2022-02-20T08:49:19Z</time>
      </trkpt>
      <trkpt lat="44.543" lon="4.56929">
        <ele>318.39999389648</ele>
        <time>2022-02-20T08:49:18Z</time>
      </trkpt>
      <trkpt lat="44.54299" lon="4.56931">
        <ele>318.39999389648</ele>
        <time>2022-02-20T08:49:17Z</time>
      </trkpt>
      <trkpt lat="44.54298" lon="4.56933">
        <ele>318</ele>
        <time>2022-02-20T08:49:16Z</time>
      </trkpt>
      <trkpt lat="44.54297" lon="4.56935">
        <ele>317.39999389648</ele>
        <time>2022-02-20T08:49:15Z</time>
      </trkpt>
      <trkpt lat="44.54295" lon="4.56937">
        <ele>317</ele>
        <time>2022-02-20T08:49:14Z</time>
      </trkpt>
      <trkpt lat="44.54294" lon="4.56939">
        <ele>316.79998779297</ele>
        <time>2022-02-20T08:49:13Z</time>
      </trkpt>
      <trkpt lat="44.54293" lon="4.5694">
        <ele>316.60000610352</ele>
        <time>2022-02-20T08:49:12Z</time>
      </trkpt>
      <trkpt lat="44.54292" lon="4.56942">
        <ele>316.39999389648</ele>
        <time>2022-02-20T08:49:11Z</time>
      </trkpt>
      <trkpt lat="44.54291" lon="4.56945">
        <ele>316.20001220703</ele>
        <time>2022-02-20T08:49:10Z</time>
      </trkpt>
      <trkpt lat="44.5429" lon="4.56947">
        <ele>316.20001220703</ele>
        <time>2022-02-20T08:49:09Z</time>
      </trkpt>
      <trkpt lat="44.54289" lon="4.56949">
        <ele>315.79998779297</ele>
        <time>2022-02-20T08:49:08Z</time>
      </trkpt>
      <trkpt lat="44.54288" lon="4.5695">
        <ele>315.20001220703</ele>
        <time>2022-02-20T08:49:07Z</time>
      </trkpt>
      <trkpt lat="44.54287" lon="4.56952">
        <ele>314.60000610352</ele>
        <time>2022-02-20T08:49:06Z</time>
      </trkpt>
      <trkpt lat="44.54286" lon="4.56955">
        <ele>314.20001220703</ele>
        <time>2022-02-20T08:49:05Z</time>
      </trkpt>
      <trkpt lat="44.54285" lon="4.56957">
        <ele>313.60000610352</ele>
        <time>2022-02-20T08:49:04Z</time>
      </trkpt>
      <trkpt lat="44.54284" lon="4.56959">
        <ele>313.20001220703</ele>
        <time>2022-02-20T08:49:03Z</time>
      </trkpt>
      <trkpt lat="44.54283" lon="4.56961">
        <ele>313.20001220703</ele>
        <time>2022-02-20T08:49:02Z</time>
      </trkpt>
      <trkpt lat="44.54282" lon="4.56962">
        <ele>313</ele>
        <time>2022-02-20T08:49:01Z</time>
      </trkpt>
      <trkpt lat="44.54281" lon="4.56964">
        <ele>312.60000610352</ele>
        <time>2022-02-20T08:49:00Z</time>
      </trkpt>
      <trkpt lat="44.54279" lon="4.56966">
        <ele>312</ele>
        <time>2022-02-20T08:48:59Z</time>
      </trkpt>
      <trkpt lat="44.54279" lon="4.56968">
        <ele>311.39999389648</ele>
        <time>2022-02-20T08:48:58Z</time>
      </trkpt>
      <trkpt lat="44.54278" lon="4.56971">
        <ele>310.79998779297</ele>
        <time>2022-02-20T08:48:57Z</time>
      </trkpt>
      <trkpt lat="44.54278" lon="4.56973">
        <ele>310.60000610352</ele>
        <time>2022-02-20T08:48:56Z</time>
      </trkpt>
      <trkpt lat="44.54277" lon="4.56976">
        <ele>310.60000610352</ele>
        <time>2022-02-20T08:48:55Z</time>
      </trkpt>
      <trkpt lat="44.54276" lon="4.56978">
        <ele>310.20001220703</ele>
        <time>2022-02-20T08:48:54Z</time>
      </trkpt>
      <trkpt lat="44.54275" lon="4.5698">
        <ele>310</ele>
        <time>2022-02-20T08:48:53Z</time>
      </trkpt>
      <trkpt lat="44.54275" lon="4.56983">
        <ele>309.60000610352</ele>
        <time>2022-02-20T08:48:52Z</time>
      </trkpt>
      <trkpt lat="44.54274" lon="4.56985">
        <ele>309</ele>
        <time>2022-02-20T08:48:51Z</time>
      </trkpt>
      <trkpt lat="44.54273" lon="4.56987">
        <ele>308.39999389648</ele>
        <time>2022-02-20T08:48:50Z</time>
      </trkpt>
      <trkpt lat="44.54271" lon="4.5699">
        <ele>307.79998779297</ele>
        <time>2022-02-20T08:48:49Z</time>
      </trkpt>
      <trkpt lat="44.5427" lon="4.56992">
        <ele>307.20001220703</ele>
        <time>2022-02-20T08:48:48Z</time>
      </trkpt>
      <trkpt lat="44.5427" lon="4.56995">
        <ele>306.60000610352</ele>
        <time>2022-02-20T08:48:47Z</time>
      </trkpt>
      <trkpt lat="44.54269" lon="4.56998">
        <ele>305.79998779297</ele>
        <time>2022-02-20T08:48:46Z</time>
      </trkpt>
      <trkpt lat="44.54268" lon="4.57">
        <ele>305.39999389648</ele>
        <time>2022-02-20T08:48:45Z</time>
      </trkpt>
      <trkpt lat="44.54268" lon="4.57003">
        <ele>305</ele>
        <time>2022-02-20T08:48:44Z</time>
      </trkpt>
      <trkpt lat="44.54267" lon="4.57005">
        <ele>304.39999389648</ele>
        <time>2022-02-20T08:48:43Z</time>
      </trkpt>
      <trkpt lat="44.54267" lon="4.57008">
        <ele>303.79998779297</ele>
        <time>2022-02-20T08:48:42Z</time>
      </trkpt>
      <trkpt lat="44.54266" lon="4.57011">
        <ele>303.39999389648</ele>
        <time>2022-02-20T08:48:41Z</time>
      </trkpt>
      <trkpt lat="44.54265" lon="4.57013">
        <ele>303.20001220703</ele>
        <time>2022-02-20T08:48:40Z</time>
      </trkpt>
      <trkpt lat="44.54264" lon="4.57016">
        <ele>303.20001220703</ele>
        <time>2022-02-20T08:48:39Z</time>
      </trkpt>
      <trkpt lat="44.54263" lon="4.57019">
        <ele>303</ele>
        <time>2022-02-20T08:48:38Z</time>
      </trkpt>
      <trkpt lat="44.54262" lon="4.57022">
        <ele>302.79998779297</ele>
        <time>2022-02-20T08:48:37Z</time>
      </trkpt>
      <trkpt lat="44.54261" lon="4.57025">
        <ele>302.20001220703</ele>
        <time>2022-02-20T08:48:36Z</time>
      </trkpt>
      <trkpt lat="44.5426" lon="4.57028">
        <ele>302</ele>
        <time>2022-02-20T08:48:35Z</time>
      </trkpt>
      <trkpt lat="44.54258" lon="4.57034">
        <ele>301.60000610352</ele>
        <time>2022-02-20T08:48:33Z</time>
      </trkpt>
      <trkpt lat="44.54256" lon="4.5704">
        <ele>301.39999389648</ele>
        <time>2022-02-20T08:48:31Z</time>
      </trkpt>
      <trkpt lat="44.54256" lon="4.57043">
        <ele>301.20001220703</ele>
        <time>2022-02-20T08:48:30Z</time>
      </trkpt>
      <trkpt lat="44.54255" lon="4.57046">
        <ele>301.20001220703</ele>
        <time>2022-02-20T08:48:29Z</time>
      </trkpt>
      <trkpt lat="44.54253" lon="4.57058">
        <ele>301.20001220703</ele>
        <time>2022-02-20T08:48:25Z</time>
      </trkpt>
      <trkpt lat="44.54251" lon="4.57063">
        <ele>301.20001220703</ele>
        <time>2022-02-20T08:48:23Z</time>
      </trkpt>
      <trkpt lat="44.54251" lon="4.57066">
        <ele>301.20001220703</ele>
        <time>2022-02-20T08:48:22Z</time>
      </trkpt>
      <trkpt lat="44.5425" lon="4.57069">
        <ele>301.39999389648</ele>
        <time>2022-02-20T08:48:17Z</time>
      </trkpt>
      <trkpt lat="44.5425" lon="4.57068">
        <ele>300.79998779297</ele>
        <time>2022-02-20T08:47:48Z</time>
      </trkpt>
      <trkpt lat="44.5425" lon="4.57068">
        <ele>300.39999389648</ele>
        <time>2022-02-20T08:47:44Z</time>
      </trkpt>
      <trkpt lat="44.5425" lon="4.5707">
        <ele>299.79998779297</ele>
        <time>2022-02-20T08:47:41Z</time>
      </trkpt>
      <trkpt lat="44.5425" lon="4.57071">
        <ele>299.39999389648</ele>
        <time>2022-02-20T08:47:40Z</time>
      </trkpt>
      <trkpt lat="44.5425" lon="4.57075">
        <ele>299.39999389648</ele>
        <time>2022-02-20T08:47:36Z</time>
      </trkpt>
      <trkpt lat="44.5425" lon="4.57076">
        <ele>299.39999389648</ele>
        <time>2022-02-20T08:47:35Z</time>
      </trkpt>
      <trkpt lat="44.5425" lon="4.57078">
        <ele>299.39999389648</ele>
        <time>2022-02-20T08:47:33Z</time>
      </trkpt>
      <trkpt lat="44.5425" lon="4.57079">
        <ele>299.39999389648</ele>
        <time>2022-02-20T08:47:32Z</time>
      </trkpt>
      <trkpt lat="44.5425" lon="4.5708">
        <ele>299.39999389648</ele>
        <time>2022-02-20T08:47:31Z</time>
      </trkpt>
      <trkpt lat="44.5425" lon="4.57083">
        <ele>299.39999389648</ele>
        <time>2022-02-20T08:47:29Z</time>
      </trkpt>
      <trkpt lat="44.5425" lon="4.57083">
        <ele>299.20001220703</ele>
        <time>2022-02-20T08:47:28Z</time>
      </trkpt>
      <trkpt lat="44.5425" lon="4.57084">
        <ele>299.20001220703</ele>
        <time>2022-02-20T08:47:27Z</time>
      </trkpt>
      <trkpt lat="44.54249" lon="4.57084">
        <ele>299.20001220703</ele>
        <time>2022-02-20T08:47:26Z</time>
      </trkpt>
      <trkpt lat="44.54249" lon="4.57085">
        <ele>299.39999389648</ele>
        <time>2022-02-20T08:47:25Z</time>
      </trkpt>
      <trkpt lat="44.54249" lon="4.57086">
        <ele>299.20001220703</ele>
        <time>2022-02-20T08:47:23Z</time>
      </trkpt>
      <trkpt lat="44.54249" lon="4.57086">
        <ele>299.20001220703</ele>
        <time>2022-02-20T08:47:21Z</time>
      </trkpt>
      <trkpt lat="44.54249" lon="4.57085">
        <ele>297</ele>
        <time>2022-02-20T08:47:14Z</time>
      </trkpt>
      <trkpt lat="44.54249" lon="4.57085">
        <ele>296.60000610352</ele>
        <time>2022-02-20T08:47:13Z</time>
      </trkpt>
      <trkpt lat="44.54249" lon="4.57085">
        <ele>296.39999389648</ele>
        <time>2022-02-20T08:47:12Z</time>
      </trkpt>
      <trkpt lat="44.54249" lon="4.57085">
        <ele>296</ele>
        <time>2022-02-20T08:47:11Z</time>
      </trkpt>
      <trkpt lat="44.54249" lon="4.57087">
        <ele>295.60000610352</ele>
        <time>2022-02-20T08:47:10Z</time>
      </trkpt>
      <trkpt lat="44.54249" lon="4.57088">
        <ele>295.20001220703</ele>
        <time>2022-02-20T08:47:09Z</time>
      </trkpt>
      <trkpt lat="44.54249" lon="4.57091">
        <ele>294.79998779297</ele>
        <time>2022-02-20T08:47:08Z</time>
      </trkpt>
      <trkpt lat="44.54249" lon="4.57093">
        <ele>294.39999389648</ele>
        <time>2022-02-20T08:47:07Z</time>
      </trkpt>
      <trkpt lat="44.54248" lon="4.57096">
        <ele>294</ele>
        <time>2022-02-20T08:47:06Z</time>
      </trkpt>
      <trkpt lat="44.54248" lon="4.57098">
        <ele>294</ele>
        <time>2022-02-20T08:47:05Z</time>
      </trkpt>
      <trkpt lat="44.54247" lon="4.57101">
        <ele>293.79998779297</ele>
        <time>2022-02-20T08:47:04Z</time>
      </trkpt>
      <trkpt lat="44.54247" lon="4.57104">
        <ele>293.60000610352</ele>
        <time>2022-02-20T08:47:03Z</time>
      </trkpt>
      <trkpt lat="44.54246" lon="4.57107">
        <ele>293</ele>
        <time>2022-02-20T08:47:02Z</time>
      </trkpt>
      <trkpt lat="44.54245" lon="4.57109">
        <ele>293</ele>
        <time>2022-02-20T08:47:01Z</time>
      </trkpt>
      <trkpt lat="44.54244" lon="4.57112">
        <ele>292.39999389648</ele>
        <time>2022-02-20T08:47:00Z</time>
      </trkpt>
      <trkpt lat="44.54242" lon="4.57114">
        <ele>292.20001220703</ele>
        <time>2022-02-20T08:46:59Z</time>
      </trkpt>
      <trkpt lat="44.54241" lon="4.57116">
        <ele>291.79998779297</ele>
        <time>2022-02-20T08:46:58Z</time>
      </trkpt>
      <trkpt lat="44.5424" lon="4.57119">
        <ele>291.39999389648</ele>
        <time>2022-02-20T08:46:57Z</time>
      </trkpt>
      <trkpt lat="44.54238" lon="4.57121">
        <ele>291</ele>
        <time>2022-02-20T08:46:56Z</time>
      </trkpt>
      <trkpt lat="44.54237" lon="4.57124">
        <ele>290.60000610352</ele>
        <time>2022-02-20T08:46:55Z</time>
      </trkpt>
      <trkpt lat="44.54236" lon="4.57126">
        <ele>290</ele>
        <time>2022-02-20T08:46:54Z</time>
      </trkpt>
      <trkpt lat="44.54234" lon="4.57128">
        <ele>289.39999389648</ele>
        <time>2022-02-20T08:46:53Z</time>
      </trkpt>
      <trkpt lat="44.54233" lon="4.5713">
        <ele>288.79998779297</ele>
        <time>2022-02-20T08:46:52Z</time>
      </trkpt>
      <trkpt lat="44.54232" lon="4.57132">
        <ele>288.20001220703</ele>
        <time>2022-02-20T08:46:51Z</time>
      </trkpt>
      <trkpt lat="44.5423" lon="4.57134">
        <ele>287.79998779297</ele>
        <time>2022-02-20T08:46:50Z</time>
      </trkpt>
      <trkpt lat="44.54229" lon="4.57136">
        <ele>287.60000610352</ele>
        <time>2022-02-20T08:46:49Z</time>
      </trkpt>
      <trkpt lat="44.54227" lon="4.57139">
        <ele>287.20001220703</ele>
        <time>2022-02-20T08:46:48Z</time>
      </trkpt>
      <trkpt lat="44.54226" lon="4.57141">
        <ele>287</ele>
        <time>2022-02-20T08:46:47Z</time>
      </trkpt>
      <trkpt lat="44.54224" lon="4.57143">
        <ele>286.60000610352</ele>
        <time>2022-02-20T08:46:46Z</time>
      </trkpt>
      <trkpt lat="44.54223" lon="4.57146">
        <ele>286.60000610352</ele>
        <time>2022-02-20T08:46:45Z</time>
      </trkpt>
      <trkpt lat="44.54221" lon="4.57148">
        <ele>286.20001220703</ele>
        <time>2022-02-20T08:46:44Z</time>
      </trkpt>
      <trkpt lat="44.5422" lon="4.5715">
        <ele>286.20001220703</ele>
        <time>2022-02-20T08:46:43Z</time>
      </trkpt>
      <trkpt lat="44.54218" lon="4.57151">
        <ele>285.79998779297</ele>
        <time>2022-02-20T08:46:42Z</time>
      </trkpt>
      <trkpt lat="44.54216" lon="4.57153">
        <ele>285.39999389648</ele>
        <time>2022-02-20T08:46:41Z</time>
      </trkpt>
      <trkpt lat="44.54215" lon="4.57154">
        <ele>285.39999389648</ele>
        <time>2022-02-20T08:46:40Z</time>
      </trkpt>
      <trkpt lat="44.54213" lon="4.57156">
        <ele>285.20001220703</ele>
        <time>2022-02-20T08:46:39Z</time>
      </trkpt>
      <trkpt lat="44.54211" lon="4.57157">
        <ele>285</ele>
        <time>2022-02-20T08:46:38Z</time>
      </trkpt>
      <trkpt lat="44.5421" lon="4.57159">
        <ele>284.79998779297</ele>
        <time>2022-02-20T08:46:37Z</time>
      </trkpt>
      <trkpt lat="44.54208" lon="4.5716">
        <ele>284.60000610352</ele>
        <time>2022-02-20T08:46:36Z</time>
      </trkpt>
      <trkpt lat="44.54207" lon="4.57162">
        <ele>284.20001220703</ele>
        <time>2022-02-20T08:46:35Z</time>
      </trkpt>
      <trkpt lat="44.54205" lon="4.57163">
        <ele>284</ele>
        <time>2022-02-20T08:46:34Z</time>
      </trkpt>
      <trkpt lat="44.54204" lon="4.57165">
        <ele>283.60000610352</ele>
        <time>2022-02-20T08:46:33Z</time>
      </trkpt>
      <trkpt lat="44.54202" lon="4.57166">
        <ele>283.20001220703</ele>
        <time>2022-02-20T08:46:32Z</time>
      </trkpt>
      <trkpt lat="44.54201" lon="4.57168">
        <ele>283</ele>
        <time>2022-02-20T08:46:31Z</time>
      </trkpt>
      <trkpt lat="44.54199" lon="4.57169">
        <ele>282.60000610352</ele>
        <time>2022-02-20T08:46:30Z</time>
      </trkpt>
      <trkpt lat="44.54198" lon="4.5717">
        <ele>282.20001220703</ele>
        <time>2022-02-20T08:46:29Z</time>
      </trkpt>
      <trkpt lat="44.54196" lon="4.57171">
        <ele>281.39999389648</ele>
        <time>2022-02-20T08:46:28Z</time>
      </trkpt>
      <trkpt lat="44.54194" lon="4.57172">
        <ele>281.20001220703</ele>
        <time>2022-02-20T08:46:27Z</time>
      </trkpt>
      <trkpt lat="44.54193" lon="4.57174">
        <ele>280.60000610352</ele>
        <time>2022-02-20T08:46:26Z</time>
      </trkpt>
      <trkpt lat="44.54191" lon="4.57175">
        <ele>280</ele>
        <time>2022-02-20T08:46:25Z</time>
      </trkpt>
      <trkpt lat="44.54189" lon="4.57176">
        <ele>279.60000610352</ele>
        <time>2022-02-20T08:46:24Z</time>
      </trkpt>
      <trkpt lat="44.54187" lon="4.57178">
        <ele>279.39999389648</ele>
        <time>2022-02-20T08:46:23Z</time>
      </trkpt>
      <trkpt lat="44.54185" lon="4.5718">
        <ele>279.39999389648</ele>
        <time>2022-02-20T08:46:22Z</time>
      </trkpt>
      <trkpt lat="44.54183" lon="4.57181">
        <ele>279.39999389648</ele>
        <time>2022-02-20T08:46:21Z</time>
      </trkpt>
      <trkpt lat="44.54181" lon="4.57183">
        <ele>279.20001220703</ele>
        <time>2022-02-20T08:46:20Z</time>
      </trkpt>
      <trkpt lat="44.54179" lon="4.57185">
        <ele>279</ele>
        <time>2022-02-20T08:46:19Z</time>
      </trkpt>
      <trkpt lat="44.54178" lon="4.57186">
        <ele>279</ele>
        <time>2022-02-20T08:46:18Z</time>
      </trkpt>
      <trkpt lat="44.54177" lon="4.57188">
        <ele>278.79998779297</ele>
        <time>2022-02-20T08:46:17Z</time>
      </trkpt>
      <trkpt lat="44.54175" lon="4.57191">
        <ele>278.60000610352</ele>
        <time>2022-02-20T08:46:16Z</time>
      </trkpt>
      <trkpt lat="44.54174" lon="4.57193">
        <ele>278.20001220703</ele>
        <time>2022-02-20T08:46:15Z</time>
      </trkpt>
      <trkpt lat="44.54172" lon="4.57196">
        <ele>277.79998779297</ele>
        <time>2022-02-20T08:46:14Z</time>
      </trkpt>
      <trkpt lat="44.54171" lon="4.57199">
        <ele>277.20001220703</ele>
        <time>2022-02-20T08:46:13Z</time>
      </trkpt>
      <trkpt lat="44.54171" lon="4.57202">
        <ele>276.20001220703</ele>
        <time>2022-02-20T08:46:12Z</time>
      </trkpt>
      <trkpt lat="44.5417" lon="4.57204">
        <ele>275.60000610352</ele>
        <time>2022-02-20T08:46:11Z</time>
      </trkpt>
      <trkpt lat="44.54169" lon="4.57207">
        <ele>275.20001220703</ele>
        <time>2022-02-20T08:46:10Z</time>
      </trkpt>
      <trkpt lat="44.54169" lon="4.57209">
        <ele>274.79998779297</ele>
        <time>2022-02-20T08:46:09Z</time>
      </trkpt>
      <trkpt lat="44.54169" lon="4.57211">
        <ele>274.20001220703</ele>
        <time>2022-02-20T08:46:08Z</time>
      </trkpt>
      <trkpt lat="44.54169" lon="4.57213">
        <ele>274</ele>
        <time>2022-02-20T08:46:07Z</time>
      </trkpt>
      <trkpt lat="44.54169" lon="4.57216">
        <ele>273.79998779297</ele>
        <time>2022-02-20T08:46:06Z</time>
      </trkpt>
      <trkpt lat="44.54168" lon="4.57219">
        <ele>273.60000610352</ele>
        <time>2022-02-20T08:46:05Z</time>
      </trkpt>
      <trkpt lat="44.54168" lon="4.57223">
        <ele>273.20001220703</ele>
        <time>2022-02-20T08:46:04Z</time>
      </trkpt>
      <trkpt lat="44.54169" lon="4.57226">
        <ele>273</ele>
        <time>2022-02-20T08:46:03Z</time>
      </trkpt>
      <trkpt lat="44.5417" lon="4.57229">
        <ele>272.79998779297</ele>
        <time>2022-02-20T08:46:02Z</time>
      </trkpt>
      <trkpt lat="44.5417" lon="4.57233">
        <ele>272.20001220703</ele>
        <time>2022-02-20T08:46:01Z</time>
      </trkpt>
      <trkpt lat="44.5417" lon="4.57236">
        <ele>271.79998779297</ele>
        <time>2022-02-20T08:46:00Z</time>
      </trkpt>
      <trkpt lat="44.5417" lon="4.57239">
        <ele>271.79998779297</ele>
        <time>2022-02-20T08:45:59Z</time>
      </trkpt>
      <trkpt lat="44.54171" lon="4.57242">
        <ele>271.39999389648</ele>
        <time>2022-02-20T08:45:58Z</time>
      </trkpt>
      <trkpt lat="44.54171" lon="4.57246">
        <ele>271</ele>
        <time>2022-02-20T08:45:57Z</time>
      </trkpt>
      <trkpt lat="44.54171" lon="4.57249">
        <ele>270.79998779297</ele>
        <time>2022-02-20T08:45:56Z</time>
      </trkpt>
      <trkpt lat="44.5417" lon="4.57253">
        <ele>270.79998779297</ele>
        <time>2022-02-20T08:45:55Z</time>
      </trkpt>
      <trkpt lat="44.5417" lon="4.57256">
        <ele>270.39999389648</ele>
        <time>2022-02-20T08:45:54Z</time>
      </trkpt>
      <trkpt lat="44.5417" lon="4.57259">
        <ele>270</ele>
        <time>2022-02-20T08:45:53Z</time>
      </trkpt>
      <trkpt lat="44.5417" lon="4.57263">
        <ele>269.79998779297</ele>
        <time>2022-02-20T08:45:52Z</time>
      </trkpt>
      <trkpt lat="44.5417" lon="4.57266">
        <ele>269.79998779297</ele>
        <time>2022-02-20T08:45:51Z</time>
      </trkpt>
      <trkpt lat="44.5417" lon="4.57269">
        <ele>269.79998779297</ele>
        <time>2022-02-20T08:45:50Z</time>
      </trkpt>
      <trkpt lat="44.54169" lon="4.57272">
        <ele>269.39999389648</ele>
        <time>2022-02-20T08:45:49Z</time>
      </trkpt>
      <trkpt lat="44.54167" lon="4.57275">
        <ele>269.39999389648</ele>
        <time>2022-02-20T08:45:48Z</time>
      </trkpt>
      <trkpt lat="44.54166" lon="4.57278">
        <ele>269.20001220703</ele>
        <time>2022-02-20T08:45:47Z</time>
      </trkpt>
      <trkpt lat="44.54165" lon="4.5728">
        <ele>268.79998779297</ele>
        <time>2022-02-20T08:45:46Z</time>
      </trkpt>
      <trkpt lat="44.54163" lon="4.57283">
        <ele>268.39999389648</ele>
        <time>2022-02-20T08:45:45Z</time>
      </trkpt>
      <trkpt lat="44.54162" lon="4.57286">
        <ele>267.79998779297</ele>
        <time>2022-02-20T08:45:44Z</time>
      </trkpt>
      <trkpt lat="44.5416" lon="4.57288">
        <ele>267.39999389648</ele>
        <time>2022-02-20T08:45:43Z</time>
      </trkpt>
      <trkpt lat="44.54158" lon="4.5729">
        <ele>266.79998779297</ele>
        <time>2022-02-20T08:45:42Z</time>
      </trkpt>
      <trkpt lat="44.54157" lon="4.57293">
        <ele>266.20001220703</ele>
        <time>2022-02-20T08:45:41Z</time>
      </trkpt>
      <trkpt lat="44.54155" lon="4.57295">
        <ele>266.20001220703</ele>
        <time>2022-02-20T08:45:40Z</time>
      </trkpt>
      <trkpt lat="44.54154" lon="4.57298">
        <ele>266</ele>
        <time>2022-02-20T08:45:39Z</time>
      </trkpt>
      <trkpt lat="44.54151" lon="4.57308">
        <ele>266</ele>
        <time>2022-02-20T08:45:36Z</time>
      </trkpt>
      <trkpt lat="44.5415" lon="4.57311">
        <ele>266</ele>
        <time>2022-02-20T08:45:35Z</time>
      </trkpt>
      <trkpt lat="44.5415" lon="4.57314">
        <ele>266</ele>
        <time>2022-02-20T08:45:34Z</time>
      </trkpt>
      <trkpt lat="44.5415" lon="4.57318">
        <ele>266</ele>
        <time>2022-02-20T08:45:33Z</time>
      </trkpt>
      <trkpt lat="44.54149" lon="4.57321">
        <ele>266</ele>
        <time>2022-02-20T08:45:32Z</time>
      </trkpt>
      <trkpt lat="44.54146" lon="4.57329">
        <ele>266</ele>
        <time>2022-02-20T08:45:29Z</time>
      </trkpt>
      <trkpt lat="44.54143" lon="4.57333">
        <ele>266</ele>
        <time>2022-02-20T08:45:22Z</time>
      </trkpt>
      <trkpt lat="44.54143" lon="4.57333">
        <ele>265.60000610352</ele>
        <time>2022-02-20T08:45:15Z</time>
      </trkpt>
      <trkpt lat="44.54143" lon="4.57333">
        <ele>265.60000610352</ele>
        <time>2022-02-20T08:45:14Z</time>
      </trkpt>
      <trkpt lat="44.54143" lon="4.57334">
        <ele>265.60000610352</ele>
        <time>2022-02-20T08:45:13Z</time>
      </trkpt>
      <trkpt lat="44.54143" lon="4.57336">
        <ele>265.20001220703</ele>
        <time>2022-02-20T08:45:11Z</time>
      </trkpt>
      <trkpt lat="44.54143" lon="4.57337">
        <ele>264.79998779297</ele>
        <time>2022-02-20T08:45:07Z</time>
      </trkpt>
      <trkpt lat="44.54142" lon="4.57338">
        <ele>264.60000610352</ele>
        <time>2022-02-20T08:45:01Z</time>
      </trkpt>
      <trkpt lat="44.54141" lon="4.57339">
        <ele>264.79998779297</ele>
        <time>2022-02-20T08:45:00Z</time>
      </trkpt>
      <trkpt lat="44.54141" lon="4.5734">
        <ele>264.39999389648</ele>
        <time>2022-02-20T08:44:46Z</time>
      </trkpt>
      <trkpt lat="44.54141" lon="4.5734">
        <ele>264.20001220703</ele>
        <time>2022-02-20T08:44:44Z</time>
      </trkpt>
      <trkpt lat="44.54141" lon="4.5734">
        <ele>263.60000610352</ele>
        <time>2022-02-20T08:44:41Z</time>
      </trkpt>
      <trkpt lat="44.54141" lon="4.57341">
        <ele>263.20001220703</ele>
        <time>2022-02-20T08:44:40Z</time>
      </trkpt>
      <trkpt lat="44.54141" lon="4.57342">
        <ele>262.60000610352</ele>
        <time>2022-02-20T08:44:39Z</time>
      </trkpt>
      <trkpt lat="44.5414" lon="4.57344">
        <ele>262.39999389648</ele>
        <time>2022-02-20T08:44:38Z</time>
      </trkpt>
      <trkpt lat="44.5414" lon="4.57346">
        <ele>262.20001220703</ele>
        <time>2022-02-20T08:44:37Z</time>
      </trkpt>
      <trkpt lat="44.5414" lon="4.57347">
        <ele>261.79998779297</ele>
        <time>2022-02-20T08:44:36Z</time>
      </trkpt>
      <trkpt lat="44.54139" lon="4.57349">
        <ele>261.39999389648</ele>
        <time>2022-02-20T08:44:35Z</time>
      </trkpt>
      <trkpt lat="44.54138" lon="4.57351">
        <ele>261.20001220703</ele>
        <time>2022-02-20T08:44:34Z</time>
      </trkpt>
      <trkpt lat="44.54138" lon="4.57353">
        <ele>261</ele>
        <time>2022-02-20T08:44:33Z</time>
      </trkpt>
      <trkpt lat="44.54136" lon="4.57356">
        <ele>261</ele>
        <time>2022-02-20T08:44:32Z</time>
      </trkpt>
      <trkpt lat="44.54135" lon="4.57358">
        <ele>261</ele>
        <time>2022-02-20T08:44:31Z</time>
      </trkpt>
      <trkpt lat="44.54134" lon="4.57361">
        <ele>261</ele>
        <time>2022-02-20T08:44:30Z</time>
      </trkpt>
      <trkpt lat="44.54133" lon="4.57364">
        <ele>261</ele>
        <time>2022-02-20T08:44:29Z</time>
      </trkpt>
      <trkpt lat="44.54131" lon="4.57367">
        <ele>261</ele>
        <time>2022-02-20T08:44:28Z</time>
      </trkpt>
      <trkpt lat="44.5413" lon="4.5737">
        <ele>260.79998779297</ele>
        <time>2022-02-20T08:44:27Z</time>
      </trkpt>
      <trkpt lat="44.54128" lon="4.57373">
        <ele>260.60000610352</ele>
        <time>2022-02-20T08:44:26Z</time>
      </trkpt>
      <trkpt lat="44.54126" lon="4.57376">
        <ele>260.39999389648</ele>
        <time>2022-02-20T08:44:25Z</time>
      </trkpt>
      <trkpt lat="44.54124" lon="4.57379">
        <ele>260</ele>
        <time>2022-02-20T08:44:24Z</time>
      </trkpt>
      <trkpt lat="44.54123" lon="4.57381">
        <ele>260</ele>
        <time>2022-02-20T08:44:23Z</time>
      </trkpt>
      <trkpt lat="44.54121" lon="4.57383">
        <ele>259.60000610352</ele>
        <time>2022-02-20T08:44:22Z</time>
      </trkpt>
      <trkpt lat="44.54119" lon="4.57386">
        <ele>259.39999389648</ele>
        <time>2022-02-20T08:44:21Z</time>
      </trkpt>
      <trkpt lat="44.54118" lon="4.57389">
        <ele>259.20001220703</ele>
        <time>2022-02-20T08:44:20Z</time>
      </trkpt>
      <trkpt lat="44.54116" lon="4.57392">
        <ele>258.79998779297</ele>
        <time>2022-02-20T08:44:19Z</time>
      </trkpt>
      <trkpt lat="44.54114" lon="4.57395">
        <ele>258.39999389648</ele>
        <time>2022-02-20T08:44:18Z</time>
      </trkpt>
      <trkpt lat="44.54112" lon="4.57398">
        <ele>257.79998779297</ele>
        <time>2022-02-20T08:44:17Z</time>
      </trkpt>
      <trkpt lat="44.5411" lon="4.57401">
        <ele>257.60000610352</ele>
        <time>2022-02-20T08:44:16Z</time>
      </trkpt>
      <trkpt lat="44.54108" lon="4.57404">
        <ele>257.39999389648</ele>
        <time>2022-02-20T08:44:15Z</time>
      </trkpt>
      <trkpt lat="44.54106" lon="4.57407">
        <ele>257</ele>
        <time>2022-02-20T08:44:14Z</time>
      </trkpt>
      <trkpt lat="44.54105" lon="4.5741">
        <ele>256.79998779297</ele>
        <time>2022-02-20T08:44:13Z</time>
      </trkpt>
      <trkpt lat="44.54103" lon="4.57414">
        <ele>256.79998779297</ele>
        <time>2022-02-20T08:44:12Z</time>
      </trkpt>
      <trkpt lat="44.54101" lon="4.57417">
        <ele>256.60000610352</ele>
        <time>2022-02-20T08:44:11Z</time>
      </trkpt>
      <trkpt lat="44.54099" lon="4.5742">
        <ele>256.39999389648</ele>
        <time>2022-02-20T08:44:10Z</time>
      </trkpt>
      <trkpt lat="44.54097" lon="4.57423">
        <ele>256.39999389648</ele>
        <time>2022-02-20T08:44:09Z</time>
      </trkpt>
      <trkpt lat="44.54095" lon="4.57427">
        <ele>256</ele>
        <time>2022-02-20T08:44:08Z</time>
      </trkpt>
      <trkpt lat="44.54093" lon="4.5743">
        <ele>255.60000610352</ele>
        <time>2022-02-20T08:44:07Z</time>
      </trkpt>
      <trkpt lat="44.5409" lon="4.57434">
        <ele>255.19999694824</ele>
        <time>2022-02-20T08:44:06Z</time>
      </trkpt>
      <trkpt lat="44.54088" lon="4.57437">
        <ele>254.80000305176</ele>
        <time>2022-02-20T08:44:05Z</time>
      </trkpt>
      <trkpt lat="44.54086" lon="4.5744">
        <ele>254.80000305176</ele>
        <time>2022-02-20T08:44:04Z</time>
      </trkpt>
      <trkpt lat="44.54084" lon="4.57444">
        <ele>254.39999389648</ele>
        <time>2022-02-20T08:44:03Z</time>
      </trkpt>
      <trkpt lat="44.54082" lon="4.57447">
        <ele>254</ele>
        <time>2022-02-20T08:44:02Z</time>
      </trkpt>
      <trkpt lat="44.5408" lon="4.5745">
        <ele>253.60000610352</ele>
        <time>2022-02-20T08:44:01Z</time>
      </trkpt>
      <trkpt lat="44.54078" lon="4.57454">
        <ele>253.39999389648</ele>
        <time>2022-02-20T08:44:00Z</time>
      </trkpt>
      <trkpt lat="44.54076" lon="4.57457">
        <ele>253.19999694824</ele>
        <time>2022-02-20T08:43:59Z</time>
      </trkpt>
      <trkpt lat="44.54074" lon="4.57461">
        <ele>252.80000305176</ele>
        <time>2022-02-20T08:43:58Z</time>
      </trkpt>
      <trkpt lat="44.54072" lon="4.57464">
        <ele>252.80000305176</ele>
        <time>2022-02-20T08:43:57Z</time>
      </trkpt>
      <trkpt lat="44.5407" lon="4.57468">
        <ele>252.60000610352</ele>
        <time>2022-02-20T08:43:56Z</time>
      </trkpt>
      <trkpt lat="44.54068" lon="4.57471">
        <ele>252.19999694824</ele>
        <time>2022-02-20T08:43:55Z</time>
      </trkpt>
      <trkpt lat="44.54066" lon="4.57475">
        <ele>252</ele>
        <time>2022-02-20T08:43:54Z</time>
      </trkpt>
      <trkpt lat="44.54064" lon="4.57478">
        <ele>251.60000610352</ele>
        <time>2022-02-20T08:43:53Z</time>
      </trkpt>
      <trkpt lat="44.54062" lon="4.57481">
        <ele>251.39999389648</ele>
        <time>2022-02-20T08:43:52Z</time>
      </trkpt>
      <trkpt lat="44.5406" lon="4.57485">
        <ele>251</ele>
        <time>2022-02-20T08:43:51Z</time>
      </trkpt>
      <trkpt lat="44.54058" lon="4.57488">
        <ele>250.80000305176</ele>
        <time>2022-02-20T08:43:50Z</time>
      </trkpt>
      <trkpt lat="44.54056" lon="4.57492">
        <ele>250.60000610352</ele>
        <time>2022-02-20T08:43:49Z</time>
      </trkpt>
      <trkpt lat="44.54053" lon="4.57495">
        <ele>250</ele>
        <time>2022-02-20T08:43:48Z</time>
      </trkpt>
      <trkpt lat="44.54051" lon="4.57499">
        <ele>250</ele>
        <time>2022-02-20T08:43:47Z</time>
      </trkpt>
      <trkpt lat="44.54049" lon="4.57502">
        <ele>249.60000610352</ele>
        <time>2022-02-20T08:43:46Z</time>
      </trkpt>
      <trkpt lat="44.54047" lon="4.57506">
        <ele>249.39999389648</ele>
        <time>2022-02-20T08:43:45Z</time>
      </trkpt>
      <trkpt lat="44.54045" lon="4.57509">
        <ele>249.39999389648</ele>
        <time>2022-02-20T08:43:44Z</time>
      </trkpt>
      <trkpt lat="44.54043" lon="4.57513">
        <ele>249.19999694824</ele>
        <time>2022-02-20T08:43:43Z</time>
      </trkpt>
      <trkpt lat="44.54041" lon="4.57516">
        <ele>249.19999694824</ele>
        <time>2022-02-20T08:43:42Z</time>
      </trkpt>
      <trkpt lat="44.54038" lon="4.5752">
        <ele>248.80000305176</ele>
        <time>2022-02-20T08:43:41Z</time>
      </trkpt>
      <trkpt lat="44.54036" lon="4.57523">
        <ele>248.80000305176</ele>
        <time>2022-02-20T08:43:40Z</time>
      </trkpt>
      <trkpt lat="44.54034" lon="4.57526">
        <ele>248.60000610352</ele>
        <time>2022-02-20T08:43:39Z</time>
      </trkpt>
      <trkpt lat="44.54031" lon="4.57529">
        <ele>248.39999389648</ele>
        <time>2022-02-20T08:43:38Z</time>
      </trkpt>
      <trkpt lat="44.54029" lon="4.57532">
        <ele>248.19999694824</ele>
        <time>2022-02-20T08:43:37Z</time>
      </trkpt>
      <trkpt lat="44.54027" lon="4.57536">
        <ele>248.19999694824</ele>
        <time>2022-02-20T08:43:36Z</time>
      </trkpt>
      <trkpt lat="44.54025" lon="4.5754">
        <ele>248</ele>
        <time>2022-02-20T08:43:35Z</time>
      </trkpt>
      <trkpt lat="44.54023" lon="4.57544">
        <ele>248</ele>
        <time>2022-02-20T08:43:34Z</time>
      </trkpt>
      <trkpt lat="44.54021" lon="4.57547">
        <ele>247.80000305176</ele>
        <time>2022-02-20T08:43:33Z</time>
      </trkpt>
      <trkpt lat="44.54019" lon="4.5755">
        <ele>248</ele>
        <time>2022-02-20T08:43:32Z</time>
      </trkpt>
      <trkpt lat="44.54016" lon="4.57553">
        <ele>247.80000305176</ele>
        <time>2022-02-20T08:43:31Z</time>
      </trkpt>
      <trkpt lat="44.54014" lon="4.57556">
        <ele>247.60000610352</ele>
        <time>2022-02-20T08:43:30Z</time>
      </trkpt>
      <trkpt lat="44.54011" lon="4.57559">
        <ele>247.19999694824</ele>
        <time>2022-02-20T08:43:29Z</time>
      </trkpt>
      <trkpt lat="44.54009" lon="4.57561">
        <ele>246.80000305176</ele>
        <time>2022-02-20T08:43:28Z</time>
      </trkpt>
      <trkpt lat="44.54006" lon="4.57563">
        <ele>246.80000305176</ele>
        <time>2022-02-20T08:43:27Z</time>
      </trkpt>
      <trkpt lat="44.54004" lon="4.57566">
        <ele>246.60000610352</ele>
        <time>2022-02-20T08:43:26Z</time>
      </trkpt>
      <trkpt lat="44.53993" lon="4.57576">
        <ele>246.39999389648</ele>
        <time>2022-02-20T08:43:22Z</time>
      </trkpt>
      <trkpt lat="44.5399" lon="4.57579">
        <ele>246.19999694824</ele>
        <time>2022-02-20T08:43:21Z</time>
      </trkpt>
      <trkpt lat="44.53988" lon="4.57582">
        <ele>246</ele>
        <time>2022-02-20T08:43:20Z</time>
      </trkpt>
      <trkpt lat="44.53986" lon="4.57585">
        <ele>246</ele>
        <time>2022-02-20T08:43:19Z</time>
      </trkpt>
      <trkpt lat="44.53983" lon="4.57588">
        <ele>246</ele>
        <time>2022-02-20T08:43:18Z</time>
      </trkpt>
      <trkpt lat="44.53981" lon="4.57592">
        <ele>246</ele>
        <time>2022-02-20T08:43:17Z</time>
      </trkpt>
      <trkpt lat="44.53977" lon="4.576">
        <ele>245.80000305176</ele>
        <time>2022-02-20T08:43:15Z</time>
      </trkpt>
      <trkpt lat="44.53975" lon="4.57604">
        <ele>245.80000305176</ele>
        <time>2022-02-20T08:43:14Z</time>
      </trkpt>
      <trkpt lat="44.53973" lon="4.57609">
        <ele>245.80000305176</ele>
        <time>2022-02-20T08:43:13Z</time>
      </trkpt>
      <trkpt lat="44.53968" lon="4.57623">
        <ele>245.60000610352</ele>
        <time>2022-02-20T08:43:10Z</time>
      </trkpt>
      <trkpt lat="44.53967" lon="4.57627">
        <ele>245.60000610352</ele>
        <time>2022-02-20T08:43:09Z</time>
      </trkpt>
      <trkpt lat="44.5396" lon="4.57651">
        <ele>245.60000610352</ele>
        <time>2022-02-20T08:43:04Z</time>
      </trkpt>
      <trkpt lat="44.53958" lon="4.5766">
        <ele>245.39999389648</ele>
        <time>2022-02-20T08:43:02Z</time>
      </trkpt>
      <trkpt lat="44.53957" lon="4.57665">
        <ele>245.39999389648</ele>
        <time>2022-02-20T08:43:01Z</time>
      </trkpt>
      <trkpt lat="44.53954" lon="4.57675">
        <ele>245.19999694824</ele>
        <time>2022-02-20T08:42:59Z</time>
      </trkpt>
      <trkpt lat="44.53953" lon="4.5768">
        <ele>245</ele>
        <time>2022-02-20T08:42:58Z</time>
      </trkpt>
      <trkpt lat="44.53952" lon="4.57685">
        <ele>245</ele>
        <time>2022-02-20T08:42:57Z</time>
      </trkpt>
      <trkpt lat="44.53945" lon="4.57714">
        <ele>244.19999694824</ele>
        <time>2022-02-20T08:42:51Z</time>
      </trkpt>
      <trkpt lat="44.53944" lon="4.57719">
        <ele>244.19999694824</ele>
        <time>2022-02-20T08:42:50Z</time>
      </trkpt>
      <trkpt lat="44.53943" lon="4.57724">
        <ele>244</ele>
        <time>2022-02-20T08:42:49Z</time>
      </trkpt>
      <trkpt lat="44.53937" lon="4.57744">
        <ele>243.60000610352</ele>
        <time>2022-02-20T08:42:45Z</time>
      </trkpt>
      <trkpt lat="44.53935" lon="4.57748">
        <ele>243.60000610352</ele>
        <time>2022-02-20T08:42:44Z</time>
      </trkpt>
      <trkpt lat="44.53933" lon="4.57752">
        <ele>243.60000610352</ele>
        <time>2022-02-20T08:42:43Z</time>
      </trkpt>
      <trkpt lat="44.53928" lon="4.5776">
        <ele>243.60000610352</ele>
        <time>2022-02-20T08:42:41Z</time>
      </trkpt>
      <trkpt lat="44.53926" lon="4.57764">
        <ele>243.60000610352</ele>
        <time>2022-02-20T08:42:40Z</time>
      </trkpt>
      <trkpt lat="44.53921" lon="4.57771">
        <ele>243.39999389648</ele>
        <time>2022-02-20T08:42:38Z</time>
      </trkpt>
      <trkpt lat="44.53915" lon="4.57778">
        <ele>243.19999694824</ele>
        <time>2022-02-20T08:42:36Z</time>
      </trkpt>
      <trkpt lat="44.53903" lon="4.57789">
        <ele>243</ele>
        <time>2022-02-20T08:42:32Z</time>
      </trkpt>
      <trkpt lat="44.53899" lon="4.57791">
        <ele>243</ele>
        <time>2022-02-20T08:42:31Z</time>
      </trkpt>
      <trkpt lat="44.53896" lon="4.57793">
        <ele>242.80000305176</ele>
        <time>2022-02-20T08:42:30Z</time>
      </trkpt>
      <trkpt lat="44.53893" lon="4.57795">
        <ele>242.60000610352</ele>
        <time>2022-02-20T08:42:29Z</time>
      </trkpt>
      <trkpt lat="44.5389" lon="4.57796">
        <ele>242.60000610352</ele>
        <time>2022-02-20T08:42:28Z</time>
      </trkpt>
      <trkpt lat="44.53886" lon="4.57798">
        <ele>242.60000610352</ele>
        <time>2022-02-20T08:42:27Z</time>
      </trkpt>
      <trkpt lat="44.53883" lon="4.57799">
        <ele>242.39999389648</ele>
        <time>2022-02-20T08:42:26Z</time>
      </trkpt>
      <trkpt lat="44.5388" lon="4.578">
        <ele>242.39999389648</ele>
        <time>2022-02-20T08:42:25Z</time>
      </trkpt>
      <trkpt lat="44.53877" lon="4.57802">
        <ele>242.19999694824</ele>
        <time>2022-02-20T08:42:24Z</time>
      </trkpt>
      <trkpt lat="44.53874" lon="4.57803">
        <ele>242</ele>
        <time>2022-02-20T08:42:23Z</time>
      </trkpt>
      <trkpt lat="44.53871" lon="4.57804">
        <ele>242.19999694824</ele>
        <time>2022-02-20T08:42:22Z</time>
      </trkpt>
      <trkpt lat="44.53868" lon="4.57806">
        <ele>242</ele>
        <time>2022-02-20T08:42:21Z</time>
      </trkpt>
      <trkpt lat="44.53864" lon="4.57807">
        <ele>242</ele>
        <time>2022-02-20T08:42:20Z</time>
      </trkpt>
      <trkpt lat="44.53861" lon="4.57809">
        <ele>242</ele>
        <time>2022-02-20T08:42:19Z</time>
      </trkpt>
      <trkpt lat="44.53859" lon="4.5781">
        <ele>242</ele>
        <time>2022-02-20T08:42:18Z</time>
      </trkpt>
      <trkpt lat="44.53856" lon="4.57812">
        <ele>241.80000305176</ele>
        <time>2022-02-20T08:42:17Z</time>
      </trkpt>
      <trkpt lat="44.53853" lon="4.57814">
        <ele>241.60000610352</ele>
        <time>2022-02-20T08:42:16Z</time>
      </trkpt>
      <trkpt lat="44.5385" lon="4.57816">
        <ele>241.19999694824</ele>
        <time>2022-02-20T08:42:15Z</time>
      </trkpt>
      <trkpt lat="44.53847" lon="4.57819">
        <ele>241.19999694824</ele>
        <time>2022-02-20T08:42:14Z</time>
      </trkpt>
      <trkpt lat="44.53844" lon="4.57821">
        <ele>240.80000305176</ele>
        <time>2022-02-20T08:42:13Z</time>
      </trkpt>
      <trkpt lat="44.53842" lon="4.57823">
        <ele>240.80000305176</ele>
        <time>2022-02-20T08:42:12Z</time>
      </trkpt>
      <trkpt lat="44.53839" lon="4.57825">
        <ele>240.39999389648</ele>
        <time>2022-02-20T08:42:11Z</time>
      </trkpt>
      <trkpt lat="44.53836" lon="4.57827">
        <ele>240.39999389648</ele>
        <time>2022-02-20T08:42:10Z</time>
      </trkpt>
      <trkpt lat="44.53834" lon="4.57829">
        <ele>240.19999694824</ele>
        <time>2022-02-20T08:42:09Z</time>
      </trkpt>
      <trkpt lat="44.53832" lon="4.57832">
        <ele>240.19999694824</ele>
        <time>2022-02-20T08:42:08Z</time>
      </trkpt>
      <trkpt lat="44.53829" lon="4.57834">
        <ele>240</ele>
        <time>2022-02-20T08:42:07Z</time>
      </trkpt>
      <trkpt lat="44.53827" lon="4.57836">
        <ele>239.80000305176</ele>
        <time>2022-02-20T08:42:06Z</time>
      </trkpt>
      <trkpt lat="44.53824" lon="4.57838">
        <ele>240</ele>
        <time>2022-02-20T08:42:05Z</time>
      </trkpt>
      <trkpt lat="44.53822" lon="4.5784">
        <ele>239.60000610352</ele>
        <time>2022-02-20T08:42:04Z</time>
      </trkpt>
      <trkpt lat="44.5382" lon="4.57842">
        <ele>239.60000610352</ele>
        <time>2022-02-20T08:42:03Z</time>
      </trkpt>
      <trkpt lat="44.53817" lon="4.57843">
        <ele>239.60000610352</ele>
        <time>2022-02-20T08:42:02Z</time>
      </trkpt>
      <trkpt lat="44.53815" lon="4.57845">
        <ele>239.39999389648</ele>
        <time>2022-02-20T08:42:01Z</time>
      </trkpt>
      <trkpt lat="44.53813" lon="4.57847">
        <ele>239.39999389648</ele>
        <time>2022-02-20T08:42:00Z</time>
      </trkpt>
      <trkpt lat="44.5381" lon="4.57849">
        <ele>239.19999694824</ele>
        <time>2022-02-20T08:41:59Z</time>
      </trkpt>
      <trkpt lat="44.53808" lon="4.5785">
        <ele>238.60000610352</ele>
        <time>2022-02-20T08:41:58Z</time>
      </trkpt>
      <trkpt lat="44.53806" lon="4.57852">
        <ele>238.80000305176</ele>
        <time>2022-02-20T08:41:57Z</time>
      </trkpt>
      <trkpt lat="44.53803" lon="4.57854">
        <ele>238.80000305176</ele>
        <time>2022-02-20T08:41:56Z</time>
      </trkpt>
      <trkpt lat="44.53801" lon="4.57855">
        <ele>238.39999389648</ele>
        <time>2022-02-20T08:41:55Z</time>
      </trkpt>
      <trkpt lat="44.53799" lon="4.57857">
        <ele>238</ele>
        <time>2022-02-20T08:41:54Z</time>
      </trkpt>
      <trkpt lat="44.53797" lon="4.57859">
        <ele>238</ele>
        <time>2022-02-20T08:41:53Z</time>
      </trkpt>
      <trkpt lat="44.53795" lon="4.57861">
        <ele>237.80000305176</ele>
        <time>2022-02-20T08:41:52Z</time>
      </trkpt>
      <trkpt lat="44.53792" lon="4.57863">
        <ele>237.80000305176</ele>
        <time>2022-02-20T08:41:51Z</time>
      </trkpt>
      <trkpt lat="44.5379" lon="4.57865">
        <ele>237.60000610352</ele>
        <time>2022-02-20T08:41:50Z</time>
      </trkpt>
      <trkpt lat="44.53788" lon="4.57866">
        <ele>237.60000610352</ele>
        <time>2022-02-20T08:41:49Z</time>
      </trkpt>
      <trkpt lat="44.53786" lon="4.57868">
        <ele>237.19999694824</ele>
        <time>2022-02-20T08:41:48Z</time>
      </trkpt>
      <trkpt lat="44.53784" lon="4.57871">
        <ele>237.19999694824</ele>
        <time>2022-02-20T08:41:47Z</time>
      </trkpt>
      <trkpt lat="44.53782" lon="4.57873">
        <ele>237.19999694824</ele>
        <time>2022-02-20T08:41:46Z</time>
      </trkpt>
      <trkpt lat="44.5378" lon="4.57875">
        <ele>237</ele>
        <time>2022-02-20T08:41:45Z</time>
      </trkpt>
      <trkpt lat="44.53778" lon="4.57877">
        <ele>236.80000305176</ele>
        <time>2022-02-20T08:41:44Z</time>
      </trkpt>
      <trkpt lat="44.53776" lon="4.57879">
        <ele>236.60000610352</ele>
        <time>2022-02-20T08:41:43Z</time>
      </trkpt>
      <trkpt lat="44.53774" lon="4.57882">
        <ele>236.19999694824</ele>
        <time>2022-02-20T08:41:42Z</time>
      </trkpt>
      <trkpt lat="44.53773" lon="4.57884">
        <ele>236</ele>
        <time>2022-02-20T08:41:41Z</time>
      </trkpt>
      <trkpt lat="44.53771" lon="4.57887">
        <ele>235.80000305176</ele>
        <time>2022-02-20T08:41:40Z</time>
      </trkpt>
      <trkpt lat="44.53769" lon="4.5789">
        <ele>235.60000610352</ele>
        <time>2022-02-20T08:41:39Z</time>
      </trkpt>
      <trkpt lat="44.53768" lon="4.57892">
        <ele>235.39999389648</ele>
        <time>2022-02-20T08:41:38Z</time>
      </trkpt>
      <trkpt lat="44.53766" lon="4.57895">
        <ele>235</ele>
        <time>2022-02-20T08:41:37Z</time>
      </trkpt>
      <trkpt lat="44.53765" lon="4.57898">
        <ele>234.80000305176</ele>
        <time>2022-02-20T08:41:36Z</time>
      </trkpt>
      <trkpt lat="44.53763" lon="4.579">
        <ele>234.60000610352</ele>
        <time>2022-02-20T08:41:35Z</time>
      </trkpt>
      <trkpt lat="44.53762" lon="4.57903">
        <ele>234.60000610352</ele>
        <time>2022-02-20T08:41:34Z</time>
      </trkpt>
      <trkpt lat="44.53761" lon="4.57906">
        <ele>234.39999389648</ele>
        <time>2022-02-20T08:41:33Z</time>
      </trkpt>
      <trkpt lat="44.5376" lon="4.57909">
        <ele>234.19999694824</ele>
        <time>2022-02-20T08:41:32Z</time>
      </trkpt>
      <trkpt lat="44.53758" lon="4.57912">
        <ele>234</ele>
        <time>2022-02-20T08:41:31Z</time>
      </trkpt>
      <trkpt lat="44.53757" lon="4.57914">
        <ele>233.80000305176</ele>
        <time>2022-02-20T08:41:30Z</time>
      </trkpt>
      <trkpt lat="44.53756" lon="4.57917">
        <ele>233.80000305176</ele>
        <time>2022-02-20T08:41:29Z</time>
      </trkpt>
      <trkpt lat="44.53755" lon="4.5792">
        <ele>233.60000610352</ele>
        <time>2022-02-20T08:41:28Z</time>
      </trkpt>
      <trkpt lat="44.53753" lon="4.57923">
        <ele>233.60000610352</ele>
        <time>2022-02-20T08:41:27Z</time>
      </trkpt>
      <trkpt lat="44.53752" lon="4.57925">
        <ele>233.39999389648</ele>
        <time>2022-02-20T08:41:26Z</time>
      </trkpt>
      <trkpt lat="44.5375" lon="4.57928">
        <ele>233.19999694824</ele>
        <time>2022-02-20T08:41:25Z</time>
      </trkpt>
      <trkpt lat="44.53749" lon="4.57931">
        <ele>232.80000305176</ele>
        <time>2022-02-20T08:41:24Z</time>
      </trkpt>
      <trkpt lat="44.53747" lon="4.57933">
        <ele>232.60000610352</ele>
        <time>2022-02-20T08:41:23Z</time>
      </trkpt>
      <trkpt lat="44.53746" lon="4.57936">
        <ele>232.60000610352</ele>
        <time>2022-02-20T08:41:22Z</time>
      </trkpt>
      <trkpt lat="44.53744" lon="4.57939">
        <ele>232.39999389648</ele>
        <time>2022-02-20T08:41:21Z</time>
      </trkpt>
      <trkpt lat="44.53743" lon="4.57942">
        <ele>232.19999694824</ele>
        <time>2022-02-20T08:41:20Z</time>
      </trkpt>
      <trkpt lat="44.53741" lon="4.57944">
        <ele>232</ele>
        <time>2022-02-20T08:41:19Z</time>
      </trkpt>
      <trkpt lat="44.5374" lon="4.57947">
        <ele>232</ele>
        <time>2022-02-20T08:41:18Z</time>
      </trkpt>
      <trkpt lat="44.53739" lon="4.5795">
        <ele>231.80000305176</ele>
        <time>2022-02-20T08:41:17Z</time>
      </trkpt>
      <trkpt lat="44.53737" lon="4.57952">
        <ele>231.39999389648</ele>
        <time>2022-02-20T08:41:16Z</time>
      </trkpt>
      <trkpt lat="44.53736" lon="4.57955">
        <ele>231.39999389648</ele>
        <time>2022-02-20T08:41:15Z</time>
      </trkpt>
      <trkpt lat="44.53734" lon="4.57957">
        <ele>231.19999694824</ele>
        <time>2022-02-20T08:41:14Z</time>
      </trkpt>
      <trkpt lat="44.53733" lon="4.5796">
        <ele>231</ele>
        <time>2022-02-20T08:41:13Z</time>
      </trkpt>
      <trkpt lat="44.53731" lon="4.57963">
        <ele>231</ele>
        <time>2022-02-20T08:41:12Z</time>
      </trkpt>
      <trkpt lat="44.5373" lon="4.57965">
        <ele>230.80000305176</ele>
        <time>2022-02-20T08:41:11Z</time>
      </trkpt>
      <trkpt lat="44.53728" lon="4.57968">
        <ele>230.39999389648</ele>
        <time>2022-02-20T08:41:10Z</time>
      </trkpt>
      <trkpt lat="44.53726" lon="4.57971">
        <ele>230.19999694824</ele>
        <time>2022-02-20T08:41:09Z</time>
      </trkpt>
      <trkpt lat="44.53724" lon="4.57973">
        <ele>230</ele>
        <time>2022-02-20T08:41:08Z</time>
      </trkpt>
      <trkpt lat="44.53722" lon="4.57976">
        <ele>229.80000305176</ele>
        <time>2022-02-20T08:41:07Z</time>
      </trkpt>
      <trkpt lat="44.5372" lon="4.57978">
        <ele>229.60000610352</ele>
        <time>2022-02-20T08:41:06Z</time>
      </trkpt>
      <trkpt lat="44.53718" lon="4.57981">
        <ele>229.39999389648</ele>
        <time>2022-02-20T08:41:05Z</time>
      </trkpt>
      <trkpt lat="44.53716" lon="4.57983">
        <ele>229.19999694824</ele>
        <time>2022-02-20T08:41:04Z</time>
      </trkpt>
      <trkpt lat="44.53714" lon="4.57984">
        <ele>229.19999694824</ele>
        <time>2022-02-20T08:41:03Z</time>
      </trkpt>
      <trkpt lat="44.53713" lon="4.57986">
        <ele>228.80000305176</ele>
        <time>2022-02-20T08:41:02Z</time>
      </trkpt>
      <trkpt lat="44.53711" lon="4.57989">
        <ele>228.80000305176</ele>
        <time>2022-02-20T08:41:01Z</time>
      </trkpt>
      <trkpt lat="44.53711" lon="4.57991">
        <ele>228.60000610352</ele>
        <time>2022-02-20T08:41:00Z</time>
      </trkpt>
      <trkpt lat="44.53711" lon="4.57994">
        <ele>228.39999389648</ele>
        <time>2022-02-20T08:40:59Z</time>
      </trkpt>
      <trkpt lat="44.5371" lon="4.57997">
        <ele>228.19999694824</ele>
        <time>2022-02-20T08:40:58Z</time>
      </trkpt>
      <trkpt lat="44.53709" lon="4.58">
        <ele>228</ele>
        <time>2022-02-20T08:40:57Z</time>
      </trkpt>
      <trkpt lat="44.53708" lon="4.58002">
        <ele>228.19999694824</ele>
        <time>2022-02-20T08:40:56Z</time>
      </trkpt>
      <trkpt lat="44.53707" lon="4.58004">
        <ele>228</ele>
        <time>2022-02-20T08:40:55Z</time>
      </trkpt>
      <trkpt lat="44.53706" lon="4.58005">
        <ele>227.80000305176</ele>
        <time>2022-02-20T08:40:54Z</time>
      </trkpt>
      <trkpt lat="44.53705" lon="4.58006">
        <ele>227.39999389648</ele>
        <time>2022-02-20T08:40:53Z</time>
      </trkpt>
      <trkpt lat="44.53703" lon="4.58007">
        <ele>227.39999389648</ele>
        <time>2022-02-20T08:40:52Z</time>
      </trkpt>
      <trkpt lat="44.53702" lon="4.58008">
        <ele>227</ele>
        <time>2022-02-20T08:40:51Z</time>
      </trkpt>
      <trkpt lat="44.537" lon="4.58008">
        <ele>227</ele>
        <time>2022-02-20T08:40:50Z</time>
      </trkpt>
      <trkpt lat="44.53698" lon="4.58009">
        <ele>227</ele>
        <time>2022-02-20T08:40:49Z</time>
      </trkpt>
      <trkpt lat="44.53697" lon="4.58011">
        <ele>227</ele>
        <time>2022-02-20T08:40:48Z</time>
      </trkpt>
      <trkpt lat="44.53695" lon="4.58013">
        <ele>226.60000610352</ele>
        <time>2022-02-20T08:40:47Z</time>
      </trkpt>
      <trkpt lat="44.53695" lon="4.58015">
        <ele>226.19999694824</ele>
        <time>2022-02-20T08:40:46Z</time>
      </trkpt>
      <trkpt lat="44.53694" lon="4.58018">
        <ele>226</ele>
        <time>2022-02-20T08:40:45Z</time>
      </trkpt>
      <trkpt lat="44.53695" lon="4.5802">
        <ele>226</ele>
        <time>2022-02-20T08:40:44Z</time>
      </trkpt>
      <trkpt lat="44.53695" lon="4.58023">
        <ele>225.60000610352</ele>
        <time>2022-02-20T08:40:43Z</time>
      </trkpt>
      <trkpt lat="44.53694" lon="4.58025">
        <ele>225.60000610352</ele>
        <time>2022-02-20T08:40:42Z</time>
      </trkpt>
      <trkpt lat="44.53694" lon="4.58028">
        <ele>225.19999694824</ele>
        <time>2022-02-20T08:40:41Z</time>
      </trkpt>
      <trkpt lat="44.53694" lon="4.58031">
        <ele>224.80000305176</ele>
        <time>2022-02-20T08:40:40Z</time>
      </trkpt>
      <trkpt lat="44.53695" lon="4.58034">
        <ele>224.39999389648</ele>
        <time>2022-02-20T08:40:39Z</time>
      </trkpt>
      <trkpt lat="44.53695" lon="4.58036">
        <ele>224.19999694824</ele>
        <time>2022-02-20T08:40:38Z</time>
      </trkpt>
      <trkpt lat="44.53695" lon="4.58038">
        <ele>224</ele>
        <time>2022-02-20T08:40:37Z</time>
      </trkpt>
      <trkpt lat="44.53696" lon="4.58041">
        <ele>224</ele>
        <time>2022-02-20T08:40:36Z</time>
      </trkpt>
      <trkpt lat="44.53697" lon="4.58044">
        <ele>223.80000305176</ele>
        <time>2022-02-20T08:40:35Z</time>
      </trkpt>
      <trkpt lat="44.53698" lon="4.58047">
        <ele>223.80000305176</ele>
        <time>2022-02-20T08:40:34Z</time>
      </trkpt>
      <trkpt lat="44.53699" lon="4.5805">
        <ele>223.60000610352</ele>
        <time>2022-02-20T08:40:33Z</time>
      </trkpt>
      <trkpt lat="44.53699" lon="4.58052">
        <ele>223.39999389648</ele>
        <time>2022-02-20T08:40:32Z</time>
      </trkpt>
      <trkpt lat="44.53699" lon="4.58054">
        <ele>223.39999389648</ele>
        <time>2022-02-20T08:40:31Z</time>
      </trkpt>
      <trkpt lat="44.53699" lon="4.58056">
        <ele>223.19999694824</ele>
        <time>2022-02-20T08:40:30Z</time>
      </trkpt>
      <trkpt lat="44.53699" lon="4.58059">
        <ele>223.19999694824</ele>
        <time>2022-02-20T08:40:29Z</time>
      </trkpt>
      <trkpt lat="44.53699" lon="4.58063">
        <ele>222.80000305176</ele>
        <time>2022-02-20T08:40:28Z</time>
      </trkpt>
      <trkpt lat="44.53699" lon="4.58065">
        <ele>222.80000305176</ele>
        <time>2022-02-20T08:40:27Z</time>
      </trkpt>
      <trkpt lat="44.53699" lon="4.58072">
        <ele>222.80000305176</ele>
        <time>2022-02-20T08:40:25Z</time>
      </trkpt>
      <trkpt lat="44.53699" lon="4.58075">
        <ele>222.60000610352</ele>
        <time>2022-02-20T08:40:24Z</time>
      </trkpt>
      <trkpt lat="44.53699" lon="4.58081">
        <ele>222.39999389648</ele>
        <time>2022-02-20T08:40:22Z</time>
      </trkpt>
      <trkpt lat="44.53699" lon="4.58085">
        <ele>222.19999694824</ele>
        <time>2022-02-20T08:40:21Z</time>
      </trkpt>
      <trkpt lat="44.537" lon="4.58088">
        <ele>222</ele>
        <time>2022-02-20T08:40:20Z</time>
      </trkpt>
      <trkpt lat="44.537" lon="4.58094">
        <ele>222</ele>
        <time>2022-02-20T08:40:18Z</time>
      </trkpt>
      <trkpt lat="44.53701" lon="4.58101">
        <ele>221.80000305176</ele>
        <time>2022-02-20T08:40:16Z</time>
      </trkpt>
      <trkpt lat="44.53701" lon="4.58105">
        <ele>221.80000305176</ele>
        <time>2022-02-20T08:40:15Z</time>
      </trkpt>
      <trkpt lat="44.53702" lon="4.58112">
        <ele>221.60000610352</ele>
        <time>2022-02-20T08:40:13Z</time>
      </trkpt>
      <trkpt lat="44.53703" lon="4.58119">
        <ele>221.39999389648</ele>
        <time>2022-02-20T08:40:11Z</time>
      </trkpt>
      <trkpt lat="44.53703" lon="4.58126">
        <ele>221.19999694824</ele>
        <time>2022-02-20T08:40:09Z</time>
      </trkpt>
      <trkpt lat="44.53704" lon="4.5813">
        <ele>221.19999694824</ele>
        <time>2022-02-20T08:40:08Z</time>
      </trkpt>
      <trkpt lat="44.53704" lon="4.58133">
        <ele>221.19999694824</ele>
        <time>2022-02-20T08:40:07Z</time>
      </trkpt>
      <trkpt lat="44.53704" lon="4.58136">
        <ele>221</ele>
        <time>2022-02-20T08:40:06Z</time>
      </trkpt>
      <trkpt lat="44.53705" lon="4.5814">
        <ele>221</ele>
        <time>2022-02-20T08:40:05Z</time>
      </trkpt>
      <trkpt lat="44.53706" lon="4.58153">
        <ele>220.39999389648</ele>
        <time>2022-02-20T08:40:02Z</time>
      </trkpt>
      <trkpt lat="44.53706" lon="4.58166">
        <ele>220.19999694824</ele>
        <time>2022-02-20T08:39:59Z</time>
      </trkpt>
      <trkpt lat="44.53706" lon="4.5817">
        <ele>220.19999694824</ele>
        <time>2022-02-20T08:39:58Z</time>
      </trkpt>
      <trkpt lat="44.53707" lon="4.58173">
        <ele>220.19999694824</ele>
        <time>2022-02-20T08:39:57Z</time>
      </trkpt>
      <trkpt lat="44.53707" lon="4.58175">
        <ele>220</ele>
        <time>2022-02-20T08:39:56Z</time>
      </trkpt>
      <trkpt lat="44.53707" lon="4.58178">
        <ele>219.80000305176</ele>
        <time>2022-02-20T08:39:55Z</time>
      </trkpt>
      <trkpt lat="44.53707" lon="4.58181">
        <ele>219.60000610352</ele>
        <time>2022-02-20T08:39:54Z</time>
      </trkpt>
      <trkpt lat="44.53705" lon="4.58184">
        <ele>219.60000610352</ele>
        <time>2022-02-20T08:39:53Z</time>
      </trkpt>
      <trkpt lat="44.53703" lon="4.58187">
        <ele>219.80000305176</ele>
        <time>2022-02-20T08:39:52Z</time>
      </trkpt>
      <trkpt lat="44.53701" lon="4.58188">
        <ele>219.80000305176</ele>
        <time>2022-02-20T08:39:51Z</time>
      </trkpt>
      <trkpt lat="44.53698" lon="4.58188">
        <ele>219.60000610352</ele>
        <time>2022-02-20T08:39:50Z</time>
      </trkpt>
      <trkpt lat="44.53695" lon="4.58189">
        <ele>219.80000305176</ele>
        <time>2022-02-20T08:39:49Z</time>
      </trkpt>
      <trkpt lat="44.53692" lon="4.5819">
        <ele>219.80000305176</ele>
        <time>2022-02-20T08:39:48Z</time>
      </trkpt>
      <trkpt lat="44.53689" lon="4.58192">
        <ele>219.80000305176</ele>
        <time>2022-02-20T08:39:47Z</time>
      </trkpt>
      <trkpt lat="44.53686" lon="4.58194">
        <ele>219.80000305176</ele>
        <time>2022-02-20T08:39:46Z</time>
      </trkpt>
      <trkpt lat="44.53676" lon="4.582">
        <ele>220</ele>
        <time>2022-02-20T08:39:43Z</time>
      </trkpt>
      <trkpt lat="44.53673" lon="4.58202">
        <ele>220</ele>
        <time>2022-02-20T08:39:42Z</time>
      </trkpt>
      <trkpt lat="44.5367" lon="4.58205">
        <ele>220</ele>
        <time>2022-02-20T08:39:41Z</time>
      </trkpt>
      <trkpt lat="44.53667" lon="4.58208">
        <ele>220</ele>
        <time>2022-02-20T08:39:40Z</time>
      </trkpt>
      <trkpt lat="44.53664" lon="4.58211">
        <ele>219.80000305176</ele>
        <time>2022-02-20T08:39:39Z</time>
      </trkpt>
      <trkpt lat="44.53662" lon="4.58215">
        <ele>220</ele>
        <time>2022-02-20T08:39:38Z</time>
      </trkpt>
      <trkpt lat="44.53661" lon="4.58221">
        <ele>220</ele>
        <time>2022-02-20T08:39:37Z</time>
      </trkpt>
      <trkpt lat="44.53659" lon="4.58233">
        <ele>220</ele>
        <time>2022-02-20T08:39:35Z</time>
      </trkpt>
      <trkpt lat="44.53653" lon="4.58284">
        <ele>220.19999694824</ele>
        <time>2022-02-20T08:39:26Z</time>
      </trkpt>
      <trkpt lat="44.53652" lon="4.58295">
        <ele>220.19999694824</ele>
        <time>2022-02-20T08:39:24Z</time>
      </trkpt>
      <trkpt lat="44.53651" lon="4.58305">
        <ele>220.19999694824</ele>
        <time>2022-02-20T08:39:22Z</time>
      </trkpt>
      <trkpt lat="44.53651" lon="4.5831">
        <ele>220.19999694824</ele>
        <time>2022-02-20T08:39:21Z</time>
      </trkpt>
      <trkpt lat="44.5365" lon="4.58316">
        <ele>220.19999694824</ele>
        <time>2022-02-20T08:39:20Z</time>
      </trkpt>
      <trkpt lat="44.5365" lon="4.58321">
        <ele>220.39999389648</ele>
        <time>2022-02-20T08:39:19Z</time>
      </trkpt>
      <trkpt lat="44.53648" lon="4.58339">
        <ele>220.39999389648</ele>
        <time>2022-02-20T08:39:16Z</time>
      </trkpt>
      <trkpt lat="44.53647" lon="4.58345">
        <ele>220.39999389648</ele>
        <time>2022-02-20T08:39:15Z</time>
      </trkpt>
      <trkpt lat="44.53647" lon="4.58351">
        <ele>220.39999389648</ele>
        <time>2022-02-20T08:39:14Z</time>
      </trkpt>
      <trkpt lat="44.53646" lon="4.58357">
        <ele>220.60000610352</ele>
        <time>2022-02-20T08:39:13Z</time>
      </trkpt>
      <trkpt lat="44.53645" lon="4.58363">
        <ele>220.60000610352</ele>
        <time>2022-02-20T08:39:12Z</time>
      </trkpt>
      <trkpt lat="44.53644" lon="4.58369">
        <ele>220.80000305176</ele>
        <time>2022-02-20T08:39:11Z</time>
      </trkpt>
      <trkpt lat="44.53643" lon="4.58376">
        <ele>221</ele>
        <time>2022-02-20T08:39:10Z</time>
      </trkpt>
      <trkpt lat="44.53641" lon="4.5839">
        <ele>221.80000305176</ele>
        <time>2022-02-20T08:39:08Z</time>
      </trkpt>
      <trkpt lat="44.5364" lon="4.58396">
        <ele>222.39999389648</ele>
        <time>2022-02-20T08:39:07Z</time>
      </trkpt>
      <trkpt lat="44.53638" lon="4.58402">
        <ele>222.60000610352</ele>
        <time>2022-02-20T08:39:06Z</time>
      </trkpt>
      <trkpt lat="44.53637" lon="4.58408">
        <ele>223</ele>
        <time>2022-02-20T08:39:05Z</time>
      </trkpt>
      <trkpt lat="44.53635" lon="4.58413">
        <ele>223.60000610352</ele>
        <time>2022-02-20T08:39:04Z</time>
      </trkpt>
      <trkpt lat="44.53634" lon="4.5842">
        <ele>224.19999694824</ele>
        <time>2022-02-20T08:39:03Z</time>
      </trkpt>
      <trkpt lat="44.53633" lon="4.58428">
        <ele>225</ele>
        <time>2022-02-20T08:39:02Z</time>
      </trkpt>
      <trkpt lat="44.53632" lon="4.58437">
        <ele>225.60000610352</ele>
        <time>2022-02-20T08:39:01Z</time>
      </trkpt>
      <trkpt lat="44.53632" lon="4.58448">
        <ele>226.60000610352</ele>
        <time>2022-02-20T08:39:00Z</time>
      </trkpt>
      <trkpt lat="44.5363" lon="4.58471">
        <ele>227</ele>
        <time>2022-02-20T08:38:58Z</time>
      </trkpt>
      <trkpt lat="44.53628" lon="4.58495">
        <ele>227.80000305176</ele>
        <time>2022-02-20T08:38:56Z</time>
      </trkpt>
      <trkpt lat="44.53627" lon="4.58507">
        <ele>228.39999389648</ele>
        <time>2022-02-20T08:38:55Z</time>
      </trkpt>
      <trkpt lat="44.53626" lon="4.58531">
        <ele>229.19999694824</ele>
        <time>2022-02-20T08:38:53Z</time>
      </trkpt>
      <trkpt lat="44.53623" lon="4.58554">
        <ele>229.60000610352</ele>
        <time>2022-02-20T08:38:51Z</time>
      </trkpt>
      <trkpt lat="44.53621" lon="4.58576">
        <ele>229.80000305176</ele>
        <time>2022-02-20T08:38:49Z</time>
      </trkpt>
      <trkpt lat="44.53621" lon="4.58586">
        <ele>229.80000305176</ele>
        <time>2022-02-20T08:38:48Z</time>
      </trkpt>
      <trkpt lat="44.53621" lon="4.58606">
        <ele>230</ele>
        <time>2022-02-20T08:38:46Z</time>
      </trkpt>
      <trkpt lat="44.53621" lon="4.58616">
        <ele>230.19999694824</ele>
        <time>2022-02-20T08:38:45Z</time>
      </trkpt>
      <trkpt lat="44.53619" lon="4.58633">
        <ele>230.19999694824</ele>
        <time>2022-02-20T08:38:43Z</time>
      </trkpt>
      <trkpt lat="44.53618" lon="4.5864">
        <ele>230.39999389648</ele>
        <time>2022-02-20T08:38:42Z</time>
      </trkpt>
      <trkpt lat="44.53616" lon="4.58648">
        <ele>230.60000610352</ele>
        <time>2022-02-20T08:38:41Z</time>
      </trkpt>
      <trkpt lat="44.53614" lon="4.58655">
        <ele>230.60000610352</ele>
        <time>2022-02-20T08:38:40Z</time>
      </trkpt>
      <trkpt lat="44.53612" lon="4.58661">
        <ele>230.80000305176</ele>
        <time>2022-02-20T08:38:39Z</time>
      </trkpt>
      <trkpt lat="44.53609" lon="4.58667">
        <ele>230.80000305176</ele>
        <time>2022-02-20T08:38:38Z</time>
      </trkpt>
      <trkpt lat="44.53605" lon="4.58672">
        <ele>231.19999694824</ele>
        <time>2022-02-20T08:38:37Z</time>
      </trkpt>
      <trkpt lat="44.53601" lon="4.58676">
        <ele>231.19999694824</ele>
        <time>2022-02-20T08:38:36Z</time>
      </trkpt>
      <trkpt lat="44.53575" lon="4.58691">
        <ele>231.39999389648</ele>
        <time>2022-02-20T08:38:31Z</time>
      </trkpt>
      <trkpt lat="44.5357" lon="4.58693">
        <ele>231.39999389648</ele>
        <time>2022-02-20T08:38:30Z</time>
      </trkpt>
      <trkpt lat="44.53565" lon="4.58695">
        <ele>231.80000305176</ele>
        <time>2022-02-20T08:38:29Z</time>
      </trkpt>
      <trkpt lat="44.53559" lon="4.58697">
        <ele>231.60000610352</ele>
        <time>2022-02-20T08:38:28Z</time>
      </trkpt>
      <trkpt lat="44.53554" lon="4.587">
        <ele>232</ele>
        <time>2022-02-20T08:38:27Z</time>
      </trkpt>
      <trkpt lat="44.53549" lon="4.58704">
        <ele>232.19999694824</ele>
        <time>2022-02-20T08:38:26Z</time>
      </trkpt>
      <trkpt lat="44.53544" lon="4.58708">
        <ele>232.60000610352</ele>
        <time>2022-02-20T08:38:25Z</time>
      </trkpt>
      <trkpt lat="44.53522" lon="4.58731">
        <ele>233.60000610352</ele>
        <time>2022-02-20T08:38:20Z</time>
      </trkpt>
      <trkpt lat="44.53519" lon="4.58735">
        <ele>234</ele>
        <time>2022-02-20T08:38:19Z</time>
      </trkpt>
      <trkpt lat="44.53516" lon="4.58739">
        <ele>233.80000305176</ele>
        <time>2022-02-20T08:38:18Z</time>
      </trkpt>
      <trkpt lat="44.53516" lon="4.58745">
        <ele>233.80000305176</ele>
        <time>2022-02-20T08:38:17Z</time>
      </trkpt>
      <trkpt lat="44.53519" lon="4.58758">
        <ele>234</ele>
        <time>2022-02-20T08:38:15Z</time>
      </trkpt>
      <trkpt lat="44.53522" lon="4.58764">
        <ele>234</ele>
        <time>2022-02-20T08:38:14Z</time>
      </trkpt>
      <trkpt lat="44.53538" lon="4.58786">
        <ele>234</ele>
        <time>2022-02-20T08:38:10Z</time>
      </trkpt>
      <trkpt lat="44.53549" lon="4.58803">
        <ele>234.39999389648</ele>
        <time>2022-02-20T08:38:07Z</time>
      </trkpt>
      <trkpt lat="44.53552" lon="4.58809">
        <ele>234.60000610352</ele>
        <time>2022-02-20T08:38:06Z</time>
      </trkpt>
      <trkpt lat="44.53554" lon="4.58815">
        <ele>234.60000610352</ele>
        <time>2022-02-20T08:38:05Z</time>
      </trkpt>
      <trkpt lat="44.53557" lon="4.58821">
        <ele>234.60000610352</ele>
        <time>2022-02-20T08:38:04Z</time>
      </trkpt>
      <trkpt lat="44.5356" lon="4.58827">
        <ele>234.80000305176</ele>
        <time>2022-02-20T08:38:03Z</time>
      </trkpt>
      <trkpt lat="44.53563" lon="4.58833">
        <ele>235</ele>
        <time>2022-02-20T08:38:02Z</time>
      </trkpt>
      <trkpt lat="44.53574" lon="4.58853">
        <ele>235.39999389648</ele>
        <time>2022-02-20T08:37:59Z</time>
      </trkpt>
      <trkpt lat="44.53577" lon="4.5886">
        <ele>235.80000305176</ele>
        <time>2022-02-20T08:37:58Z</time>
      </trkpt>
      <trkpt lat="44.5358" lon="4.58867">
        <ele>236.19999694824</ele>
        <time>2022-02-20T08:37:57Z</time>
      </trkpt>
      <trkpt lat="44.53583" lon="4.58874">
        <ele>236.60000610352</ele>
        <time>2022-02-20T08:37:56Z</time>
      </trkpt>
      <trkpt lat="44.53586" lon="4.58881">
        <ele>236.80000305176</ele>
        <time>2022-02-20T08:37:55Z</time>
      </trkpt>
      <trkpt lat="44.53591" lon="4.58897">
        <ele>237.19999694824</ele>
        <time>2022-02-20T08:37:53Z</time>
      </trkpt>
      <trkpt lat="44.53593" lon="4.58905">
        <ele>237.19999694824</ele>
        <time>2022-02-20T08:37:52Z</time>
      </trkpt>
      <trkpt lat="44.53599" lon="4.58921">
        <ele>237.60000610352</ele>
        <time>2022-02-20T08:37:50Z</time>
      </trkpt>
      <trkpt lat="44.53603" lon="4.58929">
        <ele>237.80000305176</ele>
        <time>2022-02-20T08:37:49Z</time>
      </trkpt>
      <trkpt lat="44.5361" lon="4.58944">
        <ele>237.80000305176</ele>
        <time>2022-02-20T08:37:47Z</time>
      </trkpt>
      <trkpt lat="44.53619" lon="4.58966">
        <ele>238.39999389648</ele>
        <time>2022-02-20T08:37:44Z</time>
      </trkpt>
      <trkpt lat="44.53622" lon="4.58973">
        <ele>238.60000610352</ele>
        <time>2022-02-20T08:37:43Z</time>
      </trkpt>
      <trkpt lat="44.53625" lon="4.58979">
        <ele>239.19999694824</ele>
        <time>2022-02-20T08:37:42Z</time>
      </trkpt>
      <trkpt lat="44.53628" lon="4.58985">
        <ele>239.60000610352</ele>
        <time>2022-02-20T08:37:41Z</time>
      </trkpt>
      <trkpt lat="44.5363" lon="4.58991">
        <ele>240</ele>
        <time>2022-02-20T08:37:40Z</time>
      </trkpt>
      <trkpt lat="44.53631" lon="4.58997">
        <ele>240.60000610352</ele>
        <time>2022-02-20T08:37:39Z</time>
      </trkpt>
      <trkpt lat="44.5363" lon="4.59003">
        <ele>241</ele>
        <time>2022-02-20T08:37:38Z</time>
      </trkpt>
      <trkpt lat="44.53626" lon="4.59008">
        <ele>241.39999389648</ele>
        <time>2022-02-20T08:37:37Z</time>
      </trkpt>
      <trkpt lat="44.53621" lon="4.5901">
        <ele>241.60000610352</ele>
        <time>2022-02-20T08:37:36Z</time>
      </trkpt>
      <trkpt lat="44.53608" lon="4.59012">
        <ele>242.80000305176</ele>
        <time>2022-02-20T08:37:34Z</time>
      </trkpt>
      <trkpt lat="44.53587" lon="4.59016">
        <ele>244.19999694824</ele>
        <time>2022-02-20T08:37:31Z</time>
      </trkpt>
      <trkpt lat="44.53581" lon="4.59019">
        <ele>244.19999694824</ele>
        <time>2022-02-20T08:37:30Z</time>
      </trkpt>
      <trkpt lat="44.53564" lon="4.59029">
        <ele>245.39999389648</ele>
        <time>2022-02-20T08:37:27Z</time>
      </trkpt>
      <trkpt lat="44.53546" lon="4.59038">
        <ele>246</ele>
        <time>2022-02-20T08:37:24Z</time>
      </trkpt>
      <trkpt lat="44.53529" lon="4.59047">
        <ele>246.80000305176</ele>
        <time>2022-02-20T08:37:21Z</time>
      </trkpt>
      <trkpt lat="44.53519" lon="4.59052">
        <ele>247.60000610352</ele>
        <time>2022-02-20T08:37:19Z</time>
      </trkpt>
      <trkpt lat="44.53514" lon="4.59055">
        <ele>247.60000610352</ele>
        <time>2022-02-20T08:37:18Z</time>
      </trkpt>
      <trkpt lat="44.5351" lon="4.59058">
        <ele>247.80000305176</ele>
        <time>2022-02-20T08:37:17Z</time>
      </trkpt>
      <trkpt lat="44.53505" lon="4.59061">
        <ele>248</ele>
        <time>2022-02-20T08:37:16Z</time>
      </trkpt>
      <trkpt lat="44.53501" lon="4.59065">
        <ele>248.39999389648</ele>
        <time>2022-02-20T08:37:15Z</time>
      </trkpt>
      <trkpt lat="44.53497" lon="4.5907">
        <ele>248.39999389648</ele>
        <time>2022-02-20T08:37:14Z</time>
      </trkpt>
      <trkpt lat="44.53494" lon="4.59076">
        <ele>248.60000610352</ele>
        <time>2022-02-20T08:37:13Z</time>
      </trkpt>
      <trkpt lat="44.53492" lon="4.59083">
        <ele>248.80000305176</ele>
        <time>2022-02-20T08:37:12Z</time>
      </trkpt>
      <trkpt lat="44.53484" lon="4.59112">
        <ele>249.39999389648</ele>
        <time>2022-02-20T08:37:08Z</time>
      </trkpt>
      <trkpt lat="44.53483" lon="4.59119">
        <ele>249.60000610352</ele>
        <time>2022-02-20T08:37:07Z</time>
      </trkpt>
      <trkpt lat="44.53483" lon="4.59125">
        <ele>250.19999694824</ele>
        <time>2022-02-20T08:37:06Z</time>
      </trkpt>
      <trkpt lat="44.53483" lon="4.59131">
        <ele>250.60000610352</ele>
        <time>2022-02-20T08:37:05Z</time>
      </trkpt>
      <trkpt lat="44.53484" lon="4.59138">
        <ele>251.19999694824</ele>
        <time>2022-02-20T08:37:04Z</time>
      </trkpt>
      <trkpt lat="44.53485" lon="4.59145">
        <ele>252</ele>
        <time>2022-02-20T08:37:03Z</time>
      </trkpt>
      <trkpt lat="44.53486" lon="4.59152">
        <ele>252.39999389648</ele>
        <time>2022-02-20T08:37:02Z</time>
      </trkpt>
      <trkpt lat="44.53488" lon="4.59159">
        <ele>253</ele>
        <time>2022-02-20T08:37:01Z</time>
      </trkpt>
      <trkpt lat="44.53502" lon="4.59198">
        <ele>255</ele>
        <time>2022-02-20T08:36:56Z</time>
      </trkpt>
      <trkpt lat="44.53506" lon="4.59212">
        <ele>256.79998779297</ele>
        <time>2022-02-20T08:36:54Z</time>
      </trkpt>
      <trkpt lat="44.53511" lon="4.59222">
        <ele>258.20001220703</ele>
        <time>2022-02-20T08:36:52Z</time>
      </trkpt>
      <trkpt lat="44.53513" lon="4.59226">
        <ele>259</ele>
        <time>2022-02-20T08:36:51Z</time>
      </trkpt>
      <trkpt lat="44.53515" lon="4.5923">
        <ele>260</ele>
        <time>2022-02-20T08:36:50Z</time>
      </trkpt>
      <trkpt lat="44.53517" lon="4.59234">
        <ele>261.20001220703</ele>
        <time>2022-02-20T08:36:49Z</time>
      </trkpt>
      <trkpt lat="44.5352" lon="4.59237">
        <ele>262</ele>
        <time>2022-02-20T08:36:48Z</time>
      </trkpt>
      <trkpt lat="44.53524" lon="4.59238">
        <ele>262.39999389648</ele>
        <time>2022-02-20T08:36:47Z</time>
      </trkpt>
      <trkpt lat="44.53528" lon="4.59237">
        <ele>262.60000610352</ele>
        <time>2022-02-20T08:36:46Z</time>
      </trkpt>
      <trkpt lat="44.53533" lon="4.59235">
        <ele>262.60000610352</ele>
        <time>2022-02-20T08:36:45Z</time>
      </trkpt>
      <trkpt lat="44.53538" lon="4.59233">
        <ele>263.20001220703</ele>
        <time>2022-02-20T08:36:44Z</time>
      </trkpt>
      <trkpt lat="44.53544" lon="4.5923">
        <ele>263.79998779297</ele>
        <time>2022-02-20T08:36:43Z</time>
      </trkpt>
      <trkpt lat="44.53551" lon="4.59229">
        <ele>264.39999389648</ele>
        <time>2022-02-20T08:36:42Z</time>
      </trkpt>
      <trkpt lat="44.53566" lon="4.59225">
        <ele>265.60000610352</ele>
        <time>2022-02-20T08:36:40Z</time>
      </trkpt>
      <trkpt lat="44.53573" lon="4.59223">
        <ele>266.39999389648</ele>
        <time>2022-02-20T08:36:39Z</time>
      </trkpt>
      <trkpt lat="44.5358" lon="4.59222">
        <ele>266.79998779297</ele>
        <time>2022-02-20T08:36:38Z</time>
      </trkpt>
      <trkpt lat="44.53602" lon="4.59216">
        <ele>268.39999389648</ele>
        <time>2022-02-20T08:36:35Z</time>
      </trkpt>
      <trkpt lat="44.53615" lon="4.59214">
        <ele>269.79998779297</ele>
        <time>2022-02-20T08:36:33Z</time>
      </trkpt>
      <trkpt lat="44.53622" lon="4.59213">
        <ele>270.79998779297</ele>
        <time>2022-02-20T08:36:32Z</time>
      </trkpt>
      <trkpt lat="44.53628" lon="4.59212">
        <ele>271.60000610352</ele>
        <time>2022-02-20T08:36:31Z</time>
      </trkpt>
      <trkpt lat="44.53634" lon="4.5921">
        <ele>272</ele>
        <time>2022-02-20T08:36:30Z</time>
      </trkpt>
      <trkpt lat="44.5364" lon="4.59208">
        <ele>272.60000610352</ele>
        <time>2022-02-20T08:36:29Z</time>
      </trkpt>
      <trkpt lat="44.53654" lon="4.59203">
        <ele>274.39999389648</ele>
        <time>2022-02-20T08:36:27Z</time>
      </trkpt>
      <trkpt lat="44.53685" lon="4.59197">
        <ele>277</ele>
        <time>2022-02-20T08:36:23Z</time>
      </trkpt>
      <trkpt lat="44.53692" lon="4.59196">
        <ele>277.39999389648</ele>
        <time>2022-02-20T08:36:22Z</time>
      </trkpt>
      <trkpt lat="44.53699" lon="4.59194">
        <ele>277.79998779297</ele>
        <time>2022-02-20T08:36:21Z</time>
      </trkpt>
      <trkpt lat="44.53717" lon="4.59187">
        <ele>279.39999389648</ele>
        <time>2022-02-20T08:36:18Z</time>
      </trkpt>
      <trkpt lat="44.53722" lon="4.59184">
        <ele>279.60000610352</ele>
        <time>2022-02-20T08:36:17Z</time>
      </trkpt>
      <trkpt lat="44.53733" lon="4.59179">
        <ele>280.39999389648</ele>
        <time>2022-02-20T08:36:15Z</time>
      </trkpt>
      <trkpt lat="44.53739" lon="4.59177">
        <ele>280.60000610352</ele>
        <time>2022-02-20T08:36:14Z</time>
      </trkpt>
      <trkpt lat="44.53744" lon="4.59174">
        <ele>281</ele>
        <time>2022-02-20T08:36:13Z</time>
      </trkpt>
      <trkpt lat="44.53748" lon="4.59172">
        <ele>281</ele>
        <time>2022-02-20T08:36:12Z</time>
      </trkpt>
      <trkpt lat="44.53753" lon="4.59168">
        <ele>281.39999389648</ele>
        <time>2022-02-20T08:36:11Z</time>
      </trkpt>
      <trkpt lat="44.53756" lon="4.59164">
        <ele>281.79998779297</ele>
        <time>2022-02-20T08:36:10Z</time>
      </trkpt>
      <trkpt lat="44.53762" lon="4.59154">
        <ele>282</ele>
        <time>2022-02-20T08:36:08Z</time>
      </trkpt>
      <trkpt lat="44.53764" lon="4.59148">
        <ele>282</ele>
        <time>2022-02-20T08:36:07Z</time>
      </trkpt>
      <trkpt lat="44.53765" lon="4.59143">
        <ele>282.20001220703</ele>
        <time>2022-02-20T08:36:06Z</time>
      </trkpt>
      <trkpt lat="44.53768" lon="4.59126">
        <ele>282.39999389648</ele>
        <time>2022-02-20T08:36:03Z</time>
      </trkpt>
      <trkpt lat="44.53769" lon="4.59116">
        <ele>282.39999389648</ele>
        <time>2022-02-20T08:36:01Z</time>
      </trkpt>
      <trkpt lat="44.53769" lon="4.59101">
        <ele>282.79998779297</ele>
        <time>2022-02-20T08:35:58Z</time>
      </trkpt>
      <trkpt lat="44.53769" lon="4.59097">
        <ele>282.79998779297</ele>
        <time>2022-02-20T08:35:57Z</time>
      </trkpt>
      <trkpt lat="44.53768" lon="4.59094">
        <ele>283</ele>
        <time>2022-02-20T08:35:56Z</time>
      </trkpt>
      <trkpt lat="44.53767" lon="4.5909">
        <ele>283</ele>
        <time>2022-02-20T08:35:55Z</time>
      </trkpt>
      <trkpt lat="44.53766" lon="4.59086">
        <ele>283</ele>
        <time>2022-02-20T08:35:54Z</time>
      </trkpt>
      <trkpt lat="44.53764" lon="4.59072">
        <ele>283</ele>
        <time>2022-02-20T08:35:51Z</time>
      </trkpt>
      <trkpt lat="44.53764" lon="4.59068">
        <ele>283</ele>
        <time>2022-02-20T08:35:50Z</time>
      </trkpt>
      <trkpt lat="44.53763" lon="4.59063">
        <ele>283.20001220703</ele>
        <time>2022-02-20T08:35:49Z</time>
      </trkpt>
      <trkpt lat="44.53765" lon="4.59041">
        <ele>283.39999389648</ele>
        <time>2022-02-20T08:35:44Z</time>
      </trkpt>
      <trkpt lat="44.53771" lon="4.59023">
        <ele>283.60000610352</ele>
        <time>2022-02-20T08:35:38Z</time>
      </trkpt>
      <trkpt lat="44.53774" lon="4.59017">
        <ele>283.39999389648</ele>
        <time>2022-02-20T08:35:34Z</time>
      </trkpt>
      <trkpt lat="44.53773" lon="4.59016">
        <ele>283.39999389648</ele>
        <time>2022-02-20T08:35:25Z</time>
      </trkpt>
      <trkpt lat="44.53773" lon="4.59016">
        <ele>283.20001220703</ele>
        <time>2022-02-20T08:35:16Z</time>
      </trkpt>
      <trkpt lat="44.53773" lon="4.59016">
        <ele>283.79998779297</ele>
        <time>2022-02-20T08:35:15Z</time>
      </trkpt>
      <trkpt lat="44.53774" lon="4.59014">
        <ele>283.20001220703</ele>
        <time>2022-02-20T08:34:58Z</time>
      </trkpt>
      <trkpt lat="44.53774" lon="4.59014">
        <ele>283</ele>
        <time>2022-02-20T08:34:30Z</time>
      </trkpt>
      <trkpt lat="44.53774" lon="4.59014">
        <ele>283.39999389648</ele>
        <time>2022-02-20T08:34:26Z</time>
      </trkpt>
      <trkpt lat="44.53774" lon="4.59014">
        <ele>283.60000610352</ele>
        <time>2022-02-20T08:34:15Z</time>
      </trkpt>
      <trkpt lat="44.53774" lon="4.59014">
        <ele>283.39999389648</ele>
        <time>2022-02-20T08:34:07Z</time>
      </trkpt>
      <trkpt lat="44.53774" lon="4.59014">
        <ele>283.20001220703</ele>
        <time>2022-02-20T08:34:00Z</time>
      </trkpt>
      <trkpt lat="44.53774" lon="4.59014">
        <ele>283</ele>
        <time>2022-02-20T08:33:59Z</time>
      </trkpt>
      <trkpt lat="44.53775" lon="4.59013">
        <ele>283</ele>
        <time>2022-02-20T08:33:58Z</time>
      </trkpt>
      <trkpt lat="44.53776" lon="4.59011">
        <ele>282.79998779297</ele>
        <time>2022-02-20T08:33:57Z</time>
      </trkpt>
      <trkpt lat="44.53778" lon="4.59009">
        <ele>282.79998779297</ele>
        <time>2022-02-20T08:33:56Z</time>
      </trkpt>
      <trkpt lat="44.53781" lon="4.59007">
        <ele>282.60000610352</ele>
        <time>2022-02-20T08:33:55Z</time>
      </trkpt>
      <trkpt lat="44.53789" lon="4.59005">
        <ele>282.39999389648</ele>
        <time>2022-02-20T08:33:52Z</time>
      </trkpt>
      <trkpt lat="44.53791" lon="4.59005">
        <ele>282.39999389648</ele>
        <time>2022-02-20T08:33:51Z</time>
      </trkpt>
      <trkpt lat="44.53794" lon="4.59006">
        <ele>282.20001220703</ele>
        <time>2022-02-20T08:33:50Z</time>
      </trkpt>
      <trkpt lat="44.53799" lon="4.59007">
        <ele>282</ele>
        <time>2022-02-20T08:33:48Z</time>
      </trkpt>
      <trkpt lat="44.53802" lon="4.59008">
        <ele>282</ele>
        <time>2022-02-20T08:33:47Z</time>
      </trkpt>
      <trkpt lat="44.53805" lon="4.59009">
        <ele>282</ele>
        <time>2022-02-20T08:33:46Z</time>
      </trkpt>
      <trkpt lat="44.53807" lon="4.5901">
        <ele>281.79998779297</ele>
        <time>2022-02-20T08:33:45Z</time>
      </trkpt>
      <trkpt lat="44.5381" lon="4.59011">
        <ele>281.60000610352</ele>
        <time>2022-02-20T08:33:44Z</time>
      </trkpt>
      <trkpt lat="44.53813" lon="4.59012">
        <ele>281.39999389648</ele>
        <time>2022-02-20T08:33:43Z</time>
      </trkpt>
      <trkpt lat="44.53815" lon="4.59013">
        <ele>281.39999389648</ele>
        <time>2022-02-20T08:33:42Z</time>
      </trkpt>
      <trkpt lat="44.53818" lon="4.59014">
        <ele>281.39999389648</ele>
        <time>2022-02-20T08:33:41Z</time>
      </trkpt>
      <trkpt lat="44.5382" lon="4.59016">
        <ele>281.39999389648</ele>
        <time>2022-02-20T08:33:40Z</time>
      </trkpt>
      <trkpt lat="44.53823" lon="4.59017">
        <ele>281.20001220703</ele>
        <time>2022-02-20T08:33:39Z</time>
      </trkpt>
      <trkpt lat="44.53825" lon="4.59018">
        <ele>281</ele>
        <time>2022-02-20T08:33:38Z</time>
      </trkpt>
      <trkpt lat="44.53828" lon="4.59019">
        <ele>281</ele>
        <time>2022-02-20T08:33:37Z</time>
      </trkpt>
      <trkpt lat="44.53831" lon="4.5902">
        <ele>280.79998779297</ele>
        <time>2022-02-20T08:33:36Z</time>
      </trkpt>
      <trkpt lat="44.53833" lon="4.59021">
        <ele>281</ele>
        <time>2022-02-20T08:33:35Z</time>
      </trkpt>
      <trkpt lat="44.53836" lon="4.59022">
        <ele>280.60000610352</ele>
        <time>2022-02-20T08:33:34Z</time>
      </trkpt>
      <trkpt lat="44.53839" lon="4.59023">
        <ele>280.60000610352</ele>
        <time>2022-02-20T08:33:33Z</time>
      </trkpt>
      <trkpt lat="44.53841" lon="4.59025">
        <ele>280.60000610352</ele>
        <time>2022-02-20T08:33:32Z</time>
      </trkpt>
      <trkpt lat="44.53843" lon="4.59026">
        <ele>280.39999389648</ele>
        <time>2022-02-20T08:33:31Z</time>
      </trkpt>
      <trkpt lat="44.53846" lon="4.59028">
        <ele>280</ele>
        <time>2022-02-20T08:33:30Z</time>
      </trkpt>
      <trkpt lat="44.53848" lon="4.59029">
        <ele>279.60000610352</ele>
        <time>2022-02-20T08:33:29Z</time>
      </trkpt>
      <trkpt lat="44.53851" lon="4.59031">
        <ele>279.79998779297</ele>
        <time>2022-02-20T08:33:28Z</time>
      </trkpt>
      <trkpt lat="44.53853" lon="4.59033">
        <ele>279.39999389648</ele>
        <time>2022-02-20T08:33:27Z</time>
      </trkpt>
      <trkpt lat="44.53856" lon="4.59034">
        <ele>279.39999389648</ele>
        <time>2022-02-20T08:33:26Z</time>
      </trkpt>
      <trkpt lat="44.53858" lon="4.59036">
        <ele>279.39999389648</ele>
        <time>2022-02-20T08:33:25Z</time>
      </trkpt>
      <trkpt lat="44.53861" lon="4.59038">
        <ele>279.20001220703</ele>
        <time>2022-02-20T08:33:24Z</time>
      </trkpt>
      <trkpt lat="44.53863" lon="4.59039">
        <ele>279</ele>
        <time>2022-02-20T08:33:23Z</time>
      </trkpt>
      <trkpt lat="44.53866" lon="4.5904">
        <ele>278.79998779297</ele>
        <time>2022-02-20T08:33:22Z</time>
      </trkpt>
      <trkpt lat="44.53868" lon="4.59042">
        <ele>278.79998779297</ele>
        <time>2022-02-20T08:33:21Z</time>
      </trkpt>
      <trkpt lat="44.53871" lon="4.59043">
        <ele>278.60000610352</ele>
        <time>2022-02-20T08:33:20Z</time>
      </trkpt>
      <trkpt lat="44.53874" lon="4.59044">
        <ele>278.20001220703</ele>
        <time>2022-02-20T08:33:19Z</time>
      </trkpt>
      <trkpt lat="44.53876" lon="4.59045">
        <ele>278.20001220703</ele>
        <time>2022-02-20T08:33:18Z</time>
      </trkpt>
      <trkpt lat="44.53879" lon="4.59046">
        <ele>278.20001220703</ele>
        <time>2022-02-20T08:33:17Z</time>
      </trkpt>
      <trkpt lat="44.53882" lon="4.59047">
        <ele>278</ele>
        <time>2022-02-20T08:33:16Z</time>
      </trkpt>
      <trkpt lat="44.53884" lon="4.59049">
        <ele>277.79998779297</ele>
        <time>2022-02-20T08:33:15Z</time>
      </trkpt>
      <trkpt lat="44.53887" lon="4.5905">
        <ele>277.79998779297</ele>
        <time>2022-02-20T08:33:14Z</time>
      </trkpt>
      <trkpt lat="44.5389" lon="4.59051">
        <ele>277.60000610352</ele>
        <time>2022-02-20T08:33:13Z</time>
      </trkpt>
      <trkpt lat="44.53892" lon="4.59052">
        <ele>277.60000610352</ele>
        <time>2022-02-20T08:33:12Z</time>
      </trkpt>
      <trkpt lat="44.53895" lon="4.59053">
        <ele>277.39999389648</ele>
        <time>2022-02-20T08:33:11Z</time>
      </trkpt>
      <trkpt lat="44.53897" lon="4.59055">
        <ele>277.39999389648</ele>
        <time>2022-02-20T08:33:10Z</time>
      </trkpt>
      <trkpt lat="44.539" lon="4.59056">
        <ele>277.20001220703</ele>
        <time>2022-02-20T08:33:09Z</time>
      </trkpt>
      <trkpt lat="44.53902" lon="4.59057">
        <ele>277</ele>
        <time>2022-02-20T08:33:08Z</time>
      </trkpt>
      <trkpt lat="44.53904" lon="4.59058">
        <ele>277</ele>
        <time>2022-02-20T08:33:07Z</time>
      </trkpt>
      <trkpt lat="44.53907" lon="4.59059">
        <ele>276.79998779297</ele>
        <time>2022-02-20T08:33:06Z</time>
      </trkpt>
      <trkpt lat="44.53909" lon="4.59059">
        <ele>276.60000610352</ele>
        <time>2022-02-20T08:33:05Z</time>
      </trkpt>
      <trkpt lat="44.53912" lon="4.5906">
        <ele>276.60000610352</ele>
        <time>2022-02-20T08:33:04Z</time>
      </trkpt>
      <trkpt lat="44.53914" lon="4.59061">
        <ele>276.60000610352</ele>
        <time>2022-02-20T08:33:03Z</time>
      </trkpt>
      <trkpt lat="44.53916" lon="4.59062">
        <ele>276.39999389648</ele>
        <time>2022-02-20T08:33:02Z</time>
      </trkpt>
      <trkpt lat="44.53918" lon="4.59063">
        <ele>276.20001220703</ele>
        <time>2022-02-20T08:33:01Z</time>
      </trkpt>
      <trkpt lat="44.53921" lon="4.59063">
        <ele>276.20001220703</ele>
        <time>2022-02-20T08:33:00Z</time>
      </trkpt>
      <trkpt lat="44.53923" lon="4.59064">
        <ele>275.79998779297</ele>
        <time>2022-02-20T08:32:59Z</time>
      </trkpt>
      <trkpt lat="44.53926" lon="4.59065">
        <ele>275.60000610352</ele>
        <time>2022-02-20T08:32:58Z</time>
      </trkpt>
      <trkpt lat="44.53928" lon="4.59066">
        <ele>275.39999389648</ele>
        <time>2022-02-20T08:32:57Z</time>
      </trkpt>
      <trkpt lat="44.53931" lon="4.59067">
        <ele>275.20001220703</ele>
        <time>2022-02-20T08:32:56Z</time>
      </trkpt>
      <trkpt lat="44.53933" lon="4.59068">
        <ele>275</ele>
        <time>2022-02-20T08:32:55Z</time>
      </trkpt>
      <trkpt lat="44.53935" lon="4.59069">
        <ele>274.79998779297</ele>
        <time>2022-02-20T08:32:54Z</time>
      </trkpt>
      <trkpt lat="44.53938" lon="4.5907">
        <ele>274.39999389648</ele>
        <time>2022-02-20T08:32:53Z</time>
      </trkpt>
      <trkpt lat="44.5394" lon="4.59071">
        <ele>274.20001220703</ele>
        <time>2022-02-20T08:32:52Z</time>
      </trkpt>
      <trkpt lat="44.53942" lon="4.59072">
        <ele>274</ele>
        <time>2022-02-20T08:32:51Z</time>
      </trkpt>
      <trkpt lat="44.53945" lon="4.59073">
        <ele>273.79998779297</ele>
        <time>2022-02-20T08:32:50Z</time>
      </trkpt>
      <trkpt lat="44.53947" lon="4.59074">
        <ele>274</ele>
        <time>2022-02-20T08:32:49Z</time>
      </trkpt>
      <trkpt lat="44.5395" lon="4.59074">
        <ele>273.79998779297</ele>
        <time>2022-02-20T08:32:48Z</time>
      </trkpt>
      <trkpt lat="44.53952" lon="4.59075">
        <ele>273.60000610352</ele>
        <time>2022-02-20T08:32:47Z</time>
      </trkpt>
      <trkpt lat="44.53955" lon="4.59075">
        <ele>273.60000610352</ele>
        <time>2022-02-20T08:32:46Z</time>
      </trkpt>
      <trkpt lat="44.53957" lon="4.59075">
        <ele>273.39999389648</ele>
        <time>2022-02-20T08:32:45Z</time>
      </trkpt>
      <trkpt lat="44.53959" lon="4.59076">
        <ele>273.39999389648</ele>
        <time>2022-02-20T08:32:44Z</time>
      </trkpt>
      <trkpt lat="44.53962" lon="4.59076">
        <ele>273.39999389648</ele>
        <time>2022-02-20T08:32:43Z</time>
      </trkpt>
      <trkpt lat="44.53964" lon="4.59077">
        <ele>273.39999389648</ele>
        <time>2022-02-20T08:32:42Z</time>
      </trkpt>
      <trkpt lat="44.53966" lon="4.59078">
        <ele>273.39999389648</ele>
        <time>2022-02-20T08:32:41Z</time>
      </trkpt>
      <trkpt lat="44.53969" lon="4.59079">
        <ele>273.39999389648</ele>
        <time>2022-02-20T08:32:40Z</time>
      </trkpt>
      <trkpt lat="44.53971" lon="4.59079">
        <ele>273.20001220703</ele>
        <time>2022-02-20T08:32:39Z</time>
      </trkpt>
      <trkpt lat="44.53973" lon="4.5908">
        <ele>273</ele>
        <time>2022-02-20T08:32:38Z</time>
      </trkpt>
      <trkpt lat="44.53976" lon="4.59081">
        <ele>272.79998779297</ele>
        <time>2022-02-20T08:32:37Z</time>
      </trkpt>
      <trkpt lat="44.53978" lon="4.59081">
        <ele>272.79998779297</ele>
        <time>2022-02-20T08:32:36Z</time>
      </trkpt>
      <trkpt lat="44.53981" lon="4.59082">
        <ele>272.79998779297</ele>
        <time>2022-02-20T08:32:35Z</time>
      </trkpt>
      <trkpt lat="44.53983" lon="4.59084">
        <ele>272.60000610352</ele>
        <time>2022-02-20T08:32:34Z</time>
      </trkpt>
      <trkpt lat="44.53985" lon="4.59085">
        <ele>272.39999389648</ele>
        <time>2022-02-20T08:32:33Z</time>
      </trkpt>
      <trkpt lat="44.53987" lon="4.59086">
        <ele>272.39999389648</ele>
        <time>2022-02-20T08:32:32Z</time>
      </trkpt>
      <trkpt lat="44.53989" lon="4.59087">
        <ele>272.20001220703</ele>
        <time>2022-02-20T08:32:31Z</time>
      </trkpt>
      <trkpt lat="44.53991" lon="4.59089">
        <ele>272</ele>
        <time>2022-02-20T08:32:30Z</time>
      </trkpt>
      <trkpt lat="44.53994" lon="4.5909">
        <ele>272</ele>
        <time>2022-02-20T08:32:29Z</time>
      </trkpt>
      <trkpt lat="44.53996" lon="4.59091">
        <ele>271.79998779297</ele>
        <time>2022-02-20T08:32:28Z</time>
      </trkpt>
      <trkpt lat="44.53998" lon="4.59093">
        <ele>271.60000610352</ele>
        <time>2022-02-20T08:32:27Z</time>
      </trkpt>
      <trkpt lat="44.54001" lon="4.59094">
        <ele>271.60000610352</ele>
        <time>2022-02-20T08:32:26Z</time>
      </trkpt>
      <trkpt lat="44.54003" lon="4.59096">
        <ele>271.39999389648</ele>
        <time>2022-02-20T08:32:25Z</time>
      </trkpt>
      <trkpt lat="44.54006" lon="4.59097">
        <ele>271.20001220703</ele>
        <time>2022-02-20T08:32:24Z</time>
      </trkpt>
      <trkpt lat="44.54008" lon="4.59098">
        <ele>271</ele>
        <time>2022-02-20T08:32:23Z</time>
      </trkpt>
      <trkpt lat="44.5401" lon="4.591">
        <ele>270.79998779297</ele>
        <time>2022-02-20T08:32:22Z</time>
      </trkpt>
      <trkpt lat="44.54012" lon="4.59101">
        <ele>270.79998779297</ele>
        <time>2022-02-20T08:32:21Z</time>
      </trkpt>
      <trkpt lat="44.54015" lon="4.59102">
        <ele>270.60000610352</ele>
        <time>2022-02-20T08:32:20Z</time>
      </trkpt>
      <trkpt lat="44.54017" lon="4.59103">
        <ele>270.60000610352</ele>
        <time>2022-02-20T08:32:19Z</time>
      </trkpt>
      <trkpt lat="44.54019" lon="4.59105">
        <ele>270.20001220703</ele>
        <time>2022-02-20T08:32:18Z</time>
      </trkpt>
      <trkpt lat="44.54022" lon="4.59106">
        <ele>270</ele>
        <time>2022-02-20T08:32:17Z</time>
      </trkpt>
      <trkpt lat="44.54024" lon="4.59107">
        <ele>270</ele>
        <time>2022-02-20T08:32:16Z</time>
      </trkpt>
      <trkpt lat="44.54027" lon="4.59109">
        <ele>270</ele>
        <time>2022-02-20T08:32:15Z</time>
      </trkpt>
      <trkpt lat="44.54029" lon="4.5911">
        <ele>269.79998779297</ele>
        <time>2022-02-20T08:32:14Z</time>
      </trkpt>
      <trkpt lat="44.54031" lon="4.59111">
        <ele>269.60000610352</ele>
        <time>2022-02-20T08:32:13Z</time>
      </trkpt>
      <trkpt lat="44.54033" lon="4.59112">
        <ele>269.60000610352</ele>
        <time>2022-02-20T08:32:12Z</time>
      </trkpt>
      <trkpt lat="44.54036" lon="4.59114">
        <ele>269.60000610352</ele>
        <time>2022-02-20T08:32:11Z</time>
      </trkpt>
      <trkpt lat="44.54038" lon="4.59115">
        <ele>269.20001220703</ele>
        <time>2022-02-20T08:32:10Z</time>
      </trkpt>
      <trkpt lat="44.5404" lon="4.59116">
        <ele>269</ele>
        <time>2022-02-20T08:32:09Z</time>
      </trkpt>
      <trkpt lat="44.54043" lon="4.59117">
        <ele>269</ele>
        <time>2022-02-20T08:32:08Z</time>
      </trkpt>
      <trkpt lat="44.54045" lon="4.59119">
        <ele>269</ele>
        <time>2022-02-20T08:32:07Z</time>
      </trkpt>
      <trkpt lat="44.54047" lon="4.5912">
        <ele>268.79998779297</ele>
        <time>2022-02-20T08:32:06Z</time>
      </trkpt>
      <trkpt lat="44.5405" lon="4.59121">
        <ele>268.60000610352</ele>
        <time>2022-02-20T08:32:05Z</time>
      </trkpt>
      <trkpt lat="44.54052" lon="4.59123">
        <ele>268.39999389648</ele>
        <time>2022-02-20T08:32:04Z</time>
      </trkpt>
      <trkpt lat="44.54054" lon="4.59125">
        <ele>268.20001220703</ele>
        <time>2022-02-20T08:32:03Z</time>
      </trkpt>
      <trkpt lat="44.54057" lon="4.59126">
        <ele>267.79998779297</ele>
        <time>2022-02-20T08:32:02Z</time>
      </trkpt>
      <trkpt lat="44.54059" lon="4.59128">
        <ele>267.39999389648</ele>
        <time>2022-02-20T08:32:01Z</time>
      </trkpt>
      <trkpt lat="44.54062" lon="4.59129">
        <ele>267.20001220703</ele>
        <time>2022-02-20T08:32:00Z</time>
      </trkpt>
      <trkpt lat="44.54064" lon="4.59131">
        <ele>266.79998779297</ele>
        <time>2022-02-20T08:31:59Z</time>
      </trkpt>
      <trkpt lat="44.54066" lon="4.59132">
        <ele>266.39999389648</ele>
        <time>2022-02-20T08:31:58Z</time>
      </trkpt>
      <trkpt lat="44.54069" lon="4.59134">
        <ele>266.39999389648</ele>
        <time>2022-02-20T08:31:57Z</time>
      </trkpt>
      <trkpt lat="44.54071" lon="4.59135">
        <ele>266.39999389648</ele>
        <time>2022-02-20T08:31:56Z</time>
      </trkpt>
      <trkpt lat="44.54073" lon="4.59137">
        <ele>265.79998779297</ele>
        <time>2022-02-20T08:31:55Z</time>
      </trkpt>
      <trkpt lat="44.54075" lon="4.59139">
        <ele>265.39999389648</ele>
        <time>2022-02-20T08:31:54Z</time>
      </trkpt>
      <trkpt lat="44.54077" lon="4.59141">
        <ele>265.39999389648</ele>
        <time>2022-02-20T08:31:53Z</time>
      </trkpt>
      <trkpt lat="44.54079" lon="4.59143">
        <ele>265</ele>
        <time>2022-02-20T08:31:52Z</time>
      </trkpt>
      <trkpt lat="44.54081" lon="4.59145">
        <ele>264.60000610352</ele>
        <time>2022-02-20T08:31:51Z</time>
      </trkpt>
      <trkpt lat="44.54083" lon="4.59147">
        <ele>264.39999389648</ele>
        <time>2022-02-20T08:31:50Z</time>
      </trkpt>
      <trkpt lat="44.54086" lon="4.59149">
        <ele>264</ele>
        <time>2022-02-20T08:31:49Z</time>
      </trkpt>
      <trkpt lat="44.54088" lon="4.59151">
        <ele>263.79998779297</ele>
        <time>2022-02-20T08:31:48Z</time>
      </trkpt>
      <trkpt lat="44.5409" lon="4.59153">
        <ele>263.60000610352</ele>
        <time>2022-02-20T08:31:47Z</time>
      </trkpt>
      <trkpt lat="44.54091" lon="4.59155">
        <ele>263.39999389648</ele>
        <time>2022-02-20T08:31:46Z</time>
      </trkpt>
      <trkpt lat="44.54093" lon="4.59157">
        <ele>263</ele>
        <time>2022-02-20T08:31:45Z</time>
      </trkpt>
      <trkpt lat="44.54095" lon="4.5916">
        <ele>262.60000610352</ele>
        <time>2022-02-20T08:31:44Z</time>
      </trkpt>
      <trkpt lat="44.54097" lon="4.59162">
        <ele>262.39999389648</ele>
        <time>2022-02-20T08:31:43Z</time>
      </trkpt>
      <trkpt lat="44.54099" lon="4.59165">
        <ele>262.20001220703</ele>
        <time>2022-02-20T08:31:42Z</time>
      </trkpt>
      <trkpt lat="44.54101" lon="4.59167">
        <ele>262</ele>
        <time>2022-02-20T08:31:41Z</time>
      </trkpt>
      <trkpt lat="44.54103" lon="4.59169">
        <ele>261.60000610352</ele>
        <time>2022-02-20T08:31:40Z</time>
      </trkpt>
      <trkpt lat="44.54105" lon="4.59171">
        <ele>261.39999389648</ele>
        <time>2022-02-20T08:31:39Z</time>
      </trkpt>
      <trkpt lat="44.54107" lon="4.59174">
        <ele>261.20001220703</ele>
        <time>2022-02-20T08:31:38Z</time>
      </trkpt>
      <trkpt lat="44.54109" lon="4.59176">
        <ele>260.79998779297</ele>
        <time>2022-02-20T08:31:37Z</time>
      </trkpt>
      <trkpt lat="44.54111" lon="4.59178">
        <ele>260.39999389648</ele>
        <time>2022-02-20T08:31:36Z</time>
      </trkpt>
      <trkpt lat="44.54112" lon="4.5918">
        <ele>260.20001220703</ele>
        <time>2022-02-20T08:31:35Z</time>
      </trkpt>
      <trkpt lat="44.54114" lon="4.59182">
        <ele>260.20001220703</ele>
        <time>2022-02-20T08:31:34Z</time>
      </trkpt>
      <trkpt lat="44.54116" lon="4.59184">
        <ele>260</ele>
        <time>2022-02-20T08:31:33Z</time>
      </trkpt>
      <trkpt lat="44.54117" lon="4.59186">
        <ele>259.79998779297</ele>
        <time>2022-02-20T08:31:32Z</time>
      </trkpt>
      <trkpt lat="44.54119" lon="4.59188">
        <ele>259.39999389648</ele>
        <time>2022-02-20T08:31:31Z</time>
      </trkpt>
      <trkpt lat="44.54121" lon="4.5919">
        <ele>259.20001220703</ele>
        <time>2022-02-20T08:31:30Z</time>
      </trkpt>
      <trkpt lat="44.54123" lon="4.59192">
        <ele>258.79998779297</ele>
        <time>2022-02-20T08:31:29Z</time>
      </trkpt>
      <trkpt lat="44.54125" lon="4.59194">
        <ele>258.60000610352</ele>
        <time>2022-02-20T08:31:28Z</time>
      </trkpt>
      <trkpt lat="44.54127" lon="4.59196">
        <ele>258.20001220703</ele>
        <time>2022-02-20T08:31:27Z</time>
      </trkpt>
      <trkpt lat="44.54129" lon="4.59198">
        <ele>257.79998779297</ele>
        <time>2022-02-20T08:31:26Z</time>
      </trkpt>
      <trkpt lat="44.54131" lon="4.592">
        <ele>257.39999389648</ele>
        <time>2022-02-20T08:31:25Z</time>
      </trkpt>
      <trkpt lat="44.54133" lon="4.59202">
        <ele>257.20001220703</ele>
        <time>2022-02-20T08:31:24Z</time>
      </trkpt>
      <trkpt lat="44.54135" lon="4.59204">
        <ele>257</ele>
        <time>2022-02-20T08:31:23Z</time>
      </trkpt>
      <trkpt lat="44.54137" lon="4.59206">
        <ele>256.79998779297</ele>
        <time>2022-02-20T08:31:22Z</time>
      </trkpt>
      <trkpt lat="44.54139" lon="4.59208">
        <ele>256.39999389648</ele>
        <time>2022-02-20T08:31:21Z</time>
      </trkpt>
      <trkpt lat="44.54141" lon="4.59211">
        <ele>256.20001220703</ele>
        <time>2022-02-20T08:31:20Z</time>
      </trkpt>
      <trkpt lat="44.54142" lon="4.59213">
        <ele>256</ele>
        <time>2022-02-20T08:31:19Z</time>
      </trkpt>
      <trkpt lat="44.54144" lon="4.59215">
        <ele>255.60000610352</ele>
        <time>2022-02-20T08:31:18Z</time>
      </trkpt>
      <trkpt lat="44.54145" lon="4.59216">
        <ele>255.39999389648</ele>
        <time>2022-02-20T08:31:17Z</time>
      </trkpt>
      <trkpt lat="44.54147" lon="4.59218">
        <ele>255</ele>
        <time>2022-02-20T08:31:16Z</time>
      </trkpt>
      <trkpt lat="44.54149" lon="4.5922">
        <ele>254.60000610352</ele>
        <time>2022-02-20T08:31:15Z</time>
      </trkpt>
      <trkpt lat="44.54151" lon="4.59222">
        <ele>254.39999389648</ele>
        <time>2022-02-20T08:31:14Z</time>
      </trkpt>
      <trkpt lat="44.54153" lon="4.59225">
        <ele>254.19999694824</ele>
        <time>2022-02-20T08:31:13Z</time>
      </trkpt>
      <trkpt lat="44.54155" lon="4.59227">
        <ele>254.19999694824</ele>
        <time>2022-02-20T08:31:12Z</time>
      </trkpt>
      <trkpt lat="44.54157" lon="4.59229">
        <ele>254</ele>
        <time>2022-02-20T08:31:11Z</time>
      </trkpt>
      <trkpt lat="44.54159" lon="4.59232">
        <ele>253.80000305176</ele>
        <time>2022-02-20T08:31:10Z</time>
      </trkpt>
      <trkpt lat="44.54161" lon="4.59234">
        <ele>253.39999389648</ele>
        <time>2022-02-20T08:31:09Z</time>
      </trkpt>
      <trkpt lat="44.54163" lon="4.59236">
        <ele>253.19999694824</ele>
        <time>2022-02-20T08:31:08Z</time>
      </trkpt>
      <trkpt lat="44.54165" lon="4.59238">
        <ele>252.80000305176</ele>
        <time>2022-02-20T08:31:07Z</time>
      </trkpt>
      <trkpt lat="44.54167" lon="4.5924">
        <ele>252.19999694824</ele>
        <time>2022-02-20T08:31:06Z</time>
      </trkpt>
      <trkpt lat="44.54169" lon="4.59243">
        <ele>252</ele>
        <time>2022-02-20T08:31:05Z</time>
      </trkpt>
      <trkpt lat="44.54171" lon="4.59245">
        <ele>251.39999389648</ele>
        <time>2022-02-20T08:31:04Z</time>
      </trkpt>
      <trkpt lat="44.54174" lon="4.59248">
        <ele>250.80000305176</ele>
        <time>2022-02-20T08:31:03Z</time>
      </trkpt>
      <trkpt lat="44.54176" lon="4.5925">
        <ele>250.60000610352</ele>
        <time>2022-02-20T08:31:02Z</time>
      </trkpt>
      <trkpt lat="44.54178" lon="4.59252">
        <ele>250.39999389648</ele>
        <time>2022-02-20T08:31:01Z</time>
      </trkpt>
      <trkpt lat="44.5418" lon="4.59255">
        <ele>250</ele>
        <time>2022-02-20T08:31:00Z</time>
      </trkpt>
      <trkpt lat="44.54182" lon="4.59256">
        <ele>249.60000610352</ele>
        <time>2022-02-20T08:30:59Z</time>
      </trkpt>
      <trkpt lat="44.54184" lon="4.59257">
        <ele>249.39999389648</ele>
        <time>2022-02-20T08:30:58Z</time>
      </trkpt>
      <trkpt lat="44.54186" lon="4.59259">
        <ele>249</ele>
        <time>2022-02-20T08:30:57Z</time>
      </trkpt>
      <trkpt lat="44.54188" lon="4.5926">
        <ele>248.80000305176</ele>
        <time>2022-02-20T08:30:56Z</time>
      </trkpt>
      <trkpt lat="44.54191" lon="4.59263">
        <ele>248.39999389648</ele>
        <time>2022-02-20T08:30:55Z</time>
      </trkpt>
      <trkpt lat="44.54193" lon="4.59265">
        <ele>248.19999694824</ele>
        <time>2022-02-20T08:30:54Z</time>
      </trkpt>
      <trkpt lat="44.54195" lon="4.59267">
        <ele>247.80000305176</ele>
        <time>2022-02-20T08:30:53Z</time>
      </trkpt>
      <trkpt lat="44.54197" lon="4.5927">
        <ele>247.60000610352</ele>
        <time>2022-02-20T08:30:52Z</time>
      </trkpt>
      <trkpt lat="44.54199" lon="4.59273">
        <ele>247.19999694824</ele>
        <time>2022-02-20T08:30:51Z</time>
      </trkpt>
      <trkpt lat="44.54201" lon="4.59275">
        <ele>247.19999694824</ele>
        <time>2022-02-20T08:30:50Z</time>
      </trkpt>
      <trkpt lat="44.54203" lon="4.59277">
        <ele>247</ele>
        <time>2022-02-20T08:30:49Z</time>
      </trkpt>
      <trkpt lat="44.54205" lon="4.5928">
        <ele>246.39999389648</ele>
        <time>2022-02-20T08:30:48Z</time>
      </trkpt>
      <trkpt lat="44.54207" lon="4.59282">
        <ele>246.19999694824</ele>
        <time>2022-02-20T08:30:47Z</time>
      </trkpt>
      <trkpt lat="44.54209" lon="4.59284">
        <ele>246.19999694824</ele>
        <time>2022-02-20T08:30:46Z</time>
      </trkpt>
      <trkpt lat="44.54211" lon="4.59286">
        <ele>245.60000610352</ele>
        <time>2022-02-20T08:30:45Z</time>
      </trkpt>
      <trkpt lat="44.54213" lon="4.59288">
        <ele>245.39999389648</ele>
        <time>2022-02-20T08:30:44Z</time>
      </trkpt>
      <trkpt lat="44.54215" lon="4.59291">
        <ele>245</ele>
        <time>2022-02-20T08:30:43Z</time>
      </trkpt>
      <trkpt lat="44.54217" lon="4.59293">
        <ele>244.60000610352</ele>
        <time>2022-02-20T08:30:42Z</time>
      </trkpt>
      <trkpt lat="44.54218" lon="4.59296">
        <ele>244.19999694824</ele>
        <time>2022-02-20T08:30:41Z</time>
      </trkpt>
      <trkpt lat="44.5422" lon="4.59298">
        <ele>243.60000610352</ele>
        <time>2022-02-20T08:30:40Z</time>
      </trkpt>
      <trkpt lat="44.54221" lon="4.59301">
        <ele>243.19999694824</ele>
        <time>2022-02-20T08:30:39Z</time>
      </trkpt>
      <trkpt lat="44.54223" lon="4.59304">
        <ele>243</ele>
        <time>2022-02-20T08:30:38Z</time>
      </trkpt>
      <trkpt lat="44.54225" lon="4.59307">
        <ele>242.80000305176</ele>
        <time>2022-02-20T08:30:37Z</time>
      </trkpt>
      <trkpt lat="44.54226" lon="4.5931">
        <ele>242.80000305176</ele>
        <time>2022-02-20T08:30:36Z</time>
      </trkpt>
      <trkpt lat="44.54228" lon="4.59313">
        <ele>242.39999389648</ele>
        <time>2022-02-20T08:30:35Z</time>
      </trkpt>
      <trkpt lat="44.54229" lon="4.59316">
        <ele>242.19999694824</ele>
        <time>2022-02-20T08:30:34Z</time>
      </trkpt>
      <trkpt lat="44.54231" lon="4.59319">
        <ele>242</ele>
        <time>2022-02-20T08:30:33Z</time>
      </trkpt>
      <trkpt lat="44.54232" lon="4.59322">
        <ele>241.60000610352</ele>
        <time>2022-02-20T08:30:32Z</time>
      </trkpt>
      <trkpt lat="44.54234" lon="4.59324">
        <ele>241.39999389648</ele>
        <time>2022-02-20T08:30:31Z</time>
      </trkpt>
      <trkpt lat="44.54235" lon="4.59326">
        <ele>241.19999694824</ele>
        <time>2022-02-20T08:30:30Z</time>
      </trkpt>
      <trkpt lat="44.54236" lon="4.59326">
        <ele>241</ele>
        <time>2022-02-20T08:30:29Z</time>
      </trkpt>
      <trkpt lat="44.54238" lon="4.59326">
        <ele>240.60000610352</ele>
        <time>2022-02-20T08:30:28Z</time>
      </trkpt>
      <trkpt lat="44.5424" lon="4.59325">
        <ele>240.60000610352</ele>
        <time>2022-02-20T08:30:27Z</time>
      </trkpt>
      <trkpt lat="44.54242" lon="4.59323">
        <ele>240.19999694824</ele>
        <time>2022-02-20T08:30:26Z</time>
      </trkpt>
      <trkpt lat="44.54244" lon="4.59322">
        <ele>239.80000305176</ele>
        <time>2022-02-20T08:30:25Z</time>
      </trkpt>
      <trkpt lat="44.54246" lon="4.59321">
        <ele>239.19999694824</ele>
        <time>2022-02-20T08:30:24Z</time>
      </trkpt>
      <trkpt lat="44.54248" lon="4.5932">
        <ele>238.60000610352</ele>
        <time>2022-02-20T08:30:23Z</time>
      </trkpt>
      <trkpt lat="44.54251" lon="4.59319">
        <ele>238</ele>
        <time>2022-02-20T08:30:22Z</time>
      </trkpt>
      <trkpt lat="44.54254" lon="4.59318">
        <ele>237.60000610352</ele>
        <time>2022-02-20T08:30:21Z</time>
      </trkpt>
      <trkpt lat="44.54256" lon="4.59318">
        <ele>237</ele>
        <time>2022-02-20T08:30:20Z</time>
      </trkpt>
      <trkpt lat="44.54259" lon="4.59318">
        <ele>236.19999694824</ele>
        <time>2022-02-20T08:30:19Z</time>
      </trkpt>
      <trkpt lat="44.54261" lon="4.59318">
        <ele>235.60000610352</ele>
        <time>2022-02-20T08:30:18Z</time>
      </trkpt>
      <trkpt lat="44.54263" lon="4.59319">
        <ele>235</ele>
        <time>2022-02-20T08:30:17Z</time>
      </trkpt>
      <trkpt lat="44.54265" lon="4.59321">
        <ele>234.80000305176</ele>
        <time>2022-02-20T08:30:16Z</time>
      </trkpt>
      <trkpt lat="44.54267" lon="4.59323">
        <ele>234.19999694824</ele>
        <time>2022-02-20T08:30:15Z</time>
      </trkpt>
      <trkpt lat="44.54268" lon="4.59324">
        <ele>234</ele>
        <time>2022-02-20T08:30:14Z</time>
      </trkpt>
      <trkpt lat="44.5427" lon="4.59326">
        <ele>233.80000305176</ele>
        <time>2022-02-20T08:30:13Z</time>
      </trkpt>
      <trkpt lat="44.54272" lon="4.59332">
        <ele>233.80000305176</ele>
        <time>2022-02-20T08:30:11Z</time>
      </trkpt>
      <trkpt lat="44.54275" lon="4.59337">
        <ele>233.80000305176</ele>
        <time>2022-02-20T08:30:09Z</time>
      </trkpt>
      <trkpt lat="44.54281" lon="4.59343">
        <ele>233.80000305176</ele>
        <time>2022-02-20T08:30:06Z</time>
      </trkpt>
      <trkpt lat="44.54283" lon="4.59345">
        <ele>233.80000305176</ele>
        <time>2022-02-20T08:30:05Z</time>
      </trkpt>
      <trkpt lat="44.54285" lon="4.59347">
        <ele>234</ele>
        <time>2022-02-20T08:30:04Z</time>
      </trkpt>
      <trkpt lat="44.54286" lon="4.59349">
        <ele>234</ele>
        <time>2022-02-20T08:30:03Z</time>
      </trkpt>
      <trkpt lat="44.54288" lon="4.5935">
        <ele>234.39999389648</ele>
        <time>2022-02-20T08:30:02Z</time>
      </trkpt>
      <trkpt lat="44.54289" lon="4.59352">
        <ele>235</ele>
        <time>2022-02-20T08:30:01Z</time>
      </trkpt>
      <trkpt lat="44.54289" lon="4.59355">
        <ele>235.39999389648</ele>
        <time>2022-02-20T08:30:00Z</time>
      </trkpt>
      <trkpt lat="44.54288" lon="4.59359">
        <ele>235.60000610352</ele>
        <time>2022-02-20T08:29:59Z</time>
      </trkpt>
      <trkpt lat="44.54285" lon="4.59363">
        <ele>235.80000305176</ele>
        <time>2022-02-20T08:29:58Z</time>
      </trkpt>
      <trkpt lat="44.54281" lon="4.59367">
        <ele>236</ele>
        <time>2022-02-20T08:29:57Z</time>
      </trkpt>
      <trkpt lat="44.54276" lon="4.59372">
        <ele>236.19999694824</ele>
        <time>2022-02-20T08:29:56Z</time>
      </trkpt>
      <trkpt lat="44.54264" lon="4.59381">
        <ele>237.80000305176</ele>
        <time>2022-02-20T08:29:54Z</time>
      </trkpt>
      <trkpt lat="44.54259" lon="4.59387">
        <ele>238.39999389648</ele>
        <time>2022-02-20T08:29:53Z</time>
      </trkpt>
      <trkpt lat="44.54253" lon="4.59392">
        <ele>238.80000305176</ele>
        <time>2022-02-20T08:29:52Z</time>
      </trkpt>
      <trkpt lat="44.54243" lon="4.59402">
        <ele>239.60000610352</ele>
        <time>2022-02-20T08:29:50Z</time>
      </trkpt>
      <trkpt lat="44.54239" lon="4.59408">
        <ele>240</ele>
        <time>2022-02-20T08:29:49Z</time>
      </trkpt>
      <trkpt lat="44.54235" lon="4.59414">
        <ele>240.60000610352</ele>
        <time>2022-02-20T08:29:48Z</time>
      </trkpt>
      <trkpt lat="44.54234" lon="4.59422">
        <ele>240.80000305176</ele>
        <time>2022-02-20T08:29:47Z</time>
      </trkpt>
      <trkpt lat="44.54234" lon="4.5943">
        <ele>241.19999694824</ele>
        <time>2022-02-20T08:29:46Z</time>
      </trkpt>
      <trkpt lat="44.54246" lon="4.59454">
        <ele>242.19999694824</ele>
        <time>2022-02-20T08:29:43Z</time>
      </trkpt>
      <trkpt lat="44.54253" lon="4.59472">
        <ele>243.60000610352</ele>
        <time>2022-02-20T08:29:41Z</time>
      </trkpt>
      <trkpt lat="44.54254" lon="4.5948">
        <ele>243.80000305176</ele>
        <time>2022-02-20T08:29:40Z</time>
      </trkpt>
      <trkpt lat="44.54255" lon="4.59488">
        <ele>244.19999694824</ele>
        <time>2022-02-20T08:29:39Z</time>
      </trkpt>
      <trkpt lat="44.54255" lon="4.59507">
        <ele>244.80000305176</ele>
        <time>2022-02-20T08:29:37Z</time>
      </trkpt>
      <trkpt lat="44.54253" lon="4.59526">
        <ele>244.80000305176</ele>
        <time>2022-02-20T08:29:35Z</time>
      </trkpt>
      <trkpt lat="44.54249" lon="4.59544">
        <ele>244.80000305176</ele>
        <time>2022-02-20T08:29:33Z</time>
      </trkpt>
      <trkpt lat="44.54245" lon="4.59559">
        <ele>244.60000610352</ele>
        <time>2022-02-20T08:29:31Z</time>
      </trkpt>
      <trkpt lat="44.54242" lon="4.59566">
        <ele>244.80000305176</ele>
        <time>2022-02-20T08:29:30Z</time>
      </trkpt>
      <trkpt lat="44.5424" lon="4.59572">
        <ele>244.39999389648</ele>
        <time>2022-02-20T08:29:29Z</time>
      </trkpt>
      <trkpt lat="44.54239" lon="4.59578">
        <ele>244.39999389648</ele>
        <time>2022-02-20T08:29:28Z</time>
      </trkpt>
      <trkpt lat="44.54238" lon="4.59593">
        <ele>243.80000305176</ele>
        <time>2022-02-20T08:29:25Z</time>
      </trkpt>
      <trkpt lat="44.54243" lon="4.59612">
        <ele>246.80000305176</ele>
        <time>2020-05-31T06:52:09Z</time>
      </trkpt>
      <trkpt lat="44.54254" lon="4.59615">
        <ele>247.39999389648</ele>
        <time>2020-05-31T06:52:07Z</time>
      </trkpt>
      <trkpt lat="44.5427" lon="4.59619">
        <ele>248</ele>
        <time>2020-05-31T06:52:04Z</time>
      </trkpt>
      <trkpt lat="44.54284" lon="4.59624">
        <ele>248.39999389648</ele>
        <time>2020-05-31T06:52:01Z</time>
      </trkpt>
      <trkpt lat="44.54294" lon="4.59627">
        <ele>248.39999389648</ele>
        <time>2020-05-31T06:51:58Z</time>
      </trkpt>
      <trkpt lat="44.54304" lon="4.5963">
        <ele>248.39999389648</ele>
        <time>2020-05-31T06:51:55Z</time>
      </trkpt>
      <trkpt lat="44.54307" lon="4.5963">
        <ele>248.60000610352</ele>
        <time>2020-05-31T06:51:54Z</time>
      </trkpt>
      <trkpt lat="44.5431" lon="4.5963">
        <ele>248.39999389648</ele>
        <time>2020-05-31T06:51:53Z</time>
      </trkpt>
      <trkpt lat="44.54313" lon="4.59629">
        <ele>248.39999389648</ele>
        <time>2020-05-31T06:51:52Z</time>
      </trkpt>
      <trkpt lat="44.54319" lon="4.59626">
        <ele>248.60000610352</ele>
        <time>2020-05-31T06:51:50Z</time>
      </trkpt>
      <trkpt lat="44.54327" lon="4.5962">
        <ele>248.39999389648</ele>
        <time>2020-05-31T06:51:47Z</time>
      </trkpt>
      <trkpt lat="44.54337" lon="4.59611">
        <ele>247.80000305176</ele>
        <time>2020-05-31T06:51:43Z</time>
      </trkpt>
      <trkpt lat="44.54339" lon="4.59609">
        <ele>247.60000610352</ele>
        <time>2020-05-31T06:51:42Z</time>
      </trkpt>
      <trkpt lat="44.54342" lon="4.59607">
        <ele>247.39999389648</ele>
        <time>2020-05-31T06:51:41Z</time>
      </trkpt>
      <trkpt lat="44.54344" lon="4.59605">
        <ele>247.39999389648</ele>
        <time>2020-05-31T06:51:40Z</time>
      </trkpt>
      <trkpt lat="44.54347" lon="4.59603">
        <ele>247.19999694824</ele>
        <time>2020-05-31T06:51:39Z</time>
      </trkpt>
      <trkpt lat="44.5435" lon="4.59601">
        <ele>247.19999694824</ele>
        <time>2020-05-31T06:51:38Z</time>
      </trkpt>
      <trkpt lat="44.54352" lon="4.59599">
        <ele>247</ele>
        <time>2020-05-31T06:51:37Z</time>
      </trkpt>
      <trkpt lat="44.54355" lon="4.59596">
        <ele>247</ele>
        <time>2020-05-31T06:51:36Z</time>
      </trkpt>
      <trkpt lat="44.54357" lon="4.59595">
        <ele>247</ele>
        <time>2020-05-31T06:51:35Z</time>
      </trkpt>
      <trkpt lat="44.5436" lon="4.59593">
        <ele>246.80000305176</ele>
        <time>2020-05-31T06:51:34Z</time>
      </trkpt>
      <trkpt lat="44.54363" lon="4.59591">
        <ele>246.80000305176</ele>
        <time>2020-05-31T06:51:33Z</time>
      </trkpt>
      <trkpt lat="44.54366" lon="4.5959">
        <ele>246.60000610352</ele>
        <time>2020-05-31T06:51:32Z</time>
      </trkpt>
      <trkpt lat="44.54369" lon="4.59588">
        <ele>246.60000610352</ele>
        <time>2020-05-31T06:51:31Z</time>
      </trkpt>
      <trkpt lat="44.54372" lon="4.59587">
        <ele>246.39999389648</ele>
        <time>2020-05-31T06:51:30Z</time>
      </trkpt>
      <trkpt lat="44.54375" lon="4.59586">
        <ele>246.39999389648</ele>
        <time>2020-05-31T06:51:29Z</time>
      </trkpt>
      <trkpt lat="44.54378" lon="4.59586">
        <ele>246.39999389648</ele>
        <time>2020-05-31T06:51:28Z</time>
      </trkpt>
      <trkpt lat="44.54381" lon="4.59586">
        <ele>246.39999389648</ele>
        <time>2020-05-31T06:51:27Z</time>
      </trkpt>
      <trkpt lat="44.54387" lon="4.59586">
        <ele>246</ele>
        <time>2020-05-31T06:51:25Z</time>
      </trkpt>
      <trkpt lat="44.5439" lon="4.59586">
        <ele>246</ele>
        <time>2020-05-31T06:51:24Z</time>
      </trkpt>
      <trkpt lat="44.54402" lon="4.59585">
        <ele>244.80000305176</ele>
        <time>2020-05-31T06:51:20Z</time>
      </trkpt>
      <trkpt lat="44.54405" lon="4.59585">
        <ele>244.80000305176</ele>
        <time>2020-05-31T06:51:19Z</time>
      </trkpt>
      <trkpt lat="44.54408" lon="4.59584">
        <ele>244.60000610352</ele>
        <time>2020-05-31T06:51:18Z</time>
      </trkpt>
      <trkpt lat="44.54411" lon="4.59583">
        <ele>244.60000610352</ele>
        <time>2020-05-31T06:51:17Z</time>
      </trkpt>
      <trkpt lat="44.54413" lon="4.59582">
        <ele>244.60000610352</ele>
        <time>2020-05-31T06:51:16Z</time>
      </trkpt>
      <trkpt lat="44.54416" lon="4.59582">
        <ele>244.19999694824</ele>
        <time>2020-05-31T06:51:15Z</time>
      </trkpt>
      <trkpt lat="44.54418" lon="4.59582">
        <ele>244</ele>
        <time>2020-05-31T06:51:14Z</time>
      </trkpt>
      <trkpt lat="44.54421" lon="4.59582">
        <ele>243.80000305176</ele>
        <time>2020-05-31T06:51:13Z</time>
      </trkpt>
      <trkpt lat="44.54424" lon="4.59583">
        <ele>243.39999389648</ele>
        <time>2020-05-31T06:51:12Z</time>
      </trkpt>
      <trkpt lat="44.54426" lon="4.59583">
        <ele>243</ele>
        <time>2020-05-31T06:51:11Z</time>
      </trkpt>
      <trkpt lat="44.54429" lon="4.59583">
        <ele>242.80000305176</ele>
        <time>2020-05-31T06:51:10Z</time>
      </trkpt>
      <trkpt lat="44.54432" lon="4.59584">
        <ele>242.60000610352</ele>
        <time>2020-05-31T06:51:09Z</time>
      </trkpt>
      <trkpt lat="44.54434" lon="4.59584">
        <ele>242.39999389648</ele>
        <time>2020-05-31T06:51:08Z</time>
      </trkpt>
      <trkpt lat="44.54437" lon="4.59584">
        <ele>242.19999694824</ele>
        <time>2020-05-31T06:51:07Z</time>
      </trkpt>
      <trkpt lat="44.54439" lon="4.59585">
        <ele>241.60000610352</ele>
        <time>2020-05-31T06:51:06Z</time>
      </trkpt>
      <trkpt lat="44.54441" lon="4.59585">
        <ele>241.60000610352</ele>
        <time>2020-05-31T06:51:05Z</time>
      </trkpt>
      <trkpt lat="44.54443" lon="4.59585">
        <ele>241.19999694824</ele>
        <time>2020-05-31T06:51:04Z</time>
      </trkpt>
      <trkpt lat="44.54446" lon="4.59586">
        <ele>240.80000305176</ele>
        <time>2020-05-31T06:51:03Z</time>
      </trkpt>
      <trkpt lat="44.54448" lon="4.59586">
        <ele>240.80000305176</ele>
        <time>2020-05-31T06:51:02Z</time>
      </trkpt>
      <trkpt lat="44.5445" lon="4.59586">
        <ele>240.80000305176</ele>
        <time>2020-05-31T06:51:01Z</time>
      </trkpt>
      <trkpt lat="44.54453" lon="4.59587">
        <ele>240.60000610352</ele>
        <time>2020-05-31T06:51:00Z</time>
      </trkpt>
      <trkpt lat="44.54455" lon="4.59587">
        <ele>240.19999694824</ele>
        <time>2020-05-31T06:50:59Z</time>
      </trkpt>
      <trkpt lat="44.54457" lon="4.59587">
        <ele>240.19999694824</ele>
        <time>2020-05-31T06:50:58Z</time>
      </trkpt>
      <trkpt lat="44.5446" lon="4.59588">
        <ele>240.19999694824</ele>
        <time>2020-05-31T06:50:57Z</time>
      </trkpt>
      <trkpt lat="44.54462" lon="4.59589">
        <ele>240</ele>
        <time>2020-05-31T06:50:56Z</time>
      </trkpt>
      <trkpt lat="44.54464" lon="4.59589">
        <ele>239.80000305176</ele>
        <time>2020-05-31T06:50:55Z</time>
      </trkpt>
      <trkpt lat="44.54466" lon="4.5959">
        <ele>239.39999389648</ele>
        <time>2020-05-31T06:50:54Z</time>
      </trkpt>
      <trkpt lat="44.54469" lon="4.59589">
        <ele>239.39999389648</ele>
        <time>2020-05-31T06:50:53Z</time>
      </trkpt>
      <trkpt lat="44.54471" lon="4.59589">
        <ele>239.39999389648</ele>
        <time>2020-05-31T06:50:52Z</time>
      </trkpt>
      <trkpt lat="44.54472" lon="4.59589">
        <ele>239.39999389648</ele>
        <time>2020-05-31T06:50:51Z</time>
      </trkpt>
      <trkpt lat="44.54474" lon="4.59589">
        <ele>239.19999694824</ele>
        <time>2020-05-31T06:50:50Z</time>
      </trkpt>
      <trkpt lat="44.54476" lon="4.59589">
        <ele>239.19999694824</ele>
        <time>2020-05-31T06:50:49Z</time>
      </trkpt>
      <trkpt lat="44.54478" lon="4.59588">
        <ele>239.19999694824</ele>
        <time>2020-05-31T06:50:47Z</time>
      </trkpt>
      <trkpt lat="44.5448" lon="4.59588">
        <ele>239.19999694824</ele>
        <time>2020-05-31T06:50:46Z</time>
      </trkpt>
      <trkpt lat="44.54481" lon="4.59588">
        <ele>239.19999694824</ele>
        <time>2020-05-31T06:50:45Z</time>
      </trkpt>
      <trkpt lat="44.54482" lon="4.59589">
        <ele>239</ele>
        <time>2020-05-31T06:50:44Z</time>
      </trkpt>
      <trkpt lat="44.54483" lon="4.59589">
        <ele>239</ele>
        <time>2020-05-31T06:50:43Z</time>
      </trkpt>
      <trkpt lat="44.54483" lon="4.59589">
        <ele>239.19999694824</ele>
        <time>2020-05-31T06:50:42Z</time>
      </trkpt>
      <trkpt lat="44.54484" lon="4.59589">
        <ele>239.19999694824</ele>
        <time>2020-05-31T06:50:41Z</time>
      </trkpt>
      <trkpt lat="44.54484" lon="4.59589">
        <ele>239</ele>
        <time>2020-05-31T06:50:40Z</time>
      </trkpt>
      <trkpt lat="44.54484" lon="4.59588">
        <ele>239.19999694824</ele>
        <time>2020-05-31T06:50:37Z</time>
      </trkpt>
      <trkpt lat="44.54484" lon="4.59588">
        <ele>239</ele>
        <time>2020-05-31T06:50:36Z</time>
      </trkpt>
      <trkpt lat="44.54485" lon="4.59588">
        <ele>238.19999694824</ele>
        <time>2020-05-31T06:50:26Z</time>
      </trkpt>
      <trkpt lat="44.54486" lon="4.59588">
        <ele>237.19999694824</ele>
        <time>2020-05-31T06:50:22Z</time>
      </trkpt>
      <trkpt lat="44.54488" lon="4.59588">
        <ele>236.80000305176</ele>
        <time>2020-05-31T06:50:21Z</time>
      </trkpt>
      <trkpt lat="44.5449" lon="4.59588">
        <ele>236.60000610352</ele>
        <time>2020-05-31T06:50:20Z</time>
      </trkpt>
      <trkpt lat="44.54492" lon="4.59587">
        <ele>236.39999389648</ele>
        <time>2020-05-31T06:50:19Z</time>
      </trkpt>
      <trkpt lat="44.54494" lon="4.59587">
        <ele>236.39999389648</ele>
        <time>2020-05-31T06:50:18Z</time>
      </trkpt>
      <trkpt lat="44.54495" lon="4.59587">
        <ele>236.19999694824</ele>
        <time>2020-05-31T06:50:17Z</time>
      </trkpt>
      <trkpt lat="44.54497" lon="4.59586">
        <ele>235.80000305176</ele>
        <time>2020-05-31T06:50:16Z</time>
      </trkpt>
      <trkpt lat="44.54499" lon="4.59586">
        <ele>235.80000305176</ele>
        <time>2020-05-31T06:50:15Z</time>
      </trkpt>
      <trkpt lat="44.545" lon="4.59586">
        <ele>235.80000305176</ele>
        <time>2020-05-31T06:50:14Z</time>
      </trkpt>
      <trkpt lat="44.54502" lon="4.59585">
        <ele>235.39999389648</ele>
        <time>2020-05-31T06:50:13Z</time>
      </trkpt>
      <trkpt lat="44.54504" lon="4.59585">
        <ele>235.19999694824</ele>
        <time>2020-05-31T06:50:12Z</time>
      </trkpt>
      <trkpt lat="44.54506" lon="4.59585">
        <ele>235.19999694824</ele>
        <time>2020-05-31T06:50:11Z</time>
      </trkpt>
      <trkpt lat="44.54508" lon="4.59585">
        <ele>235</ele>
        <time>2020-05-31T06:50:10Z</time>
      </trkpt>
      <trkpt lat="44.5451" lon="4.59585">
        <ele>234.80000305176</ele>
        <time>2020-05-31T06:50:09Z</time>
      </trkpt>
      <trkpt lat="44.54512" lon="4.59585">
        <ele>234.39999389648</ele>
        <time>2020-05-31T06:50:08Z</time>
      </trkpt>
      <trkpt lat="44.54513" lon="4.59586">
        <ele>234.19999694824</ele>
        <time>2020-05-31T06:50:07Z</time>
      </trkpt>
      <trkpt lat="44.54515" lon="4.59586">
        <ele>233.80000305176</ele>
        <time>2020-05-31T06:50:06Z</time>
      </trkpt>
      <trkpt lat="44.54518" lon="4.59586">
        <ele>234</ele>
        <time>2020-05-31T06:50:05Z</time>
      </trkpt>
      <trkpt lat="44.5452" lon="4.59585">
        <ele>233.60000610352</ele>
        <time>2020-05-31T06:50:04Z</time>
      </trkpt>
      <trkpt lat="44.54522" lon="4.59584">
        <ele>233.60000610352</ele>
        <time>2020-05-31T06:50:03Z</time>
      </trkpt>
      <trkpt lat="44.54523" lon="4.59583">
        <ele>233.39999389648</ele>
        <time>2020-05-31T06:50:02Z</time>
      </trkpt>
      <trkpt lat="44.54525" lon="4.59582">
        <ele>233.39999389648</ele>
        <time>2020-05-31T06:50:01Z</time>
      </trkpt>
      <trkpt lat="44.54527" lon="4.59582">
        <ele>233</ele>
        <time>2020-05-31T06:50:00Z</time>
      </trkpt>
      <trkpt lat="44.54529" lon="4.59582">
        <ele>232.80000305176</ele>
        <time>2020-05-31T06:49:59Z</time>
      </trkpt>
      <trkpt lat="44.54531" lon="4.59582">
        <ele>232.80000305176</ele>
        <time>2020-05-31T06:49:58Z</time>
      </trkpt>
      <trkpt lat="44.54533" lon="4.59582">
        <ele>232.60000610352</ele>
        <time>2020-05-31T06:49:57Z</time>
      </trkpt>
      <trkpt lat="44.54535" lon="4.59582">
        <ele>232.60000610352</ele>
        <time>2020-05-31T06:49:56Z</time>
      </trkpt>
      <trkpt lat="44.54537" lon="4.59581">
        <ele>232.39999389648</ele>
        <time>2020-05-31T06:49:55Z</time>
      </trkpt>
      <trkpt lat="44.54539" lon="4.5958">
        <ele>232.19999694824</ele>
        <time>2020-05-31T06:49:54Z</time>
      </trkpt>
      <trkpt lat="44.54541" lon="4.5958">
        <ele>232.19999694824</ele>
        <time>2020-05-31T06:49:53Z</time>
      </trkpt>
      <trkpt lat="44.54543" lon="4.5958">
        <ele>232.19999694824</ele>
        <time>2020-05-31T06:49:52Z</time>
      </trkpt>
      <trkpt lat="44.54545" lon="4.59579">
        <ele>231.80000305176</ele>
        <time>2020-05-31T06:49:51Z</time>
      </trkpt>
      <trkpt lat="44.54547" lon="4.59579">
        <ele>232</ele>
        <time>2020-05-31T06:49:50Z</time>
      </trkpt>
      <trkpt lat="44.54549" lon="4.59578">
        <ele>231.60000610352</ele>
        <time>2020-05-31T06:49:49Z</time>
      </trkpt>
      <trkpt lat="44.54551" lon="4.59578">
        <ele>231.39999389648</ele>
        <time>2020-05-31T06:49:48Z</time>
      </trkpt>
      <trkpt lat="44.54553" lon="4.59577">
        <ele>231.39999389648</ele>
        <time>2020-05-31T06:49:47Z</time>
      </trkpt>
      <trkpt lat="44.54555" lon="4.59577">
        <ele>231.19999694824</ele>
        <time>2020-05-31T06:49:46Z</time>
      </trkpt>
      <trkpt lat="44.54556" lon="4.59577">
        <ele>230.80000305176</ele>
        <time>2020-05-31T06:49:45Z</time>
      </trkpt>
      <trkpt lat="44.54558" lon="4.59576">
        <ele>230.60000610352</ele>
        <time>2020-05-31T06:49:44Z</time>
      </trkpt>
      <trkpt lat="44.5456" lon="4.59576">
        <ele>230.19999694824</ele>
        <time>2020-05-31T06:49:43Z</time>
      </trkpt>
      <trkpt lat="44.54562" lon="4.59576">
        <ele>230</ele>
        <time>2020-05-31T06:49:42Z</time>
      </trkpt>
      <trkpt lat="44.54564" lon="4.59576">
        <ele>229.60000610352</ele>
        <time>2020-05-31T06:49:41Z</time>
      </trkpt>
      <trkpt lat="44.54566" lon="4.59576">
        <ele>229.19999694824</ele>
        <time>2020-05-31T06:49:40Z</time>
      </trkpt>
      <trkpt lat="44.54568" lon="4.59575">
        <ele>229.19999694824</ele>
        <time>2020-05-31T06:49:39Z</time>
      </trkpt>
      <trkpt lat="44.54569" lon="4.59575">
        <ele>228.80000305176</ele>
        <time>2020-05-31T06:49:38Z</time>
      </trkpt>
      <trkpt lat="44.54571" lon="4.59575">
        <ele>228.60000610352</ele>
        <time>2020-05-31T06:49:37Z</time>
      </trkpt>
      <trkpt lat="44.54573" lon="4.59575">
        <ele>228.39999389648</ele>
        <time>2020-05-31T06:49:36Z</time>
      </trkpt>
      <trkpt lat="44.54575" lon="4.59575">
        <ele>228</ele>
        <time>2020-05-31T06:49:35Z</time>
      </trkpt>
      <trkpt lat="44.54577" lon="4.59575">
        <ele>227.80000305176</ele>
        <time>2020-05-31T06:49:34Z</time>
      </trkpt>
      <trkpt lat="44.54579" lon="4.59574">
        <ele>227.60000610352</ele>
        <time>2020-05-31T06:49:33Z</time>
      </trkpt>
      <trkpt lat="44.5458" lon="4.59574">
        <ele>227.19999694824</ele>
        <time>2020-05-31T06:49:32Z</time>
      </trkpt>
      <trkpt lat="44.54582" lon="4.59574">
        <ele>227.19999694824</ele>
        <time>2020-05-31T06:49:31Z</time>
      </trkpt>
      <trkpt lat="44.54584" lon="4.59574">
        <ele>227</ele>
        <time>2020-05-31T06:49:30Z</time>
      </trkpt>
      <trkpt lat="44.54585" lon="4.59574">
        <ele>226.39999389648</ele>
        <time>2020-05-31T06:49:29Z</time>
      </trkpt>
      <trkpt lat="44.54587" lon="4.59574">
        <ele>226</ele>
        <time>2020-05-31T06:49:28Z</time>
      </trkpt>
      <trkpt lat="44.54588" lon="4.59573">
        <ele>225.80000305176</ele>
        <time>2020-05-31T06:49:27Z</time>
      </trkpt>
      <trkpt lat="44.5459" lon="4.59573">
        <ele>225.39999389648</ele>
        <time>2020-05-31T06:49:26Z</time>
      </trkpt>
      <trkpt lat="44.54592" lon="4.59574">
        <ele>225.19999694824</ele>
        <time>2020-05-31T06:49:25Z</time>
      </trkpt>
      <trkpt lat="44.54593" lon="4.59574">
        <ele>225</ele>
        <time>2020-05-31T06:49:24Z</time>
      </trkpt>
      <trkpt lat="44.54595" lon="4.59575">
        <ele>224.60000610352</ele>
        <time>2020-05-31T06:49:23Z</time>
      </trkpt>
      <trkpt lat="44.54597" lon="4.59575">
        <ele>224.39999389648</ele>
        <time>2020-05-31T06:49:22Z</time>
      </trkpt>
      <trkpt lat="44.54598" lon="4.59575">
        <ele>224</ele>
        <time>2020-05-31T06:49:21Z</time>
      </trkpt>
      <trkpt lat="44.546" lon="4.59575">
        <ele>223.80000305176</ele>
        <time>2020-05-31T06:49:20Z</time>
      </trkpt>
      <trkpt lat="44.54601" lon="4.59574">
        <ele>223.39999389648</ele>
        <time>2020-05-31T06:49:19Z</time>
      </trkpt>
      <trkpt lat="44.54603" lon="4.59575">
        <ele>223</ele>
        <time>2020-05-31T06:49:18Z</time>
      </trkpt>
      <trkpt lat="44.54605" lon="4.59575">
        <ele>222.60000610352</ele>
        <time>2020-05-31T06:49:17Z</time>
      </trkpt>
      <trkpt lat="44.54606" lon="4.59575">
        <ele>222.19999694824</ele>
        <time>2020-05-31T06:49:16Z</time>
      </trkpt>
      <trkpt lat="44.54608" lon="4.59575">
        <ele>222.19999694824</ele>
        <time>2020-05-31T06:49:15Z</time>
      </trkpt>
      <trkpt lat="44.54609" lon="4.59575">
        <ele>221.80000305176</ele>
        <time>2020-05-31T06:49:14Z</time>
      </trkpt>
      <trkpt lat="44.54611" lon="4.59574">
        <ele>221.60000610352</ele>
        <time>2020-05-31T06:49:13Z</time>
      </trkpt>
      <trkpt lat="44.54612" lon="4.59574">
        <ele>221.39999389648</ele>
        <time>2020-05-31T06:49:12Z</time>
      </trkpt>
      <trkpt lat="44.54614" lon="4.59573">
        <ele>221.19999694824</ele>
        <time>2020-05-31T06:49:11Z</time>
      </trkpt>
      <trkpt lat="44.54616" lon="4.59573">
        <ele>221.19999694824</ele>
        <time>2020-05-31T06:49:10Z</time>
      </trkpt>
      <trkpt lat="44.54618" lon="4.59573">
        <ele>221</ele>
        <time>2020-05-31T06:49:09Z</time>
      </trkpt>
      <trkpt lat="44.54619" lon="4.59573">
        <ele>220.60000610352</ele>
        <time>2020-05-31T06:49:08Z</time>
      </trkpt>
      <trkpt lat="44.54621" lon="4.59572">
        <ele>220.60000610352</ele>
        <time>2020-05-31T06:49:07Z</time>
      </trkpt>
      <trkpt lat="44.54622" lon="4.59572">
        <ele>220.39999389648</ele>
        <time>2020-05-31T06:49:06Z</time>
      </trkpt>
      <trkpt lat="44.54624" lon="4.59571">
        <ele>220.19999694824</ele>
        <time>2020-05-31T06:49:05Z</time>
      </trkpt>
      <trkpt lat="44.54625" lon="4.59571">
        <ele>220</ele>
        <time>2020-05-31T06:49:04Z</time>
      </trkpt>
      <trkpt lat="44.54627" lon="4.59571">
        <ele>219.80000305176</ele>
        <time>2020-05-31T06:49:03Z</time>
      </trkpt>
      <trkpt lat="44.54628" lon="4.59571">
        <ele>219.60000610352</ele>
        <time>2020-05-31T06:49:02Z</time>
      </trkpt>
      <trkpt lat="44.54629" lon="4.5957">
        <ele>219.19999694824</ele>
        <time>2020-05-31T06:49:01Z</time>
      </trkpt>
      <trkpt lat="44.54631" lon="4.5957">
        <ele>218.80000305176</ele>
        <time>2020-05-31T06:49:00Z</time>
      </trkpt>
      <trkpt lat="44.54632" lon="4.5957">
        <ele>218.60000610352</ele>
        <time>2020-05-31T06:48:59Z</time>
      </trkpt>
      <trkpt lat="44.54633" lon="4.5957">
        <ele>218.60000610352</ele>
        <time>2020-05-31T06:48:58Z</time>
      </trkpt>
      <trkpt lat="44.54634" lon="4.5957">
        <ele>218.19999694824</ele>
        <time>2020-05-31T06:48:57Z</time>
      </trkpt>
      <trkpt lat="44.54635" lon="4.5957">
        <ele>218</ele>
        <time>2020-05-31T06:48:56Z</time>
      </trkpt>
      <trkpt lat="44.54637" lon="4.59571">
        <ele>217.60000610352</ele>
        <time>2020-05-31T06:48:55Z</time>
      </trkpt>
      <trkpt lat="44.54639" lon="4.5957">
        <ele>217.39999389648</ele>
        <time>2020-05-31T06:48:54Z</time>
      </trkpt>
      <trkpt lat="44.54641" lon="4.59571">
        <ele>217.19999694824</ele>
        <time>2020-05-31T06:48:53Z</time>
      </trkpt>
      <trkpt lat="44.54642" lon="4.59571">
        <ele>216.60000610352</ele>
        <time>2020-05-31T06:48:52Z</time>
      </trkpt>
      <trkpt lat="44.54644" lon="4.59572">
        <ele>216.39999389648</ele>
        <time>2020-05-31T06:48:51Z</time>
      </trkpt>
      <trkpt lat="44.54645" lon="4.59572">
        <ele>216.19999694824</ele>
        <time>2020-05-31T06:48:50Z</time>
      </trkpt>
      <trkpt lat="44.54646" lon="4.59573">
        <ele>216.19999694824</ele>
        <time>2020-05-31T06:48:49Z</time>
      </trkpt>
      <trkpt lat="44.54648" lon="4.59574">
        <ele>215.80000305176</ele>
        <time>2020-05-31T06:48:48Z</time>
      </trkpt>
      <trkpt lat="44.54649" lon="4.59575">
        <ele>215.60000610352</ele>
        <time>2020-05-31T06:48:47Z</time>
      </trkpt>
      <trkpt lat="44.5465" lon="4.59576">
        <ele>215.39999389648</ele>
        <time>2020-05-31T06:48:46Z</time>
      </trkpt>
      <trkpt lat="44.54651" lon="4.59576">
        <ele>215</ele>
        <time>2020-05-31T06:48:45Z</time>
      </trkpt>
      <trkpt lat="44.54653" lon="4.59577">
        <ele>214.80000305176</ele>
        <time>2020-05-31T06:48:44Z</time>
      </trkpt>
      <trkpt lat="44.54655" lon="4.59577">
        <ele>214.80000305176</ele>
        <time>2020-05-31T06:48:43Z</time>
      </trkpt>
      <trkpt lat="44.54656" lon="4.59578">
        <ele>214.39999389648</ele>
        <time>2020-05-31T06:48:42Z</time>
      </trkpt>
      <trkpt lat="44.54658" lon="4.59578">
        <ele>213.80000305176</ele>
        <time>2020-05-31T06:48:41Z</time>
      </trkpt>
      <trkpt lat="44.54659" lon="4.59579">
        <ele>213.39999389648</ele>
        <time>2020-05-31T06:48:40Z</time>
      </trkpt>
      <trkpt lat="44.54661" lon="4.59579">
        <ele>213.19999694824</ele>
        <time>2020-05-31T06:48:39Z</time>
      </trkpt>
      <trkpt lat="44.54663" lon="4.59579">
        <ele>212.80000305176</ele>
        <time>2020-05-31T06:48:38Z</time>
      </trkpt>
      <trkpt lat="44.54665" lon="4.5958">
        <ele>212.39999389648</ele>
        <time>2020-05-31T06:48:37Z</time>
      </trkpt>
      <trkpt lat="44.54666" lon="4.59581">
        <ele>212</ele>
        <time>2020-05-31T06:48:36Z</time>
      </trkpt>
      <trkpt lat="44.54668" lon="4.59581">
        <ele>211.60000610352</ele>
        <time>2020-05-31T06:48:35Z</time>
      </trkpt>
      <trkpt lat="44.54669" lon="4.59582">
        <ele>211.39999389648</ele>
        <time>2020-05-31T06:48:34Z</time>
      </trkpt>
      <trkpt lat="44.54671" lon="4.59582">
        <ele>211</ele>
        <time>2020-05-31T06:48:33Z</time>
      </trkpt>
      <trkpt lat="44.54672" lon="4.59583">
        <ele>210.60000610352</ele>
        <time>2020-05-31T06:48:32Z</time>
      </trkpt>
      <trkpt lat="44.54674" lon="4.59583">
        <ele>210.39999389648</ele>
        <time>2020-05-31T06:48:31Z</time>
      </trkpt>
      <trkpt lat="44.54675" lon="4.59583">
        <ele>210</ele>
        <time>2020-05-31T06:48:30Z</time>
      </trkpt>
      <trkpt lat="44.54676" lon="4.59583">
        <ele>209.60000610352</ele>
        <time>2020-05-31T06:48:29Z</time>
      </trkpt>
      <trkpt lat="44.54678" lon="4.59584">
        <ele>209.60000610352</ele>
        <time>2020-05-31T06:48:28Z</time>
      </trkpt>
      <trkpt lat="44.54679" lon="4.59584">
        <ele>209.19999694824</ele>
        <time>2020-05-31T06:48:27Z</time>
      </trkpt>
      <trkpt lat="44.5468" lon="4.59585">
        <ele>208.80000305176</ele>
        <time>2020-05-31T06:48:26Z</time>
      </trkpt>
      <trkpt lat="44.54682" lon="4.59585">
        <ele>208.60000610352</ele>
        <time>2020-05-31T06:48:25Z</time>
      </trkpt>
      <trkpt lat="44.54683" lon="4.59586">
        <ele>208.39999389648</ele>
        <time>2020-05-31T06:48:24Z</time>
      </trkpt>
      <trkpt lat="44.54685" lon="4.59586">
        <ele>208.19999694824</ele>
        <time>2020-05-31T06:48:23Z</time>
      </trkpt>
      <trkpt lat="44.54687" lon="4.59586">
        <ele>208</ele>
        <time>2020-05-31T06:48:22Z</time>
      </trkpt>
      <trkpt lat="44.54688" lon="4.59586">
        <ele>207.60000610352</ele>
        <time>2020-05-31T06:48:21Z</time>
      </trkpt>
      <trkpt lat="44.5469" lon="4.59586">
        <ele>207.39999389648</ele>
        <time>2020-05-31T06:48:20Z</time>
      </trkpt>
      <trkpt lat="44.54691" lon="4.59587">
        <ele>207.19999694824</ele>
        <time>2020-05-31T06:48:19Z</time>
      </trkpt>
      <trkpt lat="44.54693" lon="4.59588">
        <ele>207</ele>
        <time>2020-05-31T06:48:18Z</time>
      </trkpt>
      <trkpt lat="44.54694" lon="4.59588">
        <ele>207</ele>
        <time>2020-05-31T06:48:17Z</time>
      </trkpt>
      <trkpt lat="44.54695" lon="4.59589">
        <ele>206.60000610352</ele>
        <time>2020-05-31T06:48:16Z</time>
      </trkpt>
      <trkpt lat="44.54697" lon="4.5959">
        <ele>206.39999389648</ele>
        <time>2020-05-31T06:48:15Z</time>
      </trkpt>
      <trkpt lat="44.54698" lon="4.5959">
        <ele>206</ele>
        <time>2020-05-31T06:48:14Z</time>
      </trkpt>
      <trkpt lat="44.547" lon="4.5959">
        <ele>205.80000305176</ele>
        <time>2020-05-31T06:48:13Z</time>
      </trkpt>
      <trkpt lat="44.54702" lon="4.5959">
        <ele>205.39999389648</ele>
        <time>2020-05-31T06:48:12Z</time>
      </trkpt>
      <trkpt lat="44.54703" lon="4.59589">
        <ele>205.39999389648</ele>
        <time>2020-05-31T06:48:11Z</time>
      </trkpt>
      <trkpt lat="44.54705" lon="4.59589">
        <ele>205</ele>
        <time>2020-05-31T06:48:10Z</time>
      </trkpt>
      <trkpt lat="44.54706" lon="4.59589">
        <ele>204.80000305176</ele>
        <time>2020-05-31T06:48:09Z</time>
      </trkpt>
      <trkpt lat="44.54707" lon="4.59589">
        <ele>204.80000305176</ele>
        <time>2020-05-31T06:48:08Z</time>
      </trkpt>
      <trkpt lat="44.54709" lon="4.59589">
        <ele>204.39999389648</ele>
        <time>2020-05-31T06:48:07Z</time>
      </trkpt>
      <trkpt lat="44.54711" lon="4.59589">
        <ele>204.39999389648</ele>
        <time>2020-05-31T06:48:06Z</time>
      </trkpt>
      <trkpt lat="44.54713" lon="4.59589">
        <ele>204.19999694824</ele>
        <time>2020-05-31T06:48:05Z</time>
      </trkpt>
      <trkpt lat="44.54715" lon="4.5959">
        <ele>203.80000305176</ele>
        <time>2020-05-31T06:48:04Z</time>
      </trkpt>
      <trkpt lat="44.54717" lon="4.5959">
        <ele>203.19999694824</ele>
        <time>2020-05-31T06:48:03Z</time>
      </trkpt>
      <trkpt lat="44.54719" lon="4.5959">
        <ele>203</ele>
        <time>2020-05-31T06:48:02Z</time>
      </trkpt>
      <trkpt lat="44.54721" lon="4.59591">
        <ele>202.80000305176</ele>
        <time>2020-05-31T06:48:01Z</time>
      </trkpt>
      <trkpt lat="44.54723" lon="4.59592">
        <ele>202.60000610352</ele>
        <time>2020-05-31T06:48:00Z</time>
      </trkpt>
      <trkpt lat="44.54725" lon="4.59592">
        <ele>202.39999389648</ele>
        <time>2020-05-31T06:47:59Z</time>
      </trkpt>
      <trkpt lat="44.54726" lon="4.59592">
        <ele>202.19999694824</ele>
        <time>2020-05-31T06:47:58Z</time>
      </trkpt>
      <trkpt lat="44.54727" lon="4.59592">
        <ele>202</ele>
        <time>2020-05-31T06:47:57Z</time>
      </trkpt>
      <trkpt lat="44.54729" lon="4.59593">
        <ele>201.80000305176</ele>
        <time>2020-05-31T06:47:56Z</time>
      </trkpt>
      <trkpt lat="44.54731" lon="4.59593">
        <ele>201.60000610352</ele>
        <time>2020-05-31T06:47:55Z</time>
      </trkpt>
      <trkpt lat="44.54733" lon="4.59593">
        <ele>201.39999389648</ele>
        <time>2020-05-31T06:47:54Z</time>
      </trkpt>
      <trkpt lat="44.54734" lon="4.59594">
        <ele>201</ele>
        <time>2020-05-31T06:47:53Z</time>
      </trkpt>
      <trkpt lat="44.54736" lon="4.59595">
        <ele>201</ele>
        <time>2020-05-31T06:47:52Z</time>
      </trkpt>
      <trkpt lat="44.54738" lon="4.59595">
        <ele>200.60000610352</ele>
        <time>2020-05-31T06:47:51Z</time>
      </trkpt>
      <trkpt lat="44.5474" lon="4.59596">
        <ele>200.39999389648</ele>
        <time>2020-05-31T06:47:50Z</time>
      </trkpt>
      <trkpt lat="44.54741" lon="4.59597">
        <ele>200.19999694824</ele>
        <time>2020-05-31T06:47:49Z</time>
      </trkpt>
      <trkpt lat="44.54743" lon="4.59598">
        <ele>199.80000305176</ele>
        <time>2020-05-31T06:47:48Z</time>
      </trkpt>
      <trkpt lat="44.54744" lon="4.59598">
        <ele>199.39999389648</ele>
        <time>2020-05-31T06:47:47Z</time>
      </trkpt>
      <trkpt lat="44.54746" lon="4.59599">
        <ele>199</ele>
        <time>2020-05-31T06:47:46Z</time>
      </trkpt>
      <trkpt lat="44.54749" lon="4.596">
        <ele>199</ele>
        <time>2020-05-31T06:47:45Z</time>
      </trkpt>
      <trkpt lat="44.5475" lon="4.59601">
        <ele>199</ele>
        <time>2020-05-31T06:47:44Z</time>
      </trkpt>
      <trkpt lat="44.54752" lon="4.59603">
        <ele>198.39999389648</ele>
        <time>2020-05-31T06:47:43Z</time>
      </trkpt>
      <trkpt lat="44.54753" lon="4.59604">
        <ele>198.39999389648</ele>
        <time>2020-05-31T06:47:42Z</time>
      </trkpt>
      <trkpt lat="44.54755" lon="4.59606">
        <ele>198</ele>
        <time>2020-05-31T06:47:41Z</time>
      </trkpt>
      <trkpt lat="44.54756" lon="4.59607">
        <ele>197.80000305176</ele>
        <time>2020-05-31T06:47:40Z</time>
      </trkpt>
      <trkpt lat="44.54757" lon="4.59608">
        <ele>197.19999694824</ele>
        <time>2020-05-31T06:47:39Z</time>
      </trkpt>
      <trkpt lat="44.54759" lon="4.5961">
        <ele>197.19999694824</ele>
        <time>2020-05-31T06:47:38Z</time>
      </trkpt>
      <trkpt lat="44.5476" lon="4.59611">
        <ele>196.80000305176</ele>
        <time>2020-05-31T06:47:37Z</time>
      </trkpt>
      <trkpt lat="44.54762" lon="4.59613">
        <ele>196.60000610352</ele>
        <time>2020-05-31T06:47:36Z</time>
      </trkpt>
      <trkpt lat="44.54763" lon="4.59614">
        <ele>196.39999389648</ele>
        <time>2020-05-31T06:47:35Z</time>
      </trkpt>
      <trkpt lat="44.54765" lon="4.59615">
        <ele>196.19999694824</ele>
        <time>2020-05-31T06:47:34Z</time>
      </trkpt>
      <trkpt lat="44.54767" lon="4.59616">
        <ele>195.60000610352</ele>
        <time>2020-05-31T06:47:33Z</time>
      </trkpt>
      <trkpt lat="44.54768" lon="4.59617">
        <ele>195.19999694824</ele>
        <time>2020-05-31T06:47:32Z</time>
      </trkpt>
      <trkpt lat="44.54769" lon="4.59618">
        <ele>194.80000305176</ele>
        <time>2020-05-31T06:47:31Z</time>
      </trkpt>
      <trkpt lat="44.5477" lon="4.59619">
        <ele>194.60000610352</ele>
        <time>2020-05-31T06:47:30Z</time>
      </trkpt>
      <trkpt lat="44.54771" lon="4.5962">
        <ele>194.19999694824</ele>
        <time>2020-05-31T06:47:29Z</time>
      </trkpt>
      <trkpt lat="44.54772" lon="4.59621">
        <ele>193.60000610352</ele>
        <time>2020-05-31T06:47:28Z</time>
      </trkpt>
      <trkpt lat="44.54773" lon="4.59622">
        <ele>193.19999694824</ele>
        <time>2020-05-31T06:47:27Z</time>
      </trkpt>
      <trkpt lat="44.54775" lon="4.59623">
        <ele>192.80000305176</ele>
        <time>2020-05-31T06:47:26Z</time>
      </trkpt>
      <trkpt lat="44.54776" lon="4.59624">
        <ele>192.19999694824</ele>
        <time>2020-05-31T06:47:25Z</time>
      </trkpt>
      <trkpt lat="44.54777" lon="4.59624">
        <ele>192.19999694824</ele>
        <time>2020-05-31T06:47:24Z</time>
      </trkpt>
      <trkpt lat="44.54779" lon="4.59625">
        <ele>191.80000305176</ele>
        <time>2020-05-31T06:47:23Z</time>
      </trkpt>
      <trkpt lat="44.54781" lon="4.59625">
        <ele>191</ele>
        <time>2020-05-31T06:47:22Z</time>
      </trkpt>
      <trkpt lat="44.54783" lon="4.59625">
        <ele>190.60000610352</ele>
        <time>2020-05-31T06:47:21Z</time>
      </trkpt>
      <trkpt lat="44.54785" lon="4.59626">
        <ele>190.39999389648</ele>
        <time>2020-05-31T06:47:20Z</time>
      </trkpt>
      <trkpt lat="44.54786" lon="4.59626">
        <ele>190</ele>
        <time>2020-05-31T06:47:19Z</time>
      </trkpt>
      <trkpt lat="44.54787" lon="4.59627">
        <ele>189.60000610352</ele>
        <time>2020-05-31T06:47:18Z</time>
      </trkpt>
      <trkpt lat="44.54789" lon="4.59629">
        <ele>189.60000610352</ele>
        <time>2020-05-31T06:47:17Z</time>
      </trkpt>
      <trkpt lat="44.54791" lon="4.59629">
        <ele>189.39999389648</ele>
        <time>2020-05-31T06:47:16Z</time>
      </trkpt>
      <trkpt lat="44.54793" lon="4.59631">
        <ele>189.39999389648</ele>
        <time>2020-05-31T06:47:15Z</time>
      </trkpt>
      <trkpt lat="44.54795" lon="4.59632">
        <ele>189.39999389648</ele>
        <time>2020-05-31T06:47:14Z</time>
      </trkpt>
      <trkpt lat="44.54798" lon="4.59633">
        <ele>189.19999694824</ele>
        <time>2020-05-31T06:47:13Z</time>
      </trkpt>
      <trkpt lat="44.548" lon="4.59634">
        <ele>189</ele>
        <time>2020-05-31T06:47:12Z</time>
      </trkpt>
      <trkpt lat="44.54802" lon="4.59635">
        <ele>188.80000305176</ele>
        <time>2020-05-31T06:47:11Z</time>
      </trkpt>
      <trkpt lat="44.54803" lon="4.59636">
        <ele>188.39999389648</ele>
        <time>2020-05-31T06:47:10Z</time>
      </trkpt>
      <trkpt lat="44.54805" lon="4.59636">
        <ele>188.19999694824</ele>
        <time>2020-05-31T06:47:09Z</time>
      </trkpt>
      <trkpt lat="44.54807" lon="4.59637">
        <ele>187.60000610352</ele>
        <time>2020-05-31T06:47:08Z</time>
      </trkpt>
      <trkpt lat="44.54808" lon="4.59637">
        <ele>187.39999389648</ele>
        <time>2020-05-31T06:47:07Z</time>
      </trkpt>
      <trkpt lat="44.5481" lon="4.59637">
        <ele>186.80000305176</ele>
        <time>2020-05-31T06:47:04Z</time>
      </trkpt>
      <trkpt lat="44.54811" lon="4.59636">
        <ele>186.60000610352</ele>
        <time>2020-05-31T06:47:03Z</time>
      </trkpt>
      <trkpt lat="44.54814" lon="4.59637">
        <ele>186.60000610352</ele>
        <time>2020-05-31T06:47:02Z</time>
      </trkpt>
      <trkpt lat="44.54815" lon="4.59637">
        <ele>186.60000610352</ele>
        <time>2020-05-31T06:47:01Z</time>
      </trkpt>
      <trkpt lat="44.54817" lon="4.59637">
        <ele>186.60000610352</ele>
        <time>2020-05-31T06:47:00Z</time>
      </trkpt>
      <trkpt lat="44.54819" lon="4.59636">
        <ele>186.60000610352</ele>
        <time>2020-05-31T06:46:59Z</time>
      </trkpt>
      <trkpt lat="44.54821" lon="4.59635">
        <ele>186.60000610352</ele>
        <time>2020-05-31T06:46:58Z</time>
      </trkpt>
      <trkpt lat="44.54822" lon="4.59633">
        <ele>186.39999389648</ele>
        <time>2020-05-31T06:46:57Z</time>
      </trkpt>
      <trkpt lat="44.54824" lon="4.5963">
        <ele>186.60000610352</ele>
        <time>2020-05-31T06:46:56Z</time>
      </trkpt>
      <trkpt lat="44.54826" lon="4.59627">
        <ele>186.80000305176</ele>
        <time>2020-05-31T06:46:55Z</time>
      </trkpt>
      <trkpt lat="44.54828" lon="4.59624">
        <ele>186.80000305176</ele>
        <time>2020-05-31T06:46:54Z</time>
      </trkpt>
      <trkpt lat="44.5483" lon="4.5962">
        <ele>187</ele>
        <time>2020-05-31T06:46:53Z</time>
      </trkpt>
      <trkpt lat="44.54832" lon="4.59617">
        <ele>187.80000305176</ele>
        <time>2020-05-31T06:46:52Z</time>
      </trkpt>
      <trkpt lat="44.54834" lon="4.59613">
        <ele>188.39999389648</ele>
        <time>2020-05-31T06:46:51Z</time>
      </trkpt>
      <trkpt lat="44.54836" lon="4.59608">
        <ele>188.39999389648</ele>
        <time>2020-05-31T06:46:50Z</time>
      </trkpt>
      <trkpt lat="44.54839" lon="4.59604">
        <ele>188.60000610352</ele>
        <time>2020-05-31T06:46:49Z</time>
      </trkpt>
      <trkpt lat="44.54842" lon="4.59599">
        <ele>188.80000305176</ele>
        <time>2020-05-31T06:46:48Z</time>
      </trkpt>
      <trkpt lat="44.54848" lon="4.59589">
        <ele>189</ele>
        <time>2020-05-31T06:46:46Z</time>
      </trkpt>
      <trkpt lat="44.54852" lon="4.59585">
        <ele>189</ele>
        <time>2020-05-31T06:46:45Z</time>
      </trkpt>
      <trkpt lat="44.54855" lon="4.59581">
        <ele>189</ele>
        <time>2020-05-31T06:46:44Z</time>
      </trkpt>
      <trkpt lat="44.54859" lon="4.59578">
        <ele>189</ele>
        <time>2020-05-31T06:46:43Z</time>
      </trkpt>
      <trkpt lat="44.54863" lon="4.59576">
        <ele>189.19999694824</ele>
        <time>2020-05-31T06:46:42Z</time>
      </trkpt>
      <trkpt lat="44.54867" lon="4.59574">
        <ele>189.19999694824</ele>
        <time>2020-05-31T06:46:41Z</time>
      </trkpt>
      <trkpt lat="44.54871" lon="4.59573">
        <ele>189.39999389648</ele>
        <time>2020-05-31T06:46:40Z</time>
      </trkpt>
      <trkpt lat="44.54886" lon="4.59571">
        <ele>189.39999389648</ele>
        <time>2020-05-31T06:46:36Z</time>
      </trkpt>
      <trkpt lat="44.54889" lon="4.59571">
        <ele>189.39999389648</ele>
        <time>2020-05-31T06:46:35Z</time>
      </trkpt>
      <trkpt lat="44.54892" lon="4.59571">
        <ele>189.39999389648</ele>
        <time>2020-05-31T06:46:34Z</time>
      </trkpt>
      <trkpt lat="44.54904" lon="4.5957">
        <ele>189.60000610352</ele>
        <time>2020-05-31T06:46:30Z</time>
      </trkpt>
      <trkpt lat="44.54906" lon="4.5957">
        <ele>189.60000610352</ele>
        <time>2020-05-31T06:46:29Z</time>
      </trkpt>
      <trkpt lat="44.54909" lon="4.5957">
        <ele>189.39999389648</ele>
        <time>2020-05-31T06:46:28Z</time>
      </trkpt>
      <trkpt lat="44.54911" lon="4.5957">
        <ele>189.60000610352</ele>
        <time>2020-05-31T06:46:27Z</time>
      </trkpt>
      <trkpt lat="44.54913" lon="4.59572">
        <ele>189.60000610352</ele>
        <time>2020-05-31T06:46:26Z</time>
      </trkpt>
      <trkpt lat="44.54915" lon="4.59574">
        <ele>189.39999389648</ele>
        <time>2020-05-31T06:46:25Z</time>
      </trkpt>
      <trkpt lat="44.54918" lon="4.59565">
        <ele>186</ele>
        <time>2021-10-24T09:50:41Z</time>
      </trkpt>
      <trkpt lat="44.54919" lon="4.59564">
        <ele>186.39999389648</ele>
        <time>2021-10-24T09:50:42Z</time>
      </trkpt>
      <trkpt lat="44.54921" lon="4.59563">
        <ele>186.80000305176</ele>
        <time>2021-10-24T09:50:43Z</time>
      </trkpt>
      <trkpt lat="44.54923" lon="4.5956">
        <ele>187</ele>
        <time>2021-10-24T09:50:44Z</time>
      </trkpt>
      <trkpt lat="44.54938" lon="4.59546">
        <ele>187.19999694824</ele>
        <time>2021-10-24T09:50:49Z</time>
      </trkpt>
      <trkpt lat="44.54948" lon="4.59537">
        <ele>187.19999694824</ele>
        <time>2021-10-24T09:50:52Z</time>
      </trkpt>
      <trkpt lat="44.54959" lon="4.59529">
        <ele>187.80000305176</ele>
        <time>2021-10-24T09:50:55Z</time>
      </trkpt>
      <trkpt lat="44.54963" lon="4.59527">
        <ele>187.80000305176</ele>
        <time>2021-10-24T09:50:56Z</time>
      </trkpt>
      <trkpt lat="44.5497" lon="4.59522">
        <ele>188</ele>
        <time>2021-10-24T09:50:58Z</time>
      </trkpt>
      <trkpt lat="44.54993" lon="4.5951">
        <ele>188.39999389648</ele>
        <time>2021-10-24T09:51:04Z</time>
      </trkpt>
      <trkpt lat="44.54997" lon="4.59509">
        <ele>188.39999389648</ele>
        <time>2021-10-24T09:51:05Z</time>
      </trkpt>
      <trkpt lat="44.55001" lon="4.59508">
        <ele>188.80000305176</ele>
        <time>2021-10-24T09:51:06Z</time>
      </trkpt>
      <trkpt lat="44.5501" lon="4.59506">
        <ele>188.80000305176</ele>
        <time>2021-10-24T09:51:08Z</time>
      </trkpt>
      <trkpt lat="44.55028" lon="4.59509">
        <ele>188.80000305176</ele>
        <time>2021-10-24T09:51:12Z</time>
      </trkpt>
      <trkpt lat="44.55042" lon="4.59511">
        <ele>189</ele>
        <time>2021-10-24T09:51:15Z</time>
      </trkpt>
      <trkpt lat="44.55047" lon="4.59511">
        <ele>189</ele>
        <time>2021-10-24T09:51:16Z</time>
      </trkpt>
      <trkpt lat="44.55057" lon="4.59509">
        <ele>189</ele>
        <time>2021-10-24T09:51:18Z</time>
      </trkpt>
      <trkpt lat="44.55062" lon="4.59507">
        <ele>189</ele>
        <time>2021-10-24T09:51:19Z</time>
      </trkpt>
      <trkpt lat="44.55067" lon="4.59506">
        <ele>189</ele>
        <time>2021-10-24T09:51:20Z</time>
      </trkpt>
      <trkpt lat="44.55071" lon="4.59504">
        <ele>189</ele>
        <time>2021-10-24T09:51:21Z</time>
      </trkpt>
      <trkpt lat="44.55076" lon="4.59502">
        <ele>189</ele>
        <time>2021-10-24T09:51:22Z</time>
      </trkpt>
      <trkpt lat="44.55081" lon="4.595">
        <ele>189.19999694824</ele>
        <time>2021-10-24T09:51:23Z</time>
      </trkpt>
      <trkpt lat="44.5509" lon="4.59497">
        <ele>189.19999694824</ele>
        <time>2021-10-24T09:51:25Z</time>
      </trkpt>
      <trkpt lat="44.55099" lon="4.59493">
        <ele>189.19999694824</ele>
        <time>2021-10-24T09:51:27Z</time>
      </trkpt>
      <trkpt lat="44.55103" lon="4.5949">
        <ele>189.39999389648</ele>
        <time>2021-10-24T09:51:28Z</time>
      </trkpt>
      <trkpt lat="44.55107" lon="4.59488">
        <ele>189.39999389648</ele>
        <time>2021-10-24T09:51:29Z</time>
      </trkpt>
      <trkpt lat="44.55111" lon="4.59487">
        <ele>189.39999389648</ele>
        <time>2021-10-24T09:51:30Z</time>
      </trkpt>
      <trkpt lat="44.55115" lon="4.59484">
        <ele>189.39999389648</ele>
        <time>2021-10-24T09:51:31Z</time>
      </trkpt>
      <trkpt lat="44.55119" lon="4.59482">
        <ele>189.60000610352</ele>
        <time>2021-10-24T09:51:32Z</time>
      </trkpt>
      <trkpt lat="44.55135" lon="4.59474">
        <ele>189.60000610352</ele>
        <time>2021-10-24T09:51:36Z</time>
      </trkpt>
      <trkpt lat="44.55139" lon="4.59472">
        <ele>189.60000610352</ele>
        <time>2021-10-24T09:51:37Z</time>
      </trkpt>
      <trkpt lat="44.55169" lon="4.59457">
        <ele>190.19999694824</ele>
        <time>2021-10-24T09:51:44Z</time>
      </trkpt>
      <trkpt lat="44.55178" lon="4.59453">
        <ele>190.39999389648</ele>
        <time>2021-10-24T09:51:46Z</time>
      </trkpt>
      <trkpt lat="44.55182" lon="4.59451">
        <ele>190.60000610352</ele>
        <time>2021-10-24T09:51:47Z</time>
      </trkpt>
      <trkpt lat="44.55199" lon="4.59443">
        <ele>191</ele>
        <time>2021-10-24T09:51:51Z</time>
      </trkpt>
      <trkpt lat="44.55203" lon="4.59441">
        <ele>191</ele>
        <time>2021-10-24T09:51:52Z</time>
      </trkpt>
      <trkpt lat="44.55207" lon="4.59439">
        <ele>191.19999694824</ele>
        <time>2021-10-24T09:51:53Z</time>
      </trkpt>
      <trkpt lat="44.55211" lon="4.59438">
        <ele>191.19999694824</ele>
        <time>2021-10-24T09:51:54Z</time>
      </trkpt>
      <trkpt lat="44.55215" lon="4.59436">
        <ele>191.39999389648</ele>
        <time>2021-10-24T09:51:55Z</time>
      </trkpt>
      <trkpt lat="44.55227" lon="4.5943">
        <ele>191.39999389648</ele>
        <time>2021-10-24T09:51:58Z</time>
      </trkpt>
      <trkpt lat="44.55235" lon="4.59426">
        <ele>191.60000610352</ele>
        <time>2021-10-24T09:52:00Z</time>
      </trkpt>
      <trkpt lat="44.55243" lon="4.59421">
        <ele>191.80000305176</ele>
        <time>2021-10-24T09:52:02Z</time>
      </trkpt>
      <trkpt lat="44.55246" lon="4.59419">
        <ele>192</ele>
        <time>2021-10-24T09:52:03Z</time>
      </trkpt>
      <trkpt lat="44.5525" lon="4.59416">
        <ele>192.19999694824</ele>
        <time>2021-10-24T09:52:04Z</time>
      </trkpt>
      <trkpt lat="44.55257" lon="4.59411">
        <ele>192.39999389648</ele>
        <time>2021-10-24T09:52:06Z</time>
      </trkpt>
      <trkpt lat="44.55259" lon="4.59407">
        <ele>192.39999389648</ele>
        <time>2021-10-24T09:52:07Z</time>
      </trkpt>
      <trkpt lat="44.55262" lon="4.59404">
        <ele>192.60000610352</ele>
        <time>2021-10-24T09:52:08Z</time>
      </trkpt>
      <trkpt lat="44.55263" lon="4.594">
        <ele>192.39999389648</ele>
        <time>2021-10-24T09:52:09Z</time>
      </trkpt>
      <trkpt lat="44.55264" lon="4.59395">
        <ele>192.60000610352</ele>
        <time>2021-10-24T09:52:10Z</time>
      </trkpt>
      <trkpt lat="44.55264" lon="4.59389">
        <ele>192.80000305176</ele>
        <time>2021-10-24T09:52:11Z</time>
      </trkpt>
      <trkpt lat="44.55263" lon="4.59384">
        <ele>192.80000305176</ele>
        <time>2021-10-24T09:52:12Z</time>
      </trkpt>
      <trkpt lat="44.55262" lon="4.59378">
        <ele>193</ele>
        <time>2021-10-24T09:52:13Z</time>
      </trkpt>
      <trkpt lat="44.55261" lon="4.59372">
        <ele>193.19999694824</ele>
        <time>2021-10-24T09:52:14Z</time>
      </trkpt>
      <trkpt lat="44.5526" lon="4.59367">
        <ele>193.19999694824</ele>
        <time>2021-10-24T09:52:15Z</time>
      </trkpt>
      <trkpt lat="44.55261" lon="4.59361">
        <ele>193.39999389648</ele>
        <time>2021-10-24T09:52:16Z</time>
      </trkpt>
      <trkpt lat="44.55262" lon="4.59356">
        <ele>193.60000610352</ele>
        <time>2021-10-24T09:52:17Z</time>
      </trkpt>
      <trkpt lat="44.55265" lon="4.59352">
        <ele>193.60000610352</ele>
        <time>2021-10-24T09:52:18Z</time>
      </trkpt>
      <trkpt lat="44.55267" lon="4.5935">
        <ele>193.80000305176</ele>
        <time>2021-10-24T09:52:19Z</time>
      </trkpt>
      <trkpt lat="44.55271" lon="4.59348">
        <ele>193.80000305176</ele>
        <time>2021-10-24T09:52:20Z</time>
      </trkpt>
      <trkpt lat="44.55271" lon="4.59348">
        <ele>193.80000305176</ele>
        <time>2021-10-24T09:52:20Z</time>
      </trkpt>
      <trkpt lat="44.55274" lon="4.59348">
        <ele>193.80000305176</ele>
        <time>2021-10-24T09:52:21Z</time>
      </trkpt>
      <trkpt lat="44.55271" lon="4.59343">
        <ele>196.39999389648</ele>
        <time>2020-09-13T09:49:53Z</time>
      </trkpt>
      <trkpt lat="44.55275" lon="4.59349">
        <ele>196.19999694824</ele>
        <time>2020-09-13T09:49:54Z</time>
      </trkpt>
      <trkpt lat="44.55293" lon="4.59371">
        <ele>195.80000305176</ele>
        <time>2020-09-13T09:49:58Z</time>
      </trkpt>
      <trkpt lat="44.55307" lon="4.59386">
        <ele>195.80000305176</ele>
        <time>2020-09-13T09:50:01Z</time>
      </trkpt>
      <trkpt lat="44.55312" lon="4.59391">
        <ele>195.80000305176</ele>
        <time>2020-09-13T09:50:02Z</time>
      </trkpt>
      <trkpt lat="44.55317" lon="4.59395">
        <ele>195.60000610352</ele>
        <time>2020-09-13T09:50:03Z</time>
      </trkpt>
      <trkpt lat="44.55338" lon="4.5941">
        <ele>195.60000610352</ele>
        <time>2020-09-13T09:50:07Z</time>
      </trkpt>
      <trkpt lat="44.55381" lon="4.59443">
        <ele>195.39999389648</ele>
        <time>2020-09-13T09:50:15Z</time>
      </trkpt>
      <trkpt lat="44.55386" lon="4.59446">
        <ele>195.60000610352</ele>
        <time>2020-09-13T09:50:16Z</time>
      </trkpt>
      <trkpt lat="44.55391" lon="4.59451">
        <ele>195.60000610352</ele>
        <time>2020-09-13T09:50:17Z</time>
      </trkpt>
      <trkpt lat="44.55396" lon="4.59455">
        <ele>195.60000610352</ele>
        <time>2020-09-13T09:50:18Z</time>
      </trkpt>
      <trkpt lat="44.55401" lon="4.59459">
        <ele>195.60000610352</ele>
        <time>2020-09-13T09:50:19Z</time>
      </trkpt>
      <trkpt lat="44.55406" lon="4.59463">
        <ele>195.60000610352</ele>
        <time>2020-09-13T09:50:20Z</time>
      </trkpt>
      <trkpt lat="44.55426" lon="4.59479">
        <ele>195.60000610352</ele>
        <time>2020-09-13T09:50:24Z</time>
      </trkpt>
      <trkpt lat="44.55431" lon="4.59483">
        <ele>195.80000305176</ele>
        <time>2020-09-13T09:50:25Z</time>
      </trkpt>
      <trkpt lat="44.55436" lon="4.59487">
        <ele>195.80000305176</ele>
        <time>2020-09-13T09:50:26Z</time>
      </trkpt>
      <trkpt lat="44.5544" lon="4.59492">
        <ele>195.80000305176</ele>
        <time>2020-09-13T09:50:27Z</time>
      </trkpt>
      <trkpt lat="44.55444" lon="4.59496">
        <ele>196</ele>
        <time>2020-09-13T09:50:28Z</time>
      </trkpt>
      <trkpt lat="44.55448" lon="4.59501">
        <ele>195.80000305176</ele>
        <time>2020-09-13T09:50:29Z</time>
      </trkpt>
      <trkpt lat="44.55452" lon="4.59507">
        <ele>195.80000305176</ele>
        <time>2020-09-13T09:50:30Z</time>
      </trkpt>
      <trkpt lat="44.55464" lon="4.59522">
        <ele>196.19999694824</ele>
        <time>2020-09-13T09:50:33Z</time>
      </trkpt>
      <trkpt lat="44.55468" lon="4.59527">
        <ele>196.39999389648</ele>
        <time>2020-09-13T09:50:34Z</time>
      </trkpt>
      <trkpt lat="44.55472" lon="4.59532">
        <ele>196.60000610352</ele>
        <time>2020-09-13T09:50:35Z</time>
      </trkpt>
      <trkpt lat="44.55476" lon="4.59537">
        <ele>196.80000305176</ele>
        <time>2020-09-13T09:50:36Z</time>
      </trkpt>
      <trkpt lat="44.55479" lon="4.59543">
        <ele>197.19999694824</ele>
        <time>2020-09-13T09:50:37Z</time>
      </trkpt>
      <trkpt lat="44.55482" lon="4.59549">
        <ele>197.39999389648</ele>
        <time>2020-09-13T09:50:38Z</time>
      </trkpt>
      <trkpt lat="44.55485" lon="4.59555">
        <ele>198</ele>
        <time>2020-09-13T09:50:39Z</time>
      </trkpt>
      <trkpt lat="44.55488" lon="4.59561">
        <ele>198.39999389648</ele>
        <time>2020-09-13T09:50:40Z</time>
      </trkpt>
      <trkpt lat="44.55491" lon="4.59567">
        <ele>198.80000305176</ele>
        <time>2020-09-13T09:50:41Z</time>
      </trkpt>
      <trkpt lat="44.55493" lon="4.59573">
        <ele>198.80000305176</ele>
        <time>2020-09-13T09:50:42Z</time>
      </trkpt>
      <trkpt lat="44.55496" lon="4.59579">
        <ele>199</ele>
        <time>2020-09-13T09:50:43Z</time>
      </trkpt>
      <trkpt lat="44.55498" lon="4.59586">
        <ele>199.19999694824</ele>
        <time>2020-09-13T09:50:44Z</time>
      </trkpt>
      <trkpt lat="44.555" lon="4.59593">
        <ele>199.80000305176</ele>
        <time>2020-09-13T09:50:45Z</time>
      </trkpt>
      <trkpt lat="44.55502" lon="4.596">
        <ele>200.19999694824</ele>
        <time>2020-09-13T09:50:46Z</time>
      </trkpt>
      <trkpt lat="44.55504" lon="4.59608">
        <ele>200.19999694824</ele>
        <time>2020-09-13T09:50:47Z</time>
      </trkpt>
      <trkpt lat="44.55505" lon="4.59615">
        <ele>200.39999389648</ele>
        <time>2020-09-13T09:50:48Z</time>
      </trkpt>
      <trkpt lat="44.55508" lon="4.59622">
        <ele>200.39999389648</ele>
        <time>2020-09-13T09:50:49Z</time>
      </trkpt>
      <trkpt lat="44.55508" lon="4.59628">
        <ele>200.39999389648</ele>
        <time>2020-09-13T09:50:50Z</time>
      </trkpt>
      <trkpt lat="44.55509" lon="4.59635">
        <ele>200.39999389648</ele>
        <time>2020-09-13T09:50:51Z</time>
      </trkpt>
      <trkpt lat="44.5551" lon="4.59642">
        <ele>200.19999694824</ele>
        <time>2020-09-13T09:50:52Z</time>
      </trkpt>
      <trkpt lat="44.55511" lon="4.59649">
        <ele>200.39999389648</ele>
        <time>2020-09-13T09:50:53Z</time>
      </trkpt>
      <trkpt lat="44.55512" lon="4.59656">
        <ele>200.39999389648</ele>
        <time>2020-09-13T09:50:54Z</time>
      </trkpt>
      <trkpt lat="44.55513" lon="4.59662">
        <ele>200.39999389648</ele>
        <time>2020-09-13T09:50:55Z</time>
      </trkpt>
      <trkpt lat="44.55514" lon="4.59669">
        <ele>200.39999389648</ele>
        <time>2020-09-13T09:50:56Z</time>
      </trkpt>
      <trkpt lat="44.55515" lon="4.59676">
        <ele>200.19999694824</ele>
        <time>2020-09-13T09:50:57Z</time>
      </trkpt>
      <trkpt lat="44.55516" lon="4.59682">
        <ele>200.19999694824</ele>
        <time>2020-09-13T09:50:58Z</time>
      </trkpt>
      <trkpt lat="44.55517" lon="4.59689">
        <ele>200.19999694824</ele>
        <time>2020-09-13T09:50:59Z</time>
      </trkpt>
      <trkpt lat="44.55518" lon="4.59703">
        <ele>199.80000305176</ele>
        <time>2020-09-13T09:51:01Z</time>
      </trkpt>
      <trkpt lat="44.55517" lon="4.5971">
        <ele>199.80000305176</ele>
        <time>2020-09-13T09:51:02Z</time>
      </trkpt>
      <trkpt lat="44.55517" lon="4.59716">
        <ele>199.80000305176</ele>
        <time>2020-09-13T09:51:03Z</time>
      </trkpt>
      <trkpt lat="44.55519" lon="4.59721">
        <ele>199.60000610352</ele>
        <time>2020-09-13T09:51:04Z</time>
      </trkpt>
      <trkpt lat="44.55519" lon="4.59724">
        <ele>199.80000305176</ele>
        <time>2020-09-13T09:51:05Z</time>
      </trkpt>
      <trkpt lat="44.5552" lon="4.59727">
        <ele>199.60000610352</ele>
        <time>2020-09-13T09:51:06Z</time>
      </trkpt>
      <trkpt lat="44.55522" lon="4.59729">
        <ele>199.60000610352</ele>
        <time>2020-09-13T09:51:07Z</time>
      </trkpt>
      <trkpt lat="44.55527" lon="4.5973">
        <ele>199.39999389648</ele>
        <time>2020-09-13T09:51:09Z</time>
      </trkpt>
      <trkpt lat="44.55531" lon="4.5973">
        <ele>199.39999389648</ele>
        <time>2020-09-13T09:51:10Z</time>
      </trkpt>
      <trkpt lat="44.55536" lon="4.59729">
        <ele>199.19999694824</ele>
        <time>2020-09-13T09:51:11Z</time>
      </trkpt>
      <trkpt lat="44.55542" lon="4.59728">
        <ele>199.19999694824</ele>
        <time>2020-09-13T09:51:12Z</time>
      </trkpt>
      <trkpt lat="44.55547" lon="4.59726">
        <ele>198.80000305176</ele>
        <time>2020-09-13T09:51:13Z</time>
      </trkpt>
      <trkpt lat="44.5556" lon="4.59722">
        <ele>198.80000305176</ele>
        <time>2020-09-13T09:51:15Z</time>
      </trkpt>
      <trkpt lat="44.55575" lon="4.59717">
        <ele>198.60000610352</ele>
        <time>2020-09-13T09:51:17Z</time>
      </trkpt>
      <trkpt lat="44.55599" lon="4.59713">
        <ele>198.19999694824</ele>
        <time>2020-09-13T09:51:20Z</time>
      </trkpt>
      <trkpt lat="44.55607" lon="4.59711">
        <ele>198.19999694824</ele>
        <time>2020-09-13T09:51:21Z</time>
      </trkpt>
      <trkpt lat="44.55614" lon="4.59709">
        <ele>197.80000305176</ele>
        <time>2020-09-13T09:51:22Z</time>
      </trkpt>
      <trkpt lat="44.55621" lon="4.59706">
        <ele>197.39999389648</ele>
        <time>2020-09-13T09:51:23Z</time>
      </trkpt>
      <trkpt lat="44.55628" lon="4.59704">
        <ele>196.80000305176</ele>
        <time>2020-09-13T09:51:24Z</time>
      </trkpt>
      <trkpt lat="44.55635" lon="4.59702">
        <ele>196</ele>
        <time>2020-09-13T09:51:25Z</time>
      </trkpt>
      <trkpt lat="44.55642" lon="4.59702">
        <ele>195.60000610352</ele>
        <time>2020-09-13T09:51:26Z</time>
      </trkpt>
      <trkpt lat="44.5565" lon="4.59703">
        <ele>195.19999694824</ele>
        <time>2020-09-13T09:51:27Z</time>
      </trkpt>
      <trkpt lat="44.55656" lon="4.59706">
        <ele>194.80000305176</ele>
        <time>2020-09-13T09:51:28Z</time>
      </trkpt>
      <trkpt lat="44.55663" lon="4.59709">
        <ele>194.19999694824</ele>
        <time>2020-09-13T09:51:29Z</time>
      </trkpt>
      <trkpt lat="44.55671" lon="4.5971">
        <ele>193.39999389648</ele>
        <time>2020-09-13T09:51:30Z</time>
      </trkpt>
      <trkpt lat="44.55677" lon="4.59707">
        <ele>192.19999694824</ele>
        <time>2020-09-13T09:51:31Z</time>
      </trkpt>
      <trkpt lat="44.55682" lon="4.597">
        <ele>191.39999389648</ele>
        <time>2020-09-13T09:51:32Z</time>
      </trkpt>
      <trkpt lat="44.55687" lon="4.59692">
        <ele>190.39999389648</ele>
        <time>2020-09-13T09:51:33Z</time>
      </trkpt>
      <trkpt lat="44.55691" lon="4.59685">
        <ele>189.80000305176</ele>
        <time>2020-09-13T09:51:34Z</time>
      </trkpt>
      <trkpt lat="44.55694" lon="4.59679">
        <ele>189.19999694824</ele>
        <time>2020-09-13T09:51:35Z</time>
      </trkpt>
      <trkpt lat="44.55696" lon="4.59677">
        <ele>188.60000610352</ele>
        <time>2020-09-13T09:51:36Z</time>
      </trkpt>
      <trkpt lat="44.55697" lon="4.59678">
        <ele>188.39999389648</ele>
        <time>2020-09-13T09:51:37Z</time>
      </trkpt>
      <trkpt lat="44.55697" lon="4.59695">
        <ele>186.80000305176</ele>
        <time>2020-09-13T09:51:40Z</time>
      </trkpt>
      <trkpt lat="44.55694" lon="4.59708">
        <ele>185.19999694824</ele>
        <time>2020-09-13T09:51:42Z</time>
      </trkpt>
      <trkpt lat="44.55693" lon="4.59714">
        <ele>184.39999389648</ele>
        <time>2020-09-13T09:51:43Z</time>
      </trkpt>
      <trkpt lat="44.55695" lon="4.5972">
        <ele>183.39999389648</ele>
        <time>2020-09-13T09:51:44Z</time>
      </trkpt>
      <trkpt lat="44.557" lon="4.5973">
        <ele>182.19999694824</ele>
        <time>2020-09-13T09:51:46Z</time>
      </trkpt>
      <trkpt lat="44.55701" lon="4.59734">
        <ele>181.39999389648</ele>
        <time>2020-09-13T09:51:47Z</time>
      </trkpt>
      <trkpt lat="44.55702" lon="4.59739">
        <ele>181.19999694824</ele>
        <time>2020-09-13T09:51:48Z</time>
      </trkpt>
      <trkpt lat="44.55701" lon="4.59745">
        <ele>181</ele>
        <time>2020-09-13T09:51:49Z</time>
      </trkpt>
      <trkpt lat="44.557" lon="4.59751">
        <ele>180.80000305176</ele>
        <time>2020-09-13T09:51:50Z</time>
      </trkpt>
      <trkpt lat="44.55698" lon="4.59759">
        <ele>180.60000610352</ele>
        <time>2020-09-13T09:51:51Z</time>
      </trkpt>
      <trkpt lat="44.55696" lon="4.59767">
        <ele>180.60000610352</ele>
        <time>2020-09-13T09:51:52Z</time>
      </trkpt>
      <trkpt lat="44.55687" lon="4.59817">
        <ele>180</ele>
        <time>2020-09-13T09:51:58Z</time>
      </trkpt>
      <trkpt lat="44.55684" lon="4.59825">
        <ele>180</ele>
        <time>2020-09-13T09:51:59Z</time>
      </trkpt>
      <trkpt lat="44.55675" lon="4.59848">
        <ele>179.80000305176</ele>
        <time>2020-09-13T09:52:02Z</time>
      </trkpt>
      <trkpt lat="44.55672" lon="4.59855">
        <ele>179.60000610352</ele>
        <time>2020-09-13T09:52:03Z</time>
      </trkpt>
      <trkpt lat="44.55668" lon="4.59861">
        <ele>179.60000610352</ele>
        <time>2020-09-13T09:52:04Z</time>
      </trkpt>
      <trkpt lat="44.55664" lon="4.59867">
        <ele>179.60000610352</ele>
        <time>2020-09-13T09:52:05Z</time>
      </trkpt>
      <trkpt lat="44.55661" lon="4.59874">
        <ele>179.60000610352</ele>
        <time>2020-09-13T09:52:06Z</time>
      </trkpt>
      <trkpt lat="44.5565" lon="4.59894">
        <ele>179.39999389648</ele>
        <time>2020-09-13T09:52:09Z</time>
      </trkpt>
      <trkpt lat="44.55625" lon="4.59936">
        <ele>179</ele>
        <time>2020-09-13T09:52:15Z</time>
      </trkpt>
      <trkpt lat="44.5562" lon="4.59942">
        <ele>178.80000305176</ele>
        <time>2020-09-13T09:52:16Z</time>
      </trkpt>
      <trkpt lat="44.55616" lon="4.59948">
        <ele>178.80000305176</ele>
        <time>2020-09-13T09:52:17Z</time>
      </trkpt>
      <trkpt lat="44.55611" lon="4.59955">
        <ele>178.60000610352</ele>
        <time>2020-09-13T09:52:18Z</time>
      </trkpt>
      <trkpt lat="44.55607" lon="4.59961">
        <ele>178.80000305176</ele>
        <time>2020-09-13T09:52:19Z</time>
      </trkpt>
      <trkpt lat="44.55603" lon="4.59966">
        <ele>178.60000610352</ele>
        <time>2020-09-13T09:52:20Z</time>
      </trkpt>
      <trkpt lat="44.55583" lon="4.59998">
        <ele>178</ele>
        <time>2020-09-13T09:52:25Z</time>
      </trkpt>
      <trkpt lat="44.5558" lon="4.60005">
        <ele>177.80000305176</ele>
        <time>2020-09-13T09:52:26Z</time>
      </trkpt>
      <trkpt lat="44.5556" lon="4.60048">
        <ele>177.39999389648</ele>
        <time>2020-09-13T09:52:32Z</time>
      </trkpt>
      <trkpt lat="44.55548" lon="4.60068">
        <ele>177</ele>
        <time>2020-09-13T09:52:35Z</time>
      </trkpt>
      <trkpt lat="44.55544" lon="4.60074">
        <ele>177</ele>
        <time>2020-09-13T09:52:36Z</time>
      </trkpt>
      <trkpt lat="44.5554" lon="4.60079">
        <ele>176.80000305176</ele>
        <time>2020-09-13T09:52:37Z</time>
      </trkpt>
      <trkpt lat="44.55537" lon="4.60085">
        <ele>176.60000610352</ele>
        <time>2020-09-13T09:52:38Z</time>
      </trkpt>
      <trkpt lat="44.55513" lon="4.6012">
        <ele>176</ele>
        <time>2020-09-13T09:52:44Z</time>
      </trkpt>
      <trkpt lat="44.55509" lon="4.60126">
        <ele>176</ele>
        <time>2020-09-13T09:52:45Z</time>
      </trkpt>
      <trkpt lat="44.55504" lon="4.60132">
        <ele>176</ele>
        <time>2020-09-13T09:52:46Z</time>
      </trkpt>
      <trkpt lat="44.55501" lon="4.60138">
        <ele>176</ele>
        <time>2020-09-13T09:52:47Z</time>
      </trkpt>
      <trkpt lat="44.55496" lon="4.60143">
        <ele>176</ele>
        <time>2020-09-13T09:52:48Z</time>
      </trkpt>
      <trkpt lat="44.55492" lon="4.60147">
        <ele>176</ele>
        <time>2020-09-13T09:52:49Z</time>
      </trkpt>
      <trkpt lat="44.55488" lon="4.60151">
        <ele>175.80000305176</ele>
        <time>2020-09-13T09:52:50Z</time>
      </trkpt>
      <trkpt lat="44.55483" lon="4.60154">
        <ele>175.80000305176</ele>
        <time>2020-09-13T09:52:51Z</time>
      </trkpt>
      <trkpt lat="44.55479" lon="4.60158">
        <ele>175.80000305176</ele>
        <time>2020-09-13T09:52:52Z</time>
      </trkpt>
      <trkpt lat="44.55476" lon="4.6016">
        <ele>176</ele>
        <time>2020-09-13T09:52:53Z</time>
      </trkpt>
      <trkpt lat="44.55473" lon="4.60163">
        <ele>175.80000305176</ele>
        <time>2020-09-13T09:52:54Z</time>
      </trkpt>
      <trkpt lat="44.55472" lon="4.60167">
        <ele>175.39999389648</ele>
        <time>2020-09-13T09:52:55Z</time>
      </trkpt>
      <trkpt lat="44.55473" lon="4.60172">
        <ele>175.39999389648</ele>
        <time>2020-09-13T09:52:56Z</time>
      </trkpt>
      <trkpt lat="44.55475" lon="4.60177">
        <ele>175.39999389648</ele>
        <time>2020-09-13T09:52:57Z</time>
      </trkpt>
      <trkpt lat="44.55478" lon="4.60184">
        <ele>175.39999389648</ele>
        <time>2020-09-13T09:52:58Z</time>
      </trkpt>
      <trkpt lat="44.55481" lon="4.6019">
        <ele>175.19999694824</ele>
        <time>2020-09-13T09:52:59Z</time>
      </trkpt>
      <trkpt lat="44.55483" lon="4.60195">
        <ele>175.19999694824</ele>
        <time>2020-09-13T09:53:00Z</time>
      </trkpt>
      <trkpt lat="44.55485" lon="4.60199">
        <ele>175.19999694824</ele>
        <time>2020-09-13T09:53:01Z</time>
      </trkpt>
      <trkpt lat="44.55486" lon="4.60203">
        <ele>174.80000305176</ele>
        <time>2020-09-13T09:53:02Z</time>
      </trkpt>
      <trkpt lat="44.55488" lon="4.60207">
        <ele>174.80000305176</ele>
        <time>2020-09-13T09:53:03Z</time>
      </trkpt>
      <trkpt lat="44.5549" lon="4.6021">
        <ele>174.60000610352</ele>
        <time>2020-09-13T09:53:04Z</time>
      </trkpt>
      <trkpt lat="44.55492" lon="4.60218">
        <ele>174</ele>
        <time>2020-09-13T09:53:06Z</time>
      </trkpt>
      <trkpt lat="44.55493" lon="4.60222">
        <ele>174</ele>
        <time>2020-09-13T09:53:07Z</time>
      </trkpt>
      <trkpt lat="44.55495" lon="4.60225">
        <ele>174</ele>
        <time>2020-09-13T09:53:08Z</time>
      </trkpt>
      <trkpt lat="44.55498" lon="4.60227">
        <ele>173.80000305176</ele>
        <time>2020-09-13T09:53:09Z</time>
      </trkpt>
      <trkpt lat="44.55502" lon="4.60229">
        <ele>173.80000305176</ele>
        <time>2020-09-13T09:53:10Z</time>
      </trkpt>
      <trkpt lat="44.55511" lon="4.60231">
        <ele>173.80000305176</ele>
        <time>2020-09-13T09:53:12Z</time>
      </trkpt>
      <trkpt lat="44.55515" lon="4.60232">
        <ele>173.80000305176</ele>
        <time>2020-09-13T09:53:13Z</time>
      </trkpt>
      <trkpt lat="44.5552" lon="4.60233">
        <ele>173.80000305176</ele>
        <time>2020-09-13T09:53:14Z</time>
      </trkpt>
      <trkpt lat="44.55525" lon="4.60235">
        <ele>173.60000610352</ele>
        <time>2020-09-13T09:53:15Z</time>
      </trkpt>
      <trkpt lat="44.55529" lon="4.60238">
        <ele>173.60000610352</ele>
        <time>2020-09-13T09:53:16Z</time>
      </trkpt>
      <trkpt lat="44.55533" lon="4.60242">
        <ele>173.80000305176</ele>
        <time>2020-09-13T09:53:17Z</time>
      </trkpt>
      <trkpt lat="44.55537" lon="4.60246">
        <ele>174</ele>
        <time>2020-09-13T09:53:18Z</time>
      </trkpt>
      <trkpt lat="44.5554" lon="4.60251">
        <ele>174</ele>
        <time>2020-09-13T09:53:19Z</time>
      </trkpt>
      <trkpt lat="44.55548" lon="4.60259">
        <ele>174.19999694824</ele>
        <time>2020-09-13T09:53:21Z</time>
      </trkpt>
      <trkpt lat="44.55552" lon="4.60263">
        <ele>174.19999694824</ele>
        <time>2020-09-13T09:53:22Z</time>
      </trkpt>
      <trkpt lat="44.55557" lon="4.60265">
        <ele>174.19999694824</ele>
        <time>2020-09-13T09:53:23Z</time>
      </trkpt>
      <trkpt lat="44.55561" lon="4.60266">
        <ele>174.39999389648</ele>
        <time>2020-09-13T09:53:24Z</time>
      </trkpt>
      <trkpt lat="44.55565" lon="4.60265">
        <ele>174.19999694824</ele>
        <time>2020-09-13T09:53:25Z</time>
      </trkpt>
      <trkpt lat="44.5557" lon="4.60264">
        <ele>174.39999389648</ele>
        <time>2020-09-13T09:53:26Z</time>
      </trkpt>
      <trkpt lat="44.55574" lon="4.60263">
        <ele>174.39999389648</ele>
        <time>2020-09-13T09:53:27Z</time>
      </trkpt>
      <trkpt lat="44.55588" lon="4.60261">
        <ele>174.19999694824</ele>
        <time>2020-09-13T09:53:30Z</time>
      </trkpt>
      <trkpt lat="44.55599" lon="4.60261">
        <ele>174.39999389648</ele>
        <time>2020-09-13T09:53:32Z</time>
      </trkpt>
      <trkpt lat="44.55629" lon="4.60265">
        <ele>174.60000610352</ele>
        <time>2020-09-13T09:53:38Z</time>
      </trkpt>
      <trkpt lat="44.55634" lon="4.60266">
        <ele>174.60000610352</ele>
        <time>2020-09-13T09:53:39Z</time>
      </trkpt>
      <trkpt lat="44.55643" lon="4.60268">
        <ele>174.80000305176</ele>
        <time>2020-09-13T09:53:41Z</time>
      </trkpt>
      <trkpt lat="44.55659" lon="4.60272">
        <ele>174.80000305176</ele>
        <time>2020-09-13T09:53:44Z</time>
      </trkpt>
      <trkpt lat="44.55686" lon="4.60277">
        <ele>175.39999389648</ele>
        <time>2020-09-13T09:53:49Z</time>
      </trkpt>
      <trkpt lat="44.55691" lon="4.60278">
        <ele>175.60000610352</ele>
        <time>2020-09-13T09:53:50Z</time>
      </trkpt>
      <trkpt lat="44.55696" lon="4.60278">
        <ele>175.80000305176</ele>
        <time>2020-09-13T09:53:51Z</time>
      </trkpt>
      <trkpt lat="44.55701" lon="4.60276">
        <ele>175.80000305176</ele>
        <time>2020-09-13T09:53:52Z</time>
      </trkpt>
      <trkpt lat="44.55705" lon="4.60274">
        <ele>176.19999694824</ele>
        <time>2020-09-13T09:53:53Z</time>
      </trkpt>
      <trkpt lat="44.55709" lon="4.60272">
        <ele>176.19999694824</ele>
        <time>2020-09-13T09:53:54Z</time>
      </trkpt>
      <trkpt lat="44.55713" lon="4.60271">
        <ele>176.39999389648</ele>
        <time>2020-09-13T09:53:55Z</time>
      </trkpt>
      <trkpt lat="44.55717" lon="4.60271">
        <ele>176.60000610352</ele>
        <time>2020-09-13T09:53:56Z</time>
      </trkpt>
      <trkpt lat="44.55721" lon="4.60271">
        <ele>176.80000305176</ele>
        <time>2020-09-13T09:53:57Z</time>
      </trkpt>
      <trkpt lat="44.55724" lon="4.60271">
        <ele>177</ele>
        <time>2020-09-13T09:53:58Z</time>
      </trkpt>
      <trkpt lat="44.55728" lon="4.60272">
        <ele>177.39999389648</ele>
        <time>2020-09-13T09:53:59Z</time>
      </trkpt>
      <trkpt lat="44.55731" lon="4.60272">
        <ele>177.60000610352</ele>
        <time>2020-09-13T09:54:00Z</time>
      </trkpt>
      <trkpt lat="44.55735" lon="4.60273">
        <ele>177.80000305176</ele>
        <time>2020-09-13T09:54:01Z</time>
      </trkpt>
      <trkpt lat="44.55738" lon="4.60274">
        <ele>178.39999389648</ele>
        <time>2020-09-13T09:54:02Z</time>
      </trkpt>
      <trkpt lat="44.55741" lon="4.60276">
        <ele>179.19999694824</ele>
        <time>2020-09-13T09:54:03Z</time>
      </trkpt>
      <trkpt lat="44.55744" lon="4.60277">
        <ele>179.39999389648</ele>
        <time>2020-09-13T09:54:04Z</time>
      </trkpt>
      <trkpt lat="44.55747" lon="4.60278">
        <ele>179.60000610352</ele>
        <time>2020-09-13T09:54:05Z</time>
      </trkpt>
      <trkpt lat="44.5575" lon="4.6028">
        <ele>180</ele>
        <time>2020-09-13T09:54:06Z</time>
      </trkpt>
      <trkpt lat="44.55753" lon="4.60281">
        <ele>180.19999694824</ele>
        <time>2020-09-13T09:54:07Z</time>
      </trkpt>
      <trkpt lat="44.55755" lon="4.60281">
        <ele>180.60000610352</ele>
        <time>2020-09-13T09:54:08Z</time>
      </trkpt>
      <trkpt lat="44.55758" lon="4.6028">
        <ele>180.80000305176</ele>
        <time>2020-09-13T09:54:09Z</time>
      </trkpt>
      <trkpt lat="44.55761" lon="4.60281">
        <ele>181.19999694824</ele>
        <time>2020-09-13T09:54:10Z</time>
      </trkpt>
      <trkpt lat="44.55764" lon="4.60284">
        <ele>181.39999389648</ele>
        <time>2020-09-13T09:54:11Z</time>
      </trkpt>
      <trkpt lat="44.55768" lon="4.60287">
        <ele>181.39999389648</ele>
        <time>2020-09-13T09:54:12Z</time>
      </trkpt>
      <trkpt lat="44.55771" lon="4.6029">
        <ele>181.80000305176</ele>
        <time>2020-09-13T09:54:13Z</time>
      </trkpt>
      <trkpt lat="44.55776" lon="4.60293">
        <ele>182.39999389648</ele>
        <time>2020-09-13T09:54:14Z</time>
      </trkpt>
      <trkpt lat="44.5578" lon="4.60295">
        <ele>183.19999694824</ele>
        <time>2020-09-13T09:54:15Z</time>
      </trkpt>
      <trkpt lat="44.55784" lon="4.60297">
        <ele>183.60000610352</ele>
        <time>2020-09-13T09:54:16Z</time>
      </trkpt>
      <trkpt lat="44.55788" lon="4.60299">
        <ele>183.60000610352</ele>
        <time>2020-09-13T09:54:17Z</time>
      </trkpt>
      <trkpt lat="44.55791" lon="4.603">
        <ele>183.80000305176</ele>
        <time>2020-09-13T09:54:18Z</time>
      </trkpt>
      <trkpt lat="44.55793" lon="4.60301">
        <ele>184</ele>
        <time>2020-09-13T09:54:19Z</time>
      </trkpt>
      <trkpt lat="44.55796" lon="4.60303">
        <ele>184.19999694824</ele>
        <time>2020-09-13T09:54:20Z</time>
      </trkpt>
      <trkpt lat="44.55799" lon="4.60304">
        <ele>184.19999694824</ele>
        <time>2020-09-13T09:54:21Z</time>
      </trkpt>
      <trkpt lat="44.55803" lon="4.60306">
        <ele>184.39999389648</ele>
        <time>2020-09-13T09:54:22Z</time>
      </trkpt>
      <trkpt lat="44.55807" lon="4.60309">
        <ele>184.39999389648</ele>
        <time>2020-09-13T09:54:23Z</time>
      </trkpt>
      <trkpt lat="44.55812" lon="4.60311">
        <ele>184.39999389648</ele>
        <time>2020-09-13T09:54:24Z</time>
      </trkpt>
      <trkpt lat="44.55816" lon="4.60314">
        <ele>184.60000610352</ele>
        <time>2020-09-13T09:54:25Z</time>
      </trkpt>
      <trkpt lat="44.55821" lon="4.60317">
        <ele>184.60000610352</ele>
        <time>2020-09-13T09:54:26Z</time>
      </trkpt>
      <trkpt lat="44.55826" lon="4.60319">
        <ele>184.60000610352</ele>
        <time>2020-09-13T09:54:27Z</time>
      </trkpt>
      <trkpt lat="44.55831" lon="4.60322">
        <ele>184.80000305176</ele>
        <time>2020-09-13T09:54:28Z</time>
      </trkpt>
      <trkpt lat="44.55835" lon="4.60324">
        <ele>184.80000305176</ele>
        <time>2020-09-13T09:54:29Z</time>
      </trkpt>
      <trkpt lat="44.5584" lon="4.60326">
        <ele>184.60000610352</ele>
        <time>2020-09-13T09:54:30Z</time>
      </trkpt>
      <trkpt lat="44.55844" lon="4.60328">
        <ele>184.80000305176</ele>
        <time>2020-09-13T09:54:31Z</time>
      </trkpt>
      <trkpt lat="44.55849" lon="4.6033">
        <ele>185</ele>
        <time>2020-09-13T09:54:32Z</time>
      </trkpt>
      <trkpt lat="44.55853" lon="4.60333">
        <ele>185.19999694824</ele>
        <time>2020-09-13T09:54:33Z</time>
      </trkpt>
      <trkpt lat="44.55858" lon="4.60335">
        <ele>185.19999694824</ele>
        <time>2020-09-13T09:54:34Z</time>
      </trkpt>
      <trkpt lat="44.55862" lon="4.60338">
        <ele>185.19999694824</ele>
        <time>2020-09-13T09:54:35Z</time>
      </trkpt>
      <trkpt lat="44.55866" lon="4.60341">
        <ele>185.19999694824</ele>
        <time>2020-09-13T09:54:36Z</time>
      </trkpt>
      <trkpt lat="44.55871" lon="4.60343">
        <ele>185.60000610352</ele>
        <time>2020-09-13T09:54:37Z</time>
      </trkpt>
      <trkpt lat="44.55876" lon="4.60346">
        <ele>185.80000305176</ele>
        <time>2020-09-13T09:54:38Z</time>
      </trkpt>
      <trkpt lat="44.5588" lon="4.60348">
        <ele>185.80000305176</ele>
        <time>2020-09-13T09:54:39Z</time>
      </trkpt>
      <trkpt lat="44.55885" lon="4.60351">
        <ele>186</ele>
        <time>2020-09-13T09:54:40Z</time>
      </trkpt>
      <trkpt lat="44.55889" lon="4.60354">
        <ele>186</ele>
        <time>2020-09-13T09:54:41Z</time>
      </trkpt>
      <trkpt lat="44.55894" lon="4.60358">
        <ele>186.39999389648</ele>
        <time>2020-09-13T09:54:42Z</time>
      </trkpt>
      <trkpt lat="44.55898" lon="4.60361">
        <ele>186.60000610352</ele>
        <time>2020-09-13T09:54:43Z</time>
      </trkpt>
      <trkpt lat="44.55903" lon="4.60365">
        <ele>186.80000305176</ele>
        <time>2020-09-13T09:54:44Z</time>
      </trkpt>
      <trkpt lat="44.55907" lon="4.60368">
        <ele>187</ele>
        <time>2020-09-13T09:54:45Z</time>
      </trkpt>
      <trkpt lat="44.55911" lon="4.60372">
        <ele>187.19999694824</ele>
        <time>2020-09-13T09:54:46Z</time>
      </trkpt>
      <trkpt lat="44.55916" lon="4.60375">
        <ele>187.39999389648</ele>
        <time>2020-09-13T09:54:47Z</time>
      </trkpt>
      <trkpt lat="44.5592" lon="4.60378">
        <ele>187.19999694824</ele>
        <time>2020-09-13T09:54:48Z</time>
      </trkpt>
      <trkpt lat="44.55925" lon="4.60381">
        <ele>187.39999389648</ele>
        <time>2020-09-13T09:54:49Z</time>
      </trkpt>
      <trkpt lat="44.55929" lon="4.60384">
        <ele>187.60000610352</ele>
        <time>2020-09-13T09:54:50Z</time>
      </trkpt>
      <trkpt lat="44.55933" lon="4.60388">
        <ele>187.39999389648</ele>
        <time>2020-09-13T09:54:51Z</time>
      </trkpt>
      <trkpt lat="44.55947" lon="4.60396">
        <ele>187.60000610352</ele>
        <time>2020-09-13T09:54:54Z</time>
      </trkpt>
      <trkpt lat="44.55951" lon="4.60398">
        <ele>187.80000305176</ele>
        <time>2020-09-13T09:54:55Z</time>
      </trkpt>
      <trkpt lat="44.55955" lon="4.604">
        <ele>187.80000305176</ele>
        <time>2020-09-13T09:54:56Z</time>
      </trkpt>
      <trkpt lat="44.55959" lon="4.60402">
        <ele>187.80000305176</ele>
        <time>2020-09-13T09:54:57Z</time>
      </trkpt>
      <trkpt lat="44.55962" lon="4.60404">
        <ele>187.80000305176</ele>
        <time>2020-09-13T09:54:58Z</time>
      </trkpt>
      <trkpt lat="44.55965" lon="4.60405">
        <ele>188</ele>
        <time>2020-09-13T09:54:59Z</time>
      </trkpt>
      <trkpt lat="44.55968" lon="4.60407">
        <ele>188</ele>
        <time>2020-09-13T09:55:01Z</time>
      </trkpt>
    </trkseg>
  </trk>
</gpx>